<?xml version="1.0" encoding="UTF-8"?>
<gpx version="1.1" creator="https://www.youtrack.es" xsi:schemaLocation="http://www.topografix.com/GPX/1/1 http://www.topografix.com/GPX/1/1/gpx.xsd http://www.garmin.com/xmlschemas/GpxExtensions/v3 http://www.garmin.com/xmlschemas/GpxExtensionsv3.xsd http://www.garmin.com/xmlschemas/TrackPointExtension/v1 http://www.garmin.com/xmlschemas/TrackPointExtensionv1.xsd" xmlns:gpxtpx="http://www.garmin.com/xmlschemas/TrackPointExtension/v1" xmlns:gpxx="http://www.garmin.com/xmlschemas/GpxExtensions/v3" xmlns:xsi="http://www.w3.org/2001/XMLSchema-instance">
  <metadata>
    <link href="https://www.youtrack.es">
      <text>YouTrack.es</text>
    </link>
    <time>2026-05-08T01:58:21Z</time>
  </metadata>
  <trk>
    <src>https://www.youtrack.es</src>
    <link href="https://www.youtrack.es/ruta/9896-valdeaveruelo">
      <text>YouTrack.es</text>
    </link>
    <trkseg>
      <trkpt lat="40.642788" lon="-3.311252">
        <ele>761.519</ele>
        <time>2019-04-21T09:26:37Z</time>
      </trkpt>
      <trkpt lat="40.642855" lon="-3.311167">
        <ele>761.609</ele>
        <time>2019-04-21T09:26:39Z</time>
      </trkpt>
      <trkpt lat="40.642891" lon="-3.311111">
        <ele>761.719</ele>
        <time>2019-04-21T09:26:40Z</time>
      </trkpt>
      <trkpt lat="40.642922" lon="-3.311061">
        <ele>761.808</ele>
        <time>2019-04-21T09:26:41Z</time>
      </trkpt>
      <trkpt lat="40.642951" lon="-3.311003">
        <ele>761.874</ele>
        <time>2019-04-21T09:26:42Z</time>
      </trkpt>
      <trkpt lat="40.643003" lon="-3.310902">
        <ele>761.826</ele>
        <time>2019-04-21T09:26:44Z</time>
      </trkpt>
      <trkpt lat="40.643031" lon="-3.310856">
        <ele>762.256</ele>
        <time>2019-04-21T09:26:45Z</time>
      </trkpt>
      <trkpt lat="40.643051" lon="-3.310788">
        <ele>762.611</ele>
        <time>2019-04-21T09:26:46Z</time>
      </trkpt>
      <trkpt lat="40.643076" lon="-3.310737">
        <ele>762.933</ele>
        <time>2019-04-21T09:26:47Z</time>
      </trkpt>
      <trkpt lat="40.643136" lon="-3.310698">
        <ele>762.985</ele>
        <time>2019-04-21T09:26:49Z</time>
      </trkpt>
      <trkpt lat="40.643196" lon="-3.310664">
        <ele>762.399</ele>
        <time>2019-04-21T09:26:51Z</time>
      </trkpt>
      <trkpt lat="40.643248" lon="-3.310603">
        <ele>761.770</ele>
        <time>2019-04-21T09:26:53Z</time>
      </trkpt>
      <trkpt lat="40.643278" lon="-3.310522">
        <ele>761.452</ele>
        <time>2019-04-21T09:26:55Z</time>
      </trkpt>
      <trkpt lat="40.643304" lon="-3.310455">
        <ele>760.853</ele>
        <time>2019-04-21T09:26:57Z</time>
      </trkpt>
      <trkpt lat="40.643282" lon="-3.310507">
        <ele>758.608</ele>
        <time>2019-04-21T09:27:10Z</time>
      </trkpt>
      <trkpt lat="40.643260" lon="-3.310454">
        <ele>758.208</ele>
        <time>2019-04-21T09:27:29Z</time>
      </trkpt>
      <trkpt lat="40.643223" lon="-3.310407">
        <ele>758.388</ele>
        <time>2019-04-21T09:27:33Z</time>
      </trkpt>
      <trkpt lat="40.643202" lon="-3.310465">
        <ele>758.890</ele>
        <time>2019-04-21T09:27:45Z</time>
      </trkpt>
      <trkpt lat="40.643184" lon="-3.310528">
        <ele>759.630</ele>
        <time>2019-04-21T09:27:49Z</time>
      </trkpt>
      <trkpt lat="40.643149" lon="-3.310568">
        <ele>759.555</ele>
        <time>2019-04-21T09:28:32Z</time>
      </trkpt>
      <trkpt lat="40.643104" lon="-3.310579">
        <ele>759.657</ele>
        <time>2019-04-21T09:29:08Z</time>
      </trkpt>
      <trkpt lat="40.643051" lon="-3.310565">
        <ele>759.339</ele>
        <time>2019-04-21T09:29:15Z</time>
      </trkpt>
      <trkpt lat="40.643022" lon="-3.310611">
        <ele>759.263</ele>
        <time>2019-04-21T09:29:21Z</time>
      </trkpt>
      <trkpt lat="40.642964" lon="-3.310591">
        <ele>759.574</ele>
        <time>2019-04-21T09:29:30Z</time>
      </trkpt>
      <trkpt lat="40.642983" lon="-3.310526">
        <ele>759.021</ele>
        <time>2019-04-21T09:30:37Z</time>
      </trkpt>
      <trkpt lat="40.643013" lon="-3.310440">
        <ele>759.741</ele>
        <time>2019-04-21T09:30:39Z</time>
      </trkpt>
      <trkpt lat="40.643059" lon="-3.310341">
        <ele>760.305</ele>
        <time>2019-04-21T09:30:41Z</time>
      </trkpt>
      <trkpt lat="40.643091" lon="-3.310275">
        <ele>760.408</ele>
        <time>2019-04-21T09:30:42Z</time>
      </trkpt>
      <trkpt lat="40.643130" lon="-3.310214">
        <ele>760.435</ele>
        <time>2019-04-21T09:30:43Z</time>
      </trkpt>
      <trkpt lat="40.643171" lon="-3.310163">
        <ele>760.357</ele>
        <time>2019-04-21T09:30:44Z</time>
      </trkpt>
      <trkpt lat="40.643218" lon="-3.310116">
        <ele>760.197</ele>
        <time>2019-04-21T09:30:45Z</time>
      </trkpt>
      <trkpt lat="40.643255" lon="-3.310070">
        <ele>759.912</ele>
        <time>2019-04-21T09:30:46Z</time>
      </trkpt>
      <trkpt lat="40.643288" lon="-3.309987">
        <ele>759.274</ele>
        <time>2019-04-21T09:30:48Z</time>
      </trkpt>
      <trkpt lat="40.643340" lon="-3.309877">
        <ele>759.116</ele>
        <time>2019-04-21T09:30:50Z</time>
      </trkpt>
      <trkpt lat="40.643364" lon="-3.309819">
        <ele>759.190</ele>
        <time>2019-04-21T09:30:51Z</time>
      </trkpt>
      <trkpt lat="40.643435" lon="-3.309729">
        <ele>759.381</ele>
        <time>2019-04-21T09:30:53Z</time>
      </trkpt>
      <trkpt lat="40.643495" lon="-3.309641">
        <ele>759.452</ele>
        <time>2019-04-21T09:30:55Z</time>
      </trkpt>
      <trkpt lat="40.643537" lon="-3.309564">
        <ele>759.153</ele>
        <time>2019-04-21T09:30:57Z</time>
      </trkpt>
      <trkpt lat="40.643571" lon="-3.309522">
        <ele>759.108</ele>
        <time>2019-04-21T09:30:58Z</time>
      </trkpt>
      <trkpt lat="40.643609" lon="-3.309484">
        <ele>759.108</ele>
        <time>2019-04-21T09:30:59Z</time>
      </trkpt>
      <trkpt lat="40.643657" lon="-3.309390">
        <ele>759.548</ele>
        <time>2019-04-21T09:31:01Z</time>
      </trkpt>
      <trkpt lat="40.643688" lon="-3.309312">
        <ele>760.030</ele>
        <time>2019-04-21T09:31:02Z</time>
      </trkpt>
      <trkpt lat="40.643716" lon="-3.309255">
        <ele>760.440</ele>
        <time>2019-04-21T09:31:03Z</time>
      </trkpt>
      <trkpt lat="40.643742" lon="-3.309199">
        <ele>760.445</ele>
        <time>2019-04-21T09:31:04Z</time>
      </trkpt>
      <trkpt lat="40.643785" lon="-3.309117">
        <ele>760.227</ele>
        <time>2019-04-21T09:31:06Z</time>
      </trkpt>
      <trkpt lat="40.643808" lon="-3.309052">
        <ele>759.989</ele>
        <time>2019-04-21T09:31:07Z</time>
      </trkpt>
      <trkpt lat="40.643831" lon="-3.308981">
        <ele>759.513</ele>
        <time>2019-04-21T09:31:08Z</time>
      </trkpt>
      <trkpt lat="40.643844" lon="-3.308921">
        <ele>759.174</ele>
        <time>2019-04-21T09:31:09Z</time>
      </trkpt>
      <trkpt lat="40.643852" lon="-3.308862">
        <ele>758.799</ele>
        <time>2019-04-21T09:31:10Z</time>
      </trkpt>
      <trkpt lat="40.643890" lon="-3.308755">
        <ele>757.407</ele>
        <time>2019-04-21T09:31:12Z</time>
      </trkpt>
      <trkpt lat="40.643910" lon="-3.308697">
        <ele>757.327</ele>
        <time>2019-04-21T09:31:13Z</time>
      </trkpt>
      <trkpt lat="40.643946" lon="-3.308591">
        <ele>757.708</ele>
        <time>2019-04-21T09:31:15Z</time>
      </trkpt>
      <trkpt lat="40.643981" lon="-3.308551">
        <ele>758.362</ele>
        <time>2019-04-21T09:31:16Z</time>
      </trkpt>
      <trkpt lat="40.644042" lon="-3.308487">
        <ele>759.364</ele>
        <time>2019-04-21T09:31:18Z</time>
      </trkpt>
      <trkpt lat="40.644112" lon="-3.308472">
        <ele>759.254</ele>
        <time>2019-04-21T09:31:20Z</time>
      </trkpt>
      <trkpt lat="40.644181" lon="-3.308449">
        <ele>759.329</ele>
        <time>2019-04-21T09:31:22Z</time>
      </trkpt>
      <trkpt lat="40.644245" lon="-3.308417">
        <ele>759.531</ele>
        <time>2019-04-21T09:31:24Z</time>
      </trkpt>
      <trkpt lat="40.644333" lon="-3.308374">
        <ele>759.683</ele>
        <time>2019-04-21T09:31:26Z</time>
      </trkpt>
      <trkpt lat="40.644400" lon="-3.308349">
        <ele>759.127</ele>
        <time>2019-04-21T09:31:28Z</time>
      </trkpt>
      <trkpt lat="40.644461" lon="-3.308306">
        <ele>758.828</ele>
        <time>2019-04-21T09:31:30Z</time>
      </trkpt>
      <trkpt lat="40.644518" lon="-3.308276">
        <ele>758.728</ele>
        <time>2019-04-21T09:31:31Z</time>
      </trkpt>
      <trkpt lat="40.644562" lon="-3.308252">
        <ele>758.789</ele>
        <time>2019-04-21T09:31:32Z</time>
      </trkpt>
      <trkpt lat="40.644602" lon="-3.308221">
        <ele>758.717</ele>
        <time>2019-04-21T09:31:33Z</time>
      </trkpt>
      <trkpt lat="40.644658" lon="-3.308171">
        <ele>758.708</ele>
        <time>2019-04-21T09:31:35Z</time>
      </trkpt>
      <trkpt lat="40.644702" lon="-3.308111">
        <ele>758.935</ele>
        <time>2019-04-21T09:31:37Z</time>
      </trkpt>
      <trkpt lat="40.644733" lon="-3.308068">
        <ele>759.397</ele>
        <time>2019-04-21T09:31:39Z</time>
      </trkpt>
      <trkpt lat="40.644786" lon="-3.308003">
        <ele>760.087</ele>
        <time>2019-04-21T09:31:41Z</time>
      </trkpt>
      <trkpt lat="40.644856" lon="-3.307911">
        <ele>760.332</ele>
        <time>2019-04-21T09:31:43Z</time>
      </trkpt>
      <trkpt lat="40.644883" lon="-3.307862">
        <ele>760.514</ele>
        <time>2019-04-21T09:31:44Z</time>
      </trkpt>
      <trkpt lat="40.644937" lon="-3.307775">
        <ele>760.916</ele>
        <time>2019-04-21T09:31:46Z</time>
      </trkpt>
      <trkpt lat="40.644997" lon="-3.307704">
        <ele>761.890</ele>
        <time>2019-04-21T09:31:48Z</time>
      </trkpt>
      <trkpt lat="40.645047" lon="-3.307615">
        <ele>763.011</ele>
        <time>2019-04-21T09:31:50Z</time>
      </trkpt>
      <trkpt lat="40.645097" lon="-3.307554">
        <ele>763.987</ele>
        <time>2019-04-21T09:31:52Z</time>
      </trkpt>
      <trkpt lat="40.645142" lon="-3.307522">
        <ele>764.442</ele>
        <time>2019-04-21T09:31:54Z</time>
      </trkpt>
      <trkpt lat="40.645206" lon="-3.307516">
        <ele>765.026</ele>
        <time>2019-04-21T09:31:56Z</time>
      </trkpt>
      <trkpt lat="40.645260" lon="-3.307522">
        <ele>766.008</ele>
        <time>2019-04-21T09:31:58Z</time>
      </trkpt>
      <trkpt lat="40.645319" lon="-3.307518">
        <ele>767.021</ele>
        <time>2019-04-21T09:32:00Z</time>
      </trkpt>
      <trkpt lat="40.645370" lon="-3.307505">
        <ele>767.643</ele>
        <time>2019-04-21T09:32:05Z</time>
      </trkpt>
      <trkpt lat="40.645351" lon="-3.307443">
        <ele>767.823</ele>
        <time>2019-04-21T09:32:17Z</time>
      </trkpt>
      <trkpt lat="40.645318" lon="-3.307396">
        <ele>767.348</ele>
        <time>2019-04-21T09:32:22Z</time>
      </trkpt>
      <trkpt lat="40.645270" lon="-3.307346">
        <ele>767.460</ele>
        <time>2019-04-21T09:32:37Z</time>
      </trkpt>
      <trkpt lat="40.645224" lon="-3.307360">
        <ele>767.532</ele>
        <time>2019-04-21T09:32:40Z</time>
      </trkpt>
      <trkpt lat="40.640227" lon="-3.316182">
        <ele>741.776</ele>
        <time>2019-04-21T09:35:04Z</time>
      </trkpt>
      <trkpt lat="40.640145" lon="-3.316226">
        <ele>741.287</ele>
        <time>2019-04-21T09:35:05Z</time>
      </trkpt>
      <trkpt lat="40.640057" lon="-3.316266">
        <ele>741.097</ele>
        <time>2019-04-21T09:35:06Z</time>
      </trkpt>
      <trkpt lat="40.639971" lon="-3.316296">
        <ele>740.723</ele>
        <time>2019-04-21T09:35:07Z</time>
      </trkpt>
      <trkpt lat="40.639892" lon="-3.316330">
        <ele>740.525</ele>
        <time>2019-04-21T09:35:08Z</time>
      </trkpt>
      <trkpt lat="40.639820" lon="-3.316361">
        <ele>740.208</ele>
        <time>2019-04-21T09:35:09Z</time>
      </trkpt>
      <trkpt lat="40.639755" lon="-3.316390">
        <ele>739.922</ele>
        <time>2019-04-21T09:35:10Z</time>
      </trkpt>
      <trkpt lat="40.639696" lon="-3.316410">
        <ele>739.674</ele>
        <time>2019-04-21T09:35:11Z</time>
      </trkpt>
      <trkpt lat="40.639650" lon="-3.316437">
        <ele>739.414</ele>
        <time>2019-04-21T09:35:12Z</time>
      </trkpt>
      <trkpt lat="40.639571" lon="-3.316487">
        <ele>739.089</ele>
        <time>2019-04-21T09:35:14Z</time>
      </trkpt>
      <trkpt lat="40.639524" lon="-3.316516">
        <ele>738.641</ele>
        <time>2019-04-21T09:35:16Z</time>
      </trkpt>
      <trkpt lat="40.639569" lon="-3.316505">
        <ele>738.583</ele>
        <time>2019-04-21T09:35:58Z</time>
      </trkpt>
      <trkpt lat="40.639519" lon="-3.316528">
        <ele>738.657</ele>
        <time>2019-04-21T09:36:36Z</time>
      </trkpt>
      <trkpt lat="40.639470" lon="-3.316575">
        <ele>738.948</ele>
        <time>2019-04-21T09:36:44Z</time>
      </trkpt>
      <trkpt lat="40.639356" lon="-3.316603">
        <ele>738.828</ele>
        <time>2019-04-21T09:36:46Z</time>
      </trkpt>
      <trkpt lat="40.639288" lon="-3.316636">
        <ele>738.689</ele>
        <time>2019-04-21T09:36:47Z</time>
      </trkpt>
      <trkpt lat="40.639224" lon="-3.316678">
        <ele>738.317</ele>
        <time>2019-04-21T09:36:48Z</time>
      </trkpt>
      <trkpt lat="40.639156" lon="-3.316712">
        <ele>738.008</ele>
        <time>2019-04-21T09:36:49Z</time>
      </trkpt>
      <trkpt lat="40.639096" lon="-3.316737">
        <ele>737.855</ele>
        <time>2019-04-21T09:36:50Z</time>
      </trkpt>
      <trkpt lat="40.639026" lon="-3.316760">
        <ele>737.777</ele>
        <time>2019-04-21T09:36:51Z</time>
      </trkpt>
      <trkpt lat="40.638961" lon="-3.316734">
        <ele>737.727</ele>
        <time>2019-04-21T09:36:52Z</time>
      </trkpt>
      <trkpt lat="40.638907" lon="-3.316676">
        <ele>737.722</ele>
        <time>2019-04-21T09:36:53Z</time>
      </trkpt>
      <trkpt lat="40.638847" lon="-3.316619">
        <ele>737.814</ele>
        <time>2019-04-21T09:36:54Z</time>
      </trkpt>
      <trkpt lat="40.638785" lon="-3.316547">
        <ele>737.956</ele>
        <time>2019-04-21T09:36:55Z</time>
      </trkpt>
      <trkpt lat="40.638723" lon="-3.316489">
        <ele>738.090</ele>
        <time>2019-04-21T09:36:56Z</time>
      </trkpt>
      <trkpt lat="40.638661" lon="-3.316427">
        <ele>738.131</ele>
        <time>2019-04-21T09:36:57Z</time>
      </trkpt>
      <trkpt lat="40.638600" lon="-3.316362">
        <ele>738.249</ele>
        <time>2019-04-21T09:36:58Z</time>
      </trkpt>
      <trkpt lat="40.638538" lon="-3.316293">
        <ele>738.402</ele>
        <time>2019-04-21T09:36:59Z</time>
      </trkpt>
      <trkpt lat="40.638476" lon="-3.316224">
        <ele>738.422</ele>
        <time>2019-04-21T09:37:00Z</time>
      </trkpt>
      <trkpt lat="40.638421" lon="-3.316165">
        <ele>738.208</ele>
        <time>2019-04-21T09:37:01Z</time>
      </trkpt>
      <trkpt lat="40.638363" lon="-3.316104">
        <ele>737.797</ele>
        <time>2019-04-21T09:37:02Z</time>
      </trkpt>
      <trkpt lat="40.638314" lon="-3.316058">
        <ele>737.059</ele>
        <time>2019-04-21T09:37:03Z</time>
      </trkpt>
      <trkpt lat="40.638275" lon="-3.316016">
        <ele>736.299</ele>
        <time>2019-04-21T09:37:04Z</time>
      </trkpt>
      <trkpt lat="40.638237" lon="-3.315976">
        <ele>735.524</ele>
        <time>2019-04-21T09:37:05Z</time>
      </trkpt>
      <trkpt lat="40.638202" lon="-3.315936">
        <ele>734.936</ele>
        <time>2019-04-21T09:37:06Z</time>
      </trkpt>
      <trkpt lat="40.638158" lon="-3.315898">
        <ele>734.598</ele>
        <time>2019-04-21T09:37:07Z</time>
      </trkpt>
      <trkpt lat="40.638113" lon="-3.315860">
        <ele>734.042</ele>
        <time>2019-04-21T09:37:08Z</time>
      </trkpt>
      <trkpt lat="40.638059" lon="-3.315828">
        <ele>733.953</ele>
        <time>2019-04-21T09:37:09Z</time>
      </trkpt>
      <trkpt lat="40.637999" lon="-3.315801">
        <ele>733.961</ele>
        <time>2019-04-21T09:37:10Z</time>
      </trkpt>
      <trkpt lat="40.637934" lon="-3.315770">
        <ele>733.421</ele>
        <time>2019-04-21T09:37:11Z</time>
      </trkpt>
      <trkpt lat="40.637875" lon="-3.315719">
        <ele>732.813</ele>
        <time>2019-04-21T09:37:12Z</time>
      </trkpt>
      <trkpt lat="40.637818" lon="-3.315679">
        <ele>732.008</ele>
        <time>2019-04-21T09:37:13Z</time>
      </trkpt>
      <trkpt lat="40.637750" lon="-3.315642">
        <ele>731.239</ele>
        <time>2019-04-21T09:37:14Z</time>
      </trkpt>
      <trkpt lat="40.637683" lon="-3.315604">
        <ele>730.251</ele>
        <time>2019-04-21T09:37:15Z</time>
      </trkpt>
      <trkpt lat="40.637623" lon="-3.315560">
        <ele>729.931</ele>
        <time>2019-04-21T09:37:16Z</time>
      </trkpt>
      <trkpt lat="40.637572" lon="-3.315507">
        <ele>729.396</ele>
        <time>2019-04-21T09:37:17Z</time>
      </trkpt>
      <trkpt lat="40.637525" lon="-3.315453">
        <ele>728.618</ele>
        <time>2019-04-21T09:37:18Z</time>
      </trkpt>
      <trkpt lat="40.637486" lon="-3.315394">
        <ele>728.650</ele>
        <time>2019-04-21T09:37:19Z</time>
      </trkpt>
      <trkpt lat="40.637455" lon="-3.315331">
        <ele>728.574</ele>
        <time>2019-04-21T09:37:20Z</time>
      </trkpt>
      <trkpt lat="40.637422" lon="-3.315266">
        <ele>728.325</ele>
        <time>2019-04-21T09:37:21Z</time>
      </trkpt>
      <trkpt lat="40.637386" lon="-3.315203">
        <ele>728.382</ele>
        <time>2019-04-21T09:37:22Z</time>
      </trkpt>
      <trkpt lat="40.637343" lon="-3.315143">
        <ele>728.343</ele>
        <time>2019-04-21T09:37:23Z</time>
      </trkpt>
      <trkpt lat="40.637308" lon="-3.315083">
        <ele>728.317</ele>
        <time>2019-04-21T09:37:24Z</time>
      </trkpt>
      <trkpt lat="40.637285" lon="-3.315028">
        <ele>728.108</ele>
        <time>2019-04-21T09:37:25Z</time>
      </trkpt>
      <trkpt lat="40.637251" lon="-3.314974">
        <ele>727.921</ele>
        <time>2019-04-21T09:37:26Z</time>
      </trkpt>
      <trkpt lat="40.637221" lon="-3.314921">
        <ele>727.833</ele>
        <time>2019-04-21T09:37:27Z</time>
      </trkpt>
      <trkpt lat="40.637189" lon="-3.314878">
        <ele>727.763</ele>
        <time>2019-04-21T09:37:28Z</time>
      </trkpt>
      <trkpt lat="40.637159" lon="-3.314832">
        <ele>727.618</ele>
        <time>2019-04-21T09:37:29Z</time>
      </trkpt>
      <trkpt lat="40.637125" lon="-3.314778">
        <ele>727.510</ele>
        <time>2019-04-21T09:37:30Z</time>
      </trkpt>
      <trkpt lat="40.637080" lon="-3.314694">
        <ele>727.332</ele>
        <time>2019-04-21T09:37:31Z</time>
      </trkpt>
      <trkpt lat="40.637042" lon="-3.314616">
        <ele>727.226</ele>
        <time>2019-04-21T09:37:32Z</time>
      </trkpt>
      <trkpt lat="40.637009" lon="-3.314539">
        <ele>727.227</ele>
        <time>2019-04-21T09:37:33Z</time>
      </trkpt>
      <trkpt lat="40.636988" lon="-3.314464">
        <ele>727.235</ele>
        <time>2019-04-21T09:37:34Z</time>
      </trkpt>
      <trkpt lat="40.636984" lon="-3.314392">
        <ele>727.286</ele>
        <time>2019-04-21T09:37:35Z</time>
      </trkpt>
      <trkpt lat="40.636975" lon="-3.314308">
        <ele>727.314</ele>
        <time>2019-04-21T09:37:36Z</time>
      </trkpt>
      <trkpt lat="40.636963" lon="-3.314207">
        <ele>727.508</ele>
        <time>2019-04-21T09:37:37Z</time>
      </trkpt>
      <trkpt lat="40.636956" lon="-3.314124">
        <ele>727.596</ele>
        <time>2019-04-21T09:37:38Z</time>
      </trkpt>
      <trkpt lat="40.636936" lon="-3.314035">
        <ele>727.528</ele>
        <time>2019-04-21T09:37:39Z</time>
      </trkpt>
      <trkpt lat="40.636910" lon="-3.313952">
        <ele>727.358</ele>
        <time>2019-04-21T09:37:40Z</time>
      </trkpt>
      <trkpt lat="40.636890" lon="-3.313892">
        <ele>727.313</ele>
        <time>2019-04-21T09:37:41Z</time>
      </trkpt>
      <trkpt lat="40.636893" lon="-3.313817">
        <ele>727.435</ele>
        <time>2019-04-21T09:37:42Z</time>
      </trkpt>
      <trkpt lat="40.636921" lon="-3.313713">
        <ele>728.067</ele>
        <time>2019-04-21T09:37:44Z</time>
      </trkpt>
      <trkpt lat="40.636951" lon="-3.313636">
        <ele>728.851</ele>
        <time>2019-04-21T09:37:46Z</time>
      </trkpt>
      <trkpt lat="40.636990" lon="-3.313595">
        <ele>729.142</ele>
        <time>2019-04-21T09:37:49Z</time>
      </trkpt>
      <trkpt lat="40.637012" lon="-3.313529">
        <ele>729.776</ele>
        <time>2019-04-21T09:37:51Z</time>
      </trkpt>
      <trkpt lat="40.637046" lon="-3.313405">
        <ele>730.290</ele>
        <time>2019-04-21T09:37:53Z</time>
      </trkpt>
      <trkpt lat="40.637051" lon="-3.313338">
        <ele>730.219</ele>
        <time>2019-04-21T09:37:54Z</time>
      </trkpt>
      <trkpt lat="40.637055" lon="-3.313268">
        <ele>730.008</ele>
        <time>2019-04-21T09:37:55Z</time>
      </trkpt>
      <trkpt lat="40.637055" lon="-3.313194">
        <ele>729.720</ele>
        <time>2019-04-21T09:37:56Z</time>
      </trkpt>
      <trkpt lat="40.637059" lon="-3.313115">
        <ele>729.382</ele>
        <time>2019-04-21T09:37:57Z</time>
      </trkpt>
      <trkpt lat="40.637061" lon="-3.313035">
        <ele>728.952</ele>
        <time>2019-04-21T09:37:58Z</time>
      </trkpt>
      <trkpt lat="40.637064" lon="-3.312970">
        <ele>728.527</ele>
        <time>2019-04-21T09:37:59Z</time>
      </trkpt>
      <trkpt lat="40.637070" lon="-3.312903">
        <ele>728.439</ele>
        <time>2019-04-21T09:38:00Z</time>
      </trkpt>
      <trkpt lat="40.637084" lon="-3.312841">
        <ele>728.281</ele>
        <time>2019-04-21T09:38:01Z</time>
      </trkpt>
      <trkpt lat="40.637115" lon="-3.312753">
        <ele>727.895</ele>
        <time>2019-04-21T09:38:03Z</time>
      </trkpt>
      <trkpt lat="40.637130" lon="-3.312696">
        <ele>727.586</ele>
        <time>2019-04-21T09:38:04Z</time>
      </trkpt>
      <trkpt lat="40.637165" lon="-3.312609">
        <ele>727.536</ele>
        <time>2019-04-21T09:38:06Z</time>
      </trkpt>
      <trkpt lat="40.637207" lon="-3.312533">
        <ele>727.717</ele>
        <time>2019-04-21T09:38:08Z</time>
      </trkpt>
      <trkpt lat="40.637251" lon="-3.312446">
        <ele>728.018</ele>
        <time>2019-04-21T09:38:10Z</time>
      </trkpt>
      <trkpt lat="40.637274" lon="-3.312392">
        <ele>728.108</ele>
        <time>2019-04-21T09:38:11Z</time>
      </trkpt>
      <trkpt lat="40.637303" lon="-3.312334">
        <ele>728.366</ele>
        <time>2019-04-21T09:38:12Z</time>
      </trkpt>
      <trkpt lat="40.637338" lon="-3.312272">
        <ele>728.328</ele>
        <time>2019-04-21T09:38:13Z</time>
      </trkpt>
      <trkpt lat="40.637373" lon="-3.312213">
        <ele>728.468</ele>
        <time>2019-04-21T09:38:14Z</time>
      </trkpt>
      <trkpt lat="40.637428" lon="-3.312146">
        <ele>728.573</ele>
        <time>2019-04-21T09:38:15Z</time>
      </trkpt>
      <trkpt lat="40.637466" lon="-3.312080">
        <ele>728.675</ele>
        <time>2019-04-21T09:38:16Z</time>
      </trkpt>
      <trkpt lat="40.637523" lon="-3.312004">
        <ele>728.777</ele>
        <time>2019-04-21T09:38:17Z</time>
      </trkpt>
      <trkpt lat="40.637563" lon="-3.311937">
        <ele>728.851</ele>
        <time>2019-04-21T09:38:18Z</time>
      </trkpt>
      <trkpt lat="40.637599" lon="-3.311863">
        <ele>729.042</ele>
        <time>2019-04-21T09:38:19Z</time>
      </trkpt>
      <trkpt lat="40.637632" lon="-3.311797">
        <ele>729.133</ele>
        <time>2019-04-21T09:38:20Z</time>
      </trkpt>
      <trkpt lat="40.637673" lon="-3.311732">
        <ele>729.323</ele>
        <time>2019-04-21T09:38:21Z</time>
      </trkpt>
      <trkpt lat="40.637713" lon="-3.311675">
        <ele>729.415</ele>
        <time>2019-04-21T09:38:22Z</time>
      </trkpt>
      <trkpt lat="40.637753" lon="-3.311622">
        <ele>729.808</ele>
        <time>2019-04-21T09:38:23Z</time>
      </trkpt>
      <trkpt lat="40.637807" lon="-3.311581">
        <ele>729.946</ele>
        <time>2019-04-21T09:38:24Z</time>
      </trkpt>
      <trkpt lat="40.637875" lon="-3.311536">
        <ele>730.128</ele>
        <time>2019-04-21T09:38:25Z</time>
      </trkpt>
      <trkpt lat="40.637944" lon="-3.311499">
        <ele>730.338</ele>
        <time>2019-04-21T09:38:26Z</time>
      </trkpt>
      <trkpt lat="40.638011" lon="-3.311465">
        <ele>730.743</ele>
        <time>2019-04-21T09:38:27Z</time>
      </trkpt>
      <trkpt lat="40.638076" lon="-3.311432">
        <ele>731.325</ele>
        <time>2019-04-21T09:38:28Z</time>
      </trkpt>
      <trkpt lat="40.638136" lon="-3.311384">
        <ele>732.137</ele>
        <time>2019-04-21T09:38:29Z</time>
      </trkpt>
      <trkpt lat="40.638188" lon="-3.311336">
        <ele>732.981</ele>
        <time>2019-04-21T09:38:30Z</time>
      </trkpt>
      <trkpt lat="40.638242" lon="-3.311269">
        <ele>733.122</ele>
        <time>2019-04-21T09:38:31Z</time>
      </trkpt>
      <trkpt lat="40.638288" lon="-3.311195">
        <ele>733.141</ele>
        <time>2019-04-21T09:38:32Z</time>
      </trkpt>
      <trkpt lat="40.638320" lon="-3.311122">
        <ele>733.081</ele>
        <time>2019-04-21T09:38:33Z</time>
      </trkpt>
      <trkpt lat="40.638355" lon="-3.311044">
        <ele>733.009</ele>
        <time>2019-04-21T09:38:34Z</time>
      </trkpt>
      <trkpt lat="40.638379" lon="-3.310962">
        <ele>732.908</ele>
        <time>2019-04-21T09:38:35Z</time>
      </trkpt>
      <trkpt lat="40.638402" lon="-3.310870">
        <ele>732.937</ele>
        <time>2019-04-21T09:38:36Z</time>
      </trkpt>
      <trkpt lat="40.638434" lon="-3.310767">
        <ele>732.989</ele>
        <time>2019-04-21T09:38:37Z</time>
      </trkpt>
      <trkpt lat="40.638465" lon="-3.310675">
        <ele>732.969</ele>
        <time>2019-04-21T09:38:38Z</time>
      </trkpt>
      <trkpt lat="40.638489" lon="-3.310578">
        <ele>733.094</ele>
        <time>2019-04-21T09:38:39Z</time>
      </trkpt>
      <trkpt lat="40.638519" lon="-3.310487">
        <ele>733.036</ele>
        <time>2019-04-21T09:38:40Z</time>
      </trkpt>
      <trkpt lat="40.638559" lon="-3.310403">
        <ele>733.148</ele>
        <time>2019-04-21T09:38:41Z</time>
      </trkpt>
      <trkpt lat="40.638601" lon="-3.310321">
        <ele>733.272</ele>
        <time>2019-04-21T09:38:42Z</time>
      </trkpt>
      <trkpt lat="40.638656" lon="-3.310248">
        <ele>733.413</ele>
        <time>2019-04-21T09:38:43Z</time>
      </trkpt>
      <trkpt lat="40.638711" lon="-3.310179">
        <ele>733.667</ele>
        <time>2019-04-21T09:38:44Z</time>
      </trkpt>
      <trkpt lat="40.638766" lon="-3.310118">
        <ele>733.981</ele>
        <time>2019-04-21T09:38:45Z</time>
      </trkpt>
      <trkpt lat="40.638820" lon="-3.310051">
        <ele>734.219</ele>
        <time>2019-04-21T09:38:46Z</time>
      </trkpt>
      <trkpt lat="40.638876" lon="-3.309986">
        <ele>734.408</ele>
        <time>2019-04-21T09:38:47Z</time>
      </trkpt>
      <trkpt lat="40.638927" lon="-3.309923">
        <ele>734.679</ele>
        <time>2019-04-21T09:38:48Z</time>
      </trkpt>
      <trkpt lat="40.638991" lon="-3.309868">
        <ele>735.051</ele>
        <time>2019-04-21T09:38:49Z</time>
      </trkpt>
      <trkpt lat="40.639063" lon="-3.309818">
        <ele>735.321</ele>
        <time>2019-04-21T09:38:50Z</time>
      </trkpt>
      <trkpt lat="40.639132" lon="-3.309751">
        <ele>735.576</ele>
        <time>2019-04-21T09:38:51Z</time>
      </trkpt>
      <trkpt lat="40.639208" lon="-3.309686">
        <ele>735.688</ele>
        <time>2019-04-21T09:38:52Z</time>
      </trkpt>
      <trkpt lat="40.639290" lon="-3.309623">
        <ele>735.930</ele>
        <time>2019-04-21T09:38:53Z</time>
      </trkpt>
      <trkpt lat="40.639370" lon="-3.309567">
        <ele>736.084</ele>
        <time>2019-04-21T09:38:54Z</time>
      </trkpt>
      <trkpt lat="40.639446" lon="-3.309513">
        <ele>736.355</ele>
        <time>2019-04-21T09:38:55Z</time>
      </trkpt>
      <trkpt lat="40.639519" lon="-3.309452">
        <ele>736.549</ele>
        <time>2019-04-21T09:38:56Z</time>
      </trkpt>
      <trkpt lat="40.639592" lon="-3.309393">
        <ele>737.102</ele>
        <time>2019-04-21T09:38:57Z</time>
      </trkpt>
      <trkpt lat="40.639664" lon="-3.309351">
        <ele>737.122</ele>
        <time>2019-04-21T09:38:58Z</time>
      </trkpt>
      <trkpt lat="40.639740" lon="-3.309313">
        <ele>737.208</ele>
        <time>2019-04-21T09:38:59Z</time>
      </trkpt>
      <trkpt lat="40.639813" lon="-3.309272">
        <ele>737.237</ele>
        <time>2019-04-21T09:39:00Z</time>
      </trkpt>
      <trkpt lat="40.639891" lon="-3.309215">
        <ele>737.299</ele>
        <time>2019-04-21T09:39:01Z</time>
      </trkpt>
      <trkpt lat="40.639962" lon="-3.309147">
        <ele>737.349</ele>
        <time>2019-04-21T09:39:02Z</time>
      </trkpt>
      <trkpt lat="40.640013" lon="-3.309074">
        <ele>737.534</ele>
        <time>2019-04-21T09:39:03Z</time>
      </trkpt>
      <trkpt lat="40.640065" lon="-3.308978">
        <ele>737.946</ele>
        <time>2019-04-21T09:39:04Z</time>
      </trkpt>
      <trkpt lat="40.640105" lon="-3.308866">
        <ele>738.388</ele>
        <time>2019-04-21T09:39:05Z</time>
      </trkpt>
      <trkpt lat="40.640147" lon="-3.308759">
        <ele>738.572</ele>
        <time>2019-04-21T09:39:06Z</time>
      </trkpt>
      <trkpt lat="40.640195" lon="-3.308654">
        <ele>738.533</ele>
        <time>2019-04-21T09:39:07Z</time>
      </trkpt>
      <trkpt lat="40.640243" lon="-3.308545">
        <ele>738.866</ele>
        <time>2019-04-21T09:39:08Z</time>
      </trkpt>
      <trkpt lat="40.640291" lon="-3.308439">
        <ele>738.829</ele>
        <time>2019-04-21T09:39:09Z</time>
      </trkpt>
      <trkpt lat="40.640351" lon="-3.308355">
        <ele>739.121</ele>
        <time>2019-04-21T09:39:10Z</time>
      </trkpt>
      <trkpt lat="40.640400" lon="-3.308268">
        <ele>739.808</ele>
        <time>2019-04-21T09:39:11Z</time>
      </trkpt>
      <trkpt lat="40.640451" lon="-3.308184">
        <ele>739.879</ele>
        <time>2019-04-21T09:39:12Z</time>
      </trkpt>
      <trkpt lat="40.640511" lon="-3.308101">
        <ele>739.861</ele>
        <time>2019-04-21T09:39:13Z</time>
      </trkpt>
      <trkpt lat="40.640572" lon="-3.308016">
        <ele>739.511</ele>
        <time>2019-04-21T09:39:14Z</time>
      </trkpt>
      <trkpt lat="40.640646" lon="-3.307944">
        <ele>739.276</ele>
        <time>2019-04-21T09:39:15Z</time>
      </trkpt>
      <trkpt lat="40.640719" lon="-3.307868">
        <ele>738.728</ele>
        <time>2019-04-21T09:39:16Z</time>
      </trkpt>
      <trkpt lat="40.640790" lon="-3.307799">
        <ele>738.270</ele>
        <time>2019-04-21T09:39:17Z</time>
      </trkpt>
      <trkpt lat="40.640859" lon="-3.307728">
        <ele>738.234</ele>
        <time>2019-04-21T09:39:18Z</time>
      </trkpt>
      <trkpt lat="40.640924" lon="-3.307656">
        <ele>738.365</ele>
        <time>2019-04-21T09:39:19Z</time>
      </trkpt>
      <trkpt lat="40.640993" lon="-3.307588">
        <ele>738.437</ele>
        <time>2019-04-21T09:39:20Z</time>
      </trkpt>
      <trkpt lat="40.641064" lon="-3.307528">
        <ele>738.449</ele>
        <time>2019-04-21T09:39:21Z</time>
      </trkpt>
      <trkpt lat="40.641136" lon="-3.307471">
        <ele>738.413</ele>
        <time>2019-04-21T09:39:22Z</time>
      </trkpt>
      <trkpt lat="40.641212" lon="-3.307425">
        <ele>738.208</ele>
        <time>2019-04-21T09:39:23Z</time>
      </trkpt>
      <trkpt lat="40.641298" lon="-3.307394">
        <ele>737.856</ele>
        <time>2019-04-21T09:39:24Z</time>
      </trkpt>
      <trkpt lat="40.641379" lon="-3.307354">
        <ele>737.768</ele>
        <time>2019-04-21T09:39:25Z</time>
      </trkpt>
      <trkpt lat="40.641453" lon="-3.307313">
        <ele>737.748</ele>
        <time>2019-04-21T09:39:26Z</time>
      </trkpt>
      <trkpt lat="40.641523" lon="-3.307271">
        <ele>737.743</ele>
        <time>2019-04-21T09:39:27Z</time>
      </trkpt>
      <trkpt lat="40.641587" lon="-3.307225">
        <ele>737.845</ele>
        <time>2019-04-21T09:39:28Z</time>
      </trkpt>
      <trkpt lat="40.641649" lon="-3.307177">
        <ele>737.887</ele>
        <time>2019-04-21T09:39:29Z</time>
      </trkpt>
      <trkpt lat="40.641720" lon="-3.307144">
        <ele>737.831</ele>
        <time>2019-04-21T09:39:30Z</time>
      </trkpt>
      <trkpt lat="40.641793" lon="-3.307111">
        <ele>737.672</ele>
        <time>2019-04-21T09:39:31Z</time>
      </trkpt>
      <trkpt lat="40.641868" lon="-3.307089">
        <ele>737.688</ele>
        <time>2019-04-21T09:39:32Z</time>
      </trkpt>
      <trkpt lat="40.641941" lon="-3.307059">
        <ele>737.724</ele>
        <time>2019-04-21T09:39:33Z</time>
      </trkpt>
      <trkpt lat="40.642014" lon="-3.307037">
        <ele>737.926</ele>
        <time>2019-04-21T09:39:34Z</time>
      </trkpt>
      <trkpt lat="40.642087" lon="-3.307005">
        <ele>738.108</ele>
        <time>2019-04-21T09:39:35Z</time>
      </trkpt>
      <trkpt lat="40.642160" lon="-3.306971">
        <ele>738.361</ele>
        <time>2019-04-21T09:39:36Z</time>
      </trkpt>
      <trkpt lat="40.642231" lon="-3.306947">
        <ele>738.433</ele>
        <time>2019-04-21T09:39:37Z</time>
      </trkpt>
      <trkpt lat="40.642293" lon="-3.306910">
        <ele>738.493</ele>
        <time>2019-04-21T09:39:38Z</time>
      </trkpt>
      <trkpt lat="40.642345" lon="-3.306860">
        <ele>738.368</ele>
        <time>2019-04-21T09:39:39Z</time>
      </trkpt>
      <trkpt lat="40.642397" lon="-3.306799">
        <ele>738.290</ele>
        <time>2019-04-21T09:39:40Z</time>
      </trkpt>
      <trkpt lat="40.642444" lon="-3.306727">
        <ele>738.282</ele>
        <time>2019-04-21T09:39:41Z</time>
      </trkpt>
      <trkpt lat="40.642489" lon="-3.306659">
        <ele>738.296</ele>
        <time>2019-04-21T09:39:42Z</time>
      </trkpt>
      <trkpt lat="40.642540" lon="-3.306601">
        <ele>738.377</ele>
        <time>2019-04-21T09:39:43Z</time>
      </trkpt>
      <trkpt lat="40.642594" lon="-3.306559">
        <ele>738.426</ele>
        <time>2019-04-21T09:39:44Z</time>
      </trkpt>
      <trkpt lat="40.642656" lon="-3.306531">
        <ele>738.647</ele>
        <time>2019-04-21T09:39:45Z</time>
      </trkpt>
      <trkpt lat="40.642718" lon="-3.306518">
        <ele>738.911</ele>
        <time>2019-04-21T09:39:46Z</time>
      </trkpt>
      <trkpt lat="40.642775" lon="-3.306499">
        <ele>739.008</ele>
        <time>2019-04-21T09:39:47Z</time>
      </trkpt>
      <trkpt lat="40.642830" lon="-3.306473">
        <ele>739.255</ele>
        <time>2019-04-21T09:39:48Z</time>
      </trkpt>
      <trkpt lat="40.642889" lon="-3.306445">
        <ele>739.247</ele>
        <time>2019-04-21T09:39:49Z</time>
      </trkpt>
      <trkpt lat="40.642946" lon="-3.306405">
        <ele>739.437</ele>
        <time>2019-04-21T09:39:50Z</time>
      </trkpt>
      <trkpt lat="40.643002" lon="-3.306363">
        <ele>740.032</ele>
        <time>2019-04-21T09:39:51Z</time>
      </trkpt>
      <trkpt lat="40.643053" lon="-3.306311">
        <ele>740.224</ele>
        <time>2019-04-21T09:39:52Z</time>
      </trkpt>
      <trkpt lat="40.643101" lon="-3.306254">
        <ele>740.496</ele>
        <time>2019-04-21T09:39:53Z</time>
      </trkpt>
      <trkpt lat="40.643159" lon="-3.306196">
        <ele>740.870</ele>
        <time>2019-04-21T09:39:54Z</time>
      </trkpt>
      <trkpt lat="40.643224" lon="-3.306149">
        <ele>740.941</ele>
        <time>2019-04-21T09:39:55Z</time>
      </trkpt>
      <trkpt lat="40.643289" lon="-3.306098">
        <ele>740.924</ele>
        <time>2019-04-21T09:39:56Z</time>
      </trkpt>
      <trkpt lat="40.643350" lon="-3.306035">
        <ele>741.004</ele>
        <time>2019-04-21T09:39:57Z</time>
      </trkpt>
      <trkpt lat="40.643408" lon="-3.305967">
        <ele>741.114</ele>
        <time>2019-04-21T09:39:58Z</time>
      </trkpt>
      <trkpt lat="40.643464" lon="-3.305898">
        <ele>741.308</ele>
        <time>2019-04-21T09:39:59Z</time>
      </trkpt>
      <trkpt lat="40.643516" lon="-3.305839">
        <ele>741.355</ele>
        <time>2019-04-21T09:40:00Z</time>
      </trkpt>
      <trkpt lat="40.643567" lon="-3.305789">
        <ele>741.387</ele>
        <time>2019-04-21T09:40:01Z</time>
      </trkpt>
      <trkpt lat="40.643611" lon="-3.305740">
        <ele>741.317</ele>
        <time>2019-04-21T09:40:02Z</time>
      </trkpt>
      <trkpt lat="40.643654" lon="-3.305689">
        <ele>741.492</ele>
        <time>2019-04-21T09:40:03Z</time>
      </trkpt>
      <trkpt lat="40.643707" lon="-3.305646">
        <ele>741.624</ele>
        <time>2019-04-21T09:40:04Z</time>
      </trkpt>
      <trkpt lat="40.643761" lon="-3.305596">
        <ele>741.726</ele>
        <time>2019-04-21T09:40:05Z</time>
      </trkpt>
      <trkpt lat="40.643820" lon="-3.305555">
        <ele>741.860</ele>
        <time>2019-04-21T09:40:06Z</time>
      </trkpt>
      <trkpt lat="40.643877" lon="-3.305514">
        <ele>741.931</ele>
        <time>2019-04-21T09:40:07Z</time>
      </trkpt>
      <trkpt lat="40.643934" lon="-3.305485">
        <ele>742.061</ele>
        <time>2019-04-21T09:40:08Z</time>
      </trkpt>
      <trkpt lat="40.643995" lon="-3.305464">
        <ele>742.121</ele>
        <time>2019-04-21T09:40:09Z</time>
      </trkpt>
      <trkpt lat="40.644059" lon="-3.305443">
        <ele>742.313</ele>
        <time>2019-04-21T09:40:10Z</time>
      </trkpt>
      <trkpt lat="40.644118" lon="-3.305407">
        <ele>742.508</ele>
        <time>2019-04-21T09:40:11Z</time>
      </trkpt>
      <trkpt lat="40.644174" lon="-3.305369">
        <ele>742.719</ele>
        <time>2019-04-21T09:40:12Z</time>
      </trkpt>
      <trkpt lat="40.644228" lon="-3.305317">
        <ele>742.891</ele>
        <time>2019-04-21T09:40:13Z</time>
      </trkpt>
      <trkpt lat="40.644285" lon="-3.305257">
        <ele>742.971</ele>
        <time>2019-04-21T09:40:14Z</time>
      </trkpt>
      <trkpt lat="40.644338" lon="-3.305186">
        <ele>742.956</ele>
        <time>2019-04-21T09:40:15Z</time>
      </trkpt>
      <trkpt lat="40.644392" lon="-3.305121">
        <ele>742.978</ele>
        <time>2019-04-21T09:40:16Z</time>
      </trkpt>
      <trkpt lat="40.644441" lon="-3.305053">
        <ele>743.040</ele>
        <time>2019-04-21T09:40:17Z</time>
      </trkpt>
      <trkpt lat="40.644493" lon="-3.304991">
        <ele>743.184</ele>
        <time>2019-04-21T09:40:18Z</time>
      </trkpt>
      <trkpt lat="40.644546" lon="-3.304935">
        <ele>743.285</ele>
        <time>2019-04-21T09:40:19Z</time>
      </trkpt>
      <trkpt lat="40.644597" lon="-3.304882">
        <ele>743.397</ele>
        <time>2019-04-21T09:40:20Z</time>
      </trkpt>
      <trkpt lat="40.644650" lon="-3.304837">
        <ele>743.523</ele>
        <time>2019-04-21T09:40:21Z</time>
      </trkpt>
      <trkpt lat="40.644705" lon="-3.304794">
        <ele>743.625</ele>
        <time>2019-04-21T09:40:22Z</time>
      </trkpt>
      <trkpt lat="40.644755" lon="-3.304743">
        <ele>743.708</ele>
        <time>2019-04-21T09:40:23Z</time>
      </trkpt>
      <trkpt lat="40.644802" lon="-3.304692">
        <ele>743.812</ele>
        <time>2019-04-21T09:40:24Z</time>
      </trkpt>
      <trkpt lat="40.644850" lon="-3.304648">
        <ele>743.824</ele>
        <time>2019-04-21T09:40:25Z</time>
      </trkpt>
      <trkpt lat="40.644902" lon="-3.304600">
        <ele>743.884</ele>
        <time>2019-04-21T09:40:26Z</time>
      </trkpt>
      <trkpt lat="40.644965" lon="-3.304553">
        <ele>743.889</ele>
        <time>2019-04-21T09:40:27Z</time>
      </trkpt>
      <trkpt lat="40.645030" lon="-3.304505">
        <ele>743.951</ele>
        <time>2019-04-21T09:40:28Z</time>
      </trkpt>
      <trkpt lat="40.645096" lon="-3.304457">
        <ele>744.013</ele>
        <time>2019-04-21T09:40:29Z</time>
      </trkpt>
      <trkpt lat="40.645162" lon="-3.304410">
        <ele>744.167</ele>
        <time>2019-04-21T09:40:30Z</time>
      </trkpt>
      <trkpt lat="40.645225" lon="-3.304353">
        <ele>744.328</ele>
        <time>2019-04-21T09:40:31Z</time>
      </trkpt>
      <trkpt lat="40.645285" lon="-3.304276">
        <ele>744.522</ele>
        <time>2019-04-21T09:40:32Z</time>
      </trkpt>
      <trkpt lat="40.645350" lon="-3.304199">
        <ele>744.662</ele>
        <time>2019-04-21T09:40:33Z</time>
      </trkpt>
      <trkpt lat="40.645423" lon="-3.304127">
        <ele>744.708</ele>
        <time>2019-04-21T09:40:34Z</time>
      </trkpt>
      <trkpt lat="40.645501" lon="-3.304063">
        <ele>744.808</ele>
        <time>2019-04-21T09:40:35Z</time>
      </trkpt>
      <trkpt lat="40.645575" lon="-3.304004">
        <ele>745.055</ele>
        <time>2019-04-21T09:40:36Z</time>
      </trkpt>
      <trkpt lat="40.645650" lon="-3.303947">
        <ele>745.177</ele>
        <time>2019-04-21T09:40:37Z</time>
      </trkpt>
      <trkpt lat="40.645723" lon="-3.303897">
        <ele>745.257</ele>
        <time>2019-04-21T09:40:38Z</time>
      </trkpt>
      <trkpt lat="40.645792" lon="-3.303846">
        <ele>745.342</ele>
        <time>2019-04-21T09:40:39Z</time>
      </trkpt>
      <trkpt lat="40.645866" lon="-3.303801">
        <ele>745.564</ele>
        <time>2019-04-21T09:40:40Z</time>
      </trkpt>
      <trkpt lat="40.645931" lon="-3.303755">
        <ele>745.776</ele>
        <time>2019-04-21T09:40:41Z</time>
      </trkpt>
      <trkpt lat="40.645998" lon="-3.303709">
        <ele>745.960</ele>
        <time>2019-04-21T09:40:42Z</time>
      </trkpt>
      <trkpt lat="40.646062" lon="-3.303660">
        <ele>746.121</ele>
        <time>2019-04-21T09:40:43Z</time>
      </trkpt>
      <trkpt lat="40.646126" lon="-3.303604">
        <ele>746.322</ele>
        <time>2019-04-21T09:40:44Z</time>
      </trkpt>
      <trkpt lat="40.646188" lon="-3.303558">
        <ele>746.562</ele>
        <time>2019-04-21T09:40:45Z</time>
      </trkpt>
      <trkpt lat="40.646240" lon="-3.303494">
        <ele>746.708</ele>
        <time>2019-04-21T09:40:46Z</time>
      </trkpt>
      <trkpt lat="40.646290" lon="-3.303416">
        <ele>746.908</ele>
        <time>2019-04-21T09:40:47Z</time>
      </trkpt>
      <trkpt lat="40.646346" lon="-3.303343">
        <ele>747.195</ele>
        <time>2019-04-21T09:40:48Z</time>
      </trkpt>
      <trkpt lat="40.646407" lon="-3.303264">
        <ele>747.327</ele>
        <time>2019-04-21T09:40:49Z</time>
      </trkpt>
      <trkpt lat="40.646468" lon="-3.303189">
        <ele>747.587</ele>
        <time>2019-04-21T09:40:50Z</time>
      </trkpt>
      <trkpt lat="40.646529" lon="-3.303117">
        <ele>747.762</ele>
        <time>2019-04-21T09:40:51Z</time>
      </trkpt>
      <trkpt lat="40.646587" lon="-3.303059">
        <ele>747.994</ele>
        <time>2019-04-21T09:40:52Z</time>
      </trkpt>
      <trkpt lat="40.646644" lon="-3.302994">
        <ele>748.186</ele>
        <time>2019-04-21T09:40:53Z</time>
      </trkpt>
      <trkpt lat="40.646701" lon="-3.302932">
        <ele>748.360</ele>
        <time>2019-04-21T09:40:54Z</time>
      </trkpt>
      <trkpt lat="40.646758" lon="-3.302875">
        <ele>748.521</ele>
        <time>2019-04-21T09:40:55Z</time>
      </trkpt>
      <trkpt lat="40.646820" lon="-3.302815">
        <ele>748.733</ele>
        <time>2019-04-21T09:40:56Z</time>
      </trkpt>
      <trkpt lat="40.646890" lon="-3.302762">
        <ele>748.923</ele>
        <time>2019-04-21T09:40:57Z</time>
      </trkpt>
      <trkpt lat="40.646956" lon="-3.302721">
        <ele>749.215</ele>
        <time>2019-04-21T09:40:58Z</time>
      </trkpt>
      <trkpt lat="40.647017" lon="-3.302697">
        <ele>749.408</ele>
        <time>2019-04-21T09:40:59Z</time>
      </trkpt>
      <trkpt lat="40.647074" lon="-3.302692">
        <ele>749.766</ele>
        <time>2019-04-21T09:41:00Z</time>
      </trkpt>
      <trkpt lat="40.647122" lon="-3.302711">
        <ele>750.058</ele>
        <time>2019-04-21T09:41:01Z</time>
      </trkpt>
      <trkpt lat="40.647166" lon="-3.302736">
        <ele>750.258</ele>
        <time>2019-04-21T09:41:02Z</time>
      </trkpt>
      <trkpt lat="40.647212" lon="-3.302757">
        <ele>750.543</ele>
        <time>2019-04-21T09:41:03Z</time>
      </trkpt>
      <trkpt lat="40.647262" lon="-3.302763">
        <ele>750.755</ele>
        <time>2019-04-21T09:41:04Z</time>
      </trkpt>
      <trkpt lat="40.647315" lon="-3.302759">
        <ele>750.717</ele>
        <time>2019-04-21T09:41:05Z</time>
      </trkpt>
      <trkpt lat="40.647358" lon="-3.302716">
        <ele>750.751</ele>
        <time>2019-04-21T09:41:06Z</time>
      </trkpt>
      <trkpt lat="40.647388" lon="-3.302654">
        <ele>750.882</ele>
        <time>2019-04-21T09:41:07Z</time>
      </trkpt>
      <trkpt lat="40.647402" lon="-3.302573">
        <ele>750.985</ele>
        <time>2019-04-21T09:41:08Z</time>
      </trkpt>
      <trkpt lat="40.647433" lon="-3.302488">
        <ele>751.189</ele>
        <time>2019-04-21T09:41:09Z</time>
      </trkpt>
      <trkpt lat="40.647469" lon="-3.302405">
        <ele>751.417</ele>
        <time>2019-04-21T09:41:10Z</time>
      </trkpt>
      <trkpt lat="40.647519" lon="-3.302332">
        <ele>751.608</ele>
        <time>2019-04-21T09:41:11Z</time>
      </trkpt>
      <trkpt lat="40.647580" lon="-3.302266">
        <ele>751.991</ele>
        <time>2019-04-21T09:41:12Z</time>
      </trkpt>
      <trkpt lat="40.647646" lon="-3.302200">
        <ele>751.933</ele>
        <time>2019-04-21T09:41:13Z</time>
      </trkpt>
      <trkpt lat="40.647716" lon="-3.302150">
        <ele>751.983</ele>
        <time>2019-04-21T09:41:14Z</time>
      </trkpt>
      <trkpt lat="40.647784" lon="-3.302095">
        <ele>751.858</ele>
        <time>2019-04-21T09:41:15Z</time>
      </trkpt>
      <trkpt lat="40.647848" lon="-3.302033">
        <ele>751.870</ele>
        <time>2019-04-21T09:41:16Z</time>
      </trkpt>
      <trkpt lat="40.647913" lon="-3.301976">
        <ele>751.862</ele>
        <time>2019-04-21T09:41:17Z</time>
      </trkpt>
      <trkpt lat="40.647981" lon="-3.301917">
        <ele>751.866</ele>
        <time>2019-04-21T09:41:18Z</time>
      </trkpt>
      <trkpt lat="40.648052" lon="-3.301859">
        <ele>751.767</ele>
        <time>2019-04-21T09:41:19Z</time>
      </trkpt>
      <trkpt lat="40.648121" lon="-3.301799">
        <ele>751.641</ele>
        <time>2019-04-21T09:41:20Z</time>
      </trkpt>
      <trkpt lat="40.648194" lon="-3.301743">
        <ele>751.681</ele>
        <time>2019-04-21T09:41:21Z</time>
      </trkpt>
      <trkpt lat="40.648274" lon="-3.301688">
        <ele>751.609</ele>
        <time>2019-04-21T09:41:22Z</time>
      </trkpt>
      <trkpt lat="40.648346" lon="-3.301621">
        <ele>751.608</ele>
        <time>2019-04-21T09:41:23Z</time>
      </trkpt>
      <trkpt lat="40.648414" lon="-3.301555">
        <ele>751.637</ele>
        <time>2019-04-21T09:41:24Z</time>
      </trkpt>
      <trkpt lat="40.648478" lon="-3.301486">
        <ele>751.779</ele>
        <time>2019-04-21T09:41:25Z</time>
      </trkpt>
      <trkpt lat="40.648537" lon="-3.301415">
        <ele>751.879</ele>
        <time>2019-04-21T09:41:26Z</time>
      </trkpt>
      <trkpt lat="40.648594" lon="-3.301342">
        <ele>751.944</ele>
        <time>2019-04-21T09:41:27Z</time>
      </trkpt>
      <trkpt lat="40.648658" lon="-3.301277">
        <ele>751.956</ele>
        <time>2019-04-21T09:41:28Z</time>
      </trkpt>
      <trkpt lat="40.648719" lon="-3.301211">
        <ele>751.978</ele>
        <time>2019-04-21T09:41:29Z</time>
      </trkpt>
      <trkpt lat="40.648787" lon="-3.301156">
        <ele>752.012</ele>
        <time>2019-04-21T09:41:30Z</time>
      </trkpt>
      <trkpt lat="40.648860" lon="-3.301105">
        <ele>752.113</ele>
        <time>2019-04-21T09:41:31Z</time>
      </trkpt>
      <trkpt lat="40.648938" lon="-3.301060">
        <ele>752.352</ele>
        <time>2019-04-21T09:41:32Z</time>
      </trkpt>
      <trkpt lat="40.649015" lon="-3.301019">
        <ele>752.653</ele>
        <time>2019-04-21T09:41:33Z</time>
      </trkpt>
      <trkpt lat="40.649087" lon="-3.300976">
        <ele>752.708</ele>
        <time>2019-04-21T09:41:34Z</time>
      </trkpt>
      <trkpt lat="40.649160" lon="-3.300936">
        <ele>753.108</ele>
        <time>2019-04-21T09:41:35Z</time>
      </trkpt>
      <trkpt lat="40.649233" lon="-3.300891">
        <ele>753.278</ele>
        <time>2019-04-21T09:41:36Z</time>
      </trkpt>
      <trkpt lat="40.649309" lon="-3.300853">
        <ele>753.250</ele>
        <time>2019-04-21T09:41:37Z</time>
      </trkpt>
      <trkpt lat="40.649380" lon="-3.300812">
        <ele>753.650</ele>
        <time>2019-04-21T09:41:38Z</time>
      </trkpt>
      <trkpt lat="40.649446" lon="-3.300770">
        <ele>753.655</ele>
        <time>2019-04-21T09:41:39Z</time>
      </trkpt>
      <trkpt lat="40.649517" lon="-3.300721">
        <ele>753.897</ele>
        <time>2019-04-21T09:41:40Z</time>
      </trkpt>
      <trkpt lat="40.649593" lon="-3.300672">
        <ele>753.819</ele>
        <time>2019-04-21T09:41:41Z</time>
      </trkpt>
      <trkpt lat="40.649670" lon="-3.300627">
        <ele>754.083</ele>
        <time>2019-04-21T09:41:42Z</time>
      </trkpt>
      <trkpt lat="40.649745" lon="-3.300573">
        <ele>754.084</ele>
        <time>2019-04-21T09:41:43Z</time>
      </trkpt>
      <trkpt lat="40.649817" lon="-3.300521">
        <ele>754.287</ele>
        <time>2019-04-21T09:41:44Z</time>
      </trkpt>
      <trkpt lat="40.649890" lon="-3.300481">
        <ele>754.442</ele>
        <time>2019-04-21T09:41:45Z</time>
      </trkpt>
      <trkpt lat="40.649960" lon="-3.300442">
        <ele>754.626</ele>
        <time>2019-04-21T09:41:46Z</time>
      </trkpt>
      <trkpt lat="40.650026" lon="-3.300406">
        <ele>754.808</ele>
        <time>2019-04-21T09:41:47Z</time>
      </trkpt>
      <trkpt lat="40.650095" lon="-3.300385">
        <ele>755.121</ele>
        <time>2019-04-21T09:41:48Z</time>
      </trkpt>
      <trkpt lat="40.650166" lon="-3.300368">
        <ele>755.363</ele>
        <time>2019-04-21T09:41:49Z</time>
      </trkpt>
      <trkpt lat="40.650238" lon="-3.300349">
        <ele>755.583</ele>
        <time>2019-04-21T09:41:50Z</time>
      </trkpt>
      <trkpt lat="40.650310" lon="-3.300305">
        <ele>755.668</ele>
        <time>2019-04-21T09:41:51Z</time>
      </trkpt>
      <trkpt lat="40.650370" lon="-3.300238">
        <ele>755.730</ele>
        <time>2019-04-21T09:41:52Z</time>
      </trkpt>
      <trkpt lat="40.650414" lon="-3.300158">
        <ele>755.822</ele>
        <time>2019-04-21T09:41:53Z</time>
      </trkpt>
      <trkpt lat="40.650458" lon="-3.300067">
        <ele>755.996</ele>
        <time>2019-04-21T09:41:54Z</time>
      </trkpt>
      <trkpt lat="40.650502" lon="-3.299970">
        <ele>756.177</ele>
        <time>2019-04-21T09:41:55Z</time>
      </trkpt>
      <trkpt lat="40.650556" lon="-3.299882">
        <ele>756.315</ele>
        <time>2019-04-21T09:41:56Z</time>
      </trkpt>
      <trkpt lat="40.650615" lon="-3.299802">
        <ele>756.565</ele>
        <time>2019-04-21T09:41:57Z</time>
      </trkpt>
      <trkpt lat="40.650681" lon="-3.299733">
        <ele>756.711</ele>
        <time>2019-04-21T09:41:58Z</time>
      </trkpt>
      <trkpt lat="40.650750" lon="-3.299665">
        <ele>756.908</ele>
        <time>2019-04-21T09:41:59Z</time>
      </trkpt>
      <trkpt lat="40.650823" lon="-3.299606">
        <ele>757.034</ele>
        <time>2019-04-21T09:42:00Z</time>
      </trkpt>
      <trkpt lat="40.650901" lon="-3.299560">
        <ele>757.176</ele>
        <time>2019-04-21T09:42:01Z</time>
      </trkpt>
      <trkpt lat="40.650977" lon="-3.299518">
        <ele>757.286</ele>
        <time>2019-04-21T09:42:02Z</time>
      </trkpt>
      <trkpt lat="40.651053" lon="-3.299471">
        <ele>757.241</ele>
        <time>2019-04-21T09:42:03Z</time>
      </trkpt>
      <trkpt lat="40.651136" lon="-3.299429">
        <ele>757.183</ele>
        <time>2019-04-21T09:42:04Z</time>
      </trkpt>
      <trkpt lat="40.651220" lon="-3.299382">
        <ele>757.195</ele>
        <time>2019-04-21T09:42:05Z</time>
      </trkpt>
      <trkpt lat="40.651302" lon="-3.299338">
        <ele>757.269</ele>
        <time>2019-04-21T09:42:06Z</time>
      </trkpt>
      <trkpt lat="40.651386" lon="-3.299300">
        <ele>757.270</ele>
        <time>2019-04-21T09:42:07Z</time>
      </trkpt>
      <trkpt lat="40.651467" lon="-3.299266">
        <ele>757.332</ele>
        <time>2019-04-21T09:42:08Z</time>
      </trkpt>
      <trkpt lat="40.651541" lon="-3.299237">
        <ele>757.392</ele>
        <time>2019-04-21T09:42:09Z</time>
      </trkpt>
      <trkpt lat="40.651614" lon="-3.299193">
        <ele>757.011</ele>
        <time>2019-04-21T09:42:10Z</time>
      </trkpt>
      <trkpt lat="40.651685" lon="-3.299158">
        <ele>756.908</ele>
        <time>2019-04-21T09:42:11Z</time>
      </trkpt>
      <trkpt lat="40.651751" lon="-3.299124">
        <ele>756.826</ele>
        <time>2019-04-21T09:42:12Z</time>
      </trkpt>
      <trkpt lat="40.651816" lon="-3.299088">
        <ele>756.868</ele>
        <time>2019-04-21T09:42:13Z</time>
      </trkpt>
      <trkpt lat="40.651873" lon="-3.299041">
        <ele>756.898</ele>
        <time>2019-04-21T09:42:14Z</time>
      </trkpt>
      <trkpt lat="40.651921" lon="-3.298996">
        <ele>756.813</ele>
        <time>2019-04-21T09:42:15Z</time>
      </trkpt>
      <trkpt lat="40.651959" lon="-3.298945">
        <ele>756.895</ele>
        <time>2019-04-21T09:42:16Z</time>
      </trkpt>
      <trkpt lat="40.651997" lon="-3.298886">
        <ele>756.827</ele>
        <time>2019-04-21T09:42:17Z</time>
      </trkpt>
      <trkpt lat="40.652037" lon="-3.298833">
        <ele>756.851</ele>
        <time>2019-04-21T09:42:18Z</time>
      </trkpt>
      <trkpt lat="40.652068" lon="-3.298778">
        <ele>756.862</ele>
        <time>2019-04-21T09:42:19Z</time>
      </trkpt>
      <trkpt lat="40.652099" lon="-3.298725">
        <ele>756.819</ele>
        <time>2019-04-21T09:42:20Z</time>
      </trkpt>
      <trkpt lat="40.652132" lon="-3.298675">
        <ele>756.909</ele>
        <time>2019-04-21T09:42:21Z</time>
      </trkpt>
      <trkpt lat="40.652179" lon="-3.298635">
        <ele>757.019</ele>
        <time>2019-04-21T09:42:22Z</time>
      </trkpt>
      <trkpt lat="40.652213" lon="-3.298577">
        <ele>757.108</ele>
        <time>2019-04-21T09:42:23Z</time>
      </trkpt>
      <trkpt lat="40.652249" lon="-3.298524">
        <ele>757.214</ele>
        <time>2019-04-21T09:42:24Z</time>
      </trkpt>
      <trkpt lat="40.652283" lon="-3.298466">
        <ele>757.356</ele>
        <time>2019-04-21T09:42:25Z</time>
      </trkpt>
      <trkpt lat="40.652316" lon="-3.298402">
        <ele>757.596</ele>
        <time>2019-04-21T09:42:26Z</time>
      </trkpt>
      <trkpt lat="40.652363" lon="-3.298354">
        <ele>757.621</ele>
        <time>2019-04-21T09:42:27Z</time>
      </trkpt>
      <trkpt lat="40.652415" lon="-3.298307">
        <ele>757.793</ele>
        <time>2019-04-21T09:42:28Z</time>
      </trkpt>
      <trkpt lat="40.652474" lon="-3.298267">
        <ele>757.935</ele>
        <time>2019-04-21T09:42:29Z</time>
      </trkpt>
      <trkpt lat="40.652535" lon="-3.298223">
        <ele>758.179</ele>
        <time>2019-04-21T09:42:30Z</time>
      </trkpt>
      <trkpt lat="40.652596" lon="-3.298163">
        <ele>758.360</ele>
        <time>2019-04-21T09:42:31Z</time>
      </trkpt>
      <trkpt lat="40.652630" lon="-3.298103">
        <ele>758.469</ele>
        <time>2019-04-21T09:42:32Z</time>
      </trkpt>
      <trkpt lat="40.652648" lon="-3.298042">
        <ele>758.404</ele>
        <time>2019-04-21T09:42:33Z</time>
      </trkpt>
      <trkpt lat="40.652670" lon="-3.297979">
        <ele>758.424</ele>
        <time>2019-04-21T09:42:34Z</time>
      </trkpt>
      <trkpt lat="40.652693" lon="-3.297917">
        <ele>758.308</ele>
        <time>2019-04-21T09:42:35Z</time>
      </trkpt>
      <trkpt lat="40.652727" lon="-3.297856">
        <ele>758.099</ele>
        <time>2019-04-21T09:42:36Z</time>
      </trkpt>
      <trkpt lat="40.652777" lon="-3.297834">
        <ele>757.591</ele>
        <time>2019-04-21T09:42:38Z</time>
      </trkpt>
      <trkpt lat="40.652822" lon="-3.297819">
        <ele>756.881</ele>
        <time>2019-04-21T09:42:40Z</time>
      </trkpt>
      <trkpt lat="40.652885" lon="-3.297844">
        <ele>756.456</ele>
        <time>2019-04-21T09:42:42Z</time>
      </trkpt>
      <trkpt lat="40.652924" lon="-3.297877">
        <ele>756.458</ele>
        <time>2019-04-21T09:42:43Z</time>
      </trkpt>
      <trkpt lat="40.652999" lon="-3.297912">
        <ele>756.990</ele>
        <time>2019-04-21T09:42:45Z</time>
      </trkpt>
      <trkpt lat="40.653091" lon="-3.297899">
        <ele>757.854</ele>
        <time>2019-04-21T09:42:47Z</time>
      </trkpt>
      <trkpt lat="40.653144" lon="-3.297874">
        <ele>758.165</ele>
        <time>2019-04-21T09:42:48Z</time>
      </trkpt>
      <trkpt lat="40.653199" lon="-3.297843">
        <ele>758.814</ele>
        <time>2019-04-21T09:42:49Z</time>
      </trkpt>
      <trkpt lat="40.653255" lon="-3.297789">
        <ele>759.054</ele>
        <time>2019-04-21T09:42:50Z</time>
      </trkpt>
      <trkpt lat="40.653363" lon="-3.297717">
        <ele>759.409</ele>
        <time>2019-04-21T09:42:52Z</time>
      </trkpt>
      <trkpt lat="40.653427" lon="-3.297670">
        <ele>759.508</ele>
        <time>2019-04-21T09:42:53Z</time>
      </trkpt>
      <trkpt lat="40.653506" lon="-3.297619">
        <ele>759.784</ele>
        <time>2019-04-21T09:42:54Z</time>
      </trkpt>
      <trkpt lat="40.653575" lon="-3.297575">
        <ele>760.026</ele>
        <time>2019-04-21T09:42:55Z</time>
      </trkpt>
      <trkpt lat="40.653645" lon="-3.297537">
        <ele>760.326</ele>
        <time>2019-04-21T09:42:56Z</time>
      </trkpt>
      <trkpt lat="40.653713" lon="-3.297496">
        <ele>760.661</ele>
        <time>2019-04-21T09:42:57Z</time>
      </trkpt>
      <trkpt lat="40.653768" lon="-3.297456">
        <ele>760.923</ele>
        <time>2019-04-21T09:42:58Z</time>
      </trkpt>
      <trkpt lat="40.653827" lon="-3.297423">
        <ele>761.175</ele>
        <time>2019-04-21T09:42:59Z</time>
      </trkpt>
      <trkpt lat="40.653879" lon="-3.297386">
        <ele>761.229</ele>
        <time>2019-04-21T09:43:00Z</time>
      </trkpt>
      <trkpt lat="40.653944" lon="-3.297353">
        <ele>761.390</ele>
        <time>2019-04-21T09:43:01Z</time>
      </trkpt>
      <trkpt lat="40.654007" lon="-3.297322">
        <ele>761.468</ele>
        <time>2019-04-21T09:43:02Z</time>
      </trkpt>
      <trkpt lat="40.654068" lon="-3.297282">
        <ele>761.742</ele>
        <time>2019-04-21T09:43:03Z</time>
      </trkpt>
      <trkpt lat="40.654128" lon="-3.297246">
        <ele>761.926</ele>
        <time>2019-04-21T09:43:04Z</time>
      </trkpt>
      <trkpt lat="40.654196" lon="-3.297221">
        <ele>762.108</ele>
        <time>2019-04-21T09:43:05Z</time>
      </trkpt>
      <trkpt lat="40.654259" lon="-3.297189">
        <ele>762.229</ele>
        <time>2019-04-21T09:43:06Z</time>
      </trkpt>
      <trkpt lat="40.654320" lon="-3.297164">
        <ele>762.381</ele>
        <time>2019-04-21T09:43:07Z</time>
      </trkpt>
      <trkpt lat="40.654388" lon="-3.297143">
        <ele>762.391</ele>
        <time>2019-04-21T09:43:08Z</time>
      </trkpt>
      <trkpt lat="40.654453" lon="-3.297128">
        <ele>762.326</ele>
        <time>2019-04-21T09:43:09Z</time>
      </trkpt>
      <trkpt lat="40.654518" lon="-3.297122">
        <ele>762.298</ele>
        <time>2019-04-21T09:43:10Z</time>
      </trkpt>
      <trkpt lat="40.654589" lon="-3.297118">
        <ele>762.290</ele>
        <time>2019-04-21T09:43:11Z</time>
      </trkpt>
      <trkpt lat="40.654659" lon="-3.297110">
        <ele>762.134</ele>
        <time>2019-04-21T09:43:12Z</time>
      </trkpt>
      <trkpt lat="40.654717" lon="-3.297109">
        <ele>762.145</ele>
        <time>2019-04-21T09:43:13Z</time>
      </trkpt>
      <trkpt lat="40.654776" lon="-3.297125">
        <ele>762.181</ele>
        <time>2019-04-21T09:43:14Z</time>
      </trkpt>
      <trkpt lat="40.654835" lon="-3.297138">
        <ele>762.161</ele>
        <time>2019-04-21T09:43:15Z</time>
      </trkpt>
      <trkpt lat="40.654890" lon="-3.297147">
        <ele>762.117</ele>
        <time>2019-04-21T09:43:16Z</time>
      </trkpt>
      <trkpt lat="40.654936" lon="-3.297140">
        <ele>762.108</ele>
        <time>2019-04-21T09:43:17Z</time>
      </trkpt>
      <trkpt lat="40.654982" lon="-3.297129">
        <ele>762.281</ele>
        <time>2019-04-21T09:43:18Z</time>
      </trkpt>
      <trkpt lat="40.655050" lon="-3.297072">
        <ele>762.543</ele>
        <time>2019-04-21T09:43:20Z</time>
      </trkpt>
      <trkpt lat="40.655075" lon="-3.297021">
        <ele>762.633</ele>
        <time>2019-04-21T09:43:21Z</time>
      </trkpt>
      <trkpt lat="40.655094" lon="-3.296957">
        <ele>762.798</ele>
        <time>2019-04-21T09:43:22Z</time>
      </trkpt>
      <trkpt lat="40.655113" lon="-3.296891">
        <ele>762.780</ele>
        <time>2019-04-21T09:43:23Z</time>
      </trkpt>
      <trkpt lat="40.655132" lon="-3.296823">
        <ele>763.192</ele>
        <time>2019-04-21T09:43:24Z</time>
      </trkpt>
      <trkpt lat="40.655144" lon="-3.296758">
        <ele>763.146</ele>
        <time>2019-04-21T09:43:25Z</time>
      </trkpt>
      <trkpt lat="40.655154" lon="-3.296697">
        <ele>763.257</ele>
        <time>2019-04-21T09:43:26Z</time>
      </trkpt>
      <trkpt lat="40.655179" lon="-3.296597">
        <ele>763.424</ele>
        <time>2019-04-21T09:43:28Z</time>
      </trkpt>
      <trkpt lat="40.655208" lon="-3.296548">
        <ele>763.404</ele>
        <time>2019-04-21T09:43:29Z</time>
      </trkpt>
      <trkpt lat="40.655252" lon="-3.296518">
        <ele>763.314</ele>
        <time>2019-04-21T09:43:30Z</time>
      </trkpt>
      <trkpt lat="40.655294" lon="-3.296486">
        <ele>763.208</ele>
        <time>2019-04-21T09:43:31Z</time>
      </trkpt>
      <trkpt lat="40.655368" lon="-3.296434">
        <ele>763.195</ele>
        <time>2019-04-21T09:43:33Z</time>
      </trkpt>
      <trkpt lat="40.655441" lon="-3.296416">
        <ele>763.137</ele>
        <time>2019-04-21T09:43:35Z</time>
      </trkpt>
      <trkpt lat="40.655520" lon="-3.296391">
        <ele>763.157</ele>
        <time>2019-04-21T09:43:37Z</time>
      </trkpt>
      <trkpt lat="40.655562" lon="-3.296364">
        <ele>763.452</ele>
        <time>2019-04-21T09:43:38Z</time>
      </trkpt>
      <trkpt lat="40.655636" lon="-3.296305">
        <ele>763.524</ele>
        <time>2019-04-21T09:43:40Z</time>
      </trkpt>
      <trkpt lat="40.655713" lon="-3.296275">
        <ele>763.626</ele>
        <time>2019-04-21T09:43:42Z</time>
      </trkpt>
      <trkpt lat="40.655814" lon="-3.296231">
        <ele>763.690</ele>
        <time>2019-04-21T09:43:44Z</time>
      </trkpt>
      <trkpt lat="40.655879" lon="-3.296208">
        <ele>763.741</ele>
        <time>2019-04-21T09:43:45Z</time>
      </trkpt>
      <trkpt lat="40.655955" lon="-3.296186">
        <ele>763.858</ele>
        <time>2019-04-21T09:43:46Z</time>
      </trkpt>
      <trkpt lat="40.656018" lon="-3.296148">
        <ele>763.952</ele>
        <time>2019-04-21T09:43:47Z</time>
      </trkpt>
      <trkpt lat="40.656073" lon="-3.296116">
        <ele>763.917</ele>
        <time>2019-04-21T09:43:48Z</time>
      </trkpt>
      <trkpt lat="40.656135" lon="-3.296080">
        <ele>763.908</ele>
        <time>2019-04-21T09:43:49Z</time>
      </trkpt>
      <trkpt lat="40.656212" lon="-3.296041">
        <ele>764.078</ele>
        <time>2019-04-21T09:43:51Z</time>
      </trkpt>
      <trkpt lat="40.656290" lon="-3.295995">
        <ele>764.250</ele>
        <time>2019-04-21T09:43:53Z</time>
      </trkpt>
      <trkpt lat="40.656327" lon="-3.295959">
        <ele>764.360</ele>
        <time>2019-04-21T09:43:54Z</time>
      </trkpt>
      <trkpt lat="40.656365" lon="-3.295924">
        <ele>764.465</ele>
        <time>2019-04-21T09:43:55Z</time>
      </trkpt>
      <trkpt lat="40.656415" lon="-3.295882">
        <ele>764.777</ele>
        <time>2019-04-21T09:43:57Z</time>
      </trkpt>
      <trkpt lat="40.656474" lon="-3.295860">
        <ele>764.859</ele>
        <time>2019-04-21T09:43:59Z</time>
      </trkpt>
      <trkpt lat="40.656566" lon="-3.295857">
        <ele>764.973</ele>
        <time>2019-04-21T09:44:01Z</time>
      </trkpt>
      <trkpt lat="40.656623" lon="-3.295851">
        <ele>765.084</ele>
        <time>2019-04-21T09:44:02Z</time>
      </trkpt>
      <trkpt lat="40.656684" lon="-3.295836">
        <ele>765.247</ele>
        <time>2019-04-21T09:44:03Z</time>
      </trkpt>
      <trkpt lat="40.656742" lon="-3.295812">
        <ele>765.429</ele>
        <time>2019-04-21T09:44:04Z</time>
      </trkpt>
      <trkpt lat="40.656785" lon="-3.295787">
        <ele>765.621</ele>
        <time>2019-04-21T09:44:05Z</time>
      </trkpt>
      <trkpt lat="40.656824" lon="-3.295757">
        <ele>765.808</ele>
        <time>2019-04-21T09:44:06Z</time>
      </trkpt>
      <trkpt lat="40.656907" lon="-3.295709">
        <ele>766.067</ele>
        <time>2019-04-21T09:44:08Z</time>
      </trkpt>
      <trkpt lat="40.656953" lon="-3.295655">
        <ele>766.139</ele>
        <time>2019-04-21T09:44:09Z</time>
      </trkpt>
      <trkpt lat="40.657002" lon="-3.295611">
        <ele>766.119</ele>
        <time>2019-04-21T09:44:10Z</time>
      </trkpt>
      <trkpt lat="40.657048" lon="-3.295565">
        <ele>766.114</ele>
        <time>2019-04-21T09:44:11Z</time>
      </trkpt>
      <trkpt lat="40.657095" lon="-3.295523">
        <ele>766.186</ele>
        <time>2019-04-21T09:44:12Z</time>
      </trkpt>
      <trkpt lat="40.657181" lon="-3.295479">
        <ele>766.288</ele>
        <time>2019-04-21T09:44:14Z</time>
      </trkpt>
      <trkpt lat="40.657223" lon="-3.295441">
        <ele>766.262</ele>
        <time>2019-04-21T09:44:15Z</time>
      </trkpt>
      <trkpt lat="40.657264" lon="-3.295387">
        <ele>766.373</ele>
        <time>2019-04-21T09:44:16Z</time>
      </trkpt>
      <trkpt lat="40.657310" lon="-3.295323">
        <ele>766.453</ele>
        <time>2019-04-21T09:44:17Z</time>
      </trkpt>
      <trkpt lat="40.657358" lon="-3.295248">
        <ele>766.504</ele>
        <time>2019-04-21T09:44:18Z</time>
      </trkpt>
      <trkpt lat="40.657385" lon="-3.295183">
        <ele>766.614</ele>
        <time>2019-04-21T09:44:19Z</time>
      </trkpt>
      <trkpt lat="40.657404" lon="-3.295115">
        <ele>766.608</ele>
        <time>2019-04-21T09:44:20Z</time>
      </trkpt>
      <trkpt lat="40.657418" lon="-3.295051">
        <ele>766.738</ele>
        <time>2019-04-21T09:44:21Z</time>
      </trkpt>
      <trkpt lat="40.657430" lon="-3.294985">
        <ele>766.910</ele>
        <time>2019-04-21T09:44:22Z</time>
      </trkpt>
      <trkpt lat="40.657446" lon="-3.294922">
        <ele>766.920</ele>
        <time>2019-04-21T09:44:23Z</time>
      </trkpt>
      <trkpt lat="40.657486" lon="-3.294813">
        <ele>767.185</ele>
        <time>2019-04-21T09:44:25Z</time>
      </trkpt>
      <trkpt lat="40.657512" lon="-3.294759">
        <ele>767.427</ele>
        <time>2019-04-21T09:44:26Z</time>
      </trkpt>
      <trkpt lat="40.657581" lon="-3.294699">
        <ele>767.599</ele>
        <time>2019-04-21T09:44:28Z</time>
      </trkpt>
      <trkpt lat="40.657636" lon="-3.294663">
        <ele>767.423</ele>
        <time>2019-04-21T09:44:30Z</time>
      </trkpt>
      <trkpt lat="40.657676" lon="-3.294595">
        <ele>767.464</ele>
        <time>2019-04-21T09:44:32Z</time>
      </trkpt>
      <trkpt lat="40.657737" lon="-3.294542">
        <ele>767.664</ele>
        <time>2019-04-21T09:44:34Z</time>
      </trkpt>
      <trkpt lat="40.657782" lon="-3.294505">
        <ele>767.706</ele>
        <time>2019-04-21T09:44:35Z</time>
      </trkpt>
      <trkpt lat="40.657819" lon="-3.294454">
        <ele>767.816</ele>
        <time>2019-04-21T09:44:36Z</time>
      </trkpt>
      <trkpt lat="40.657858" lon="-3.294408">
        <ele>767.908</ele>
        <time>2019-04-21T09:44:37Z</time>
      </trkpt>
      <trkpt lat="40.657899" lon="-3.294363">
        <ele>768.019</ele>
        <time>2019-04-21T09:44:38Z</time>
      </trkpt>
      <trkpt lat="40.657934" lon="-3.294326">
        <ele>768.151</ele>
        <time>2019-04-21T09:44:39Z</time>
      </trkpt>
      <trkpt lat="40.657995" lon="-3.294245">
        <ele>768.281</ele>
        <time>2019-04-21T09:44:41Z</time>
      </trkpt>
      <trkpt lat="40.658035" lon="-3.294164">
        <ele>768.516</ele>
        <time>2019-04-21T09:44:43Z</time>
      </trkpt>
      <trkpt lat="40.658074" lon="-3.294092">
        <ele>768.618</ele>
        <time>2019-04-21T09:44:45Z</time>
      </trkpt>
      <trkpt lat="40.658118" lon="-3.294041">
        <ele>768.730</ele>
        <time>2019-04-21T09:44:47Z</time>
      </trkpt>
      <trkpt lat="40.658174" lon="-3.293997">
        <ele>768.964</ele>
        <time>2019-04-21T09:44:49Z</time>
      </trkpt>
      <trkpt lat="40.658242" lon="-3.293932">
        <ele>769.025</ele>
        <time>2019-04-21T09:44:51Z</time>
      </trkpt>
      <trkpt lat="40.658287" lon="-3.293901">
        <ele>769.034</ele>
        <time>2019-04-21T09:44:52Z</time>
      </trkpt>
      <trkpt lat="40.658336" lon="-3.293863">
        <ele>768.955</ele>
        <time>2019-04-21T09:44:53Z</time>
      </trkpt>
      <trkpt lat="40.658386" lon="-3.293829">
        <ele>768.810</ele>
        <time>2019-04-21T09:44:54Z</time>
      </trkpt>
      <trkpt lat="40.658438" lon="-3.293798">
        <ele>768.808</ele>
        <time>2019-04-21T09:44:55Z</time>
      </trkpt>
      <trkpt lat="40.658491" lon="-3.293763">
        <ele>768.956</ele>
        <time>2019-04-21T09:44:56Z</time>
      </trkpt>
      <trkpt lat="40.658542" lon="-3.293735">
        <ele>769.038</ele>
        <time>2019-04-21T09:44:57Z</time>
      </trkpt>
      <trkpt lat="40.658591" lon="-3.293726">
        <ele>769.258</ele>
        <time>2019-04-21T09:44:58Z</time>
      </trkpt>
      <trkpt lat="40.658646" lon="-3.293706">
        <ele>769.363</ele>
        <time>2019-04-21T09:44:59Z</time>
      </trkpt>
      <trkpt lat="40.658692" lon="-3.293687">
        <ele>769.425</ele>
        <time>2019-04-21T09:45:00Z</time>
      </trkpt>
      <trkpt lat="40.658737" lon="-3.293662">
        <ele>769.517</ele>
        <time>2019-04-21T09:45:01Z</time>
      </trkpt>
      <trkpt lat="40.658818" lon="-3.293625">
        <ele>769.591</ele>
        <time>2019-04-21T09:45:03Z</time>
      </trkpt>
      <trkpt lat="40.658865" lon="-3.293606">
        <ele>769.582</ele>
        <time>2019-04-21T09:45:04Z</time>
      </trkpt>
      <trkpt lat="40.658916" lon="-3.293586">
        <ele>769.536</ele>
        <time>2019-04-21T09:45:05Z</time>
      </trkpt>
      <trkpt lat="40.658966" lon="-3.293560">
        <ele>769.517</ele>
        <time>2019-04-21T09:45:06Z</time>
      </trkpt>
      <trkpt lat="40.659023" lon="-3.293545">
        <ele>769.718</ele>
        <time>2019-04-21T09:45:07Z</time>
      </trkpt>
      <trkpt lat="40.659075" lon="-3.293526">
        <ele>769.908</ele>
        <time>2019-04-21T09:45:08Z</time>
      </trkpt>
      <trkpt lat="40.659124" lon="-3.293509">
        <ele>770.176</ele>
        <time>2019-04-21T09:45:09Z</time>
      </trkpt>
      <trkpt lat="40.659171" lon="-3.293482">
        <ele>770.668</ele>
        <time>2019-04-21T09:45:10Z</time>
      </trkpt>
      <trkpt lat="40.659214" lon="-3.293453">
        <ele>770.918</ele>
        <time>2019-04-21T09:45:11Z</time>
      </trkpt>
      <trkpt lat="40.659251" lon="-3.293414">
        <ele>771.253</ele>
        <time>2019-04-21T09:45:12Z</time>
      </trkpt>
      <trkpt lat="40.659294" lon="-3.293367">
        <ele>771.495</ele>
        <time>2019-04-21T09:45:13Z</time>
      </trkpt>
      <trkpt lat="40.659324" lon="-3.293301">
        <ele>771.517</ele>
        <time>2019-04-21T09:45:14Z</time>
      </trkpt>
      <trkpt lat="40.659352" lon="-3.293218">
        <ele>771.521</ele>
        <time>2019-04-21T09:45:15Z</time>
      </trkpt>
      <trkpt lat="40.659375" lon="-3.293147">
        <ele>771.482</ele>
        <time>2019-04-21T09:45:16Z</time>
      </trkpt>
      <trkpt lat="40.659417" lon="-3.293053">
        <ele>770.985</ele>
        <time>2019-04-21T09:45:18Z</time>
      </trkpt>
      <trkpt lat="40.659481" lon="-3.293055">
        <ele>770.389</ele>
        <time>2019-04-21T09:45:20Z</time>
      </trkpt>
      <trkpt lat="40.659535" lon="-3.293120">
        <ele>769.917</ele>
        <time>2019-04-21T09:45:22Z</time>
      </trkpt>
      <trkpt lat="40.659577" lon="-3.293164">
        <ele>769.808</ele>
        <time>2019-04-21T09:45:24Z</time>
      </trkpt>
      <trkpt lat="40.659649" lon="-3.293228">
        <ele>770.061</ele>
        <time>2019-04-21T09:45:26Z</time>
      </trkpt>
      <trkpt lat="40.659731" lon="-3.293293">
        <ele>771.123</ele>
        <time>2019-04-21T09:45:28Z</time>
      </trkpt>
      <trkpt lat="40.659815" lon="-3.293301">
        <ele>772.163</ele>
        <time>2019-04-21T09:45:30Z</time>
      </trkpt>
      <trkpt lat="40.659890" lon="-3.293288">
        <ele>772.048</ele>
        <time>2019-04-21T09:45:32Z</time>
      </trkpt>
      <trkpt lat="40.659935" lon="-3.293272">
        <ele>772.010</ele>
        <time>2019-04-21T09:45:33Z</time>
      </trkpt>
      <trkpt lat="40.659981" lon="-3.293257">
        <ele>772.072</ele>
        <time>2019-04-21T09:45:34Z</time>
      </trkpt>
      <trkpt lat="40.660056" lon="-3.293234">
        <ele>772.446</ele>
        <time>2019-04-21T09:45:36Z</time>
      </trkpt>
      <trkpt lat="40.660136" lon="-3.293222">
        <ele>772.997</ele>
        <time>2019-04-21T09:45:38Z</time>
      </trkpt>
      <trkpt lat="40.660206" lon="-3.293191">
        <ele>772.932</ele>
        <time>2019-04-21T09:45:40Z</time>
      </trkpt>
      <trkpt lat="40.660288" lon="-3.293141">
        <ele>772.792</ele>
        <time>2019-04-21T09:45:42Z</time>
      </trkpt>
      <trkpt lat="40.660361" lon="-3.293115">
        <ele>772.311</ele>
        <time>2019-04-21T09:45:44Z</time>
      </trkpt>
      <trkpt lat="40.660414" lon="-3.293100">
        <ele>772.008</ele>
        <time>2019-04-21T09:45:46Z</time>
      </trkpt>
      <trkpt lat="40.660460" lon="-3.293076">
        <ele>771.756</ele>
        <time>2019-04-21T09:45:48Z</time>
      </trkpt>
      <trkpt lat="40.660518" lon="-3.293038">
        <ele>771.648</ele>
        <time>2019-04-21T09:45:50Z</time>
      </trkpt>
      <trkpt lat="40.660590" lon="-3.293029">
        <ele>771.558</ele>
        <time>2019-04-21T09:45:52Z</time>
      </trkpt>
      <trkpt lat="40.660659" lon="-3.293015">
        <ele>771.643</ele>
        <time>2019-04-21T09:45:54Z</time>
      </trkpt>
      <trkpt lat="40.660720" lon="-3.292971">
        <ele>771.725</ele>
        <time>2019-04-21T09:45:56Z</time>
      </trkpt>
      <trkpt lat="40.660795" lon="-3.292947">
        <ele>771.987</ele>
        <time>2019-04-21T09:45:58Z</time>
      </trkpt>
      <trkpt lat="40.660874" lon="-3.292939">
        <ele>772.291</ele>
        <time>2019-04-21T09:46:00Z</time>
      </trkpt>
      <trkpt lat="40.660955" lon="-3.292928">
        <ele>772.642</ele>
        <time>2019-04-21T09:46:02Z</time>
      </trkpt>
      <trkpt lat="40.661030" lon="-3.292896">
        <ele>773.396</ele>
        <time>2019-04-21T09:46:04Z</time>
      </trkpt>
      <trkpt lat="40.661106" lon="-3.292850">
        <ele>774.231</ele>
        <time>2019-04-21T09:46:06Z</time>
      </trkpt>
      <trkpt lat="40.661153" lon="-3.292811">
        <ele>774.924</ele>
        <time>2019-04-21T09:46:07Z</time>
      </trkpt>
      <trkpt lat="40.661195" lon="-3.292781">
        <ele>775.108</ele>
        <time>2019-04-21T09:46:08Z</time>
      </trkpt>
      <trkpt lat="40.661235" lon="-3.292751">
        <ele>775.272</ele>
        <time>2019-04-21T09:46:09Z</time>
      </trkpt>
      <trkpt lat="40.661277" lon="-3.292723">
        <ele>775.224</ele>
        <time>2019-04-21T09:46:10Z</time>
      </trkpt>
      <trkpt lat="40.661321" lon="-3.292697">
        <ele>775.244</ele>
        <time>2019-04-21T09:46:11Z</time>
      </trkpt>
      <trkpt lat="40.661376" lon="-3.292674">
        <ele>775.239</ele>
        <time>2019-04-21T09:46:13Z</time>
      </trkpt>
      <trkpt lat="40.661421" lon="-3.292645">
        <ele>775.181</ele>
        <time>2019-04-21T09:46:15Z</time>
      </trkpt>
      <trkpt lat="40.661464" lon="-3.292626">
        <ele>775.153</ele>
        <time>2019-04-21T09:46:17Z</time>
      </trkpt>
      <trkpt lat="40.661527" lon="-3.292604">
        <ele>775.277</ele>
        <time>2019-04-21T09:46:19Z</time>
      </trkpt>
      <trkpt lat="40.661591" lon="-3.292595">
        <ele>775.428</ele>
        <time>2019-04-21T09:46:21Z</time>
      </trkpt>
      <trkpt lat="40.661654" lon="-3.292573">
        <ele>775.568</ele>
        <time>2019-04-21T09:46:23Z</time>
      </trkpt>
      <trkpt lat="40.661709" lon="-3.292564">
        <ele>775.542</ele>
        <time>2019-04-21T09:46:25Z</time>
      </trkpt>
      <trkpt lat="40.661766" lon="-3.292527">
        <ele>775.626</ele>
        <time>2019-04-21T09:46:27Z</time>
      </trkpt>
      <trkpt lat="40.661817" lon="-3.292481">
        <ele>775.708</ele>
        <time>2019-04-21T09:46:29Z</time>
      </trkpt>
      <trkpt lat="40.661886" lon="-3.292435">
        <ele>775.919</ele>
        <time>2019-04-21T09:46:31Z</time>
      </trkpt>
      <trkpt lat="40.661967" lon="-3.292403">
        <ele>776.131</ele>
        <time>2019-04-21T09:46:33Z</time>
      </trkpt>
      <trkpt lat="40.662051" lon="-3.292368">
        <ele>776.321</ele>
        <time>2019-04-21T09:46:35Z</time>
      </trkpt>
      <trkpt lat="40.662129" lon="-3.292342">
        <ele>776.696</ele>
        <time>2019-04-21T09:46:37Z</time>
      </trkpt>
      <trkpt lat="40.662201" lon="-3.292321">
        <ele>776.878</ele>
        <time>2019-04-21T09:46:39Z</time>
      </trkpt>
      <trkpt lat="40.662275" lon="-3.292312">
        <ele>776.970</ele>
        <time>2019-04-21T09:46:41Z</time>
      </trkpt>
      <trkpt lat="40.662334" lon="-3.292308">
        <ele>777.284</ele>
        <time>2019-04-21T09:46:43Z</time>
      </trkpt>
      <trkpt lat="40.662394" lon="-3.292324">
        <ele>777.745</ele>
        <time>2019-04-21T09:46:45Z</time>
      </trkpt>
      <trkpt lat="40.662440" lon="-3.292345">
        <ele>778.325</ele>
        <time>2019-04-21T09:46:47Z</time>
      </trkpt>
      <trkpt lat="40.662499" lon="-3.292359">
        <ele>778.726</ele>
        <time>2019-04-21T09:46:49Z</time>
      </trkpt>
      <trkpt lat="40.662550" lon="-3.292351">
        <ele>778.708</ele>
        <time>2019-04-21T09:46:50Z</time>
      </trkpt>
      <trkpt lat="40.662595" lon="-3.292282">
        <ele>779.208</ele>
        <time>2019-04-21T09:46:52Z</time>
      </trkpt>
      <trkpt lat="40.662639" lon="-3.292236">
        <ele>779.545</ele>
        <time>2019-04-21T09:46:54Z</time>
      </trkpt>
      <trkpt lat="40.662704" lon="-3.292200">
        <ele>780.097</ele>
        <time>2019-04-21T09:46:56Z</time>
      </trkpt>
      <trkpt lat="40.662752" lon="-3.292152">
        <ele>780.497</ele>
        <time>2019-04-21T09:46:58Z</time>
      </trkpt>
      <trkpt lat="40.662828" lon="-3.292111">
        <ele>780.852</ele>
        <time>2019-04-21T09:47:00Z</time>
      </trkpt>
      <trkpt lat="40.662901" lon="-3.292068">
        <ele>781.124</ele>
        <time>2019-04-21T09:47:02Z</time>
      </trkpt>
      <trkpt lat="40.662971" lon="-3.292021">
        <ele>781.336</ele>
        <time>2019-04-21T09:47:04Z</time>
      </trkpt>
      <trkpt lat="40.663025" lon="-3.292005">
        <ele>782.240</ele>
        <time>2019-04-21T09:47:06Z</time>
      </trkpt>
      <trkpt lat="40.663071" lon="-3.291989">
        <ele>782.861</ele>
        <time>2019-04-21T09:47:08Z</time>
      </trkpt>
      <trkpt lat="40.663114" lon="-3.291946">
        <ele>783.127</ele>
        <time>2019-04-21T09:47:10Z</time>
      </trkpt>
      <trkpt lat="40.663165" lon="-3.291915">
        <ele>783.568</ele>
        <time>2019-04-21T09:47:12Z</time>
      </trkpt>
      <trkpt lat="40.663233" lon="-3.291897">
        <ele>783.814</ele>
        <time>2019-04-21T09:47:14Z</time>
      </trkpt>
      <trkpt lat="40.663299" lon="-3.291856">
        <ele>784.108</ele>
        <time>2019-04-21T09:47:16Z</time>
      </trkpt>
      <trkpt lat="40.663367" lon="-3.291826">
        <ele>784.245</ele>
        <time>2019-04-21T09:47:18Z</time>
      </trkpt>
      <trkpt lat="40.663442" lon="-3.291787">
        <ele>784.727</ele>
        <time>2019-04-21T09:47:20Z</time>
      </trkpt>
      <trkpt lat="40.663510" lon="-3.291753">
        <ele>785.157</ele>
        <time>2019-04-21T09:47:22Z</time>
      </trkpt>
      <trkpt lat="40.663577" lon="-3.291719">
        <ele>785.272</ele>
        <time>2019-04-21T09:47:24Z</time>
      </trkpt>
      <trkpt lat="40.663638" lon="-3.291695">
        <ele>785.574</ele>
        <time>2019-04-21T09:47:26Z</time>
      </trkpt>
      <trkpt lat="40.663705" lon="-3.291647">
        <ele>786.126</ele>
        <time>2019-04-21T09:47:28Z</time>
      </trkpt>
      <trkpt lat="40.663765" lon="-3.291591">
        <ele>786.520</ele>
        <time>2019-04-21T09:47:30Z</time>
      </trkpt>
      <trkpt lat="40.663809" lon="-3.291559">
        <ele>786.561</ele>
        <time>2019-04-21T09:47:31Z</time>
      </trkpt>
      <trkpt lat="40.663883" lon="-3.291516">
        <ele>786.399</ele>
        <time>2019-04-21T09:47:33Z</time>
      </trkpt>
      <trkpt lat="40.663936" lon="-3.291492">
        <ele>785.907</ele>
        <time>2019-04-21T09:47:35Z</time>
      </trkpt>
      <trkpt lat="40.664007" lon="-3.291430">
        <ele>786.127</ele>
        <time>2019-04-21T09:47:37Z</time>
      </trkpt>
      <trkpt lat="40.664086" lon="-3.291409">
        <ele>786.408</ele>
        <time>2019-04-21T09:47:39Z</time>
      </trkpt>
      <trkpt lat="40.664143" lon="-3.291389">
        <ele>786.612</ele>
        <time>2019-04-21T09:47:41Z</time>
      </trkpt>
      <trkpt lat="40.664201" lon="-3.291398">
        <ele>786.674</ele>
        <time>2019-04-21T09:47:43Z</time>
      </trkpt>
      <trkpt lat="40.664267" lon="-3.291392">
        <ele>786.834</ele>
        <time>2019-04-21T09:47:45Z</time>
      </trkpt>
      <trkpt lat="40.664316" lon="-3.291325">
        <ele>787.359</ele>
        <time>2019-04-21T09:47:47Z</time>
      </trkpt>
      <trkpt lat="40.664358" lon="-3.291277">
        <ele>787.561</ele>
        <time>2019-04-21T09:47:48Z</time>
      </trkpt>
      <trkpt lat="40.664389" lon="-3.291211">
        <ele>787.543</ele>
        <time>2019-04-21T09:47:49Z</time>
      </trkpt>
      <trkpt lat="40.664407" lon="-3.291140">
        <ele>787.357</ele>
        <time>2019-04-21T09:47:50Z</time>
      </trkpt>
      <trkpt lat="40.664419" lon="-3.291077">
        <ele>786.948</ele>
        <time>2019-04-21T09:47:51Z</time>
      </trkpt>
      <trkpt lat="40.664426" lon="-3.290992">
        <ele>786.265</ele>
        <time>2019-04-21T09:47:53Z</time>
      </trkpt>
      <trkpt lat="40.664453" lon="-3.290900">
        <ele>785.968</ele>
        <time>2019-04-21T09:47:55Z</time>
      </trkpt>
      <trkpt lat="40.664489" lon="-3.290806">
        <ele>785.714</ele>
        <time>2019-04-21T09:47:57Z</time>
      </trkpt>
      <trkpt lat="40.664529" lon="-3.290709">
        <ele>785.308</ele>
        <time>2019-04-21T09:47:59Z</time>
      </trkpt>
      <trkpt lat="40.664563" lon="-3.290641">
        <ele>784.879</ele>
        <time>2019-04-21T09:48:01Z</time>
      </trkpt>
      <trkpt lat="40.664598" lon="-3.290583">
        <ele>784.181</ele>
        <time>2019-04-21T09:48:03Z</time>
      </trkpt>
      <trkpt lat="40.664630" lon="-3.290512">
        <ele>783.491</ele>
        <time>2019-04-21T09:48:05Z</time>
      </trkpt>
      <trkpt lat="40.664662" lon="-3.290471">
        <ele>782.996</ele>
        <time>2019-04-21T09:48:07Z</time>
      </trkpt>
      <trkpt lat="40.664702" lon="-3.290413">
        <ele>782.448</ele>
        <time>2019-04-21T09:48:09Z</time>
      </trkpt>
      <trkpt lat="40.664750" lon="-3.290373">
        <ele>782.050</ele>
        <time>2019-04-21T09:48:12Z</time>
      </trkpt>
      <trkpt lat="40.664779" lon="-3.290322">
        <ele>781.954</ele>
        <time>2019-04-21T09:48:14Z</time>
      </trkpt>
      <trkpt lat="40.664819" lon="-3.290260">
        <ele>781.995</ele>
        <time>2019-04-21T09:48:16Z</time>
      </trkpt>
      <trkpt lat="40.664857" lon="-3.290205">
        <ele>781.591</ele>
        <time>2019-04-21T09:48:18Z</time>
      </trkpt>
      <trkpt lat="40.664897" lon="-3.290163">
        <ele>781.381</ele>
        <time>2019-04-21T09:48:20Z</time>
      </trkpt>
      <trkpt lat="40.664946" lon="-3.290091">
        <ele>781.319</ele>
        <time>2019-04-21T09:48:22Z</time>
      </trkpt>
      <trkpt lat="40.664985" lon="-3.290022">
        <ele>781.408</ele>
        <time>2019-04-21T09:48:25Z</time>
      </trkpt>
      <trkpt lat="40.665018" lon="-3.289953">
        <ele>781.362</ele>
        <time>2019-04-21T09:48:28Z</time>
      </trkpt>
      <trkpt lat="40.665055" lon="-3.289875">
        <ele>781.344</ele>
        <time>2019-04-21T09:48:31Z</time>
      </trkpt>
      <trkpt lat="40.665083" lon="-3.289827">
        <ele>781.234</ele>
        <time>2019-04-21T09:48:33Z</time>
      </trkpt>
      <trkpt lat="40.665121" lon="-3.289777">
        <ele>781.219</ele>
        <time>2019-04-21T09:48:35Z</time>
      </trkpt>
      <trkpt lat="40.665160" lon="-3.289715">
        <ele>781.391</ele>
        <time>2019-04-21T09:48:37Z</time>
      </trkpt>
      <trkpt lat="40.665213" lon="-3.289638">
        <ele>781.473</ele>
        <time>2019-04-21T09:48:39Z</time>
      </trkpt>
      <trkpt lat="40.665260" lon="-3.289574">
        <ele>781.567</ele>
        <time>2019-04-21T09:48:41Z</time>
      </trkpt>
      <trkpt lat="40.665296" lon="-3.289515">
        <ele>781.448</ele>
        <time>2019-04-21T09:48:43Z</time>
      </trkpt>
      <trkpt lat="40.665327" lon="-3.289449">
        <ele>781.332</ele>
        <time>2019-04-21T09:48:45Z</time>
      </trkpt>
      <trkpt lat="40.665366" lon="-3.289376">
        <ele>780.892</ele>
        <time>2019-04-21T09:48:48Z</time>
      </trkpt>
      <trkpt lat="40.665389" lon="-3.289313">
        <ele>780.911</ele>
        <time>2019-04-21T09:48:50Z</time>
      </trkpt>
      <trkpt lat="40.665408" lon="-3.289238">
        <ele>781.308</ele>
        <time>2019-04-21T09:48:53Z</time>
      </trkpt>
      <trkpt lat="40.665446" lon="-3.289178">
        <ele>781.496</ele>
        <time>2019-04-21T09:48:55Z</time>
      </trkpt>
      <trkpt lat="40.665459" lon="-3.289098">
        <ele>781.458</ele>
        <time>2019-04-21T09:48:57Z</time>
      </trkpt>
      <trkpt lat="40.665480" lon="-3.289012">
        <ele>781.428</ele>
        <time>2019-04-21T09:48:59Z</time>
      </trkpt>
      <trkpt lat="40.665516" lon="-3.288934">
        <ele>781.833</ele>
        <time>2019-04-21T09:49:01Z</time>
      </trkpt>
      <trkpt lat="40.665558" lon="-3.288860">
        <ele>782.465</ele>
        <time>2019-04-21T09:49:03Z</time>
      </trkpt>
      <trkpt lat="40.665587" lon="-3.288814">
        <ele>782.497</ele>
        <time>2019-04-21T09:49:04Z</time>
      </trkpt>
      <trkpt lat="40.665618" lon="-3.288770">
        <ele>782.351</ele>
        <time>2019-04-21T09:49:05Z</time>
      </trkpt>
      <trkpt lat="40.665674" lon="-3.288716">
        <ele>782.022</ele>
        <time>2019-04-21T09:49:07Z</time>
      </trkpt>
      <trkpt lat="40.665732" lon="-3.288665">
        <ele>781.944</ele>
        <time>2019-04-21T09:49:09Z</time>
      </trkpt>
      <trkpt lat="40.665775" lon="-3.288623">
        <ele>781.905</ele>
        <time>2019-04-21T09:49:11Z</time>
      </trkpt>
      <trkpt lat="40.665809" lon="-3.288557">
        <ele>781.815</ele>
        <time>2019-04-21T09:49:13Z</time>
      </trkpt>
      <trkpt lat="40.665838" lon="-3.288473">
        <ele>781.708</ele>
        <time>2019-04-21T09:49:15Z</time>
      </trkpt>
      <trkpt lat="40.665871" lon="-3.288407">
        <ele>781.477</ele>
        <time>2019-04-21T09:49:17Z</time>
      </trkpt>
      <trkpt lat="40.665904" lon="-3.288337">
        <ele>781.169</ele>
        <time>2019-04-21T09:49:19Z</time>
      </trkpt>
      <trkpt lat="40.665959" lon="-3.288262">
        <ele>780.959</ele>
        <time>2019-04-21T09:49:21Z</time>
      </trkpt>
      <trkpt lat="40.665997" lon="-3.288212">
        <ele>780.854</ele>
        <time>2019-04-21T09:49:23Z</time>
      </trkpt>
      <trkpt lat="40.666048" lon="-3.288145">
        <ele>780.716</ele>
        <time>2019-04-21T09:49:25Z</time>
      </trkpt>
      <trkpt lat="40.666100" lon="-3.288076">
        <ele>780.578</ele>
        <time>2019-04-21T09:49:27Z</time>
      </trkpt>
      <trkpt lat="40.666147" lon="-3.288007">
        <ele>780.692</ele>
        <time>2019-04-21T09:49:29Z</time>
      </trkpt>
      <trkpt lat="40.666182" lon="-3.287928">
        <ele>780.933</ele>
        <time>2019-04-21T09:49:31Z</time>
      </trkpt>
      <trkpt lat="40.666221" lon="-3.287871">
        <ele>781.125</ele>
        <time>2019-04-21T09:49:33Z</time>
      </trkpt>
      <trkpt lat="40.666298" lon="-3.287827">
        <ele>781.426</ele>
        <time>2019-04-21T09:49:35Z</time>
      </trkpt>
      <trkpt lat="40.666359" lon="-3.287810">
        <ele>781.608</ele>
        <time>2019-04-21T09:49:38Z</time>
      </trkpt>
      <trkpt lat="40.666413" lon="-3.287797">
        <ele>781.708</ele>
        <time>2019-04-21T09:49:41Z</time>
      </trkpt>
      <trkpt lat="40.666468" lon="-3.287792">
        <ele>781.785</ele>
        <time>2019-04-21T09:49:43Z</time>
      </trkpt>
      <trkpt lat="40.666524" lon="-3.287776">
        <ele>781.757</ele>
        <time>2019-04-21T09:49:45Z</time>
      </trkpt>
      <trkpt lat="40.666583" lon="-3.287730">
        <ele>781.957</ele>
        <time>2019-04-21T09:49:47Z</time>
      </trkpt>
      <trkpt lat="40.666648" lon="-3.287650">
        <ele>782.012</ele>
        <time>2019-04-21T09:49:49Z</time>
      </trkpt>
      <trkpt lat="40.666700" lon="-3.287602">
        <ele>782.064</ele>
        <time>2019-04-21T09:49:51Z</time>
      </trkpt>
      <trkpt lat="40.666751" lon="-3.287579">
        <ele>782.186</ele>
        <time>2019-04-21T09:49:53Z</time>
      </trkpt>
      <trkpt lat="40.666813" lon="-3.287580">
        <ele>782.210</ele>
        <time>2019-04-21T09:49:55Z</time>
      </trkpt>
      <trkpt lat="40.666878" lon="-3.287588">
        <ele>782.331</ele>
        <time>2019-04-21T09:49:57Z</time>
      </trkpt>
      <trkpt lat="40.666946" lon="-3.287585">
        <ele>782.328</ele>
        <time>2019-04-21T09:49:59Z</time>
      </trkpt>
      <trkpt lat="40.667014" lon="-3.287570">
        <ele>782.589</ele>
        <time>2019-04-21T09:50:01Z</time>
      </trkpt>
      <trkpt lat="40.667082" lon="-3.287540">
        <ele>782.817</ele>
        <time>2019-04-21T09:50:03Z</time>
      </trkpt>
      <trkpt lat="40.667142" lon="-3.287513">
        <ele>782.908</ele>
        <time>2019-04-21T09:50:05Z</time>
      </trkpt>
      <trkpt lat="40.667208" lon="-3.287487">
        <ele>783.085</ele>
        <time>2019-04-21T09:50:07Z</time>
      </trkpt>
      <trkpt lat="40.667293" lon="-3.287467">
        <ele>783.047</ele>
        <time>2019-04-21T09:50:09Z</time>
      </trkpt>
      <trkpt lat="40.667370" lon="-3.287459">
        <ele>783.147</ele>
        <time>2019-04-21T09:50:11Z</time>
      </trkpt>
      <trkpt lat="40.667433" lon="-3.287445">
        <ele>783.312</ele>
        <time>2019-04-21T09:50:13Z</time>
      </trkpt>
      <trkpt lat="40.667499" lon="-3.287394">
        <ele>783.644</ele>
        <time>2019-04-21T09:50:15Z</time>
      </trkpt>
      <trkpt lat="40.667534" lon="-3.287354">
        <ele>783.636</ele>
        <time>2019-04-21T09:50:16Z</time>
      </trkpt>
      <trkpt lat="40.667580" lon="-3.287308">
        <ele>783.580</ele>
        <time>2019-04-21T09:50:18Z</time>
      </trkpt>
      <trkpt lat="40.667647" lon="-3.287269">
        <ele>783.791</ele>
        <time>2019-04-21T09:50:21Z</time>
      </trkpt>
      <trkpt lat="40.667700" lon="-3.287208">
        <ele>784.075</ele>
        <time>2019-04-21T09:50:23Z</time>
      </trkpt>
      <trkpt lat="40.667731" lon="-3.287159">
        <ele>784.328</ele>
        <time>2019-04-21T09:50:25Z</time>
      </trkpt>
      <trkpt lat="40.667762" lon="-3.287083">
        <ele>784.620</ele>
        <time>2019-04-21T09:50:27Z</time>
      </trkpt>
      <trkpt lat="40.667800" lon="-3.287033">
        <ele>784.908</ele>
        <time>2019-04-21T09:50:29Z</time>
      </trkpt>
      <trkpt lat="40.667853" lon="-3.287003">
        <ele>785.570</ele>
        <time>2019-04-21T09:50:31Z</time>
      </trkpt>
      <trkpt lat="40.667907" lon="-3.286970">
        <ele>785.752</ele>
        <time>2019-04-21T09:50:33Z</time>
      </trkpt>
      <trkpt lat="40.667962" lon="-3.286920">
        <ele>785.832</ele>
        <time>2019-04-21T09:50:35Z</time>
      </trkpt>
      <trkpt lat="40.668017" lon="-3.286851">
        <ele>785.857</ele>
        <time>2019-04-21T09:50:37Z</time>
      </trkpt>
      <trkpt lat="40.668055" lon="-3.286803">
        <ele>786.139</ele>
        <time>2019-04-21T09:50:39Z</time>
      </trkpt>
      <trkpt lat="40.668101" lon="-3.286763">
        <ele>786.421</ele>
        <time>2019-04-21T09:50:41Z</time>
      </trkpt>
      <trkpt lat="40.668163" lon="-3.286730">
        <ele>786.785</ele>
        <time>2019-04-21T09:50:43Z</time>
      </trkpt>
      <trkpt lat="40.668222" lon="-3.286683">
        <ele>787.036</ele>
        <time>2019-04-21T09:50:45Z</time>
      </trkpt>
      <trkpt lat="40.668282" lon="-3.286655">
        <ele>787.094</ele>
        <time>2019-04-21T09:50:47Z</time>
      </trkpt>
      <trkpt lat="40.668348" lon="-3.286616">
        <ele>787.257</ele>
        <time>2019-04-21T09:50:49Z</time>
      </trkpt>
      <trkpt lat="40.668424" lon="-3.286570">
        <ele>787.422</ele>
        <time>2019-04-21T09:50:51Z</time>
      </trkpt>
      <trkpt lat="40.668485" lon="-3.286535">
        <ele>787.408</ele>
        <time>2019-04-21T09:50:53Z</time>
      </trkpt>
      <trkpt lat="40.668542" lon="-3.286503">
        <ele>787.352</ele>
        <time>2019-04-21T09:50:55Z</time>
      </trkpt>
      <trkpt lat="40.668611" lon="-3.286456">
        <ele>787.084</ele>
        <time>2019-04-21T09:50:57Z</time>
      </trkpt>
      <trkpt lat="40.668688" lon="-3.286396">
        <ele>786.644</ele>
        <time>2019-04-21T09:50:59Z</time>
      </trkpt>
      <trkpt lat="40.668740" lon="-3.286325">
        <ele>786.329</ele>
        <time>2019-04-21T09:51:01Z</time>
      </trkpt>
      <trkpt lat="40.668780" lon="-3.286252">
        <ele>786.331</ele>
        <time>2019-04-21T09:51:03Z</time>
      </trkpt>
      <trkpt lat="40.668808" lon="-3.286174">
        <ele>786.463</ele>
        <time>2019-04-21T09:51:05Z</time>
      </trkpt>
      <trkpt lat="40.668860" lon="-3.286149">
        <ele>786.267</ele>
        <time>2019-04-21T09:51:07Z</time>
      </trkpt>
      <trkpt lat="40.668902" lon="-3.286113">
        <ele>786.088</ele>
        <time>2019-04-21T09:51:09Z</time>
      </trkpt>
      <trkpt lat="40.668955" lon="-3.286060">
        <ele>786.396</ele>
        <time>2019-04-21T09:51:12Z</time>
      </trkpt>
      <trkpt lat="40.668999" lon="-3.286021">
        <ele>786.731</ele>
        <time>2019-04-21T09:51:14Z</time>
      </trkpt>
      <trkpt lat="40.669025" lon="-3.285964">
        <ele>787.824</ele>
        <time>2019-04-21T09:51:17Z</time>
      </trkpt>
      <trkpt lat="40.668985" lon="-3.285932">
        <ele>788.208</ele>
        <time>2019-04-21T09:51:21Z</time>
      </trkpt>
      <trkpt lat="40.668917" lon="-3.285926">
        <ele>788.282</ele>
        <time>2019-04-21T09:51:24Z</time>
      </trkpt>
      <trkpt lat="40.668846" lon="-3.285907">
        <ele>788.334</ele>
        <time>2019-04-21T09:51:26Z</time>
      </trkpt>
      <trkpt lat="40.668786" lon="-3.285864">
        <ele>788.454</ele>
        <time>2019-04-21T09:51:28Z</time>
      </trkpt>
      <trkpt lat="40.668738" lon="-3.285822">
        <ele>789.019</ele>
        <time>2019-04-21T09:51:30Z</time>
      </trkpt>
      <trkpt lat="40.668696" lon="-3.285782">
        <ele>789.611</ele>
        <time>2019-04-21T09:51:32Z</time>
      </trkpt>
      <trkpt lat="40.668672" lon="-3.285695">
        <ele>790.223</ele>
        <time>2019-04-21T09:51:34Z</time>
      </trkpt>
      <trkpt lat="40.668655" lon="-3.285610">
        <ele>790.967</ele>
        <time>2019-04-21T09:51:36Z</time>
      </trkpt>
      <trkpt lat="40.668633" lon="-3.285533">
        <ele>791.658</ele>
        <time>2019-04-21T09:51:38Z</time>
      </trkpt>
      <trkpt lat="40.668613" lon="-3.285455">
        <ele>792.158</ele>
        <time>2019-04-21T09:51:40Z</time>
      </trkpt>
      <trkpt lat="40.668595" lon="-3.285400">
        <ele>792.652</ele>
        <time>2019-04-21T09:51:42Z</time>
      </trkpt>
      <trkpt lat="40.668591" lon="-3.285324">
        <ele>793.217</ele>
        <time>2019-04-21T09:51:44Z</time>
      </trkpt>
      <trkpt lat="40.668599" lon="-3.285257">
        <ele>794.108</ele>
        <time>2019-04-21T09:51:46Z</time>
      </trkpt>
      <trkpt lat="40.668618" lon="-3.285190">
        <ele>794.828</ele>
        <time>2019-04-21T09:51:48Z</time>
      </trkpt>
      <trkpt lat="40.668651" lon="-3.285099">
        <ele>795.540</ele>
        <time>2019-04-21T09:51:50Z</time>
      </trkpt>
      <trkpt lat="40.668683" lon="-3.285015">
        <ele>796.230</ele>
        <time>2019-04-21T09:51:52Z</time>
      </trkpt>
      <trkpt lat="40.668724" lon="-3.284922">
        <ele>796.815</ele>
        <time>2019-04-21T09:51:54Z</time>
      </trkpt>
      <trkpt lat="40.668753" lon="-3.284840">
        <ele>797.477</ele>
        <time>2019-04-21T09:51:56Z</time>
      </trkpt>
      <trkpt lat="40.668764" lon="-3.284765">
        <ele>797.969</ele>
        <time>2019-04-21T09:51:58Z</time>
      </trkpt>
      <trkpt lat="40.668755" lon="-3.284682">
        <ele>798.953</ele>
        <time>2019-04-21T09:52:00Z</time>
      </trkpt>
      <trkpt lat="40.668744" lon="-3.284591">
        <ele>799.884</ele>
        <time>2019-04-21T09:52:02Z</time>
      </trkpt>
      <trkpt lat="40.668753" lon="-3.284498">
        <ele>800.722</ele>
        <time>2019-04-21T09:52:04Z</time>
      </trkpt>
      <trkpt lat="40.668759" lon="-3.284400">
        <ele>801.362</ele>
        <time>2019-04-21T09:52:06Z</time>
      </trkpt>
      <trkpt lat="40.668749" lon="-3.284306">
        <ele>801.908</ele>
        <time>2019-04-21T09:52:08Z</time>
      </trkpt>
      <trkpt lat="40.668727" lon="-3.284210">
        <ele>802.508</ele>
        <time>2019-04-21T09:52:10Z</time>
      </trkpt>
      <trkpt lat="40.668697" lon="-3.284111">
        <ele>803.355</ele>
        <time>2019-04-21T09:52:12Z</time>
      </trkpt>
      <trkpt lat="40.668680" lon="-3.284007">
        <ele>804.267</ele>
        <time>2019-04-21T09:52:14Z</time>
      </trkpt>
      <trkpt lat="40.668670" lon="-3.283913">
        <ele>805.967</ele>
        <time>2019-04-21T09:52:16Z</time>
      </trkpt>
      <trkpt lat="40.668680" lon="-3.283809">
        <ele>807.022</ele>
        <time>2019-04-21T09:52:18Z</time>
      </trkpt>
      <trkpt lat="40.668689" lon="-3.283730">
        <ele>807.964</ele>
        <time>2019-04-21T09:52:20Z</time>
      </trkpt>
      <trkpt lat="40.668699" lon="-3.283640">
        <ele>808.896</ele>
        <time>2019-04-21T09:52:22Z</time>
      </trkpt>
      <trkpt lat="40.668706" lon="-3.283548">
        <ele>809.710</ele>
        <time>2019-04-21T09:52:24Z</time>
      </trkpt>
      <trkpt lat="40.668716" lon="-3.283442">
        <ele>810.511</ele>
        <time>2019-04-21T09:52:26Z</time>
      </trkpt>
      <trkpt lat="40.668711" lon="-3.283335">
        <ele>811.265</ele>
        <time>2019-04-21T09:52:28Z</time>
      </trkpt>
      <trkpt lat="40.668686" lon="-3.283232">
        <ele>812.768</ele>
        <time>2019-04-21T09:52:30Z</time>
      </trkpt>
      <trkpt lat="40.668655" lon="-3.283144">
        <ele>813.914</ele>
        <time>2019-04-21T09:52:32Z</time>
      </trkpt>
      <trkpt lat="40.668666" lon="-3.283054">
        <ele>814.908</ele>
        <time>2019-04-21T09:52:34Z</time>
      </trkpt>
      <trkpt lat="40.668689" lon="-3.282963">
        <ele>815.579</ele>
        <time>2019-04-21T09:52:36Z</time>
      </trkpt>
      <trkpt lat="40.668708" lon="-3.282851">
        <ele>816.441</ele>
        <time>2019-04-21T09:52:38Z</time>
      </trkpt>
      <trkpt lat="40.668715" lon="-3.282790">
        <ele>816.861</ele>
        <time>2019-04-21T09:52:39Z</time>
      </trkpt>
      <trkpt lat="40.668723" lon="-3.282727">
        <ele>817.226</ele>
        <time>2019-04-21T09:52:40Z</time>
      </trkpt>
      <trkpt lat="40.668725" lon="-3.282665">
        <ele>817.548</ele>
        <time>2019-04-21T09:52:41Z</time>
      </trkpt>
      <trkpt lat="40.668720" lon="-3.282543">
        <ele>817.750</ele>
        <time>2019-04-21T09:52:43Z</time>
      </trkpt>
      <trkpt lat="40.668720" lon="-3.282417">
        <ele>817.964</ele>
        <time>2019-04-21T09:52:45Z</time>
      </trkpt>
      <trkpt lat="40.668729" lon="-3.282358">
        <ele>818.155</ele>
        <time>2019-04-21T09:52:46Z</time>
      </trkpt>
      <trkpt lat="40.668730" lon="-3.282291">
        <ele>818.242</ele>
        <time>2019-04-21T09:52:47Z</time>
      </trkpt>
      <trkpt lat="40.668697" lon="-3.282191">
        <ele>818.322</ele>
        <time>2019-04-21T09:52:49Z</time>
      </trkpt>
      <trkpt lat="40.668660" lon="-3.282111">
        <ele>818.014</ele>
        <time>2019-04-21T09:52:51Z</time>
      </trkpt>
      <trkpt lat="40.668621" lon="-3.282042">
        <ele>817.508</ele>
        <time>2019-04-21T09:52:55Z</time>
      </trkpt>
      <trkpt lat="40.668591" lon="-3.281952">
        <ele>817.657</ele>
        <time>2019-04-21T09:52:57Z</time>
      </trkpt>
      <trkpt lat="40.668559" lon="-3.281877">
        <ele>817.799</ele>
        <time>2019-04-21T09:52:59Z</time>
      </trkpt>
      <trkpt lat="40.668533" lon="-3.281828">
        <ele>817.359</ele>
        <time>2019-04-21T09:53:01Z</time>
      </trkpt>
      <trkpt lat="40.668506" lon="-3.281771">
        <ele>817.114</ele>
        <time>2019-04-21T09:53:03Z</time>
      </trkpt>
      <trkpt lat="40.668473" lon="-3.281697">
        <ele>817.046</ele>
        <time>2019-04-21T09:53:05Z</time>
      </trkpt>
      <trkpt lat="40.668466" lon="-3.281630">
        <ele>817.248</ele>
        <time>2019-04-21T09:53:07Z</time>
      </trkpt>
      <trkpt lat="40.668456" lon="-3.281571">
        <ele>817.262</ele>
        <time>2019-04-21T09:53:09Z</time>
      </trkpt>
      <trkpt lat="40.668431" lon="-3.281507">
        <ele>817.393</ele>
        <time>2019-04-21T09:53:11Z</time>
      </trkpt>
      <trkpt lat="40.668401" lon="-3.281424">
        <ele>817.261</ele>
        <time>2019-04-21T09:53:13Z</time>
      </trkpt>
      <trkpt lat="40.668366" lon="-3.281339">
        <ele>817.221</ele>
        <time>2019-04-21T09:53:15Z</time>
      </trkpt>
      <trkpt lat="40.668346" lon="-3.281254">
        <ele>817.413</ele>
        <time>2019-04-21T09:53:17Z</time>
      </trkpt>
      <trkpt lat="40.668322" lon="-3.281143">
        <ele>817.608</ele>
        <time>2019-04-21T09:53:19Z</time>
      </trkpt>
      <trkpt lat="40.668306" lon="-3.281085">
        <ele>817.929</ele>
        <time>2019-04-21T09:53:20Z</time>
      </trkpt>
      <trkpt lat="40.668289" lon="-3.281022">
        <ele>817.931</ele>
        <time>2019-04-21T09:53:21Z</time>
      </trkpt>
      <trkpt lat="40.668279" lon="-3.280963">
        <ele>818.041</ele>
        <time>2019-04-21T09:53:22Z</time>
      </trkpt>
      <trkpt lat="40.668269" lon="-3.280891">
        <ele>818.116</ele>
        <time>2019-04-21T09:53:23Z</time>
      </trkpt>
      <trkpt lat="40.668261" lon="-3.280817">
        <ele>818.298</ele>
        <time>2019-04-21T09:53:24Z</time>
      </trkpt>
      <trkpt lat="40.668249" lon="-3.280755">
        <ele>818.210</ele>
        <time>2019-04-21T09:53:25Z</time>
      </trkpt>
      <trkpt lat="40.668241" lon="-3.280686">
        <ele>818.354</ele>
        <time>2019-04-21T09:53:26Z</time>
      </trkpt>
      <trkpt lat="40.668235" lon="-3.280613">
        <ele>818.395</ele>
        <time>2019-04-21T09:53:27Z</time>
      </trkpt>
      <trkpt lat="40.668233" lon="-3.280541">
        <ele>818.449</ele>
        <time>2019-04-21T09:53:28Z</time>
      </trkpt>
      <trkpt lat="40.668240" lon="-3.280474">
        <ele>818.502</ele>
        <time>2019-04-21T09:53:29Z</time>
      </trkpt>
      <trkpt lat="40.668250" lon="-3.280401">
        <ele>818.822</ele>
        <time>2019-04-21T09:53:30Z</time>
      </trkpt>
      <trkpt lat="40.668257" lon="-3.280326">
        <ele>818.908</ele>
        <time>2019-04-21T09:53:31Z</time>
      </trkpt>
      <trkpt lat="40.668265" lon="-3.280253">
        <ele>818.927</ele>
        <time>2019-04-21T09:53:32Z</time>
      </trkpt>
      <trkpt lat="40.668277" lon="-3.280185">
        <ele>818.929</ele>
        <time>2019-04-21T09:53:33Z</time>
      </trkpt>
      <trkpt lat="40.668292" lon="-3.280106">
        <ele>818.979</ele>
        <time>2019-04-21T09:53:34Z</time>
      </trkpt>
      <trkpt lat="40.668305" lon="-3.280041">
        <ele>819.094</ele>
        <time>2019-04-21T09:53:35Z</time>
      </trkpt>
      <trkpt lat="40.668312" lon="-3.279967">
        <ele>819.156</ele>
        <time>2019-04-21T09:53:36Z</time>
      </trkpt>
      <trkpt lat="40.668313" lon="-3.279891">
        <ele>819.228</ele>
        <time>2019-04-21T09:53:37Z</time>
      </trkpt>
      <trkpt lat="40.668324" lon="-3.279809">
        <ele>819.522</ele>
        <time>2019-04-21T09:53:38Z</time>
      </trkpt>
      <trkpt lat="40.668327" lon="-3.279710">
        <ele>819.743</ele>
        <time>2019-04-21T09:53:39Z</time>
      </trkpt>
      <trkpt lat="40.668327" lon="-3.279626">
        <ele>819.821</ele>
        <time>2019-04-21T09:53:40Z</time>
      </trkpt>
      <trkpt lat="40.668330" lon="-3.279532">
        <ele>819.841</ele>
        <time>2019-04-21T09:53:41Z</time>
      </trkpt>
      <trkpt lat="40.668335" lon="-3.279441">
        <ele>819.805</ele>
        <time>2019-04-21T09:53:42Z</time>
      </trkpt>
      <trkpt lat="40.668321" lon="-3.279374">
        <ele>819.508</ele>
        <time>2019-04-21T09:53:43Z</time>
      </trkpt>
      <trkpt lat="40.668304" lon="-3.279300">
        <ele>819.345</ele>
        <time>2019-04-21T09:53:44Z</time>
      </trkpt>
      <trkpt lat="40.668298" lon="-3.279234">
        <ele>818.837</ele>
        <time>2019-04-21T09:53:45Z</time>
      </trkpt>
      <trkpt lat="40.668292" lon="-3.279162">
        <ele>818.667</ele>
        <time>2019-04-21T09:53:46Z</time>
      </trkpt>
      <trkpt lat="40.668280" lon="-3.279050">
        <ele>818.322</ele>
        <time>2019-04-21T09:53:48Z</time>
      </trkpt>
      <trkpt lat="40.668267" lon="-3.278986">
        <ele>818.214</ele>
        <time>2019-04-21T09:53:49Z</time>
      </trkpt>
      <trkpt lat="40.668241" lon="-3.278870">
        <ele>818.176</ele>
        <time>2019-04-21T09:53:51Z</time>
      </trkpt>
      <trkpt lat="40.668224" lon="-3.278815">
        <ele>818.110</ele>
        <time>2019-04-21T09:53:52Z</time>
      </trkpt>
      <trkpt lat="40.668188" lon="-3.278693">
        <ele>818.191</ele>
        <time>2019-04-21T09:53:54Z</time>
      </trkpt>
      <trkpt lat="40.668168" lon="-3.278632">
        <ele>818.129</ele>
        <time>2019-04-21T09:53:55Z</time>
      </trkpt>
      <trkpt lat="40.668138" lon="-3.278507">
        <ele>818.200</ele>
        <time>2019-04-21T09:53:57Z</time>
      </trkpt>
      <trkpt lat="40.668121" lon="-3.278430">
        <ele>818.320</ele>
        <time>2019-04-21T09:53:58Z</time>
      </trkpt>
      <trkpt lat="40.668102" lon="-3.278356">
        <ele>818.408</ele>
        <time>2019-04-21T09:53:59Z</time>
      </trkpt>
      <trkpt lat="40.668090" lon="-3.278267">
        <ele>818.695</ele>
        <time>2019-04-21T09:54:00Z</time>
      </trkpt>
      <trkpt lat="40.668074" lon="-3.278183">
        <ele>818.657</ele>
        <time>2019-04-21T09:54:01Z</time>
      </trkpt>
      <trkpt lat="40.668061" lon="-3.278110">
        <ele>818.647</ele>
        <time>2019-04-21T09:54:02Z</time>
      </trkpt>
      <trkpt lat="40.668048" lon="-3.278031">
        <ele>818.892</ele>
        <time>2019-04-21T09:54:03Z</time>
      </trkpt>
      <trkpt lat="40.668035" lon="-3.277948">
        <ele>818.944</ele>
        <time>2019-04-21T09:54:04Z</time>
      </trkpt>
      <trkpt lat="40.668020" lon="-3.277866">
        <ele>819.126</ele>
        <time>2019-04-21T09:54:05Z</time>
      </trkpt>
      <trkpt lat="40.668006" lon="-3.277785">
        <ele>819.140</ele>
        <time>2019-04-21T09:54:06Z</time>
      </trkpt>
      <trkpt lat="40.667993" lon="-3.277721">
        <ele>819.221</ele>
        <time>2019-04-21T09:54:07Z</time>
      </trkpt>
      <trkpt lat="40.667979" lon="-3.277650">
        <ele>819.174</ele>
        <time>2019-04-21T09:54:08Z</time>
      </trkpt>
      <trkpt lat="40.667957" lon="-3.277577">
        <ele>819.156</ele>
        <time>2019-04-21T09:54:09Z</time>
      </trkpt>
      <trkpt lat="40.667936" lon="-3.277503">
        <ele>819.121</ele>
        <time>2019-04-21T09:54:10Z</time>
      </trkpt>
      <trkpt lat="40.667918" lon="-3.277423">
        <ele>819.008</ele>
        <time>2019-04-21T09:54:11Z</time>
      </trkpt>
      <trkpt lat="40.667897" lon="-3.277343">
        <ele>818.960</ele>
        <time>2019-04-21T09:54:12Z</time>
      </trkpt>
      <trkpt lat="40.667874" lon="-3.277254">
        <ele>818.892</ele>
        <time>2019-04-21T09:54:13Z</time>
      </trkpt>
      <trkpt lat="40.667857" lon="-3.277168">
        <ele>818.632</ele>
        <time>2019-04-21T09:54:14Z</time>
      </trkpt>
      <trkpt lat="40.667837" lon="-3.277070">
        <ele>818.657</ele>
        <time>2019-04-21T09:54:15Z</time>
      </trkpt>
      <trkpt lat="40.667816" lon="-3.276971">
        <ele>818.739</ele>
        <time>2019-04-21T09:54:16Z</time>
      </trkpt>
      <trkpt lat="40.667797" lon="-3.276880">
        <ele>818.851</ele>
        <time>2019-04-21T09:54:17Z</time>
      </trkpt>
      <trkpt lat="40.667778" lon="-3.276784">
        <ele>818.965</ele>
        <time>2019-04-21T09:54:18Z</time>
      </trkpt>
      <trkpt lat="40.667757" lon="-3.276692">
        <ele>818.856</ele>
        <time>2019-04-21T09:54:19Z</time>
      </trkpt>
      <trkpt lat="40.667740" lon="-3.276604">
        <ele>818.772</ele>
        <time>2019-04-21T09:54:20Z</time>
      </trkpt>
      <trkpt lat="40.667721" lon="-3.276511">
        <ele>818.613</ele>
        <time>2019-04-21T09:54:21Z</time>
      </trkpt>
      <trkpt lat="40.667702" lon="-3.276428">
        <ele>818.514</ele>
        <time>2019-04-21T09:54:22Z</time>
      </trkpt>
      <trkpt lat="40.667680" lon="-3.276334">
        <ele>818.308</ele>
        <time>2019-04-21T09:54:23Z</time>
      </trkpt>
      <trkpt lat="40.667654" lon="-3.276237">
        <ele>818.020</ele>
        <time>2019-04-21T09:54:24Z</time>
      </trkpt>
      <trkpt lat="40.667631" lon="-3.276135">
        <ele>817.722</ele>
        <time>2019-04-21T09:54:25Z</time>
      </trkpt>
      <trkpt lat="40.667607" lon="-3.276027">
        <ele>817.472</ele>
        <time>2019-04-21T09:54:26Z</time>
      </trkpt>
      <trkpt lat="40.667595" lon="-3.275921">
        <ele>817.047</ele>
        <time>2019-04-21T09:54:27Z</time>
      </trkpt>
      <trkpt lat="40.667581" lon="-3.275820">
        <ele>816.749</ele>
        <time>2019-04-21T09:54:28Z</time>
      </trkpt>
      <trkpt lat="40.667564" lon="-3.275723">
        <ele>816.321</ele>
        <time>2019-04-21T09:54:29Z</time>
      </trkpt>
      <trkpt lat="40.667549" lon="-3.275627">
        <ele>815.625</ele>
        <time>2019-04-21T09:54:30Z</time>
      </trkpt>
      <trkpt lat="40.667535" lon="-3.275529">
        <ele>815.396</ele>
        <time>2019-04-21T09:54:31Z</time>
      </trkpt>
      <trkpt lat="40.667522" lon="-3.275432">
        <ele>815.159</ele>
        <time>2019-04-21T09:54:32Z</time>
      </trkpt>
      <trkpt lat="40.667506" lon="-3.275337">
        <ele>814.903</ele>
        <time>2019-04-21T09:54:33Z</time>
      </trkpt>
      <trkpt lat="40.667491" lon="-3.275246">
        <ele>814.723</ele>
        <time>2019-04-21T09:54:34Z</time>
      </trkpt>
      <trkpt lat="40.667466" lon="-3.275160">
        <ele>814.408</ele>
        <time>2019-04-21T09:54:35Z</time>
      </trkpt>
      <trkpt lat="40.667441" lon="-3.275075">
        <ele>814.188</ele>
        <time>2019-04-21T09:54:36Z</time>
      </trkpt>
      <trkpt lat="40.667420" lon="-3.274987">
        <ele>813.790</ele>
        <time>2019-04-21T09:54:37Z</time>
      </trkpt>
      <trkpt lat="40.667400" lon="-3.274903">
        <ele>813.380</ele>
        <time>2019-04-21T09:54:38Z</time>
      </trkpt>
      <trkpt lat="40.667382" lon="-3.274828">
        <ele>812.915</ele>
        <time>2019-04-21T09:54:39Z</time>
      </trkpt>
      <trkpt lat="40.667364" lon="-3.274762">
        <ele>812.547</ele>
        <time>2019-04-21T09:54:40Z</time>
      </trkpt>
      <trkpt lat="40.667356" lon="-3.274698">
        <ele>812.119</ele>
        <time>2019-04-21T09:54:41Z</time>
      </trkpt>
      <trkpt lat="40.667352" lon="-3.274635">
        <ele>811.713</ele>
        <time>2019-04-21T09:54:42Z</time>
      </trkpt>
      <trkpt lat="40.667330" lon="-3.274524">
        <ele>811.034</ele>
        <time>2019-04-21T09:54:44Z</time>
      </trkpt>
      <trkpt lat="40.667410" lon="-3.274449">
        <ele>810.814</ele>
        <time>2019-04-21T09:54:46Z</time>
      </trkpt>
      <trkpt lat="40.667469" lon="-3.274424">
        <ele>810.754</ele>
        <time>2019-04-21T09:54:47Z</time>
      </trkpt>
      <trkpt lat="40.667524" lon="-3.274382">
        <ele>810.609</ele>
        <time>2019-04-21T09:54:48Z</time>
      </trkpt>
      <trkpt lat="40.667579" lon="-3.274346">
        <ele>810.508</ele>
        <time>2019-04-21T09:54:49Z</time>
      </trkpt>
      <trkpt lat="40.667636" lon="-3.274320">
        <ele>810.524</ele>
        <time>2019-04-21T09:54:50Z</time>
      </trkpt>
      <trkpt lat="40.667697" lon="-3.274294">
        <ele>810.556</ele>
        <time>2019-04-21T09:54:51Z</time>
      </trkpt>
      <trkpt lat="40.667762" lon="-3.274264">
        <ele>810.636</ele>
        <time>2019-04-21T09:54:52Z</time>
      </trkpt>
      <trkpt lat="40.667831" lon="-3.274231">
        <ele>810.751</ele>
        <time>2019-04-21T09:54:53Z</time>
      </trkpt>
      <trkpt lat="40.667903" lon="-3.274190">
        <ele>810.973</ele>
        <time>2019-04-21T09:54:54Z</time>
      </trkpt>
      <trkpt lat="40.667978" lon="-3.274155">
        <ele>811.025</ele>
        <time>2019-04-21T09:54:55Z</time>
      </trkpt>
      <trkpt lat="40.668044" lon="-3.274110">
        <ele>811.149</ele>
        <time>2019-04-21T09:54:56Z</time>
      </trkpt>
      <trkpt lat="40.668097" lon="-3.274047">
        <ele>811.240</ele>
        <time>2019-04-21T09:54:57Z</time>
      </trkpt>
      <trkpt lat="40.668160" lon="-3.273993">
        <ele>811.345</ele>
        <time>2019-04-21T09:54:58Z</time>
      </trkpt>
      <trkpt lat="40.668239" lon="-3.273962">
        <ele>811.447</ele>
        <time>2019-04-21T09:54:59Z</time>
      </trkpt>
      <trkpt lat="40.668324" lon="-3.273922">
        <ele>811.811</ele>
        <time>2019-04-21T09:55:00Z</time>
      </trkpt>
      <trkpt lat="40.668389" lon="-3.273884">
        <ele>811.808</ele>
        <time>2019-04-21T09:55:01Z</time>
      </trkpt>
      <trkpt lat="40.668441" lon="-3.273828">
        <ele>811.887</ele>
        <time>2019-04-21T09:55:02Z</time>
      </trkpt>
      <trkpt lat="40.668502" lon="-3.273750">
        <ele>811.789</ele>
        <time>2019-04-21T09:55:03Z</time>
      </trkpt>
      <trkpt lat="40.668559" lon="-3.273678">
        <ele>811.799</ele>
        <time>2019-04-21T09:55:04Z</time>
      </trkpt>
      <trkpt lat="40.668612" lon="-3.273617">
        <ele>811.724</ele>
        <time>2019-04-21T09:55:05Z</time>
      </trkpt>
      <trkpt lat="40.668664" lon="-3.273542">
        <ele>811.726</ele>
        <time>2019-04-21T09:55:06Z</time>
      </trkpt>
      <trkpt lat="40.668721" lon="-3.273457">
        <ele>811.728</ele>
        <time>2019-04-21T09:55:07Z</time>
      </trkpt>
      <trkpt lat="40.668779" lon="-3.273377">
        <ele>811.752</ele>
        <time>2019-04-21T09:55:08Z</time>
      </trkpt>
      <trkpt lat="40.668842" lon="-3.273302">
        <ele>811.553</ele>
        <time>2019-04-21T09:55:09Z</time>
      </trkpt>
      <trkpt lat="40.668904" lon="-3.273242">
        <ele>811.526</ele>
        <time>2019-04-21T09:55:10Z</time>
      </trkpt>
      <trkpt lat="40.668975" lon="-3.273185">
        <ele>811.447</ele>
        <time>2019-04-21T09:55:11Z</time>
      </trkpt>
      <trkpt lat="40.669036" lon="-3.273132">
        <ele>811.111</ele>
        <time>2019-04-21T09:55:12Z</time>
      </trkpt>
      <trkpt lat="40.669096" lon="-3.273069">
        <ele>811.008</ele>
        <time>2019-04-21T09:55:13Z</time>
      </trkpt>
      <trkpt lat="40.669146" lon="-3.273022">
        <ele>811.015</ele>
        <time>2019-04-21T09:55:14Z</time>
      </trkpt>
      <trkpt lat="40.669199" lon="-3.272982">
        <ele>810.817</ele>
        <time>2019-04-21T09:55:15Z</time>
      </trkpt>
      <trkpt lat="40.669256" lon="-3.272944">
        <ele>810.817</ele>
        <time>2019-04-21T09:55:16Z</time>
      </trkpt>
      <trkpt lat="40.669311" lon="-3.272912">
        <ele>810.812</ele>
        <time>2019-04-21T09:55:17Z</time>
      </trkpt>
      <trkpt lat="40.669365" lon="-3.272886">
        <ele>810.744</ele>
        <time>2019-04-21T09:55:18Z</time>
      </trkpt>
      <trkpt lat="40.669417" lon="-3.272864">
        <ele>810.626</ele>
        <time>2019-04-21T09:55:19Z</time>
      </trkpt>
      <trkpt lat="40.669466" lon="-3.272847">
        <ele>810.570</ele>
        <time>2019-04-21T09:55:20Z</time>
      </trkpt>
      <trkpt lat="40.669516" lon="-3.272832">
        <ele>810.441</ele>
        <time>2019-04-21T09:55:21Z</time>
      </trkpt>
      <trkpt lat="40.669560" lon="-3.272815">
        <ele>810.339</ele>
        <time>2019-04-21T09:55:22Z</time>
      </trkpt>
      <trkpt lat="40.669640" lon="-3.272805">
        <ele>810.301</ele>
        <time>2019-04-21T09:55:24Z</time>
      </trkpt>
      <trkpt lat="40.669713" lon="-3.272790">
        <ele>810.421</ele>
        <time>2019-04-21T09:55:26Z</time>
      </trkpt>
      <trkpt lat="40.669786" lon="-3.272749">
        <ele>810.508</ele>
        <time>2019-04-21T09:55:28Z</time>
      </trkpt>
      <trkpt lat="40.669846" lon="-3.272717">
        <ele>810.596</ele>
        <time>2019-04-21T09:55:29Z</time>
      </trkpt>
      <trkpt lat="40.669916" lon="-3.272690">
        <ele>810.598</ele>
        <time>2019-04-21T09:55:30Z</time>
      </trkpt>
      <trkpt lat="40.669965" lon="-3.272668">
        <ele>810.718</ele>
        <time>2019-04-21T09:55:31Z</time>
      </trkpt>
      <trkpt lat="40.670021" lon="-3.272635">
        <ele>810.823</ele>
        <time>2019-04-21T09:55:32Z</time>
      </trkpt>
      <trkpt lat="40.670079" lon="-3.272592">
        <ele>810.995</ele>
        <time>2019-04-21T09:55:33Z</time>
      </trkpt>
      <trkpt lat="40.670151" lon="-3.272515">
        <ele>811.047</ele>
        <time>2019-04-21T09:55:34Z</time>
      </trkpt>
      <trkpt lat="40.670203" lon="-3.272470">
        <ele>811.191</ele>
        <time>2019-04-21T09:55:35Z</time>
      </trkpt>
      <trkpt lat="40.670246" lon="-3.272392">
        <ele>811.232</ele>
        <time>2019-04-21T09:55:36Z</time>
      </trkpt>
      <trkpt lat="40.670275" lon="-3.272324">
        <ele>811.352</ele>
        <time>2019-04-21T09:55:37Z</time>
      </trkpt>
      <trkpt lat="40.670291" lon="-3.272266">
        <ele>811.353</ele>
        <time>2019-04-21T09:55:38Z</time>
      </trkpt>
      <trkpt lat="40.670315" lon="-3.272178">
        <ele>811.308</ele>
        <time>2019-04-21T09:55:39Z</time>
      </trkpt>
      <trkpt lat="40.670334" lon="-3.272094">
        <ele>811.208</ele>
        <time>2019-04-21T09:55:40Z</time>
      </trkpt>
      <trkpt lat="40.670334" lon="-3.272016">
        <ele>811.188</ele>
        <time>2019-04-21T09:55:41Z</time>
      </trkpt>
      <trkpt lat="40.670314" lon="-3.271952">
        <ele>811.040</ele>
        <time>2019-04-21T09:55:42Z</time>
      </trkpt>
      <trkpt lat="40.670288" lon="-3.271871">
        <ele>810.870</ele>
        <time>2019-04-21T09:55:43Z</time>
      </trkpt>
      <trkpt lat="40.670264" lon="-3.271802">
        <ele>810.695</ele>
        <time>2019-04-21T09:55:44Z</time>
      </trkpt>
      <trkpt lat="40.670241" lon="-3.271744">
        <ele>810.447</ele>
        <time>2019-04-21T09:55:45Z</time>
      </trkpt>
      <trkpt lat="40.670222" lon="-3.271682">
        <ele>810.229</ele>
        <time>2019-04-21T09:55:46Z</time>
      </trkpt>
      <trkpt lat="40.670206" lon="-3.271601">
        <ele>810.223</ele>
        <time>2019-04-21T09:55:48Z</time>
      </trkpt>
      <trkpt lat="40.670202" lon="-3.271536">
        <ele>810.454</ele>
        <time>2019-04-21T09:55:50Z</time>
      </trkpt>
      <trkpt lat="40.670196" lon="-3.271462">
        <ele>810.478</ele>
        <time>2019-04-21T09:55:52Z</time>
      </trkpt>
      <trkpt lat="40.670159" lon="-3.271413">
        <ele>809.733</ele>
        <time>2019-04-21T09:55:58Z</time>
      </trkpt>
      <trkpt lat="40.670112" lon="-3.271386">
        <ele>809.526</ele>
        <time>2019-04-21T09:56:01Z</time>
      </trkpt>
      <trkpt lat="40.670063" lon="-3.271373">
        <ele>809.508</ele>
        <time>2019-04-21T09:56:03Z</time>
      </trkpt>
      <trkpt lat="40.670040" lon="-3.271319">
        <ele>809.770</ele>
        <time>2019-04-21T09:56:06Z</time>
      </trkpt>
      <trkpt lat="40.670078" lon="-3.271279">
        <ele>809.812</ele>
        <time>2019-04-21T09:56:07Z</time>
      </trkpt>
      <trkpt lat="40.670102" lon="-3.271227">
        <ele>809.992</ele>
        <time>2019-04-21T09:56:12Z</time>
      </trkpt>
      <trkpt lat="40.670123" lon="-3.271299">
        <ele>810.167</ele>
        <time>2019-04-21T09:56:19Z</time>
      </trkpt>
      <trkpt lat="40.670195" lon="-3.271321">
        <ele>810.089</ele>
        <time>2019-04-21T09:56:24Z</time>
      </trkpt>
      <trkpt lat="40.670246" lon="-3.271337">
        <ele>810.191</ele>
        <time>2019-04-21T09:56:25Z</time>
      </trkpt>
      <trkpt lat="40.670313" lon="-3.271374">
        <ele>810.215</ele>
        <time>2019-04-21T09:56:27Z</time>
      </trkpt>
      <trkpt lat="40.670368" lon="-3.271394">
        <ele>810.276</ele>
        <time>2019-04-21T09:56:29Z</time>
      </trkpt>
      <trkpt lat="40.670421" lon="-3.271398">
        <ele>810.476</ele>
        <time>2019-04-21T09:56:32Z</time>
      </trkpt>
      <trkpt lat="40.670490" lon="-3.271426">
        <ele>810.490</ele>
        <time>2019-04-21T09:56:40Z</time>
      </trkpt>
      <trkpt lat="40.670551" lon="-3.271437">
        <ele>810.519</ele>
        <time>2019-04-21T09:56:42Z</time>
      </trkpt>
      <trkpt lat="40.670625" lon="-3.271456">
        <ele>810.608</ele>
        <time>2019-04-21T09:56:44Z</time>
      </trkpt>
      <trkpt lat="40.670688" lon="-3.271487">
        <ele>810.660</ele>
        <time>2019-04-21T09:56:46Z</time>
      </trkpt>
      <trkpt lat="40.670746" lon="-3.271501">
        <ele>810.672</ele>
        <time>2019-04-21T09:56:48Z</time>
      </trkpt>
      <trkpt lat="40.670809" lon="-3.271538">
        <ele>810.722</ele>
        <time>2019-04-21T09:56:50Z</time>
      </trkpt>
      <trkpt lat="40.670875" lon="-3.271563">
        <ele>810.937</ele>
        <time>2019-04-21T09:56:52Z</time>
      </trkpt>
      <trkpt lat="40.670944" lon="-3.271585">
        <ele>811.189</ele>
        <time>2019-04-21T09:56:54Z</time>
      </trkpt>
      <trkpt lat="40.670992" lon="-3.271619">
        <ele>811.141</ele>
        <time>2019-04-21T09:56:56Z</time>
      </trkpt>
      <trkpt lat="40.671039" lon="-3.271653">
        <ele>811.295</ele>
        <time>2019-04-21T09:56:58Z</time>
      </trkpt>
      <trkpt lat="40.671104" lon="-3.271676">
        <ele>811.336</ele>
        <time>2019-04-21T09:57:00Z</time>
      </trkpt>
      <trkpt lat="40.671178" lon="-3.271690">
        <ele>811.569</ele>
        <time>2019-04-21T09:57:02Z</time>
      </trkpt>
      <trkpt lat="40.671217" lon="-3.271725">
        <ele>811.604</ele>
        <time>2019-04-21T09:57:03Z</time>
      </trkpt>
      <trkpt lat="40.671282" lon="-3.271778">
        <ele>811.724</ele>
        <time>2019-04-21T09:57:05Z</time>
      </trkpt>
      <trkpt lat="40.671318" lon="-3.271818">
        <ele>811.708</ele>
        <time>2019-04-21T09:57:07Z</time>
      </trkpt>
      <trkpt lat="40.671284" lon="-3.271758">
        <ele>811.739</ele>
        <time>2019-04-21T09:57:15Z</time>
      </trkpt>
      <trkpt lat="40.671299" lon="-3.271819">
        <ele>811.881</ele>
        <time>2019-04-21T09:57:30Z</time>
      </trkpt>
      <trkpt lat="40.671352" lon="-3.271867">
        <ele>811.981</ele>
        <time>2019-04-21T09:57:35Z</time>
      </trkpt>
      <trkpt lat="40.671423" lon="-3.271928">
        <ele>811.966</ele>
        <time>2019-04-21T09:57:37Z</time>
      </trkpt>
      <trkpt lat="40.671476" lon="-3.271967">
        <ele>811.998</ele>
        <time>2019-04-21T09:57:38Z</time>
      </trkpt>
      <trkpt lat="40.671526" lon="-3.271994">
        <ele>811.950</ele>
        <time>2019-04-21T09:57:39Z</time>
      </trkpt>
      <trkpt lat="40.671595" lon="-3.272042">
        <ele>811.934</ele>
        <time>2019-04-21T09:57:41Z</time>
      </trkpt>
      <trkpt lat="40.671660" lon="-3.272093">
        <ele>812.165</ele>
        <time>2019-04-21T09:57:43Z</time>
      </trkpt>
      <trkpt lat="40.671700" lon="-3.272125">
        <ele>812.194</ele>
        <time>2019-04-21T09:57:44Z</time>
      </trkpt>
      <trkpt lat="40.671738" lon="-3.272160">
        <ele>812.157</ele>
        <time>2019-04-21T09:57:45Z</time>
      </trkpt>
      <trkpt lat="40.671779" lon="-3.272191">
        <ele>812.122</ele>
        <time>2019-04-21T09:57:46Z</time>
      </trkpt>
      <trkpt lat="40.671819" lon="-3.272222">
        <ele>812.108</ele>
        <time>2019-04-21T09:57:47Z</time>
      </trkpt>
      <trkpt lat="40.671860" lon="-3.272252">
        <ele>812.352</ele>
        <time>2019-04-21T09:57:48Z</time>
      </trkpt>
      <trkpt lat="40.671900" lon="-3.272302">
        <ele>812.434</ele>
        <time>2019-04-21T09:57:49Z</time>
      </trkpt>
      <trkpt lat="40.671944" lon="-3.272361">
        <ele>812.414</ele>
        <time>2019-04-21T09:57:50Z</time>
      </trkpt>
      <trkpt lat="40.672023" lon="-3.272404">
        <ele>812.629</ele>
        <time>2019-04-21T09:57:51Z</time>
      </trkpt>
      <trkpt lat="40.672096" lon="-3.272453">
        <ele>812.671</ele>
        <time>2019-04-21T09:57:52Z</time>
      </trkpt>
      <trkpt lat="40.672171" lon="-3.272500">
        <ele>812.843</ele>
        <time>2019-04-21T09:57:53Z</time>
      </trkpt>
      <trkpt lat="40.672233" lon="-3.272539">
        <ele>812.917</ele>
        <time>2019-04-21T09:57:54Z</time>
      </trkpt>
      <trkpt lat="40.672296" lon="-3.272581">
        <ele>813.218</ele>
        <time>2019-04-21T09:57:55Z</time>
      </trkpt>
      <trkpt lat="40.672360" lon="-3.272626">
        <ele>813.298</ele>
        <time>2019-04-21T09:57:56Z</time>
      </trkpt>
      <trkpt lat="40.672420" lon="-3.272672">
        <ele>813.415</ele>
        <time>2019-04-21T09:57:57Z</time>
      </trkpt>
      <trkpt lat="40.672469" lon="-3.272705">
        <ele>813.426</ele>
        <time>2019-04-21T09:57:58Z</time>
      </trkpt>
      <trkpt lat="40.672523" lon="-3.272743">
        <ele>813.408</ele>
        <time>2019-04-21T09:57:59Z</time>
      </trkpt>
      <trkpt lat="40.672577" lon="-3.272784">
        <ele>813.552</ele>
        <time>2019-04-21T09:58:00Z</time>
      </trkpt>
      <trkpt lat="40.672642" lon="-3.272828">
        <ele>813.694</ele>
        <time>2019-04-21T09:58:01Z</time>
      </trkpt>
      <trkpt lat="40.672711" lon="-3.272867">
        <ele>813.754</ele>
        <time>2019-04-21T09:58:02Z</time>
      </trkpt>
      <trkpt lat="40.672777" lon="-3.272901">
        <ele>814.059</ele>
        <time>2019-04-21T09:58:03Z</time>
      </trkpt>
      <trkpt lat="40.672839" lon="-3.272939">
        <ele>814.121</ele>
        <time>2019-04-21T09:58:04Z</time>
      </trkpt>
      <trkpt lat="40.672900" lon="-3.272975">
        <ele>814.273</ele>
        <time>2019-04-21T09:58:05Z</time>
      </trkpt>
      <trkpt lat="40.672958" lon="-3.273013">
        <ele>814.217</ele>
        <time>2019-04-21T09:58:06Z</time>
      </trkpt>
      <trkpt lat="40.673015" lon="-3.273048">
        <ele>814.268</ele>
        <time>2019-04-21T09:58:07Z</time>
      </trkpt>
      <trkpt lat="40.673076" lon="-3.273071">
        <ele>814.225</ele>
        <time>2019-04-21T09:58:08Z</time>
      </trkpt>
      <trkpt lat="40.673134" lon="-3.273106">
        <ele>814.326</ele>
        <time>2019-04-21T09:58:09Z</time>
      </trkpt>
      <trkpt lat="40.673191" lon="-3.273144">
        <ele>814.408</ele>
        <time>2019-04-21T09:58:10Z</time>
      </trkpt>
      <trkpt lat="40.673252" lon="-3.273181">
        <ele>814.508</ele>
        <time>2019-04-21T09:58:11Z</time>
      </trkpt>
      <trkpt lat="40.673308" lon="-3.273232">
        <ele>814.695</ele>
        <time>2019-04-21T09:58:12Z</time>
      </trkpt>
      <trkpt lat="40.673365" lon="-3.273284">
        <ele>814.617</ele>
        <time>2019-04-21T09:58:13Z</time>
      </trkpt>
      <trkpt lat="40.673428" lon="-3.273334">
        <ele>814.657</ele>
        <time>2019-04-21T09:58:14Z</time>
      </trkpt>
      <trkpt lat="40.673490" lon="-3.273380">
        <ele>815.192</ele>
        <time>2019-04-21T09:58:15Z</time>
      </trkpt>
      <trkpt lat="40.673557" lon="-3.273425">
        <ele>815.354</ele>
        <time>2019-04-21T09:58:16Z</time>
      </trkpt>
      <trkpt lat="40.673625" lon="-3.273469">
        <ele>815.556</ele>
        <time>2019-04-21T09:58:17Z</time>
      </trkpt>
      <trkpt lat="40.673692" lon="-3.273517">
        <ele>815.860</ele>
        <time>2019-04-21T09:58:18Z</time>
      </trkpt>
      <trkpt lat="40.673761" lon="-3.273565">
        <ele>815.941</ele>
        <time>2019-04-21T09:58:19Z</time>
      </trkpt>
      <trkpt lat="40.673827" lon="-3.273618">
        <ele>815.944</ele>
        <time>2019-04-21T09:58:20Z</time>
      </trkpt>
      <trkpt lat="40.673890" lon="-3.273676">
        <ele>816.005</ele>
        <time>2019-04-21T09:58:21Z</time>
      </trkpt>
      <trkpt lat="40.673953" lon="-3.273733">
        <ele>816.115</ele>
        <time>2019-04-21T09:58:22Z</time>
      </trkpt>
      <trkpt lat="40.674016" lon="-3.273791">
        <ele>816.208</ele>
        <time>2019-04-21T09:58:23Z</time>
      </trkpt>
      <trkpt lat="40.674080" lon="-3.273845">
        <ele>816.447</ele>
        <time>2019-04-21T09:58:24Z</time>
      </trkpt>
      <trkpt lat="40.674145" lon="-3.273900">
        <ele>816.649</ele>
        <time>2019-04-21T09:58:25Z</time>
      </trkpt>
      <trkpt lat="40.674215" lon="-3.273952">
        <ele>816.819</ele>
        <time>2019-04-21T09:58:26Z</time>
      </trkpt>
      <trkpt lat="40.674280" lon="-3.274014">
        <ele>817.184</ele>
        <time>2019-04-21T09:58:27Z</time>
      </trkpt>
      <trkpt lat="40.674346" lon="-3.274072">
        <ele>817.496</ele>
        <time>2019-04-21T09:58:28Z</time>
      </trkpt>
      <trkpt lat="40.674411" lon="-3.274126">
        <ele>817.628</ele>
        <time>2019-04-21T09:58:29Z</time>
      </trkpt>
      <trkpt lat="40.674477" lon="-3.274175">
        <ele>817.812</ele>
        <time>2019-04-21T09:58:30Z</time>
      </trkpt>
      <trkpt lat="40.674540" lon="-3.274226">
        <ele>818.073</ele>
        <time>2019-04-21T09:58:31Z</time>
      </trkpt>
      <trkpt lat="40.674602" lon="-3.274275">
        <ele>818.114</ele>
        <time>2019-04-21T09:58:32Z</time>
      </trkpt>
      <trkpt lat="40.674663" lon="-3.274322">
        <ele>818.354</ele>
        <time>2019-04-21T09:58:33Z</time>
      </trkpt>
      <trkpt lat="40.674721" lon="-3.274373">
        <ele>818.709</ele>
        <time>2019-04-21T09:58:34Z</time>
      </trkpt>
      <trkpt lat="40.674780" lon="-3.274424">
        <ele>818.908</ele>
        <time>2019-04-21T09:58:35Z</time>
      </trkpt>
      <trkpt lat="40.674835" lon="-3.274482">
        <ele>819.174</ele>
        <time>2019-04-21T09:58:36Z</time>
      </trkpt>
      <trkpt lat="40.674890" lon="-3.274541">
        <ele>819.286</ele>
        <time>2019-04-21T09:58:37Z</time>
      </trkpt>
      <trkpt lat="40.674946" lon="-3.274605">
        <ele>819.276</ele>
        <time>2019-04-21T09:58:38Z</time>
      </trkpt>
      <trkpt lat="40.675003" lon="-3.274672">
        <ele>819.381</ele>
        <time>2019-04-21T09:58:39Z</time>
      </trkpt>
      <trkpt lat="40.675063" lon="-3.274741">
        <ele>819.483</ele>
        <time>2019-04-21T09:58:40Z</time>
      </trkpt>
      <trkpt lat="40.675126" lon="-3.274812">
        <ele>819.575</ele>
        <time>2019-04-21T09:58:41Z</time>
      </trkpt>
      <trkpt lat="40.675188" lon="-3.274883">
        <ele>819.789</ele>
        <time>2019-04-21T09:58:42Z</time>
      </trkpt>
      <trkpt lat="40.675247" lon="-3.274955">
        <ele>819.970</ele>
        <time>2019-04-21T09:58:43Z</time>
      </trkpt>
      <trkpt lat="40.675305" lon="-3.275030">
        <ele>820.182</ele>
        <time>2019-04-21T09:58:44Z</time>
      </trkpt>
      <trkpt lat="40.675362" lon="-3.275106">
        <ele>820.343</ele>
        <time>2019-04-21T09:58:45Z</time>
      </trkpt>
      <trkpt lat="40.675420" lon="-3.275180">
        <ele>820.517</ele>
        <time>2019-04-21T09:58:46Z</time>
      </trkpt>
      <trkpt lat="40.675474" lon="-3.275257">
        <ele>820.708</ele>
        <time>2019-04-21T09:58:47Z</time>
      </trkpt>
      <trkpt lat="40.675527" lon="-3.275335">
        <ele>820.941</ele>
        <time>2019-04-21T09:58:48Z</time>
      </trkpt>
      <trkpt lat="40.675578" lon="-3.275414">
        <ele>821.313</ele>
        <time>2019-04-21T09:58:49Z</time>
      </trkpt>
      <trkpt lat="40.675625" lon="-3.275498">
        <ele>821.513</ele>
        <time>2019-04-21T09:58:50Z</time>
      </trkpt>
      <trkpt lat="40.675675" lon="-3.275582">
        <ele>821.778</ele>
        <time>2019-04-21T09:58:51Z</time>
      </trkpt>
      <trkpt lat="40.675725" lon="-3.275665">
        <ele>821.960</ele>
        <time>2019-04-21T09:58:52Z</time>
      </trkpt>
      <trkpt lat="40.675777" lon="-3.275742">
        <ele>822.172</ele>
        <time>2019-04-21T09:58:53Z</time>
      </trkpt>
      <trkpt lat="40.675831" lon="-3.275821">
        <ele>822.216</ele>
        <time>2019-04-21T09:58:54Z</time>
      </trkpt>
      <trkpt lat="40.675883" lon="-3.275897">
        <ele>822.397</ele>
        <time>2019-04-21T09:58:55Z</time>
      </trkpt>
      <trkpt lat="40.675939" lon="-3.275965">
        <ele>822.463</ele>
        <time>2019-04-21T09:58:56Z</time>
      </trkpt>
      <trkpt lat="40.675987" lon="-3.276026">
        <ele>822.444</ele>
        <time>2019-04-21T09:58:57Z</time>
      </trkpt>
      <trkpt lat="40.676027" lon="-3.276086">
        <ele>822.418</ele>
        <time>2019-04-21T09:58:58Z</time>
      </trkpt>
      <trkpt lat="40.676063" lon="-3.276137">
        <ele>822.408</ele>
        <time>2019-04-21T09:58:59Z</time>
      </trkpt>
      <trkpt lat="40.676110" lon="-3.276210">
        <ele>822.499</ele>
        <time>2019-04-21T09:59:01Z</time>
      </trkpt>
      <trkpt lat="40.676172" lon="-3.276305">
        <ele>822.551</ele>
        <time>2019-04-21T09:59:03Z</time>
      </trkpt>
      <trkpt lat="40.676205" lon="-3.276355">
        <ele>822.691</ele>
        <time>2019-04-21T09:59:04Z</time>
      </trkpt>
      <trkpt lat="40.676236" lon="-3.276407">
        <ele>822.646</ele>
        <time>2019-04-21T09:59:05Z</time>
      </trkpt>
      <trkpt lat="40.676270" lon="-3.276454">
        <ele>822.668</ele>
        <time>2019-04-21T09:59:06Z</time>
      </trkpt>
      <trkpt lat="40.676305" lon="-3.276508">
        <ele>822.730</ele>
        <time>2019-04-21T09:59:07Z</time>
      </trkpt>
      <trkpt lat="40.676341" lon="-3.276564">
        <ele>822.824</ele>
        <time>2019-04-21T09:59:08Z</time>
      </trkpt>
      <trkpt lat="40.676375" lon="-3.276616">
        <ele>822.945</ele>
        <time>2019-04-21T09:59:09Z</time>
      </trkpt>
      <trkpt lat="40.676403" lon="-3.276664">
        <ele>823.026</ele>
        <time>2019-04-21T09:59:10Z</time>
      </trkpt>
      <trkpt lat="40.676434" lon="-3.276712">
        <ele>823.147</ele>
        <time>2019-04-21T09:59:11Z</time>
      </trkpt>
      <trkpt lat="40.676458" lon="-3.276779">
        <ele>823.111</ele>
        <time>2019-04-21T09:59:12Z</time>
      </trkpt>
      <trkpt lat="40.676487" lon="-3.276831">
        <ele>823.108</ele>
        <time>2019-04-21T09:59:13Z</time>
      </trkpt>
      <trkpt lat="40.676512" lon="-3.276889">
        <ele>823.145</ele>
        <time>2019-04-21T09:59:14Z</time>
      </trkpt>
      <trkpt lat="40.676552" lon="-3.276968">
        <ele>823.127</ele>
        <time>2019-04-21T09:59:16Z</time>
      </trkpt>
      <trkpt lat="40.676615" lon="-3.276955">
        <ele>823.467</ele>
        <time>2019-04-21T09:59:18Z</time>
      </trkpt>
      <trkpt lat="40.676653" lon="-3.276912">
        <ele>823.752</ele>
        <time>2019-04-21T09:59:19Z</time>
      </trkpt>
      <trkpt lat="40.676696" lon="-3.276861">
        <ele>824.394</ele>
        <time>2019-04-21T09:59:20Z</time>
      </trkpt>
      <trkpt lat="40.676757" lon="-3.276818">
        <ele>824.536</ele>
        <time>2019-04-21T09:59:21Z</time>
      </trkpt>
      <trkpt lat="40.676808" lon="-3.276771">
        <ele>824.620</ele>
        <time>2019-04-21T09:59:22Z</time>
      </trkpt>
      <trkpt lat="40.676856" lon="-3.276728">
        <ele>824.711</ele>
        <time>2019-04-21T09:59:23Z</time>
      </trkpt>
      <trkpt lat="40.676898" lon="-3.276680">
        <ele>824.794</ele>
        <time>2019-04-21T09:59:24Z</time>
      </trkpt>
      <trkpt lat="40.676948" lon="-3.276639">
        <ele>824.757</ele>
        <time>2019-04-21T09:59:25Z</time>
      </trkpt>
      <trkpt lat="40.676999" lon="-3.276599">
        <ele>824.722</ele>
        <time>2019-04-21T09:59:26Z</time>
      </trkpt>
      <trkpt lat="40.677045" lon="-3.276558">
        <ele>824.708</ele>
        <time>2019-04-21T09:59:27Z</time>
      </trkpt>
      <trkpt lat="40.677100" lon="-3.276505">
        <ele>824.672</ele>
        <time>2019-04-21T09:59:28Z</time>
      </trkpt>
      <trkpt lat="40.677138" lon="-3.276453">
        <ele>824.564</ele>
        <time>2019-04-21T09:59:29Z</time>
      </trkpt>
      <trkpt lat="40.677189" lon="-3.276411">
        <ele>824.454</ele>
        <time>2019-04-21T09:59:30Z</time>
      </trkpt>
      <trkpt lat="40.677245" lon="-3.276367">
        <ele>824.169</ele>
        <time>2019-04-21T09:59:31Z</time>
      </trkpt>
      <trkpt lat="40.677300" lon="-3.276317">
        <ele>823.981</ele>
        <time>2019-04-21T09:59:32Z</time>
      </trkpt>
      <trkpt lat="40.677357" lon="-3.276261">
        <ele>823.673</ele>
        <time>2019-04-21T09:59:33Z</time>
      </trkpt>
      <trkpt lat="40.677400" lon="-3.276219">
        <ele>823.497</ele>
        <time>2019-04-21T09:59:34Z</time>
      </trkpt>
      <trkpt lat="40.677440" lon="-3.276188">
        <ele>823.168</ele>
        <time>2019-04-21T09:59:35Z</time>
      </trkpt>
      <trkpt lat="40.677504" lon="-3.276151">
        <ele>822.858</ele>
        <time>2019-04-21T09:59:36Z</time>
      </trkpt>
      <trkpt lat="40.677580" lon="-3.276113">
        <ele>822.552</ele>
        <time>2019-04-21T09:59:38Z</time>
      </trkpt>
      <trkpt lat="40.677642" lon="-3.276099">
        <ele>822.417</ele>
        <time>2019-04-21T09:59:40Z</time>
      </trkpt>
      <trkpt lat="40.677691" lon="-3.276092">
        <ele>822.108</ele>
        <time>2019-04-21T09:59:42Z</time>
      </trkpt>
      <trkpt lat="40.677754" lon="-3.276047">
        <ele>822.158</ele>
        <time>2019-04-21T09:59:44Z</time>
      </trkpt>
      <trkpt lat="40.677806" lon="-3.276006">
        <ele>822.340</ele>
        <time>2019-04-21T09:59:46Z</time>
      </trkpt>
      <trkpt lat="40.677867" lon="-3.275925">
        <ele>822.240</ele>
        <time>2019-04-21T09:59:48Z</time>
      </trkpt>
      <trkpt lat="40.677919" lon="-3.275859">
        <ele>821.945</ele>
        <time>2019-04-21T09:59:50Z</time>
      </trkpt>
      <trkpt lat="40.677995" lon="-3.275788">
        <ele>821.427</ele>
        <time>2019-04-21T09:59:52Z</time>
      </trkpt>
      <trkpt lat="40.678082" lon="-3.275722">
        <ele>821.259</ele>
        <time>2019-04-21T09:59:54Z</time>
      </trkpt>
      <trkpt lat="40.678153" lon="-3.275652">
        <ele>821.173</ele>
        <time>2019-04-21T09:59:56Z</time>
      </trkpt>
      <trkpt lat="40.678231" lon="-3.275604">
        <ele>820.934</ele>
        <time>2019-04-21T09:59:58Z</time>
      </trkpt>
      <trkpt lat="40.678315" lon="-3.275531">
        <ele>820.736</ele>
        <time>2019-04-21T10:00:00Z</time>
      </trkpt>
      <trkpt lat="40.678352" lon="-3.275480">
        <ele>820.517</ele>
        <time>2019-04-21T10:00:02Z</time>
      </trkpt>
      <trkpt lat="40.678390" lon="-3.275372">
        <ele>820.518</ele>
        <time>2019-04-21T10:00:04Z</time>
      </trkpt>
      <trkpt lat="40.678419" lon="-3.275262">
        <ele>820.508</ele>
        <time>2019-04-21T10:00:06Z</time>
      </trkpt>
      <trkpt lat="40.678443" lon="-3.275162">
        <ele>820.836</ele>
        <time>2019-04-21T10:00:08Z</time>
      </trkpt>
      <trkpt lat="40.678459" lon="-3.275071">
        <ele>821.088</ele>
        <time>2019-04-21T10:00:10Z</time>
      </trkpt>
      <trkpt lat="40.678474" lon="-3.275010">
        <ele>821.188</ele>
        <time>2019-04-21T10:00:11Z</time>
      </trkpt>
      <trkpt lat="40.678500" lon="-3.274954">
        <ele>821.173</ele>
        <time>2019-04-21T10:00:12Z</time>
      </trkpt>
      <trkpt lat="40.678524" lon="-3.274883">
        <ele>821.135</ele>
        <time>2019-04-21T10:00:13Z</time>
      </trkpt>
      <trkpt lat="40.678557" lon="-3.274813">
        <ele>821.097</ele>
        <time>2019-04-21T10:00:14Z</time>
      </trkpt>
      <trkpt lat="40.678589" lon="-3.274742">
        <ele>820.961</ele>
        <time>2019-04-21T10:00:15Z</time>
      </trkpt>
      <trkpt lat="40.678616" lon="-3.274661">
        <ele>820.892</ele>
        <time>2019-04-21T10:00:16Z</time>
      </trkpt>
      <trkpt lat="40.678636" lon="-3.274599">
        <ele>820.741</ele>
        <time>2019-04-21T10:00:17Z</time>
      </trkpt>
      <trkpt lat="40.678671" lon="-3.274551">
        <ele>820.581</ele>
        <time>2019-04-21T10:00:18Z</time>
      </trkpt>
      <trkpt lat="40.678725" lon="-3.274456">
        <ele>820.109</ele>
        <time>2019-04-21T10:00:20Z</time>
      </trkpt>
      <trkpt lat="40.678768" lon="-3.274383">
        <ele>819.908</ele>
        <time>2019-04-21T10:00:22Z</time>
      </trkpt>
      <trkpt lat="40.678805" lon="-3.274320">
        <ele>820.087</ele>
        <time>2019-04-21T10:00:24Z</time>
      </trkpt>
      <trkpt lat="40.678817" lon="-3.274259">
        <ele>819.999</ele>
        <time>2019-04-21T10:00:26Z</time>
      </trkpt>
      <trkpt lat="40.678822" lon="-3.274181">
        <ele>819.719</ele>
        <time>2019-04-21T10:00:28Z</time>
      </trkpt>
      <trkpt lat="40.678847" lon="-3.274089">
        <ele>819.654</ele>
        <time>2019-04-21T10:00:30Z</time>
      </trkpt>
      <trkpt lat="40.678862" lon="-3.273983">
        <ele>819.546</ele>
        <time>2019-04-21T10:00:32Z</time>
      </trkpt>
      <trkpt lat="40.678864" lon="-3.273853">
        <ele>819.498</ele>
        <time>2019-04-21T10:00:34Z</time>
      </trkpt>
      <trkpt lat="40.678876" lon="-3.273785">
        <ele>819.422</ele>
        <time>2019-04-21T10:00:35Z</time>
      </trkpt>
      <trkpt lat="40.678878" lon="-3.273712">
        <ele>819.553</ele>
        <time>2019-04-21T10:00:36Z</time>
      </trkpt>
      <trkpt lat="40.678881" lon="-3.273642">
        <ele>819.567</ele>
        <time>2019-04-21T10:00:37Z</time>
      </trkpt>
      <trkpt lat="40.678884" lon="-3.273582">
        <ele>819.581</ele>
        <time>2019-04-21T10:00:38Z</time>
      </trkpt>
      <trkpt lat="40.678911" lon="-3.273466">
        <ele>819.419</ele>
        <time>2019-04-21T10:00:40Z</time>
      </trkpt>
      <trkpt lat="40.678961" lon="-3.273394">
        <ele>819.408</ele>
        <time>2019-04-21T10:00:42Z</time>
      </trkpt>
      <trkpt lat="40.679005" lon="-3.273365">
        <ele>819.449</ele>
        <time>2019-04-21T10:00:43Z</time>
      </trkpt>
      <trkpt lat="40.679076" lon="-3.273341">
        <ele>819.341</ele>
        <time>2019-04-21T10:00:45Z</time>
      </trkpt>
      <trkpt lat="40.679118" lon="-3.273312">
        <ele>819.391</ele>
        <time>2019-04-21T10:00:46Z</time>
      </trkpt>
      <trkpt lat="40.679195" lon="-3.273259">
        <ele>819.356</ele>
        <time>2019-04-21T10:00:48Z</time>
      </trkpt>
      <trkpt lat="40.679268" lon="-3.273215">
        <ele>819.488</ele>
        <time>2019-04-21T10:00:50Z</time>
      </trkpt>
      <trkpt lat="40.679340" lon="-3.273153">
        <ele>819.540</ele>
        <time>2019-04-21T10:00:52Z</time>
      </trkpt>
      <trkpt lat="40.679386" lon="-3.273074">
        <ele>819.624</ele>
        <time>2019-04-21T10:00:54Z</time>
      </trkpt>
      <trkpt lat="40.679443" lon="-3.272998">
        <ele>819.635</ele>
        <time>2019-04-21T10:00:56Z</time>
      </trkpt>
      <trkpt lat="40.679489" lon="-3.272962">
        <ele>819.627</ele>
        <time>2019-04-21T10:00:57Z</time>
      </trkpt>
      <trkpt lat="40.679538" lon="-3.272930">
        <ele>819.768</ele>
        <time>2019-04-21T10:00:58Z</time>
      </trkpt>
      <trkpt lat="40.679584" lon="-3.272911">
        <ele>819.814</ele>
        <time>2019-04-21T10:00:59Z</time>
      </trkpt>
      <trkpt lat="40.679672" lon="-3.272906">
        <ele>820.108</ele>
        <time>2019-04-21T10:01:01Z</time>
      </trkpt>
      <trkpt lat="40.679725" lon="-3.272908">
        <ele>820.375</ele>
        <time>2019-04-21T10:01:02Z</time>
      </trkpt>
      <trkpt lat="40.679776" lon="-3.272916">
        <ele>820.497</ele>
        <time>2019-04-21T10:01:03Z</time>
      </trkpt>
      <trkpt lat="40.679831" lon="-3.272922">
        <ele>820.537</ele>
        <time>2019-04-21T10:01:04Z</time>
      </trkpt>
      <trkpt lat="40.679890" lon="-3.272932">
        <ele>820.642</ele>
        <time>2019-04-21T10:01:05Z</time>
      </trkpt>
      <trkpt lat="40.679942" lon="-3.272946">
        <ele>820.664</ele>
        <time>2019-04-21T10:01:06Z</time>
      </trkpt>
      <trkpt lat="40.679995" lon="-3.272958">
        <ele>820.676</ele>
        <time>2019-04-21T10:01:07Z</time>
      </trkpt>
      <trkpt lat="40.680049" lon="-3.272970">
        <ele>820.720</ele>
        <time>2019-04-21T10:01:08Z</time>
      </trkpt>
      <trkpt lat="40.680097" lon="-3.272990">
        <ele>820.821</ele>
        <time>2019-04-21T10:01:09Z</time>
      </trkpt>
      <trkpt lat="40.680146" lon="-3.272998">
        <ele>821.084</ele>
        <time>2019-04-21T10:01:10Z</time>
      </trkpt>
      <trkpt lat="40.680243" lon="-3.273015">
        <ele>821.207</ele>
        <time>2019-04-21T10:01:12Z</time>
      </trkpt>
      <trkpt lat="40.680291" lon="-3.273029">
        <ele>821.217</ele>
        <time>2019-04-21T10:01:13Z</time>
      </trkpt>
      <trkpt lat="40.680338" lon="-3.273055">
        <ele>821.208</ele>
        <time>2019-04-21T10:01:14Z</time>
      </trkpt>
      <trkpt lat="40.680381" lon="-3.273077">
        <ele>821.231</ele>
        <time>2019-04-21T10:01:15Z</time>
      </trkpt>
      <trkpt lat="40.680456" lon="-3.273092">
        <ele>821.293</ele>
        <time>2019-04-21T10:01:17Z</time>
      </trkpt>
      <trkpt lat="40.680425" lon="-3.273026">
        <ele>821.153</ele>
        <time>2019-04-21T10:01:25Z</time>
      </trkpt>
      <trkpt lat="40.680471" lon="-3.273038">
        <ele>821.128</ele>
        <time>2019-04-21T10:01:30Z</time>
      </trkpt>
      <trkpt lat="40.680535" lon="-3.273053">
        <ele>820.960</ele>
        <time>2019-04-21T10:01:33Z</time>
      </trkpt>
      <trkpt lat="40.680593" lon="-3.273103">
        <ele>820.572</ele>
        <time>2019-04-21T10:01:36Z</time>
      </trkpt>
      <trkpt lat="40.680632" lon="-3.273134">
        <ele>820.486</ele>
        <time>2019-04-21T10:01:38Z</time>
      </trkpt>
      <trkpt lat="40.680669" lon="-3.273168">
        <ele>820.597</ele>
        <time>2019-04-21T10:01:40Z</time>
      </trkpt>
      <trkpt lat="40.680714" lon="-3.273216">
        <ele>820.578</ele>
        <time>2019-04-21T10:01:42Z</time>
      </trkpt>
      <trkpt lat="40.680759" lon="-3.273267">
        <ele>820.533</ele>
        <time>2019-04-21T10:01:44Z</time>
      </trkpt>
      <trkpt lat="40.680812" lon="-3.273324">
        <ele>820.526</ele>
        <time>2019-04-21T10:01:46Z</time>
      </trkpt>
      <trkpt lat="40.680861" lon="-3.273356">
        <ele>820.608</ele>
        <time>2019-04-21T10:01:48Z</time>
      </trkpt>
      <trkpt lat="40.680912" lon="-3.273400">
        <ele>821.210</ele>
        <time>2019-04-21T10:01:54Z</time>
      </trkpt>
      <trkpt lat="40.680970" lon="-3.273507">
        <ele>821.462</ele>
        <time>2019-04-21T10:01:56Z</time>
      </trkpt>
      <trkpt lat="40.681029" lon="-3.273555">
        <ele>821.552</ele>
        <time>2019-04-21T10:01:57Z</time>
      </trkpt>
      <trkpt lat="40.681087" lon="-3.273607">
        <ele>821.627</ele>
        <time>2019-04-21T10:01:58Z</time>
      </trkpt>
      <trkpt lat="40.681138" lon="-3.273639">
        <ele>821.669</ele>
        <time>2019-04-21T10:01:59Z</time>
      </trkpt>
      <trkpt lat="40.681182" lon="-3.273675">
        <ele>821.781</ele>
        <time>2019-04-21T10:02:00Z</time>
      </trkpt>
      <trkpt lat="40.681225" lon="-3.273711">
        <ele>821.825</ele>
        <time>2019-04-21T10:02:01Z</time>
      </trkpt>
      <trkpt lat="40.681279" lon="-3.273749">
        <ele>821.946</ele>
        <time>2019-04-21T10:02:02Z</time>
      </trkpt>
      <trkpt lat="40.681331" lon="-3.273798">
        <ele>822.022</ele>
        <time>2019-04-21T10:02:03Z</time>
      </trkpt>
      <trkpt lat="40.681376" lon="-3.273840">
        <ele>822.162</ele>
        <time>2019-04-21T10:02:04Z</time>
      </trkpt>
      <trkpt lat="40.681424" lon="-3.273898">
        <ele>822.208</ele>
        <time>2019-04-21T10:02:05Z</time>
      </trkpt>
      <trkpt lat="40.681467" lon="-3.273950">
        <ele>822.408</ele>
        <time>2019-04-21T10:02:06Z</time>
      </trkpt>
      <trkpt lat="40.681521" lon="-3.274019">
        <ele>822.895</ele>
        <time>2019-04-21T10:02:08Z</time>
      </trkpt>
      <trkpt lat="40.681590" lon="-3.274055">
        <ele>823.477</ele>
        <time>2019-04-21T10:02:10Z</time>
      </trkpt>
      <trkpt lat="40.681633" lon="-3.274030">
        <ele>823.577</ele>
        <time>2019-04-21T10:02:11Z</time>
      </trkpt>
      <trkpt lat="40.681718" lon="-3.274016">
        <ele>823.712</ele>
        <time>2019-04-21T10:02:13Z</time>
      </trkpt>
      <trkpt lat="40.681767" lon="-3.274011">
        <ele>823.864</ele>
        <time>2019-04-21T10:02:14Z</time>
      </trkpt>
      <trkpt lat="40.681819" lon="-3.274010">
        <ele>823.956</ele>
        <time>2019-04-21T10:02:15Z</time>
      </trkpt>
      <trkpt lat="40.681871" lon="-3.274011">
        <ele>823.990</ele>
        <time>2019-04-21T10:02:16Z</time>
      </trkpt>
      <trkpt lat="40.681923" lon="-3.274014">
        <ele>824.091</ele>
        <time>2019-04-21T10:02:17Z</time>
      </trkpt>
      <trkpt lat="40.681983" lon="-3.274018">
        <ele>824.121</ele>
        <time>2019-04-21T10:02:18Z</time>
      </trkpt>
      <trkpt lat="40.682045" lon="-3.274024">
        <ele>824.441</ele>
        <time>2019-04-21T10:02:19Z</time>
      </trkpt>
      <trkpt lat="40.682104" lon="-3.274032">
        <ele>824.505</ele>
        <time>2019-04-21T10:02:20Z</time>
      </trkpt>
      <trkpt lat="40.682166" lon="-3.274038">
        <ele>824.608</ele>
        <time>2019-04-21T10:02:21Z</time>
      </trkpt>
      <trkpt lat="40.682240" lon="-3.274043">
        <ele>824.825</ele>
        <time>2019-04-21T10:02:22Z</time>
      </trkpt>
      <trkpt lat="40.682306" lon="-3.274045">
        <ele>824.877</ele>
        <time>2019-04-21T10:02:23Z</time>
      </trkpt>
      <trkpt lat="40.682378" lon="-3.274048">
        <ele>824.617</ele>
        <time>2019-04-21T10:02:24Z</time>
      </trkpt>
      <trkpt lat="40.682456" lon="-3.274066">
        <ele>824.232</ele>
        <time>2019-04-21T10:02:25Z</time>
      </trkpt>
      <trkpt lat="40.682555" lon="-3.274072">
        <ele>823.644</ele>
        <time>2019-04-21T10:02:27Z</time>
      </trkpt>
      <trkpt lat="40.682611" lon="-3.274076">
        <ele>823.356</ele>
        <time>2019-04-21T10:02:28Z</time>
      </trkpt>
      <trkpt lat="40.682666" lon="-3.274087">
        <ele>823.060</ele>
        <time>2019-04-21T10:02:29Z</time>
      </trkpt>
      <trkpt lat="40.682730" lon="-3.274098">
        <ele>822.831</ele>
        <time>2019-04-21T10:02:30Z</time>
      </trkpt>
      <trkpt lat="40.682798" lon="-3.274100">
        <ele>822.674</ele>
        <time>2019-04-21T10:02:31Z</time>
      </trkpt>
      <trkpt lat="40.682858" lon="-3.274098">
        <ele>822.556</ele>
        <time>2019-04-21T10:02:32Z</time>
      </trkpt>
      <trkpt lat="40.682920" lon="-3.274091">
        <ele>822.421</ele>
        <time>2019-04-21T10:02:33Z</time>
      </trkpt>
      <trkpt lat="40.682989" lon="-3.274084">
        <ele>822.308</ele>
        <time>2019-04-21T10:02:34Z</time>
      </trkpt>
      <trkpt lat="40.683063" lon="-3.274091">
        <ele>822.320</ele>
        <time>2019-04-21T10:02:35Z</time>
      </trkpt>
      <trkpt lat="40.683133" lon="-3.274085">
        <ele>822.362</ele>
        <time>2019-04-21T10:02:36Z</time>
      </trkpt>
      <trkpt lat="40.683201" lon="-3.274074">
        <ele>822.372</ele>
        <time>2019-04-21T10:02:37Z</time>
      </trkpt>
      <trkpt lat="40.683262" lon="-3.274063">
        <ele>822.317</ele>
        <time>2019-04-21T10:02:38Z</time>
      </trkpt>
      <trkpt lat="40.683306" lon="-3.274045">
        <ele>822.319</ele>
        <time>2019-04-21T10:02:39Z</time>
      </trkpt>
      <trkpt lat="40.683351" lon="-3.274034">
        <ele>822.371</ele>
        <time>2019-04-21T10:02:40Z</time>
      </trkpt>
      <trkpt lat="40.683408" lon="-3.274034">
        <ele>822.455</ele>
        <time>2019-04-21T10:02:41Z</time>
      </trkpt>
      <trkpt lat="40.683484" lon="-3.274030">
        <ele>822.476</ele>
        <time>2019-04-21T10:02:42Z</time>
      </trkpt>
      <trkpt lat="40.683553" lon="-3.274024">
        <ele>822.453</ele>
        <time>2019-04-21T10:02:43Z</time>
      </trkpt>
      <trkpt lat="40.683629" lon="-3.274019">
        <ele>822.404</ele>
        <time>2019-04-21T10:02:44Z</time>
      </trkpt>
      <trkpt lat="40.683687" lon="-3.274022">
        <ele>822.414</ele>
        <time>2019-04-21T10:02:45Z</time>
      </trkpt>
      <trkpt lat="40.683756" lon="-3.274020">
        <ele>822.408</ele>
        <time>2019-04-21T10:02:46Z</time>
      </trkpt>
      <trkpt lat="40.683818" lon="-3.274015">
        <ele>822.468</ele>
        <time>2019-04-21T10:02:47Z</time>
      </trkpt>
      <trkpt lat="40.683880" lon="-3.274014">
        <ele>822.430</ele>
        <time>2019-04-21T10:02:48Z</time>
      </trkpt>
      <trkpt lat="40.683939" lon="-3.274013">
        <ele>822.430</ele>
        <time>2019-04-21T10:02:49Z</time>
      </trkpt>
      <trkpt lat="40.684001" lon="-3.274013">
        <ele>822.435</ele>
        <time>2019-04-21T10:02:50Z</time>
      </trkpt>
      <trkpt lat="40.684057" lon="-3.274016">
        <ele>822.467</ele>
        <time>2019-04-21T10:02:51Z</time>
      </trkpt>
      <trkpt lat="40.684119" lon="-3.274026">
        <ele>822.559</ele>
        <time>2019-04-21T10:02:52Z</time>
      </trkpt>
      <trkpt lat="40.684170" lon="-3.274043">
        <ele>822.673</ele>
        <time>2019-04-21T10:02:53Z</time>
      </trkpt>
      <trkpt lat="40.684221" lon="-3.274055">
        <ele>822.774</ele>
        <time>2019-04-21T10:02:54Z</time>
      </trkpt>
      <trkpt lat="40.684281" lon="-3.274073">
        <ele>822.772</ele>
        <time>2019-04-21T10:02:55Z</time>
      </trkpt>
      <trkpt lat="40.684357" lon="-3.274127">
        <ele>823.013</ele>
        <time>2019-04-21T10:02:57Z</time>
      </trkpt>
      <trkpt lat="40.684399" lon="-3.274165">
        <ele>823.114</ele>
        <time>2019-04-21T10:02:58Z</time>
      </trkpt>
      <trkpt lat="40.684474" lon="-3.274176">
        <ele>823.308</ele>
        <time>2019-04-21T10:03:00Z</time>
      </trkpt>
      <trkpt lat="40.684516" lon="-3.274144">
        <ele>823.550</ele>
        <time>2019-04-21T10:03:01Z</time>
      </trkpt>
      <trkpt lat="40.684567" lon="-3.274110">
        <ele>823.622</ele>
        <time>2019-04-21T10:03:02Z</time>
      </trkpt>
      <trkpt lat="40.684630" lon="-3.274074">
        <ele>823.632</ele>
        <time>2019-04-21T10:03:03Z</time>
      </trkpt>
      <trkpt lat="40.684692" lon="-3.274048">
        <ele>823.577</ele>
        <time>2019-04-21T10:03:04Z</time>
      </trkpt>
      <trkpt lat="40.684742" lon="-3.274029">
        <ele>823.479</ele>
        <time>2019-04-21T10:03:05Z</time>
      </trkpt>
      <trkpt lat="40.684795" lon="-3.274009">
        <ele>823.431</ele>
        <time>2019-04-21T10:03:06Z</time>
      </trkpt>
      <trkpt lat="40.684853" lon="-3.274009">
        <ele>823.565</ele>
        <time>2019-04-21T10:03:07Z</time>
      </trkpt>
      <trkpt lat="40.684918" lon="-3.274006">
        <ele>823.786</ele>
        <time>2019-04-21T10:03:08Z</time>
      </trkpt>
      <trkpt lat="40.684985" lon="-3.274012">
        <ele>823.916</ele>
        <time>2019-04-21T10:03:09Z</time>
      </trkpt>
      <trkpt lat="40.685043" lon="-3.274018">
        <ele>824.276</ele>
        <time>2019-04-21T10:03:10Z</time>
      </trkpt>
      <trkpt lat="40.685091" lon="-3.274025">
        <ele>824.413</ele>
        <time>2019-04-21T10:03:11Z</time>
      </trkpt>
      <trkpt lat="40.685156" lon="-3.274042">
        <ele>824.708</ele>
        <time>2019-04-21T10:03:12Z</time>
      </trkpt>
      <trkpt lat="40.685213" lon="-3.274085">
        <ele>825.034</ele>
        <time>2019-04-21T10:03:13Z</time>
      </trkpt>
      <trkpt lat="40.685271" lon="-3.274143">
        <ele>825.366</ele>
        <time>2019-04-21T10:03:14Z</time>
      </trkpt>
      <trkpt lat="40.685326" lon="-3.274203">
        <ele>825.666</ele>
        <time>2019-04-21T10:03:15Z</time>
      </trkpt>
      <trkpt lat="40.685383" lon="-3.274255">
        <ele>826.091</ele>
        <time>2019-04-21T10:03:16Z</time>
      </trkpt>
      <trkpt lat="40.685426" lon="-3.274298">
        <ele>826.493</ele>
        <time>2019-04-21T10:03:17Z</time>
      </trkpt>
      <trkpt lat="40.685477" lon="-3.274337">
        <ele>826.735</ele>
        <time>2019-04-21T10:03:18Z</time>
      </trkpt>
      <trkpt lat="40.685524" lon="-3.274366">
        <ele>827.019</ele>
        <time>2019-04-21T10:03:19Z</time>
      </trkpt>
      <trkpt lat="40.685580" lon="-3.274384">
        <ele>827.350</ele>
        <time>2019-04-21T10:03:20Z</time>
      </trkpt>
      <trkpt lat="40.685638" lon="-3.274412">
        <ele>827.673</ele>
        <time>2019-04-21T10:03:21Z</time>
      </trkpt>
      <trkpt lat="40.685695" lon="-3.274450">
        <ele>827.885</ele>
        <time>2019-04-21T10:03:22Z</time>
      </trkpt>
      <trkpt lat="40.685756" lon="-3.274484">
        <ele>828.013</ele>
        <time>2019-04-21T10:03:23Z</time>
      </trkpt>
      <trkpt lat="40.685821" lon="-3.274513">
        <ele>828.208</ele>
        <time>2019-04-21T10:03:24Z</time>
      </trkpt>
      <trkpt lat="40.685881" lon="-3.274539">
        <ele>828.510</ele>
        <time>2019-04-21T10:03:25Z</time>
      </trkpt>
      <trkpt lat="40.685951" lon="-3.274563">
        <ele>828.822</ele>
        <time>2019-04-21T10:03:26Z</time>
      </trkpt>
      <trkpt lat="40.686013" lon="-3.274599">
        <ele>829.682</ele>
        <time>2019-04-21T10:03:27Z</time>
      </trkpt>
      <trkpt lat="40.686074" lon="-3.274636">
        <ele>829.937</ele>
        <time>2019-04-21T10:03:28Z</time>
      </trkpt>
      <trkpt lat="40.686127" lon="-3.274704">
        <ele>830.049</ele>
        <time>2019-04-21T10:03:29Z</time>
      </trkpt>
      <trkpt lat="40.686173" lon="-3.274773">
        <ele>830.031</ele>
        <time>2019-04-21T10:03:30Z</time>
      </trkpt>
      <trkpt lat="40.686214" lon="-3.274866">
        <ele>830.185</ele>
        <time>2019-04-21T10:03:31Z</time>
      </trkpt>
      <trkpt lat="40.686250" lon="-3.274949">
        <ele>830.216</ele>
        <time>2019-04-21T10:03:32Z</time>
      </trkpt>
      <trkpt lat="40.686282" lon="-3.275023">
        <ele>830.434</ele>
        <time>2019-04-21T10:03:33Z</time>
      </trkpt>
      <trkpt lat="40.686308" lon="-3.275087">
        <ele>830.655</ele>
        <time>2019-04-21T10:03:34Z</time>
      </trkpt>
      <trkpt lat="40.686367" lon="-3.275178">
        <ele>831.010</ele>
        <time>2019-04-21T10:03:36Z</time>
      </trkpt>
      <trkpt lat="40.686458" lon="-3.275234">
        <ele>831.308</ele>
        <time>2019-04-21T10:03:38Z</time>
      </trkpt>
      <trkpt lat="40.686509" lon="-3.275285">
        <ele>831.536</ele>
        <time>2019-04-21T10:03:39Z</time>
      </trkpt>
      <trkpt lat="40.686554" lon="-3.275345">
        <ele>831.688</ele>
        <time>2019-04-21T10:03:40Z</time>
      </trkpt>
      <trkpt lat="40.686593" lon="-3.275412">
        <ele>831.798</ele>
        <time>2019-04-21T10:03:41Z</time>
      </trkpt>
      <trkpt lat="40.686635" lon="-3.275485">
        <ele>831.813</ele>
        <time>2019-04-21T10:03:42Z</time>
      </trkpt>
      <trkpt lat="40.686677" lon="-3.275545">
        <ele>831.995</ele>
        <time>2019-04-21T10:03:43Z</time>
      </trkpt>
      <trkpt lat="40.686723" lon="-3.275602">
        <ele>832.047</ele>
        <time>2019-04-21T10:03:44Z</time>
      </trkpt>
      <trkpt lat="40.686769" lon="-3.275657">
        <ele>832.151</ele>
        <time>2019-04-21T10:03:45Z</time>
      </trkpt>
      <trkpt lat="40.686816" lon="-3.275704">
        <ele>832.242</ele>
        <time>2019-04-21T10:03:46Z</time>
      </trkpt>
      <trkpt lat="40.686868" lon="-3.275756">
        <ele>832.395</ele>
        <time>2019-04-21T10:03:47Z</time>
      </trkpt>
      <trkpt lat="40.686930" lon="-3.275816">
        <ele>832.349</ele>
        <time>2019-04-21T10:03:48Z</time>
      </trkpt>
      <trkpt lat="40.686981" lon="-3.275876">
        <ele>832.323</ele>
        <time>2019-04-21T10:03:49Z</time>
      </trkpt>
      <trkpt lat="40.687037" lon="-3.275925">
        <ele>832.308</ele>
        <time>2019-04-21T10:03:50Z</time>
      </trkpt>
      <trkpt lat="40.687105" lon="-3.275974">
        <ele>832.482</ele>
        <time>2019-04-21T10:03:51Z</time>
      </trkpt>
      <trkpt lat="40.687165" lon="-3.276017">
        <ele>832.584</ele>
        <time>2019-04-21T10:03:52Z</time>
      </trkpt>
      <trkpt lat="40.687221" lon="-3.276056">
        <ele>832.634</ele>
        <time>2019-04-21T10:03:53Z</time>
      </trkpt>
      <trkpt lat="40.687273" lon="-3.276087">
        <ele>832.799</ele>
        <time>2019-04-21T10:03:54Z</time>
      </trkpt>
      <trkpt lat="40.687344" lon="-3.276153">
        <ele>832.971</ele>
        <time>2019-04-21T10:03:56Z</time>
      </trkpt>
      <trkpt lat="40.687388" lon="-3.276168">
        <ele>832.993</ele>
        <time>2019-04-21T10:03:57Z</time>
      </trkpt>
      <trkpt lat="40.687434" lon="-3.276184">
        <ele>832.977</ele>
        <time>2019-04-21T10:03:58Z</time>
      </trkpt>
      <trkpt lat="40.687476" lon="-3.276209">
        <ele>832.958</ele>
        <time>2019-04-21T10:03:59Z</time>
      </trkpt>
      <trkpt lat="40.687520" lon="-3.276233">
        <ele>832.995</ele>
        <time>2019-04-21T10:04:00Z</time>
      </trkpt>
      <trkpt lat="40.687571" lon="-3.276263">
        <ele>833.049</ele>
        <time>2019-04-21T10:04:01Z</time>
      </trkpt>
      <trkpt lat="40.687619" lon="-3.276294">
        <ele>833.123</ele>
        <time>2019-04-21T10:04:02Z</time>
      </trkpt>
      <trkpt lat="40.687675" lon="-3.276323">
        <ele>833.208</ele>
        <time>2019-04-21T10:04:03Z</time>
      </trkpt>
      <trkpt lat="40.687734" lon="-3.276358">
        <ele>833.282</ele>
        <time>2019-04-21T10:04:04Z</time>
      </trkpt>
      <trkpt lat="40.687789" lon="-3.276391">
        <ele>833.274</ele>
        <time>2019-04-21T10:04:05Z</time>
      </trkpt>
      <trkpt lat="40.687843" lon="-3.276426">
        <ele>833.234</ele>
        <time>2019-04-21T10:04:06Z</time>
      </trkpt>
      <trkpt lat="40.687893" lon="-3.276463">
        <ele>833.299</ele>
        <time>2019-04-21T10:04:07Z</time>
      </trkpt>
      <trkpt lat="40.687944" lon="-3.276494">
        <ele>833.271</ele>
        <time>2019-04-21T10:04:08Z</time>
      </trkpt>
      <trkpt lat="40.687992" lon="-3.276527">
        <ele>833.243</ele>
        <time>2019-04-21T10:04:09Z</time>
      </trkpt>
      <trkpt lat="40.688040" lon="-3.276560">
        <ele>833.237</ele>
        <time>2019-04-21T10:04:10Z</time>
      </trkpt>
      <trkpt lat="40.688089" lon="-3.276595">
        <ele>833.218</ele>
        <time>2019-04-21T10:04:11Z</time>
      </trkpt>
      <trkpt lat="40.688142" lon="-3.276618">
        <ele>833.285</ele>
        <time>2019-04-21T10:04:12Z</time>
      </trkpt>
      <trkpt lat="40.688199" lon="-3.276659">
        <ele>833.289</ele>
        <time>2019-04-21T10:04:14Z</time>
      </trkpt>
      <trkpt lat="40.688250" lon="-3.276703">
        <ele>833.217</ele>
        <time>2019-04-21T10:04:16Z</time>
      </trkpt>
      <trkpt lat="40.688316" lon="-3.276744">
        <ele>833.108</ele>
        <time>2019-04-21T10:04:18Z</time>
      </trkpt>
      <trkpt lat="40.688362" lon="-3.276769">
        <ele>833.181</ele>
        <time>2019-04-21T10:04:19Z</time>
      </trkpt>
      <trkpt lat="40.688404" lon="-3.276810">
        <ele>833.193</ele>
        <time>2019-04-21T10:04:20Z</time>
      </trkpt>
      <trkpt lat="40.688449" lon="-3.276858">
        <ele>833.113</ele>
        <time>2019-04-21T10:04:21Z</time>
      </trkpt>
      <trkpt lat="40.688485" lon="-3.276901">
        <ele>833.278</ele>
        <time>2019-04-21T10:04:22Z</time>
      </trkpt>
      <trkpt lat="40.688568" lon="-3.276978">
        <ele>833.250</ele>
        <time>2019-04-21T10:04:24Z</time>
      </trkpt>
      <trkpt lat="40.688619" lon="-3.277017">
        <ele>833.222</ele>
        <time>2019-04-21T10:04:25Z</time>
      </trkpt>
      <trkpt lat="40.688663" lon="-3.277043">
        <ele>833.246</ele>
        <time>2019-04-21T10:04:26Z</time>
      </trkpt>
      <trkpt lat="40.688734" lon="-3.277074">
        <ele>833.227</ele>
        <time>2019-04-21T10:04:27Z</time>
      </trkpt>
      <trkpt lat="40.688779" lon="-3.277105">
        <ele>833.217</ele>
        <time>2019-04-21T10:04:28Z</time>
      </trkpt>
      <trkpt lat="40.688825" lon="-3.277135">
        <ele>833.187</ele>
        <time>2019-04-21T10:04:29Z</time>
      </trkpt>
      <trkpt lat="40.688869" lon="-3.277159">
        <ele>832.915</ele>
        <time>2019-04-21T10:04:30Z</time>
      </trkpt>
      <trkpt lat="40.688943" lon="-3.277220">
        <ele>833.008</ele>
        <time>2019-04-21T10:04:32Z</time>
      </trkpt>
      <trkpt lat="40.688985" lon="-3.277255">
        <ele>833.014</ele>
        <time>2019-04-21T10:04:33Z</time>
      </trkpt>
      <trkpt lat="40.689034" lon="-3.277288">
        <ele>833.186</ele>
        <time>2019-04-21T10:04:34Z</time>
      </trkpt>
      <trkpt lat="40.689087" lon="-3.277323">
        <ele>833.476</ele>
        <time>2019-04-21T10:04:35Z</time>
      </trkpt>
      <trkpt lat="40.689134" lon="-3.277355">
        <ele>833.421</ele>
        <time>2019-04-21T10:04:36Z</time>
      </trkpt>
      <trkpt lat="40.689192" lon="-3.277391">
        <ele>833.553</ele>
        <time>2019-04-21T10:04:37Z</time>
      </trkpt>
      <trkpt lat="40.689248" lon="-3.277415">
        <ele>833.555</ele>
        <time>2019-04-21T10:04:38Z</time>
      </trkpt>
      <trkpt lat="40.689304" lon="-3.277433">
        <ele>833.669</ele>
        <time>2019-04-21T10:04:39Z</time>
      </trkpt>
      <trkpt lat="40.689374" lon="-3.277451">
        <ele>833.610</ele>
        <time>2019-04-21T10:04:40Z</time>
      </trkpt>
      <trkpt lat="40.689432" lon="-3.277450">
        <ele>833.631</ele>
        <time>2019-04-21T10:04:41Z</time>
      </trkpt>
      <trkpt lat="40.689498" lon="-3.277449">
        <ele>833.661</ele>
        <time>2019-04-21T10:04:42Z</time>
      </trkpt>
      <trkpt lat="40.689570" lon="-3.277443">
        <ele>833.407</ele>
        <time>2019-04-21T10:04:43Z</time>
      </trkpt>
      <trkpt lat="40.689620" lon="-3.277437">
        <ele>833.308</ele>
        <time>2019-04-21T10:04:44Z</time>
      </trkpt>
      <trkpt lat="40.689684" lon="-3.277404">
        <ele>833.316</ele>
        <time>2019-04-21T10:04:46Z</time>
      </trkpt>
      <trkpt lat="40.689729" lon="-3.277374">
        <ele>832.878</ele>
        <time>2019-04-21T10:04:55Z</time>
      </trkpt>
      <trkpt lat="40.689778" lon="-3.277407">
        <ele>832.688</ele>
        <time>2019-04-21T10:04:57Z</time>
      </trkpt>
      <trkpt lat="40.689824" lon="-3.277481">
        <ele>832.453</ele>
        <time>2019-04-21T10:04:59Z</time>
      </trkpt>
      <trkpt lat="40.689854" lon="-3.277564">
        <ele>832.475</ele>
        <time>2019-04-21T10:05:01Z</time>
      </trkpt>
      <trkpt lat="40.689873" lon="-3.277631">
        <ele>832.577</ele>
        <time>2019-04-21T10:05:04Z</time>
      </trkpt>
      <trkpt lat="40.689933" lon="-3.277744">
        <ele>832.971</ele>
        <time>2019-04-21T10:05:10Z</time>
      </trkpt>
      <trkpt lat="40.689964" lon="-3.277804">
        <ele>832.972</ele>
        <time>2019-04-21T10:05:11Z</time>
      </trkpt>
      <trkpt lat="40.690004" lon="-3.277858">
        <ele>833.019</ele>
        <time>2019-04-21T10:05:12Z</time>
      </trkpt>
      <trkpt lat="40.690056" lon="-3.277893">
        <ele>833.009</ele>
        <time>2019-04-21T10:05:13Z</time>
      </trkpt>
      <trkpt lat="40.690099" lon="-3.277932">
        <ele>833.119</ele>
        <time>2019-04-21T10:05:14Z</time>
      </trkpt>
      <trkpt lat="40.690148" lon="-3.277967">
        <ele>833.208</ele>
        <time>2019-04-21T10:05:15Z</time>
      </trkpt>
      <trkpt lat="40.690192" lon="-3.277999">
        <ele>833.344</ele>
        <time>2019-04-21T10:05:16Z</time>
      </trkpt>
      <trkpt lat="40.690242" lon="-3.278021">
        <ele>833.386</ele>
        <time>2019-04-21T10:05:17Z</time>
      </trkpt>
      <trkpt lat="40.690286" lon="-3.278053">
        <ele>833.316</ele>
        <time>2019-04-21T10:05:18Z</time>
      </trkpt>
      <trkpt lat="40.690324" lon="-3.278089">
        <ele>833.361</ele>
        <time>2019-04-21T10:05:19Z</time>
      </trkpt>
      <trkpt lat="40.690361" lon="-3.278131">
        <ele>833.383</ele>
        <time>2019-04-21T10:05:20Z</time>
      </trkpt>
      <trkpt lat="40.690405" lon="-3.278182">
        <ele>833.345</ele>
        <time>2019-04-21T10:05:21Z</time>
      </trkpt>
      <trkpt lat="40.690452" lon="-3.278230">
        <ele>833.379</ele>
        <time>2019-04-21T10:05:22Z</time>
      </trkpt>
      <trkpt lat="40.690486" lon="-3.278303">
        <ele>833.310</ele>
        <time>2019-04-21T10:05:23Z</time>
      </trkpt>
      <trkpt lat="40.690520" lon="-3.278397">
        <ele>833.332</ele>
        <time>2019-04-21T10:05:24Z</time>
      </trkpt>
      <trkpt lat="40.690555" lon="-3.278497">
        <ele>833.392</ele>
        <time>2019-04-21T10:05:25Z</time>
      </trkpt>
      <trkpt lat="40.690585" lon="-3.278589">
        <ele>833.311</ele>
        <time>2019-04-21T10:05:26Z</time>
      </trkpt>
      <trkpt lat="40.690622" lon="-3.278664">
        <ele>833.408</ele>
        <time>2019-04-21T10:05:27Z</time>
      </trkpt>
      <trkpt lat="40.690667" lon="-3.278726">
        <ele>833.476</ele>
        <time>2019-04-21T10:05:28Z</time>
      </trkpt>
      <trkpt lat="40.690706" lon="-3.278780">
        <ele>833.468</ele>
        <time>2019-04-21T10:05:29Z</time>
      </trkpt>
      <trkpt lat="40.690755" lon="-3.278830">
        <ele>833.488</ele>
        <time>2019-04-21T10:05:30Z</time>
      </trkpt>
      <trkpt lat="40.690806" lon="-3.278879">
        <ele>833.483</ele>
        <time>2019-04-21T10:05:31Z</time>
      </trkpt>
      <trkpt lat="40.690851" lon="-3.278941">
        <ele>833.475</ele>
        <time>2019-04-21T10:05:32Z</time>
      </trkpt>
      <trkpt lat="40.690879" lon="-3.278995">
        <ele>833.527</ele>
        <time>2019-04-21T10:05:33Z</time>
      </trkpt>
      <trkpt lat="40.690901" lon="-3.279051">
        <ele>833.521</ele>
        <time>2019-04-21T10:05:34Z</time>
      </trkpt>
      <trkpt lat="40.690921" lon="-3.279170">
        <ele>833.462</ele>
        <time>2019-04-21T10:05:36Z</time>
      </trkpt>
      <trkpt lat="40.690917" lon="-3.279278">
        <ele>833.259</ele>
        <time>2019-04-21T10:05:38Z</time>
      </trkpt>
      <trkpt lat="40.690906" lon="-3.279347">
        <ele>833.103</ele>
        <time>2019-04-21T10:05:39Z</time>
      </trkpt>
      <trkpt lat="40.690893" lon="-3.279409">
        <ele>833.023</ele>
        <time>2019-04-21T10:05:40Z</time>
      </trkpt>
      <trkpt lat="40.690881" lon="-3.279514">
        <ele>833.108</ele>
        <time>2019-04-21T10:05:42Z</time>
      </trkpt>
      <trkpt lat="40.690909" lon="-3.279587">
        <ele>833.158</ele>
        <time>2019-04-21T10:05:44Z</time>
      </trkpt>
      <trkpt lat="40.690958" lon="-3.279599">
        <ele>833.290</ele>
        <time>2019-04-21T10:05:45Z</time>
      </trkpt>
      <trkpt lat="40.691009" lon="-3.279606">
        <ele>833.320</ele>
        <time>2019-04-21T10:05:46Z</time>
      </trkpt>
      <trkpt lat="40.691060" lon="-3.279616">
        <ele>833.685</ele>
        <time>2019-04-21T10:05:47Z</time>
      </trkpt>
      <trkpt lat="40.691110" lon="-3.279621">
        <ele>833.777</ele>
        <time>2019-04-21T10:05:48Z</time>
      </trkpt>
      <trkpt lat="40.691164" lon="-3.279624">
        <ele>833.729</ele>
        <time>2019-04-21T10:05:49Z</time>
      </trkpt>
      <trkpt lat="40.691212" lon="-3.279626">
        <ele>833.643</ele>
        <time>2019-04-21T10:05:50Z</time>
      </trkpt>
      <trkpt lat="40.691271" lon="-3.279641">
        <ele>833.684</ele>
        <time>2019-04-21T10:05:51Z</time>
      </trkpt>
      <trkpt lat="40.691344" lon="-3.279660">
        <ele>833.588</ele>
        <time>2019-04-21T10:05:52Z</time>
      </trkpt>
      <trkpt lat="40.691415" lon="-3.279710">
        <ele>833.324</ele>
        <time>2019-04-21T10:05:54Z</time>
      </trkpt>
      <trkpt lat="40.691473" lon="-3.279734">
        <ele>833.126</ele>
        <time>2019-04-21T10:05:56Z</time>
      </trkpt>
      <trkpt lat="40.691548" lon="-3.279747">
        <ele>833.008</ele>
        <time>2019-04-21T10:05:58Z</time>
      </trkpt>
      <trkpt lat="40.691619" lon="-3.279766">
        <ele>832.841</ele>
        <time>2019-04-21T10:06:00Z</time>
      </trkpt>
      <trkpt lat="40.691704" lon="-3.279789">
        <ele>832.863</ele>
        <time>2019-04-21T10:06:02Z</time>
      </trkpt>
      <trkpt lat="40.691757" lon="-3.279798">
        <ele>832.713</ele>
        <time>2019-04-21T10:06:03Z</time>
      </trkpt>
      <trkpt lat="40.691813" lon="-3.279805">
        <ele>832.648</ele>
        <time>2019-04-21T10:06:04Z</time>
      </trkpt>
      <trkpt lat="40.691870" lon="-3.279818">
        <ele>832.170</ele>
        <time>2019-04-21T10:06:06Z</time>
      </trkpt>
      <trkpt lat="40.691933" lon="-3.279837">
        <ele>831.192</ele>
        <time>2019-04-21T10:06:13Z</time>
      </trkpt>
      <trkpt lat="40.692010" lon="-3.279846">
        <ele>831.086</ele>
        <time>2019-04-21T10:06:15Z</time>
      </trkpt>
      <trkpt lat="40.692084" lon="-3.279864">
        <ele>831.127</ele>
        <time>2019-04-21T10:06:17Z</time>
      </trkpt>
      <trkpt lat="40.692161" lon="-3.279866">
        <ele>831.265</ele>
        <time>2019-04-21T10:06:19Z</time>
      </trkpt>
      <trkpt lat="40.692250" lon="-3.279886">
        <ele>831.168</ele>
        <time>2019-04-21T10:06:21Z</time>
      </trkpt>
      <trkpt lat="40.692329" lon="-3.279905">
        <ele>831.014</ele>
        <time>2019-04-21T10:06:23Z</time>
      </trkpt>
      <trkpt lat="40.692377" lon="-3.279902">
        <ele>831.008</ele>
        <time>2019-04-21T10:06:24Z</time>
      </trkpt>
      <trkpt lat="40.692430" lon="-3.279895">
        <ele>831.169</ele>
        <time>2019-04-21T10:06:25Z</time>
      </trkpt>
      <trkpt lat="40.692511" lon="-3.279888">
        <ele>831.351</ele>
        <time>2019-04-21T10:06:27Z</time>
      </trkpt>
      <trkpt lat="40.692587" lon="-3.279884">
        <ele>831.541</ele>
        <time>2019-04-21T10:06:29Z</time>
      </trkpt>
      <trkpt lat="40.692654" lon="-3.279886">
        <ele>831.736</ele>
        <time>2019-04-21T10:06:31Z</time>
      </trkpt>
      <trkpt lat="40.692706" lon="-3.279886">
        <ele>831.948</ele>
        <time>2019-04-21T10:06:33Z</time>
      </trkpt>
      <trkpt lat="40.692753" lon="-3.279886">
        <ele>832.290</ele>
        <time>2019-04-21T10:06:35Z</time>
      </trkpt>
      <trkpt lat="40.692799" lon="-3.279895">
        <ele>832.554</ele>
        <time>2019-04-21T10:06:37Z</time>
      </trkpt>
      <trkpt lat="40.692850" lon="-3.279886">
        <ele>832.975</ele>
        <time>2019-04-21T10:06:39Z</time>
      </trkpt>
      <trkpt lat="40.692906" lon="-3.279877">
        <ele>833.341</ele>
        <time>2019-04-21T10:06:41Z</time>
      </trkpt>
      <trkpt lat="40.692974" lon="-3.279856">
        <ele>833.681</ele>
        <time>2019-04-21T10:06:43Z</time>
      </trkpt>
      <trkpt lat="40.693027" lon="-3.279855">
        <ele>834.009</ele>
        <time>2019-04-21T10:06:45Z</time>
      </trkpt>
      <trkpt lat="40.693085" lon="-3.279853">
        <ele>834.308</ele>
        <time>2019-04-21T10:06:47Z</time>
      </trkpt>
      <trkpt lat="40.693144" lon="-3.279830">
        <ele>834.687</ele>
        <time>2019-04-21T10:06:49Z</time>
      </trkpt>
      <trkpt lat="40.693219" lon="-3.279830">
        <ele>834.859</ele>
        <time>2019-04-21T10:06:51Z</time>
      </trkpt>
      <trkpt lat="40.693301" lon="-3.279844">
        <ele>834.959</ele>
        <time>2019-04-21T10:06:53Z</time>
      </trkpt>
      <trkpt lat="40.693358" lon="-3.279847">
        <ele>835.014</ele>
        <time>2019-04-21T10:06:55Z</time>
      </trkpt>
      <trkpt lat="40.693422" lon="-3.279831">
        <ele>835.246</ele>
        <time>2019-04-21T10:06:59Z</time>
      </trkpt>
      <trkpt lat="40.693487" lon="-3.279843">
        <ele>835.338</ele>
        <time>2019-04-21T10:07:01Z</time>
      </trkpt>
      <trkpt lat="40.693541" lon="-3.279858">
        <ele>835.432</ele>
        <time>2019-04-21T10:07:03Z</time>
      </trkpt>
      <trkpt lat="40.693608" lon="-3.279891">
        <ele>835.493</ele>
        <time>2019-04-21T10:07:05Z</time>
      </trkpt>
      <trkpt lat="40.693672" lon="-3.279905">
        <ele>835.526</ele>
        <time>2019-04-21T10:07:07Z</time>
      </trkpt>
      <trkpt lat="40.693737" lon="-3.279936">
        <ele>835.747</ele>
        <time>2019-04-21T10:07:09Z</time>
      </trkpt>
      <trkpt lat="40.693813" lon="-3.279977">
        <ele>835.911</ele>
        <time>2019-04-21T10:07:11Z</time>
      </trkpt>
      <trkpt lat="40.693877" lon="-3.279956">
        <ele>835.908</ele>
        <time>2019-04-21T10:07:13Z</time>
      </trkpt>
      <trkpt lat="40.693927" lon="-3.279945">
        <ele>836.015</ele>
        <time>2019-04-21T10:07:14Z</time>
      </trkpt>
      <trkpt lat="40.693979" lon="-3.279923">
        <ele>836.297</ele>
        <time>2019-04-21T10:07:16Z</time>
      </trkpt>
      <trkpt lat="40.694038" lon="-3.279939">
        <ele>836.427</ele>
        <time>2019-04-21T10:07:51Z</time>
      </trkpt>
      <trkpt lat="40.694096" lon="-3.279970">
        <ele>836.562</ele>
        <time>2019-04-21T10:07:54Z</time>
      </trkpt>
      <trkpt lat="40.694141" lon="-3.279983">
        <ele>836.544</ele>
        <time>2019-04-21T10:07:56Z</time>
      </trkpt>
      <trkpt lat="40.694187" lon="-3.280010">
        <ele>836.686</ele>
        <time>2019-04-21T10:07:59Z</time>
      </trkpt>
      <trkpt lat="40.694237" lon="-3.280041">
        <ele>836.610</ele>
        <time>2019-04-21T10:08:01Z</time>
      </trkpt>
      <trkpt lat="40.694265" lon="-3.280092">
        <ele>836.791</ele>
        <time>2019-04-21T10:08:48Z</time>
      </trkpt>
      <trkpt lat="40.694210" lon="-3.280117">
        <ele>836.627</ele>
        <time>2019-04-21T10:09:07Z</time>
      </trkpt>
      <trkpt lat="40.694164" lon="-3.280122">
        <ele>836.668</ele>
        <time>2019-04-21T10:09:09Z</time>
      </trkpt>
      <trkpt lat="40.694109" lon="-3.280125">
        <ele>836.614</ele>
        <time>2019-04-21T10:09:16Z</time>
      </trkpt>
      <trkpt lat="40.694055" lon="-3.280128">
        <ele>836.508</ele>
        <time>2019-04-21T10:09:18Z</time>
      </trkpt>
      <trkpt lat="40.694028" lon="-3.280079">
        <ele>836.435</ele>
        <time>2019-04-21T10:09:26Z</time>
      </trkpt>
      <trkpt lat="40.694051" lon="-3.280018">
        <ele>836.597</ele>
        <time>2019-04-21T10:09:39Z</time>
      </trkpt>
      <trkpt lat="40.694035" lon="-3.279963">
        <ele>836.697</ele>
        <time>2019-04-21T10:09:43Z</time>
      </trkpt>
      <trkpt lat="40.694084" lon="-3.279942">
        <ele>836.742</ele>
        <time>2019-04-21T10:10:14Z</time>
      </trkpt>
      <trkpt lat="40.694141" lon="-3.279954">
        <ele>836.724</ele>
        <time>2019-04-21T10:10:17Z</time>
      </trkpt>
      <trkpt lat="40.694189" lon="-3.279965">
        <ele>836.486</ele>
        <time>2019-04-21T10:10:22Z</time>
      </trkpt>
      <trkpt lat="40.694201" lon="-3.280025">
        <ele>836.640</ele>
        <time>2019-04-21T10:10:43Z</time>
      </trkpt>
      <trkpt lat="40.694182" lon="-3.280091">
        <ele>836.651</ele>
        <time>2019-04-21T10:10:46Z</time>
      </trkpt>
      <trkpt lat="40.694170" lon="-3.280030">
        <ele>836.796</ele>
        <time>2019-04-21T10:11:40Z</time>
      </trkpt>
      <trkpt lat="40.694191" lon="-3.279973">
        <ele>836.531</ele>
        <time>2019-04-21T10:11:56Z</time>
      </trkpt>
      <trkpt lat="40.694251" lon="-3.280031">
        <ele>836.924</ele>
        <time>2019-04-21T10:15:39Z</time>
      </trkpt>
      <trkpt lat="40.694270" lon="-3.280086">
        <ele>837.508</ele>
        <time>2019-04-21T10:17:07Z</time>
      </trkpt>
      <trkpt lat="40.694285" lon="-3.280030">
        <ele>837.752</ele>
        <time>2019-04-21T10:17:29Z</time>
      </trkpt>
      <trkpt lat="40.694280" lon="-3.279965">
        <ele>837.864</ele>
        <time>2019-04-21T10:18:00Z</time>
      </trkpt>
      <trkpt lat="40.694238" lon="-3.279989">
        <ele>837.694</ele>
        <time>2019-04-21T10:18:13Z</time>
      </trkpt>
      <trkpt lat="40.694199" lon="-3.280030">
        <ele>838.059</ele>
        <time>2019-04-21T10:18:31Z</time>
      </trkpt>
      <trkpt lat="40.694247" lon="-3.280023">
        <ele>838.251</ele>
        <time>2019-04-21T10:21:30Z</time>
      </trkpt>
      <trkpt lat="40.694243" lon="-3.280087">
        <ele>838.133</ele>
        <time>2019-04-21T10:21:38Z</time>
      </trkpt>
      <trkpt lat="40.694248" lon="-3.280163">
        <ele>837.947</ele>
        <time>2019-04-21T10:23:29Z</time>
      </trkpt>
      <trkpt lat="40.694275" lon="-3.280102">
        <ele>838.138</ele>
        <time>2019-04-21T10:24:52Z</time>
      </trkpt>
      <trkpt lat="40.694300" lon="-3.280043">
        <ele>838.242</ele>
        <time>2019-04-21T10:25:08Z</time>
      </trkpt>
      <trkpt lat="40.694345" lon="-3.280047">
        <ele>838.322</ele>
        <time>2019-04-21T10:25:18Z</time>
      </trkpt>
      <trkpt lat="40.694391" lon="-3.280053">
        <ele>838.414</ele>
        <time>2019-04-21T10:25:26Z</time>
      </trkpt>
      <trkpt lat="40.694442" lon="-3.280037">
        <ele>838.408</ele>
        <time>2019-04-21T10:25:34Z</time>
      </trkpt>
      <trkpt lat="40.694483" lon="-3.280066">
        <ele>838.617</ele>
        <time>2019-04-21T10:25:38Z</time>
      </trkpt>
      <trkpt lat="40.694517" lon="-3.280117">
        <ele>838.759</ele>
        <time>2019-04-21T10:25:41Z</time>
      </trkpt>
      <trkpt lat="40.694574" lon="-3.280103">
        <ele>838.739</ele>
        <time>2019-04-21T10:25:45Z</time>
      </trkpt>
      <trkpt lat="40.694624" lon="-3.280099">
        <ele>838.984</ele>
        <time>2019-04-21T10:25:48Z</time>
      </trkpt>
      <trkpt lat="40.694678" lon="-3.280058">
        <ele>839.276</ele>
        <time>2019-04-21T10:25:52Z</time>
      </trkpt>
      <trkpt lat="40.694724" lon="-3.280051">
        <ele>838.748</ele>
        <time>2019-04-21T10:25:58Z</time>
      </trkpt>
      <trkpt lat="40.694773" lon="-3.280036">
        <ele>839.012</ele>
        <time>2019-04-21T10:26:03Z</time>
      </trkpt>
      <trkpt lat="40.694832" lon="-3.279990">
        <ele>839.213</ele>
        <time>2019-04-21T10:26:06Z</time>
      </trkpt>
      <trkpt lat="40.694884" lon="-3.279949">
        <ele>839.318</ele>
        <time>2019-04-21T10:26:08Z</time>
      </trkpt>
      <trkpt lat="40.694931" lon="-3.279883">
        <ele>839.398</ele>
        <time>2019-04-21T10:26:11Z</time>
      </trkpt>
      <trkpt lat="40.694976" lon="-3.279868">
        <ele>839.317</ele>
        <time>2019-04-21T10:26:14Z</time>
      </trkpt>
      <trkpt lat="40.695028" lon="-3.279847">
        <ele>839.608</ele>
        <time>2019-04-21T10:26:20Z</time>
      </trkpt>
      <trkpt lat="40.695059" lon="-3.279792">
        <ele>839.314</ele>
        <time>2019-04-21T10:26:29Z</time>
      </trkpt>
      <trkpt lat="40.695107" lon="-3.279746">
        <ele>839.566</ele>
        <time>2019-04-21T10:26:34Z</time>
      </trkpt>
      <trkpt lat="40.695156" lon="-3.279738">
        <ele>839.546</ele>
        <time>2019-04-21T10:26:36Z</time>
      </trkpt>
      <trkpt lat="40.695181" lon="-3.279689">
        <ele>839.211</ele>
        <time>2019-04-21T10:26:40Z</time>
      </trkpt>
      <trkpt lat="40.695213" lon="-3.279645">
        <ele>839.623</ele>
        <time>2019-04-21T10:26:44Z</time>
      </trkpt>
      <trkpt lat="40.695261" lon="-3.279643">
        <ele>839.395</ele>
        <time>2019-04-21T10:26:51Z</time>
      </trkpt>
      <trkpt lat="40.695320" lon="-3.279638">
        <ele>839.889</ele>
        <time>2019-04-21T10:26:56Z</time>
      </trkpt>
      <trkpt lat="40.695356" lon="-3.279600">
        <ele>839.780</ele>
        <time>2019-04-21T10:27:04Z</time>
      </trkpt>
      <trkpt lat="40.695359" lon="-3.279671">
        <ele>839.796</ele>
        <time>2019-04-21T10:27:09Z</time>
      </trkpt>
      <trkpt lat="40.695361" lon="-3.279730">
        <ele>839.631</ele>
        <time>2019-04-21T10:27:15Z</time>
      </trkpt>
      <trkpt lat="40.695349" lon="-3.279789">
        <ele>839.724</ele>
        <time>2019-04-21T10:27:18Z</time>
      </trkpt>
      <trkpt lat="40.695340" lon="-3.279851">
        <ele>839.608</ele>
        <time>2019-04-21T10:27:21Z</time>
      </trkpt>
      <trkpt lat="40.695372" lon="-3.279912">
        <ele>839.742</ele>
        <time>2019-04-21T10:27:24Z</time>
      </trkpt>
      <trkpt lat="40.695399" lon="-3.279977">
        <ele>840.154</ele>
        <time>2019-04-21T10:27:26Z</time>
      </trkpt>
      <trkpt lat="40.695410" lon="-3.280039">
        <ele>840.244</ele>
        <time>2019-04-21T10:27:28Z</time>
      </trkpt>
      <trkpt lat="40.695440" lon="-3.280092">
        <ele>840.059</ele>
        <time>2019-04-21T10:27:32Z</time>
      </trkpt>
      <trkpt lat="40.695485" lon="-3.280124">
        <ele>839.931</ele>
        <time>2019-04-21T10:27:38Z</time>
      </trkpt>
      <trkpt lat="40.695533" lon="-3.280144">
        <ele>840.293</ele>
        <time>2019-04-21T10:27:45Z</time>
      </trkpt>
      <trkpt lat="40.695582" lon="-3.280155">
        <ele>839.927</ele>
        <time>2019-04-21T10:27:49Z</time>
      </trkpt>
      <trkpt lat="40.695632" lon="-3.280166">
        <ele>839.688</ele>
        <time>2019-04-21T10:27:54Z</time>
      </trkpt>
      <trkpt lat="40.695685" lon="-3.280164">
        <ele>839.871</ele>
        <time>2019-04-21T10:27:59Z</time>
      </trkpt>
      <trkpt lat="40.695735" lon="-3.280168">
        <ele>839.941</ele>
        <time>2019-04-21T10:28:02Z</time>
      </trkpt>
      <trkpt lat="40.695775" lon="-3.280206">
        <ele>840.015</ele>
        <time>2019-04-21T10:28:11Z</time>
      </trkpt>
      <trkpt lat="40.695822" lon="-3.280236">
        <ele>840.208</ele>
        <time>2019-04-21T10:28:15Z</time>
      </trkpt>
      <trkpt lat="40.695851" lon="-3.280318">
        <ele>840.710</ele>
        <time>2019-04-21T10:28:57Z</time>
      </trkpt>
      <trkpt lat="40.695857" lon="-3.280383">
        <ele>840.842</ele>
        <time>2019-04-21T10:29:10Z</time>
      </trkpt>
      <trkpt lat="40.695863" lon="-3.280444">
        <ele>840.432</ele>
        <time>2019-04-21T10:29:24Z</time>
      </trkpt>
      <trkpt lat="40.695863" lon="-3.280358">
        <ele>840.617</ele>
        <time>2019-04-21T10:29:30Z</time>
      </trkpt>
      <trkpt lat="40.695867" lon="-3.280276">
        <ele>840.679</ele>
        <time>2019-04-21T10:29:33Z</time>
      </trkpt>
      <trkpt lat="40.695838" lon="-3.280213">
        <ele>840.481</ele>
        <time>2019-04-21T10:29:37Z</time>
      </trkpt>
      <trkpt lat="40.695921" lon="-3.280235">
        <ele>840.725</ele>
        <time>2019-04-21T10:33:34Z</time>
      </trkpt>
      <trkpt lat="40.695931" lon="-3.280306">
        <ele>840.896</ele>
        <time>2019-04-21T10:33:41Z</time>
      </trkpt>
      <trkpt lat="40.695947" lon="-3.280247">
        <ele>841.111</ele>
        <time>2019-04-21T10:34:57Z</time>
      </trkpt>
      <trkpt lat="40.695940" lon="-3.280309">
        <ele>840.521</ele>
        <time>2019-04-21T10:35:23Z</time>
      </trkpt>
      <trkpt lat="40.696011" lon="-3.280288">
        <ele>840.903</ele>
        <time>2019-04-21T10:35:27Z</time>
      </trkpt>
      <trkpt lat="40.696069" lon="-3.280267">
        <ele>840.808</ele>
        <time>2019-04-21T10:35:29Z</time>
      </trkpt>
      <trkpt lat="40.696133" lon="-3.280253">
        <ele>840.774</ele>
        <time>2019-04-21T10:35:31Z</time>
      </trkpt>
      <trkpt lat="40.696205" lon="-3.280222">
        <ele>840.676</ele>
        <time>2019-04-21T10:35:33Z</time>
      </trkpt>
      <trkpt lat="40.696280" lon="-3.280170">
        <ele>840.626</ele>
        <time>2019-04-21T10:35:35Z</time>
      </trkpt>
      <trkpt lat="40.696359" lon="-3.280145">
        <ele>840.631</ele>
        <time>2019-04-21T10:35:37Z</time>
      </trkpt>
      <trkpt lat="40.696443" lon="-3.280143">
        <ele>840.743</ele>
        <time>2019-04-21T10:35:39Z</time>
      </trkpt>
      <trkpt lat="40.696524" lon="-3.280135">
        <ele>840.685</ele>
        <time>2019-04-21T10:35:41Z</time>
      </trkpt>
      <trkpt lat="40.696603" lon="-3.280139">
        <ele>840.659</ele>
        <time>2019-04-21T10:35:43Z</time>
      </trkpt>
      <trkpt lat="40.696687" lon="-3.280109">
        <ele>841.240</ele>
        <time>2019-04-21T10:35:45Z</time>
      </trkpt>
      <trkpt lat="40.696725" lon="-3.280075">
        <ele>841.697</ele>
        <time>2019-04-21T10:35:46Z</time>
      </trkpt>
      <trkpt lat="40.696767" lon="-3.280052">
        <ele>841.923</ele>
        <time>2019-04-21T10:35:47Z</time>
      </trkpt>
      <trkpt lat="40.696852" lon="-3.280039">
        <ele>841.925</ele>
        <time>2019-04-21T10:35:49Z</time>
      </trkpt>
      <trkpt lat="40.696941" lon="-3.280039">
        <ele>841.708</ele>
        <time>2019-04-21T10:35:51Z</time>
      </trkpt>
      <trkpt lat="40.697026" lon="-3.280024">
        <ele>842.022</ele>
        <time>2019-04-21T10:35:53Z</time>
      </trkpt>
      <trkpt lat="40.697070" lon="-3.280008">
        <ele>842.294</ele>
        <time>2019-04-21T10:35:54Z</time>
      </trkpt>
      <trkpt lat="40.697117" lon="-3.279999">
        <ele>842.574</ele>
        <time>2019-04-21T10:35:55Z</time>
      </trkpt>
      <trkpt lat="40.697164" lon="-3.279994">
        <ele>842.649</ele>
        <time>2019-04-21T10:35:56Z</time>
      </trkpt>
      <trkpt lat="40.697211" lon="-3.279986">
        <ele>842.821</ele>
        <time>2019-04-21T10:35:57Z</time>
      </trkpt>
      <trkpt lat="40.697259" lon="-3.279981">
        <ele>842.883</ele>
        <time>2019-04-21T10:35:58Z</time>
      </trkpt>
      <trkpt lat="40.697308" lon="-3.279985">
        <ele>842.847</ele>
        <time>2019-04-21T10:35:59Z</time>
      </trkpt>
      <trkpt lat="40.697358" lon="-3.279988">
        <ele>842.748</ele>
        <time>2019-04-21T10:36:00Z</time>
      </trkpt>
      <trkpt lat="40.697405" lon="-3.279974">
        <ele>842.747</ele>
        <time>2019-04-21T10:36:01Z</time>
      </trkpt>
      <trkpt lat="40.697492" lon="-3.279958">
        <ele>842.629</ele>
        <time>2019-04-21T10:36:03Z</time>
      </trkpt>
      <trkpt lat="40.697577" lon="-3.279943">
        <ele>842.721</ele>
        <time>2019-04-21T10:36:05Z</time>
      </trkpt>
      <trkpt lat="40.697622" lon="-3.279935">
        <ele>842.908</ele>
        <time>2019-04-21T10:36:06Z</time>
      </trkpt>
      <trkpt lat="40.697671" lon="-3.279934">
        <ele>843.477</ele>
        <time>2019-04-21T10:36:07Z</time>
      </trkpt>
      <trkpt lat="40.697724" lon="-3.279923">
        <ele>843.699</ele>
        <time>2019-04-21T10:36:08Z</time>
      </trkpt>
      <trkpt lat="40.697782" lon="-3.279921">
        <ele>844.089</ele>
        <time>2019-04-21T10:36:09Z</time>
      </trkpt>
      <trkpt lat="40.697841" lon="-3.279909">
        <ele>844.354</ele>
        <time>2019-04-21T10:36:10Z</time>
      </trkpt>
      <trkpt lat="40.697902" lon="-3.279910">
        <ele>844.726</ele>
        <time>2019-04-21T10:36:11Z</time>
      </trkpt>
      <trkpt lat="40.697965" lon="-3.279913">
        <ele>844.738</ele>
        <time>2019-04-21T10:36:12Z</time>
      </trkpt>
      <trkpt lat="40.698029" lon="-3.279916">
        <ele>844.952</ele>
        <time>2019-04-21T10:36:13Z</time>
      </trkpt>
      <trkpt lat="40.698093" lon="-3.279901">
        <ele>845.053</ele>
        <time>2019-04-21T10:36:14Z</time>
      </trkpt>
      <trkpt lat="40.698158" lon="-3.279904">
        <ele>845.163</ele>
        <time>2019-04-21T10:36:15Z</time>
      </trkpt>
      <trkpt lat="40.698221" lon="-3.279896">
        <ele>845.344</ele>
        <time>2019-04-21T10:36:16Z</time>
      </trkpt>
      <trkpt lat="40.698280" lon="-3.279888">
        <ele>845.518</ele>
        <time>2019-04-21T10:36:17Z</time>
      </trkpt>
      <trkpt lat="40.698340" lon="-3.279877">
        <ele>845.708</ele>
        <time>2019-04-21T10:36:18Z</time>
      </trkpt>
      <trkpt lat="40.698402" lon="-3.279868">
        <ele>845.999</ele>
        <time>2019-04-21T10:36:19Z</time>
      </trkpt>
      <trkpt lat="40.698463" lon="-3.279850">
        <ele>846.071</ele>
        <time>2019-04-21T10:36:20Z</time>
      </trkpt>
      <trkpt lat="40.698523" lon="-3.279845">
        <ele>846.171</ele>
        <time>2019-04-21T10:36:21Z</time>
      </trkpt>
      <trkpt lat="40.698579" lon="-3.279837">
        <ele>846.386</ele>
        <time>2019-04-21T10:36:22Z</time>
      </trkpt>
      <trkpt lat="40.698638" lon="-3.279827">
        <ele>846.428</ele>
        <time>2019-04-21T10:36:23Z</time>
      </trkpt>
      <trkpt lat="40.698700" lon="-3.279818">
        <ele>846.630</ele>
        <time>2019-04-21T10:36:24Z</time>
      </trkpt>
      <trkpt lat="40.698757" lon="-3.279813">
        <ele>846.634</ele>
        <time>2019-04-21T10:36:25Z</time>
      </trkpt>
      <trkpt lat="40.698817" lon="-3.279805">
        <ele>846.645</ele>
        <time>2019-04-21T10:36:26Z</time>
      </trkpt>
      <trkpt lat="40.698868" lon="-3.279801">
        <ele>846.685</ele>
        <time>2019-04-21T10:36:27Z</time>
      </trkpt>
      <trkpt lat="40.698914" lon="-3.279790">
        <ele>846.589</ele>
        <time>2019-04-21T10:36:28Z</time>
      </trkpt>
      <trkpt lat="40.698970" lon="-3.279779">
        <ele>846.217</ele>
        <time>2019-04-21T10:36:29Z</time>
      </trkpt>
      <trkpt lat="40.699021" lon="-3.279771">
        <ele>846.108</ele>
        <time>2019-04-21T10:36:30Z</time>
      </trkpt>
      <trkpt lat="40.699067" lon="-3.279763">
        <ele>845.871</ele>
        <time>2019-04-21T10:36:31Z</time>
      </trkpt>
      <trkpt lat="40.699140" lon="-3.279758">
        <ele>845.733</ele>
        <time>2019-04-21T10:36:33Z</time>
      </trkpt>
      <trkpt lat="40.699195" lon="-3.279776">
        <ele>845.313</ele>
        <time>2019-04-21T10:36:37Z</time>
      </trkpt>
      <trkpt lat="40.699262" lon="-3.279764">
        <ele>845.488</ele>
        <time>2019-04-21T10:36:39Z</time>
      </trkpt>
      <trkpt lat="40.699343" lon="-3.279757">
        <ele>845.730</ele>
        <time>2019-04-21T10:36:41Z</time>
      </trkpt>
      <trkpt lat="40.699408" lon="-3.279744">
        <ele>846.292</ele>
        <time>2019-04-21T10:36:44Z</time>
      </trkpt>
      <trkpt lat="40.699485" lon="-3.279731">
        <ele>846.476</ele>
        <time>2019-04-21T10:36:46Z</time>
      </trkpt>
      <trkpt lat="40.699555" lon="-3.279725">
        <ele>846.747</ele>
        <time>2019-04-21T10:36:48Z</time>
      </trkpt>
      <trkpt lat="40.699618" lon="-3.279719">
        <ele>846.968</ele>
        <time>2019-04-21T10:36:50Z</time>
      </trkpt>
      <trkpt lat="40.699692" lon="-3.279708">
        <ele>846.842</ele>
        <time>2019-04-21T10:36:53Z</time>
      </trkpt>
      <trkpt lat="40.699748" lon="-3.279701">
        <ele>847.226</ele>
        <time>2019-04-21T10:36:55Z</time>
      </trkpt>
      <trkpt lat="40.699799" lon="-3.279695">
        <ele>847.308</ele>
        <time>2019-04-21T10:36:56Z</time>
      </trkpt>
      <trkpt lat="40.699865" lon="-3.279685">
        <ele>847.369</ele>
        <time>2019-04-21T10:36:58Z</time>
      </trkpt>
      <trkpt lat="40.699921" lon="-3.279690">
        <ele>847.431</ele>
        <time>2019-04-21T10:37:01Z</time>
      </trkpt>
      <trkpt lat="40.699987" lon="-3.279693">
        <ele>847.431</ele>
        <time>2019-04-21T10:37:03Z</time>
      </trkpt>
      <trkpt lat="40.700037" lon="-3.279687">
        <ele>847.426</ele>
        <time>2019-04-21T10:37:04Z</time>
      </trkpt>
      <trkpt lat="40.700113" lon="-3.279675">
        <ele>847.598</ele>
        <time>2019-04-21T10:37:06Z</time>
      </trkpt>
      <trkpt lat="40.700195" lon="-3.279651">
        <ele>847.550</ele>
        <time>2019-04-21T10:37:08Z</time>
      </trkpt>
      <trkpt lat="40.700261" lon="-3.279634">
        <ele>847.524</ele>
        <time>2019-04-21T10:37:10Z</time>
      </trkpt>
      <trkpt lat="40.700309" lon="-3.279632">
        <ele>847.515</ele>
        <time>2019-04-21T10:37:12Z</time>
      </trkpt>
      <trkpt lat="40.700364" lon="-3.279633">
        <ele>847.742</ele>
        <time>2019-04-21T10:37:14Z</time>
      </trkpt>
      <trkpt lat="40.700421" lon="-3.279628">
        <ele>847.922</ele>
        <time>2019-04-21T10:37:16Z</time>
      </trkpt>
      <trkpt lat="40.700484" lon="-3.279623">
        <ele>848.014</ele>
        <time>2019-04-21T10:37:18Z</time>
      </trkpt>
      <trkpt lat="40.700563" lon="-3.279612">
        <ele>848.208</ele>
        <time>2019-04-21T10:37:20Z</time>
      </trkpt>
      <trkpt lat="40.700629" lon="-3.279607">
        <ele>848.447</ele>
        <time>2019-04-21T10:37:22Z</time>
      </trkpt>
      <trkpt lat="40.700674" lon="-3.279589">
        <ele>848.549</ele>
        <time>2019-04-21T10:37:24Z</time>
      </trkpt>
      <trkpt lat="40.700721" lon="-3.279586">
        <ele>848.569</ele>
        <time>2019-04-21T10:37:26Z</time>
      </trkpt>
      <trkpt lat="40.700767" lon="-3.279581">
        <ele>848.484</ele>
        <time>2019-04-21T10:37:28Z</time>
      </trkpt>
      <trkpt lat="40.700830" lon="-3.279575">
        <ele>848.626</ele>
        <time>2019-04-21T10:37:31Z</time>
      </trkpt>
      <trkpt lat="40.700888" lon="-3.279571">
        <ele>848.858</ele>
        <time>2019-04-21T10:37:33Z</time>
      </trkpt>
      <trkpt lat="40.700947" lon="-3.279548">
        <ele>849.462</ele>
        <time>2019-04-21T10:37:35Z</time>
      </trkpt>
      <trkpt lat="40.701012" lon="-3.279549">
        <ele>849.763</ele>
        <time>2019-04-21T10:37:37Z</time>
      </trkpt>
      <trkpt lat="40.701057" lon="-3.279542">
        <ele>849.915</ele>
        <time>2019-04-21T10:37:38Z</time>
      </trkpt>
      <trkpt lat="40.701142" lon="-3.279530">
        <ele>850.165</ele>
        <time>2019-04-21T10:37:40Z</time>
      </trkpt>
      <trkpt lat="40.701232" lon="-3.279506">
        <ele>850.511</ele>
        <time>2019-04-21T10:37:42Z</time>
      </trkpt>
      <trkpt lat="40.701280" lon="-3.279501">
        <ele>850.608</ele>
        <time>2019-04-21T10:37:43Z</time>
      </trkpt>
      <trkpt lat="40.701337" lon="-3.279489">
        <ele>850.924</ele>
        <time>2019-04-21T10:37:44Z</time>
      </trkpt>
      <trkpt lat="40.701394" lon="-3.279472">
        <ele>851.466</ele>
        <time>2019-04-21T10:37:45Z</time>
      </trkpt>
      <trkpt lat="40.701463" lon="-3.279462">
        <ele>851.696</ele>
        <time>2019-04-21T10:37:46Z</time>
      </trkpt>
      <trkpt lat="40.701558" lon="-3.279456">
        <ele>851.811</ele>
        <time>2019-04-21T10:37:47Z</time>
      </trkpt>
      <trkpt lat="40.701634" lon="-3.279448">
        <ele>852.063</ele>
        <time>2019-04-21T10:37:48Z</time>
      </trkpt>
      <trkpt lat="40.701753" lon="-3.279435">
        <ele>852.095</ele>
        <time>2019-04-21T10:37:49Z</time>
      </trkpt>
      <trkpt lat="40.701852" lon="-3.279418">
        <ele>852.099</ele>
        <time>2019-04-21T10:37:50Z</time>
      </trkpt>
      <trkpt lat="40.701932" lon="-3.279404">
        <ele>852.240</ele>
        <time>2019-04-21T10:37:51Z</time>
      </trkpt>
      <trkpt lat="40.702000" lon="-3.279395">
        <ele>852.313</ele>
        <time>2019-04-21T10:37:52Z</time>
      </trkpt>
      <trkpt lat="40.702065" lon="-3.279386">
        <ele>852.443</ele>
        <time>2019-04-21T10:37:53Z</time>
      </trkpt>
      <trkpt lat="40.702147" lon="-3.279372">
        <ele>852.707</ele>
        <time>2019-04-21T10:37:54Z</time>
      </trkpt>
      <trkpt lat="40.702225" lon="-3.279361">
        <ele>853.108</ele>
        <time>2019-04-21T10:37:55Z</time>
      </trkpt>
      <trkpt lat="40.702297" lon="-3.279353">
        <ele>853.464</ele>
        <time>2019-04-21T10:37:56Z</time>
      </trkpt>
      <trkpt lat="40.702379" lon="-3.279339">
        <ele>854.056</ele>
        <time>2019-04-21T10:37:57Z</time>
      </trkpt>
      <trkpt lat="40.702458" lon="-3.279326">
        <ele>854.626</ele>
        <time>2019-04-21T10:37:58Z</time>
      </trkpt>
      <trkpt lat="40.702530" lon="-3.279322">
        <ele>855.071</ele>
        <time>2019-04-21T10:37:59Z</time>
      </trkpt>
      <trkpt lat="40.702602" lon="-3.279313">
        <ele>855.713</ele>
        <time>2019-04-21T10:38:00Z</time>
      </trkpt>
      <trkpt lat="40.702688" lon="-3.279301">
        <ele>856.445</ele>
        <time>2019-04-21T10:38:01Z</time>
      </trkpt>
      <trkpt lat="40.702778" lon="-3.279287">
        <ele>857.029</ele>
        <time>2019-04-21T10:38:02Z</time>
      </trkpt>
      <trkpt lat="40.702876" lon="-3.279277">
        <ele>857.680</ele>
        <time>2019-04-21T10:38:03Z</time>
      </trkpt>
      <trkpt lat="40.702972" lon="-3.279268">
        <ele>858.284</ele>
        <time>2019-04-21T10:38:04Z</time>
      </trkpt>
      <trkpt lat="40.703068" lon="-3.279261">
        <ele>858.607</ele>
        <time>2019-04-21T10:38:05Z</time>
      </trkpt>
      <trkpt lat="40.703165" lon="-3.279254">
        <ele>858.917</ele>
        <time>2019-04-21T10:38:06Z</time>
      </trkpt>
      <trkpt lat="40.703262" lon="-3.279241">
        <ele>859.108</ele>
        <time>2019-04-21T10:38:07Z</time>
      </trkpt>
      <trkpt lat="40.703367" lon="-3.279216">
        <ele>859.381</ele>
        <time>2019-04-21T10:38:08Z</time>
      </trkpt>
      <trkpt lat="40.703469" lon="-3.279194">
        <ele>859.683</ele>
        <time>2019-04-21T10:38:09Z</time>
      </trkpt>
      <trkpt lat="40.703568" lon="-3.279165">
        <ele>860.133</ele>
        <time>2019-04-21T10:38:10Z</time>
      </trkpt>
      <trkpt lat="40.703667" lon="-3.279136">
        <ele>860.578</ele>
        <time>2019-04-21T10:38:11Z</time>
      </trkpt>
      <trkpt lat="40.703764" lon="-3.279105">
        <ele>860.810</ele>
        <time>2019-04-21T10:38:12Z</time>
      </trkpt>
      <trkpt lat="40.703862" lon="-3.279060">
        <ele>861.222</ele>
        <time>2019-04-21T10:38:13Z</time>
      </trkpt>
      <trkpt lat="40.703956" lon="-3.279004">
        <ele>861.456</ele>
        <time>2019-04-21T10:38:14Z</time>
      </trkpt>
      <trkpt lat="40.704038" lon="-3.278941">
        <ele>861.647</ele>
        <time>2019-04-21T10:38:15Z</time>
      </trkpt>
      <trkpt lat="40.704109" lon="-3.278885">
        <ele>861.879</ele>
        <time>2019-04-21T10:38:16Z</time>
      </trkpt>
      <trkpt lat="40.704176" lon="-3.278832">
        <ele>861.805</ele>
        <time>2019-04-21T10:38:17Z</time>
      </trkpt>
      <trkpt lat="40.704253" lon="-3.278779">
        <ele>861.225</ele>
        <time>2019-04-21T10:38:18Z</time>
      </trkpt>
      <trkpt lat="40.704332" lon="-3.278720">
        <ele>860.408</ele>
        <time>2019-04-21T10:38:19Z</time>
      </trkpt>
      <trkpt lat="40.704416" lon="-3.278663">
        <ele>858.430</ele>
        <time>2019-04-21T10:38:20Z</time>
      </trkpt>
      <trkpt lat="40.704493" lon="-3.278587">
        <ele>857.552</ele>
        <time>2019-04-21T10:38:21Z</time>
      </trkpt>
      <trkpt lat="40.704577" lon="-3.278519">
        <ele>857.532</ele>
        <time>2019-04-21T10:38:22Z</time>
      </trkpt>
      <trkpt lat="40.704662" lon="-3.278453">
        <ele>857.527</ele>
        <time>2019-04-21T10:38:23Z</time>
      </trkpt>
      <trkpt lat="40.704744" lon="-3.278382">
        <ele>857.539</ele>
        <time>2019-04-21T10:38:24Z</time>
      </trkpt>
      <trkpt lat="40.704827" lon="-3.278310">
        <ele>857.531</ele>
        <time>2019-04-21T10:38:25Z</time>
      </trkpt>
      <trkpt lat="40.704909" lon="-3.278239">
        <ele>857.645</ele>
        <time>2019-04-21T10:38:26Z</time>
      </trkpt>
      <trkpt lat="40.704994" lon="-3.278168">
        <ele>857.686</ele>
        <time>2019-04-21T10:38:27Z</time>
      </trkpt>
      <trkpt lat="40.705081" lon="-3.278096">
        <ele>857.886</ele>
        <time>2019-04-21T10:38:28Z</time>
      </trkpt>
      <trkpt lat="40.705169" lon="-3.278021">
        <ele>858.860</ele>
        <time>2019-04-21T10:38:29Z</time>
      </trkpt>
      <trkpt lat="40.705260" lon="-3.277947">
        <ele>859.926</ele>
        <time>2019-04-21T10:38:30Z</time>
      </trkpt>
      <trkpt lat="40.705349" lon="-3.277867">
        <ele>860.808</ele>
        <time>2019-04-21T10:38:31Z</time>
      </trkpt>
      <trkpt lat="40.705440" lon="-3.277788">
        <ele>861.911</ele>
        <time>2019-04-21T10:38:32Z</time>
      </trkpt>
      <trkpt lat="40.705534" lon="-3.277712">
        <ele>863.223</ele>
        <time>2019-04-21T10:38:33Z</time>
      </trkpt>
      <trkpt lat="40.705631" lon="-3.277632">
        <ele>863.663</ele>
        <time>2019-04-21T10:38:34Z</time>
      </trkpt>
      <trkpt lat="40.705734" lon="-3.277556">
        <ele>864.288</ele>
        <time>2019-04-21T10:38:35Z</time>
      </trkpt>
      <trkpt lat="40.705835" lon="-3.277475">
        <ele>864.770</ele>
        <time>2019-04-21T10:38:36Z</time>
      </trkpt>
      <trkpt lat="40.705936" lon="-3.277386">
        <ele>865.232</ele>
        <time>2019-04-21T10:38:37Z</time>
      </trkpt>
      <trkpt lat="40.706040" lon="-3.277296">
        <ele>865.566</ele>
        <time>2019-04-21T10:38:38Z</time>
      </trkpt>
      <trkpt lat="40.706150" lon="-3.277214">
        <ele>865.647</ele>
        <time>2019-04-21T10:38:39Z</time>
      </trkpt>
      <trkpt lat="40.706258" lon="-3.277125">
        <ele>865.734</ele>
        <time>2019-04-21T10:38:40Z</time>
      </trkpt>
      <trkpt lat="40.706370" lon="-3.277044">
        <ele>865.955</ele>
        <time>2019-04-21T10:38:41Z</time>
      </trkpt>
      <trkpt lat="40.706477" lon="-3.276953">
        <ele>866.010</ele>
        <time>2019-04-21T10:38:42Z</time>
      </trkpt>
      <trkpt lat="40.706580" lon="-3.276863">
        <ele>866.208</ele>
        <time>2019-04-21T10:38:43Z</time>
      </trkpt>
      <trkpt lat="40.706679" lon="-3.276778">
        <ele>866.286</ele>
        <time>2019-04-21T10:38:44Z</time>
      </trkpt>
      <trkpt lat="40.706783" lon="-3.276707">
        <ele>865.568</ele>
        <time>2019-04-21T10:38:45Z</time>
      </trkpt>
      <trkpt lat="40.706888" lon="-3.276630">
        <ele>864.948</ele>
        <time>2019-04-21T10:38:46Z</time>
      </trkpt>
      <trkpt lat="40.706993" lon="-3.276548">
        <ele>864.453</ele>
        <time>2019-04-21T10:38:47Z</time>
      </trkpt>
      <trkpt lat="40.707097" lon="-3.276464">
        <ele>864.175</ele>
        <time>2019-04-21T10:38:48Z</time>
      </trkpt>
      <trkpt lat="40.707200" lon="-3.276381">
        <ele>864.117</ele>
        <time>2019-04-21T10:38:49Z</time>
      </trkpt>
      <trkpt lat="40.707303" lon="-3.276300">
        <ele>864.141</ele>
        <time>2019-04-21T10:38:50Z</time>
      </trkpt>
      <trkpt lat="40.707403" lon="-3.276220">
        <ele>864.122</ele>
        <time>2019-04-21T10:38:51Z</time>
      </trkpt>
      <trkpt lat="40.707495" lon="-3.276130">
        <ele>863.894</ele>
        <time>2019-04-21T10:38:52Z</time>
      </trkpt>
      <trkpt lat="40.707582" lon="-3.276045">
        <ele>863.157</ele>
        <time>2019-04-21T10:38:53Z</time>
      </trkpt>
      <trkpt lat="40.707670" lon="-3.275968">
        <ele>862.522</ele>
        <time>2019-04-21T10:38:54Z</time>
      </trkpt>
      <trkpt lat="40.707768" lon="-3.275908">
        <ele>862.008</ele>
        <time>2019-04-21T10:38:55Z</time>
      </trkpt>
      <trkpt lat="40.707872" lon="-3.275847">
        <ele>861.762</ele>
        <time>2019-04-21T10:38:56Z</time>
      </trkpt>
      <trkpt lat="40.707972" lon="-3.275773">
        <ele>861.554</ele>
        <time>2019-04-21T10:38:57Z</time>
      </trkpt>
      <trkpt lat="40.708072" lon="-3.275694">
        <ele>861.784</ele>
        <time>2019-04-21T10:38:58Z</time>
      </trkpt>
      <trkpt lat="40.708173" lon="-3.275612">
        <ele>862.089</ele>
        <time>2019-04-21T10:38:59Z</time>
      </trkpt>
      <trkpt lat="40.708276" lon="-3.275532">
        <ele>862.141</ele>
        <time>2019-04-21T10:39:00Z</time>
      </trkpt>
      <trkpt lat="40.708381" lon="-3.275452">
        <ele>862.163</ele>
        <time>2019-04-21T10:39:01Z</time>
      </trkpt>
      <trkpt lat="40.708484" lon="-3.275370">
        <ele>862.137</ele>
        <time>2019-04-21T10:39:02Z</time>
      </trkpt>
      <trkpt lat="40.708589" lon="-3.275290">
        <ele>862.038</ele>
        <time>2019-04-21T10:39:03Z</time>
      </trkpt>
      <trkpt lat="40.708689" lon="-3.275197">
        <ele>862.049</ele>
        <time>2019-04-21T10:39:04Z</time>
      </trkpt>
      <trkpt lat="40.708788" lon="-3.275101">
        <ele>862.202</ele>
        <time>2019-04-21T10:39:05Z</time>
      </trkpt>
      <trkpt lat="40.708890" lon="-3.275008">
        <ele>862.422</ele>
        <time>2019-04-21T10:39:06Z</time>
      </trkpt>
      <trkpt lat="40.708990" lon="-3.274908">
        <ele>862.608</ele>
        <time>2019-04-21T10:39:07Z</time>
      </trkpt>
      <trkpt lat="40.709096" lon="-3.274816">
        <ele>862.617</ele>
        <time>2019-04-21T10:39:08Z</time>
      </trkpt>
      <trkpt lat="40.709204" lon="-3.274722">
        <ele>862.289</ele>
        <time>2019-04-21T10:39:09Z</time>
      </trkpt>
      <trkpt lat="40.709312" lon="-3.274624">
        <ele>860.949</ele>
        <time>2019-04-21T10:39:10Z</time>
      </trkpt>
      <trkpt lat="40.709422" lon="-3.274528">
        <ele>860.134</ele>
        <time>2019-04-21T10:39:11Z</time>
      </trkpt>
      <trkpt lat="40.709531" lon="-3.274426">
        <ele>859.246</ele>
        <time>2019-04-21T10:39:12Z</time>
      </trkpt>
      <trkpt lat="40.709646" lon="-3.274329">
        <ele>858.418</ele>
        <time>2019-04-21T10:39:13Z</time>
      </trkpt>
      <trkpt lat="40.709758" lon="-3.274226">
        <ele>857.712</ele>
        <time>2019-04-21T10:39:14Z</time>
      </trkpt>
      <trkpt lat="40.709872" lon="-3.274122">
        <ele>857.123</ele>
        <time>2019-04-21T10:39:15Z</time>
      </trkpt>
      <trkpt lat="40.709984" lon="-3.274021">
        <ele>856.525</ele>
        <time>2019-04-21T10:39:16Z</time>
      </trkpt>
      <trkpt lat="40.710096" lon="-3.273919">
        <ele>855.926</ele>
        <time>2019-04-21T10:39:17Z</time>
      </trkpt>
      <trkpt lat="40.710207" lon="-3.273816">
        <ele>855.008</ele>
        <time>2019-04-21T10:39:18Z</time>
      </trkpt>
      <trkpt lat="40.710313" lon="-3.273707">
        <ele>854.008</ele>
        <time>2019-04-21T10:39:19Z</time>
      </trkpt>
      <trkpt lat="40.710421" lon="-3.273603">
        <ele>852.875</ele>
        <time>2019-04-21T10:39:20Z</time>
      </trkpt>
      <trkpt lat="40.710525" lon="-3.273501">
        <ele>851.447</ele>
        <time>2019-04-21T10:39:21Z</time>
      </trkpt>
      <trkpt lat="40.710629" lon="-3.273402">
        <ele>850.427</ele>
        <time>2019-04-21T10:39:22Z</time>
      </trkpt>
      <trkpt lat="40.710729" lon="-3.273307">
        <ele>848.572</ele>
        <time>2019-04-21T10:39:23Z</time>
      </trkpt>
      <trkpt lat="40.710823" lon="-3.273206">
        <ele>847.874</ele>
        <time>2019-04-21T10:39:24Z</time>
      </trkpt>
      <trkpt lat="40.710917" lon="-3.273104">
        <ele>847.126</ele>
        <time>2019-04-21T10:39:25Z</time>
      </trkpt>
      <trkpt lat="40.711007" lon="-3.272999">
        <ele>846.280</ele>
        <time>2019-04-21T10:39:26Z</time>
      </trkpt>
      <trkpt lat="40.711086" lon="-3.272886">
        <ele>845.311</ele>
        <time>2019-04-21T10:39:27Z</time>
      </trkpt>
      <trkpt lat="40.711155" lon="-3.272765">
        <ele>843.951</ele>
        <time>2019-04-21T10:39:28Z</time>
      </trkpt>
      <trkpt lat="40.711212" lon="-3.272638">
        <ele>842.401</ele>
        <time>2019-04-21T10:39:29Z</time>
      </trkpt>
      <trkpt lat="40.711253" lon="-3.272504">
        <ele>841.111</ele>
        <time>2019-04-21T10:39:30Z</time>
      </trkpt>
      <trkpt lat="40.711276" lon="-3.272359">
        <ele>840.008</ele>
        <time>2019-04-21T10:39:31Z</time>
      </trkpt>
      <trkpt lat="40.711283" lon="-3.272209">
        <ele>839.058</ele>
        <time>2019-04-21T10:39:32Z</time>
      </trkpt>
      <trkpt lat="40.711290" lon="-3.272060">
        <ele>838.570</ele>
        <time>2019-04-21T10:39:33Z</time>
      </trkpt>
      <trkpt lat="40.711298" lon="-3.271918">
        <ele>838.220</ele>
        <time>2019-04-21T10:39:34Z</time>
      </trkpt>
      <trkpt lat="40.711302" lon="-3.271797">
        <ele>837.655</ele>
        <time>2019-04-21T10:39:35Z</time>
      </trkpt>
      <trkpt lat="40.711295" lon="-3.271692">
        <ele>836.277</ele>
        <time>2019-04-21T10:39:36Z</time>
      </trkpt>
      <trkpt lat="40.711295" lon="-3.271600">
        <ele>835.229</ele>
        <time>2019-04-21T10:39:37Z</time>
      </trkpt>
      <trkpt lat="40.711305" lon="-3.271516">
        <ele>834.293</ele>
        <time>2019-04-21T10:39:38Z</time>
      </trkpt>
      <trkpt lat="40.711315" lon="-3.271445">
        <ele>833.324</ele>
        <time>2019-04-21T10:39:39Z</time>
      </trkpt>
      <trkpt lat="40.711333" lon="-3.271343">
        <ele>831.823</ele>
        <time>2019-04-21T10:39:41Z</time>
      </trkpt>
      <trkpt lat="40.711354" lon="-3.271247">
        <ele>830.683</ele>
        <time>2019-04-21T10:39:43Z</time>
      </trkpt>
      <trkpt lat="40.711361" lon="-3.271177">
        <ele>830.311</ele>
        <time>2019-04-21T10:39:44Z</time>
      </trkpt>
      <trkpt lat="40.711366" lon="-3.271100">
        <ele>830.108</ele>
        <time>2019-04-21T10:39:45Z</time>
      </trkpt>
      <trkpt lat="40.711381" lon="-3.271026">
        <ele>829.985</ele>
        <time>2019-04-21T10:39:46Z</time>
      </trkpt>
      <trkpt lat="40.711411" lon="-3.270960">
        <ele>829.957</ele>
        <time>2019-04-21T10:39:47Z</time>
      </trkpt>
      <trkpt lat="40.711458" lon="-3.270908">
        <ele>829.827</ele>
        <time>2019-04-21T10:39:48Z</time>
      </trkpt>
      <trkpt lat="40.711522" lon="-3.270884">
        <ele>829.782</ele>
        <time>2019-04-21T10:39:49Z</time>
      </trkpt>
      <trkpt lat="40.711593" lon="-3.270878">
        <ele>829.784</ele>
        <time>2019-04-21T10:39:50Z</time>
      </trkpt>
      <trkpt lat="40.711660" lon="-3.270855">
        <ele>829.996</ele>
        <time>2019-04-21T10:39:51Z</time>
      </trkpt>
      <trkpt lat="40.711719" lon="-3.270822">
        <ele>830.170</ele>
        <time>2019-04-21T10:39:52Z</time>
      </trkpt>
      <trkpt lat="40.711775" lon="-3.270803">
        <ele>830.411</ele>
        <time>2019-04-21T10:39:53Z</time>
      </trkpt>
      <trkpt lat="40.711819" lon="-3.270773">
        <ele>830.927</ele>
        <time>2019-04-21T10:39:54Z</time>
      </trkpt>
      <trkpt lat="40.711854" lon="-3.270732">
        <ele>831.468</ele>
        <time>2019-04-21T10:39:55Z</time>
      </trkpt>
      <trkpt lat="40.711895" lon="-3.270695">
        <ele>831.914</ele>
        <time>2019-04-21T10:39:56Z</time>
      </trkpt>
      <trkpt lat="40.711939" lon="-3.270656">
        <ele>832.208</ele>
        <time>2019-04-21T10:39:57Z</time>
      </trkpt>
      <trkpt lat="40.711982" lon="-3.270615">
        <ele>832.895</ele>
        <time>2019-04-21T10:39:58Z</time>
      </trkpt>
      <trkpt lat="40.712019" lon="-3.270561">
        <ele>833.387</ele>
        <time>2019-04-21T10:39:59Z</time>
      </trkpt>
      <trkpt lat="40.712055" lon="-3.270506">
        <ele>833.967</ele>
        <time>2019-04-21T10:40:00Z</time>
      </trkpt>
      <trkpt lat="40.712091" lon="-3.270453">
        <ele>835.052</ele>
        <time>2019-04-21T10:40:01Z</time>
      </trkpt>
      <trkpt lat="40.712131" lon="-3.270405">
        <ele>835.514</ele>
        <time>2019-04-21T10:40:02Z</time>
      </trkpt>
      <trkpt lat="40.712177" lon="-3.270366">
        <ele>836.116</ele>
        <time>2019-04-21T10:40:03Z</time>
      </trkpt>
      <trkpt lat="40.712217" lon="-3.270321">
        <ele>836.450</ele>
        <time>2019-04-21T10:40:04Z</time>
      </trkpt>
      <trkpt lat="40.712264" lon="-3.270293">
        <ele>836.841</ele>
        <time>2019-04-21T10:40:05Z</time>
      </trkpt>
      <trkpt lat="40.712317" lon="-3.270271">
        <ele>837.064</ele>
        <time>2019-04-21T10:40:06Z</time>
      </trkpt>
      <trkpt lat="40.712370" lon="-3.270245">
        <ele>837.306</ele>
        <time>2019-04-21T10:40:07Z</time>
      </trkpt>
      <trkpt lat="40.712423" lon="-3.270215">
        <ele>837.716</ele>
        <time>2019-04-21T10:40:08Z</time>
      </trkpt>
      <trkpt lat="40.712476" lon="-3.270185">
        <ele>838.108</ele>
        <time>2019-04-21T10:40:09Z</time>
      </trkpt>
      <trkpt lat="40.712529" lon="-3.270159">
        <ele>838.699</ele>
        <time>2019-04-21T10:40:10Z</time>
      </trkpt>
      <trkpt lat="40.712581" lon="-3.270136">
        <ele>839.141</ele>
        <time>2019-04-21T10:40:11Z</time>
      </trkpt>
      <trkpt lat="40.712657" lon="-3.270114">
        <ele>839.511</ele>
        <time>2019-04-21T10:40:13Z</time>
      </trkpt>
      <trkpt lat="40.712698" lon="-3.270039">
        <ele>838.986</ele>
        <time>2019-04-21T10:40:15Z</time>
      </trkpt>
      <trkpt lat="40.712705" lon="-3.269972">
        <ele>838.658</ele>
        <time>2019-04-21T10:40:16Z</time>
      </trkpt>
      <trkpt lat="40.712711" lon="-3.269896">
        <ele>838.370</ele>
        <time>2019-04-21T10:40:17Z</time>
      </trkpt>
      <trkpt lat="40.712710" lon="-3.269815">
        <ele>837.944</ele>
        <time>2019-04-21T10:40:18Z</time>
      </trkpt>
      <trkpt lat="40.712715" lon="-3.269732">
        <ele>837.595</ele>
        <time>2019-04-21T10:40:19Z</time>
      </trkpt>
      <trkpt lat="40.712729" lon="-3.269648">
        <ele>837.176</ele>
        <time>2019-04-21T10:40:20Z</time>
      </trkpt>
      <trkpt lat="40.712743" lon="-3.269566">
        <ele>836.790</ele>
        <time>2019-04-21T10:40:21Z</time>
      </trkpt>
      <trkpt lat="40.712792" lon="-3.269532">
        <ele>836.319</ele>
        <time>2019-04-21T10:40:22Z</time>
      </trkpt>
      <trkpt lat="40.712839" lon="-3.269503">
        <ele>836.008</ele>
        <time>2019-04-21T10:40:23Z</time>
      </trkpt>
      <trkpt lat="40.712901" lon="-3.269528">
        <ele>835.990</ele>
        <time>2019-04-21T10:40:24Z</time>
      </trkpt>
      <trkpt lat="40.712965" lon="-3.269528">
        <ele>835.922</ele>
        <time>2019-04-21T10:40:25Z</time>
      </trkpt>
      <trkpt lat="40.713032" lon="-3.269526">
        <ele>836.692</ele>
        <time>2019-04-21T10:40:26Z</time>
      </trkpt>
      <trkpt lat="40.713098" lon="-3.269516">
        <ele>837.217</ele>
        <time>2019-04-21T10:40:27Z</time>
      </trkpt>
      <trkpt lat="40.713166" lon="-3.269503">
        <ele>837.839</ele>
        <time>2019-04-21T10:40:28Z</time>
      </trkpt>
      <trkpt lat="40.713237" lon="-3.269487">
        <ele>838.311</ele>
        <time>2019-04-21T10:40:29Z</time>
      </trkpt>
      <trkpt lat="40.713310" lon="-3.269458">
        <ele>838.855</ele>
        <time>2019-04-21T10:40:30Z</time>
      </trkpt>
      <trkpt lat="40.713378" lon="-3.269430">
        <ele>839.366</ele>
        <time>2019-04-21T10:40:31Z</time>
      </trkpt>
      <trkpt lat="40.713443" lon="-3.269395">
        <ele>839.816</ele>
        <time>2019-04-21T10:40:32Z</time>
      </trkpt>
      <trkpt lat="40.713504" lon="-3.269349">
        <ele>840.376</ele>
        <time>2019-04-21T10:40:33Z</time>
      </trkpt>
      <trkpt lat="40.713556" lon="-3.269296">
        <ele>840.913</ele>
        <time>2019-04-21T10:40:34Z</time>
      </trkpt>
      <trkpt lat="40.713604" lon="-3.269238">
        <ele>841.508</ele>
        <time>2019-04-21T10:40:35Z</time>
      </trkpt>
      <trkpt lat="40.713643" lon="-3.269180">
        <ele>842.144</ele>
        <time>2019-04-21T10:40:36Z</time>
      </trkpt>
      <trkpt lat="40.713679" lon="-3.269139">
        <ele>842.726</ele>
        <time>2019-04-21T10:40:37Z</time>
      </trkpt>
      <trkpt lat="40.713716" lon="-3.269073">
        <ele>844.116</ele>
        <time>2019-04-21T10:40:39Z</time>
      </trkpt>
      <trkpt lat="40.713774" lon="-3.269066">
        <ele>845.261</ele>
        <time>2019-04-21T10:40:45Z</time>
      </trkpt>
      <trkpt lat="40.713805" lon="-3.269123">
        <ele>845.573</ele>
        <time>2019-04-21T10:40:46Z</time>
      </trkpt>
      <trkpt lat="40.713835" lon="-3.269193">
        <ele>845.815</ele>
        <time>2019-04-21T10:40:47Z</time>
      </trkpt>
      <trkpt lat="40.713854" lon="-3.269269">
        <ele>846.099</ele>
        <time>2019-04-21T10:40:48Z</time>
      </trkpt>
      <trkpt lat="40.713889" lon="-3.269346">
        <ele>846.170</ele>
        <time>2019-04-21T10:40:49Z</time>
      </trkpt>
      <trkpt lat="40.713925" lon="-3.269427">
        <ele>846.276</ele>
        <time>2019-04-21T10:40:50Z</time>
      </trkpt>
      <trkpt lat="40.713956" lon="-3.269506">
        <ele>846.290</ele>
        <time>2019-04-21T10:40:51Z</time>
      </trkpt>
      <trkpt lat="40.713983" lon="-3.269585">
        <ele>846.219</ele>
        <time>2019-04-21T10:40:52Z</time>
      </trkpt>
      <trkpt lat="40.714030" lon="-3.269654">
        <ele>846.208</ele>
        <time>2019-04-21T10:40:53Z</time>
      </trkpt>
      <trkpt lat="40.714062" lon="-3.269734">
        <ele>846.220</ele>
        <time>2019-04-21T10:40:54Z</time>
      </trkpt>
      <trkpt lat="40.714086" lon="-3.269828">
        <ele>846.282</ele>
        <time>2019-04-21T10:40:55Z</time>
      </trkpt>
      <trkpt lat="40.714123" lon="-3.269906">
        <ele>846.352</ele>
        <time>2019-04-21T10:40:56Z</time>
      </trkpt>
      <trkpt lat="40.714150" lon="-3.269978">
        <ele>846.517</ele>
        <time>2019-04-21T10:40:57Z</time>
      </trkpt>
      <trkpt lat="40.714183" lon="-3.270043">
        <ele>846.669</ele>
        <time>2019-04-21T10:40:58Z</time>
      </trkpt>
      <trkpt lat="40.714202" lon="-3.270106">
        <ele>846.761</ele>
        <time>2019-04-21T10:40:59Z</time>
      </trkpt>
      <trkpt lat="40.714206" lon="-3.270169">
        <ele>846.835</ele>
        <time>2019-04-21T10:41:00Z</time>
      </trkpt>
      <trkpt lat="40.714221" lon="-3.270235">
        <ele>846.886</ele>
        <time>2019-04-21T10:41:01Z</time>
      </trkpt>
      <trkpt lat="40.714241" lon="-3.270296">
        <ele>846.921</ele>
        <time>2019-04-21T10:41:02Z</time>
      </trkpt>
      <trkpt lat="40.714270" lon="-3.270355">
        <ele>847.041</ele>
        <time>2019-04-21T10:41:03Z</time>
      </trkpt>
      <trkpt lat="40.714305" lon="-3.270419">
        <ele>847.405</ele>
        <time>2019-04-21T10:41:04Z</time>
      </trkpt>
      <trkpt lat="40.714343" lon="-3.270480">
        <ele>847.708</ele>
        <time>2019-04-21T10:41:05Z</time>
      </trkpt>
      <trkpt lat="40.714385" lon="-3.270542">
        <ele>848.045</ele>
        <time>2019-04-21T10:41:06Z</time>
      </trkpt>
      <trkpt lat="40.714425" lon="-3.270609">
        <ele>848.257</ele>
        <time>2019-04-21T10:41:07Z</time>
      </trkpt>
      <trkpt lat="40.714467" lon="-3.270670">
        <ele>848.767</ele>
        <time>2019-04-21T10:41:08Z</time>
      </trkpt>
      <trkpt lat="40.714507" lon="-3.270731">
        <ele>849.192</ele>
        <time>2019-04-21T10:41:09Z</time>
      </trkpt>
      <trkpt lat="40.714542" lon="-3.270800">
        <ele>849.554</ele>
        <time>2019-04-21T10:41:10Z</time>
      </trkpt>
      <trkpt lat="40.714578" lon="-3.270857">
        <ele>849.786</ele>
        <time>2019-04-21T10:41:11Z</time>
      </trkpt>
      <trkpt lat="40.714598" lon="-3.270918">
        <ele>850.040</ele>
        <time>2019-04-21T10:41:12Z</time>
      </trkpt>
      <trkpt lat="40.714622" lon="-3.270988">
        <ele>850.011</ele>
        <time>2019-04-21T10:41:14Z</time>
      </trkpt>
      <trkpt lat="40.714687" lon="-3.270960">
        <ele>850.272</ele>
        <time>2019-04-21T10:41:16Z</time>
      </trkpt>
      <trkpt lat="40.714732" lon="-3.270928">
        <ele>850.613</ele>
        <time>2019-04-21T10:41:17Z</time>
      </trkpt>
      <trkpt lat="40.714783" lon="-3.270874">
        <ele>850.814</ele>
        <time>2019-04-21T10:41:18Z</time>
      </trkpt>
      <trkpt lat="40.714838" lon="-3.270822">
        <ele>851.108</ele>
        <time>2019-04-21T10:41:19Z</time>
      </trkpt>
      <trkpt lat="40.714896" lon="-3.270759">
        <ele>851.470</ele>
        <time>2019-04-21T10:41:20Z</time>
      </trkpt>
      <trkpt lat="40.714961" lon="-3.270690">
        <ele>851.772</ele>
        <time>2019-04-21T10:41:21Z</time>
      </trkpt>
      <trkpt lat="40.715034" lon="-3.270627">
        <ele>851.992</ele>
        <time>2019-04-21T10:41:22Z</time>
      </trkpt>
      <trkpt lat="40.715098" lon="-3.270557">
        <ele>852.157</ele>
        <time>2019-04-21T10:41:23Z</time>
      </trkpt>
      <trkpt lat="40.715162" lon="-3.270501">
        <ele>852.349</ele>
        <time>2019-04-21T10:41:24Z</time>
      </trkpt>
      <trkpt lat="40.715218" lon="-3.270437">
        <ele>852.381</ele>
        <time>2019-04-21T10:41:25Z</time>
      </trkpt>
      <trkpt lat="40.715273" lon="-3.270382">
        <ele>852.385</ele>
        <time>2019-04-21T10:41:26Z</time>
      </trkpt>
      <trkpt lat="40.715314" lon="-3.270335">
        <ele>852.146</ele>
        <time>2019-04-21T10:41:27Z</time>
      </trkpt>
      <trkpt lat="40.715356" lon="-3.270262">
        <ele>851.413</ele>
        <time>2019-04-21T10:41:29Z</time>
      </trkpt>
      <trkpt lat="40.715367" lon="-3.270148">
        <ele>850.043</ele>
        <time>2019-04-21T10:41:31Z</time>
      </trkpt>
      <trkpt lat="40.715364" lon="-3.270070">
        <ele>849.707</ele>
        <time>2019-04-21T10:41:32Z</time>
      </trkpt>
      <trkpt lat="40.715356" lon="-3.269986">
        <ele>849.608</ele>
        <time>2019-04-21T10:41:33Z</time>
      </trkpt>
      <trkpt lat="40.715353" lon="-3.269897">
        <ele>849.644</ele>
        <time>2019-04-21T10:41:34Z</time>
      </trkpt>
      <trkpt lat="40.715344" lon="-3.269808">
        <ele>849.696</ele>
        <time>2019-04-21T10:41:35Z</time>
      </trkpt>
      <trkpt lat="40.715340" lon="-3.269718">
        <ele>849.676</ele>
        <time>2019-04-21T10:41:36Z</time>
      </trkpt>
      <trkpt lat="40.715328" lon="-3.269630">
        <ele>849.671</ele>
        <time>2019-04-21T10:41:37Z</time>
      </trkpt>
      <trkpt lat="40.715317" lon="-3.269550">
        <ele>849.553</ele>
        <time>2019-04-21T10:41:38Z</time>
      </trkpt>
      <trkpt lat="40.715307" lon="-3.269472">
        <ele>849.495</ele>
        <time>2019-04-21T10:41:39Z</time>
      </trkpt>
      <trkpt lat="40.715286" lon="-3.269389">
        <ele>849.349</ele>
        <time>2019-04-21T10:41:40Z</time>
      </trkpt>
      <trkpt lat="40.715251" lon="-3.269313">
        <ele>849.290</ele>
        <time>2019-04-21T10:41:41Z</time>
      </trkpt>
      <trkpt lat="40.715209" lon="-3.269239">
        <ele>849.166</ele>
        <time>2019-04-21T10:41:42Z</time>
      </trkpt>
      <trkpt lat="40.715170" lon="-3.269157">
        <ele>849.029</ele>
        <time>2019-04-21T10:41:43Z</time>
      </trkpt>
      <trkpt lat="40.715138" lon="-3.269067">
        <ele>849.021</ele>
        <time>2019-04-21T10:41:44Z</time>
      </trkpt>
      <trkpt lat="40.715089" lon="-3.268998">
        <ele>848.908</ele>
        <time>2019-04-21T10:41:45Z</time>
      </trkpt>
      <trkpt lat="40.715067" lon="-3.268922">
        <ele>848.719</ele>
        <time>2019-04-21T10:41:46Z</time>
      </trkpt>
      <trkpt lat="40.715047" lon="-3.268868">
        <ele>848.411</ele>
        <time>2019-04-21T10:41:47Z</time>
      </trkpt>
      <trkpt lat="40.715019" lon="-3.268811">
        <ele>847.731</ele>
        <time>2019-04-21T10:41:49Z</time>
      </trkpt>
      <trkpt lat="40.714985" lon="-3.268753">
        <ele>846.946</ele>
        <time>2019-04-21T10:41:52Z</time>
      </trkpt>
      <trkpt lat="40.715030" lon="-3.268793">
        <ele>847.218</ele>
        <time>2019-04-21T10:42:05Z</time>
      </trkpt>
      <trkpt lat="40.715060" lon="-3.268848">
        <ele>847.230</ele>
        <time>2019-04-21T10:42:06Z</time>
      </trkpt>
      <trkpt lat="40.715087" lon="-3.268924">
        <ele>847.294</ele>
        <time>2019-04-21T10:42:07Z</time>
      </trkpt>
      <trkpt lat="40.715108" lon="-3.268983">
        <ele>847.275</ele>
        <time>2019-04-21T10:42:08Z</time>
      </trkpt>
      <trkpt lat="40.715133" lon="-3.269039">
        <ele>847.211</ele>
        <time>2019-04-21T10:42:09Z</time>
      </trkpt>
      <trkpt lat="40.715162" lon="-3.269090">
        <ele>847.221</ele>
        <time>2019-04-21T10:42:10Z</time>
      </trkpt>
      <trkpt lat="40.715210" lon="-3.269164">
        <ele>847.203</ele>
        <time>2019-04-21T10:42:12Z</time>
      </trkpt>
      <trkpt lat="40.715273" lon="-3.269191">
        <ele>847.408</ele>
        <time>2019-04-21T10:42:14Z</time>
      </trkpt>
      <trkpt lat="40.715309" lon="-3.269130">
        <ele>847.614</ele>
        <time>2019-04-21T10:42:15Z</time>
      </trkpt>
      <trkpt lat="40.715342" lon="-3.269068">
        <ele>847.846</ele>
        <time>2019-04-21T10:42:16Z</time>
      </trkpt>
      <trkpt lat="40.715389" lon="-3.269005">
        <ele>848.016</ele>
        <time>2019-04-21T10:42:17Z</time>
      </trkpt>
      <trkpt lat="40.715431" lon="-3.268949">
        <ele>848.171</ele>
        <time>2019-04-21T10:42:18Z</time>
      </trkpt>
      <trkpt lat="40.715470" lon="-3.268886">
        <ele>848.173</ele>
        <time>2019-04-21T10:42:19Z</time>
      </trkpt>
      <trkpt lat="40.715529" lon="-3.268770">
        <ele>847.765</ele>
        <time>2019-04-21T10:42:21Z</time>
      </trkpt>
      <trkpt lat="40.715568" lon="-3.268698">
        <ele>847.549</ele>
        <time>2019-04-21T10:42:22Z</time>
      </trkpt>
      <trkpt lat="40.715602" lon="-3.268610">
        <ele>847.270</ele>
        <time>2019-04-21T10:42:23Z</time>
      </trkpt>
      <trkpt lat="40.715625" lon="-3.268539">
        <ele>846.856</ele>
        <time>2019-04-21T10:42:24Z</time>
      </trkpt>
      <trkpt lat="40.715658" lon="-3.268463">
        <ele>846.359</ele>
        <time>2019-04-21T10:42:25Z</time>
      </trkpt>
      <trkpt lat="40.715693" lon="-3.268383">
        <ele>845.714</ele>
        <time>2019-04-21T10:42:26Z</time>
      </trkpt>
      <trkpt lat="40.715734" lon="-3.268310">
        <ele>845.008</ele>
        <time>2019-04-21T10:42:27Z</time>
      </trkpt>
      <trkpt lat="40.715767" lon="-3.268233">
        <ele>844.228</ele>
        <time>2019-04-21T10:42:28Z</time>
      </trkpt>
      <trkpt lat="40.715791" lon="-3.268172">
        <ele>843.390</ele>
        <time>2019-04-21T10:42:29Z</time>
      </trkpt>
      <trkpt lat="40.715815" lon="-3.268084">
        <ele>842.470</ele>
        <time>2019-04-21T10:42:30Z</time>
      </trkpt>
      <trkpt lat="40.715836" lon="-3.268030">
        <ele>841.665</ele>
        <time>2019-04-21T10:42:31Z</time>
      </trkpt>
      <trkpt lat="40.715855" lon="-3.267949">
        <ele>841.097</ele>
        <time>2019-04-21T10:42:32Z</time>
      </trkpt>
      <trkpt lat="40.715874" lon="-3.267864">
        <ele>840.479</ele>
        <time>2019-04-21T10:42:33Z</time>
      </trkpt>
      <trkpt lat="40.715891" lon="-3.267793">
        <ele>839.353</ele>
        <time>2019-04-21T10:42:34Z</time>
      </trkpt>
      <trkpt lat="40.715921" lon="-3.267714">
        <ele>838.844</ele>
        <time>2019-04-21T10:42:35Z</time>
      </trkpt>
      <trkpt lat="40.715945" lon="-3.267636">
        <ele>838.224</ele>
        <time>2019-04-21T10:42:36Z</time>
      </trkpt>
      <trkpt lat="40.715979" lon="-3.267537">
        <ele>837.304</ele>
        <time>2019-04-21T10:42:37Z</time>
      </trkpt>
      <trkpt lat="40.716013" lon="-3.267435">
        <ele>836.914</ele>
        <time>2019-04-21T10:42:38Z</time>
      </trkpt>
      <trkpt lat="40.716043" lon="-3.267338">
        <ele>836.008</ele>
        <time>2019-04-21T10:42:39Z</time>
      </trkpt>
      <trkpt lat="40.716074" lon="-3.267236">
        <ele>835.555</ele>
        <time>2019-04-21T10:42:40Z</time>
      </trkpt>
      <trkpt lat="40.716100" lon="-3.267139">
        <ele>834.797</ele>
        <time>2019-04-21T10:42:41Z</time>
      </trkpt>
      <trkpt lat="40.716129" lon="-3.267041">
        <ele>834.397</ele>
        <time>2019-04-21T10:42:42Z</time>
      </trkpt>
      <trkpt lat="40.716162" lon="-3.266939">
        <ele>833.562</ele>
        <time>2019-04-21T10:42:43Z</time>
      </trkpt>
      <trkpt lat="40.716195" lon="-3.266848">
        <ele>833.074</ele>
        <time>2019-04-21T10:42:44Z</time>
      </trkpt>
      <trkpt lat="40.716221" lon="-3.266757">
        <ele>832.266</ele>
        <time>2019-04-21T10:42:45Z</time>
      </trkpt>
      <trkpt lat="40.716257" lon="-3.266653">
        <ele>831.790</ele>
        <time>2019-04-21T10:42:46Z</time>
      </trkpt>
      <trkpt lat="40.716292" lon="-3.266557">
        <ele>830.021</ele>
        <time>2019-04-21T10:42:47Z</time>
      </trkpt>
      <trkpt lat="40.716330" lon="-3.266468">
        <ele>829.337</ele>
        <time>2019-04-21T10:42:48Z</time>
      </trkpt>
      <trkpt lat="40.716370" lon="-3.266384">
        <ele>828.649</ele>
        <time>2019-04-21T10:42:49Z</time>
      </trkpt>
      <trkpt lat="40.716412" lon="-3.266302">
        <ele>827.913</ele>
        <time>2019-04-21T10:42:50Z</time>
      </trkpt>
      <trkpt lat="40.716459" lon="-3.266213">
        <ele>827.308</ele>
        <time>2019-04-21T10:42:51Z</time>
      </trkpt>
      <trkpt lat="40.716512" lon="-3.266114">
        <ele>826.886</ele>
        <time>2019-04-21T10:42:52Z</time>
      </trkpt>
      <trkpt lat="40.716569" lon="-3.266020">
        <ele>826.398</ele>
        <time>2019-04-21T10:42:53Z</time>
      </trkpt>
      <trkpt lat="40.716619" lon="-3.265929">
        <ele>825.758</ele>
        <time>2019-04-21T10:42:54Z</time>
      </trkpt>
      <trkpt lat="40.716671" lon="-3.265845">
        <ele>825.173</ele>
        <time>2019-04-21T10:42:55Z</time>
      </trkpt>
      <trkpt lat="40.716728" lon="-3.265759">
        <ele>824.645</ele>
        <time>2019-04-21T10:42:56Z</time>
      </trkpt>
      <trkpt lat="40.716789" lon="-3.265658">
        <ele>824.087</ele>
        <time>2019-04-21T10:42:57Z</time>
      </trkpt>
      <trkpt lat="40.716855" lon="-3.265558">
        <ele>823.421</ele>
        <time>2019-04-21T10:42:58Z</time>
      </trkpt>
      <trkpt lat="40.716925" lon="-3.265452">
        <ele>822.912</ele>
        <time>2019-04-21T10:42:59Z</time>
      </trkpt>
      <trkpt lat="40.716993" lon="-3.265343">
        <ele>822.215</ele>
        <time>2019-04-21T10:43:00Z</time>
      </trkpt>
      <trkpt lat="40.717063" lon="-3.265234">
        <ele>821.965</ele>
        <time>2019-04-21T10:43:01Z</time>
      </trkpt>
      <trkpt lat="40.717124" lon="-3.265133">
        <ele>821.711</ele>
        <time>2019-04-21T10:43:02Z</time>
      </trkpt>
      <trkpt lat="40.717200" lon="-3.265034">
        <ele>821.108</ele>
        <time>2019-04-21T10:43:03Z</time>
      </trkpt>
      <trkpt lat="40.717291" lon="-3.264935">
        <ele>821.074</ele>
        <time>2019-04-21T10:43:04Z</time>
      </trkpt>
      <trkpt lat="40.717382" lon="-3.264837">
        <ele>820.996</ele>
        <time>2019-04-21T10:43:05Z</time>
      </trkpt>
      <trkpt lat="40.717466" lon="-3.264752">
        <ele>820.656</ele>
        <time>2019-04-21T10:43:06Z</time>
      </trkpt>
      <trkpt lat="40.717556" lon="-3.264665">
        <ele>820.381</ele>
        <time>2019-04-21T10:43:07Z</time>
      </trkpt>
      <trkpt lat="40.717649" lon="-3.264587">
        <ele>820.233</ele>
        <time>2019-04-21T10:43:08Z</time>
      </trkpt>
      <trkpt lat="40.717735" lon="-3.264506">
        <ele>819.895</ele>
        <time>2019-04-21T10:43:09Z</time>
      </trkpt>
      <trkpt lat="40.717824" lon="-3.264424">
        <ele>819.469</ele>
        <time>2019-04-21T10:43:10Z</time>
      </trkpt>
      <trkpt lat="40.717913" lon="-3.264335">
        <ele>819.190</ele>
        <time>2019-04-21T10:43:11Z</time>
      </trkpt>
      <trkpt lat="40.717998" lon="-3.264236">
        <ele>818.961</ele>
        <time>2019-04-21T10:43:12Z</time>
      </trkpt>
      <trkpt lat="40.718081" lon="-3.264145">
        <ele>818.521</ele>
        <time>2019-04-21T10:43:13Z</time>
      </trkpt>
      <trkpt lat="40.718169" lon="-3.264053">
        <ele>818.513</ele>
        <time>2019-04-21T10:43:14Z</time>
      </trkpt>
      <trkpt lat="40.718259" lon="-3.263957">
        <ele>818.508</ele>
        <time>2019-04-21T10:43:15Z</time>
      </trkpt>
      <trkpt lat="40.718348" lon="-3.263858">
        <ele>818.519</ele>
        <time>2019-04-21T10:43:16Z</time>
      </trkpt>
      <trkpt lat="40.718439" lon="-3.263765">
        <ele>819.061</ele>
        <time>2019-04-21T10:43:17Z</time>
      </trkpt>
      <trkpt lat="40.718529" lon="-3.263665">
        <ele>819.241</ele>
        <time>2019-04-21T10:43:18Z</time>
      </trkpt>
      <trkpt lat="40.718621" lon="-3.263568">
        <ele>819.876</ele>
        <time>2019-04-21T10:43:19Z</time>
      </trkpt>
      <trkpt lat="40.718715" lon="-3.263472">
        <ele>820.128</ele>
        <time>2019-04-21T10:43:20Z</time>
      </trkpt>
      <trkpt lat="40.718806" lon="-3.263375">
        <ele>820.640</ele>
        <time>2019-04-21T10:43:21Z</time>
      </trkpt>
      <trkpt lat="40.718896" lon="-3.263279">
        <ele>821.424</ele>
        <time>2019-04-21T10:43:22Z</time>
      </trkpt>
      <trkpt lat="40.718985" lon="-3.263182">
        <ele>822.695</ele>
        <time>2019-04-21T10:43:23Z</time>
      </trkpt>
      <trkpt lat="40.719072" lon="-3.263085">
        <ele>823.566</ele>
        <time>2019-04-21T10:43:24Z</time>
      </trkpt>
      <trkpt lat="40.719155" lon="-3.262986">
        <ele>824.629</ele>
        <time>2019-04-21T10:43:25Z</time>
      </trkpt>
      <trkpt lat="40.719243" lon="-3.262901">
        <ele>826.021</ele>
        <time>2019-04-21T10:43:26Z</time>
      </trkpt>
      <trkpt lat="40.719327" lon="-3.262811">
        <ele>826.208</ele>
        <time>2019-04-21T10:43:27Z</time>
      </trkpt>
      <trkpt lat="40.719408" lon="-3.262725">
        <ele>826.649</ele>
        <time>2019-04-21T10:43:28Z</time>
      </trkpt>
      <trkpt lat="40.719487" lon="-3.262637">
        <ele>827.481</ele>
        <time>2019-04-21T10:43:29Z</time>
      </trkpt>
      <trkpt lat="40.719566" lon="-3.262553">
        <ele>828.111</ele>
        <time>2019-04-21T10:43:30Z</time>
      </trkpt>
      <trkpt lat="40.719646" lon="-3.262478">
        <ele>828.996</ele>
        <time>2019-04-21T10:43:31Z</time>
      </trkpt>
      <trkpt lat="40.719723" lon="-3.262405">
        <ele>829.828</ele>
        <time>2019-04-21T10:43:32Z</time>
      </trkpt>
      <trkpt lat="40.719796" lon="-3.262338">
        <ele>830.790</ele>
        <time>2019-04-21T10:43:33Z</time>
      </trkpt>
      <trkpt lat="40.719863" lon="-3.262262">
        <ele>831.464</ele>
        <time>2019-04-21T10:43:34Z</time>
      </trkpt>
      <trkpt lat="40.719929" lon="-3.262186">
        <ele>832.415</ele>
        <time>2019-04-21T10:43:35Z</time>
      </trkpt>
      <trkpt lat="40.719993" lon="-3.262113">
        <ele>833.382</ele>
        <time>2019-04-21T10:43:36Z</time>
      </trkpt>
      <trkpt lat="40.720057" lon="-3.262046">
        <ele>834.143</ele>
        <time>2019-04-21T10:43:37Z</time>
      </trkpt>
      <trkpt lat="40.720120" lon="-3.261982">
        <ele>835.017</ele>
        <time>2019-04-21T10:43:38Z</time>
      </trkpt>
      <trkpt lat="40.720179" lon="-3.261918">
        <ele>836.708</ele>
        <time>2019-04-21T10:43:39Z</time>
      </trkpt>
      <trkpt lat="40.720239" lon="-3.261859">
        <ele>837.831</ele>
        <time>2019-04-21T10:43:40Z</time>
      </trkpt>
      <trkpt lat="40.720294" lon="-3.261800">
        <ele>838.853</ele>
        <time>2019-04-21T10:43:41Z</time>
      </trkpt>
      <trkpt lat="40.720353" lon="-3.261749">
        <ele>839.833</ele>
        <time>2019-04-21T10:43:42Z</time>
      </trkpt>
      <trkpt lat="40.720408" lon="-3.261690">
        <ele>840.758</ele>
        <time>2019-04-21T10:43:43Z</time>
      </trkpt>
      <trkpt lat="40.720463" lon="-3.261633">
        <ele>841.470</ele>
        <time>2019-04-21T10:43:44Z</time>
      </trkpt>
      <trkpt lat="40.720519" lon="-3.261577">
        <ele>841.922</ele>
        <time>2019-04-21T10:43:45Z</time>
      </trkpt>
      <trkpt lat="40.720568" lon="-3.261509">
        <ele>842.486</ele>
        <time>2019-04-21T10:43:46Z</time>
      </trkpt>
      <trkpt lat="40.720613" lon="-3.261424">
        <ele>842.847</ele>
        <time>2019-04-21T10:43:47Z</time>
      </trkpt>
      <trkpt lat="40.720668" lon="-3.261333">
        <ele>843.262</ele>
        <time>2019-04-21T10:43:48Z</time>
      </trkpt>
      <trkpt lat="40.720727" lon="-3.261231">
        <ele>843.783</ele>
        <time>2019-04-21T10:43:49Z</time>
      </trkpt>
      <trkpt lat="40.720788" lon="-3.261123">
        <ele>844.211</ele>
        <time>2019-04-21T10:43:50Z</time>
      </trkpt>
      <trkpt lat="40.720852" lon="-3.261013">
        <ele>845.108</ele>
        <time>2019-04-21T10:43:51Z</time>
      </trkpt>
      <trkpt lat="40.720919" lon="-3.260905">
        <ele>845.319</ele>
        <time>2019-04-21T10:43:52Z</time>
      </trkpt>
      <trkpt lat="40.720986" lon="-3.260790">
        <ele>845.461</ele>
        <time>2019-04-21T10:43:53Z</time>
      </trkpt>
      <trkpt lat="40.721055" lon="-3.260673">
        <ele>845.641</ele>
        <time>2019-04-21T10:43:54Z</time>
      </trkpt>
      <trkpt lat="40.721123" lon="-3.260554">
        <ele>845.736</ele>
        <time>2019-04-21T10:43:55Z</time>
      </trkpt>
      <trkpt lat="40.721187" lon="-3.260432">
        <ele>845.748</ele>
        <time>2019-04-21T10:43:56Z</time>
      </trkpt>
      <trkpt lat="40.721257" lon="-3.260313">
        <ele>845.760</ele>
        <time>2019-04-21T10:43:57Z</time>
      </trkpt>
      <trkpt lat="40.721322" lon="-3.260194">
        <ele>845.594</ele>
        <time>2019-04-21T10:43:58Z</time>
      </trkpt>
      <trkpt lat="40.721386" lon="-3.260080">
        <ele>845.155</ele>
        <time>2019-04-21T10:43:59Z</time>
      </trkpt>
      <trkpt lat="40.721448" lon="-3.259973">
        <ele>844.616</ele>
        <time>2019-04-21T10:44:00Z</time>
      </trkpt>
      <trkpt lat="40.721512" lon="-3.259868">
        <ele>843.976</ele>
        <time>2019-04-21T10:44:01Z</time>
      </trkpt>
      <trkpt lat="40.721576" lon="-3.259773">
        <ele>843.113</ele>
        <time>2019-04-21T10:44:02Z</time>
      </trkpt>
      <trkpt lat="40.721638" lon="-3.259673">
        <ele>842.208</ele>
        <time>2019-04-21T10:44:03Z</time>
      </trkpt>
      <trkpt lat="40.721696" lon="-3.259579">
        <ele>841.554</ele>
        <time>2019-04-21T10:44:04Z</time>
      </trkpt>
      <trkpt lat="40.721747" lon="-3.259499">
        <ele>840.386</ele>
        <time>2019-04-21T10:44:05Z</time>
      </trkpt>
      <trkpt lat="40.721798" lon="-3.259423">
        <ele>839.976</ele>
        <time>2019-04-21T10:44:06Z</time>
      </trkpt>
      <trkpt lat="40.721844" lon="-3.259351">
        <ele>839.641</ele>
        <time>2019-04-21T10:44:07Z</time>
      </trkpt>
      <trkpt lat="40.721887" lon="-3.259283">
        <ele>839.253</ele>
        <time>2019-04-21T10:44:08Z</time>
      </trkpt>
      <trkpt lat="40.721923" lon="-3.259213">
        <ele>838.855</ele>
        <time>2019-04-21T10:44:09Z</time>
      </trkpt>
      <trkpt lat="40.721966" lon="-3.259146">
        <ele>838.659</ele>
        <time>2019-04-21T10:44:10Z</time>
      </trkpt>
      <trkpt lat="40.721989" lon="-3.259086">
        <ele>838.330</ele>
        <time>2019-04-21T10:44:11Z</time>
      </trkpt>
      <trkpt lat="40.722017" lon="-3.259023">
        <ele>838.134</ele>
        <time>2019-04-21T10:44:12Z</time>
      </trkpt>
      <trkpt lat="40.722048" lon="-3.258957">
        <ele>838.155</ele>
        <time>2019-04-21T10:44:13Z</time>
      </trkpt>
      <trkpt lat="40.722084" lon="-3.258884">
        <ele>838.110</ele>
        <time>2019-04-21T10:44:14Z</time>
      </trkpt>
      <trkpt lat="40.722122" lon="-3.258810">
        <ele>838.108</ele>
        <time>2019-04-21T10:44:15Z</time>
      </trkpt>
      <trkpt lat="40.722165" lon="-3.258733">
        <ele>838.116</ele>
        <time>2019-04-21T10:44:16Z</time>
      </trkpt>
      <trkpt lat="40.722212" lon="-3.258665">
        <ele>838.198</ele>
        <time>2019-04-21T10:44:17Z</time>
      </trkpt>
      <trkpt lat="40.722264" lon="-3.258562">
        <ele>838.068</ele>
        <time>2019-04-21T10:44:18Z</time>
      </trkpt>
      <trkpt lat="40.722305" lon="-3.258483">
        <ele>838.073</ele>
        <time>2019-04-21T10:44:19Z</time>
      </trkpt>
      <trkpt lat="40.722350" lon="-3.258400">
        <ele>838.135</ele>
        <time>2019-04-21T10:44:20Z</time>
      </trkpt>
      <trkpt lat="40.722400" lon="-3.258309">
        <ele>838.227</ele>
        <time>2019-04-21T10:44:21Z</time>
      </trkpt>
      <trkpt lat="40.722445" lon="-3.258220">
        <ele>838.391</ele>
        <time>2019-04-21T10:44:22Z</time>
      </trkpt>
      <trkpt lat="40.722485" lon="-3.258142">
        <ele>838.322</ele>
        <time>2019-04-21T10:44:23Z</time>
      </trkpt>
      <trkpt lat="40.722526" lon="-3.258056">
        <ele>838.234</ele>
        <time>2019-04-21T10:44:24Z</time>
      </trkpt>
      <trkpt lat="40.722576" lon="-3.257976">
        <ele>838.055</ele>
        <time>2019-04-21T10:44:25Z</time>
      </trkpt>
      <trkpt lat="40.722629" lon="-3.257883">
        <ele>837.910</ele>
        <time>2019-04-21T10:44:26Z</time>
      </trkpt>
      <trkpt lat="40.722680" lon="-3.257794">
        <ele>837.808</ele>
        <time>2019-04-21T10:44:27Z</time>
      </trkpt>
      <trkpt lat="40.722730" lon="-3.257704">
        <ele>837.886</ele>
        <time>2019-04-21T10:44:28Z</time>
      </trkpt>
      <trkpt lat="40.722783" lon="-3.257614">
        <ele>837.758</ele>
        <time>2019-04-21T10:44:29Z</time>
      </trkpt>
      <trkpt lat="40.722838" lon="-3.257524">
        <ele>837.798</ele>
        <time>2019-04-21T10:44:30Z</time>
      </trkpt>
      <trkpt lat="40.722892" lon="-3.257436">
        <ele>837.433</ele>
        <time>2019-04-21T10:44:31Z</time>
      </trkpt>
      <trkpt lat="40.722949" lon="-3.257351">
        <ele>837.335</ele>
        <time>2019-04-21T10:44:32Z</time>
      </trkpt>
      <trkpt lat="40.723001" lon="-3.257266">
        <ele>837.377</ele>
        <time>2019-04-21T10:44:33Z</time>
      </trkpt>
      <trkpt lat="40.723049" lon="-3.257186">
        <ele>837.361</ele>
        <time>2019-04-21T10:44:34Z</time>
      </trkpt>
      <trkpt lat="40.723095" lon="-3.257108">
        <ele>837.362</ele>
        <time>2019-04-21T10:44:35Z</time>
      </trkpt>
      <trkpt lat="40.723136" lon="-3.257029">
        <ele>837.179</ele>
        <time>2019-04-21T10:44:36Z</time>
      </trkpt>
      <trkpt lat="40.723175" lon="-3.256948">
        <ele>836.805</ele>
        <time>2019-04-21T10:44:37Z</time>
      </trkpt>
      <trkpt lat="40.723216" lon="-3.256867">
        <ele>836.525</ele>
        <time>2019-04-21T10:44:38Z</time>
      </trkpt>
      <trkpt lat="40.723257" lon="-3.256785">
        <ele>836.208</ele>
        <time>2019-04-21T10:44:39Z</time>
      </trkpt>
      <trkpt lat="40.723299" lon="-3.256706">
        <ele>836.080</ele>
        <time>2019-04-21T10:44:40Z</time>
      </trkpt>
      <trkpt lat="40.723338" lon="-3.256634">
        <ele>836.072</ele>
        <time>2019-04-21T10:44:41Z</time>
      </trkpt>
      <trkpt lat="40.723368" lon="-3.256558">
        <ele>835.962</ele>
        <time>2019-04-21T10:44:42Z</time>
      </trkpt>
      <trkpt lat="40.723406" lon="-3.256492">
        <ele>835.847</ele>
        <time>2019-04-21T10:44:43Z</time>
      </trkpt>
      <trkpt lat="40.723442" lon="-3.256427">
        <ele>835.889</ele>
        <time>2019-04-21T10:44:44Z</time>
      </trkpt>
      <trkpt lat="40.723475" lon="-3.256357">
        <ele>835.741</ele>
        <time>2019-04-21T10:44:45Z</time>
      </trkpt>
      <trkpt lat="40.723517" lon="-3.256292">
        <ele>835.725</ele>
        <time>2019-04-21T10:44:46Z</time>
      </trkpt>
      <trkpt lat="40.723562" lon="-3.256230">
        <ele>835.826</ele>
        <time>2019-04-21T10:44:47Z</time>
      </trkpt>
      <trkpt lat="40.723607" lon="-3.256167">
        <ele>835.838</ele>
        <time>2019-04-21T10:44:48Z</time>
      </trkpt>
      <trkpt lat="40.723649" lon="-3.256102">
        <ele>835.870</ele>
        <time>2019-04-21T10:44:49Z</time>
      </trkpt>
      <trkpt lat="40.723692" lon="-3.256035">
        <ele>835.917</ele>
        <time>2019-04-21T10:44:50Z</time>
      </trkpt>
      <trkpt lat="40.723728" lon="-3.255968">
        <ele>835.908</ele>
        <time>2019-04-21T10:44:51Z</time>
      </trkpt>
      <trkpt lat="40.723762" lon="-3.255903">
        <ele>835.856</ele>
        <time>2019-04-21T10:44:52Z</time>
      </trkpt>
      <trkpt lat="40.723795" lon="-3.255835">
        <ele>835.888</ele>
        <time>2019-04-21T10:44:53Z</time>
      </trkpt>
      <trkpt lat="40.723833" lon="-3.255763">
        <ele>835.838</ele>
        <time>2019-04-21T10:44:54Z</time>
      </trkpt>
      <trkpt lat="40.723864" lon="-3.255687">
        <ele>835.813</ele>
        <time>2019-04-21T10:44:55Z</time>
      </trkpt>
      <trkpt lat="40.723911" lon="-3.255615">
        <ele>836.075</ele>
        <time>2019-04-21T10:44:56Z</time>
      </trkpt>
      <trkpt lat="40.723966" lon="-3.255551">
        <ele>836.137</ele>
        <time>2019-04-21T10:44:57Z</time>
      </trkpt>
      <trkpt lat="40.724005" lon="-3.255483">
        <ele>836.191</ele>
        <time>2019-04-21T10:44:58Z</time>
      </trkpt>
      <trkpt lat="40.724047" lon="-3.255425">
        <ele>836.042</ele>
        <time>2019-04-21T10:44:59Z</time>
      </trkpt>
      <trkpt lat="40.724086" lon="-3.255378">
        <ele>835.887</ele>
        <time>2019-04-21T10:45:00Z</time>
      </trkpt>
      <trkpt lat="40.724121" lon="-3.255318">
        <ele>834.642</ele>
        <time>2019-04-21T10:45:03Z</time>
      </trkpt>
      <trkpt lat="40.724160" lon="-3.255230">
        <ele>833.626</ele>
        <time>2019-04-21T10:45:06Z</time>
      </trkpt>
      <trkpt lat="40.724197" lon="-3.255131">
        <ele>833.708</ele>
        <time>2019-04-21T10:45:08Z</time>
      </trkpt>
      <trkpt lat="40.724242" lon="-3.255029">
        <ele>834.121</ele>
        <time>2019-04-21T10:45:10Z</time>
      </trkpt>
      <trkpt lat="40.724270" lon="-3.254976">
        <ele>834.213</ele>
        <time>2019-04-21T10:45:11Z</time>
      </trkpt>
      <trkpt lat="40.724296" lon="-3.254917">
        <ele>834.263</ele>
        <time>2019-04-21T10:45:12Z</time>
      </trkpt>
      <trkpt lat="40.724328" lon="-3.254857">
        <ele>834.278</ele>
        <time>2019-04-21T10:45:13Z</time>
      </trkpt>
      <trkpt lat="40.724373" lon="-3.254801">
        <ele>834.230</ele>
        <time>2019-04-21T10:45:14Z</time>
      </trkpt>
      <trkpt lat="40.724404" lon="-3.254734">
        <ele>834.272</ele>
        <time>2019-04-21T10:45:15Z</time>
      </trkpt>
      <trkpt lat="40.724437" lon="-3.254665">
        <ele>834.216</ele>
        <time>2019-04-21T10:45:16Z</time>
      </trkpt>
      <trkpt lat="40.724471" lon="-3.254592">
        <ele>834.317</ele>
        <time>2019-04-21T10:45:17Z</time>
      </trkpt>
      <trkpt lat="40.724497" lon="-3.254525">
        <ele>834.343</ele>
        <time>2019-04-21T10:45:18Z</time>
      </trkpt>
      <trkpt lat="40.724534" lon="-3.254448">
        <ele>834.564</ele>
        <time>2019-04-21T10:45:19Z</time>
      </trkpt>
      <trkpt lat="40.724576" lon="-3.254375">
        <ele>834.810</ele>
        <time>2019-04-21T10:45:20Z</time>
      </trkpt>
      <trkpt lat="40.724626" lon="-3.254286">
        <ele>835.008</ele>
        <time>2019-04-21T10:45:21Z</time>
      </trkpt>
      <trkpt lat="40.724682" lon="-3.254202">
        <ele>835.477</ele>
        <time>2019-04-21T10:45:22Z</time>
      </trkpt>
      <trkpt lat="40.724729" lon="-3.254114">
        <ele>835.469</ele>
        <time>2019-04-21T10:45:23Z</time>
      </trkpt>
      <trkpt lat="40.724773" lon="-3.254029">
        <ele>835.419</ele>
        <time>2019-04-21T10:45:24Z</time>
      </trkpt>
      <trkpt lat="40.724818" lon="-3.253955">
        <ele>835.464</ele>
        <time>2019-04-21T10:45:25Z</time>
      </trkpt>
      <trkpt lat="40.724858" lon="-3.253889">
        <ele>835.476</ele>
        <time>2019-04-21T10:45:26Z</time>
      </trkpt>
      <trkpt lat="40.724896" lon="-3.253810">
        <ele>835.418</ele>
        <time>2019-04-21T10:45:27Z</time>
      </trkpt>
      <trkpt lat="40.724936" lon="-3.253727">
        <ele>835.282</ele>
        <time>2019-04-21T10:45:28Z</time>
      </trkpt>
      <trkpt lat="40.724984" lon="-3.253647">
        <ele>835.093</ele>
        <time>2019-04-21T10:45:29Z</time>
      </trkpt>
      <trkpt lat="40.725028" lon="-3.253574">
        <ele>834.991</ele>
        <time>2019-04-21T10:45:30Z</time>
      </trkpt>
      <trkpt lat="40.725069" lon="-3.253501">
        <ele>834.681</ele>
        <time>2019-04-21T10:45:31Z</time>
      </trkpt>
      <trkpt lat="40.725107" lon="-3.253436">
        <ele>834.419</ele>
        <time>2019-04-21T10:45:32Z</time>
      </trkpt>
      <trkpt lat="40.725153" lon="-3.253376">
        <ele>834.308</ele>
        <time>2019-04-21T10:45:33Z</time>
      </trkpt>
      <trkpt lat="40.725196" lon="-3.253322">
        <ele>834.282</ele>
        <time>2019-04-21T10:45:34Z</time>
      </trkpt>
      <trkpt lat="40.725229" lon="-3.253260">
        <ele>834.074</ele>
        <time>2019-04-21T10:45:35Z</time>
      </trkpt>
      <trkpt lat="40.725280" lon="-3.253185">
        <ele>833.894</ele>
        <time>2019-04-21T10:45:37Z</time>
      </trkpt>
      <trkpt lat="40.725327" lon="-3.253139">
        <ele>833.449</ele>
        <time>2019-04-21T10:45:39Z</time>
      </trkpt>
      <trkpt lat="40.725371" lon="-3.253089">
        <ele>833.151</ele>
        <time>2019-04-21T10:45:41Z</time>
      </trkpt>
      <trkpt lat="40.725400" lon="-3.253026">
        <ele>833.093</ele>
        <time>2019-04-21T10:45:43Z</time>
      </trkpt>
      <trkpt lat="40.725421" lon="-3.252965">
        <ele>832.767</ele>
        <time>2019-04-21T10:45:48Z</time>
      </trkpt>
      <trkpt lat="40.725454" lon="-3.252903">
        <ele>832.998</ele>
        <time>2019-04-21T10:45:58Z</time>
      </trkpt>
      <trkpt lat="40.725486" lon="-3.252859">
        <ele>833.032</ele>
        <time>2019-04-21T10:46:00Z</time>
      </trkpt>
      <trkpt lat="40.725516" lon="-3.252798">
        <ele>833.092</ele>
        <time>2019-04-21T10:46:02Z</time>
      </trkpt>
      <trkpt lat="40.725554" lon="-3.252717">
        <ele>833.011</ele>
        <time>2019-04-21T10:46:04Z</time>
      </trkpt>
      <trkpt lat="40.725587" lon="-3.252648">
        <ele>833.108</ele>
        <time>2019-04-21T10:46:06Z</time>
      </trkpt>
      <trkpt lat="40.725615" lon="-3.252590">
        <ele>833.146</ele>
        <time>2019-04-21T10:46:08Z</time>
      </trkpt>
      <trkpt lat="40.725659" lon="-3.252533">
        <ele>833.088</ele>
        <time>2019-04-21T10:46:11Z</time>
      </trkpt>
      <trkpt lat="40.725721" lon="-3.252458">
        <ele>833.168</ele>
        <time>2019-04-21T10:46:13Z</time>
      </trkpt>
      <trkpt lat="40.725764" lon="-3.252404">
        <ele>833.583</ele>
        <time>2019-04-21T10:46:14Z</time>
      </trkpt>
      <trkpt lat="40.725795" lon="-3.252346">
        <ele>833.655</ele>
        <time>2019-04-21T10:46:15Z</time>
      </trkpt>
      <trkpt lat="40.725835" lon="-3.252306">
        <ele>833.797</ele>
        <time>2019-04-21T10:46:16Z</time>
      </trkpt>
      <trkpt lat="40.725861" lon="-3.252249">
        <ele>833.881</ele>
        <time>2019-04-21T10:46:17Z</time>
      </trkpt>
      <trkpt lat="40.725890" lon="-3.252188">
        <ele>833.842</ele>
        <time>2019-04-21T10:46:18Z</time>
      </trkpt>
      <trkpt lat="40.725929" lon="-3.252131">
        <ele>833.836</ele>
        <time>2019-04-21T10:46:19Z</time>
      </trkpt>
      <trkpt lat="40.725977" lon="-3.252068">
        <ele>833.917</ele>
        <time>2019-04-21T10:46:20Z</time>
      </trkpt>
      <trkpt lat="40.726025" lon="-3.251990">
        <ele>834.118</ele>
        <time>2019-04-21T10:46:21Z</time>
      </trkpt>
      <trkpt lat="40.726077" lon="-3.251901">
        <ele>834.308</ele>
        <time>2019-04-21T10:46:22Z</time>
      </trkpt>
      <trkpt lat="40.726122" lon="-3.251821">
        <ele>834.666</ele>
        <time>2019-04-21T10:46:23Z</time>
      </trkpt>
      <trkpt lat="40.726156" lon="-3.251765">
        <ele>834.878</ele>
        <time>2019-04-21T10:46:24Z</time>
      </trkpt>
      <trkpt lat="40.726201" lon="-3.251685">
        <ele>834.938</ele>
        <time>2019-04-21T10:46:25Z</time>
      </trkpt>
      <trkpt lat="40.726248" lon="-3.251611">
        <ele>835.053</ele>
        <time>2019-04-21T10:46:26Z</time>
      </trkpt>
      <trkpt lat="40.726300" lon="-3.251516">
        <ele>835.215</ele>
        <time>2019-04-21T10:46:27Z</time>
      </trkpt>
      <trkpt lat="40.726351" lon="-3.251429">
        <ele>835.347</ele>
        <time>2019-04-21T10:46:28Z</time>
      </trkpt>
      <trkpt lat="40.726395" lon="-3.251336">
        <ele>835.311</ele>
        <time>2019-04-21T10:46:29Z</time>
      </trkpt>
      <trkpt lat="40.726446" lon="-3.251236">
        <ele>835.362</ele>
        <time>2019-04-21T10:46:30Z</time>
      </trkpt>
      <trkpt lat="40.726501" lon="-3.251128">
        <ele>835.398</ele>
        <time>2019-04-21T10:46:31Z</time>
      </trkpt>
      <trkpt lat="40.726547" lon="-3.251031">
        <ele>835.215</ele>
        <time>2019-04-21T10:46:32Z</time>
      </trkpt>
      <trkpt lat="40.726601" lon="-3.250938">
        <ele>835.126</ele>
        <time>2019-04-21T10:46:33Z</time>
      </trkpt>
      <trkpt lat="40.726646" lon="-3.250847">
        <ele>835.008</ele>
        <time>2019-04-21T10:46:34Z</time>
      </trkpt>
      <trkpt lat="40.726686" lon="-3.250758">
        <ele>834.962</ele>
        <time>2019-04-21T10:46:35Z</time>
      </trkpt>
      <trkpt lat="40.726722" lon="-3.250680">
        <ele>834.934</ele>
        <time>2019-04-21T10:46:36Z</time>
      </trkpt>
      <trkpt lat="40.726763" lon="-3.250601">
        <ele>834.924</ele>
        <time>2019-04-21T10:46:37Z</time>
      </trkpt>
      <trkpt lat="40.726804" lon="-3.250521">
        <ele>834.889</ele>
        <time>2019-04-21T10:46:38Z</time>
      </trkpt>
      <trkpt lat="40.726850" lon="-3.250443">
        <ele>834.731</ele>
        <time>2019-04-21T10:46:39Z</time>
      </trkpt>
      <trkpt lat="40.726894" lon="-3.250357">
        <ele>834.493</ele>
        <time>2019-04-21T10:46:40Z</time>
      </trkpt>
      <trkpt lat="40.726938" lon="-3.250278">
        <ele>834.277</ele>
        <time>2019-04-21T10:46:41Z</time>
      </trkpt>
      <trkpt lat="40.726972" lon="-3.250197">
        <ele>834.118</ele>
        <time>2019-04-21T10:46:42Z</time>
      </trkpt>
      <trkpt lat="40.727015" lon="-3.250126">
        <ele>834.095</ele>
        <time>2019-04-21T10:46:43Z</time>
      </trkpt>
      <trkpt lat="40.727051" lon="-3.250049">
        <ele>834.049</ele>
        <time>2019-04-21T10:46:44Z</time>
      </trkpt>
      <trkpt lat="40.727091" lon="-3.249979">
        <ele>834.023</ele>
        <time>2019-04-21T10:46:45Z</time>
      </trkpt>
      <trkpt lat="40.727131" lon="-3.249909">
        <ele>834.008</ele>
        <time>2019-04-21T10:46:46Z</time>
      </trkpt>
      <trkpt lat="40.727172" lon="-3.249846">
        <ele>834.152</ele>
        <time>2019-04-21T10:46:47Z</time>
      </trkpt>
      <trkpt lat="40.727214" lon="-3.249786">
        <ele>834.484</ele>
        <time>2019-04-21T10:46:48Z</time>
      </trkpt>
      <trkpt lat="40.727253" lon="-3.249724">
        <ele>834.544</ele>
        <time>2019-04-21T10:46:49Z</time>
      </trkpt>
      <trkpt lat="40.727298" lon="-3.249662">
        <ele>834.659</ele>
        <time>2019-04-21T10:46:50Z</time>
      </trkpt>
      <trkpt lat="40.727340" lon="-3.249595">
        <ele>834.631</ele>
        <time>2019-04-21T10:46:51Z</time>
      </trkpt>
      <trkpt lat="40.727378" lon="-3.249529">
        <ele>834.663</ele>
        <time>2019-04-21T10:46:52Z</time>
      </trkpt>
      <trkpt lat="40.727419" lon="-3.249457">
        <ele>834.727</ele>
        <time>2019-04-21T10:46:53Z</time>
      </trkpt>
      <trkpt lat="40.727458" lon="-3.249380">
        <ele>834.998</ele>
        <time>2019-04-21T10:46:54Z</time>
      </trkpt>
      <trkpt lat="40.727500" lon="-3.249311">
        <ele>835.127</ele>
        <time>2019-04-21T10:46:55Z</time>
      </trkpt>
      <trkpt lat="40.727537" lon="-3.249245">
        <ele>835.268</ele>
        <time>2019-04-21T10:46:56Z</time>
      </trkpt>
      <trkpt lat="40.727580" lon="-3.249151">
        <ele>835.214</ele>
        <time>2019-04-21T10:46:57Z</time>
      </trkpt>
      <trkpt lat="40.727624" lon="-3.249069">
        <ele>835.208</ele>
        <time>2019-04-21T10:46:58Z</time>
      </trkpt>
      <trkpt lat="40.727667" lon="-3.248991">
        <ele>834.925</ele>
        <time>2019-04-21T10:46:59Z</time>
      </trkpt>
      <trkpt lat="40.727709" lon="-3.248926">
        <ele>834.677</ele>
        <time>2019-04-21T10:47:00Z</time>
      </trkpt>
      <trkpt lat="40.727760" lon="-3.248857">
        <ele>834.437</ele>
        <time>2019-04-21T10:47:01Z</time>
      </trkpt>
      <trkpt lat="40.727807" lon="-3.248783">
        <ele>834.222</ele>
        <time>2019-04-21T10:47:02Z</time>
      </trkpt>
      <trkpt lat="40.727850" lon="-3.248721">
        <ele>834.174</ele>
        <time>2019-04-21T10:47:03Z</time>
      </trkpt>
      <trkpt lat="40.727898" lon="-3.248671">
        <ele>833.956</ele>
        <time>2019-04-21T10:47:04Z</time>
      </trkpt>
      <trkpt lat="40.727952" lon="-3.248644">
        <ele>833.840</ele>
        <time>2019-04-21T10:47:05Z</time>
      </trkpt>
      <trkpt lat="40.727999" lon="-3.248641">
        <ele>833.051</ele>
        <time>2019-04-21T10:47:06Z</time>
      </trkpt>
      <trkpt lat="40.728046" lon="-3.248626">
        <ele>833.116</ele>
        <time>2019-04-21T10:47:07Z</time>
      </trkpt>
      <trkpt lat="40.728134" lon="-3.248611">
        <ele>833.176</ele>
        <time>2019-04-21T10:47:09Z</time>
      </trkpt>
      <trkpt lat="40.728183" lon="-3.248616">
        <ele>833.013</ele>
        <time>2019-04-21T10:47:10Z</time>
      </trkpt>
      <trkpt lat="40.728231" lon="-3.248619">
        <ele>832.908</ele>
        <time>2019-04-21T10:47:11Z</time>
      </trkpt>
      <trkpt lat="40.728278" lon="-3.248619">
        <ele>832.964</ele>
        <time>2019-04-21T10:47:12Z</time>
      </trkpt>
      <trkpt lat="40.728367" lon="-3.248649">
        <ele>832.826</ele>
        <time>2019-04-21T10:47:14Z</time>
      </trkpt>
      <trkpt lat="40.728419" lon="-3.248672">
        <ele>832.946</ele>
        <time>2019-04-21T10:47:15Z</time>
      </trkpt>
      <trkpt lat="40.728470" lon="-3.248695">
        <ele>833.031</ele>
        <time>2019-04-21T10:47:16Z</time>
      </trkpt>
      <trkpt lat="40.728519" lon="-3.248724">
        <ele>833.033</ele>
        <time>2019-04-21T10:47:17Z</time>
      </trkpt>
      <trkpt lat="40.728566" lon="-3.248743">
        <ele>833.095</ele>
        <time>2019-04-21T10:47:18Z</time>
      </trkpt>
      <trkpt lat="40.728611" lon="-3.248774">
        <ele>833.039</ele>
        <time>2019-04-21T10:47:19Z</time>
      </trkpt>
      <trkpt lat="40.728654" lon="-3.248811">
        <ele>833.190</ele>
        <time>2019-04-21T10:47:20Z</time>
      </trkpt>
      <trkpt lat="40.728704" lon="-3.248845">
        <ele>833.289</ele>
        <time>2019-04-21T10:47:21Z</time>
      </trkpt>
      <trkpt lat="40.728748" lon="-3.248885">
        <ele>833.306</ele>
        <time>2019-04-21T10:47:22Z</time>
      </trkpt>
      <trkpt lat="40.728791" lon="-3.248920">
        <ele>833.326</ele>
        <time>2019-04-21T10:47:23Z</time>
      </trkpt>
      <trkpt lat="40.728833" lon="-3.248955">
        <ele>833.308</ele>
        <time>2019-04-21T10:47:24Z</time>
      </trkpt>
      <trkpt lat="40.728880" lon="-3.248990">
        <ele>833.431</ele>
        <time>2019-04-21T10:47:25Z</time>
      </trkpt>
      <trkpt lat="40.728924" lon="-3.249028">
        <ele>833.453</ele>
        <time>2019-04-21T10:47:26Z</time>
      </trkpt>
      <trkpt lat="40.728968" lon="-3.249067">
        <ele>833.443</ele>
        <time>2019-04-21T10:47:27Z</time>
      </trkpt>
      <trkpt lat="40.729005" lon="-3.249116">
        <ele>833.428</ele>
        <time>2019-04-21T10:47:28Z</time>
      </trkpt>
      <trkpt lat="40.729036" lon="-3.249170">
        <ele>833.380</ele>
        <time>2019-04-21T10:47:29Z</time>
      </trkpt>
      <trkpt lat="40.729076" lon="-3.249220">
        <ele>833.172</ele>
        <time>2019-04-21T10:47:30Z</time>
      </trkpt>
      <trkpt lat="40.729106" lon="-3.249285">
        <ele>832.926</ele>
        <time>2019-04-21T10:47:31Z</time>
      </trkpt>
      <trkpt lat="40.729139" lon="-3.249356">
        <ele>832.837</ele>
        <time>2019-04-21T10:47:32Z</time>
      </trkpt>
      <trkpt lat="40.729183" lon="-3.249428">
        <ele>832.885</ele>
        <time>2019-04-21T10:47:33Z</time>
      </trkpt>
      <trkpt lat="40.729224" lon="-3.249501">
        <ele>832.889</ele>
        <time>2019-04-21T10:47:34Z</time>
      </trkpt>
      <trkpt lat="40.729263" lon="-3.249573">
        <ele>832.817</ele>
        <time>2019-04-21T10:47:35Z</time>
      </trkpt>
      <trkpt lat="40.729295" lon="-3.249645">
        <ele>832.808</ele>
        <time>2019-04-21T10:47:36Z</time>
      </trkpt>
      <trkpt lat="40.729323" lon="-3.249704">
        <ele>832.861</ele>
        <time>2019-04-21T10:47:37Z</time>
      </trkpt>
      <trkpt lat="40.729352" lon="-3.249790">
        <ele>832.693</ele>
        <time>2019-04-21T10:47:39Z</time>
      </trkpt>
      <trkpt lat="40.729369" lon="-3.249874">
        <ele>832.353</ele>
        <time>2019-04-21T10:47:41Z</time>
      </trkpt>
      <trkpt lat="40.729379" lon="-3.249950">
        <ele>832.038</ele>
        <time>2019-04-21T10:47:43Z</time>
      </trkpt>
      <trkpt lat="40.729424" lon="-3.250003">
        <ele>831.250</ele>
        <time>2019-04-21T10:47:46Z</time>
      </trkpt>
      <trkpt lat="40.729465" lon="-3.250046">
        <ele>830.692</ele>
        <time>2019-04-21T10:47:48Z</time>
      </trkpt>
      <trkpt lat="40.729506" lon="-3.250096">
        <ele>829.796</ele>
        <time>2019-04-21T10:47:50Z</time>
      </trkpt>
      <trkpt lat="40.729555" lon="-3.250133">
        <ele>828.617</ele>
        <time>2019-04-21T10:47:52Z</time>
      </trkpt>
      <trkpt lat="40.729578" lon="-3.250197">
        <ele>827.487</ele>
        <time>2019-04-21T10:47:54Z</time>
      </trkpt>
      <trkpt lat="40.729588" lon="-3.250264">
        <ele>825.642</ele>
        <time>2019-04-21T10:47:58Z</time>
      </trkpt>
      <trkpt lat="40.729624" lon="-3.250332">
        <ele>824.126</ele>
        <time>2019-04-21T10:48:01Z</time>
      </trkpt>
      <trkpt lat="40.729672" lon="-3.250400">
        <ele>823.308</ele>
        <time>2019-04-21T10:48:03Z</time>
      </trkpt>
      <trkpt lat="40.729697" lon="-3.250457">
        <ele>821.791</ele>
        <time>2019-04-21T10:48:07Z</time>
      </trkpt>
      <trkpt lat="40.729739" lon="-3.250502">
        <ele>820.493</ele>
        <time>2019-04-21T10:48:10Z</time>
      </trkpt>
      <trkpt lat="40.729779" lon="-3.250553">
        <ele>818.863</ele>
        <time>2019-04-21T10:48:13Z</time>
      </trkpt>
      <trkpt lat="40.729814" lon="-3.250595">
        <ele>817.418</ele>
        <time>2019-04-21T10:48:16Z</time>
      </trkpt>
      <trkpt lat="40.729856" lon="-3.250642">
        <ele>816.430</ele>
        <time>2019-04-21T10:48:18Z</time>
      </trkpt>
      <trkpt lat="40.729892" lon="-3.250689">
        <ele>815.572</ele>
        <time>2019-04-21T10:48:20Z</time>
      </trkpt>
      <trkpt lat="40.729923" lon="-3.250743">
        <ele>814.196</ele>
        <time>2019-04-21T10:48:23Z</time>
      </trkpt>
      <trkpt lat="40.729963" lon="-3.250775">
        <ele>812.357</ele>
        <time>2019-04-21T10:48:26Z</time>
      </trkpt>
      <trkpt lat="40.730026" lon="-3.250804">
        <ele>810.968</ele>
        <time>2019-04-21T10:48:29Z</time>
      </trkpt>
      <trkpt lat="40.730083" lon="-3.250850">
        <ele>809.242</ele>
        <time>2019-04-21T10:48:32Z</time>
      </trkpt>
      <trkpt lat="40.730136" lon="-3.250882">
        <ele>808.226</ele>
        <time>2019-04-21T10:48:34Z</time>
      </trkpt>
      <trkpt lat="40.730185" lon="-3.250907">
        <ele>807.408</ele>
        <time>2019-04-21T10:48:36Z</time>
      </trkpt>
      <trkpt lat="40.730247" lon="-3.250940">
        <ele>806.699</ele>
        <time>2019-04-21T10:48:38Z</time>
      </trkpt>
      <trkpt lat="40.730299" lon="-3.250961">
        <ele>805.881</ele>
        <time>2019-04-21T10:48:40Z</time>
      </trkpt>
      <trkpt lat="40.730356" lon="-3.250976">
        <ele>805.471</ele>
        <time>2019-04-21T10:48:42Z</time>
      </trkpt>
      <trkpt lat="40.730414" lon="-3.251002">
        <ele>804.916</ele>
        <time>2019-04-21T10:48:44Z</time>
      </trkpt>
      <trkpt lat="40.730461" lon="-3.251023">
        <ele>804.588</ele>
        <time>2019-04-21T10:48:46Z</time>
      </trkpt>
      <trkpt lat="40.730526" lon="-3.251058">
        <ele>803.810</ele>
        <time>2019-04-21T10:48:49Z</time>
      </trkpt>
      <trkpt lat="40.730574" lon="-3.251088">
        <ele>803.084</ele>
        <time>2019-04-21T10:48:51Z</time>
      </trkpt>
      <trkpt lat="40.730616" lon="-3.251139">
        <ele>802.535</ele>
        <time>2019-04-21T10:48:54Z</time>
      </trkpt>
      <trkpt lat="40.730659" lon="-3.251207">
        <ele>801.984</ele>
        <time>2019-04-21T10:48:57Z</time>
      </trkpt>
      <trkpt lat="40.730692" lon="-3.251258">
        <ele>800.907</ele>
        <time>2019-04-21T10:49:01Z</time>
      </trkpt>
      <trkpt lat="40.730742" lon="-3.251303">
        <ele>799.617</ele>
        <time>2019-04-21T10:49:05Z</time>
      </trkpt>
      <trkpt lat="40.730787" lon="-3.251357">
        <ele>799.108</ele>
        <time>2019-04-21T10:49:07Z</time>
      </trkpt>
      <trkpt lat="40.730828" lon="-3.251387">
        <ele>798.481</ele>
        <time>2019-04-21T10:49:09Z</time>
      </trkpt>
      <trkpt lat="40.730874" lon="-3.251422">
        <ele>796.753</ele>
        <time>2019-04-21T10:49:16Z</time>
      </trkpt>
      <trkpt lat="40.730911" lon="-3.251461">
        <ele>796.393</ele>
        <time>2019-04-21T10:49:18Z</time>
      </trkpt>
      <trkpt lat="40.730962" lon="-3.251498">
        <ele>795.938</ele>
        <time>2019-04-21T10:49:20Z</time>
      </trkpt>
      <trkpt lat="40.731033" lon="-3.251537">
        <ele>795.410</ele>
        <time>2019-04-21T10:49:22Z</time>
      </trkpt>
      <trkpt lat="40.731077" lon="-3.251568">
        <ele>794.992</ele>
        <time>2019-04-21T10:49:24Z</time>
      </trkpt>
      <trkpt lat="40.731127" lon="-3.251603">
        <ele>794.056</ele>
        <time>2019-04-21T10:49:31Z</time>
      </trkpt>
      <trkpt lat="40.731168" lon="-3.251641">
        <ele>794.087</ele>
        <time>2019-04-21T10:49:33Z</time>
      </trkpt>
      <trkpt lat="40.731200" lon="-3.251693">
        <ele>794.156</ele>
        <time>2019-04-21T10:49:35Z</time>
      </trkpt>
      <trkpt lat="40.731228" lon="-3.251744">
        <ele>794.259</ele>
        <time>2019-04-21T10:49:37Z</time>
      </trkpt>
      <trkpt lat="40.731269" lon="-3.251781">
        <ele>794.014</ele>
        <time>2019-04-21T10:49:40Z</time>
      </trkpt>
      <trkpt lat="40.731324" lon="-3.251807">
        <ele>793.508</ele>
        <time>2019-04-21T10:49:43Z</time>
      </trkpt>
      <trkpt lat="40.731384" lon="-3.251843">
        <ele>793.318</ele>
        <time>2019-04-21T10:49:46Z</time>
      </trkpt>
      <trkpt lat="40.731430" lon="-3.251880">
        <ele>793.250</ele>
        <time>2019-04-21T10:49:48Z</time>
      </trkpt>
      <trkpt lat="40.731473" lon="-3.251911">
        <ele>792.860</ele>
        <time>2019-04-21T10:49:53Z</time>
      </trkpt>
      <trkpt lat="40.731531" lon="-3.251949">
        <ele>792.695</ele>
        <time>2019-04-21T10:49:56Z</time>
      </trkpt>
      <trkpt lat="40.731596" lon="-3.252003">
        <ele>792.327</ele>
        <time>2019-04-21T10:49:58Z</time>
      </trkpt>
      <trkpt lat="40.731653" lon="-3.252051">
        <ele>791.669</ele>
        <time>2019-04-21T10:50:00Z</time>
      </trkpt>
      <trkpt lat="40.731709" lon="-3.252093">
        <ele>791.163</ele>
        <time>2019-04-21T10:50:02Z</time>
      </trkpt>
      <trkpt lat="40.731756" lon="-3.252141">
        <ele>790.654</ele>
        <time>2019-04-21T10:50:04Z</time>
      </trkpt>
      <trkpt lat="40.731803" lon="-3.252208">
        <ele>790.195</ele>
        <time>2019-04-21T10:50:06Z</time>
      </trkpt>
      <trkpt lat="40.731858" lon="-3.252267">
        <ele>789.649</ele>
        <time>2019-04-21T10:50:08Z</time>
      </trkpt>
      <trkpt lat="40.731933" lon="-3.252314">
        <ele>788.923</ele>
        <time>2019-04-21T10:50:10Z</time>
      </trkpt>
      <trkpt lat="40.731994" lon="-3.252352">
        <ele>787.208</ele>
        <time>2019-04-21T10:50:12Z</time>
      </trkpt>
      <trkpt lat="40.732041" lon="-3.252384">
        <ele>786.062</ele>
        <time>2019-04-21T10:50:14Z</time>
      </trkpt>
      <trkpt lat="40.732081" lon="-3.252422">
        <ele>785.254</ele>
        <time>2019-04-21T10:50:16Z</time>
      </trkpt>
      <trkpt lat="40.732133" lon="-3.252463">
        <ele>784.484</ele>
        <time>2019-04-21T10:50:18Z</time>
      </trkpt>
      <trkpt lat="40.732170" lon="-3.252507">
        <ele>783.669</ele>
        <time>2019-04-21T10:50:20Z</time>
      </trkpt>
      <trkpt lat="40.732220" lon="-3.252588">
        <ele>782.851</ele>
        <time>2019-04-21T10:50:22Z</time>
      </trkpt>
      <trkpt lat="40.732283" lon="-3.252667">
        <ele>781.913</ele>
        <time>2019-04-21T10:50:24Z</time>
      </trkpt>
      <trkpt lat="40.732359" lon="-3.252708">
        <ele>780.617</ele>
        <time>2019-04-21T10:50:26Z</time>
      </trkpt>
      <trkpt lat="40.732427" lon="-3.252730">
        <ele>779.818</ele>
        <time>2019-04-21T10:50:28Z</time>
      </trkpt>
      <trkpt lat="40.732470" lon="-3.252752">
        <ele>778.816</ele>
        <time>2019-04-21T10:50:30Z</time>
      </trkpt>
      <trkpt lat="40.732530" lon="-3.252789">
        <ele>777.876</ele>
        <time>2019-04-21T10:50:33Z</time>
      </trkpt>
      <trkpt lat="40.732584" lon="-3.252850">
        <ele>776.913</ele>
        <time>2019-04-21T10:50:36Z</time>
      </trkpt>
      <trkpt lat="40.732628" lon="-3.252893">
        <ele>775.408</ele>
        <time>2019-04-21T10:50:39Z</time>
      </trkpt>
      <trkpt lat="40.732691" lon="-3.252942">
        <ele>772.874</ele>
        <time>2019-04-21T10:50:42Z</time>
      </trkpt>
      <trkpt lat="40.732729" lon="-3.252993">
        <ele>771.396</ele>
        <time>2019-04-21T10:50:44Z</time>
      </trkpt>
      <trkpt lat="40.732798" lon="-3.253036">
        <ele>769.996</ele>
        <time>2019-04-21T10:50:46Z</time>
      </trkpt>
      <trkpt lat="40.732852" lon="-3.253086">
        <ele>768.921</ele>
        <time>2019-04-21T10:50:48Z</time>
      </trkpt>
      <trkpt lat="40.732881" lon="-3.253141">
        <ele>768.523</ele>
        <time>2019-04-21T10:50:50Z</time>
      </trkpt>
      <trkpt lat="40.732928" lon="-3.253199">
        <ele>768.455</ele>
        <time>2019-04-21T10:50:52Z</time>
      </trkpt>
      <trkpt lat="40.732981" lon="-3.253211">
        <ele>768.689</ele>
        <time>2019-04-21T10:50:53Z</time>
      </trkpt>
      <trkpt lat="40.733026" lon="-3.253234">
        <ele>768.820</ele>
        <time>2019-04-21T10:50:54Z</time>
      </trkpt>
      <trkpt lat="40.733092" lon="-3.253277">
        <ele>769.666</ele>
        <time>2019-04-21T10:50:56Z</time>
      </trkpt>
      <trkpt lat="40.733147" lon="-3.253312">
        <ele>770.429</ele>
        <time>2019-04-21T10:50:58Z</time>
      </trkpt>
      <trkpt lat="40.733190" lon="-3.253353">
        <ele>770.621</ele>
        <time>2019-04-21T10:51:00Z</time>
      </trkpt>
      <trkpt lat="40.733237" lon="-3.253393">
        <ele>770.408</ele>
        <time>2019-04-21T10:51:02Z</time>
      </trkpt>
      <trkpt lat="40.733301" lon="-3.253442">
        <ele>769.919</ele>
        <time>2019-04-21T10:51:04Z</time>
      </trkpt>
      <trkpt lat="40.733348" lon="-3.253483">
        <ele>769.491</ele>
        <time>2019-04-21T10:51:06Z</time>
      </trkpt>
      <trkpt lat="40.733389" lon="-3.253532">
        <ele>769.221</ele>
        <time>2019-04-21T10:51:08Z</time>
      </trkpt>
      <trkpt lat="40.733432" lon="-3.253582">
        <ele>769.476</ele>
        <time>2019-04-21T10:51:10Z</time>
      </trkpt>
      <trkpt lat="40.733479" lon="-3.253618">
        <ele>769.938</ele>
        <time>2019-04-21T10:51:12Z</time>
      </trkpt>
      <trkpt lat="40.733529" lon="-3.253667">
        <ele>770.820</ele>
        <time>2019-04-21T10:51:14Z</time>
      </trkpt>
      <trkpt lat="40.733592" lon="-3.253753">
        <ele>771.864</ele>
        <time>2019-04-21T10:51:16Z</time>
      </trkpt>
      <trkpt lat="40.733634" lon="-3.253792">
        <ele>772.325</ele>
        <time>2019-04-21T10:51:17Z</time>
      </trkpt>
      <trkpt lat="40.733673" lon="-3.253831">
        <ele>772.786</ele>
        <time>2019-04-21T10:51:18Z</time>
      </trkpt>
      <trkpt lat="40.733728" lon="-3.253883">
        <ele>773.760</ele>
        <time>2019-04-21T10:51:20Z</time>
      </trkpt>
      <trkpt lat="40.733786" lon="-3.253919">
        <ele>775.126</ele>
        <time>2019-04-21T10:51:22Z</time>
      </trkpt>
      <trkpt lat="40.733841" lon="-3.253957">
        <ele>775.608</ele>
        <time>2019-04-21T10:51:24Z</time>
      </trkpt>
      <trkpt lat="40.733893" lon="-3.254001">
        <ele>775.861</ele>
        <time>2019-04-21T10:51:26Z</time>
      </trkpt>
      <trkpt lat="40.733962" lon="-3.254072">
        <ele>776.223</ele>
        <time>2019-04-21T10:51:28Z</time>
      </trkpt>
      <trkpt lat="40.734016" lon="-3.254133">
        <ele>776.343</ele>
        <time>2019-04-21T10:51:30Z</time>
      </trkpt>
      <trkpt lat="40.734076" lon="-3.254184">
        <ele>776.578</ele>
        <time>2019-04-21T10:51:32Z</time>
      </trkpt>
      <trkpt lat="40.734121" lon="-3.254250">
        <ele>777.220</ele>
        <time>2019-04-21T10:51:34Z</time>
      </trkpt>
      <trkpt lat="40.734176" lon="-3.254331">
        <ele>777.822</ele>
        <time>2019-04-21T10:51:36Z</time>
      </trkpt>
      <trkpt lat="40.734232" lon="-3.254405">
        <ele>778.366</ele>
        <time>2019-04-21T10:51:38Z</time>
      </trkpt>
      <trkpt lat="40.734291" lon="-3.254430">
        <ele>778.627</ele>
        <time>2019-04-21T10:51:40Z</time>
      </trkpt>
      <trkpt lat="40.734325" lon="-3.254475">
        <ele>778.792</ele>
        <time>2019-04-21T10:51:42Z</time>
      </trkpt>
      <trkpt lat="40.734370" lon="-3.254547">
        <ele>778.773</ele>
        <time>2019-04-21T10:51:44Z</time>
      </trkpt>
      <trkpt lat="40.734430" lon="-3.254612">
        <ele>778.620</ele>
        <time>2019-04-21T10:51:46Z</time>
      </trkpt>
      <trkpt lat="40.734491" lon="-3.254679">
        <ele>778.208</ele>
        <time>2019-04-21T10:51:48Z</time>
      </trkpt>
      <trkpt lat="40.734544" lon="-3.254751">
        <ele>777.982</ele>
        <time>2019-04-21T10:51:50Z</time>
      </trkpt>
      <trkpt lat="40.734577" lon="-3.254832">
        <ele>777.674</ele>
        <time>2019-04-21T10:51:52Z</time>
      </trkpt>
      <trkpt lat="40.734623" lon="-3.254894">
        <ele>777.674</ele>
        <time>2019-04-21T10:51:54Z</time>
      </trkpt>
      <trkpt lat="40.734684" lon="-3.254956">
        <ele>777.569</ele>
        <time>2019-04-21T10:51:56Z</time>
      </trkpt>
      <trkpt lat="40.734737" lon="-3.255022">
        <ele>777.241</ele>
        <time>2019-04-21T10:51:58Z</time>
      </trkpt>
      <trkpt lat="40.734795" lon="-3.255093">
        <ele>776.943</ele>
        <time>2019-04-21T10:52:00Z</time>
      </trkpt>
      <trkpt lat="40.734867" lon="-3.255173">
        <ele>776.667</ele>
        <time>2019-04-21T10:52:02Z</time>
      </trkpt>
      <trkpt lat="40.734902" lon="-3.255211">
        <ele>776.598</ele>
        <time>2019-04-21T10:52:03Z</time>
      </trkpt>
      <trkpt lat="40.734969" lon="-3.255270">
        <ele>776.376</ele>
        <time>2019-04-21T10:52:05Z</time>
      </trkpt>
      <trkpt lat="40.735021" lon="-3.255360">
        <ele>776.290</ele>
        <time>2019-04-21T10:52:07Z</time>
      </trkpt>
      <trkpt lat="40.735075" lon="-3.255426">
        <ele>776.319</ele>
        <time>2019-04-21T10:52:09Z</time>
      </trkpt>
      <trkpt lat="40.735151" lon="-3.255484">
        <ele>776.608</ele>
        <time>2019-04-21T10:52:11Z</time>
      </trkpt>
      <trkpt lat="40.735191" lon="-3.255521">
        <ele>776.740</ele>
        <time>2019-04-21T10:52:12Z</time>
      </trkpt>
      <trkpt lat="40.735252" lon="-3.255594">
        <ele>776.742</ele>
        <time>2019-04-21T10:52:14Z</time>
      </trkpt>
      <trkpt lat="40.735317" lon="-3.255647">
        <ele>776.542</ele>
        <time>2019-04-21T10:52:16Z</time>
      </trkpt>
      <trkpt lat="40.735349" lon="-3.255690">
        <ele>776.397</ele>
        <time>2019-04-21T10:52:18Z</time>
      </trkpt>
      <trkpt lat="40.735392" lon="-3.255740">
        <ele>776.339</ele>
        <time>2019-04-21T10:52:22Z</time>
      </trkpt>
      <trkpt lat="40.735458" lon="-3.255796">
        <ele>776.391</ele>
        <time>2019-04-21T10:52:24Z</time>
      </trkpt>
      <trkpt lat="40.735505" lon="-3.255825">
        <ele>776.325</ele>
        <time>2019-04-21T10:52:25Z</time>
      </trkpt>
      <trkpt lat="40.735542" lon="-3.255860">
        <ele>776.396</ele>
        <time>2019-04-21T10:52:26Z</time>
      </trkpt>
      <trkpt lat="40.735602" lon="-3.255929">
        <ele>776.376</ele>
        <time>2019-04-21T10:52:28Z</time>
      </trkpt>
      <trkpt lat="40.735672" lon="-3.255986">
        <ele>776.590</ele>
        <time>2019-04-21T10:52:30Z</time>
      </trkpt>
      <trkpt lat="40.735718" lon="-3.256012">
        <ele>776.619</ele>
        <time>2019-04-21T10:52:31Z</time>
      </trkpt>
      <trkpt lat="40.735764" lon="-3.256044">
        <ele>776.708</ele>
        <time>2019-04-21T10:52:32Z</time>
      </trkpt>
      <trkpt lat="40.735812" lon="-3.256068">
        <ele>776.850</ele>
        <time>2019-04-21T10:52:33Z</time>
      </trkpt>
      <trkpt lat="40.735876" lon="-3.256084">
        <ele>776.982</ele>
        <time>2019-04-21T10:52:34Z</time>
      </trkpt>
      <trkpt lat="40.735928" lon="-3.256110">
        <ele>777.012</ele>
        <time>2019-04-21T10:52:35Z</time>
      </trkpt>
      <trkpt lat="40.735975" lon="-3.256144">
        <ele>777.197</ele>
        <time>2019-04-21T10:52:36Z</time>
      </trkpt>
      <trkpt lat="40.736022" lon="-3.256167">
        <ele>777.269</ele>
        <time>2019-04-21T10:52:37Z</time>
      </trkpt>
      <trkpt lat="40.736070" lon="-3.256178">
        <ele>777.321</ele>
        <time>2019-04-21T10:52:38Z</time>
      </trkpt>
      <trkpt lat="40.736146" lon="-3.256184">
        <ele>777.225</ele>
        <time>2019-04-21T10:52:40Z</time>
      </trkpt>
      <trkpt lat="40.736208" lon="-3.256189">
        <ele>776.576</ele>
        <time>2019-04-21T10:52:42Z</time>
      </trkpt>
      <trkpt lat="40.736281" lon="-3.256195">
        <ele>775.084</ele>
        <time>2019-04-21T10:52:44Z</time>
      </trkpt>
      <trkpt lat="40.736354" lon="-3.256205">
        <ele>773.907</ele>
        <time>2019-04-21T10:52:46Z</time>
      </trkpt>
      <trkpt lat="40.736428" lon="-3.256218">
        <ele>772.817</ele>
        <time>2019-04-21T10:52:48Z</time>
      </trkpt>
      <trkpt lat="40.736468" lon="-3.256247">
        <ele>772.208</ele>
        <time>2019-04-21T10:52:49Z</time>
      </trkpt>
      <trkpt lat="40.736526" lon="-3.256293">
        <ele>770.961</ele>
        <time>2019-04-21T10:52:51Z</time>
      </trkpt>
      <trkpt lat="40.736575" lon="-3.256354">
        <ele>769.373</ele>
        <time>2019-04-21T10:52:53Z</time>
      </trkpt>
      <trkpt lat="40.736601" lon="-3.256412">
        <ele>767.193</ele>
        <time>2019-04-21T10:52:56Z</time>
      </trkpt>
      <trkpt lat="40.736639" lon="-3.256476">
        <ele>764.838</ele>
        <time>2019-04-21T10:53:07Z</time>
      </trkpt>
      <trkpt lat="40.736674" lon="-3.256523">
        <ele>764.260</ele>
        <time>2019-04-21T10:53:09Z</time>
      </trkpt>
      <trkpt lat="40.736719" lon="-3.256602">
        <ele>762.972</ele>
        <time>2019-04-21T10:53:11Z</time>
      </trkpt>
      <trkpt lat="40.736757" lon="-3.256670">
        <ele>762.086</ele>
        <time>2019-04-21T10:53:13Z</time>
      </trkpt>
      <trkpt lat="40.736808" lon="-3.256716">
        <ele>761.427</ele>
        <time>2019-04-21T10:53:16Z</time>
      </trkpt>
      <trkpt lat="40.736851" lon="-3.256785">
        <ele>761.325</ele>
        <time>2019-04-21T10:53:18Z</time>
      </trkpt>
      <trkpt lat="40.736882" lon="-3.256831">
        <ele>761.226</ele>
        <time>2019-04-21T10:53:19Z</time>
      </trkpt>
      <trkpt lat="40.736925" lon="-3.256876">
        <ele>761.308</ele>
        <time>2019-04-21T10:53:21Z</time>
      </trkpt>
      <trkpt lat="40.736946" lon="-3.256821">
        <ele>761.708</ele>
        <time>2019-04-21T10:53:23Z</time>
      </trkpt>
      <trkpt lat="40.736983" lon="-3.256710">
        <ele>762.145</ele>
        <time>2019-04-21T10:53:25Z</time>
      </trkpt>
      <trkpt lat="40.737012" lon="-3.256647">
        <ele>761.657</ele>
        <time>2019-04-21T10:53:27Z</time>
      </trkpt>
      <trkpt lat="40.737039" lon="-3.256594">
        <ele>760.557</ele>
        <time>2019-04-21T10:53:31Z</time>
      </trkpt>
      <trkpt lat="40.737053" lon="-3.256534">
        <ele>760.062</ele>
        <time>2019-04-21T10:53:36Z</time>
      </trkpt>
      <trkpt lat="40.737119" lon="-3.256497">
        <ele>759.984</ele>
        <time>2019-04-21T10:53:42Z</time>
      </trkpt>
      <trkpt lat="40.737180" lon="-3.256460">
        <ele>759.786</ele>
        <time>2019-04-21T10:53:43Z</time>
      </trkpt>
      <trkpt lat="40.737236" lon="-3.256443">
        <ele>759.440</ele>
        <time>2019-04-21T10:53:44Z</time>
      </trkpt>
      <trkpt lat="40.737290" lon="-3.256431">
        <ele>759.291</ele>
        <time>2019-04-21T10:53:45Z</time>
      </trkpt>
      <trkpt lat="40.737346" lon="-3.256424">
        <ele>759.186</ele>
        <time>2019-04-21T10:53:46Z</time>
      </trkpt>
      <trkpt lat="40.737401" lon="-3.256415">
        <ele>759.060</ele>
        <time>2019-04-21T10:53:47Z</time>
      </trkpt>
      <trkpt lat="40.737457" lon="-3.256405">
        <ele>759.026</ele>
        <time>2019-04-21T10:53:48Z</time>
      </trkpt>
      <trkpt lat="40.737505" lon="-3.256397">
        <ele>759.108</ele>
        <time>2019-04-21T10:53:49Z</time>
      </trkpt>
      <trkpt lat="40.737577" lon="-3.256371">
        <ele>759.231</ele>
        <time>2019-04-21T10:53:51Z</time>
      </trkpt>
      <trkpt lat="40.737653" lon="-3.256359">
        <ele>759.363</ele>
        <time>2019-04-21T10:53:53Z</time>
      </trkpt>
      <trkpt lat="40.737716" lon="-3.256337">
        <ele>759.633</ele>
        <time>2019-04-21T10:53:55Z</time>
      </trkpt>
      <trkpt lat="40.737780" lon="-3.256292">
        <ele>759.968</ele>
        <time>2019-04-21T10:53:57Z</time>
      </trkpt>
      <trkpt lat="40.737862" lon="-3.256255">
        <ele>760.210</ele>
        <time>2019-04-21T10:53:59Z</time>
      </trkpt>
      <trkpt lat="40.737916" lon="-3.256207">
        <ele>760.342</ele>
        <time>2019-04-21T10:54:00Z</time>
      </trkpt>
      <trkpt lat="40.737996" lon="-3.256135">
        <ele>760.966</ele>
        <time>2019-04-21T10:54:02Z</time>
      </trkpt>
      <trkpt lat="40.738034" lon="-3.256076">
        <ele>760.957</ele>
        <time>2019-04-21T10:54:03Z</time>
      </trkpt>
      <trkpt lat="40.738063" lon="-3.256026">
        <ele>761.666</ele>
        <time>2019-04-21T10:54:04Z</time>
      </trkpt>
      <trkpt lat="40.738101" lon="-3.255960">
        <ele>762.029</ele>
        <time>2019-04-21T10:54:05Z</time>
      </trkpt>
      <trkpt lat="40.738137" lon="-3.255895">
        <ele>762.521</ele>
        <time>2019-04-21T10:54:06Z</time>
      </trkpt>
      <trkpt lat="40.738179" lon="-3.255833">
        <ele>763.008</ele>
        <time>2019-04-21T10:54:07Z</time>
      </trkpt>
      <trkpt lat="40.738206" lon="-3.255750">
        <ele>764.199</ele>
        <time>2019-04-21T10:54:08Z</time>
      </trkpt>
      <trkpt lat="40.738229" lon="-3.255671">
        <ele>764.681</ele>
        <time>2019-04-21T10:54:09Z</time>
      </trkpt>
      <trkpt lat="40.738249" lon="-3.255580">
        <ele>764.961</ele>
        <time>2019-04-21T10:54:10Z</time>
      </trkpt>
      <trkpt lat="40.738267" lon="-3.255484">
        <ele>765.496</ele>
        <time>2019-04-21T10:54:11Z</time>
      </trkpt>
      <trkpt lat="40.738298" lon="-3.255398">
        <ele>765.718</ele>
        <time>2019-04-21T10:54:12Z</time>
      </trkpt>
      <trkpt lat="40.738338" lon="-3.255292">
        <ele>766.070</ele>
        <time>2019-04-21T10:54:13Z</time>
      </trkpt>
      <trkpt lat="40.738386" lon="-3.255201">
        <ele>766.444</ele>
        <time>2019-04-21T10:54:14Z</time>
      </trkpt>
      <trkpt lat="40.738432" lon="-3.255120">
        <ele>767.055</ele>
        <time>2019-04-21T10:54:15Z</time>
      </trkpt>
      <trkpt lat="40.738489" lon="-3.255048">
        <ele>767.465</ele>
        <time>2019-04-21T10:54:16Z</time>
      </trkpt>
      <trkpt lat="40.738547" lon="-3.254983">
        <ele>767.968</ele>
        <time>2019-04-21T10:54:17Z</time>
      </trkpt>
      <trkpt lat="40.738618" lon="-3.254924">
        <ele>768.414</ele>
        <time>2019-04-21T10:54:18Z</time>
      </trkpt>
      <trkpt lat="40.738689" lon="-3.254868">
        <ele>768.808</ele>
        <time>2019-04-21T10:54:19Z</time>
      </trkpt>
      <trkpt lat="40.738766" lon="-3.254823">
        <ele>769.269</ele>
        <time>2019-04-21T10:54:20Z</time>
      </trkpt>
      <trkpt lat="40.738833" lon="-3.254781">
        <ele>769.761</ele>
        <time>2019-04-21T10:54:21Z</time>
      </trkpt>
      <trkpt lat="40.738910" lon="-3.254733">
        <ele>770.061</ele>
        <time>2019-04-21T10:54:22Z</time>
      </trkpt>
      <trkpt lat="40.738983" lon="-3.254688">
        <ele>770.366</ele>
        <time>2019-04-21T10:54:23Z</time>
      </trkpt>
      <trkpt lat="40.739054" lon="-3.254645">
        <ele>770.688</ele>
        <time>2019-04-21T10:54:24Z</time>
      </trkpt>
      <trkpt lat="40.739115" lon="-3.254603">
        <ele>770.980</ele>
        <time>2019-04-21T10:54:25Z</time>
      </trkpt>
      <trkpt lat="40.739183" lon="-3.254547">
        <ele>771.394</ele>
        <time>2019-04-21T10:54:26Z</time>
      </trkpt>
      <trkpt lat="40.739238" lon="-3.254500">
        <ele>771.765</ele>
        <time>2019-04-21T10:54:27Z</time>
      </trkpt>
      <trkpt lat="40.739303" lon="-3.254436">
        <ele>772.168</ele>
        <time>2019-04-21T10:54:28Z</time>
      </trkpt>
      <trkpt lat="40.739361" lon="-3.254375">
        <ele>772.442</ele>
        <time>2019-04-21T10:54:29Z</time>
      </trkpt>
      <trkpt lat="40.739436" lon="-3.254306">
        <ele>773.026</ele>
        <time>2019-04-21T10:54:30Z</time>
      </trkpt>
      <trkpt lat="40.739509" lon="-3.254238">
        <ele>773.408</ele>
        <time>2019-04-21T10:54:31Z</time>
      </trkpt>
      <trkpt lat="40.739598" lon="-3.254165">
        <ele>773.739</ele>
        <time>2019-04-21T10:54:32Z</time>
      </trkpt>
      <trkpt lat="40.739690" lon="-3.254092">
        <ele>774.011</ele>
        <time>2019-04-21T10:54:33Z</time>
      </trkpt>
      <trkpt lat="40.739782" lon="-3.254024">
        <ele>774.511</ele>
        <time>2019-04-21T10:54:34Z</time>
      </trkpt>
      <trkpt lat="40.739875" lon="-3.253954">
        <ele>774.626</ele>
        <time>2019-04-21T10:54:35Z</time>
      </trkpt>
      <trkpt lat="40.739965" lon="-3.253884">
        <ele>775.188</ele>
        <time>2019-04-21T10:54:36Z</time>
      </trkpt>
      <trkpt lat="40.740059" lon="-3.253823">
        <ele>775.410</ele>
        <time>2019-04-21T10:54:37Z</time>
      </trkpt>
      <trkpt lat="40.740151" lon="-3.253770">
        <ele>775.874</ele>
        <time>2019-04-21T10:54:38Z</time>
      </trkpt>
      <trkpt lat="40.740256" lon="-3.253734">
        <ele>776.385</ele>
        <time>2019-04-21T10:54:39Z</time>
      </trkpt>
      <trkpt lat="40.740359" lon="-3.253705">
        <ele>776.832</ele>
        <time>2019-04-21T10:54:40Z</time>
      </trkpt>
      <trkpt lat="40.740464" lon="-3.253681">
        <ele>777.392</ele>
        <time>2019-04-21T10:54:41Z</time>
      </trkpt>
      <trkpt lat="40.740572" lon="-3.253663">
        <ele>777.711</ele>
        <time>2019-04-21T10:54:42Z</time>
      </trkpt>
      <trkpt lat="40.740681" lon="-3.253651">
        <ele>777.908</ele>
        <time>2019-04-21T10:54:43Z</time>
      </trkpt>
      <trkpt lat="40.740801" lon="-3.253632">
        <ele>777.976</ele>
        <time>2019-04-21T10:54:44Z</time>
      </trkpt>
      <trkpt lat="40.740908" lon="-3.253619">
        <ele>777.798</ele>
        <time>2019-04-21T10:54:45Z</time>
      </trkpt>
      <trkpt lat="40.741014" lon="-3.253601">
        <ele>777.558</ele>
        <time>2019-04-21T10:54:46Z</time>
      </trkpt>
      <trkpt lat="40.741118" lon="-3.253588">
        <ele>777.593</ele>
        <time>2019-04-21T10:54:47Z</time>
      </trkpt>
      <trkpt lat="40.741221" lon="-3.253574">
        <ele>777.645</ele>
        <time>2019-04-21T10:54:48Z</time>
      </trkpt>
      <trkpt lat="40.741323" lon="-3.253545">
        <ele>777.757</ele>
        <time>2019-04-21T10:54:49Z</time>
      </trkpt>
      <trkpt lat="40.741418" lon="-3.253498">
        <ele>778.111</ele>
        <time>2019-04-21T10:54:50Z</time>
      </trkpt>
      <trkpt lat="40.741513" lon="-3.253447">
        <ele>778.152</ele>
        <time>2019-04-21T10:54:51Z</time>
      </trkpt>
      <trkpt lat="40.741603" lon="-3.253382">
        <ele>777.948</ele>
        <time>2019-04-21T10:54:52Z</time>
      </trkpt>
      <trkpt lat="40.741690" lon="-3.253306">
        <ele>777.661</ele>
        <time>2019-04-21T10:54:53Z</time>
      </trkpt>
      <trkpt lat="40.741769" lon="-3.253220">
        <ele>777.317</ele>
        <time>2019-04-21T10:54:54Z</time>
      </trkpt>
      <trkpt lat="40.741848" lon="-3.253131">
        <ele>776.908</ele>
        <time>2019-04-21T10:54:55Z</time>
      </trkpt>
      <trkpt lat="40.741921" lon="-3.253033">
        <ele>776.637</ele>
        <time>2019-04-21T10:54:56Z</time>
      </trkpt>
      <trkpt lat="40.741992" lon="-3.252937">
        <ele>776.259</ele>
        <time>2019-04-21T10:54:57Z</time>
      </trkpt>
      <trkpt lat="40.742066" lon="-3.252849">
        <ele>775.549</ele>
        <time>2019-04-21T10:54:58Z</time>
      </trkpt>
      <trkpt lat="40.742134" lon="-3.252751">
        <ele>774.794</ele>
        <time>2019-04-21T10:54:59Z</time>
      </trkpt>
      <trkpt lat="40.742208" lon="-3.252647">
        <ele>773.956</ele>
        <time>2019-04-21T10:55:00Z</time>
      </trkpt>
      <trkpt lat="40.742285" lon="-3.252543">
        <ele>772.558</ele>
        <time>2019-04-21T10:55:01Z</time>
      </trkpt>
      <trkpt lat="40.742360" lon="-3.252442">
        <ele>771.132</ele>
        <time>2019-04-21T10:55:02Z</time>
      </trkpt>
      <trkpt lat="40.742426" lon="-3.252350">
        <ele>770.093</ele>
        <time>2019-04-21T10:55:03Z</time>
      </trkpt>
      <trkpt lat="40.742489" lon="-3.252261">
        <ele>768.157</ele>
        <time>2019-04-21T10:55:04Z</time>
      </trkpt>
      <trkpt lat="40.742556" lon="-3.252182">
        <ele>767.800</ele>
        <time>2019-04-21T10:55:05Z</time>
      </trkpt>
      <trkpt lat="40.742624" lon="-3.252107">
        <ele>767.720</ele>
        <time>2019-04-21T10:55:06Z</time>
      </trkpt>
      <trkpt lat="40.742693" lon="-3.252042">
        <ele>767.708</ele>
        <time>2019-04-21T10:55:07Z</time>
      </trkpt>
      <trkpt lat="40.742761" lon="-3.251982">
        <ele>767.578</ele>
        <time>2019-04-21T10:55:08Z</time>
      </trkpt>
      <trkpt lat="40.742836" lon="-3.251928">
        <ele>767.570</ele>
        <time>2019-04-21T10:55:09Z</time>
      </trkpt>
      <trkpt lat="40.742909" lon="-3.251863">
        <ele>767.480</ele>
        <time>2019-04-21T10:55:10Z</time>
      </trkpt>
      <trkpt lat="40.742983" lon="-3.251798">
        <ele>767.475</ele>
        <time>2019-04-21T10:55:11Z</time>
      </trkpt>
      <trkpt lat="40.743059" lon="-3.251730">
        <ele>767.367</ele>
        <time>2019-04-21T10:55:12Z</time>
      </trkpt>
      <trkpt lat="40.743139" lon="-3.251665">
        <ele>767.239</ele>
        <time>2019-04-21T10:55:13Z</time>
      </trkpt>
      <trkpt lat="40.743214" lon="-3.251588">
        <ele>767.273</ele>
        <time>2019-04-21T10:55:14Z</time>
      </trkpt>
      <trkpt lat="40.743294" lon="-3.251508">
        <ele>767.164</ele>
        <time>2019-04-21T10:55:15Z</time>
      </trkpt>
      <trkpt lat="40.743371" lon="-3.251416">
        <ele>767.288</ele>
        <time>2019-04-21T10:55:16Z</time>
      </trkpt>
      <trkpt lat="40.743454" lon="-3.251329">
        <ele>767.224</ele>
        <time>2019-04-21T10:55:17Z</time>
      </trkpt>
      <trkpt lat="40.743523" lon="-3.251222">
        <ele>767.126</ele>
        <time>2019-04-21T10:55:18Z</time>
      </trkpt>
      <trkpt lat="40.743590" lon="-3.251115">
        <ele>767.008</ele>
        <time>2019-04-21T10:55:19Z</time>
      </trkpt>
      <trkpt lat="40.743638" lon="-3.251006">
        <ele>766.961</ele>
        <time>2019-04-21T10:55:20Z</time>
      </trkpt>
      <trkpt lat="40.743682" lon="-3.250912">
        <ele>766.613</ele>
        <time>2019-04-21T10:55:21Z</time>
      </trkpt>
      <trkpt lat="40.743720" lon="-3.250829">
        <ele>766.463</ele>
        <time>2019-04-21T10:55:22Z</time>
      </trkpt>
      <trkpt lat="40.743752" lon="-3.250764">
        <ele>766.328</ele>
        <time>2019-04-21T10:55:23Z</time>
      </trkpt>
      <trkpt lat="40.743783" lon="-3.250696">
        <ele>766.230</ele>
        <time>2019-04-21T10:55:25Z</time>
      </trkpt>
      <trkpt lat="40.743739" lon="-3.250734">
        <ele>766.372</ele>
        <time>2019-04-21T10:55:41Z</time>
      </trkpt>
      <trkpt lat="40.743693" lon="-3.250790">
        <ele>766.156</ele>
        <time>2019-04-21T10:55:42Z</time>
      </trkpt>
      <trkpt lat="40.743667" lon="-3.250843">
        <ele>765.987</ele>
        <time>2019-04-21T10:55:43Z</time>
      </trkpt>
      <trkpt lat="40.743653" lon="-3.250902">
        <ele>765.774</ele>
        <time>2019-04-21T10:55:44Z</time>
      </trkpt>
      <trkpt lat="40.743627" lon="-3.250958">
        <ele>765.456</ele>
        <time>2019-04-21T10:55:45Z</time>
      </trkpt>
      <trkpt lat="40.743593" lon="-3.251026">
        <ele>765.421</ele>
        <time>2019-04-21T10:55:46Z</time>
      </trkpt>
      <trkpt lat="40.743570" lon="-3.251089">
        <ele>765.208</ele>
        <time>2019-04-21T10:55:47Z</time>
      </trkpt>
      <trkpt lat="40.743548" lon="-3.251153">
        <ele>765.190</ele>
        <time>2019-04-21T10:55:48Z</time>
      </trkpt>
      <trkpt lat="40.743516" lon="-3.251209">
        <ele>765.172</ele>
        <time>2019-04-21T10:55:49Z</time>
      </trkpt>
      <trkpt lat="40.743467" lon="-3.251268">
        <ele>764.912</ele>
        <time>2019-04-21T10:55:51Z</time>
      </trkpt>
      <trkpt lat="40.743422" lon="-3.251309">
        <ele>764.997</ele>
        <time>2019-04-21T10:55:53Z</time>
      </trkpt>
      <trkpt lat="40.743389" lon="-3.251369">
        <ele>765.099</ele>
        <time>2019-04-21T10:55:55Z</time>
      </trkpt>
      <trkpt lat="40.743367" lon="-3.251422">
        <ele>765.621</ele>
        <time>2019-04-21T10:56:18Z</time>
      </trkpt>
      <trkpt lat="40.743336" lon="-3.251468">
        <ele>765.985</ele>
        <time>2019-04-21T10:57:48Z</time>
      </trkpt>
      <trkpt lat="40.743387" lon="-3.251432">
        <ele>765.776</ele>
        <time>2019-04-21T10:58:14Z</time>
      </trkpt>
      <trkpt lat="40.743439" lon="-3.251353">
        <ele>765.759</ele>
        <time>2019-04-21T10:58:16Z</time>
      </trkpt>
      <trkpt lat="40.743466" lon="-3.251294">
        <ele>765.703</ele>
        <time>2019-04-21T10:58:17Z</time>
      </trkpt>
      <trkpt lat="40.743486" lon="-3.251229">
        <ele>765.723</ele>
        <time>2019-04-21T10:58:18Z</time>
      </trkpt>
      <trkpt lat="40.743513" lon="-3.251151">
        <ele>766.008</ele>
        <time>2019-04-21T10:58:19Z</time>
      </trkpt>
      <trkpt lat="40.743548" lon="-3.251069">
        <ele>766.298</ele>
        <time>2019-04-21T10:58:20Z</time>
      </trkpt>
      <trkpt lat="40.743578" lon="-3.250985">
        <ele>766.960</ele>
        <time>2019-04-21T10:58:21Z</time>
      </trkpt>
      <trkpt lat="40.743606" lon="-3.250914">
        <ele>767.180</ele>
        <time>2019-04-21T10:58:22Z</time>
      </trkpt>
      <trkpt lat="40.743628" lon="-3.250843">
        <ele>767.325</ele>
        <time>2019-04-21T10:58:23Z</time>
      </trkpt>
      <trkpt lat="40.743652" lon="-3.250775">
        <ele>767.577</ele>
        <time>2019-04-21T10:58:24Z</time>
      </trkpt>
      <trkpt lat="40.743673" lon="-3.250721">
        <ele>767.719</ele>
        <time>2019-04-21T10:58:25Z</time>
      </trkpt>
      <trkpt lat="40.743691" lon="-3.250660">
        <ele>768.023</ele>
        <time>2019-04-21T10:58:26Z</time>
      </trkpt>
      <trkpt lat="40.743712" lon="-3.250594">
        <ele>768.134</ele>
        <time>2019-04-21T10:58:27Z</time>
      </trkpt>
      <trkpt lat="40.743734" lon="-3.250526">
        <ele>768.531</ele>
        <time>2019-04-21T10:58:28Z</time>
      </trkpt>
      <trkpt lat="40.743753" lon="-3.250462">
        <ele>768.761</ele>
        <time>2019-04-21T10:58:29Z</time>
      </trkpt>
      <trkpt lat="40.743777" lon="-3.250388">
        <ele>768.907</ele>
        <time>2019-04-21T10:58:30Z</time>
      </trkpt>
      <trkpt lat="40.743804" lon="-3.250307">
        <ele>769.308</ele>
        <time>2019-04-21T10:58:31Z</time>
      </trkpt>
      <trkpt lat="40.743839" lon="-3.250225">
        <ele>769.986</ele>
        <time>2019-04-21T10:58:32Z</time>
      </trkpt>
      <trkpt lat="40.743890" lon="-3.250130">
        <ele>770.218</ele>
        <time>2019-04-21T10:58:33Z</time>
      </trkpt>
      <trkpt lat="40.743931" lon="-3.250035">
        <ele>770.838</ele>
        <time>2019-04-21T10:58:34Z</time>
      </trkpt>
      <trkpt lat="40.743978" lon="-3.249944">
        <ele>771.473</ele>
        <time>2019-04-21T10:58:35Z</time>
      </trkpt>
      <trkpt lat="40.744025" lon="-3.249863">
        <ele>771.995</ele>
        <time>2019-04-21T10:58:36Z</time>
      </trkpt>
      <trkpt lat="40.744077" lon="-3.249775">
        <ele>772.277</ele>
        <time>2019-04-21T10:58:37Z</time>
      </trkpt>
      <trkpt lat="40.744129" lon="-3.249688">
        <ele>772.131</ele>
        <time>2019-04-21T10:58:38Z</time>
      </trkpt>
      <trkpt lat="40.744175" lon="-3.249604">
        <ele>771.612</ele>
        <time>2019-04-21T10:58:39Z</time>
      </trkpt>
      <trkpt lat="40.744221" lon="-3.249522">
        <ele>771.058</ele>
        <time>2019-04-21T10:58:40Z</time>
      </trkpt>
      <trkpt lat="40.744269" lon="-3.249433">
        <ele>770.452</ele>
        <time>2019-04-21T10:58:41Z</time>
      </trkpt>
      <trkpt lat="40.744312" lon="-3.249344">
        <ele>769.817</ele>
        <time>2019-04-21T10:58:42Z</time>
      </trkpt>
      <trkpt lat="40.744361" lon="-3.249254">
        <ele>769.208</ele>
        <time>2019-04-21T10:58:43Z</time>
      </trkpt>
      <trkpt lat="40.744409" lon="-3.249161">
        <ele>768.538</ele>
        <time>2019-04-21T10:58:44Z</time>
      </trkpt>
      <trkpt lat="40.744460" lon="-3.249069">
        <ele>768.020</ele>
        <time>2019-04-21T10:58:45Z</time>
      </trkpt>
      <trkpt lat="40.744513" lon="-3.248974">
        <ele>767.570</ele>
        <time>2019-04-21T10:58:46Z</time>
      </trkpt>
      <trkpt lat="40.744559" lon="-3.248879">
        <ele>767.215</ele>
        <time>2019-04-21T10:58:47Z</time>
      </trkpt>
      <trkpt lat="40.744612" lon="-3.248786">
        <ele>767.097</ele>
        <time>2019-04-21T10:58:48Z</time>
      </trkpt>
      <trkpt lat="40.744661" lon="-3.248688">
        <ele>767.019</ele>
        <time>2019-04-21T10:58:49Z</time>
      </trkpt>
      <trkpt lat="40.744712" lon="-3.248588">
        <ele>767.023</ele>
        <time>2019-04-21T10:58:50Z</time>
      </trkpt>
      <trkpt lat="40.744774" lon="-3.248492">
        <ele>767.044</ele>
        <time>2019-04-21T10:58:51Z</time>
      </trkpt>
      <trkpt lat="40.744841" lon="-3.248395">
        <ele>766.657</ele>
        <time>2019-04-21T10:58:52Z</time>
      </trkpt>
      <trkpt lat="40.744915" lon="-3.248312">
        <ele>766.300</ele>
        <time>2019-04-21T10:58:53Z</time>
      </trkpt>
      <trkpt lat="40.744985" lon="-3.248224">
        <ele>765.820</ele>
        <time>2019-04-21T10:58:54Z</time>
      </trkpt>
      <trkpt lat="40.745053" lon="-3.248139">
        <ele>765.408</ele>
        <time>2019-04-21T10:58:55Z</time>
      </trkpt>
      <trkpt lat="40.745116" lon="-3.248053">
        <ele>765.078</ele>
        <time>2019-04-21T10:58:56Z</time>
      </trkpt>
      <trkpt lat="40.745178" lon="-3.247970">
        <ele>764.380</ele>
        <time>2019-04-21T10:58:57Z</time>
      </trkpt>
      <trkpt lat="40.745240" lon="-3.247890">
        <ele>763.650</ele>
        <time>2019-04-21T10:58:58Z</time>
      </trkpt>
      <trkpt lat="40.745297" lon="-3.247805">
        <ele>763.235</ele>
        <time>2019-04-21T10:58:59Z</time>
      </trkpt>
      <trkpt lat="40.745357" lon="-3.247720">
        <ele>762.787</ele>
        <time>2019-04-21T10:59:00Z</time>
      </trkpt>
      <trkpt lat="40.745419" lon="-3.247637">
        <ele>762.299</ele>
        <time>2019-04-21T10:59:01Z</time>
      </trkpt>
      <trkpt lat="40.745481" lon="-3.247554">
        <ele>761.763</ele>
        <time>2019-04-21T10:59:02Z</time>
      </trkpt>
      <trkpt lat="40.745544" lon="-3.247479">
        <ele>761.314</ele>
        <time>2019-04-21T10:59:03Z</time>
      </trkpt>
      <trkpt lat="40.745604" lon="-3.247403">
        <ele>760.698</ele>
        <time>2019-04-21T10:59:04Z</time>
      </trkpt>
      <trkpt lat="40.745663" lon="-3.247324">
        <ele>759.815</ele>
        <time>2019-04-21T10:59:05Z</time>
      </trkpt>
      <trkpt lat="40.745722" lon="-3.247242">
        <ele>759.026</ele>
        <time>2019-04-21T10:59:06Z</time>
      </trkpt>
      <trkpt lat="40.745781" lon="-3.247160">
        <ele>758.808</ele>
        <time>2019-04-21T10:59:07Z</time>
      </trkpt>
      <trkpt lat="40.745842" lon="-3.247080">
        <ele>758.572</ele>
        <time>2019-04-21T10:59:08Z</time>
      </trkpt>
      <trkpt lat="40.745906" lon="-3.246999">
        <ele>758.374</ele>
        <time>2019-04-21T10:59:09Z</time>
      </trkpt>
      <trkpt lat="40.745972" lon="-3.246914">
        <ele>758.134</ele>
        <time>2019-04-21T10:59:10Z</time>
      </trkpt>
      <trkpt lat="40.746037" lon="-3.246825">
        <ele>757.979</ele>
        <time>2019-04-21T10:59:11Z</time>
      </trkpt>
      <trkpt lat="40.746086" lon="-3.246715">
        <ele>757.611</ele>
        <time>2019-04-21T10:59:12Z</time>
      </trkpt>
      <trkpt lat="40.746131" lon="-3.246597">
        <ele>757.473</ele>
        <time>2019-04-21T10:59:13Z</time>
      </trkpt>
      <trkpt lat="40.746153" lon="-3.246469">
        <ele>757.237</ele>
        <time>2019-04-21T10:59:14Z</time>
      </trkpt>
      <trkpt lat="40.746174" lon="-3.246342">
        <ele>757.138</ele>
        <time>2019-04-21T10:59:15Z</time>
      </trkpt>
      <trkpt lat="40.746194" lon="-3.246215">
        <ele>756.846</ele>
        <time>2019-04-21T10:59:16Z</time>
      </trkpt>
      <trkpt lat="40.746228" lon="-3.246096">
        <ele>756.588</ele>
        <time>2019-04-21T10:59:17Z</time>
      </trkpt>
      <trkpt lat="40.746275" lon="-3.245987">
        <ele>756.116</ele>
        <time>2019-04-21T10:59:18Z</time>
      </trkpt>
      <trkpt lat="40.746327" lon="-3.245885">
        <ele>755.708</ele>
        <time>2019-04-21T10:59:19Z</time>
      </trkpt>
      <trkpt lat="40.746378" lon="-3.245783">
        <ele>754.517</ele>
        <time>2019-04-21T10:59:20Z</time>
      </trkpt>
      <trkpt lat="40.746433" lon="-3.245683">
        <ele>754.079</ele>
        <time>2019-04-21T10:59:21Z</time>
      </trkpt>
      <trkpt lat="40.746487" lon="-3.245584">
        <ele>753.679</ele>
        <time>2019-04-21T10:59:22Z</time>
      </trkpt>
      <trkpt lat="40.746538" lon="-3.245484">
        <ele>753.124</ele>
        <time>2019-04-21T10:59:23Z</time>
      </trkpt>
      <trkpt lat="40.746587" lon="-3.245386">
        <ele>752.516</ele>
        <time>2019-04-21T10:59:24Z</time>
      </trkpt>
      <trkpt lat="40.746633" lon="-3.245288">
        <ele>752.038</ele>
        <time>2019-04-21T10:59:25Z</time>
      </trkpt>
      <trkpt lat="40.746674" lon="-3.245189">
        <ele>751.522</ele>
        <time>2019-04-21T10:59:26Z</time>
      </trkpt>
      <trkpt lat="40.746716" lon="-3.245090">
        <ele>750.873</ele>
        <time>2019-04-21T10:59:27Z</time>
      </trkpt>
      <trkpt lat="40.746756" lon="-3.244989">
        <ele>750.389</ele>
        <time>2019-04-21T10:59:28Z</time>
      </trkpt>
      <trkpt lat="40.746788" lon="-3.244888">
        <ele>749.906</ele>
        <time>2019-04-21T10:59:29Z</time>
      </trkpt>
      <trkpt lat="40.746818" lon="-3.244793">
        <ele>749.326</ele>
        <time>2019-04-21T10:59:30Z</time>
      </trkpt>
      <trkpt lat="40.746836" lon="-3.244696">
        <ele>748.708</ele>
        <time>2019-04-21T10:59:31Z</time>
      </trkpt>
      <trkpt lat="40.746862" lon="-3.244599">
        <ele>748.141</ele>
        <time>2019-04-21T10:59:32Z</time>
      </trkpt>
      <trkpt lat="40.746875" lon="-3.244498">
        <ele>747.353</ele>
        <time>2019-04-21T10:59:33Z</time>
      </trkpt>
      <trkpt lat="40.746881" lon="-3.244404">
        <ele>745.783</ele>
        <time>2019-04-21T10:59:34Z</time>
      </trkpt>
      <trkpt lat="40.746894" lon="-3.244325">
        <ele>744.998</ele>
        <time>2019-04-21T10:59:35Z</time>
      </trkpt>
      <trkpt lat="40.746902" lon="-3.244251">
        <ele>744.140</ele>
        <time>2019-04-21T10:59:36Z</time>
      </trkpt>
      <trkpt lat="40.746912" lon="-3.244188">
        <ele>743.342</ele>
        <time>2019-04-21T10:59:37Z</time>
      </trkpt>
      <trkpt lat="40.746927" lon="-3.244132">
        <ele>742.646</ele>
        <time>2019-04-21T10:59:38Z</time>
      </trkpt>
      <trkpt lat="40.746952" lon="-3.244083">
        <ele>742.137</ele>
        <time>2019-04-21T10:59:39Z</time>
      </trkpt>
      <trkpt lat="40.746991" lon="-3.244046">
        <ele>741.834</ele>
        <time>2019-04-21T10:59:40Z</time>
      </trkpt>
      <trkpt lat="40.747045" lon="-3.244010">
        <ele>741.655</ele>
        <time>2019-04-21T10:59:41Z</time>
      </trkpt>
      <trkpt lat="40.747114" lon="-3.243991">
        <ele>741.310</ele>
        <time>2019-04-21T10:59:42Z</time>
      </trkpt>
      <trkpt lat="40.747189" lon="-3.243983">
        <ele>741.208</ele>
        <time>2019-04-21T10:59:43Z</time>
      </trkpt>
      <trkpt lat="40.747267" lon="-3.243980">
        <ele>741.256</ele>
        <time>2019-04-21T10:59:44Z</time>
      </trkpt>
      <trkpt lat="40.747345" lon="-3.243956">
        <ele>741.368</ele>
        <time>2019-04-21T10:59:45Z</time>
      </trkpt>
      <trkpt lat="40.747427" lon="-3.243926">
        <ele>741.788</ele>
        <time>2019-04-21T10:59:46Z</time>
      </trkpt>
      <trkpt lat="40.747507" lon="-3.243892">
        <ele>742.683</ele>
        <time>2019-04-21T10:59:47Z</time>
      </trkpt>
      <trkpt lat="40.747581" lon="-3.243862">
        <ele>743.555</ele>
        <time>2019-04-21T10:59:48Z</time>
      </trkpt>
      <trkpt lat="40.747650" lon="-3.243814">
        <ele>744.757</ele>
        <time>2019-04-21T10:59:49Z</time>
      </trkpt>
      <trkpt lat="40.747713" lon="-3.243730">
        <ele>745.041</ele>
        <time>2019-04-21T10:59:50Z</time>
      </trkpt>
      <trkpt lat="40.747765" lon="-3.243628">
        <ele>745.282</ele>
        <time>2019-04-21T10:59:51Z</time>
      </trkpt>
      <trkpt lat="40.747808" lon="-3.243516">
        <ele>745.585</ele>
        <time>2019-04-21T10:59:52Z</time>
      </trkpt>
      <trkpt lat="40.747849" lon="-3.243397">
        <ele>745.989</ele>
        <time>2019-04-21T10:59:53Z</time>
      </trkpt>
      <trkpt lat="40.747908" lon="-3.243287">
        <ele>746.117</ele>
        <time>2019-04-21T10:59:54Z</time>
      </trkpt>
      <trkpt lat="40.747968" lon="-3.243170">
        <ele>746.308</ele>
        <time>2019-04-21T10:59:55Z</time>
      </trkpt>
      <trkpt lat="40.748022" lon="-3.243053">
        <ele>746.341</ele>
        <time>2019-04-21T10:59:56Z</time>
      </trkpt>
      <trkpt lat="40.748077" lon="-3.242936">
        <ele>746.233</ele>
        <time>2019-04-21T10:59:57Z</time>
      </trkpt>
      <trkpt lat="40.748123" lon="-3.242820">
        <ele>745.933</ele>
        <time>2019-04-21T10:59:58Z</time>
      </trkpt>
      <trkpt lat="40.748164" lon="-3.242705">
        <ele>745.788</ele>
        <time>2019-04-21T10:59:59Z</time>
      </trkpt>
      <trkpt lat="40.748213" lon="-3.242595">
        <ele>745.610</ele>
        <time>2019-04-21T11:00:00Z</time>
      </trkpt>
      <trkpt lat="40.748251" lon="-3.242483">
        <ele>745.552</ele>
        <time>2019-04-21T11:00:01Z</time>
      </trkpt>
      <trkpt lat="40.748293" lon="-3.242379">
        <ele>745.646</ele>
        <time>2019-04-21T11:00:02Z</time>
      </trkpt>
      <trkpt lat="40.748337" lon="-3.242286">
        <ele>745.537</ele>
        <time>2019-04-21T11:00:03Z</time>
      </trkpt>
      <trkpt lat="40.748362" lon="-3.242207">
        <ele>745.497</ele>
        <time>2019-04-21T11:00:04Z</time>
      </trkpt>
      <trkpt lat="40.748400" lon="-3.242152">
        <ele>744.923</ele>
        <time>2019-04-21T11:00:05Z</time>
      </trkpt>
      <trkpt lat="40.748440" lon="-3.242098">
        <ele>744.625</ele>
        <time>2019-04-21T11:00:06Z</time>
      </trkpt>
      <trkpt lat="40.748484" lon="-3.242035">
        <ele>744.308</ele>
        <time>2019-04-21T11:00:07Z</time>
      </trkpt>
      <trkpt lat="40.748541" lon="-3.241978">
        <ele>744.282</ele>
        <time>2019-04-21T11:00:08Z</time>
      </trkpt>
      <trkpt lat="40.748593" lon="-3.241913">
        <ele>744.214</ele>
        <time>2019-04-21T11:00:09Z</time>
      </trkpt>
      <trkpt lat="40.748643" lon="-3.241844">
        <ele>744.264</ele>
        <time>2019-04-21T11:00:10Z</time>
      </trkpt>
      <trkpt lat="40.748690" lon="-3.241780">
        <ele>744.289</ele>
        <time>2019-04-21T11:00:11Z</time>
      </trkpt>
      <trkpt lat="40.748738" lon="-3.241724">
        <ele>744.291</ele>
        <time>2019-04-21T11:00:12Z</time>
      </trkpt>
      <trkpt lat="40.748776" lon="-3.241669">
        <ele>744.163</ele>
        <time>2019-04-21T11:00:13Z</time>
      </trkpt>
      <trkpt lat="40.748816" lon="-3.241618">
        <ele>743.937</ele>
        <time>2019-04-21T11:00:14Z</time>
      </trkpt>
      <trkpt lat="40.748853" lon="-3.241554">
        <ele>743.578</ele>
        <time>2019-04-21T11:00:15Z</time>
      </trkpt>
      <trkpt lat="40.748881" lon="-3.241483">
        <ele>743.152</ele>
        <time>2019-04-21T11:00:16Z</time>
      </trkpt>
      <trkpt lat="40.748907" lon="-3.241406">
        <ele>742.653</ele>
        <time>2019-04-21T11:00:17Z</time>
      </trkpt>
      <trkpt lat="40.748931" lon="-3.241326">
        <ele>742.608</ele>
        <time>2019-04-21T11:00:18Z</time>
      </trkpt>
      <trkpt lat="40.748960" lon="-3.241248">
        <ele>742.708</ele>
        <time>2019-04-21T11:00:19Z</time>
      </trkpt>
      <trkpt lat="40.748996" lon="-3.241175">
        <ele>742.998</ele>
        <time>2019-04-21T11:00:20Z</time>
      </trkpt>
      <trkpt lat="40.749046" lon="-3.241116">
        <ele>742.970</ele>
        <time>2019-04-21T11:00:21Z</time>
      </trkpt>
      <trkpt lat="40.749105" lon="-3.241070">
        <ele>742.660</ele>
        <time>2019-04-21T11:00:22Z</time>
      </trkpt>
      <trkpt lat="40.749168" lon="-3.241056">
        <ele>742.085</ele>
        <time>2019-04-21T11:00:23Z</time>
      </trkpt>
      <trkpt lat="40.749231" lon="-3.241071">
        <ele>741.537</ele>
        <time>2019-04-21T11:00:24Z</time>
      </trkpt>
      <trkpt lat="40.749284" lon="-3.241106">
        <ele>740.819</ele>
        <time>2019-04-21T11:00:25Z</time>
      </trkpt>
      <trkpt lat="40.749335" lon="-3.241142">
        <ele>740.163</ele>
        <time>2019-04-21T11:00:26Z</time>
      </trkpt>
      <trkpt lat="40.749388" lon="-3.241175">
        <ele>739.544</ele>
        <time>2019-04-21T11:00:27Z</time>
      </trkpt>
      <trkpt lat="40.749440" lon="-3.241210">
        <ele>739.275</ele>
        <time>2019-04-21T11:00:28Z</time>
      </trkpt>
      <trkpt lat="40.749495" lon="-3.241248">
        <ele>738.928</ele>
        <time>2019-04-21T11:00:29Z</time>
      </trkpt>
      <trkpt lat="40.749555" lon="-3.241285">
        <ele>738.920</ele>
        <time>2019-04-21T11:00:30Z</time>
      </trkpt>
      <trkpt lat="40.749615" lon="-3.241322">
        <ele>738.908</ele>
        <time>2019-04-21T11:00:31Z</time>
      </trkpt>
      <trkpt lat="40.749677" lon="-3.241360">
        <ele>739.370</ele>
        <time>2019-04-21T11:00:32Z</time>
      </trkpt>
      <trkpt lat="40.749741" lon="-3.241395">
        <ele>739.512</ele>
        <time>2019-04-21T11:00:33Z</time>
      </trkpt>
      <trkpt lat="40.749804" lon="-3.241437">
        <ele>739.672</ele>
        <time>2019-04-21T11:00:34Z</time>
      </trkpt>
      <trkpt lat="40.749866" lon="-3.241486">
        <ele>739.627</ele>
        <time>2019-04-21T11:00:35Z</time>
      </trkpt>
      <trkpt lat="40.749935" lon="-3.241526">
        <ele>739.679</ele>
        <time>2019-04-21T11:00:36Z</time>
      </trkpt>
      <trkpt lat="40.750006" lon="-3.241567">
        <ele>739.621</ele>
        <time>2019-04-21T11:00:37Z</time>
      </trkpt>
      <trkpt lat="40.750075" lon="-3.241618">
        <ele>739.625</ele>
        <time>2019-04-21T11:00:38Z</time>
      </trkpt>
      <trkpt lat="40.750147" lon="-3.241661">
        <ele>739.626</ele>
        <time>2019-04-21T11:00:39Z</time>
      </trkpt>
      <trkpt lat="40.750218" lon="-3.241701">
        <ele>739.639</ele>
        <time>2019-04-21T11:00:40Z</time>
      </trkpt>
      <trkpt lat="40.750287" lon="-3.241740">
        <ele>739.701</ele>
        <time>2019-04-21T11:00:41Z</time>
      </trkpt>
      <trkpt lat="40.750352" lon="-3.241779">
        <ele>739.821</ele>
        <time>2019-04-21T11:00:42Z</time>
      </trkpt>
      <trkpt lat="40.750409" lon="-3.241826">
        <ele>739.908</ele>
        <time>2019-04-21T11:00:43Z</time>
      </trkpt>
      <trkpt lat="40.750464" lon="-3.241865">
        <ele>740.156</ele>
        <time>2019-04-21T11:00:44Z</time>
      </trkpt>
      <trkpt lat="40.750518" lon="-3.241895">
        <ele>740.488</ele>
        <time>2019-04-21T11:00:45Z</time>
      </trkpt>
      <trkpt lat="40.750576" lon="-3.241915">
        <ele>740.538</ele>
        <time>2019-04-21T11:00:46Z</time>
      </trkpt>
      <trkpt lat="40.750627" lon="-3.241953">
        <ele>740.563</ele>
        <time>2019-04-21T11:00:47Z</time>
      </trkpt>
      <trkpt lat="40.750679" lon="-3.241993">
        <ele>740.565</ele>
        <time>2019-04-21T11:00:48Z</time>
      </trkpt>
      <trkpt lat="40.750734" lon="-3.242030">
        <ele>740.437</ele>
        <time>2019-04-21T11:00:49Z</time>
      </trkpt>
      <trkpt lat="40.750791" lon="-3.242072">
        <ele>740.371</ele>
        <time>2019-04-21T11:00:50Z</time>
      </trkpt>
      <trkpt lat="40.750849" lon="-3.242118">
        <ele>740.382</ele>
        <time>2019-04-21T11:00:51Z</time>
      </trkpt>
      <trkpt lat="40.750909" lon="-3.242150">
        <ele>740.398</ele>
        <time>2019-04-21T11:00:52Z</time>
      </trkpt>
      <trkpt lat="40.750964" lon="-3.242184">
        <ele>740.315</ele>
        <time>2019-04-21T11:00:53Z</time>
      </trkpt>
      <trkpt lat="40.751014" lon="-3.242214">
        <ele>740.226</ele>
        <time>2019-04-21T11:00:54Z</time>
      </trkpt>
      <trkpt lat="40.751063" lon="-3.242244">
        <ele>740.208</ele>
        <time>2019-04-21T11:00:55Z</time>
      </trkpt>
      <trkpt lat="40.751118" lon="-3.242267">
        <ele>740.272</ele>
        <time>2019-04-21T11:00:56Z</time>
      </trkpt>
      <trkpt lat="40.751173" lon="-3.242300">
        <ele>740.174</ele>
        <time>2019-04-21T11:00:57Z</time>
      </trkpt>
      <trkpt lat="40.751228" lon="-3.242336">
        <ele>740.184</ele>
        <time>2019-04-21T11:00:58Z</time>
      </trkpt>
      <trkpt lat="40.751292" lon="-3.242368">
        <ele>740.139</ele>
        <time>2019-04-21T11:00:59Z</time>
      </trkpt>
      <trkpt lat="40.751347" lon="-3.242401">
        <ele>740.211</ele>
        <time>2019-04-21T11:01:00Z</time>
      </trkpt>
      <trkpt lat="40.751410" lon="-3.242429">
        <ele>740.263</ele>
        <time>2019-04-21T11:01:01Z</time>
      </trkpt>
      <trkpt lat="40.751466" lon="-3.242462">
        <ele>740.397</ele>
        <time>2019-04-21T11:01:02Z</time>
      </trkpt>
      <trkpt lat="40.751531" lon="-3.242508">
        <ele>740.478</ele>
        <time>2019-04-21T11:01:03Z</time>
      </trkpt>
      <trkpt lat="40.751583" lon="-3.242533">
        <ele>740.654</ele>
        <time>2019-04-21T11:01:04Z</time>
      </trkpt>
      <trkpt lat="40.751636" lon="-3.242574">
        <ele>740.756</ele>
        <time>2019-04-21T11:01:05Z</time>
      </trkpt>
      <trkpt lat="40.751706" lon="-3.242613">
        <ele>740.711</ele>
        <time>2019-04-21T11:01:06Z</time>
      </trkpt>
      <trkpt lat="40.751769" lon="-3.242652">
        <ele>740.808</ele>
        <time>2019-04-21T11:01:07Z</time>
      </trkpt>
      <trkpt lat="40.751828" lon="-3.242684">
        <ele>740.878</ele>
        <time>2019-04-21T11:01:08Z</time>
      </trkpt>
      <trkpt lat="40.751897" lon="-3.242725">
        <ele>740.830</ele>
        <time>2019-04-21T11:01:09Z</time>
      </trkpt>
      <trkpt lat="40.751957" lon="-3.242777">
        <ele>740.860</ele>
        <time>2019-04-21T11:01:10Z</time>
      </trkpt>
      <trkpt lat="40.752012" lon="-3.242809">
        <ele>740.825</ele>
        <time>2019-04-21T11:01:11Z</time>
      </trkpt>
      <trkpt lat="40.752070" lon="-3.242842">
        <ele>740.867</ele>
        <time>2019-04-21T11:01:12Z</time>
      </trkpt>
      <trkpt lat="40.752130" lon="-3.242875">
        <ele>740.819</ele>
        <time>2019-04-21T11:01:13Z</time>
      </trkpt>
      <trkpt lat="40.752183" lon="-3.242907">
        <ele>740.833</ele>
        <time>2019-04-21T11:01:14Z</time>
      </trkpt>
      <trkpt lat="40.752242" lon="-3.242941">
        <ele>740.884</ele>
        <time>2019-04-21T11:01:15Z</time>
      </trkpt>
      <trkpt lat="40.752298" lon="-3.242967">
        <ele>740.817</ele>
        <time>2019-04-21T11:01:16Z</time>
      </trkpt>
      <trkpt lat="40.752355" lon="-3.242996">
        <ele>740.987</ele>
        <time>2019-04-21T11:01:17Z</time>
      </trkpt>
      <trkpt lat="40.752413" lon="-3.243034">
        <ele>741.015</ele>
        <time>2019-04-21T11:01:18Z</time>
      </trkpt>
      <trkpt lat="40.752470" lon="-3.243069">
        <ele>741.108</ele>
        <time>2019-04-21T11:01:19Z</time>
      </trkpt>
      <trkpt lat="40.752531" lon="-3.243111">
        <ele>741.244</ele>
        <time>2019-04-21T11:01:20Z</time>
      </trkpt>
      <trkpt lat="40.752595" lon="-3.243152">
        <ele>741.356</ele>
        <time>2019-04-21T11:01:21Z</time>
      </trkpt>
      <trkpt lat="40.752653" lon="-3.243188">
        <ele>741.466</ele>
        <time>2019-04-21T11:01:22Z</time>
      </trkpt>
      <trkpt lat="40.752718" lon="-3.243227">
        <ele>741.421</ele>
        <time>2019-04-21T11:01:23Z</time>
      </trkpt>
      <trkpt lat="40.752781" lon="-3.243262">
        <ele>741.573</ele>
        <time>2019-04-21T11:01:24Z</time>
      </trkpt>
      <trkpt lat="40.752834" lon="-3.243285">
        <ele>741.515</ele>
        <time>2019-04-21T11:01:25Z</time>
      </trkpt>
      <trkpt lat="40.752886" lon="-3.243325">
        <ele>741.499</ele>
        <time>2019-04-21T11:01:27Z</time>
      </trkpt>
      <trkpt lat="40.752924" lon="-3.243361">
        <ele>741.380</ele>
        <time>2019-04-21T11:01:32Z</time>
      </trkpt>
      <trkpt lat="40.752973" lon="-3.243421">
        <ele>741.453</ele>
        <time>2019-04-21T11:01:44Z</time>
      </trkpt>
      <trkpt lat="40.753015" lon="-3.243446">
        <ele>741.504</ele>
        <time>2019-04-21T11:01:45Z</time>
      </trkpt>
      <trkpt lat="40.753068" lon="-3.243476">
        <ele>741.614</ele>
        <time>2019-04-21T11:01:46Z</time>
      </trkpt>
      <trkpt lat="40.753127" lon="-3.243508">
        <ele>741.708</ele>
        <time>2019-04-21T11:01:47Z</time>
      </trkpt>
      <trkpt lat="40.753182" lon="-3.243543">
        <ele>741.878</ele>
        <time>2019-04-21T11:01:48Z</time>
      </trkpt>
      <trkpt lat="40.753238" lon="-3.243580">
        <ele>741.910</ele>
        <time>2019-04-21T11:01:49Z</time>
      </trkpt>
      <trkpt lat="40.753299" lon="-3.243613">
        <ele>742.010</ele>
        <time>2019-04-21T11:01:50Z</time>
      </trkpt>
      <trkpt lat="40.753360" lon="-3.243653">
        <ele>742.265</ele>
        <time>2019-04-21T11:01:51Z</time>
      </trkpt>
      <trkpt lat="40.753411" lon="-3.243687">
        <ele>742.377</ele>
        <time>2019-04-21T11:01:52Z</time>
      </trkpt>
      <trkpt lat="40.753458" lon="-3.243718">
        <ele>742.419</ele>
        <time>2019-04-21T11:01:53Z</time>
      </trkpt>
      <trkpt lat="40.753529" lon="-3.243745">
        <ele>742.443</ele>
        <time>2019-04-21T11:01:55Z</time>
      </trkpt>
      <trkpt lat="40.753610" lon="-3.243799">
        <ele>742.534</ele>
        <time>2019-04-21T11:01:57Z</time>
      </trkpt>
      <trkpt lat="40.753670" lon="-3.243837">
        <ele>743.126</ele>
        <time>2019-04-21T11:01:58Z</time>
      </trkpt>
      <trkpt lat="40.753729" lon="-3.243878">
        <ele>743.647</ele>
        <time>2019-04-21T11:01:59Z</time>
      </trkpt>
      <trkpt lat="40.753784" lon="-3.243900">
        <ele>743.811</ele>
        <time>2019-04-21T11:02:00Z</time>
      </trkpt>
      <trkpt lat="40.753842" lon="-3.243930">
        <ele>743.908</ele>
        <time>2019-04-21T11:02:01Z</time>
      </trkpt>
      <trkpt lat="40.753907" lon="-3.243980">
        <ele>743.965</ele>
        <time>2019-04-21T11:02:02Z</time>
      </trkpt>
      <trkpt lat="40.754001" lon="-3.244002">
        <ele>743.847</ele>
        <time>2019-04-21T11:02:04Z</time>
      </trkpt>
      <trkpt lat="40.754047" lon="-3.244017">
        <ele>743.727</ele>
        <time>2019-04-21T11:02:05Z</time>
      </trkpt>
      <trkpt lat="40.754094" lon="-3.244038">
        <ele>743.622</ele>
        <time>2019-04-21T11:02:06Z</time>
      </trkpt>
      <trkpt lat="40.754141" lon="-3.244057">
        <ele>743.674</ele>
        <time>2019-04-21T11:02:07Z</time>
      </trkpt>
      <trkpt lat="40.754189" lon="-3.244074">
        <ele>743.676</ele>
        <time>2019-04-21T11:02:08Z</time>
      </trkpt>
      <trkpt lat="40.754237" lon="-3.244090">
        <ele>743.630</ele>
        <time>2019-04-21T11:02:09Z</time>
      </trkpt>
      <trkpt lat="40.754298" lon="-3.244111">
        <ele>743.611</ele>
        <time>2019-04-21T11:02:10Z</time>
      </trkpt>
      <trkpt lat="40.754351" lon="-3.244121">
        <ele>743.737</ele>
        <time>2019-04-21T11:02:11Z</time>
      </trkpt>
      <trkpt lat="40.754403" lon="-3.244133">
        <ele>743.749</ele>
        <time>2019-04-21T11:02:12Z</time>
      </trkpt>
      <trkpt lat="40.754458" lon="-3.244141">
        <ele>743.513</ele>
        <time>2019-04-21T11:02:13Z</time>
      </trkpt>
      <trkpt lat="40.754505" lon="-3.244147">
        <ele>743.308</ele>
        <time>2019-04-21T11:02:14Z</time>
      </trkpt>
      <trkpt lat="40.754592" lon="-3.244159">
        <ele>742.796</ele>
        <time>2019-04-21T11:02:16Z</time>
      </trkpt>
      <trkpt lat="40.754644" lon="-3.244170">
        <ele>742.518</ele>
        <time>2019-04-21T11:02:17Z</time>
      </trkpt>
      <trkpt lat="40.754700" lon="-3.244182">
        <ele>742.488</ele>
        <time>2019-04-21T11:02:18Z</time>
      </trkpt>
      <trkpt lat="40.754753" lon="-3.244196">
        <ele>742.463</ele>
        <time>2019-04-21T11:02:19Z</time>
      </trkpt>
      <trkpt lat="40.754798" lon="-3.244211">
        <ele>742.625</ele>
        <time>2019-04-21T11:02:20Z</time>
      </trkpt>
      <trkpt lat="40.754860" lon="-3.244229">
        <ele>743.047</ele>
        <time>2019-04-21T11:02:21Z</time>
      </trkpt>
      <trkpt lat="40.754926" lon="-3.244248">
        <ele>743.361</ele>
        <time>2019-04-21T11:02:22Z</time>
      </trkpt>
      <trkpt lat="40.754981" lon="-3.244266">
        <ele>743.462</ele>
        <time>2019-04-21T11:02:24Z</time>
      </trkpt>
      <trkpt lat="40.755034" lon="-3.244288">
        <ele>743.119</ele>
        <time>2019-04-21T11:02:27Z</time>
      </trkpt>
      <trkpt lat="40.755108" lon="-3.244313">
        <ele>743.509</ele>
        <time>2019-04-21T11:02:29Z</time>
      </trkpt>
      <trkpt lat="40.755171" lon="-3.244328">
        <ele>743.719</ele>
        <time>2019-04-21T11:02:30Z</time>
      </trkpt>
      <trkpt lat="40.755219" lon="-3.244347">
        <ele>743.808</ele>
        <time>2019-04-21T11:02:31Z</time>
      </trkpt>
      <trkpt lat="40.755288" lon="-3.244353">
        <ele>743.814</ele>
        <time>2019-04-21T11:02:32Z</time>
      </trkpt>
      <trkpt lat="40.755348" lon="-3.244367">
        <ele>743.936</ele>
        <time>2019-04-21T11:02:33Z</time>
      </trkpt>
      <trkpt lat="40.755401" lon="-3.244380">
        <ele>743.946</ele>
        <time>2019-04-21T11:02:34Z</time>
      </trkpt>
      <trkpt lat="40.755467" lon="-3.244397">
        <ele>744.021</ele>
        <time>2019-04-21T11:02:35Z</time>
      </trkpt>
      <trkpt lat="40.755523" lon="-3.244416">
        <ele>744.023</ele>
        <time>2019-04-21T11:02:36Z</time>
      </trkpt>
      <trkpt lat="40.755572" lon="-3.244438">
        <ele>744.045</ele>
        <time>2019-04-21T11:02:37Z</time>
      </trkpt>
      <trkpt lat="40.755618" lon="-3.244454">
        <ele>744.059</ele>
        <time>2019-04-21T11:02:38Z</time>
      </trkpt>
      <trkpt lat="40.755671" lon="-3.244470">
        <ele>744.010</ele>
        <time>2019-04-21T11:02:39Z</time>
      </trkpt>
      <trkpt lat="40.755768" lon="-3.244491">
        <ele>743.857</ele>
        <time>2019-04-21T11:02:41Z</time>
      </trkpt>
      <trkpt lat="40.755818" lon="-3.244503">
        <ele>743.900</ele>
        <time>2019-04-21T11:02:42Z</time>
      </trkpt>
      <trkpt lat="40.755868" lon="-3.244508">
        <ele>744.120</ele>
        <time>2019-04-21T11:02:43Z</time>
      </trkpt>
      <trkpt lat="40.755921" lon="-3.244514">
        <ele>744.208</ele>
        <time>2019-04-21T11:02:44Z</time>
      </trkpt>
      <trkpt lat="40.755975" lon="-3.244526">
        <ele>744.228</ele>
        <time>2019-04-21T11:02:45Z</time>
      </trkpt>
      <trkpt lat="40.756039" lon="-3.244534">
        <ele>744.230</ele>
        <time>2019-04-21T11:02:46Z</time>
      </trkpt>
      <trkpt lat="40.756088" lon="-3.244556">
        <ele>744.230</ele>
        <time>2019-04-21T11:02:47Z</time>
      </trkpt>
      <trkpt lat="40.756154" lon="-3.244572">
        <ele>744.145</ele>
        <time>2019-04-21T11:02:48Z</time>
      </trkpt>
      <trkpt lat="40.756218" lon="-3.244585">
        <ele>744.167</ele>
        <time>2019-04-21T11:02:49Z</time>
      </trkpt>
      <trkpt lat="40.756287" lon="-3.244601">
        <ele>744.139</ele>
        <time>2019-04-21T11:02:50Z</time>
      </trkpt>
      <trkpt lat="40.756348" lon="-3.244618">
        <ele>744.193</ele>
        <time>2019-04-21T11:02:51Z</time>
      </trkpt>
      <trkpt lat="40.756408" lon="-3.244641">
        <ele>743.944</ele>
        <time>2019-04-21T11:02:52Z</time>
      </trkpt>
      <trkpt lat="40.756465" lon="-3.244660">
        <ele>743.822</ele>
        <time>2019-04-21T11:02:53Z</time>
      </trkpt>
      <trkpt lat="40.756535" lon="-3.244681">
        <ele>743.662</ele>
        <time>2019-04-21T11:02:54Z</time>
      </trkpt>
      <trkpt lat="40.756613" lon="-3.244737">
        <ele>742.808</ele>
        <time>2019-04-21T11:02:56Z</time>
      </trkpt>
      <trkpt lat="40.756705" lon="-3.244790">
        <ele>742.308</ele>
        <time>2019-04-21T11:02:58Z</time>
      </trkpt>
      <trkpt lat="40.756764" lon="-3.244815">
        <ele>742.195</ele>
        <time>2019-04-21T11:02:59Z</time>
      </trkpt>
      <trkpt lat="40.756831" lon="-3.244837">
        <ele>741.957</ele>
        <time>2019-04-21T11:03:00Z</time>
      </trkpt>
      <trkpt lat="40.756897" lon="-3.244836">
        <ele>741.767</ele>
        <time>2019-04-21T11:03:01Z</time>
      </trkpt>
      <trkpt lat="40.756956" lon="-3.244823">
        <ele>741.722</ele>
        <time>2019-04-21T11:03:02Z</time>
      </trkpt>
      <trkpt lat="40.757009" lon="-3.244813">
        <ele>741.774</ele>
        <time>2019-04-21T11:03:03Z</time>
      </trkpt>
      <trkpt lat="40.757069" lon="-3.244826">
        <ele>741.846</ele>
        <time>2019-04-21T11:03:04Z</time>
      </trkpt>
      <trkpt lat="40.757141" lon="-3.244846">
        <ele>742.080</ele>
        <time>2019-04-21T11:03:05Z</time>
      </trkpt>
      <trkpt lat="40.757200" lon="-3.244863">
        <ele>742.461</ele>
        <time>2019-04-21T11:03:06Z</time>
      </trkpt>
      <trkpt lat="40.757262" lon="-3.244876">
        <ele>742.742</ele>
        <time>2019-04-21T11:03:07Z</time>
      </trkpt>
      <trkpt lat="40.757327" lon="-3.244900">
        <ele>743.022</ele>
        <time>2019-04-21T11:03:08Z</time>
      </trkpt>
      <trkpt lat="40.757386" lon="-3.244928">
        <ele>743.314</ele>
        <time>2019-04-21T11:03:09Z</time>
      </trkpt>
      <trkpt lat="40.757456" lon="-3.244953">
        <ele>743.308</ele>
        <time>2019-04-21T11:03:10Z</time>
      </trkpt>
      <trkpt lat="40.757536" lon="-3.244965">
        <ele>743.457</ele>
        <time>2019-04-21T11:03:11Z</time>
      </trkpt>
      <trkpt lat="40.757604" lon="-3.244984">
        <ele>743.569</ele>
        <time>2019-04-21T11:03:12Z</time>
      </trkpt>
      <trkpt lat="40.757670" lon="-3.245006">
        <ele>743.649</ele>
        <time>2019-04-21T11:03:13Z</time>
      </trkpt>
      <trkpt lat="40.757736" lon="-3.245024">
        <ele>743.844</ele>
        <time>2019-04-21T11:03:14Z</time>
      </trkpt>
      <trkpt lat="40.757801" lon="-3.245035">
        <ele>744.076</ele>
        <time>2019-04-21T11:03:15Z</time>
      </trkpt>
      <trkpt lat="40.757866" lon="-3.245050">
        <ele>744.238</ele>
        <time>2019-04-21T11:03:16Z</time>
      </trkpt>
      <trkpt lat="40.757928" lon="-3.245070">
        <ele>744.412</ele>
        <time>2019-04-21T11:03:17Z</time>
      </trkpt>
      <trkpt lat="40.757987" lon="-3.245097">
        <ele>744.643</ele>
        <time>2019-04-21T11:03:18Z</time>
      </trkpt>
      <trkpt lat="40.758043" lon="-3.245110">
        <ele>744.765</ele>
        <time>2019-04-21T11:03:19Z</time>
      </trkpt>
      <trkpt lat="40.758094" lon="-3.245128">
        <ele>744.868</ele>
        <time>2019-04-21T11:03:20Z</time>
      </trkpt>
      <trkpt lat="40.758143" lon="-3.245156">
        <ele>744.914</ele>
        <time>2019-04-21T11:03:21Z</time>
      </trkpt>
      <trkpt lat="40.758190" lon="-3.245181">
        <ele>744.908</ele>
        <time>2019-04-21T11:03:22Z</time>
      </trkpt>
      <trkpt lat="40.758240" lon="-3.245202">
        <ele>744.829</ele>
        <time>2019-04-21T11:03:23Z</time>
      </trkpt>
      <trkpt lat="40.758296" lon="-3.245226">
        <ele>744.731</ele>
        <time>2019-04-21T11:03:24Z</time>
      </trkpt>
      <trkpt lat="40.758352" lon="-3.245251">
        <ele>744.591</ele>
        <time>2019-04-21T11:03:25Z</time>
      </trkpt>
      <trkpt lat="40.758409" lon="-3.245272">
        <ele>744.286</ele>
        <time>2019-04-21T11:03:26Z</time>
      </trkpt>
      <trkpt lat="40.758454" lon="-3.245306">
        <ele>743.848</ele>
        <time>2019-04-21T11:03:27Z</time>
      </trkpt>
      <trkpt lat="40.758504" lon="-3.245338">
        <ele>743.330</ele>
        <time>2019-04-21T11:03:28Z</time>
      </trkpt>
      <trkpt lat="40.758551" lon="-3.245374">
        <ele>742.864</ele>
        <time>2019-04-21T11:03:29Z</time>
      </trkpt>
      <trkpt lat="40.758588" lon="-3.245420">
        <ele>742.275</ele>
        <time>2019-04-21T11:03:30Z</time>
      </trkpt>
      <trkpt lat="40.758616" lon="-3.245470">
        <ele>741.821</ele>
        <time>2019-04-21T11:03:31Z</time>
      </trkpt>
      <trkpt lat="40.758646" lon="-3.245514">
        <ele>741.541</ele>
        <time>2019-04-21T11:03:32Z</time>
      </trkpt>
      <trkpt lat="40.758690" lon="-3.245537">
        <ele>741.205</ele>
        <time>2019-04-21T11:03:33Z</time>
      </trkpt>
      <trkpt lat="40.758787" lon="-3.245554">
        <ele>741.108</ele>
        <time>2019-04-21T11:03:35Z</time>
      </trkpt>
      <trkpt lat="40.758839" lon="-3.245553">
        <ele>741.295</ele>
        <time>2019-04-21T11:03:36Z</time>
      </trkpt>
      <trkpt lat="40.758905" lon="-3.245548">
        <ele>741.417</ele>
        <time>2019-04-21T11:03:37Z</time>
      </trkpt>
      <trkpt lat="40.758959" lon="-3.245529">
        <ele>742.237</ele>
        <time>2019-04-21T11:03:38Z</time>
      </trkpt>
      <trkpt lat="40.759009" lon="-3.245504">
        <ele>742.712</ele>
        <time>2019-04-21T11:03:39Z</time>
      </trkpt>
      <trkpt lat="40.759080" lon="-3.245462">
        <ele>743.164</ele>
        <time>2019-04-21T11:03:40Z</time>
      </trkpt>
      <trkpt lat="40.759148" lon="-3.245428">
        <ele>743.466</ele>
        <time>2019-04-21T11:03:41Z</time>
      </trkpt>
      <trkpt lat="40.759218" lon="-3.245401">
        <ele>743.760</ele>
        <time>2019-04-21T11:03:42Z</time>
      </trkpt>
      <trkpt lat="40.759298" lon="-3.245379">
        <ele>743.811</ele>
        <time>2019-04-21T11:03:43Z</time>
      </trkpt>
      <trkpt lat="40.759372" lon="-3.245352">
        <ele>743.813</ele>
        <time>2019-04-21T11:03:44Z</time>
      </trkpt>
      <trkpt lat="40.759454" lon="-3.245341">
        <ele>743.743</ele>
        <time>2019-04-21T11:03:45Z</time>
      </trkpt>
      <trkpt lat="40.759523" lon="-3.245328">
        <ele>743.607</ele>
        <time>2019-04-21T11:03:46Z</time>
      </trkpt>
      <trkpt lat="40.759584" lon="-3.245320">
        <ele>743.408</ele>
        <time>2019-04-21T11:03:47Z</time>
      </trkpt>
      <trkpt lat="40.759651" lon="-3.245330">
        <ele>743.194</ele>
        <time>2019-04-21T11:03:48Z</time>
      </trkpt>
      <trkpt lat="40.759711" lon="-3.245343">
        <ele>742.896</ele>
        <time>2019-04-21T11:03:49Z</time>
      </trkpt>
      <trkpt lat="40.759773" lon="-3.245359">
        <ele>742.636</ele>
        <time>2019-04-21T11:03:50Z</time>
      </trkpt>
      <trkpt lat="40.759837" lon="-3.245372">
        <ele>742.591</ele>
        <time>2019-04-21T11:03:51Z</time>
      </trkpt>
      <trkpt lat="40.759904" lon="-3.245385">
        <ele>742.543</ele>
        <time>2019-04-21T11:03:52Z</time>
      </trkpt>
      <trkpt lat="40.759980" lon="-3.245395">
        <ele>742.565</ele>
        <time>2019-04-21T11:03:53Z</time>
      </trkpt>
      <trkpt lat="40.760050" lon="-3.245396">
        <ele>742.649</ele>
        <time>2019-04-21T11:03:54Z</time>
      </trkpt>
      <trkpt lat="40.760113" lon="-3.245398">
        <ele>742.710</ele>
        <time>2019-04-21T11:03:55Z</time>
      </trkpt>
      <trkpt lat="40.760178" lon="-3.245409">
        <ele>742.716</ele>
        <time>2019-04-21T11:03:56Z</time>
      </trkpt>
      <trkpt lat="40.760241" lon="-3.245397">
        <ele>742.776</ele>
        <time>2019-04-21T11:03:57Z</time>
      </trkpt>
      <trkpt lat="40.760303" lon="-3.245386">
        <ele>742.713</ele>
        <time>2019-04-21T11:03:58Z</time>
      </trkpt>
      <trkpt lat="40.760364" lon="-3.245384">
        <ele>742.608</ele>
        <time>2019-04-21T11:03:59Z</time>
      </trkpt>
      <trkpt lat="40.760430" lon="-3.245385">
        <ele>742.594</ele>
        <time>2019-04-21T11:04:00Z</time>
      </trkpt>
      <trkpt lat="40.760499" lon="-3.245388">
        <ele>742.436</ele>
        <time>2019-04-21T11:04:01Z</time>
      </trkpt>
      <trkpt lat="40.760559" lon="-3.245388">
        <ele>742.476</ele>
        <time>2019-04-21T11:04:02Z</time>
      </trkpt>
      <trkpt lat="40.760623" lon="-3.245391">
        <ele>742.411</ele>
        <time>2019-04-21T11:04:03Z</time>
      </trkpt>
      <trkpt lat="40.760689" lon="-3.245393">
        <ele>742.483</ele>
        <time>2019-04-21T11:04:04Z</time>
      </trkpt>
      <trkpt lat="40.760742" lon="-3.245408">
        <ele>742.585</ele>
        <time>2019-04-21T11:04:05Z</time>
      </trkpt>
      <trkpt lat="40.760794" lon="-3.245425">
        <ele>742.759</ele>
        <time>2019-04-21T11:04:06Z</time>
      </trkpt>
      <trkpt lat="40.760857" lon="-3.245436">
        <ele>742.890</ele>
        <time>2019-04-21T11:04:07Z</time>
      </trkpt>
      <trkpt lat="40.760919" lon="-3.245447">
        <ele>743.093</ele>
        <time>2019-04-21T11:04:08Z</time>
      </trkpt>
      <trkpt lat="40.760987" lon="-3.245453">
        <ele>743.165</ele>
        <time>2019-04-21T11:04:09Z</time>
      </trkpt>
      <trkpt lat="40.761059" lon="-3.245460">
        <ele>743.321</ele>
        <time>2019-04-21T11:04:10Z</time>
      </trkpt>
      <trkpt lat="40.761144" lon="-3.245460">
        <ele>743.508</ele>
        <time>2019-04-21T11:04:11Z</time>
      </trkpt>
      <trkpt lat="40.761221" lon="-3.245464">
        <ele>743.682</ele>
        <time>2019-04-21T11:04:12Z</time>
      </trkpt>
      <trkpt lat="40.761286" lon="-3.245474">
        <ele>743.784</ele>
        <time>2019-04-21T11:04:13Z</time>
      </trkpt>
      <trkpt lat="40.761348" lon="-3.245480">
        <ele>743.894</ele>
        <time>2019-04-21T11:04:14Z</time>
      </trkpt>
      <trkpt lat="40.761414" lon="-3.245490">
        <ele>743.969</ele>
        <time>2019-04-21T11:04:15Z</time>
      </trkpt>
      <trkpt lat="40.761485" lon="-3.245492">
        <ele>744.071</ele>
        <time>2019-04-21T11:04:16Z</time>
      </trkpt>
      <trkpt lat="40.761545" lon="-3.245491">
        <ele>744.123</ele>
        <time>2019-04-21T11:04:17Z</time>
      </trkpt>
      <trkpt lat="40.761616" lon="-3.245489">
        <ele>744.257</ele>
        <time>2019-04-21T11:04:18Z</time>
      </trkpt>
      <trkpt lat="40.761681" lon="-3.245482">
        <ele>744.348</ele>
        <time>2019-04-21T11:04:19Z</time>
      </trkpt>
      <trkpt lat="40.761759" lon="-3.245467">
        <ele>744.494</ele>
        <time>2019-04-21T11:04:20Z</time>
      </trkpt>
      <trkpt lat="40.761829" lon="-3.245436">
        <ele>744.657</ele>
        <time>2019-04-21T11:04:21Z</time>
      </trkpt>
      <trkpt lat="40.761898" lon="-3.245401">
        <ele>744.822</ele>
        <time>2019-04-21T11:04:22Z</time>
      </trkpt>
      <trkpt lat="40.761964" lon="-3.245369">
        <ele>745.008</ele>
        <time>2019-04-21T11:04:23Z</time>
      </trkpt>
      <trkpt lat="40.762030" lon="-3.245343">
        <ele>745.182</ele>
        <time>2019-04-21T11:04:24Z</time>
      </trkpt>
      <trkpt lat="40.762101" lon="-3.245309">
        <ele>745.244</ele>
        <time>2019-04-21T11:04:25Z</time>
      </trkpt>
      <trkpt lat="40.762166" lon="-3.245259">
        <ele>745.244</ele>
        <time>2019-04-21T11:04:26Z</time>
      </trkpt>
      <trkpt lat="40.762226" lon="-3.245222">
        <ele>745.269</ele>
        <time>2019-04-21T11:04:27Z</time>
      </trkpt>
      <trkpt lat="40.762286" lon="-3.245183">
        <ele>745.241</ele>
        <time>2019-04-21T11:04:28Z</time>
      </trkpt>
      <trkpt lat="40.762346" lon="-3.245139">
        <ele>745.233</ele>
        <time>2019-04-21T11:04:29Z</time>
      </trkpt>
      <trkpt lat="40.762406" lon="-3.245096">
        <ele>745.297</ele>
        <time>2019-04-21T11:04:30Z</time>
      </trkpt>
      <trkpt lat="40.762471" lon="-3.245048">
        <ele>745.278</ele>
        <time>2019-04-21T11:04:31Z</time>
      </trkpt>
      <trkpt lat="40.762537" lon="-3.245011">
        <ele>745.377</ele>
        <time>2019-04-21T11:04:32Z</time>
      </trkpt>
      <trkpt lat="40.762604" lon="-3.244988">
        <ele>745.461</ele>
        <time>2019-04-21T11:04:33Z</time>
      </trkpt>
      <trkpt lat="40.762671" lon="-3.244970">
        <ele>745.627</ele>
        <time>2019-04-21T11:04:34Z</time>
      </trkpt>
      <trkpt lat="40.762736" lon="-3.244966">
        <ele>746.108</ele>
        <time>2019-04-21T11:04:35Z</time>
      </trkpt>
      <trkpt lat="40.762798" lon="-3.244971">
        <ele>746.470</ele>
        <time>2019-04-21T11:04:36Z</time>
      </trkpt>
      <trkpt lat="40.762863" lon="-3.244975">
        <ele>746.652</ele>
        <time>2019-04-21T11:04:37Z</time>
      </trkpt>
      <trkpt lat="40.762930" lon="-3.244978">
        <ele>746.892</ele>
        <time>2019-04-21T11:04:38Z</time>
      </trkpt>
      <trkpt lat="40.762997" lon="-3.244978">
        <ele>746.987</ele>
        <time>2019-04-21T11:04:39Z</time>
      </trkpt>
      <trkpt lat="40.763063" lon="-3.244988">
        <ele>746.919</ele>
        <time>2019-04-21T11:04:40Z</time>
      </trkpt>
      <trkpt lat="40.763125" lon="-3.244991">
        <ele>746.991</ele>
        <time>2019-04-21T11:04:41Z</time>
      </trkpt>
      <trkpt lat="40.763184" lon="-3.245004">
        <ele>746.845</ele>
        <time>2019-04-21T11:04:42Z</time>
      </trkpt>
      <trkpt lat="40.763237" lon="-3.245022">
        <ele>746.716</ele>
        <time>2019-04-21T11:04:43Z</time>
      </trkpt>
      <trkpt lat="40.763287" lon="-3.245048">
        <ele>746.638</ele>
        <time>2019-04-21T11:04:44Z</time>
      </trkpt>
      <trkpt lat="40.763338" lon="-3.245075">
        <ele>746.670</ele>
        <time>2019-04-21T11:04:45Z</time>
      </trkpt>
      <trkpt lat="40.763392" lon="-3.245099">
        <ele>746.617</ele>
        <time>2019-04-21T11:04:46Z</time>
      </trkpt>
      <trkpt lat="40.763447" lon="-3.245119">
        <ele>746.708</ele>
        <time>2019-04-21T11:04:47Z</time>
      </trkpt>
      <trkpt lat="40.763505" lon="-3.245136">
        <ele>746.846</ele>
        <time>2019-04-21T11:04:48Z</time>
      </trkpt>
      <trkpt lat="40.763563" lon="-3.245155">
        <ele>746.918</ele>
        <time>2019-04-21T11:04:49Z</time>
      </trkpt>
      <trkpt lat="40.763618" lon="-3.245165">
        <ele>747.098</ele>
        <time>2019-04-21T11:04:50Z</time>
      </trkpt>
      <trkpt lat="40.763684" lon="-3.245163">
        <ele>747.193</ele>
        <time>2019-04-21T11:04:51Z</time>
      </trkpt>
      <trkpt lat="40.763740" lon="-3.245157">
        <ele>747.245</ele>
        <time>2019-04-21T11:04:52Z</time>
      </trkpt>
      <trkpt lat="40.763795" lon="-3.245140">
        <ele>747.247</ele>
        <time>2019-04-21T11:04:53Z</time>
      </trkpt>
      <trkpt lat="40.763847" lon="-3.245127">
        <ele>747.271</ele>
        <time>2019-04-21T11:04:54Z</time>
      </trkpt>
      <trkpt lat="40.763924" lon="-3.245108">
        <ele>747.122</ele>
        <time>2019-04-21T11:04:56Z</time>
      </trkpt>
      <trkpt lat="40.763974" lon="-3.245094">
        <ele>747.089</ele>
        <time>2019-04-21T11:04:57Z</time>
      </trkpt>
      <trkpt lat="40.764075" lon="-3.245063">
        <ele>747.006</ele>
        <time>2019-04-21T11:04:59Z</time>
      </trkpt>
      <trkpt lat="40.764140" lon="-3.245043">
        <ele>747.126</ele>
        <time>2019-04-21T11:05:00Z</time>
      </trkpt>
      <trkpt lat="40.764203" lon="-3.245020">
        <ele>747.208</ele>
        <time>2019-04-21T11:05:01Z</time>
      </trkpt>
      <trkpt lat="40.764269" lon="-3.244996">
        <ele>747.211</ele>
        <time>2019-04-21T11:05:02Z</time>
      </trkpt>
      <trkpt lat="40.764326" lon="-3.244980">
        <ele>747.293</ele>
        <time>2019-04-21T11:05:03Z</time>
      </trkpt>
      <trkpt lat="40.764380" lon="-3.244962">
        <ele>747.243</ele>
        <time>2019-04-21T11:05:04Z</time>
      </trkpt>
      <trkpt lat="40.764442" lon="-3.244943">
        <ele>747.178</ele>
        <time>2019-04-21T11:05:05Z</time>
      </trkpt>
      <trkpt lat="40.764506" lon="-3.244926">
        <ele>747.120</ele>
        <time>2019-04-21T11:05:06Z</time>
      </trkpt>
      <trkpt lat="40.764577" lon="-3.244906">
        <ele>747.182</ele>
        <time>2019-04-21T11:05:07Z</time>
      </trkpt>
      <trkpt lat="40.764642" lon="-3.244892">
        <ele>747.196</ele>
        <time>2019-04-21T11:05:08Z</time>
      </trkpt>
      <trkpt lat="40.764723" lon="-3.244882">
        <ele>747.167</ele>
        <time>2019-04-21T11:05:09Z</time>
      </trkpt>
      <trkpt lat="40.764787" lon="-3.244876">
        <ele>747.116</ele>
        <time>2019-04-21T11:05:10Z</time>
      </trkpt>
      <trkpt lat="40.764847" lon="-3.244878">
        <ele>747.176</ele>
        <time>2019-04-21T11:05:11Z</time>
      </trkpt>
      <trkpt lat="40.764913" lon="-3.244880">
        <ele>747.113</ele>
        <time>2019-04-21T11:05:12Z</time>
      </trkpt>
      <trkpt lat="40.764982" lon="-3.244884">
        <ele>747.108</ele>
        <time>2019-04-21T11:05:13Z</time>
      </trkpt>
      <trkpt lat="40.765055" lon="-3.244891">
        <ele>747.194</ele>
        <time>2019-04-21T11:05:14Z</time>
      </trkpt>
      <trkpt lat="40.765124" lon="-3.244898">
        <ele>747.226</ele>
        <time>2019-04-21T11:05:15Z</time>
      </trkpt>
      <trkpt lat="40.765196" lon="-3.244903">
        <ele>747.296</ele>
        <time>2019-04-21T11:05:16Z</time>
      </trkpt>
      <trkpt lat="40.765268" lon="-3.244902">
        <ele>747.221</ele>
        <time>2019-04-21T11:05:17Z</time>
      </trkpt>
      <trkpt lat="40.765329" lon="-3.244902">
        <ele>747.293</ele>
        <time>2019-04-21T11:05:18Z</time>
      </trkpt>
      <trkpt lat="40.765386" lon="-3.244895">
        <ele>747.275</ele>
        <time>2019-04-21T11:05:19Z</time>
      </trkpt>
      <trkpt lat="40.765444" lon="-3.244887">
        <ele>747.099</ele>
        <time>2019-04-21T11:05:20Z</time>
      </trkpt>
      <trkpt lat="40.765496" lon="-3.244882">
        <ele>746.920</ele>
        <time>2019-04-21T11:05:21Z</time>
      </trkpt>
      <trkpt lat="40.765581" lon="-3.244884">
        <ele>746.616</ele>
        <time>2019-04-21T11:05:23Z</time>
      </trkpt>
      <trkpt lat="40.765629" lon="-3.244895">
        <ele>746.576</ele>
        <time>2019-04-21T11:05:24Z</time>
      </trkpt>
      <trkpt lat="40.765687" lon="-3.244915">
        <ele>746.513</ele>
        <time>2019-04-21T11:05:25Z</time>
      </trkpt>
      <trkpt lat="40.765750" lon="-3.244935">
        <ele>746.508</ele>
        <time>2019-04-21T11:05:26Z</time>
      </trkpt>
      <trkpt lat="40.765820" lon="-3.244953">
        <ele>746.694</ele>
        <time>2019-04-21T11:05:27Z</time>
      </trkpt>
      <trkpt lat="40.765887" lon="-3.244963">
        <ele>746.676</ele>
        <time>2019-04-21T11:05:28Z</time>
      </trkpt>
      <trkpt lat="40.765949" lon="-3.244984">
        <ele>746.776</ele>
        <time>2019-04-21T11:05:29Z</time>
      </trkpt>
      <trkpt lat="40.766007" lon="-3.245010">
        <ele>746.941</ele>
        <time>2019-04-21T11:05:30Z</time>
      </trkpt>
      <trkpt lat="40.766056" lon="-3.245063">
        <ele>747.143</ele>
        <time>2019-04-21T11:05:31Z</time>
      </trkpt>
      <trkpt lat="40.766088" lon="-3.245136">
        <ele>747.485</ele>
        <time>2019-04-21T11:05:32Z</time>
      </trkpt>
      <trkpt lat="40.766116" lon="-3.245216">
        <ele>747.819</ele>
        <time>2019-04-21T11:05:33Z</time>
      </trkpt>
      <trkpt lat="40.766142" lon="-3.245298">
        <ele>748.620</ele>
        <time>2019-04-21T11:05:34Z</time>
      </trkpt>
      <trkpt lat="40.766167" lon="-3.245384">
        <ele>748.981</ele>
        <time>2019-04-21T11:05:35Z</time>
      </trkpt>
      <trkpt lat="40.766189" lon="-3.245476">
        <ele>749.261</ele>
        <time>2019-04-21T11:05:36Z</time>
      </trkpt>
      <trkpt lat="40.766211" lon="-3.245564">
        <ele>749.517</ele>
        <time>2019-04-21T11:05:37Z</time>
      </trkpt>
      <trkpt lat="40.766233" lon="-3.245648">
        <ele>749.808</ele>
        <time>2019-04-21T11:05:38Z</time>
      </trkpt>
      <trkpt lat="40.766254" lon="-3.245728">
        <ele>750.121</ele>
        <time>2019-04-21T11:05:39Z</time>
      </trkpt>
      <trkpt lat="40.766278" lon="-3.245802">
        <ele>750.343</ele>
        <time>2019-04-21T11:05:40Z</time>
      </trkpt>
      <trkpt lat="40.766305" lon="-3.245868">
        <ele>750.453</ele>
        <time>2019-04-21T11:05:41Z</time>
      </trkpt>
      <trkpt lat="40.766331" lon="-3.245927">
        <ele>750.598</ele>
        <time>2019-04-21T11:05:42Z</time>
      </trkpt>
      <trkpt lat="40.766360" lon="-3.245979">
        <ele>750.620</ele>
        <time>2019-04-21T11:05:43Z</time>
      </trkpt>
      <trkpt lat="40.766403" lon="-3.246063">
        <ele>750.772</ele>
        <time>2019-04-21T11:05:45Z</time>
      </trkpt>
      <trkpt lat="40.766442" lon="-3.246152">
        <ele>750.996</ele>
        <time>2019-04-21T11:05:47Z</time>
      </trkpt>
      <trkpt lat="40.766475" lon="-3.246213">
        <ele>751.657</ele>
        <time>2019-04-21T11:05:49Z</time>
      </trkpt>
      <trkpt lat="40.766508" lon="-3.246260">
        <ele>751.919</ele>
        <time>2019-04-21T11:05:50Z</time>
      </trkpt>
      <trkpt lat="40.766554" lon="-3.246310">
        <ele>752.309</ele>
        <time>2019-04-21T11:05:51Z</time>
      </trkpt>
      <trkpt lat="40.766605" lon="-3.246371">
        <ele>752.719</ele>
        <time>2019-04-21T11:05:52Z</time>
      </trkpt>
      <trkpt lat="40.766670" lon="-3.246431">
        <ele>753.208</ele>
        <time>2019-04-21T11:05:53Z</time>
      </trkpt>
      <trkpt lat="40.766731" lon="-3.246476">
        <ele>753.874</ele>
        <time>2019-04-21T11:05:54Z</time>
      </trkpt>
      <trkpt lat="40.766787" lon="-3.246518">
        <ele>754.416</ele>
        <time>2019-04-21T11:05:55Z</time>
      </trkpt>
      <trkpt lat="40.766846" lon="-3.246555">
        <ele>755.016</ele>
        <time>2019-04-21T11:05:56Z</time>
      </trkpt>
      <trkpt lat="40.766900" lon="-3.246588">
        <ele>755.841</ele>
        <time>2019-04-21T11:05:57Z</time>
      </trkpt>
      <trkpt lat="40.766963" lon="-3.246619">
        <ele>756.533</ele>
        <time>2019-04-21T11:05:58Z</time>
      </trkpt>
      <trkpt lat="40.767049" lon="-3.246629">
        <ele>757.285</ele>
        <time>2019-04-21T11:05:59Z</time>
      </trkpt>
      <trkpt lat="40.767123" lon="-3.246648">
        <ele>757.919</ele>
        <time>2019-04-21T11:06:00Z</time>
      </trkpt>
      <trkpt lat="40.767200" lon="-3.246675">
        <ele>758.690</ele>
        <time>2019-04-21T11:06:01Z</time>
      </trkpt>
      <trkpt lat="40.767276" lon="-3.246709">
        <ele>759.019</ele>
        <time>2019-04-21T11:06:02Z</time>
      </trkpt>
      <trkpt lat="40.767367" lon="-3.246742">
        <ele>759.609</ele>
        <time>2019-04-21T11:06:03Z</time>
      </trkpt>
      <trkpt lat="40.767440" lon="-3.246765">
        <ele>759.719</ele>
        <time>2019-04-21T11:06:04Z</time>
      </trkpt>
      <trkpt lat="40.767518" lon="-3.246795">
        <ele>759.708</ele>
        <time>2019-04-21T11:06:05Z</time>
      </trkpt>
      <trkpt lat="40.767592" lon="-3.246825">
        <ele>759.644</ele>
        <time>2019-04-21T11:06:06Z</time>
      </trkpt>
      <trkpt lat="40.767666" lon="-3.246856">
        <ele>759.536</ele>
        <time>2019-04-21T11:06:07Z</time>
      </trkpt>
      <trkpt lat="40.767736" lon="-3.246893">
        <ele>759.436</ele>
        <time>2019-04-21T11:06:08Z</time>
      </trkpt>
      <trkpt lat="40.767820" lon="-3.246926">
        <ele>759.371</ele>
        <time>2019-04-21T11:06:09Z</time>
      </trkpt>
      <trkpt lat="40.767891" lon="-3.246970">
        <ele>759.233</ele>
        <time>2019-04-21T11:06:10Z</time>
      </trkpt>
      <trkpt lat="40.767956" lon="-3.247004">
        <ele>759.135</ele>
        <time>2019-04-21T11:06:11Z</time>
      </trkpt>
      <trkpt lat="40.768028" lon="-3.247032">
        <ele>759.089</ele>
        <time>2019-04-21T11:06:12Z</time>
      </trkpt>
      <trkpt lat="40.768094" lon="-3.247060">
        <ele>758.910</ele>
        <time>2019-04-21T11:06:13Z</time>
      </trkpt>
      <trkpt lat="40.768153" lon="-3.247093">
        <ele>758.976</ele>
        <time>2019-04-21T11:06:14Z</time>
      </trkpt>
      <trkpt lat="40.768221" lon="-3.247109">
        <ele>758.990</ele>
        <time>2019-04-21T11:06:15Z</time>
      </trkpt>
      <trkpt lat="40.768291" lon="-3.247116">
        <ele>758.919</ele>
        <time>2019-04-21T11:06:16Z</time>
      </trkpt>
      <trkpt lat="40.768359" lon="-3.247123">
        <ele>758.908</ele>
        <time>2019-04-21T11:06:17Z</time>
      </trkpt>
      <trkpt lat="40.768427" lon="-3.247129">
        <ele>758.790</ele>
        <time>2019-04-21T11:06:18Z</time>
      </trkpt>
      <trkpt lat="40.768497" lon="-3.247130">
        <ele>758.662</ele>
        <time>2019-04-21T11:06:19Z</time>
      </trkpt>
      <trkpt lat="40.768563" lon="-3.247134">
        <ele>758.452</ele>
        <time>2019-04-21T11:06:20Z</time>
      </trkpt>
      <trkpt lat="40.768626" lon="-3.247138">
        <ele>758.257</ele>
        <time>2019-04-21T11:06:21Z</time>
      </trkpt>
      <trkpt lat="40.768693" lon="-3.247144">
        <ele>758.049</ele>
        <time>2019-04-21T11:06:22Z</time>
      </trkpt>
      <trkpt lat="40.768759" lon="-3.247151">
        <ele>757.851</ele>
        <time>2019-04-21T11:06:23Z</time>
      </trkpt>
      <trkpt lat="40.768820" lon="-3.247158">
        <ele>757.635</ele>
        <time>2019-04-21T11:06:24Z</time>
      </trkpt>
      <trkpt lat="40.768886" lon="-3.247166">
        <ele>757.416</ele>
        <time>2019-04-21T11:06:25Z</time>
      </trkpt>
      <trkpt lat="40.768960" lon="-3.247177">
        <ele>757.321</ele>
        <time>2019-04-21T11:06:26Z</time>
      </trkpt>
      <trkpt lat="40.769029" lon="-3.247189">
        <ele>757.341</ele>
        <time>2019-04-21T11:06:27Z</time>
      </trkpt>
      <trkpt lat="40.769100" lon="-3.247203">
        <ele>757.205</ele>
        <time>2019-04-21T11:06:28Z</time>
      </trkpt>
      <trkpt lat="40.769169" lon="-3.247219">
        <ele>757.208</ele>
        <time>2019-04-21T11:06:29Z</time>
      </trkpt>
      <trkpt lat="40.769238" lon="-3.247232">
        <ele>757.245</ele>
        <time>2019-04-21T11:06:30Z</time>
      </trkpt>
      <trkpt lat="40.769306" lon="-3.247243">
        <ele>757.247</ele>
        <time>2019-04-21T11:06:31Z</time>
      </trkpt>
      <trkpt lat="40.769371" lon="-3.247259">
        <ele>757.227</ele>
        <time>2019-04-21T11:06:32Z</time>
      </trkpt>
      <trkpt lat="40.769433" lon="-3.247268">
        <ele>757.092</ele>
        <time>2019-04-21T11:06:33Z</time>
      </trkpt>
      <trkpt lat="40.769492" lon="-3.247281">
        <ele>756.964</ele>
        <time>2019-04-21T11:06:34Z</time>
      </trkpt>
      <trkpt lat="40.769549" lon="-3.247292">
        <ele>756.856</ele>
        <time>2019-04-21T11:06:35Z</time>
      </trkpt>
      <trkpt lat="40.769606" lon="-3.247306">
        <ele>756.730</ele>
        <time>2019-04-21T11:06:36Z</time>
      </trkpt>
      <trkpt lat="40.769664" lon="-3.247321">
        <ele>756.721</ele>
        <time>2019-04-21T11:06:37Z</time>
      </trkpt>
      <trkpt lat="40.769723" lon="-3.247335">
        <ele>756.797</ele>
        <time>2019-04-21T11:06:38Z</time>
      </trkpt>
      <trkpt lat="40.769786" lon="-3.247339">
        <ele>756.723</ele>
        <time>2019-04-21T11:06:39Z</time>
      </trkpt>
      <trkpt lat="40.769848" lon="-3.247338">
        <ele>756.725</ele>
        <time>2019-04-21T11:06:40Z</time>
      </trkpt>
      <trkpt lat="40.769908" lon="-3.247344">
        <ele>756.708</ele>
        <time>2019-04-21T11:06:41Z</time>
      </trkpt>
      <trkpt lat="40.769966" lon="-3.247358">
        <ele>756.772</ele>
        <time>2019-04-21T11:06:42Z</time>
      </trkpt>
      <trkpt lat="40.770022" lon="-3.247365">
        <ele>756.784</ele>
        <time>2019-04-21T11:06:43Z</time>
      </trkpt>
      <trkpt lat="40.770080" lon="-3.247372">
        <ele>756.784</ele>
        <time>2019-04-21T11:06:44Z</time>
      </trkpt>
      <trkpt lat="40.770133" lon="-3.247373">
        <ele>756.759</ele>
        <time>2019-04-21T11:06:45Z</time>
      </trkpt>
      <trkpt lat="40.770181" lon="-3.247384">
        <ele>756.791</ele>
        <time>2019-04-21T11:06:46Z</time>
      </trkpt>
      <trkpt lat="40.770229" lon="-3.247392">
        <ele>756.793</ele>
        <time>2019-04-21T11:06:47Z</time>
      </trkpt>
      <trkpt lat="40.770276" lon="-3.247400">
        <ele>756.767</ele>
        <time>2019-04-21T11:06:48Z</time>
      </trkpt>
      <trkpt lat="40.770322" lon="-3.247413">
        <ele>756.728</ele>
        <time>2019-04-21T11:06:49Z</time>
      </trkpt>
      <trkpt lat="40.770371" lon="-3.247421">
        <ele>756.793</ele>
        <time>2019-04-21T11:06:50Z</time>
      </trkpt>
      <trkpt lat="40.770422" lon="-3.247431">
        <ele>756.765</ele>
        <time>2019-04-21T11:06:51Z</time>
      </trkpt>
      <trkpt lat="40.770477" lon="-3.247438">
        <ele>756.621</ele>
        <time>2019-04-21T11:06:52Z</time>
      </trkpt>
      <trkpt lat="40.770534" lon="-3.247448">
        <ele>756.508</ele>
        <time>2019-04-21T11:06:53Z</time>
      </trkpt>
      <trkpt lat="40.770591" lon="-3.247459">
        <ele>756.492</ele>
        <time>2019-04-21T11:06:54Z</time>
      </trkpt>
      <trkpt lat="40.770647" lon="-3.247472">
        <ele>756.414</ele>
        <time>2019-04-21T11:06:55Z</time>
      </trkpt>
      <trkpt lat="40.770704" lon="-3.247488">
        <ele>756.344</ele>
        <time>2019-04-21T11:06:56Z</time>
      </trkpt>
      <trkpt lat="40.770759" lon="-3.247503">
        <ele>756.389</ele>
        <time>2019-04-21T11:06:57Z</time>
      </trkpt>
      <trkpt lat="40.770817" lon="-3.247510">
        <ele>756.351</ele>
        <time>2019-04-21T11:06:58Z</time>
      </trkpt>
      <trkpt lat="40.770874" lon="-3.247514">
        <ele>756.363</ele>
        <time>2019-04-21T11:06:59Z</time>
      </trkpt>
      <trkpt lat="40.770928" lon="-3.247510">
        <ele>756.337</ele>
        <time>2019-04-21T11:07:00Z</time>
      </trkpt>
      <trkpt lat="40.770981" lon="-3.247500">
        <ele>756.248</ele>
        <time>2019-04-21T11:07:01Z</time>
      </trkpt>
      <trkpt lat="40.771032" lon="-3.247495">
        <ele>756.122</ele>
        <time>2019-04-21T11:07:02Z</time>
      </trkpt>
      <trkpt lat="40.771081" lon="-3.247492">
        <ele>755.862</ele>
        <time>2019-04-21T11:07:03Z</time>
      </trkpt>
      <trkpt lat="40.771128" lon="-3.247500">
        <ele>755.608</ele>
        <time>2019-04-21T11:07:04Z</time>
      </trkpt>
      <trkpt lat="40.771178" lon="-3.247498">
        <ele>755.408</ele>
        <time>2019-04-21T11:07:05Z</time>
      </trkpt>
      <trkpt lat="40.771231" lon="-3.247492">
        <ele>755.225</ele>
        <time>2019-04-21T11:07:06Z</time>
      </trkpt>
      <trkpt lat="40.771281" lon="-3.247478">
        <ele>755.197</ele>
        <time>2019-04-21T11:07:07Z</time>
      </trkpt>
      <trkpt lat="40.771337" lon="-3.247459">
        <ele>755.057</ele>
        <time>2019-04-21T11:07:08Z</time>
      </trkpt>
      <trkpt lat="40.771398" lon="-3.247436">
        <ele>754.912</ele>
        <time>2019-04-21T11:07:09Z</time>
      </trkpt>
      <trkpt lat="40.771455" lon="-3.247411">
        <ele>754.854</ele>
        <time>2019-04-21T11:07:10Z</time>
      </trkpt>
      <trkpt lat="40.771512" lon="-3.247391">
        <ele>754.716</ele>
        <time>2019-04-21T11:07:11Z</time>
      </trkpt>
      <trkpt lat="40.771566" lon="-3.247377">
        <ele>754.650</ele>
        <time>2019-04-21T11:07:12Z</time>
      </trkpt>
      <trkpt lat="40.771611" lon="-3.247352">
        <ele>754.591</ele>
        <time>2019-04-21T11:07:13Z</time>
      </trkpt>
      <trkpt lat="40.771693" lon="-3.247317">
        <ele>754.232</ele>
        <time>2019-04-21T11:07:15Z</time>
      </trkpt>
      <trkpt lat="40.771783" lon="-3.247286">
        <ele>754.092</ele>
        <time>2019-04-21T11:07:17Z</time>
      </trkpt>
      <trkpt lat="40.771828" lon="-3.247269">
        <ele>753.811</ele>
        <time>2019-04-21T11:07:18Z</time>
      </trkpt>
      <trkpt lat="40.771884" lon="-3.247252">
        <ele>753.708</ele>
        <time>2019-04-21T11:07:19Z</time>
      </trkpt>
      <trkpt lat="40.771939" lon="-3.247232">
        <ele>753.686</ele>
        <time>2019-04-21T11:07:20Z</time>
      </trkpt>
      <trkpt lat="40.771987" lon="-3.247213">
        <ele>753.518</ele>
        <time>2019-04-21T11:07:21Z</time>
      </trkpt>
      <trkpt lat="40.772061" lon="-3.247184">
        <ele>753.228</ele>
        <time>2019-04-21T11:07:23Z</time>
      </trkpt>
      <trkpt lat="40.772111" lon="-3.247185">
        <ele>753.063</ele>
        <time>2019-04-21T11:07:25Z</time>
      </trkpt>
      <trkpt lat="40.772159" lon="-3.247178">
        <ele>753.185</ele>
        <time>2019-04-21T11:07:29Z</time>
      </trkpt>
      <trkpt lat="40.772229" lon="-3.247189">
        <ele>753.117</ele>
        <time>2019-04-21T11:07:31Z</time>
      </trkpt>
      <trkpt lat="40.772279" lon="-3.247198">
        <ele>753.021</ele>
        <time>2019-04-21T11:07:32Z</time>
      </trkpt>
      <trkpt lat="40.772355" lon="-3.247206">
        <ele>752.922</ele>
        <time>2019-04-21T11:07:34Z</time>
      </trkpt>
      <trkpt lat="40.772405" lon="-3.247207">
        <ele>752.971</ele>
        <time>2019-04-21T11:07:35Z</time>
      </trkpt>
      <trkpt lat="40.772484" lon="-3.247225">
        <ele>752.841</ele>
        <time>2019-04-21T11:07:37Z</time>
      </trkpt>
      <trkpt lat="40.772538" lon="-3.247222">
        <ele>752.815</ele>
        <time>2019-04-21T11:07:38Z</time>
      </trkpt>
      <trkpt lat="40.772621" lon="-3.247225">
        <ele>752.808</ele>
        <time>2019-04-21T11:07:40Z</time>
      </trkpt>
      <trkpt lat="40.772717" lon="-3.247250">
        <ele>752.840</ele>
        <time>2019-04-21T11:07:42Z</time>
      </trkpt>
      <trkpt lat="40.772768" lon="-3.247254">
        <ele>752.972</ele>
        <time>2019-04-21T11:07:43Z</time>
      </trkpt>
      <trkpt lat="40.772816" lon="-3.247274">
        <ele>753.072</ele>
        <time>2019-04-21T11:07:44Z</time>
      </trkpt>
      <trkpt lat="40.772873" lon="-3.247291">
        <ele>753.197</ele>
        <time>2019-04-21T11:07:45Z</time>
      </trkpt>
      <trkpt lat="40.772934" lon="-3.247309">
        <ele>753.219</ele>
        <time>2019-04-21T11:07:46Z</time>
      </trkpt>
      <trkpt lat="40.772998" lon="-3.247335">
        <ele>753.311</ele>
        <time>2019-04-21T11:07:47Z</time>
      </trkpt>
      <trkpt lat="40.773075" lon="-3.247381">
        <ele>753.485</ele>
        <time>2019-04-21T11:07:48Z</time>
      </trkpt>
      <trkpt lat="40.773161" lon="-3.247439">
        <ele>753.436</ele>
        <time>2019-04-21T11:07:49Z</time>
      </trkpt>
      <trkpt lat="40.773241" lon="-3.247486">
        <ele>753.436</ele>
        <time>2019-04-21T11:07:50Z</time>
      </trkpt>
      <trkpt lat="40.773319" lon="-3.247534">
        <ele>753.417</ele>
        <time>2019-04-21T11:07:51Z</time>
      </trkpt>
      <trkpt lat="40.773388" lon="-3.247579">
        <ele>753.418</ele>
        <time>2019-04-21T11:07:52Z</time>
      </trkpt>
      <trkpt lat="40.773441" lon="-3.247615">
        <ele>753.608</ele>
        <time>2019-04-21T11:07:53Z</time>
      </trkpt>
      <trkpt lat="40.773489" lon="-3.247644">
        <ele>753.976</ele>
        <time>2019-04-21T11:07:54Z</time>
      </trkpt>
      <trkpt lat="40.773544" lon="-3.247682">
        <ele>754.378</ele>
        <time>2019-04-21T11:07:55Z</time>
      </trkpt>
      <trkpt lat="40.773607" lon="-3.247720">
        <ele>754.778</ele>
        <time>2019-04-21T11:07:56Z</time>
      </trkpt>
      <trkpt lat="40.773663" lon="-3.247752">
        <ele>755.163</ele>
        <time>2019-04-21T11:07:57Z</time>
      </trkpt>
      <trkpt lat="40.773728" lon="-3.247795">
        <ele>755.515</ele>
        <time>2019-04-21T11:07:58Z</time>
      </trkpt>
      <trkpt lat="40.773790" lon="-3.247835">
        <ele>755.957</ele>
        <time>2019-04-21T11:07:59Z</time>
      </trkpt>
      <trkpt lat="40.773851" lon="-3.247888">
        <ele>756.391</ele>
        <time>2019-04-21T11:08:00Z</time>
      </trkpt>
      <trkpt lat="40.773925" lon="-3.247929">
        <ele>756.712</ele>
        <time>2019-04-21T11:08:01Z</time>
      </trkpt>
      <trkpt lat="40.773996" lon="-3.247979">
        <ele>757.723</ele>
        <time>2019-04-21T11:08:02Z</time>
      </trkpt>
      <trkpt lat="40.774069" lon="-3.248030">
        <ele>758.183</ele>
        <time>2019-04-21T11:08:03Z</time>
      </trkpt>
      <trkpt lat="40.774140" lon="-3.248082">
        <ele>758.511</ele>
        <time>2019-04-21T11:08:04Z</time>
      </trkpt>
      <trkpt lat="40.774210" lon="-3.248130">
        <ele>758.808</ele>
        <time>2019-04-21T11:08:05Z</time>
      </trkpt>
      <trkpt lat="40.774281" lon="-3.248179">
        <ele>759.165</ele>
        <time>2019-04-21T11:08:06Z</time>
      </trkpt>
      <trkpt lat="40.774355" lon="-3.248235">
        <ele>759.447</ele>
        <time>2019-04-21T11:08:07Z</time>
      </trkpt>
      <trkpt lat="40.774431" lon="-3.248280">
        <ele>759.847</ele>
        <time>2019-04-21T11:08:08Z</time>
      </trkpt>
      <trkpt lat="40.774504" lon="-3.248327">
        <ele>760.372</ele>
        <time>2019-04-21T11:08:09Z</time>
      </trkpt>
      <trkpt lat="40.774579" lon="-3.248369">
        <ele>760.874</ele>
        <time>2019-04-21T11:08:10Z</time>
      </trkpt>
      <trkpt lat="40.774657" lon="-3.248403">
        <ele>761.476</ele>
        <time>2019-04-21T11:08:11Z</time>
      </trkpt>
      <trkpt lat="40.774735" lon="-3.248439">
        <ele>762.190</ele>
        <time>2019-04-21T11:08:12Z</time>
      </trkpt>
      <trkpt lat="40.774807" lon="-3.248488">
        <ele>762.821</ele>
        <time>2019-04-21T11:08:13Z</time>
      </trkpt>
      <trkpt lat="40.774876" lon="-3.248548">
        <ele>763.543</ele>
        <time>2019-04-21T11:08:14Z</time>
      </trkpt>
      <trkpt lat="40.774944" lon="-3.248598">
        <ele>764.164</ele>
        <time>2019-04-21T11:08:15Z</time>
      </trkpt>
      <trkpt lat="40.774980" lon="-3.248673">
        <ele>764.710</ele>
        <time>2019-04-21T11:08:16Z</time>
      </trkpt>
      <trkpt lat="40.775005" lon="-3.248758">
        <ele>765.908</ele>
        <time>2019-04-21T11:08:17Z</time>
      </trkpt>
      <trkpt lat="40.775024" lon="-3.248847">
        <ele>766.517</ele>
        <time>2019-04-21T11:08:18Z</time>
      </trkpt>
      <trkpt lat="40.775045" lon="-3.248935">
        <ele>767.149</ele>
        <time>2019-04-21T11:08:19Z</time>
      </trkpt>
      <trkpt lat="40.775067" lon="-3.249025">
        <ele>767.799</ele>
        <time>2019-04-21T11:08:20Z</time>
      </trkpt>
      <trkpt lat="40.775089" lon="-3.249118">
        <ele>768.244</ele>
        <time>2019-04-21T11:08:21Z</time>
      </trkpt>
      <trkpt lat="40.775120" lon="-3.249205">
        <ele>768.656</ele>
        <time>2019-04-21T11:08:22Z</time>
      </trkpt>
      <trkpt lat="40.775164" lon="-3.249280">
        <ele>769.028</ele>
        <time>2019-04-21T11:08:23Z</time>
      </trkpt>
      <trkpt lat="40.775220" lon="-3.249344">
        <ele>769.332</ele>
        <time>2019-04-21T11:08:24Z</time>
      </trkpt>
      <trkpt lat="40.775284" lon="-3.249402">
        <ele>769.613</ele>
        <time>2019-04-21T11:08:25Z</time>
      </trkpt>
      <trkpt lat="40.775359" lon="-3.249440">
        <ele>770.062</ele>
        <time>2019-04-21T11:08:26Z</time>
      </trkpt>
      <trkpt lat="40.775431" lon="-3.249485">
        <ele>770.383</ele>
        <time>2019-04-21T11:08:27Z</time>
      </trkpt>
      <trkpt lat="40.775505" lon="-3.249512">
        <ele>770.511</ele>
        <time>2019-04-21T11:08:28Z</time>
      </trkpt>
      <trkpt lat="40.775573" lon="-3.249526">
        <ele>770.608</ele>
        <time>2019-04-21T11:08:29Z</time>
      </trkpt>
      <trkpt lat="40.775641" lon="-3.249524">
        <ele>770.629</ele>
        <time>2019-04-21T11:08:30Z</time>
      </trkpt>
      <trkpt lat="40.775700" lon="-3.249476">
        <ele>770.481</ele>
        <time>2019-04-21T11:08:31Z</time>
      </trkpt>
      <trkpt lat="40.775757" lon="-3.249418">
        <ele>769.661</ele>
        <time>2019-04-21T11:08:32Z</time>
      </trkpt>
      <trkpt lat="40.775808" lon="-3.249353">
        <ele>769.086</ele>
        <time>2019-04-21T11:08:33Z</time>
      </trkpt>
      <trkpt lat="40.775870" lon="-3.249304">
        <ele>768.268</ele>
        <time>2019-04-21T11:08:34Z</time>
      </trkpt>
      <trkpt lat="40.775951" lon="-3.249287">
        <ele>767.470</ele>
        <time>2019-04-21T11:08:35Z</time>
      </trkpt>
      <trkpt lat="40.776042" lon="-3.249278">
        <ele>766.514</ele>
        <time>2019-04-21T11:08:36Z</time>
      </trkpt>
      <trkpt lat="40.776138" lon="-3.249270">
        <ele>765.635</ele>
        <time>2019-04-21T11:08:37Z</time>
      </trkpt>
      <trkpt lat="40.776237" lon="-3.249254">
        <ele>764.756</ele>
        <time>2019-04-21T11:08:38Z</time>
      </trkpt>
      <trkpt lat="40.776334" lon="-3.249243">
        <ele>763.859</ele>
        <time>2019-04-21T11:08:39Z</time>
      </trkpt>
      <trkpt lat="40.776423" lon="-3.249237">
        <ele>762.914</ele>
        <time>2019-04-21T11:08:40Z</time>
      </trkpt>
      <trkpt lat="40.776508" lon="-3.249234">
        <ele>762.108</ele>
        <time>2019-04-21T11:08:41Z</time>
      </trkpt>
      <trkpt lat="40.776592" lon="-3.249218">
        <ele>761.468</ele>
        <time>2019-04-21T11:08:42Z</time>
      </trkpt>
      <trkpt lat="40.776675" lon="-3.249200">
        <ele>761.410</ele>
        <time>2019-04-21T11:08:43Z</time>
      </trkpt>
      <trkpt lat="40.776752" lon="-3.249189">
        <ele>761.450</ele>
        <time>2019-04-21T11:08:44Z</time>
      </trkpt>
      <trkpt lat="40.776828" lon="-3.249198">
        <ele>761.525</ele>
        <time>2019-04-21T11:08:45Z</time>
      </trkpt>
      <trkpt lat="40.776911" lon="-3.249247">
        <ele>761.747</ele>
        <time>2019-04-21T11:08:46Z</time>
      </trkpt>
      <trkpt lat="40.776994" lon="-3.249318">
        <ele>761.969</ele>
        <time>2019-04-21T11:08:47Z</time>
      </trkpt>
      <trkpt lat="40.777071" lon="-3.249399">
        <ele>761.953</ele>
        <time>2019-04-21T11:08:48Z</time>
      </trkpt>
      <trkpt lat="40.777147" lon="-3.249474">
        <ele>762.044</ele>
        <time>2019-04-21T11:08:49Z</time>
      </trkpt>
      <trkpt lat="40.777222" lon="-3.249552">
        <ele>762.325</ele>
        <time>2019-04-21T11:08:50Z</time>
      </trkpt>
      <trkpt lat="40.777298" lon="-3.249623">
        <ele>762.726</ele>
        <time>2019-04-21T11:08:51Z</time>
      </trkpt>
      <trkpt lat="40.777369" lon="-3.249698">
        <ele>763.108</ele>
        <time>2019-04-21T11:08:52Z</time>
      </trkpt>
      <trkpt lat="40.777439" lon="-3.249773">
        <ele>763.708</ele>
        <time>2019-04-21T11:08:53Z</time>
      </trkpt>
      <trkpt lat="40.777512" lon="-3.249843">
        <ele>764.255</ele>
        <time>2019-04-21T11:08:54Z</time>
      </trkpt>
      <trkpt lat="40.777580" lon="-3.249919">
        <ele>764.847</ele>
        <time>2019-04-21T11:08:55Z</time>
      </trkpt>
      <trkpt lat="40.777652" lon="-3.249988">
        <ele>765.597</ele>
        <time>2019-04-21T11:08:56Z</time>
      </trkpt>
      <trkpt lat="40.777721" lon="-3.250055">
        <ele>766.432</ele>
        <time>2019-04-21T11:08:57Z</time>
      </trkpt>
      <trkpt lat="40.777787" lon="-3.250128">
        <ele>767.314</ele>
        <time>2019-04-21T11:08:58Z</time>
      </trkpt>
      <trkpt lat="40.777854" lon="-3.250195">
        <ele>768.236</ele>
        <time>2019-04-21T11:08:59Z</time>
      </trkpt>
      <trkpt lat="40.777914" lon="-3.250262">
        <ele>769.020</ele>
        <time>2019-04-21T11:09:00Z</time>
      </trkpt>
      <trkpt lat="40.777970" lon="-3.250324">
        <ele>769.861</ele>
        <time>2019-04-21T11:09:01Z</time>
      </trkpt>
      <trkpt lat="40.778020" lon="-3.250388">
        <ele>771.121</ele>
        <time>2019-04-21T11:09:02Z</time>
      </trkpt>
      <trkpt lat="40.778069" lon="-3.250451">
        <ele>771.841</ele>
        <time>2019-04-21T11:09:03Z</time>
      </trkpt>
      <trkpt lat="40.778125" lon="-3.250505">
        <ele>772.505</ele>
        <time>2019-04-21T11:09:04Z</time>
      </trkpt>
      <trkpt lat="40.778177" lon="-3.250559">
        <ele>773.208</ele>
        <time>2019-04-21T11:09:05Z</time>
      </trkpt>
      <trkpt lat="40.778230" lon="-3.250607">
        <ele>774.075</ele>
        <time>2019-04-21T11:09:06Z</time>
      </trkpt>
      <trkpt lat="40.778289" lon="-3.250647">
        <ele>774.557</ele>
        <time>2019-04-21T11:09:07Z</time>
      </trkpt>
      <trkpt lat="40.778349" lon="-3.250687">
        <ele>775.457</ele>
        <time>2019-04-21T11:09:08Z</time>
      </trkpt>
      <trkpt lat="40.778408" lon="-3.250731">
        <ele>776.112</ele>
        <time>2019-04-21T11:09:09Z</time>
      </trkpt>
      <trkpt lat="40.778472" lon="-3.250764">
        <ele>776.634</ele>
        <time>2019-04-21T11:09:10Z</time>
      </trkpt>
      <trkpt lat="40.778541" lon="-3.250794">
        <ele>777.496</ele>
        <time>2019-04-21T11:09:11Z</time>
      </trkpt>
      <trkpt lat="40.778611" lon="-3.250838">
        <ele>778.180</ele>
        <time>2019-04-21T11:09:12Z</time>
      </trkpt>
      <trkpt lat="40.778687" lon="-3.250879">
        <ele>778.781</ele>
        <time>2019-04-21T11:09:13Z</time>
      </trkpt>
      <trkpt lat="40.778767" lon="-3.250921">
        <ele>779.471</ele>
        <time>2019-04-21T11:09:14Z</time>
      </trkpt>
      <trkpt lat="40.778849" lon="-3.250963">
        <ele>780.141</ele>
        <time>2019-04-21T11:09:15Z</time>
      </trkpt>
      <trkpt lat="40.778926" lon="-3.251014">
        <ele>780.615</ele>
        <time>2019-04-21T11:09:16Z</time>
      </trkpt>
      <trkpt lat="40.779010" lon="-3.251055">
        <ele>782.108</ele>
        <time>2019-04-21T11:09:17Z</time>
      </trkpt>
      <trkpt lat="40.779088" lon="-3.251108">
        <ele>783.030</ele>
        <time>2019-04-21T11:09:18Z</time>
      </trkpt>
      <trkpt lat="40.779169" lon="-3.251152">
        <ele>783.912</ele>
        <time>2019-04-21T11:09:19Z</time>
      </trkpt>
      <trkpt lat="40.779247" lon="-3.251197">
        <ele>784.752</ele>
        <time>2019-04-21T11:09:20Z</time>
      </trkpt>
      <trkpt lat="40.779323" lon="-3.251247">
        <ele>785.787</ele>
        <time>2019-04-21T11:09:21Z</time>
      </trkpt>
      <trkpt lat="40.779402" lon="-3.251294">
        <ele>786.099</ele>
        <time>2019-04-21T11:09:22Z</time>
      </trkpt>
      <trkpt lat="40.779486" lon="-3.251328">
        <ele>786.571</ele>
        <time>2019-04-21T11:09:23Z</time>
      </trkpt>
      <trkpt lat="40.779572" lon="-3.251338">
        <ele>786.855</ele>
        <time>2019-04-21T11:09:24Z</time>
      </trkpt>
      <trkpt lat="40.779658" lon="-3.251335">
        <ele>787.246</ele>
        <time>2019-04-21T11:09:25Z</time>
      </trkpt>
      <trkpt lat="40.779745" lon="-3.251325">
        <ele>787.643</ele>
        <time>2019-04-21T11:09:26Z</time>
      </trkpt>
      <trkpt lat="40.779834" lon="-3.251314">
        <ele>788.264</ele>
        <time>2019-04-21T11:09:27Z</time>
      </trkpt>
      <trkpt lat="40.779925" lon="-3.251303">
        <ele>788.610</ele>
        <time>2019-04-21T11:09:28Z</time>
      </trkpt>
      <trkpt lat="40.780021" lon="-3.251296">
        <ele>789.308</ele>
        <time>2019-04-21T11:09:29Z</time>
      </trkpt>
      <trkpt lat="40.780121" lon="-3.251276">
        <ele>789.737</ele>
        <time>2019-04-21T11:09:30Z</time>
      </trkpt>
      <trkpt lat="40.780222" lon="-3.251262">
        <ele>790.289</ele>
        <time>2019-04-21T11:09:31Z</time>
      </trkpt>
      <trkpt lat="40.780325" lon="-3.251244">
        <ele>791.169</ele>
        <time>2019-04-21T11:09:32Z</time>
      </trkpt>
      <trkpt lat="40.780430" lon="-3.251229">
        <ele>791.644</ele>
        <time>2019-04-21T11:09:33Z</time>
      </trkpt>
      <trkpt lat="40.780536" lon="-3.251216">
        <ele>792.186</ele>
        <time>2019-04-21T11:09:34Z</time>
      </trkpt>
      <trkpt lat="40.780642" lon="-3.251209">
        <ele>792.368</ele>
        <time>2019-04-21T11:09:35Z</time>
      </trkpt>
      <trkpt lat="40.780746" lon="-3.251197">
        <ele>792.542</ele>
        <time>2019-04-21T11:09:36Z</time>
      </trkpt>
      <trkpt lat="40.780848" lon="-3.251182">
        <ele>792.683</ele>
        <time>2019-04-21T11:09:37Z</time>
      </trkpt>
      <trkpt lat="40.780950" lon="-3.251167">
        <ele>792.652</ele>
        <time>2019-04-21T11:09:38Z</time>
      </trkpt>
      <trkpt lat="40.781054" lon="-3.251158">
        <ele>792.553</ele>
        <time>2019-04-21T11:09:39Z</time>
      </trkpt>
      <trkpt lat="40.781157" lon="-3.251149">
        <ele>792.208</ele>
        <time>2019-04-21T11:09:40Z</time>
      </trkpt>
      <trkpt lat="40.781260" lon="-3.251138">
        <ele>792.008</ele>
        <time>2019-04-21T11:09:41Z</time>
      </trkpt>
      <trkpt lat="40.781364" lon="-3.251120">
        <ele>791.958</ele>
        <time>2019-04-21T11:09:42Z</time>
      </trkpt>
      <trkpt lat="40.781470" lon="-3.251099">
        <ele>791.730</ele>
        <time>2019-04-21T11:09:43Z</time>
      </trkpt>
      <trkpt lat="40.781576" lon="-3.251085">
        <ele>791.580</ele>
        <time>2019-04-21T11:09:44Z</time>
      </trkpt>
      <trkpt lat="40.781679" lon="-3.251072">
        <ele>791.165</ele>
        <time>2019-04-21T11:09:45Z</time>
      </trkpt>
      <trkpt lat="40.781777" lon="-3.251063">
        <ele>790.627</ele>
        <time>2019-04-21T11:09:46Z</time>
      </trkpt>
      <trkpt lat="40.781877" lon="-3.251048">
        <ele>790.369</ele>
        <time>2019-04-21T11:09:47Z</time>
      </trkpt>
      <trkpt lat="40.781978" lon="-3.251034">
        <ele>790.713</ele>
        <time>2019-04-21T11:09:48Z</time>
      </trkpt>
      <trkpt lat="40.782077" lon="-3.251025">
        <ele>791.254</ele>
        <time>2019-04-21T11:09:49Z</time>
      </trkpt>
      <trkpt lat="40.782174" lon="-3.251006">
        <ele>792.028</ele>
        <time>2019-04-21T11:09:50Z</time>
      </trkpt>
      <trkpt lat="40.782266" lon="-3.250985">
        <ele>793.089</ele>
        <time>2019-04-21T11:09:51Z</time>
      </trkpt>
      <trkpt lat="40.782353" lon="-3.250982">
        <ele>793.017</ele>
        <time>2019-04-21T11:09:52Z</time>
      </trkpt>
      <trkpt lat="40.782433" lon="-3.250978">
        <ele>793.108</ele>
        <time>2019-04-21T11:09:53Z</time>
      </trkpt>
      <trkpt lat="40.782509" lon="-3.250982">
        <ele>793.135</ele>
        <time>2019-04-21T11:09:54Z</time>
      </trkpt>
      <trkpt lat="40.782581" lon="-3.250979">
        <ele>792.827</ele>
        <time>2019-04-21T11:09:55Z</time>
      </trkpt>
      <trkpt lat="40.782652" lon="-3.250980">
        <ele>792.237</ele>
        <time>2019-04-21T11:09:56Z</time>
      </trkpt>
      <trkpt lat="40.782718" lon="-3.250980">
        <ele>791.952</ele>
        <time>2019-04-21T11:09:57Z</time>
      </trkpt>
      <trkpt lat="40.782778" lon="-3.250964">
        <ele>791.524</ele>
        <time>2019-04-21T11:09:58Z</time>
      </trkpt>
      <trkpt lat="40.782841" lon="-3.250959">
        <ele>791.246</ele>
        <time>2019-04-21T11:09:59Z</time>
      </trkpt>
      <trkpt lat="40.782909" lon="-3.250953">
        <ele>791.020</ele>
        <time>2019-04-21T11:10:00Z</time>
      </trkpt>
      <trkpt lat="40.782977" lon="-3.250956">
        <ele>790.941</ele>
        <time>2019-04-21T11:10:01Z</time>
      </trkpt>
      <trkpt lat="40.783046" lon="-3.250951">
        <ele>790.631</ele>
        <time>2019-04-21T11:10:02Z</time>
      </trkpt>
      <trkpt lat="40.783117" lon="-3.250952">
        <ele>790.261</ele>
        <time>2019-04-21T11:10:03Z</time>
      </trkpt>
      <trkpt lat="40.783197" lon="-3.250945">
        <ele>790.007</ele>
        <time>2019-04-21T11:10:04Z</time>
      </trkpt>
      <trkpt lat="40.783284" lon="-3.250935">
        <ele>790.008</ele>
        <time>2019-04-21T11:10:05Z</time>
      </trkpt>
      <trkpt lat="40.783371" lon="-3.250911">
        <ele>790.116</ele>
        <time>2019-04-21T11:10:06Z</time>
      </trkpt>
      <trkpt lat="40.783457" lon="-3.250899">
        <ele>790.398</ele>
        <time>2019-04-21T11:10:07Z</time>
      </trkpt>
      <trkpt lat="40.783544" lon="-3.250885">
        <ele>790.418</ele>
        <time>2019-04-21T11:10:08Z</time>
      </trkpt>
      <trkpt lat="40.783631" lon="-3.250867">
        <ele>790.613</ele>
        <time>2019-04-21T11:10:09Z</time>
      </trkpt>
      <trkpt lat="40.783714" lon="-3.250860">
        <ele>790.665</ele>
        <time>2019-04-21T11:10:10Z</time>
      </trkpt>
      <trkpt lat="40.783791" lon="-3.250850">
        <ele>790.577</ele>
        <time>2019-04-21T11:10:11Z</time>
      </trkpt>
      <trkpt lat="40.783867" lon="-3.250843">
        <ele>790.471</ele>
        <time>2019-04-21T11:10:12Z</time>
      </trkpt>
      <trkpt lat="40.783941" lon="-3.250833">
        <ele>790.152</ele>
        <time>2019-04-21T11:10:13Z</time>
      </trkpt>
      <trkpt lat="40.784013" lon="-3.250827">
        <ele>789.611</ele>
        <time>2019-04-21T11:10:14Z</time>
      </trkpt>
      <trkpt lat="40.784086" lon="-3.250816">
        <ele>789.421</ele>
        <time>2019-04-21T11:10:15Z</time>
      </trkpt>
      <trkpt lat="40.784160" lon="-3.250813">
        <ele>789.403</ele>
        <time>2019-04-21T11:10:16Z</time>
      </trkpt>
      <trkpt lat="40.784236" lon="-3.250799">
        <ele>789.608</ele>
        <time>2019-04-21T11:10:17Z</time>
      </trkpt>
      <trkpt lat="40.784316" lon="-3.250793">
        <ele>789.994</ele>
        <time>2019-04-21T11:10:18Z</time>
      </trkpt>
      <trkpt lat="40.784396" lon="-3.250788">
        <ele>790.346</ele>
        <time>2019-04-21T11:10:19Z</time>
      </trkpt>
      <trkpt lat="40.784478" lon="-3.250778">
        <ele>790.576</ele>
        <time>2019-04-21T11:10:20Z</time>
      </trkpt>
      <trkpt lat="40.784562" lon="-3.250777">
        <ele>790.511</ele>
        <time>2019-04-21T11:10:21Z</time>
      </trkpt>
      <trkpt lat="40.784645" lon="-3.250766">
        <ele>790.363</ele>
        <time>2019-04-21T11:10:22Z</time>
      </trkpt>
      <trkpt lat="40.784729" lon="-3.250763">
        <ele>790.255</ele>
        <time>2019-04-21T11:10:23Z</time>
      </trkpt>
      <trkpt lat="40.784811" lon="-3.250755">
        <ele>789.919</ele>
        <time>2019-04-21T11:10:24Z</time>
      </trkpt>
      <trkpt lat="40.784890" lon="-3.250740">
        <ele>789.630</ele>
        <time>2019-04-21T11:10:25Z</time>
      </trkpt>
      <trkpt lat="40.784969" lon="-3.250723">
        <ele>789.233</ele>
        <time>2019-04-21T11:10:26Z</time>
      </trkpt>
      <trkpt lat="40.785050" lon="-3.250724">
        <ele>789.023</ele>
        <time>2019-04-21T11:10:27Z</time>
      </trkpt>
      <trkpt lat="40.785133" lon="-3.250719">
        <ele>789.015</ele>
        <time>2019-04-21T11:10:28Z</time>
      </trkpt>
      <trkpt lat="40.785218" lon="-3.250721">
        <ele>789.208</ele>
        <time>2019-04-21T11:10:29Z</time>
      </trkpt>
      <trkpt lat="40.785301" lon="-3.250714">
        <ele>789.736</ele>
        <time>2019-04-21T11:10:30Z</time>
      </trkpt>
      <trkpt lat="40.785382" lon="-3.250712">
        <ele>790.278</ele>
        <time>2019-04-21T11:10:31Z</time>
      </trkpt>
      <trkpt lat="40.785461" lon="-3.250710">
        <ele>790.278</ele>
        <time>2019-04-21T11:10:32Z</time>
      </trkpt>
      <trkpt lat="40.785541" lon="-3.250712">
        <ele>789.313</ele>
        <time>2019-04-21T11:10:33Z</time>
      </trkpt>
      <trkpt lat="40.785625" lon="-3.250713">
        <ele>788.565</ele>
        <time>2019-04-21T11:10:34Z</time>
      </trkpt>
      <trkpt lat="40.785714" lon="-3.250723">
        <ele>787.827</ele>
        <time>2019-04-21T11:10:35Z</time>
      </trkpt>
      <trkpt lat="40.785798" lon="-3.250764">
        <ele>787.751</ele>
        <time>2019-04-21T11:10:36Z</time>
      </trkpt>
      <trkpt lat="40.785882" lon="-3.250824">
        <ele>787.762</ele>
        <time>2019-04-21T11:10:37Z</time>
      </trkpt>
      <trkpt lat="40.785963" lon="-3.250884">
        <ele>788.038</ele>
        <time>2019-04-21T11:10:38Z</time>
      </trkpt>
      <trkpt lat="40.786045" lon="-3.250940">
        <ele>788.370</ele>
        <time>2019-04-21T11:10:39Z</time>
      </trkpt>
      <trkpt lat="40.786127" lon="-3.250998">
        <ele>788.517</ele>
        <time>2019-04-21T11:10:40Z</time>
      </trkpt>
      <trkpt lat="40.786214" lon="-3.251055">
        <ele>788.808</ele>
        <time>2019-04-21T11:10:41Z</time>
      </trkpt>
      <trkpt lat="40.786298" lon="-3.251116">
        <ele>789.026</ele>
        <time>2019-04-21T11:10:42Z</time>
      </trkpt>
      <trkpt lat="40.786386" lon="-3.251173">
        <ele>789.158</ele>
        <time>2019-04-21T11:10:43Z</time>
      </trkpt>
      <trkpt lat="40.786472" lon="-3.251231">
        <ele>789.598</ele>
        <time>2019-04-21T11:10:44Z</time>
      </trkpt>
      <trkpt lat="40.786552" lon="-3.251297">
        <ele>789.593</ele>
        <time>2019-04-21T11:10:45Z</time>
      </trkpt>
      <trkpt lat="40.786622" lon="-3.251379">
        <ele>789.555</ele>
        <time>2019-04-21T11:10:46Z</time>
      </trkpt>
      <trkpt lat="40.786685" lon="-3.251471">
        <ele>789.487</ele>
        <time>2019-04-21T11:10:47Z</time>
      </trkpt>
      <trkpt lat="40.786748" lon="-3.251561">
        <ele>789.211</ele>
        <time>2019-04-21T11:10:48Z</time>
      </trkpt>
      <trkpt lat="40.786800" lon="-3.251662">
        <ele>789.282</ele>
        <time>2019-04-21T11:10:49Z</time>
      </trkpt>
      <trkpt lat="40.786859" lon="-3.251753">
        <ele>789.226</ele>
        <time>2019-04-21T11:10:50Z</time>
      </trkpt>
      <trkpt lat="40.786916" lon="-3.251847">
        <ele>789.347</ele>
        <time>2019-04-21T11:10:51Z</time>
      </trkpt>
      <trkpt lat="40.786971" lon="-3.251936">
        <ele>789.511</ele>
        <time>2019-04-21T11:10:52Z</time>
      </trkpt>
      <trkpt lat="40.787024" lon="-3.252027">
        <ele>789.608</ele>
        <time>2019-04-21T11:10:53Z</time>
      </trkpt>
      <trkpt lat="40.787087" lon="-3.252117">
        <ele>789.815</ele>
        <time>2019-04-21T11:10:54Z</time>
      </trkpt>
      <trkpt lat="40.787145" lon="-3.252215">
        <ele>790.177</ele>
        <time>2019-04-21T11:10:55Z</time>
      </trkpt>
      <trkpt lat="40.787203" lon="-3.252308">
        <ele>790.377</ele>
        <time>2019-04-21T11:10:56Z</time>
      </trkpt>
      <trkpt lat="40.787262" lon="-3.252393">
        <ele>790.632</ele>
        <time>2019-04-21T11:10:57Z</time>
      </trkpt>
      <trkpt lat="40.787313" lon="-3.252478">
        <ele>790.754</ele>
        <time>2019-04-21T11:10:58Z</time>
      </trkpt>
      <trkpt lat="40.787361" lon="-3.252556">
        <ele>790.986</ele>
        <time>2019-04-21T11:10:59Z</time>
      </trkpt>
      <trkpt lat="40.787405" lon="-3.252623">
        <ele>791.140</ele>
        <time>2019-04-21T11:11:00Z</time>
      </trkpt>
      <trkpt lat="40.787451" lon="-3.252669">
        <ele>791.361</ele>
        <time>2019-04-21T11:11:01Z</time>
      </trkpt>
      <trkpt lat="40.787505" lon="-3.252698">
        <ele>791.628</ele>
        <time>2019-04-21T11:11:02Z</time>
      </trkpt>
      <trkpt lat="40.787567" lon="-3.252683">
        <ele>792.089</ele>
        <time>2019-04-21T11:11:03Z</time>
      </trkpt>
      <trkpt lat="40.787626" lon="-3.252654">
        <ele>792.817</ele>
        <time>2019-04-21T11:11:04Z</time>
      </trkpt>
      <trkpt lat="40.787685" lon="-3.252619">
        <ele>793.208</ele>
        <time>2019-04-21T11:11:05Z</time>
      </trkpt>
      <trkpt lat="40.787748" lon="-3.252581">
        <ele>793.515</ele>
        <time>2019-04-21T11:11:06Z</time>
      </trkpt>
      <trkpt lat="40.787810" lon="-3.252532">
        <ele>793.837</ele>
        <time>2019-04-21T11:11:07Z</time>
      </trkpt>
      <trkpt lat="40.787868" lon="-3.252480">
        <ele>794.157</ele>
        <time>2019-04-21T11:11:08Z</time>
      </trkpt>
      <trkpt lat="40.787929" lon="-3.252429">
        <ele>794.452</ele>
        <time>2019-04-21T11:11:09Z</time>
      </trkpt>
      <trkpt lat="40.787992" lon="-3.252375">
        <ele>794.754</ele>
        <time>2019-04-21T11:11:10Z</time>
      </trkpt>
      <trkpt lat="40.788059" lon="-3.252324">
        <ele>795.076</ele>
        <time>2019-04-21T11:11:11Z</time>
      </trkpt>
      <trkpt lat="40.788127" lon="-3.252273">
        <ele>795.310</ele>
        <time>2019-04-21T11:11:12Z</time>
      </trkpt>
      <trkpt lat="40.788196" lon="-3.252220">
        <ele>795.591</ele>
        <time>2019-04-21T11:11:13Z</time>
      </trkpt>
      <trkpt lat="40.788265" lon="-3.252171">
        <ele>795.721</ele>
        <time>2019-04-21T11:11:14Z</time>
      </trkpt>
      <trkpt lat="40.788335" lon="-3.252128">
        <ele>795.841</ele>
        <time>2019-04-21T11:11:15Z</time>
      </trkpt>
      <trkpt lat="40.788399" lon="-3.252070">
        <ele>795.805</ele>
        <time>2019-04-21T11:11:16Z</time>
      </trkpt>
      <trkpt lat="40.788465" lon="-3.252026">
        <ele>795.808</ele>
        <time>2019-04-21T11:11:17Z</time>
      </trkpt>
      <trkpt lat="40.788530" lon="-3.251988">
        <ele>795.715</ele>
        <time>2019-04-21T11:11:18Z</time>
      </trkpt>
      <trkpt lat="40.788595" lon="-3.251946">
        <ele>795.537</ele>
        <time>2019-04-21T11:11:19Z</time>
      </trkpt>
      <trkpt lat="40.788665" lon="-3.251920">
        <ele>795.257</ele>
        <time>2019-04-21T11:11:20Z</time>
      </trkpt>
      <trkpt lat="40.788733" lon="-3.251893">
        <ele>795.092</ele>
        <time>2019-04-21T11:11:21Z</time>
      </trkpt>
      <trkpt lat="40.788798" lon="-3.251860">
        <ele>794.974</ele>
        <time>2019-04-21T11:11:22Z</time>
      </trkpt>
      <trkpt lat="40.788856" lon="-3.251825">
        <ele>794.726</ele>
        <time>2019-04-21T11:11:23Z</time>
      </trkpt>
      <trkpt lat="40.788911" lon="-3.251795">
        <ele>794.480</ele>
        <time>2019-04-21T11:11:24Z</time>
      </trkpt>
      <trkpt lat="40.788982" lon="-3.251760">
        <ele>793.891</ele>
        <time>2019-04-21T11:11:26Z</time>
      </trkpt>
      <trkpt lat="40.789033" lon="-3.251778">
        <ele>792.544</ele>
        <time>2019-04-21T11:11:29Z</time>
      </trkpt>
      <trkpt lat="40.789082" lon="-3.251844">
        <ele>792.105</ele>
        <time>2019-04-21T11:11:35Z</time>
      </trkpt>
      <trkpt lat="40.789070" lon="-3.251924">
        <ele>792.115</ele>
        <time>2019-04-21T11:11:36Z</time>
      </trkpt>
      <trkpt lat="40.789059" lon="-3.252017">
        <ele>792.208</ele>
        <time>2019-04-21T11:11:37Z</time>
      </trkpt>
      <trkpt lat="40.789046" lon="-3.252106">
        <ele>792.317</ele>
        <time>2019-04-21T11:11:38Z</time>
      </trkpt>
      <trkpt lat="40.789040" lon="-3.252175">
        <ele>792.629</ele>
        <time>2019-04-21T11:11:39Z</time>
      </trkpt>
      <trkpt lat="40.789039" lon="-3.252238">
        <ele>792.949</ele>
        <time>2019-04-21T11:11:40Z</time>
      </trkpt>
      <trkpt lat="40.789031" lon="-3.252323">
        <ele>793.294</ele>
        <time>2019-04-21T11:11:41Z</time>
      </trkpt>
      <trkpt lat="40.789023" lon="-3.252439">
        <ele>793.626</ele>
        <time>2019-04-21T11:11:42Z</time>
      </trkpt>
      <trkpt lat="40.789007" lon="-3.252535">
        <ele>793.898</ele>
        <time>2019-04-21T11:11:43Z</time>
      </trkpt>
      <trkpt lat="40.788986" lon="-3.252639">
        <ele>794.292</ele>
        <time>2019-04-21T11:11:44Z</time>
      </trkpt>
      <trkpt lat="40.788961" lon="-3.252769">
        <ele>794.813</ele>
        <time>2019-04-21T11:11:45Z</time>
      </trkpt>
      <trkpt lat="40.788948" lon="-3.252916">
        <ele>795.489</ele>
        <time>2019-04-21T11:11:46Z</time>
      </trkpt>
      <trkpt lat="40.788936" lon="-3.253065">
        <ele>796.006</ele>
        <time>2019-04-21T11:11:47Z</time>
      </trkpt>
      <trkpt lat="40.788929" lon="-3.253196">
        <ele>796.826</ele>
        <time>2019-04-21T11:11:48Z</time>
      </trkpt>
      <trkpt lat="40.788914" lon="-3.253329">
        <ele>797.308</ele>
        <time>2019-04-21T11:11:49Z</time>
      </trkpt>
      <trkpt lat="40.788896" lon="-3.253448">
        <ele>798.291</ele>
        <time>2019-04-21T11:11:50Z</time>
      </trkpt>
      <trkpt lat="40.788878" lon="-3.253584">
        <ele>798.713</ele>
        <time>2019-04-21T11:11:51Z</time>
      </trkpt>
      <trkpt lat="40.788859" lon="-3.253720">
        <ele>799.243</ele>
        <time>2019-04-21T11:11:52Z</time>
      </trkpt>
      <trkpt lat="40.788846" lon="-3.253845">
        <ele>799.538</ele>
        <time>2019-04-21T11:11:53Z</time>
      </trkpt>
      <trkpt lat="40.788836" lon="-3.253965">
        <ele>799.960</ele>
        <time>2019-04-21T11:11:54Z</time>
      </trkpt>
      <trkpt lat="40.788826" lon="-3.254077">
        <ele>800.312</ele>
        <time>2019-04-21T11:11:55Z</time>
      </trkpt>
      <trkpt lat="40.788815" lon="-3.254188">
        <ele>800.746</ele>
        <time>2019-04-21T11:11:56Z</time>
      </trkpt>
      <trkpt lat="40.788804" lon="-3.254295">
        <ele>801.197</ele>
        <time>2019-04-21T11:11:57Z</time>
      </trkpt>
      <trkpt lat="40.788793" lon="-3.254392">
        <ele>801.514</ele>
        <time>2019-04-21T11:11:58Z</time>
      </trkpt>
      <trkpt lat="40.788811" lon="-3.254465">
        <ele>801.954</ele>
        <time>2019-04-21T11:11:59Z</time>
      </trkpt>
      <trkpt lat="40.788814" lon="-3.254549">
        <ele>802.309</ele>
        <time>2019-04-21T11:12:00Z</time>
      </trkpt>
      <trkpt lat="40.788823" lon="-3.254638">
        <ele>802.808</ele>
        <time>2019-04-21T11:12:01Z</time>
      </trkpt>
      <trkpt lat="40.788833" lon="-3.254727">
        <ele>803.284</ele>
        <time>2019-04-21T11:12:02Z</time>
      </trkpt>
      <trkpt lat="40.788841" lon="-3.254817">
        <ele>803.436</ele>
        <time>2019-04-21T11:12:03Z</time>
      </trkpt>
      <trkpt lat="40.788851" lon="-3.254912">
        <ele>804.196</ele>
        <time>2019-04-21T11:12:04Z</time>
      </trkpt>
      <trkpt lat="40.788874" lon="-3.255006">
        <ele>805.021</ele>
        <time>2019-04-21T11:12:05Z</time>
      </trkpt>
      <trkpt lat="40.788899" lon="-3.255092">
        <ele>805.443</ele>
        <time>2019-04-21T11:12:06Z</time>
      </trkpt>
      <trkpt lat="40.788924" lon="-3.255178">
        <ele>805.965</ele>
        <time>2019-04-21T11:12:07Z</time>
      </trkpt>
      <trkpt lat="40.788960" lon="-3.255266">
        <ele>806.239</ele>
        <time>2019-04-21T11:12:08Z</time>
      </trkpt>
      <trkpt lat="40.789001" lon="-3.255358">
        <ele>806.670</ele>
        <time>2019-04-21T11:12:09Z</time>
      </trkpt>
      <trkpt lat="40.789033" lon="-3.255460">
        <ele>807.098</ele>
        <time>2019-04-21T11:12:10Z</time>
      </trkpt>
      <trkpt lat="40.789074" lon="-3.255557">
        <ele>807.415</ele>
        <time>2019-04-21T11:12:11Z</time>
      </trkpt>
      <trkpt lat="40.789116" lon="-3.255657">
        <ele>807.826</ele>
        <time>2019-04-21T11:12:12Z</time>
      </trkpt>
      <trkpt lat="40.789165" lon="-3.255750">
        <ele>808.108</ele>
        <time>2019-04-21T11:12:13Z</time>
      </trkpt>
      <trkpt lat="40.789232" lon="-3.255813">
        <ele>808.482</ele>
        <time>2019-04-21T11:12:14Z</time>
      </trkpt>
      <trkpt lat="40.789293" lon="-3.255884">
        <ele>808.784</ele>
        <time>2019-04-21T11:12:15Z</time>
      </trkpt>
      <trkpt lat="40.789351" lon="-3.255958">
        <ele>808.974</ele>
        <time>2019-04-21T11:12:16Z</time>
      </trkpt>
      <trkpt lat="40.789408" lon="-3.256033">
        <ele>809.189</ele>
        <time>2019-04-21T11:12:17Z</time>
      </trkpt>
      <trkpt lat="40.789469" lon="-3.256111">
        <ele>809.331</ele>
        <time>2019-04-21T11:12:18Z</time>
      </trkpt>
      <trkpt lat="40.789524" lon="-3.256192">
        <ele>809.823</ele>
        <time>2019-04-21T11:12:19Z</time>
      </trkpt>
      <trkpt lat="40.789580" lon="-3.256271">
        <ele>810.377</ele>
        <time>2019-04-21T11:12:20Z</time>
      </trkpt>
      <trkpt lat="40.789633" lon="-3.256352">
        <ele>811.668</ele>
        <time>2019-04-21T11:12:21Z</time>
      </trkpt>
      <trkpt lat="40.789689" lon="-3.256432">
        <ele>812.357</ele>
        <time>2019-04-21T11:12:22Z</time>
      </trkpt>
      <trkpt lat="40.789747" lon="-3.256510">
        <ele>812.900</ele>
        <time>2019-04-21T11:12:23Z</time>
      </trkpt>
      <trkpt lat="40.789808" lon="-3.256586">
        <ele>813.620</ele>
        <time>2019-04-21T11:12:24Z</time>
      </trkpt>
      <trkpt lat="40.789866" lon="-3.256669">
        <ele>814.208</ele>
        <time>2019-04-21T11:12:25Z</time>
      </trkpt>
      <trkpt lat="40.789933" lon="-3.256746">
        <ele>814.618</ele>
        <time>2019-04-21T11:12:26Z</time>
      </trkpt>
      <trkpt lat="40.790001" lon="-3.256830">
        <ele>815.270</ele>
        <time>2019-04-21T11:12:27Z</time>
      </trkpt>
      <trkpt lat="40.790065" lon="-3.256929">
        <ele>815.650</ele>
        <time>2019-04-21T11:12:28Z</time>
      </trkpt>
      <trkpt lat="40.790126" lon="-3.257032">
        <ele>816.085</ele>
        <time>2019-04-21T11:12:29Z</time>
      </trkpt>
      <trkpt lat="40.790191" lon="-3.257134">
        <ele>816.377</ele>
        <time>2019-04-21T11:12:30Z</time>
      </trkpt>
      <trkpt lat="40.790244" lon="-3.257248">
        <ele>816.739</ele>
        <time>2019-04-21T11:12:31Z</time>
      </trkpt>
      <trkpt lat="40.790295" lon="-3.257368">
        <ele>817.093</ele>
        <time>2019-04-21T11:12:32Z</time>
      </trkpt>
      <trkpt lat="40.790338" lon="-3.257492">
        <ele>817.384</ele>
        <time>2019-04-21T11:12:33Z</time>
      </trkpt>
      <trkpt lat="40.790390" lon="-3.257618">
        <ele>817.669</ele>
        <time>2019-04-21T11:12:34Z</time>
      </trkpt>
      <trkpt lat="40.790432" lon="-3.257740">
        <ele>817.804</ele>
        <time>2019-04-21T11:12:35Z</time>
      </trkpt>
      <trkpt lat="40.790473" lon="-3.257862">
        <ele>818.024</ele>
        <time>2019-04-21T11:12:36Z</time>
      </trkpt>
      <trkpt lat="40.790515" lon="-3.257974">
        <ele>818.108</ele>
        <time>2019-04-21T11:12:37Z</time>
      </trkpt>
      <trkpt lat="40.790562" lon="-3.258096">
        <ele>818.349</ele>
        <time>2019-04-21T11:12:38Z</time>
      </trkpt>
      <trkpt lat="40.790608" lon="-3.258213">
        <ele>818.571</ele>
        <time>2019-04-21T11:12:39Z</time>
      </trkpt>
      <trkpt lat="40.790656" lon="-3.258330">
        <ele>818.841</ele>
        <time>2019-04-21T11:12:40Z</time>
      </trkpt>
      <trkpt lat="40.790696" lon="-3.258444">
        <ele>819.176</ele>
        <time>2019-04-21T11:12:41Z</time>
      </trkpt>
      <trkpt lat="40.790742" lon="-3.258559">
        <ele>819.318</ele>
        <time>2019-04-21T11:12:42Z</time>
      </trkpt>
      <trkpt lat="40.790795" lon="-3.258681">
        <ele>819.550</ele>
        <time>2019-04-21T11:12:43Z</time>
      </trkpt>
      <trkpt lat="40.790838" lon="-3.258811">
        <ele>819.754</ele>
        <time>2019-04-21T11:12:44Z</time>
      </trkpt>
      <trkpt lat="40.790877" lon="-3.258940">
        <ele>819.945</ele>
        <time>2019-04-21T11:12:45Z</time>
      </trkpt>
      <trkpt lat="40.790926" lon="-3.259067">
        <ele>820.267</ele>
        <time>2019-04-21T11:12:46Z</time>
      </trkpt>
      <trkpt lat="40.790958" lon="-3.259203">
        <ele>820.581</ele>
        <time>2019-04-21T11:12:47Z</time>
      </trkpt>
      <trkpt lat="40.790982" lon="-3.259351">
        <ele>820.819</ele>
        <time>2019-04-21T11:12:48Z</time>
      </trkpt>
      <trkpt lat="40.791018" lon="-3.259488">
        <ele>821.108</ele>
        <time>2019-04-21T11:12:49Z</time>
      </trkpt>
      <trkpt lat="40.791043" lon="-3.259634">
        <ele>821.449</ele>
        <time>2019-04-21T11:12:50Z</time>
      </trkpt>
      <trkpt lat="40.791072" lon="-3.259775">
        <ele>821.971</ele>
        <time>2019-04-21T11:12:51Z</time>
      </trkpt>
      <trkpt lat="40.791102" lon="-3.259914">
        <ele>822.181</ele>
        <time>2019-04-21T11:12:52Z</time>
      </trkpt>
      <trkpt lat="40.791135" lon="-3.260053">
        <ele>822.346</ele>
        <time>2019-04-21T11:12:53Z</time>
      </trkpt>
      <trkpt lat="40.791167" lon="-3.260194">
        <ele>822.538</ele>
        <time>2019-04-21T11:12:54Z</time>
      </trkpt>
      <trkpt lat="40.791200" lon="-3.260338">
        <ele>822.850</ele>
        <time>2019-04-21T11:12:55Z</time>
      </trkpt>
      <trkpt lat="40.791233" lon="-3.260484">
        <ele>823.164</ele>
        <time>2019-04-21T11:12:56Z</time>
      </trkpt>
      <trkpt lat="40.791267" lon="-3.260630">
        <ele>823.535</ele>
        <time>2019-04-21T11:12:57Z</time>
      </trkpt>
      <trkpt lat="40.791303" lon="-3.260777">
        <ele>823.967</ele>
        <time>2019-04-21T11:12:58Z</time>
      </trkpt>
      <trkpt lat="40.791338" lon="-3.260921">
        <ele>824.481</ele>
        <time>2019-04-21T11:12:59Z</time>
      </trkpt>
      <trkpt lat="40.791368" lon="-3.261061">
        <ele>824.919</ele>
        <time>2019-04-21T11:13:00Z</time>
      </trkpt>
      <trkpt lat="40.791398" lon="-3.261195">
        <ele>825.508</ele>
        <time>2019-04-21T11:13:01Z</time>
      </trkpt>
      <trkpt lat="40.791427" lon="-3.261330">
        <ele>826.249</ele>
        <time>2019-04-21T11:13:02Z</time>
      </trkpt>
      <trkpt lat="40.791466" lon="-3.261465">
        <ele>827.111</ele>
        <time>2019-04-21T11:13:03Z</time>
      </trkpt>
      <trkpt lat="40.791504" lon="-3.261599">
        <ele>828.131</ele>
        <time>2019-04-21T11:13:04Z</time>
      </trkpt>
      <trkpt lat="40.791531" lon="-3.261736">
        <ele>829.096</ele>
        <time>2019-04-21T11:13:05Z</time>
      </trkpt>
      <trkpt lat="40.791576" lon="-3.261868">
        <ele>829.928</ele>
        <time>2019-04-21T11:13:06Z</time>
      </trkpt>
      <trkpt lat="40.791637" lon="-3.261995">
        <ele>831.470</ele>
        <time>2019-04-21T11:13:07Z</time>
      </trkpt>
      <trkpt lat="40.791708" lon="-3.262119">
        <ele>832.014</ele>
        <time>2019-04-21T11:13:08Z</time>
      </trkpt>
      <trkpt lat="40.791780" lon="-3.262250">
        <ele>832.525</ele>
        <time>2019-04-21T11:13:09Z</time>
      </trkpt>
      <trkpt lat="40.791853" lon="-3.262386">
        <ele>832.967</ele>
        <time>2019-04-21T11:13:10Z</time>
      </trkpt>
      <trkpt lat="40.791928" lon="-3.262522">
        <ele>833.281</ele>
        <time>2019-04-21T11:13:11Z</time>
      </trkpt>
      <trkpt lat="40.792002" lon="-3.262661">
        <ele>833.519</ele>
        <time>2019-04-21T11:13:12Z</time>
      </trkpt>
      <trkpt lat="40.792070" lon="-3.262802">
        <ele>833.808</ele>
        <time>2019-04-21T11:13:13Z</time>
      </trkpt>
      <trkpt lat="40.792143" lon="-3.262939">
        <ele>834.289</ele>
        <time>2019-04-21T11:13:14Z</time>
      </trkpt>
      <trkpt lat="40.792218" lon="-3.263076">
        <ele>834.581</ele>
        <time>2019-04-21T11:13:15Z</time>
      </trkpt>
      <trkpt lat="40.792292" lon="-3.263214">
        <ele>834.891</ele>
        <time>2019-04-21T11:13:16Z</time>
      </trkpt>
      <trkpt lat="40.792365" lon="-3.263354">
        <ele>835.096</ele>
        <time>2019-04-21T11:13:17Z</time>
      </trkpt>
      <trkpt lat="40.792442" lon="-3.263487">
        <ele>835.178</ele>
        <time>2019-04-21T11:13:18Z</time>
      </trkpt>
      <trkpt lat="40.792517" lon="-3.263618">
        <ele>835.260</ele>
        <time>2019-04-21T11:13:19Z</time>
      </trkpt>
      <trkpt lat="40.792590" lon="-3.263749">
        <ele>835.434</ele>
        <time>2019-04-21T11:13:20Z</time>
      </trkpt>
      <trkpt lat="40.792657" lon="-3.263882">
        <ele>835.635</ele>
        <time>2019-04-21T11:13:21Z</time>
      </trkpt>
      <trkpt lat="40.792729" lon="-3.264013">
        <ele>836.268</ele>
        <time>2019-04-21T11:13:22Z</time>
      </trkpt>
      <trkpt lat="40.792804" lon="-3.264142">
        <ele>836.442</ele>
        <time>2019-04-21T11:13:23Z</time>
      </trkpt>
      <trkpt lat="40.792880" lon="-3.264272">
        <ele>836.626</ele>
        <time>2019-04-21T11:13:24Z</time>
      </trkpt>
      <trkpt lat="40.792956" lon="-3.264406">
        <ele>836.808</ele>
        <time>2019-04-21T11:13:25Z</time>
      </trkpt>
      <trkpt lat="40.793029" lon="-3.264543">
        <ele>837.089</ele>
        <time>2019-04-21T11:13:26Z</time>
      </trkpt>
      <trkpt lat="40.793102" lon="-3.264679">
        <ele>837.261</ele>
        <time>2019-04-21T11:13:27Z</time>
      </trkpt>
      <trkpt lat="40.793174" lon="-3.264811">
        <ele>837.421</ele>
        <time>2019-04-21T11:13:28Z</time>
      </trkpt>
      <trkpt lat="40.793246" lon="-3.264941">
        <ele>837.736</ele>
        <time>2019-04-21T11:13:29Z</time>
      </trkpt>
      <trkpt lat="40.793315" lon="-3.265071">
        <ele>838.088</ele>
        <time>2019-04-21T11:13:30Z</time>
      </trkpt>
      <trkpt lat="40.793377" lon="-3.265206">
        <ele>838.340</ele>
        <time>2019-04-21T11:13:31Z</time>
      </trkpt>
      <trkpt lat="40.793437" lon="-3.265342">
        <ele>838.794</ele>
        <time>2019-04-21T11:13:32Z</time>
      </trkpt>
      <trkpt lat="40.793494" lon="-3.265480">
        <ele>839.315</ele>
        <time>2019-04-21T11:13:33Z</time>
      </trkpt>
      <trkpt lat="40.793547" lon="-3.265614">
        <ele>839.849</ele>
        <time>2019-04-21T11:13:34Z</time>
      </trkpt>
      <trkpt lat="40.793595" lon="-3.265743">
        <ele>840.202</ele>
        <time>2019-04-21T11:13:35Z</time>
      </trkpt>
      <trkpt lat="40.793637" lon="-3.265871">
        <ele>840.622</ele>
        <time>2019-04-21T11:13:36Z</time>
      </trkpt>
      <trkpt lat="40.793674" lon="-3.266002">
        <ele>841.008</ele>
        <time>2019-04-21T11:13:37Z</time>
      </trkpt>
      <trkpt lat="40.793711" lon="-3.266130">
        <ele>841.137</ele>
        <time>2019-04-21T11:13:38Z</time>
      </trkpt>
      <trkpt lat="40.793744" lon="-3.266257">
        <ele>841.119</ele>
        <time>2019-04-21T11:13:39Z</time>
      </trkpt>
      <trkpt lat="40.793772" lon="-3.266382">
        <ele>841.189</ele>
        <time>2019-04-21T11:13:40Z</time>
      </trkpt>
      <trkpt lat="40.793799" lon="-3.266506">
        <ele>841.114</ele>
        <time>2019-04-21T11:13:41Z</time>
      </trkpt>
      <trkpt lat="40.793828" lon="-3.266635">
        <ele>841.116</ele>
        <time>2019-04-21T11:13:42Z</time>
      </trkpt>
      <trkpt lat="40.793856" lon="-3.266764">
        <ele>841.078</ele>
        <time>2019-04-21T11:13:43Z</time>
      </trkpt>
      <trkpt lat="40.793880" lon="-3.266890">
        <ele>840.872</ele>
        <time>2019-04-21T11:13:44Z</time>
      </trkpt>
      <trkpt lat="40.793911" lon="-3.267016">
        <ele>840.523</ele>
        <time>2019-04-21T11:13:45Z</time>
      </trkpt>
      <trkpt lat="40.793942" lon="-3.267139">
        <ele>840.246</ele>
        <time>2019-04-21T11:13:46Z</time>
      </trkpt>
      <trkpt lat="40.793971" lon="-3.267261">
        <ele>839.888</ele>
        <time>2019-04-21T11:13:47Z</time>
      </trkpt>
      <trkpt lat="40.793996" lon="-3.267384">
        <ele>839.416</ele>
        <time>2019-04-21T11:13:48Z</time>
      </trkpt>
      <trkpt lat="40.794024" lon="-3.267505">
        <ele>839.008</ele>
        <time>2019-04-21T11:13:49Z</time>
      </trkpt>
      <trkpt lat="40.794047" lon="-3.267618">
        <ele>838.647</ele>
        <time>2019-04-21T11:13:50Z</time>
      </trkpt>
      <trkpt lat="40.794066" lon="-3.267707">
        <ele>838.349</ele>
        <time>2019-04-21T11:13:51Z</time>
      </trkpt>
      <trkpt lat="40.794076" lon="-3.267770">
        <ele>837.589</ele>
        <time>2019-04-21T11:13:52Z</time>
      </trkpt>
      <trkpt lat="40.794105" lon="-3.267832">
        <ele>837.144</ele>
        <time>2019-04-21T11:13:54Z</time>
      </trkpt>
      <trkpt lat="40.794168" lon="-3.267816">
        <ele>836.946</ele>
        <time>2019-04-21T11:13:57Z</time>
      </trkpt>
      <trkpt lat="40.794241" lon="-3.267811">
        <ele>836.778</ele>
        <time>2019-04-21T11:13:59Z</time>
      </trkpt>
      <trkpt lat="40.794326" lon="-3.267799">
        <ele>836.312</ele>
        <time>2019-04-21T11:14:01Z</time>
      </trkpt>
      <trkpt lat="40.794411" lon="-3.267776">
        <ele>835.833</ele>
        <time>2019-04-21T11:14:03Z</time>
      </trkpt>
      <trkpt lat="40.794496" lon="-3.267747">
        <ele>835.164</ele>
        <time>2019-04-21T11:14:05Z</time>
      </trkpt>
      <trkpt lat="40.794576" lon="-3.267691">
        <ele>834.706</ele>
        <time>2019-04-21T11:14:07Z</time>
      </trkpt>
      <trkpt lat="40.794617" lon="-3.267650">
        <ele>834.516</ele>
        <time>2019-04-21T11:14:08Z</time>
      </trkpt>
      <trkpt lat="40.794655" lon="-3.267608">
        <ele>834.508</ele>
        <time>2019-04-21T11:14:09Z</time>
      </trkpt>
      <trkpt lat="40.794690" lon="-3.267560">
        <ele>834.569</ele>
        <time>2019-04-21T11:14:10Z</time>
      </trkpt>
      <trkpt lat="40.794730" lon="-3.267515">
        <ele>834.531</ele>
        <time>2019-04-21T11:14:11Z</time>
      </trkpt>
      <trkpt lat="40.794778" lon="-3.267462">
        <ele>834.541</ele>
        <time>2019-04-21T11:14:12Z</time>
      </trkpt>
      <trkpt lat="40.794827" lon="-3.267408">
        <ele>834.536</ele>
        <time>2019-04-21T11:14:13Z</time>
      </trkpt>
      <trkpt lat="40.794880" lon="-3.267351">
        <ele>834.528</ele>
        <time>2019-04-21T11:14:14Z</time>
      </trkpt>
      <trkpt lat="40.794937" lon="-3.267276">
        <ele>834.620</ele>
        <time>2019-04-21T11:14:15Z</time>
      </trkpt>
      <trkpt lat="40.794993" lon="-3.267203">
        <ele>834.764</ele>
        <time>2019-04-21T11:14:16Z</time>
      </trkpt>
      <trkpt lat="40.795039" lon="-3.267145">
        <ele>834.785</ele>
        <time>2019-04-21T11:14:17Z</time>
      </trkpt>
      <trkpt lat="40.795087" lon="-3.267077">
        <ele>834.662</ele>
        <time>2019-04-21T11:14:18Z</time>
      </trkpt>
      <trkpt lat="40.795119" lon="-3.267034">
        <ele>834.383</ele>
        <time>2019-04-21T11:14:19Z</time>
      </trkpt>
      <trkpt lat="40.795170" lon="-3.266977">
        <ele>833.411</ele>
        <time>2019-04-21T11:14:21Z</time>
      </trkpt>
      <trkpt lat="40.795234" lon="-3.266926">
        <ele>831.708</ele>
        <time>2019-04-21T11:14:23Z</time>
      </trkpt>
      <trkpt lat="40.795276" lon="-3.266891">
        <ele>831.249</ele>
        <time>2019-04-21T11:14:24Z</time>
      </trkpt>
      <trkpt lat="40.795335" lon="-3.266841">
        <ele>830.641</ele>
        <time>2019-04-21T11:14:25Z</time>
      </trkpt>
      <trkpt lat="40.795391" lon="-3.266800">
        <ele>830.011</ele>
        <time>2019-04-21T11:14:26Z</time>
      </trkpt>
      <trkpt lat="40.795448" lon="-3.266766">
        <ele>829.646</ele>
        <time>2019-04-21T11:14:27Z</time>
      </trkpt>
      <trkpt lat="40.795501" lon="-3.266730">
        <ele>829.628</ele>
        <time>2019-04-21T11:14:28Z</time>
      </trkpt>
      <trkpt lat="40.795563" lon="-3.266679">
        <ele>829.980</ele>
        <time>2019-04-21T11:14:29Z</time>
      </trkpt>
      <trkpt lat="40.795604" lon="-3.266640">
        <ele>830.354</ele>
        <time>2019-04-21T11:14:30Z</time>
      </trkpt>
      <trkpt lat="40.795665" lon="-3.266584">
        <ele>831.175</ele>
        <time>2019-04-21T11:14:32Z</time>
      </trkpt>
      <trkpt lat="40.795706" lon="-3.266531">
        <ele>830.976</ele>
        <time>2019-04-21T11:14:34Z</time>
      </trkpt>
      <trkpt lat="40.795760" lon="-3.266454">
        <ele>830.390</ele>
        <time>2019-04-21T11:14:36Z</time>
      </trkpt>
      <trkpt lat="40.795799" lon="-3.266396">
        <ele>829.819</ele>
        <time>2019-04-21T11:14:37Z</time>
      </trkpt>
      <trkpt lat="40.795844" lon="-3.266328">
        <ele>829.308</ele>
        <time>2019-04-21T11:14:38Z</time>
      </trkpt>
      <trkpt lat="40.795888" lon="-3.266271">
        <ele>828.320</ele>
        <time>2019-04-21T11:14:39Z</time>
      </trkpt>
      <trkpt lat="40.795935" lon="-3.266237">
        <ele>828.392</ele>
        <time>2019-04-21T11:14:40Z</time>
      </trkpt>
      <trkpt lat="40.796008" lon="-3.266217">
        <ele>829.022</ele>
        <time>2019-04-21T11:14:42Z</time>
      </trkpt>
      <trkpt lat="40.796088" lon="-3.266222">
        <ele>830.147</ele>
        <time>2019-04-21T11:14:44Z</time>
      </trkpt>
      <trkpt lat="40.796158" lon="-3.266219">
        <ele>830.659</ele>
        <time>2019-04-21T11:14:46Z</time>
      </trkpt>
      <trkpt lat="40.796220" lon="-3.266209">
        <ele>830.831</ele>
        <time>2019-04-21T11:14:48Z</time>
      </trkpt>
      <trkpt lat="40.796276" lon="-3.266195">
        <ele>830.815</ele>
        <time>2019-04-21T11:14:50Z</time>
      </trkpt>
      <trkpt lat="40.796317" lon="-3.266165">
        <ele>830.786</ele>
        <time>2019-04-21T11:14:51Z</time>
      </trkpt>
      <trkpt lat="40.796362" lon="-3.266135">
        <ele>830.579</ele>
        <time>2019-04-21T11:14:52Z</time>
      </trkpt>
      <trkpt lat="40.796390" lon="-3.266075">
        <ele>830.305</ele>
        <time>2019-04-21T11:14:53Z</time>
      </trkpt>
      <trkpt lat="40.796406" lon="-3.265988">
        <ele>829.725</ele>
        <time>2019-04-21T11:14:55Z</time>
      </trkpt>
      <trkpt lat="40.796429" lon="-3.265930">
        <ele>829.608</ele>
        <time>2019-04-21T11:14:56Z</time>
      </trkpt>
      <trkpt lat="40.796469" lon="-3.265856">
        <ele>829.450</ele>
        <time>2019-04-21T11:14:58Z</time>
      </trkpt>
      <trkpt lat="40.796532" lon="-3.265882">
        <ele>827.922</ele>
        <time>2019-04-21T11:15:02Z</time>
      </trkpt>
      <trkpt lat="40.796555" lon="-3.265985">
        <ele>827.332</ele>
        <time>2019-04-21T11:15:04Z</time>
      </trkpt>
      <trkpt lat="40.796558" lon="-3.266049">
        <ele>827.087</ele>
        <time>2019-04-21T11:15:05Z</time>
      </trkpt>
      <trkpt lat="40.796563" lon="-3.266117">
        <ele>826.469</ele>
        <time>2019-04-21T11:15:06Z</time>
      </trkpt>
      <trkpt lat="40.796576" lon="-3.266219">
        <ele>825.411</ele>
        <time>2019-04-21T11:15:08Z</time>
      </trkpt>
      <trkpt lat="40.796576" lon="-3.266306">
        <ele>824.285</ele>
        <time>2019-04-21T11:15:09Z</time>
      </trkpt>
      <trkpt lat="40.796577" lon="-3.266372">
        <ele>823.916</ele>
        <time>2019-04-21T11:15:10Z</time>
      </trkpt>
      <trkpt lat="40.796565" lon="-3.266482">
        <ele>822.956</ele>
        <time>2019-04-21T11:15:12Z</time>
      </trkpt>
      <trkpt lat="40.796555" lon="-3.266544">
        <ele>822.459</ele>
        <time>2019-04-21T11:15:13Z</time>
      </trkpt>
      <trkpt lat="40.796549" lon="-3.266612">
        <ele>821.614</ele>
        <time>2019-04-21T11:15:15Z</time>
      </trkpt>
      <trkpt lat="40.796549" lon="-3.266696">
        <ele>820.308</ele>
        <time>2019-04-21T11:15:17Z</time>
      </trkpt>
      <trkpt lat="40.796555" lon="-3.266783">
        <ele>819.418</ele>
        <time>2019-04-21T11:15:19Z</time>
      </trkpt>
      <trkpt lat="40.796586" lon="-3.266873">
        <ele>818.690</ele>
        <time>2019-04-21T11:15:21Z</time>
      </trkpt>
      <trkpt lat="40.796639" lon="-3.266939">
        <ele>817.870</ele>
        <time>2019-04-21T11:15:23Z</time>
      </trkpt>
      <trkpt lat="40.796679" lon="-3.266969">
        <ele>816.845</ele>
        <time>2019-04-21T11:15:24Z</time>
      </trkpt>
      <trkpt lat="40.796726" lon="-3.267006">
        <ele>816.657</ele>
        <time>2019-04-21T11:15:25Z</time>
      </trkpt>
      <trkpt lat="40.796774" lon="-3.267007">
        <ele>816.389</ele>
        <time>2019-04-21T11:15:26Z</time>
      </trkpt>
      <trkpt lat="40.796828" lon="-3.266998">
        <ele>816.193</ele>
        <time>2019-04-21T11:15:27Z</time>
      </trkpt>
      <trkpt lat="40.796878" lon="-3.266983">
        <ele>816.194</ele>
        <time>2019-04-21T11:15:28Z</time>
      </trkpt>
      <trkpt lat="40.796965" lon="-3.266950">
        <ele>816.241</ele>
        <time>2019-04-21T11:15:30Z</time>
      </trkpt>
      <trkpt lat="40.797019" lon="-3.266950">
        <ele>816.181</ele>
        <time>2019-04-21T11:15:31Z</time>
      </trkpt>
      <trkpt lat="40.797071" lon="-3.266954">
        <ele>815.909</ele>
        <time>2019-04-21T11:15:32Z</time>
      </trkpt>
      <trkpt lat="40.797160" lon="-3.266988">
        <ele>815.608</ele>
        <time>2019-04-21T11:15:34Z</time>
      </trkpt>
      <trkpt lat="40.797211" lon="-3.267018">
        <ele>815.467</ele>
        <time>2019-04-21T11:15:35Z</time>
      </trkpt>
      <trkpt lat="40.797266" lon="-3.267042">
        <ele>815.259</ele>
        <time>2019-04-21T11:15:36Z</time>
      </trkpt>
      <trkpt lat="40.797306" lon="-3.267072">
        <ele>815.179</ele>
        <time>2019-04-21T11:15:37Z</time>
      </trkpt>
      <trkpt lat="40.797382" lon="-3.267143">
        <ele>815.164</ele>
        <time>2019-04-21T11:15:39Z</time>
      </trkpt>
      <trkpt lat="40.797461" lon="-3.267187">
        <ele>816.146</ele>
        <time>2019-04-21T11:15:41Z</time>
      </trkpt>
      <trkpt lat="40.797511" lon="-3.267212">
        <ele>816.248</ele>
        <time>2019-04-21T11:15:42Z</time>
      </trkpt>
      <trkpt lat="40.797556" lon="-3.267233">
        <ele>816.282</ele>
        <time>2019-04-21T11:15:43Z</time>
      </trkpt>
      <trkpt lat="40.797600" lon="-3.267257">
        <ele>815.683</ele>
        <time>2019-04-21T11:15:44Z</time>
      </trkpt>
      <trkpt lat="40.797670" lon="-3.267311">
        <ele>814.883</ele>
        <time>2019-04-21T11:15:46Z</time>
      </trkpt>
      <trkpt lat="40.797734" lon="-3.267362">
        <ele>814.625</ele>
        <time>2019-04-21T11:15:48Z</time>
      </trkpt>
      <trkpt lat="40.797813" lon="-3.267365">
        <ele>814.317</ele>
        <time>2019-04-21T11:15:50Z</time>
      </trkpt>
      <trkpt lat="40.797858" lon="-3.267372">
        <ele>814.608</ele>
        <time>2019-04-21T11:15:51Z</time>
      </trkpt>
      <trkpt lat="40.797907" lon="-3.267342">
        <ele>814.671</ele>
        <time>2019-04-21T11:15:52Z</time>
      </trkpt>
      <trkpt lat="40.797964" lon="-3.267307">
        <ele>814.623</ele>
        <time>2019-04-21T11:15:53Z</time>
      </trkpt>
      <trkpt lat="40.798009" lon="-3.267256">
        <ele>814.953</ele>
        <time>2019-04-21T11:15:54Z</time>
      </trkpt>
      <trkpt lat="40.798051" lon="-3.267225">
        <ele>814.968</ele>
        <time>2019-04-21T11:15:55Z</time>
      </trkpt>
      <trkpt lat="40.798134" lon="-3.267185">
        <ele>814.470</ele>
        <time>2019-04-21T11:15:57Z</time>
      </trkpt>
      <trkpt lat="40.798184" lon="-3.267166">
        <ele>814.162</ele>
        <time>2019-04-21T11:15:58Z</time>
      </trkpt>
      <trkpt lat="40.798229" lon="-3.267140">
        <ele>814.076</ele>
        <time>2019-04-21T11:15:59Z</time>
      </trkpt>
      <trkpt lat="40.798273" lon="-3.267126">
        <ele>813.797</ele>
        <time>2019-04-21T11:16:00Z</time>
      </trkpt>
      <trkpt lat="40.798320" lon="-3.267109">
        <ele>813.451</ele>
        <time>2019-04-21T11:16:01Z</time>
      </trkpt>
      <trkpt lat="40.798367" lon="-3.267087">
        <ele>813.101</ele>
        <time>2019-04-21T11:16:02Z</time>
      </trkpt>
      <trkpt lat="40.798419" lon="-3.267043">
        <ele>812.311</ele>
        <time>2019-04-21T11:16:04Z</time>
      </trkpt>
      <trkpt lat="40.798430" lon="-3.266958">
        <ele>811.008</ele>
        <time>2019-04-21T11:16:07Z</time>
      </trkpt>
      <trkpt lat="40.798436" lon="-3.266885">
        <ele>810.978</ele>
        <time>2019-04-21T11:16:09Z</time>
      </trkpt>
      <trkpt lat="40.798410" lon="-3.266936">
        <ele>810.890</ele>
        <time>2019-04-21T11:16:48Z</time>
      </trkpt>
      <trkpt lat="40.798374" lon="-3.266981">
        <ele>810.640</ele>
        <time>2019-04-21T11:16:49Z</time>
      </trkpt>
      <trkpt lat="40.798344" lon="-3.267044">
        <ele>810.285</ele>
        <time>2019-04-21T11:16:51Z</time>
      </trkpt>
      <trkpt lat="40.798351" lon="-3.267103">
        <ele>810.297</ele>
        <time>2019-04-21T11:17:25Z</time>
      </trkpt>
      <trkpt lat="40.798284" lon="-3.267050">
        <ele>811.139</ele>
        <time>2019-04-21T11:17:53Z</time>
      </trkpt>
      <trkpt lat="40.798228" lon="-3.267077">
        <ele>811.383</ele>
        <time>2019-04-21T11:17:56Z</time>
      </trkpt>
      <trkpt lat="40.798158" lon="-3.267109">
        <ele>811.474</ele>
        <time>2019-04-21T11:17:58Z</time>
      </trkpt>
      <trkpt lat="40.798079" lon="-3.267153">
        <ele>811.445</ele>
        <time>2019-04-21T11:18:00Z</time>
      </trkpt>
      <trkpt lat="40.798027" lon="-3.267185">
        <ele>811.447</ele>
        <time>2019-04-21T11:18:01Z</time>
      </trkpt>
      <trkpt lat="40.797973" lon="-3.267228">
        <ele>811.411</ele>
        <time>2019-04-21T11:18:02Z</time>
      </trkpt>
      <trkpt lat="40.797918" lon="-3.267259">
        <ele>811.408</ele>
        <time>2019-04-21T11:18:03Z</time>
      </trkpt>
      <trkpt lat="40.797855" lon="-3.267277">
        <ele>811.557</ele>
        <time>2019-04-21T11:18:04Z</time>
      </trkpt>
      <trkpt lat="40.797795" lon="-3.267284">
        <ele>811.849</ele>
        <time>2019-04-21T11:18:05Z</time>
      </trkpt>
      <trkpt lat="40.797738" lon="-3.267277">
        <ele>812.089</ele>
        <time>2019-04-21T11:18:06Z</time>
      </trkpt>
      <trkpt lat="40.797687" lon="-3.267273">
        <ele>812.344</ele>
        <time>2019-04-21T11:18:07Z</time>
      </trkpt>
      <trkpt lat="40.797623" lon="-3.267284">
        <ele>812.546</ele>
        <time>2019-04-21T11:18:08Z</time>
      </trkpt>
      <trkpt lat="40.797567" lon="-3.267283">
        <ele>812.788</ele>
        <time>2019-04-21T11:18:09Z</time>
      </trkpt>
      <trkpt lat="40.797508" lon="-3.267263">
        <ele>812.822</ele>
        <time>2019-04-21T11:18:10Z</time>
      </trkpt>
      <trkpt lat="40.797452" lon="-3.267235">
        <ele>813.253</ele>
        <time>2019-04-21T11:18:11Z</time>
      </trkpt>
      <trkpt lat="40.797393" lon="-3.267197">
        <ele>813.828</ele>
        <time>2019-04-21T11:18:12Z</time>
      </trkpt>
      <trkpt lat="40.797334" lon="-3.267161">
        <ele>814.189</ele>
        <time>2019-04-21T11:18:13Z</time>
      </trkpt>
      <trkpt lat="40.797276" lon="-3.267113">
        <ele>814.517</ele>
        <time>2019-04-21T11:18:14Z</time>
      </trkpt>
      <trkpt lat="40.797216" lon="-3.267069">
        <ele>814.608</ele>
        <time>2019-04-21T11:18:15Z</time>
      </trkpt>
      <trkpt lat="40.797153" lon="-3.267033">
        <ele>814.765</ele>
        <time>2019-04-21T11:18:16Z</time>
      </trkpt>
      <trkpt lat="40.797094" lon="-3.267011">
        <ele>814.837</ele>
        <time>2019-04-21T11:18:17Z</time>
      </trkpt>
      <trkpt lat="40.797043" lon="-3.266988">
        <ele>814.917</ele>
        <time>2019-04-21T11:18:18Z</time>
      </trkpt>
      <trkpt lat="40.796997" lon="-3.266974">
        <ele>815.142</ele>
        <time>2019-04-21T11:18:19Z</time>
      </trkpt>
      <trkpt lat="40.796949" lon="-3.266964">
        <ele>815.384</ele>
        <time>2019-04-21T11:18:20Z</time>
      </trkpt>
      <trkpt lat="40.796868" lon="-3.266978">
        <ele>815.626</ele>
        <time>2019-04-21T11:18:22Z</time>
      </trkpt>
      <trkpt lat="40.796818" lon="-3.266994">
        <ele>815.840</ele>
        <time>2019-04-21T11:18:23Z</time>
      </trkpt>
      <trkpt lat="40.796762" lon="-3.267002">
        <ele>815.911</ele>
        <time>2019-04-21T11:18:24Z</time>
      </trkpt>
      <trkpt lat="40.796716" lon="-3.267006">
        <ele>815.954</ele>
        <time>2019-04-21T11:18:25Z</time>
      </trkpt>
      <trkpt lat="40.796635" lon="-3.266960">
        <ele>816.056</ele>
        <time>2019-04-21T11:18:27Z</time>
      </trkpt>
      <trkpt lat="40.796561" lon="-3.266881">
        <ele>816.211</ele>
        <time>2019-04-21T11:18:29Z</time>
      </trkpt>
      <trkpt lat="40.796539" lon="-3.266799">
        <ele>816.808</ele>
        <time>2019-04-21T11:18:31Z</time>
      </trkpt>
      <trkpt lat="40.796535" lon="-3.266735">
        <ele>817.718</ele>
        <time>2019-04-21T11:18:33Z</time>
      </trkpt>
      <trkpt lat="40.796544" lon="-3.266618">
        <ele>818.710</ele>
        <time>2019-04-21T11:18:35Z</time>
      </trkpt>
      <trkpt lat="40.796550" lon="-3.266523">
        <ele>819.790</ele>
        <time>2019-04-21T11:18:37Z</time>
      </trkpt>
      <trkpt lat="40.796567" lon="-3.266425">
        <ele>820.765</ele>
        <time>2019-04-21T11:18:39Z</time>
      </trkpt>
      <trkpt lat="40.796581" lon="-3.266319">
        <ele>821.667</ele>
        <time>2019-04-21T11:18:41Z</time>
      </trkpt>
      <trkpt lat="40.796584" lon="-3.266221">
        <ele>823.199</ele>
        <time>2019-04-21T11:18:43Z</time>
      </trkpt>
      <trkpt lat="40.796584" lon="-3.266128">
        <ele>824.223</ele>
        <time>2019-04-21T11:18:45Z</time>
      </trkpt>
      <trkpt lat="40.796577" lon="-3.266059">
        <ele>824.644</ele>
        <time>2019-04-21T11:18:46Z</time>
      </trkpt>
      <trkpt lat="40.796560" lon="-3.265960">
        <ele>825.522</ele>
        <time>2019-04-21T11:18:48Z</time>
      </trkpt>
      <trkpt lat="40.796533" lon="-3.265867">
        <ele>826.262</ele>
        <time>2019-04-21T11:18:50Z</time>
      </trkpt>
      <trkpt lat="40.796520" lon="-3.265776">
        <ele>827.108</ele>
        <time>2019-04-21T11:18:52Z</time>
      </trkpt>
      <trkpt lat="40.796557" lon="-3.265736">
        <ele>828.508</ele>
        <time>2019-04-21T11:18:54Z</time>
      </trkpt>
      <trkpt lat="40.796606" lon="-3.265713">
        <ele>829.475</ele>
        <time>2019-04-21T11:18:55Z</time>
      </trkpt>
      <trkpt lat="40.796655" lon="-3.265693">
        <ele>830.387</ele>
        <time>2019-04-21T11:18:56Z</time>
      </trkpt>
      <trkpt lat="40.796700" lon="-3.265676">
        <ele>831.027</ele>
        <time>2019-04-21T11:18:57Z</time>
      </trkpt>
      <trkpt lat="40.796743" lon="-3.265655">
        <ele>831.462</ele>
        <time>2019-04-21T11:18:58Z</time>
      </trkpt>
      <trkpt lat="40.796791" lon="-3.265627">
        <ele>831.454</ele>
        <time>2019-04-21T11:18:59Z</time>
      </trkpt>
      <trkpt lat="40.796834" lon="-3.265606">
        <ele>831.426</ele>
        <time>2019-04-21T11:19:00Z</time>
      </trkpt>
      <trkpt lat="40.796877" lon="-3.265583">
        <ele>831.590</ele>
        <time>2019-04-21T11:19:01Z</time>
      </trkpt>
      <trkpt lat="40.796930" lon="-3.265540">
        <ele>831.881</ele>
        <time>2019-04-21T11:19:02Z</time>
      </trkpt>
      <trkpt lat="40.796981" lon="-3.265480">
        <ele>832.271</ele>
        <time>2019-04-21T11:19:03Z</time>
      </trkpt>
      <trkpt lat="40.797024" lon="-3.265432">
        <ele>832.741</ele>
        <time>2019-04-21T11:19:04Z</time>
      </trkpt>
      <trkpt lat="40.797061" lon="-3.265386">
        <ele>833.215</ele>
        <time>2019-04-21T11:19:05Z</time>
      </trkpt>
      <trkpt lat="40.797116" lon="-3.265302">
        <ele>833.808</ele>
        <time>2019-04-21T11:19:07Z</time>
      </trkpt>
      <trkpt lat="40.797151" lon="-3.265252">
        <ele>833.730</ele>
        <time>2019-04-21T11:19:09Z</time>
      </trkpt>
      <trkpt lat="40.797168" lon="-3.265170">
        <ele>833.472</ele>
        <time>2019-04-21T11:19:11Z</time>
      </trkpt>
      <trkpt lat="40.797177" lon="-3.265103">
        <ele>833.342</ele>
        <time>2019-04-21T11:19:12Z</time>
      </trkpt>
      <trkpt lat="40.797192" lon="-3.265046">
        <ele>833.597</ele>
        <time>2019-04-21T11:19:13Z</time>
      </trkpt>
      <trkpt lat="40.797211" lon="-3.264990">
        <ele>833.869</ele>
        <time>2019-04-21T11:19:14Z</time>
      </trkpt>
      <trkpt lat="40.797226" lon="-3.264923">
        <ele>833.941</ele>
        <time>2019-04-21T11:19:15Z</time>
      </trkpt>
      <trkpt lat="40.797261" lon="-3.264829">
        <ele>833.895</ele>
        <time>2019-04-21T11:19:17Z</time>
      </trkpt>
      <trkpt lat="40.797286" lon="-3.264777">
        <ele>833.346</ele>
        <time>2019-04-21T11:19:18Z</time>
      </trkpt>
      <trkpt lat="40.797353" lon="-3.264683">
        <ele>832.488</ele>
        <time>2019-04-21T11:19:20Z</time>
      </trkpt>
      <trkpt lat="40.797389" lon="-3.264642">
        <ele>832.224</ele>
        <time>2019-04-21T11:19:21Z</time>
      </trkpt>
      <trkpt lat="40.797455" lon="-3.264582">
        <ele>832.426</ele>
        <time>2019-04-21T11:19:23Z</time>
      </trkpt>
      <trkpt lat="40.797527" lon="-3.264534">
        <ele>833.108</ele>
        <time>2019-04-21T11:19:25Z</time>
      </trkpt>
      <trkpt lat="40.797590" lon="-3.264467">
        <ele>833.761</ele>
        <time>2019-04-21T11:19:27Z</time>
      </trkpt>
      <trkpt lat="40.797604" lon="-3.264371">
        <ele>834.333</ele>
        <time>2019-04-21T11:19:29Z</time>
      </trkpt>
      <trkpt lat="40.797636" lon="-3.264275">
        <ele>834.863</ele>
        <time>2019-04-21T11:19:31Z</time>
      </trkpt>
      <trkpt lat="40.797658" lon="-3.264211">
        <ele>835.238</ele>
        <time>2019-04-21T11:19:32Z</time>
      </trkpt>
      <trkpt lat="40.797675" lon="-3.264153">
        <ele>835.240</ele>
        <time>2019-04-21T11:19:33Z</time>
      </trkpt>
      <trkpt lat="40.797719" lon="-3.264059">
        <ele>834.942</ele>
        <time>2019-04-21T11:19:35Z</time>
      </trkpt>
      <trkpt lat="40.797750" lon="-3.263981">
        <ele>833.826</ele>
        <time>2019-04-21T11:19:37Z</time>
      </trkpt>
      <trkpt lat="40.797755" lon="-3.263892">
        <ele>832.287</ele>
        <time>2019-04-21T11:19:39Z</time>
      </trkpt>
      <trkpt lat="40.797752" lon="-3.263810">
        <ele>831.579</ele>
        <time>2019-04-21T11:19:40Z</time>
      </trkpt>
      <trkpt lat="40.797762" lon="-3.263747">
        <ele>830.805</ele>
        <time>2019-04-21T11:19:41Z</time>
      </trkpt>
      <trkpt lat="40.797819" lon="-3.263677">
        <ele>829.425</ele>
        <time>2019-04-21T11:19:43Z</time>
      </trkpt>
      <trkpt lat="40.797867" lon="-3.263666">
        <ele>829.408</ele>
        <time>2019-04-21T11:19:44Z</time>
      </trkpt>
      <trkpt lat="40.797912" lon="-3.263671">
        <ele>829.670</ele>
        <time>2019-04-21T11:19:45Z</time>
      </trkpt>
      <trkpt lat="40.797998" lon="-3.263684">
        <ele>830.412</ele>
        <time>2019-04-21T11:19:47Z</time>
      </trkpt>
      <trkpt lat="40.798087" lon="-3.263701">
        <ele>831.182</ele>
        <time>2019-04-21T11:19:49Z</time>
      </trkpt>
      <trkpt lat="40.798135" lon="-3.263692">
        <ele>831.357</ele>
        <time>2019-04-21T11:19:50Z</time>
      </trkpt>
      <trkpt lat="40.798188" lon="-3.263683">
        <ele>831.629</ele>
        <time>2019-04-21T11:19:51Z</time>
      </trkpt>
      <trkpt lat="40.798240" lon="-3.263658">
        <ele>831.821</ele>
        <time>2019-04-21T11:19:52Z</time>
      </trkpt>
      <trkpt lat="40.798285" lon="-3.263610">
        <ele>831.925</ele>
        <time>2019-04-21T11:19:53Z</time>
      </trkpt>
      <trkpt lat="40.798325" lon="-3.263562">
        <ele>832.216</ele>
        <time>2019-04-21T11:19:54Z</time>
      </trkpt>
      <trkpt lat="40.798366" lon="-3.263489">
        <ele>832.578</ele>
        <time>2019-04-21T11:19:55Z</time>
      </trkpt>
      <trkpt lat="40.798403" lon="-3.263420">
        <ele>832.533</ele>
        <time>2019-04-21T11:19:56Z</time>
      </trkpt>
      <trkpt lat="40.798445" lon="-3.263361">
        <ele>832.426</ele>
        <time>2019-04-21T11:19:57Z</time>
      </trkpt>
      <trkpt lat="40.798487" lon="-3.263293">
        <ele>832.008</ele>
        <time>2019-04-21T11:19:58Z</time>
      </trkpt>
      <trkpt lat="40.798523" lon="-3.263233">
        <ele>831.770</ele>
        <time>2019-04-21T11:19:59Z</time>
      </trkpt>
      <trkpt lat="40.798555" lon="-3.263173">
        <ele>831.462</ele>
        <time>2019-04-21T11:20:00Z</time>
      </trkpt>
      <trkpt lat="40.798585" lon="-3.263116">
        <ele>831.132</ele>
        <time>2019-04-21T11:20:01Z</time>
      </trkpt>
      <trkpt lat="40.798614" lon="-3.263047">
        <ele>830.877</ele>
        <time>2019-04-21T11:20:02Z</time>
      </trkpt>
      <trkpt lat="40.798648" lon="-3.262997">
        <ele>830.569</ele>
        <time>2019-04-21T11:20:03Z</time>
      </trkpt>
      <trkpt lat="40.798680" lon="-3.262952">
        <ele>830.381</ele>
        <time>2019-04-21T11:20:04Z</time>
      </trkpt>
      <trkpt lat="40.798706" lon="-3.262894">
        <ele>830.225</ele>
        <time>2019-04-21T11:20:05Z</time>
      </trkpt>
      <trkpt lat="40.798749" lon="-3.262793">
        <ele>830.256</ele>
        <time>2019-04-21T11:20:07Z</time>
      </trkpt>
      <trkpt lat="40.798789" lon="-3.262681">
        <ele>830.356</ele>
        <time>2019-04-21T11:20:09Z</time>
      </trkpt>
      <trkpt lat="40.798806" lon="-3.262619">
        <ele>830.159</ele>
        <time>2019-04-21T11:20:10Z</time>
      </trkpt>
      <trkpt lat="40.798855" lon="-3.262530">
        <ele>829.814</ele>
        <time>2019-04-21T11:20:12Z</time>
      </trkpt>
      <trkpt lat="40.798885" lon="-3.262482">
        <ele>829.608</ele>
        <time>2019-04-21T11:20:13Z</time>
      </trkpt>
      <trkpt lat="40.798901" lon="-3.262368">
        <ele>829.158</ele>
        <time>2019-04-21T11:20:15Z</time>
      </trkpt>
      <trkpt lat="40.798901" lon="-3.262302">
        <ele>828.770</ele>
        <time>2019-04-21T11:20:16Z</time>
      </trkpt>
      <trkpt lat="40.798910" lon="-3.262244">
        <ele>828.580</ele>
        <time>2019-04-21T11:20:17Z</time>
      </trkpt>
      <trkpt lat="40.798937" lon="-3.262173">
        <ele>828.315</ele>
        <time>2019-04-21T11:20:18Z</time>
      </trkpt>
      <trkpt lat="40.798962" lon="-3.262113">
        <ele>828.327</ele>
        <time>2019-04-21T11:20:19Z</time>
      </trkpt>
      <trkpt lat="40.798987" lon="-3.262053">
        <ele>828.529</ele>
        <time>2019-04-21T11:20:20Z</time>
      </trkpt>
      <trkpt lat="40.799015" lon="-3.261983">
        <ele>828.523</ele>
        <time>2019-04-21T11:20:21Z</time>
      </trkpt>
      <trkpt lat="40.799057" lon="-3.261871">
        <ele>827.574</ele>
        <time>2019-04-21T11:20:23Z</time>
      </trkpt>
      <trkpt lat="40.799084" lon="-3.261810">
        <ele>826.932</ele>
        <time>2019-04-21T11:20:24Z</time>
      </trkpt>
      <trkpt lat="40.799107" lon="-3.261738">
        <ele>825.892</ele>
        <time>2019-04-21T11:20:25Z</time>
      </trkpt>
      <trkpt lat="40.799130" lon="-3.261670">
        <ele>825.111</ele>
        <time>2019-04-21T11:20:26Z</time>
      </trkpt>
      <trkpt lat="40.799157" lon="-3.261587">
        <ele>824.808</ele>
        <time>2019-04-21T11:20:27Z</time>
      </trkpt>
      <trkpt lat="40.799186" lon="-3.261521">
        <ele>824.496</ele>
        <time>2019-04-21T11:20:28Z</time>
      </trkpt>
      <trkpt lat="40.799209" lon="-3.261468">
        <ele>824.638</ele>
        <time>2019-04-21T11:20:29Z</time>
      </trkpt>
      <trkpt lat="40.799224" lon="-3.261410">
        <ele>824.748</ele>
        <time>2019-04-21T11:20:30Z</time>
      </trkpt>
      <trkpt lat="40.799254" lon="-3.261325">
        <ele>825.473</ele>
        <time>2019-04-21T11:20:32Z</time>
      </trkpt>
      <trkpt lat="40.799307" lon="-3.261240">
        <ele>825.965</ele>
        <time>2019-04-21T11:20:34Z</time>
      </trkpt>
      <trkpt lat="40.799338" lon="-3.261188">
        <ele>826.157</ele>
        <time>2019-04-21T11:20:35Z</time>
      </trkpt>
      <trkpt lat="40.799382" lon="-3.261126">
        <ele>826.161</ele>
        <time>2019-04-21T11:20:36Z</time>
      </trkpt>
      <trkpt lat="40.799412" lon="-3.261074">
        <ele>825.832</ele>
        <time>2019-04-21T11:20:37Z</time>
      </trkpt>
      <trkpt lat="40.799456" lon="-3.260991">
        <ele>825.588</ele>
        <time>2019-04-21T11:20:38Z</time>
      </trkpt>
      <trkpt lat="40.799481" lon="-3.260935">
        <ele>825.124</ele>
        <time>2019-04-21T11:20:39Z</time>
      </trkpt>
      <trkpt lat="40.799516" lon="-3.260873">
        <ele>824.826</ele>
        <time>2019-04-21T11:20:40Z</time>
      </trkpt>
      <trkpt lat="40.799545" lon="-3.260809">
        <ele>824.608</ele>
        <time>2019-04-21T11:20:41Z</time>
      </trkpt>
      <trkpt lat="40.799579" lon="-3.260751">
        <ele>824.681</ele>
        <time>2019-04-21T11:20:42Z</time>
      </trkpt>
      <trkpt lat="40.799604" lon="-3.260691">
        <ele>824.853</ele>
        <time>2019-04-21T11:20:43Z</time>
      </trkpt>
      <trkpt lat="40.799628" lon="-3.260628">
        <ele>825.053</ele>
        <time>2019-04-21T11:20:44Z</time>
      </trkpt>
      <trkpt lat="40.799672" lon="-3.260545">
        <ele>825.038</ele>
        <time>2019-04-21T11:20:46Z</time>
      </trkpt>
      <trkpt lat="40.799727" lon="-3.260467">
        <ele>824.620</ele>
        <time>2019-04-21T11:20:48Z</time>
      </trkpt>
      <trkpt lat="40.799753" lon="-3.260416">
        <ele>824.352</ele>
        <time>2019-04-21T11:20:50Z</time>
      </trkpt>
      <trkpt lat="40.799776" lon="-3.260345">
        <ele>824.216</ele>
        <time>2019-04-21T11:20:52Z</time>
      </trkpt>
      <trkpt lat="40.799744" lon="-3.260292">
        <ele>823.227</ele>
        <time>2019-04-21T11:21:03Z</time>
      </trkpt>
      <trkpt lat="40.799736" lon="-3.260352">
        <ele>823.541</ele>
        <time>2019-04-21T11:21:43Z</time>
      </trkpt>
      <trkpt lat="40.799679" lon="-3.260430">
        <ele>823.381</ele>
        <time>2019-04-21T11:21:45Z</time>
      </trkpt>
      <trkpt lat="40.799621" lon="-3.260493">
        <ele>823.209</ele>
        <time>2019-04-21T11:21:47Z</time>
      </trkpt>
      <trkpt lat="40.799564" lon="-3.260572">
        <ele>823.108</ele>
        <time>2019-04-21T11:21:49Z</time>
      </trkpt>
      <trkpt lat="40.799536" lon="-3.260633">
        <ele>823.187</ele>
        <time>2019-04-21T11:21:50Z</time>
      </trkpt>
      <trkpt lat="40.799504" lon="-3.260706">
        <ele>823.049</ele>
        <time>2019-04-21T11:21:51Z</time>
      </trkpt>
      <trkpt lat="40.799477" lon="-3.260767">
        <ele>822.739</ele>
        <time>2019-04-21T11:21:52Z</time>
      </trkpt>
      <trkpt lat="40.799444" lon="-3.260842">
        <ele>822.744</ele>
        <time>2019-04-21T11:21:53Z</time>
      </trkpt>
      <trkpt lat="40.799417" lon="-3.260897">
        <ele>822.656</ele>
        <time>2019-04-21T11:21:54Z</time>
      </trkpt>
      <trkpt lat="40.799389" lon="-3.260955">
        <ele>822.578</ele>
        <time>2019-04-21T11:21:55Z</time>
      </trkpt>
      <trkpt lat="40.799366" lon="-3.261020">
        <ele>822.512</ele>
        <time>2019-04-21T11:21:56Z</time>
      </trkpt>
      <trkpt lat="40.799340" lon="-3.261075">
        <ele>822.583</ele>
        <time>2019-04-21T11:21:57Z</time>
      </trkpt>
      <trkpt lat="40.799302" lon="-3.261208">
        <ele>822.476</ele>
        <time>2019-04-21T11:21:59Z</time>
      </trkpt>
      <trkpt lat="40.799276" lon="-3.261268">
        <ele>822.690</ele>
        <time>2019-04-21T11:22:00Z</time>
      </trkpt>
      <trkpt lat="40.799253" lon="-3.261319">
        <ele>822.819</ele>
        <time>2019-04-21T11:22:01Z</time>
      </trkpt>
      <trkpt lat="40.799201" lon="-3.261408">
        <ele>823.608</ele>
        <time>2019-04-21T11:22:03Z</time>
      </trkpt>
      <trkpt lat="40.799164" lon="-3.261494">
        <ele>824.050</ele>
        <time>2019-04-21T11:22:05Z</time>
      </trkpt>
      <trkpt lat="40.799136" lon="-3.261593">
        <ele>824.422</ele>
        <time>2019-04-21T11:22:07Z</time>
      </trkpt>
      <trkpt lat="40.799111" lon="-3.261649">
        <ele>824.452</ele>
        <time>2019-04-21T11:22:08Z</time>
      </trkpt>
      <trkpt lat="40.799088" lon="-3.261707">
        <ele>824.377</ele>
        <time>2019-04-21T11:22:09Z</time>
      </trkpt>
      <trkpt lat="40.799062" lon="-3.261767">
        <ele>824.139</ele>
        <time>2019-04-21T11:22:10Z</time>
      </trkpt>
      <trkpt lat="40.799041" lon="-3.261828">
        <ele>823.881</ele>
        <time>2019-04-21T11:22:11Z</time>
      </trkpt>
      <trkpt lat="40.799016" lon="-3.261890">
        <ele>823.895</ele>
        <time>2019-04-21T11:22:12Z</time>
      </trkpt>
      <trkpt lat="40.798996" lon="-3.261960">
        <ele>823.876</ele>
        <time>2019-04-21T11:22:13Z</time>
      </trkpt>
      <trkpt lat="40.798972" lon="-3.262028">
        <ele>824.155</ele>
        <time>2019-04-21T11:22:14Z</time>
      </trkpt>
      <trkpt lat="40.798957" lon="-3.262096">
        <ele>824.407</ele>
        <time>2019-04-21T11:22:15Z</time>
      </trkpt>
      <trkpt lat="40.798936" lon="-3.262161">
        <ele>824.717</ele>
        <time>2019-04-21T11:22:16Z</time>
      </trkpt>
      <trkpt lat="40.798916" lon="-3.262221">
        <ele>825.108</ele>
        <time>2019-04-21T11:22:17Z</time>
      </trkpt>
      <trkpt lat="40.798895" lon="-3.262282">
        <ele>825.598</ele>
        <time>2019-04-21T11:22:18Z</time>
      </trkpt>
      <trkpt lat="40.798882" lon="-3.262340">
        <ele>825.960</ele>
        <time>2019-04-21T11:22:19Z</time>
      </trkpt>
      <trkpt lat="40.798871" lon="-3.262410">
        <ele>826.330</ele>
        <time>2019-04-21T11:22:20Z</time>
      </trkpt>
      <trkpt lat="40.798860" lon="-3.262478">
        <ele>826.675</ele>
        <time>2019-04-21T11:22:21Z</time>
      </trkpt>
      <trkpt lat="40.798837" lon="-3.262534">
        <ele>826.747</ele>
        <time>2019-04-21T11:22:22Z</time>
      </trkpt>
      <trkpt lat="40.798806" lon="-3.262585">
        <ele>826.839</ele>
        <time>2019-04-21T11:22:23Z</time>
      </trkpt>
      <trkpt lat="40.798776" lon="-3.262630">
        <ele>827.033</ele>
        <time>2019-04-21T11:22:24Z</time>
      </trkpt>
      <trkpt lat="40.798747" lon="-3.262677">
        <ele>827.184</ele>
        <time>2019-04-21T11:22:25Z</time>
      </trkpt>
      <trkpt lat="40.798727" lon="-3.262734">
        <ele>827.389</ele>
        <time>2019-04-21T11:22:26Z</time>
      </trkpt>
      <trkpt lat="40.798708" lon="-3.262800">
        <ele>827.306</ele>
        <time>2019-04-21T11:22:27Z</time>
      </trkpt>
      <trkpt lat="40.798679" lon="-3.262859">
        <ele>827.826</ele>
        <time>2019-04-21T11:22:28Z</time>
      </trkpt>
      <trkpt lat="40.798643" lon="-3.262927">
        <ele>828.208</ele>
        <time>2019-04-21T11:22:29Z</time>
      </trkpt>
      <trkpt lat="40.798613" lon="-3.262990">
        <ele>828.461</ele>
        <time>2019-04-21T11:22:30Z</time>
      </trkpt>
      <trkpt lat="40.798583" lon="-3.263057">
        <ele>828.683</ele>
        <time>2019-04-21T11:22:31Z</time>
      </trkpt>
      <trkpt lat="40.798550" lon="-3.263129">
        <ele>828.763</ele>
        <time>2019-04-21T11:22:32Z</time>
      </trkpt>
      <trkpt lat="40.798515" lon="-3.263201">
        <ele>828.798</ele>
        <time>2019-04-21T11:22:33Z</time>
      </trkpt>
      <trkpt lat="40.798474" lon="-3.263263">
        <ele>828.710</ele>
        <time>2019-04-21T11:22:34Z</time>
      </trkpt>
      <trkpt lat="40.798438" lon="-3.263324">
        <ele>828.512</ele>
        <time>2019-04-21T11:22:35Z</time>
      </trkpt>
      <trkpt lat="40.798395" lon="-3.263381">
        <ele>828.596</ele>
        <time>2019-04-21T11:22:36Z</time>
      </trkpt>
      <trkpt lat="40.798348" lon="-3.263438">
        <ele>828.657</ele>
        <time>2019-04-21T11:22:37Z</time>
      </trkpt>
      <trkpt lat="40.798310" lon="-3.263495">
        <ele>828.845</ele>
        <time>2019-04-21T11:22:38Z</time>
      </trkpt>
      <trkpt lat="40.798274" lon="-3.263547">
        <ele>828.847</ele>
        <time>2019-04-21T11:22:39Z</time>
      </trkpt>
      <trkpt lat="40.798240" lon="-3.263598">
        <ele>829.211</ele>
        <time>2019-04-21T11:22:41Z</time>
      </trkpt>
      <trkpt lat="40.798166" lon="-3.263646">
        <ele>828.708</ele>
        <time>2019-04-21T11:22:57Z</time>
      </trkpt>
      <trkpt lat="40.798108" lon="-3.263698">
        <ele>828.657</ele>
        <time>2019-04-21T11:22:59Z</time>
      </trkpt>
      <trkpt lat="40.798041" lon="-3.263723">
        <ele>828.479</ele>
        <time>2019-04-21T11:23:01Z</time>
      </trkpt>
      <trkpt lat="40.797976" lon="-3.263707">
        <ele>828.339</ele>
        <time>2019-04-21T11:23:03Z</time>
      </trkpt>
      <trkpt lat="40.797905" lon="-3.263687">
        <ele>828.314</ele>
        <time>2019-04-21T11:23:05Z</time>
      </trkpt>
      <trkpt lat="40.797835" lon="-3.263651">
        <ele>828.456</ele>
        <time>2019-04-21T11:23:07Z</time>
      </trkpt>
      <trkpt lat="40.797773" lon="-3.263618">
        <ele>828.458</ele>
        <time>2019-04-21T11:23:09Z</time>
      </trkpt>
      <trkpt lat="40.797714" lon="-3.263628">
        <ele>828.422</ele>
        <time>2019-04-21T11:23:11Z</time>
      </trkpt>
      <trkpt lat="40.797686" lon="-3.263702">
        <ele>828.583</ele>
        <time>2019-04-21T11:23:13Z</time>
      </trkpt>
      <trkpt lat="40.797676" lon="-3.263786">
        <ele>828.895</ele>
        <time>2019-04-21T11:23:14Z</time>
      </trkpt>
      <trkpt lat="40.797673" lon="-3.263867">
        <ele>828.949</ele>
        <time>2019-04-21T11:23:15Z</time>
      </trkpt>
      <trkpt lat="40.797665" lon="-3.263926">
        <ele>829.023</ele>
        <time>2019-04-21T11:23:16Z</time>
      </trkpt>
      <trkpt lat="40.797658" lon="-3.263998">
        <ele>829.508</ele>
        <time>2019-04-21T11:23:18Z</time>
      </trkpt>
      <trkpt lat="40.797656" lon="-3.264065">
        <ele>830.552</ele>
        <time>2019-04-21T11:23:21Z</time>
      </trkpt>
      <trkpt lat="40.797643" lon="-3.264131">
        <ele>831.234</ele>
        <time>2019-04-21T11:23:23Z</time>
      </trkpt>
      <trkpt lat="40.797603" lon="-3.264206">
        <ele>832.064</ele>
        <time>2019-04-21T11:23:25Z</time>
      </trkpt>
      <trkpt lat="40.797567" lon="-3.264281">
        <ele>833.099</ele>
        <time>2019-04-21T11:23:27Z</time>
      </trkpt>
      <trkpt lat="40.797544" lon="-3.264366">
        <ele>833.861</ele>
        <time>2019-04-21T11:23:29Z</time>
      </trkpt>
      <trkpt lat="40.797529" lon="-3.264425">
        <ele>834.173</ele>
        <time>2019-04-21T11:23:32Z</time>
      </trkpt>
      <trkpt lat="40.797497" lon="-3.264475">
        <ele>832.647</ele>
        <time>2019-04-21T11:24:19Z</time>
      </trkpt>
      <trkpt lat="40.797416" lon="-3.264549">
        <ele>831.848</ele>
        <time>2019-04-21T11:24:21Z</time>
      </trkpt>
      <trkpt lat="40.797370" lon="-3.264595">
        <ele>831.456</ele>
        <time>2019-04-21T11:24:22Z</time>
      </trkpt>
      <trkpt lat="40.797327" lon="-3.264644">
        <ele>830.959</ele>
        <time>2019-04-21T11:24:23Z</time>
      </trkpt>
      <trkpt lat="40.797282" lon="-3.264698">
        <ele>830.314</ele>
        <time>2019-04-21T11:24:24Z</time>
      </trkpt>
      <trkpt lat="40.797240" lon="-3.264762">
        <ele>829.808</ele>
        <time>2019-04-21T11:24:25Z</time>
      </trkpt>
      <trkpt lat="40.797206" lon="-3.264830">
        <ele>829.428</ele>
        <time>2019-04-21T11:24:26Z</time>
      </trkpt>
      <trkpt lat="40.797156" lon="-3.264917">
        <ele>829.480</ele>
        <time>2019-04-21T11:24:28Z</time>
      </trkpt>
      <trkpt lat="40.797131" lon="-3.265023">
        <ele>830.670</ele>
        <time>2019-04-21T11:24:30Z</time>
      </trkpt>
      <trkpt lat="40.797127" lon="-3.265150">
        <ele>831.335</ele>
        <time>2019-04-21T11:24:32Z</time>
      </trkpt>
      <trkpt lat="40.797128" lon="-3.265232">
        <ele>831.667</ele>
        <time>2019-04-21T11:24:33Z</time>
      </trkpt>
      <trkpt lat="40.797112" lon="-3.265289">
        <ele>831.849</ele>
        <time>2019-04-21T11:24:34Z</time>
      </trkpt>
      <trkpt lat="40.797106" lon="-3.265351">
        <ele>832.023</ele>
        <time>2019-04-21T11:24:35Z</time>
      </trkpt>
      <trkpt lat="40.797056" lon="-3.265449">
        <ele>832.254</ele>
        <time>2019-04-21T11:24:37Z</time>
      </trkpt>
      <trkpt lat="40.797018" lon="-3.265513">
        <ele>832.357</ele>
        <time>2019-04-21T11:24:38Z</time>
      </trkpt>
      <trkpt lat="40.796973" lon="-3.265552">
        <ele>832.500</ele>
        <time>2019-04-21T11:24:39Z</time>
      </trkpt>
      <trkpt lat="40.796900" lon="-3.265624">
        <ele>832.520</ele>
        <time>2019-04-21T11:24:41Z</time>
      </trkpt>
      <trkpt lat="40.796858" lon="-3.265661">
        <ele>832.208</ele>
        <time>2019-04-21T11:24:42Z</time>
      </trkpt>
      <trkpt lat="40.796808" lon="-3.265690">
        <ele>832.048</ele>
        <time>2019-04-21T11:24:43Z</time>
      </trkpt>
      <trkpt lat="40.796765" lon="-3.265716">
        <ele>831.510</ele>
        <time>2019-04-21T11:24:44Z</time>
      </trkpt>
      <trkpt lat="40.796706" lon="-3.265731">
        <ele>830.370</ele>
        <time>2019-04-21T11:24:45Z</time>
      </trkpt>
      <trkpt lat="40.796645" lon="-3.265767">
        <ele>829.825</ele>
        <time>2019-04-21T11:24:46Z</time>
      </trkpt>
      <trkpt lat="40.796588" lon="-3.265789">
        <ele>829.357</ele>
        <time>2019-04-21T11:24:47Z</time>
      </trkpt>
      <trkpt lat="40.796547" lon="-3.265814">
        <ele>828.999</ele>
        <time>2019-04-21T11:24:48Z</time>
      </trkpt>
      <trkpt lat="40.796502" lon="-3.265868">
        <ele>827.633</ele>
        <time>2019-04-21T11:25:15Z</time>
      </trkpt>
      <trkpt lat="40.796458" lon="-3.265901">
        <ele>827.664</ele>
        <time>2019-04-21T11:25:16Z</time>
      </trkpt>
      <trkpt lat="40.796411" lon="-3.265920">
        <ele>827.993</ele>
        <time>2019-04-21T11:25:17Z</time>
      </trkpt>
      <trkpt lat="40.796383" lon="-3.265972">
        <ele>828.465</ele>
        <time>2019-04-21T11:25:18Z</time>
      </trkpt>
      <trkpt lat="40.796353" lon="-3.266086">
        <ele>829.321</ele>
        <time>2019-04-21T11:25:20Z</time>
      </trkpt>
      <trkpt lat="40.796331" lon="-3.266144">
        <ele>829.608</ele>
        <time>2019-04-21T11:25:21Z</time>
      </trkpt>
      <trkpt lat="40.796282" lon="-3.266196">
        <ele>829.792</ele>
        <time>2019-04-21T11:25:22Z</time>
      </trkpt>
      <trkpt lat="40.796242" lon="-3.266245">
        <ele>829.764</ele>
        <time>2019-04-21T11:25:23Z</time>
      </trkpt>
      <trkpt lat="40.796195" lon="-3.266260">
        <ele>829.844</ele>
        <time>2019-04-21T11:25:24Z</time>
      </trkpt>
      <trkpt lat="40.796140" lon="-3.266269">
        <ele>830.099</ele>
        <time>2019-04-21T11:25:25Z</time>
      </trkpt>
      <trkpt lat="40.796087" lon="-3.266272">
        <ele>830.231</ele>
        <time>2019-04-21T11:25:26Z</time>
      </trkpt>
      <trkpt lat="40.796025" lon="-3.266274">
        <ele>830.473</ele>
        <time>2019-04-21T11:25:27Z</time>
      </trkpt>
      <trkpt lat="40.795960" lon="-3.266272">
        <ele>830.447</ele>
        <time>2019-04-21T11:25:28Z</time>
      </trkpt>
      <trkpt lat="40.795903" lon="-3.266270">
        <ele>830.628</ele>
        <time>2019-04-21T11:25:29Z</time>
      </trkpt>
      <trkpt lat="40.795856" lon="-3.266267">
        <ele>830.672</ele>
        <time>2019-04-21T11:25:30Z</time>
      </trkpt>
      <trkpt lat="40.795766" lon="-3.266303">
        <ele>830.513</ele>
        <time>2019-04-21T11:25:32Z</time>
      </trkpt>
      <trkpt lat="40.795718" lon="-3.266344">
        <ele>829.814</ele>
        <time>2019-04-21T11:25:33Z</time>
      </trkpt>
      <trkpt lat="40.795662" lon="-3.266424">
        <ele>828.908</ele>
        <time>2019-04-21T11:25:34Z</time>
      </trkpt>
      <trkpt lat="40.795621" lon="-3.266490">
        <ele>828.290</ele>
        <time>2019-04-21T11:25:35Z</time>
      </trkpt>
      <trkpt lat="40.795588" lon="-3.266546">
        <ele>827.712</ele>
        <time>2019-04-21T11:25:36Z</time>
      </trkpt>
      <trkpt lat="40.795541" lon="-3.266618">
        <ele>828.322</ele>
        <time>2019-04-21T11:25:38Z</time>
      </trkpt>
      <trkpt lat="40.795490" lon="-3.266690">
        <ele>830.237</ele>
        <time>2019-04-21T11:25:40Z</time>
      </trkpt>
      <trkpt lat="40.795436" lon="-3.266750">
        <ele>831.089</ele>
        <time>2019-04-21T11:25:42Z</time>
      </trkpt>
      <trkpt lat="40.795388" lon="-3.266799">
        <ele>831.021</ele>
        <time>2019-04-21T11:25:43Z</time>
      </trkpt>
      <trkpt lat="40.795347" lon="-3.266829">
        <ele>830.725</ele>
        <time>2019-04-21T11:25:44Z</time>
      </trkpt>
      <trkpt lat="40.795306" lon="-3.266860">
        <ele>830.366</ele>
        <time>2019-04-21T11:25:45Z</time>
      </trkpt>
      <trkpt lat="40.795255" lon="-3.266903">
        <ele>829.361</ele>
        <time>2019-04-21T11:25:46Z</time>
      </trkpt>
      <trkpt lat="40.795206" lon="-3.266946">
        <ele>829.321</ele>
        <time>2019-04-21T11:25:47Z</time>
      </trkpt>
      <trkpt lat="40.795151" lon="-3.266992">
        <ele>829.413</ele>
        <time>2019-04-21T11:25:48Z</time>
      </trkpt>
      <trkpt lat="40.795105" lon="-3.267044">
        <ele>829.908</ele>
        <time>2019-04-21T11:25:49Z</time>
      </trkpt>
      <trkpt lat="40.795064" lon="-3.267072">
        <ele>830.789</ele>
        <time>2019-04-21T11:25:50Z</time>
      </trkpt>
      <trkpt lat="40.795026" lon="-3.267122">
        <ele>831.771</ele>
        <time>2019-04-21T11:25:51Z</time>
      </trkpt>
      <trkpt lat="40.794986" lon="-3.267207">
        <ele>832.391</ele>
        <time>2019-04-21T11:25:52Z</time>
      </trkpt>
      <trkpt lat="40.794944" lon="-3.267294">
        <ele>832.886</ele>
        <time>2019-04-21T11:25:53Z</time>
      </trkpt>
      <trkpt lat="40.794899" lon="-3.267369">
        <ele>833.068</ele>
        <time>2019-04-21T11:25:54Z</time>
      </trkpt>
      <trkpt lat="40.794846" lon="-3.267433">
        <ele>833.140</ele>
        <time>2019-04-21T11:25:55Z</time>
      </trkpt>
      <trkpt lat="40.794790" lon="-3.267494">
        <ele>833.444</ele>
        <time>2019-04-21T11:25:56Z</time>
      </trkpt>
      <trkpt lat="40.794730" lon="-3.267542">
        <ele>833.995</ele>
        <time>2019-04-21T11:25:57Z</time>
      </trkpt>
      <trkpt lat="40.794671" lon="-3.267579">
        <ele>834.124</ele>
        <time>2019-04-21T11:25:58Z</time>
      </trkpt>
      <trkpt lat="40.794625" lon="-3.267634">
        <ele>834.304</ele>
        <time>2019-04-21T11:25:59Z</time>
      </trkpt>
      <trkpt lat="40.794586" lon="-3.267672">
        <ele>834.614</ele>
        <time>2019-04-21T11:26:00Z</time>
      </trkpt>
      <trkpt lat="40.794537" lon="-3.267727">
        <ele>834.408</ele>
        <time>2019-04-21T11:26:01Z</time>
      </trkpt>
      <trkpt lat="40.794490" lon="-3.267755">
        <ele>834.325</ele>
        <time>2019-04-21T11:26:02Z</time>
      </trkpt>
      <trkpt lat="40.794432" lon="-3.267779">
        <ele>834.357</ele>
        <time>2019-04-21T11:26:03Z</time>
      </trkpt>
      <trkpt lat="40.794374" lon="-3.267800">
        <ele>834.387</ele>
        <time>2019-04-21T11:26:04Z</time>
      </trkpt>
      <trkpt lat="40.794317" lon="-3.267809">
        <ele>834.492</ele>
        <time>2019-04-21T11:26:05Z</time>
      </trkpt>
      <trkpt lat="40.794257" lon="-3.267810">
        <ele>834.594</ele>
        <time>2019-04-21T11:26:06Z</time>
      </trkpt>
      <trkpt lat="40.794176" lon="-3.267824">
        <ele>835.056</ele>
        <time>2019-04-21T11:26:08Z</time>
      </trkpt>
      <trkpt lat="40.794114" lon="-3.267811">
        <ele>835.820</ele>
        <time>2019-04-21T11:26:10Z</time>
      </trkpt>
      <trkpt lat="40.794119" lon="-3.267879">
        <ele>837.021</ele>
        <time>2019-04-21T11:26:13Z</time>
      </trkpt>
      <trkpt lat="40.794129" lon="-3.267942">
        <ele>837.214</ele>
        <time>2019-04-21T11:26:14Z</time>
      </trkpt>
      <trkpt lat="40.794142" lon="-3.268033">
        <ele>837.354</ele>
        <time>2019-04-21T11:26:15Z</time>
      </trkpt>
      <trkpt lat="40.794153" lon="-3.268134">
        <ele>837.609</ele>
        <time>2019-04-21T11:26:16Z</time>
      </trkpt>
      <trkpt lat="40.794165" lon="-3.268224">
        <ele>837.808</ele>
        <time>2019-04-21T11:26:17Z</time>
      </trkpt>
      <trkpt lat="40.794182" lon="-3.268318">
        <ele>837.884</ele>
        <time>2019-04-21T11:26:18Z</time>
      </trkpt>
      <trkpt lat="40.794208" lon="-3.268444">
        <ele>837.816</ele>
        <time>2019-04-21T11:26:19Z</time>
      </trkpt>
      <trkpt lat="40.794236" lon="-3.268549">
        <ele>837.866</ele>
        <time>2019-04-21T11:26:20Z</time>
      </trkpt>
      <trkpt lat="40.794256" lon="-3.268644">
        <ele>837.781</ele>
        <time>2019-04-21T11:26:21Z</time>
      </trkpt>
      <trkpt lat="40.794272" lon="-3.268749">
        <ele>837.623</ele>
        <time>2019-04-21T11:26:22Z</time>
      </trkpt>
      <trkpt lat="40.794287" lon="-3.268859">
        <ele>837.595</ele>
        <time>2019-04-21T11:26:23Z</time>
      </trkpt>
      <trkpt lat="40.794305" lon="-3.268960">
        <ele>837.469</ele>
        <time>2019-04-21T11:26:24Z</time>
      </trkpt>
      <trkpt lat="40.794324" lon="-3.269050">
        <ele>837.450</ele>
        <time>2019-04-21T11:26:25Z</time>
      </trkpt>
      <trkpt lat="40.794341" lon="-3.269153">
        <ele>837.249</ele>
        <time>2019-04-21T11:26:26Z</time>
      </trkpt>
      <trkpt lat="40.794352" lon="-3.269240">
        <ele>837.102</ele>
        <time>2019-04-21T11:26:27Z</time>
      </trkpt>
      <trkpt lat="40.794375" lon="-3.269341">
        <ele>837.122</ele>
        <time>2019-04-21T11:26:28Z</time>
      </trkpt>
      <trkpt lat="40.794396" lon="-3.269456">
        <ele>837.008</ele>
        <time>2019-04-21T11:26:29Z</time>
      </trkpt>
      <trkpt lat="40.794418" lon="-3.269557">
        <ele>837.017</ele>
        <time>2019-04-21T11:26:30Z</time>
      </trkpt>
      <trkpt lat="40.794439" lon="-3.269661">
        <ele>837.059</ele>
        <time>2019-04-21T11:26:31Z</time>
      </trkpt>
      <trkpt lat="40.794460" lon="-3.269778">
        <ele>837.049</ele>
        <time>2019-04-21T11:26:32Z</time>
      </trkpt>
      <trkpt lat="40.794481" lon="-3.269879">
        <ele>837.094</ele>
        <time>2019-04-21T11:26:33Z</time>
      </trkpt>
      <trkpt lat="40.794500" lon="-3.269974">
        <ele>837.076</ele>
        <time>2019-04-21T11:26:34Z</time>
      </trkpt>
      <trkpt lat="40.794518" lon="-3.270082">
        <ele>837.058</ele>
        <time>2019-04-21T11:26:35Z</time>
      </trkpt>
      <trkpt lat="40.794534" lon="-3.270190">
        <ele>837.092</ele>
        <time>2019-04-21T11:26:36Z</time>
      </trkpt>
      <trkpt lat="40.794557" lon="-3.270297">
        <ele>837.033</ele>
        <time>2019-04-21T11:26:37Z</time>
      </trkpt>
      <trkpt lat="40.794574" lon="-3.270413">
        <ele>837.089</ele>
        <time>2019-04-21T11:26:38Z</time>
      </trkpt>
      <trkpt lat="40.794585" lon="-3.270528">
        <ele>837.006</ele>
        <time>2019-04-21T11:26:39Z</time>
      </trkpt>
      <trkpt lat="40.794598" lon="-3.270639">
        <ele>837.026</ele>
        <time>2019-04-21T11:26:40Z</time>
      </trkpt>
      <trkpt lat="40.794613" lon="-3.270749">
        <ele>837.008</ele>
        <time>2019-04-21T11:26:41Z</time>
      </trkpt>
      <trkpt lat="40.794625" lon="-3.270857">
        <ele>837.181</ele>
        <time>2019-04-21T11:26:42Z</time>
      </trkpt>
      <trkpt lat="40.794636" lon="-3.270972">
        <ele>837.193</ele>
        <time>2019-04-21T11:26:43Z</time>
      </trkpt>
      <trkpt lat="40.794640" lon="-3.271093">
        <ele>837.433</ele>
        <time>2019-04-21T11:26:44Z</time>
      </trkpt>
      <trkpt lat="40.794655" lon="-3.271212">
        <ele>837.628</ele>
        <time>2019-04-21T11:26:45Z</time>
      </trkpt>
      <trkpt lat="40.794661" lon="-3.271332">
        <ele>838.240</ele>
        <time>2019-04-21T11:26:46Z</time>
      </trkpt>
      <trkpt lat="40.794670" lon="-3.271454">
        <ele>838.592</ele>
        <time>2019-04-21T11:26:47Z</time>
      </trkpt>
      <trkpt lat="40.794682" lon="-3.271577">
        <ele>838.666</ele>
        <time>2019-04-21T11:26:48Z</time>
      </trkpt>
      <trkpt lat="40.794695" lon="-3.271703">
        <ele>839.097</ele>
        <time>2019-04-21T11:26:49Z</time>
      </trkpt>
      <trkpt lat="40.794704" lon="-3.271832">
        <ele>839.454</ele>
        <time>2019-04-21T11:26:50Z</time>
      </trkpt>
      <trkpt lat="40.794719" lon="-3.271965">
        <ele>839.656</ele>
        <time>2019-04-21T11:26:51Z</time>
      </trkpt>
      <trkpt lat="40.794731" lon="-3.272093">
        <ele>839.811</ele>
        <time>2019-04-21T11:26:52Z</time>
      </trkpt>
      <trkpt lat="40.794747" lon="-3.272224">
        <ele>839.808</ele>
        <time>2019-04-21T11:26:53Z</time>
      </trkpt>
      <trkpt lat="40.794763" lon="-3.272353">
        <ele>840.348</ele>
        <time>2019-04-21T11:26:54Z</time>
      </trkpt>
      <trkpt lat="40.794781" lon="-3.272476">
        <ele>840.340</ele>
        <time>2019-04-21T11:26:55Z</time>
      </trkpt>
      <trkpt lat="40.794797" lon="-3.272605">
        <ele>840.580</ele>
        <time>2019-04-21T11:26:56Z</time>
      </trkpt>
      <trkpt lat="40.794813" lon="-3.272730">
        <ele>841.085</ele>
        <time>2019-04-21T11:26:57Z</time>
      </trkpt>
      <trkpt lat="40.794829" lon="-3.272855">
        <ele>841.567</ele>
        <time>2019-04-21T11:26:58Z</time>
      </trkpt>
      <trkpt lat="40.794848" lon="-3.272988">
        <ele>841.589</ele>
        <time>2019-04-21T11:26:59Z</time>
      </trkpt>
      <trkpt lat="40.794862" lon="-3.273125">
        <ele>841.993</ele>
        <time>2019-04-21T11:27:00Z</time>
      </trkpt>
      <trkpt lat="40.794865" lon="-3.273262">
        <ele>842.214</ele>
        <time>2019-04-21T11:27:01Z</time>
      </trkpt>
      <trkpt lat="40.794866" lon="-3.273396">
        <ele>842.526</ele>
        <time>2019-04-21T11:27:02Z</time>
      </trkpt>
      <trkpt lat="40.794873" lon="-3.273525">
        <ele>842.847</ele>
        <time>2019-04-21T11:27:03Z</time>
      </trkpt>
      <trkpt lat="40.794867" lon="-3.273652">
        <ele>843.111</ele>
        <time>2019-04-21T11:27:04Z</time>
      </trkpt>
      <trkpt lat="40.794861" lon="-3.273776">
        <ele>843.308</ele>
        <time>2019-04-21T11:27:05Z</time>
      </trkpt>
      <trkpt lat="40.794853" lon="-3.273899">
        <ele>843.525</ele>
        <time>2019-04-21T11:27:06Z</time>
      </trkpt>
      <trkpt lat="40.794836" lon="-3.274019">
        <ele>843.757</ele>
        <time>2019-04-21T11:27:07Z</time>
      </trkpt>
      <trkpt lat="40.794814" lon="-3.274138">
        <ele>843.997</ele>
        <time>2019-04-21T11:27:08Z</time>
      </trkpt>
      <trkpt lat="40.794786" lon="-3.274252">
        <ele>844.182</ele>
        <time>2019-04-21T11:27:09Z</time>
      </trkpt>
      <trkpt lat="40.794759" lon="-3.274364">
        <ele>844.324</ele>
        <time>2019-04-21T11:27:10Z</time>
      </trkpt>
      <trkpt lat="40.794724" lon="-3.274473">
        <ele>844.456</ele>
        <time>2019-04-21T11:27:11Z</time>
      </trkpt>
      <trkpt lat="40.794677" lon="-3.274580">
        <ele>844.670</ele>
        <time>2019-04-21T11:27:12Z</time>
      </trkpt>
      <trkpt lat="40.794634" lon="-3.274680">
        <ele>844.921</ele>
        <time>2019-04-21T11:27:13Z</time>
      </trkpt>
      <trkpt lat="40.794589" lon="-3.274776">
        <ele>845.249</ele>
        <time>2019-04-21T11:27:14Z</time>
      </trkpt>
      <trkpt lat="40.794542" lon="-3.274870">
        <ele>845.602</ele>
        <time>2019-04-21T11:27:15Z</time>
      </trkpt>
      <trkpt lat="40.794492" lon="-3.274969">
        <ele>846.022</ele>
        <time>2019-04-21T11:27:16Z</time>
      </trkpt>
      <trkpt lat="40.794449" lon="-3.275067">
        <ele>846.608</ele>
        <time>2019-04-21T11:27:17Z</time>
      </trkpt>
      <trkpt lat="40.794402" lon="-3.275173">
        <ele>847.177</ele>
        <time>2019-04-21T11:27:18Z</time>
      </trkpt>
      <trkpt lat="40.794349" lon="-3.275286">
        <ele>847.559</ele>
        <time>2019-04-21T11:27:19Z</time>
      </trkpt>
      <trkpt lat="40.794298" lon="-3.275403">
        <ele>848.029</ele>
        <time>2019-04-21T11:27:20Z</time>
      </trkpt>
      <trkpt lat="40.794250" lon="-3.275518">
        <ele>848.614</ele>
        <time>2019-04-21T11:27:21Z</time>
      </trkpt>
      <trkpt lat="40.794193" lon="-3.275630">
        <ele>848.876</ele>
        <time>2019-04-21T11:27:22Z</time>
      </trkpt>
      <trkpt lat="40.794150" lon="-3.275737">
        <ele>849.238</ele>
        <time>2019-04-21T11:27:23Z</time>
      </trkpt>
      <trkpt lat="40.794113" lon="-3.275870">
        <ele>849.752</ele>
        <time>2019-04-21T11:27:24Z</time>
      </trkpt>
      <trkpt lat="40.794104" lon="-3.276012">
        <ele>850.273</ele>
        <time>2019-04-21T11:27:25Z</time>
      </trkpt>
      <trkpt lat="40.794101" lon="-3.276137">
        <ele>850.879</ele>
        <time>2019-04-21T11:27:26Z</time>
      </trkpt>
      <trkpt lat="40.794101" lon="-3.276262">
        <ele>851.505</ele>
        <time>2019-04-21T11:27:27Z</time>
      </trkpt>
      <trkpt lat="40.794102" lon="-3.276381">
        <ele>852.225</ele>
        <time>2019-04-21T11:27:28Z</time>
      </trkpt>
      <trkpt lat="40.794097" lon="-3.276496">
        <ele>852.808</ele>
        <time>2019-04-21T11:27:29Z</time>
      </trkpt>
      <trkpt lat="40.794098" lon="-3.276606">
        <ele>853.420</ele>
        <time>2019-04-21T11:27:30Z</time>
      </trkpt>
      <trkpt lat="40.794112" lon="-3.276713">
        <ele>854.212</ele>
        <time>2019-04-21T11:27:31Z</time>
      </trkpt>
      <trkpt lat="40.794142" lon="-3.276801">
        <ele>855.592</ele>
        <time>2019-04-21T11:27:32Z</time>
      </trkpt>
      <trkpt lat="40.794177" lon="-3.276879">
        <ele>856.127</ele>
        <time>2019-04-21T11:27:33Z</time>
      </trkpt>
      <trkpt lat="40.794223" lon="-3.276956">
        <ele>856.899</ele>
        <time>2019-04-21T11:27:34Z</time>
      </trkpt>
      <trkpt lat="40.794275" lon="-3.277027">
        <ele>857.481</ele>
        <time>2019-04-21T11:27:35Z</time>
      </trkpt>
      <trkpt lat="40.794333" lon="-3.277096">
        <ele>858.165</ele>
        <time>2019-04-21T11:27:36Z</time>
      </trkpt>
      <trkpt lat="40.794404" lon="-3.277137">
        <ele>858.656</ele>
        <time>2019-04-21T11:27:37Z</time>
      </trkpt>
      <trkpt lat="40.794496" lon="-3.277163">
        <ele>859.227</ele>
        <time>2019-04-21T11:27:38Z</time>
      </trkpt>
      <trkpt lat="40.794585" lon="-3.277191">
        <ele>859.668</ele>
        <time>2019-04-21T11:27:39Z</time>
      </trkpt>
      <trkpt lat="40.794680" lon="-3.277226">
        <ele>860.114</ele>
        <time>2019-04-21T11:27:40Z</time>
      </trkpt>
      <trkpt lat="40.794768" lon="-3.277266">
        <ele>860.508</ele>
        <time>2019-04-21T11:27:41Z</time>
      </trkpt>
      <trkpt lat="40.794853" lon="-3.277298">
        <ele>861.025</ele>
        <time>2019-04-21T11:27:42Z</time>
      </trkpt>
      <trkpt lat="40.794931" lon="-3.277341">
        <ele>861.557</ele>
        <time>2019-04-21T11:27:43Z</time>
      </trkpt>
      <trkpt lat="40.795001" lon="-3.277378">
        <ele>861.997</ele>
        <time>2019-04-21T11:27:44Z</time>
      </trkpt>
      <trkpt lat="40.795070" lon="-3.277409">
        <ele>862.492</ele>
        <time>2019-04-21T11:27:45Z</time>
      </trkpt>
      <trkpt lat="40.795150" lon="-3.277446">
        <ele>863.194</ele>
        <time>2019-04-21T11:27:46Z</time>
      </trkpt>
      <trkpt lat="40.795225" lon="-3.277481">
        <ele>864.086</ele>
        <time>2019-04-21T11:27:47Z</time>
      </trkpt>
      <trkpt lat="40.795295" lon="-3.277503">
        <ele>865.470</ele>
        <time>2019-04-21T11:27:48Z</time>
      </trkpt>
      <trkpt lat="40.795360" lon="-3.277536">
        <ele>866.261</ele>
        <time>2019-04-21T11:27:49Z</time>
      </trkpt>
      <trkpt lat="40.795418" lon="-3.277578">
        <ele>866.933</ele>
        <time>2019-04-21T11:27:50Z</time>
      </trkpt>
      <trkpt lat="40.795476" lon="-3.277618">
        <ele>867.623</ele>
        <time>2019-04-21T11:27:51Z</time>
      </trkpt>
      <trkpt lat="40.795528" lon="-3.277654">
        <ele>867.915</ele>
        <time>2019-04-21T11:27:52Z</time>
      </trkpt>
      <trkpt lat="40.795604" lon="-3.277715">
        <ele>869.208</ele>
        <time>2019-04-21T11:27:54Z</time>
      </trkpt>
      <trkpt lat="40.795642" lon="-3.277752">
        <ele>869.346</ele>
        <time>2019-04-21T11:27:55Z</time>
      </trkpt>
      <trkpt lat="40.795681" lon="-3.277792">
        <ele>869.838</ele>
        <time>2019-04-21T11:27:56Z</time>
      </trkpt>
      <trkpt lat="40.795740" lon="-3.277842">
        <ele>870.758</ele>
        <time>2019-04-21T11:27:57Z</time>
      </trkpt>
      <trkpt lat="40.795795" lon="-3.277884">
        <ele>871.093</ele>
        <time>2019-04-21T11:27:58Z</time>
      </trkpt>
      <trkpt lat="40.795844" lon="-3.277933">
        <ele>871.045</ele>
        <time>2019-04-21T11:27:59Z</time>
      </trkpt>
      <trkpt lat="40.795891" lon="-3.277990">
        <ele>871.867</ele>
        <time>2019-04-21T11:28:00Z</time>
      </trkpt>
      <trkpt lat="40.795935" lon="-3.278057">
        <ele>872.311</ele>
        <time>2019-04-21T11:28:01Z</time>
      </trkpt>
      <trkpt lat="40.795970" lon="-3.278106">
        <ele>872.742</ele>
        <time>2019-04-21T11:28:02Z</time>
      </trkpt>
      <trkpt lat="40.795997" lon="-3.278159">
        <ele>873.862</ele>
        <time>2019-04-21T11:28:03Z</time>
      </trkpt>
      <trkpt lat="40.796021" lon="-3.278245">
        <ele>875.083</ele>
        <time>2019-04-21T11:28:05Z</time>
      </trkpt>
      <trkpt lat="40.796023" lon="-3.278329">
        <ele>876.511</ele>
        <time>2019-04-21T11:28:07Z</time>
      </trkpt>
      <trkpt lat="40.796050" lon="-3.278396">
        <ele>877.608</ele>
        <time>2019-04-21T11:28:10Z</time>
      </trkpt>
      <trkpt lat="40.796078" lon="-3.278443">
        <ele>878.359</ele>
        <time>2019-04-21T11:28:11Z</time>
      </trkpt>
      <trkpt lat="40.796151" lon="-3.278529">
        <ele>879.521</ele>
        <time>2019-04-21T11:28:13Z</time>
      </trkpt>
      <trkpt lat="40.796186" lon="-3.278577">
        <ele>880.031</ele>
        <time>2019-04-21T11:28:14Z</time>
      </trkpt>
      <trkpt lat="40.796220" lon="-3.278624">
        <ele>880.756</ele>
        <time>2019-04-21T11:28:15Z</time>
      </trkpt>
      <trkpt lat="40.796258" lon="-3.278674">
        <ele>881.228</ele>
        <time>2019-04-21T11:28:16Z</time>
      </trkpt>
      <trkpt lat="40.796289" lon="-3.278723">
        <ele>882.230</ele>
        <time>2019-04-21T11:28:17Z</time>
      </trkpt>
      <trkpt lat="40.796347" lon="-3.278817">
        <ele>883.534</ele>
        <time>2019-04-21T11:28:19Z</time>
      </trkpt>
      <trkpt lat="40.796376" lon="-3.278876">
        <ele>883.595</ele>
        <time>2019-04-21T11:28:20Z</time>
      </trkpt>
      <trkpt lat="40.796430" lon="-3.278963">
        <ele>884.053</ele>
        <time>2019-04-21T11:28:22Z</time>
      </trkpt>
      <trkpt lat="40.796462" lon="-3.279006">
        <ele>884.204</ele>
        <time>2019-04-21T11:28:23Z</time>
      </trkpt>
      <trkpt lat="40.796516" lon="-3.279083">
        <ele>884.814</ele>
        <time>2019-04-21T11:28:25Z</time>
      </trkpt>
      <trkpt lat="40.796552" lon="-3.279130">
        <ele>885.508</ele>
        <time>2019-04-21T11:28:27Z</time>
      </trkpt>
      <trkpt lat="40.796600" lon="-3.279199">
        <ele>886.218</ele>
        <time>2019-04-21T11:28:29Z</time>
      </trkpt>
      <trkpt lat="40.796652" lon="-3.279290">
        <ele>887.050</ele>
        <time>2019-04-21T11:28:31Z</time>
      </trkpt>
      <trkpt lat="40.796675" lon="-3.279344">
        <ele>887.420</ele>
        <time>2019-04-21T11:28:32Z</time>
      </trkpt>
      <trkpt lat="40.796705" lon="-3.279392">
        <ele>887.765</ele>
        <time>2019-04-21T11:28:33Z</time>
      </trkpt>
      <trkpt lat="40.796737" lon="-3.279451">
        <ele>888.927</ele>
        <time>2019-04-21T11:28:35Z</time>
      </trkpt>
      <trkpt lat="40.796752" lon="-3.279545">
        <ele>889.759</ele>
        <time>2019-04-21T11:28:37Z</time>
      </trkpt>
      <trkpt lat="40.796767" lon="-3.279668">
        <ele>890.783</ele>
        <time>2019-04-21T11:28:39Z</time>
      </trkpt>
      <trkpt lat="40.796770" lon="-3.279734">
        <ele>891.464</ele>
        <time>2019-04-21T11:28:40Z</time>
      </trkpt>
      <trkpt lat="40.796781" lon="-3.279843">
        <ele>893.056</ele>
        <time>2019-04-21T11:28:42Z</time>
      </trkpt>
      <trkpt lat="40.796793" lon="-3.279952">
        <ele>893.759</ele>
        <time>2019-04-21T11:28:44Z</time>
      </trkpt>
      <trkpt lat="40.796810" lon="-3.280045">
        <ele>893.814</ele>
        <time>2019-04-21T11:28:46Z</time>
      </trkpt>
      <trkpt lat="40.796820" lon="-3.280112">
        <ele>894.108</ele>
        <time>2019-04-21T11:28:48Z</time>
      </trkpt>
      <trkpt lat="40.796861" lon="-3.280203">
        <ele>895.568</ele>
        <time>2019-04-21T11:28:51Z</time>
      </trkpt>
      <trkpt lat="40.796903" lon="-3.280268">
        <ele>896.880</ele>
        <time>2019-04-21T11:28:54Z</time>
      </trkpt>
      <trkpt lat="40.796945" lon="-3.280297">
        <ele>897.810</ele>
        <time>2019-04-21T11:28:56Z</time>
      </trkpt>
      <trkpt lat="40.797025" lon="-3.280318">
        <ele>898.415</ele>
        <time>2019-04-21T11:28:58Z</time>
      </trkpt>
      <trkpt lat="40.797086" lon="-3.280332">
        <ele>899.777</ele>
        <time>2019-04-21T11:29:00Z</time>
      </trkpt>
      <trkpt lat="40.797164" lon="-3.280370">
        <ele>900.619</ele>
        <time>2019-04-21T11:29:02Z</time>
      </trkpt>
      <trkpt lat="40.797209" lon="-3.280438">
        <ele>902.343</ele>
        <time>2019-04-21T11:29:05Z</time>
      </trkpt>
      <trkpt lat="40.797221" lon="-3.280503">
        <ele>903.254</ele>
        <time>2019-04-21T11:29:07Z</time>
      </trkpt>
      <trkpt lat="40.797238" lon="-3.280585">
        <ele>904.823</ele>
        <time>2019-04-21T11:29:10Z</time>
      </trkpt>
      <trkpt lat="40.797253" lon="-3.280663">
        <ele>905.683</ele>
        <time>2019-04-21T11:29:12Z</time>
      </trkpt>
      <trkpt lat="40.797281" lon="-3.280731">
        <ele>906.611</ele>
        <time>2019-04-21T11:29:14Z</time>
      </trkpt>
      <trkpt lat="40.797334" lon="-3.280764">
        <ele>907.208</ele>
        <time>2019-04-21T11:29:16Z</time>
      </trkpt>
      <trkpt lat="40.797390" lon="-3.280831">
        <ele>908.275</ele>
        <time>2019-04-21T11:29:18Z</time>
      </trkpt>
      <trkpt lat="40.797437" lon="-3.280907">
        <ele>909.977</ele>
        <time>2019-04-21T11:29:20Z</time>
      </trkpt>
      <trkpt lat="40.797477" lon="-3.280964">
        <ele>910.747</ele>
        <time>2019-04-21T11:29:22Z</time>
      </trkpt>
      <trkpt lat="40.797520" lon="-3.281031">
        <ele>911.212</ele>
        <time>2019-04-21T11:29:24Z</time>
      </trkpt>
      <trkpt lat="40.797580" lon="-3.281114">
        <ele>912.094</ele>
        <time>2019-04-21T11:29:26Z</time>
      </trkpt>
      <trkpt lat="40.797614" lon="-3.281158">
        <ele>912.096</ele>
        <time>2019-04-21T11:29:27Z</time>
      </trkpt>
      <trkpt lat="40.797659" lon="-3.281213">
        <ele>912.090</ele>
        <time>2019-04-21T11:29:28Z</time>
      </trkpt>
      <trkpt lat="40.797703" lon="-3.281270">
        <ele>912.011</ele>
        <time>2019-04-21T11:29:29Z</time>
      </trkpt>
      <trkpt lat="40.797751" lon="-3.281336">
        <ele>912.114</ele>
        <time>2019-04-21T11:29:30Z</time>
      </trkpt>
      <trkpt lat="40.797798" lon="-3.281407">
        <ele>912.254</ele>
        <time>2019-04-21T11:29:31Z</time>
      </trkpt>
      <trkpt lat="40.797840" lon="-3.281472">
        <ele>912.209</ele>
        <time>2019-04-21T11:29:32Z</time>
      </trkpt>
      <trkpt lat="40.797892" lon="-3.281522">
        <ele>912.408</ele>
        <time>2019-04-21T11:29:33Z</time>
      </trkpt>
      <trkpt lat="40.797942" lon="-3.281569">
        <ele>912.424</ele>
        <time>2019-04-21T11:29:34Z</time>
      </trkpt>
      <trkpt lat="40.797992" lon="-3.281618">
        <ele>912.296</ele>
        <time>2019-04-21T11:29:35Z</time>
      </trkpt>
      <trkpt lat="40.798042" lon="-3.281660">
        <ele>912.166</ele>
        <time>2019-04-21T11:29:36Z</time>
      </trkpt>
      <trkpt lat="40.798094" lon="-3.281699">
        <ele>912.021</ele>
        <time>2019-04-21T11:29:37Z</time>
      </trkpt>
      <trkpt lat="40.798162" lon="-3.281746">
        <ele>912.043</ele>
        <time>2019-04-21T11:29:38Z</time>
      </trkpt>
      <trkpt lat="40.798214" lon="-3.281787">
        <ele>912.015</ele>
        <time>2019-04-21T11:29:39Z</time>
      </trkpt>
      <trkpt lat="40.798265" lon="-3.281830">
        <ele>912.069</ele>
        <time>2019-04-21T11:29:40Z</time>
      </trkpt>
      <trkpt lat="40.798321" lon="-3.281877">
        <ele>911.930</ele>
        <time>2019-04-21T11:29:41Z</time>
      </trkpt>
      <trkpt lat="40.798374" lon="-3.281925">
        <ele>911.891</ele>
        <time>2019-04-21T11:29:42Z</time>
      </trkpt>
      <trkpt lat="40.798420" lon="-3.281963">
        <ele>911.881</ele>
        <time>2019-04-21T11:29:43Z</time>
      </trkpt>
      <trkpt lat="40.798470" lon="-3.282001">
        <ele>911.819</ele>
        <time>2019-04-21T11:29:44Z</time>
      </trkpt>
      <trkpt lat="40.798526" lon="-3.282043">
        <ele>911.908</ele>
        <time>2019-04-21T11:29:45Z</time>
      </trkpt>
      <trkpt lat="40.798578" lon="-3.282073">
        <ele>911.972</ele>
        <time>2019-04-21T11:29:46Z</time>
      </trkpt>
      <trkpt lat="40.798631" lon="-3.282099">
        <ele>911.964</ele>
        <time>2019-04-21T11:29:47Z</time>
      </trkpt>
      <trkpt lat="40.798697" lon="-3.282126">
        <ele>911.754</ele>
        <time>2019-04-21T11:29:48Z</time>
      </trkpt>
      <trkpt lat="40.798759" lon="-3.282157">
        <ele>911.749</ele>
        <time>2019-04-21T11:29:49Z</time>
      </trkpt>
      <trkpt lat="40.798819" lon="-3.282205">
        <ele>911.771</ele>
        <time>2019-04-21T11:29:50Z</time>
      </trkpt>
      <trkpt lat="40.798865" lon="-3.282269">
        <ele>911.753</ele>
        <time>2019-04-21T11:29:51Z</time>
      </trkpt>
      <trkpt lat="40.798912" lon="-3.282342">
        <ele>912.077</ele>
        <time>2019-04-21T11:29:52Z</time>
      </trkpt>
      <trkpt lat="40.798964" lon="-3.282422">
        <ele>912.228</ele>
        <time>2019-04-21T11:29:53Z</time>
      </trkpt>
      <trkpt lat="40.799009" lon="-3.282502">
        <ele>912.361</ele>
        <time>2019-04-21T11:29:54Z</time>
      </trkpt>
      <trkpt lat="40.799053" lon="-3.282604">
        <ele>912.321</ele>
        <time>2019-04-21T11:29:55Z</time>
      </trkpt>
      <trkpt lat="40.799097" lon="-3.282689">
        <ele>912.313</ele>
        <time>2019-04-21T11:29:56Z</time>
      </trkpt>
      <trkpt lat="40.799136" lon="-3.282773">
        <ele>912.308</ele>
        <time>2019-04-21T11:29:57Z</time>
      </trkpt>
      <trkpt lat="40.799175" lon="-3.282855">
        <ele>912.539</ele>
        <time>2019-04-21T11:29:58Z</time>
      </trkpt>
      <trkpt lat="40.799210" lon="-3.282940">
        <ele>912.581</ele>
        <time>2019-04-21T11:29:59Z</time>
      </trkpt>
      <trkpt lat="40.799240" lon="-3.283016">
        <ele>912.571</ele>
        <time>2019-04-21T11:30:00Z</time>
      </trkpt>
      <trkpt lat="40.799262" lon="-3.283099">
        <ele>912.556</ele>
        <time>2019-04-21T11:30:01Z</time>
      </trkpt>
      <trkpt lat="40.799290" lon="-3.283167">
        <ele>912.488</ele>
        <time>2019-04-21T11:30:02Z</time>
      </trkpt>
      <trkpt lat="40.799315" lon="-3.283240">
        <ele>912.190</ele>
        <time>2019-04-21T11:30:03Z</time>
      </trkpt>
      <trkpt lat="40.799342" lon="-3.283311">
        <ele>912.064</ele>
        <time>2019-04-21T11:30:04Z</time>
      </trkpt>
      <trkpt lat="40.799365" lon="-3.283383">
        <ele>912.075</ele>
        <time>2019-04-21T11:30:05Z</time>
      </trkpt>
      <trkpt lat="40.799391" lon="-3.283454">
        <ele>912.059</ele>
        <time>2019-04-21T11:30:06Z</time>
      </trkpt>
      <trkpt lat="40.799420" lon="-3.283519">
        <ele>912.003</ele>
        <time>2019-04-21T11:30:07Z</time>
      </trkpt>
      <trkpt lat="40.799445" lon="-3.283589">
        <ele>912.023</ele>
        <time>2019-04-21T11:30:08Z</time>
      </trkpt>
      <trkpt lat="40.799474" lon="-3.283654">
        <ele>912.008</ele>
        <time>2019-04-21T11:30:09Z</time>
      </trkpt>
      <trkpt lat="40.799497" lon="-3.283722">
        <ele>911.978</ele>
        <time>2019-04-21T11:30:10Z</time>
      </trkpt>
      <trkpt lat="40.799519" lon="-3.283788">
        <ele>911.980</ele>
        <time>2019-04-21T11:30:11Z</time>
      </trkpt>
      <trkpt lat="40.799555" lon="-3.283854">
        <ele>911.910</ele>
        <time>2019-04-21T11:30:12Z</time>
      </trkpt>
      <trkpt lat="40.799579" lon="-3.283918">
        <ele>911.915</ele>
        <time>2019-04-21T11:30:13Z</time>
      </trkpt>
      <trkpt lat="40.799594" lon="-3.283977">
        <ele>911.917</ele>
        <time>2019-04-21T11:30:14Z</time>
      </trkpt>
      <trkpt lat="40.799613" lon="-3.284041">
        <ele>912.099</ele>
        <time>2019-04-21T11:30:15Z</time>
      </trkpt>
      <trkpt lat="40.799634" lon="-3.284098">
        <ele>912.133</ele>
        <time>2019-04-21T11:30:16Z</time>
      </trkpt>
      <trkpt lat="40.799653" lon="-3.284157">
        <ele>912.164</ele>
        <time>2019-04-21T11:30:17Z</time>
      </trkpt>
      <trkpt lat="40.799662" lon="-3.284266">
        <ele>912.116</ele>
        <time>2019-04-21T11:30:19Z</time>
      </trkpt>
      <trkpt lat="40.799681" lon="-3.284356">
        <ele>911.976</ele>
        <time>2019-04-21T11:30:21Z</time>
      </trkpt>
      <trkpt lat="40.799702" lon="-3.284469">
        <ele>911.813</ele>
        <time>2019-04-21T11:30:23Z</time>
      </trkpt>
      <trkpt lat="40.799722" lon="-3.284545">
        <ele>911.808</ele>
        <time>2019-04-21T11:30:24Z</time>
      </trkpt>
      <trkpt lat="40.799749" lon="-3.284614">
        <ele>911.854</ele>
        <time>2019-04-21T11:30:25Z</time>
      </trkpt>
      <trkpt lat="40.799771" lon="-3.284698">
        <ele>911.956</ele>
        <time>2019-04-21T11:30:26Z</time>
      </trkpt>
      <trkpt lat="40.799789" lon="-3.284791">
        <ele>911.916</ele>
        <time>2019-04-21T11:30:27Z</time>
      </trkpt>
      <trkpt lat="40.799802" lon="-3.284879">
        <ele>911.981</ele>
        <time>2019-04-21T11:30:28Z</time>
      </trkpt>
      <trkpt lat="40.799819" lon="-3.284971">
        <ele>911.923</ele>
        <time>2019-04-21T11:30:29Z</time>
      </trkpt>
      <trkpt lat="40.799829" lon="-3.285054">
        <ele>911.885</ele>
        <time>2019-04-21T11:30:30Z</time>
      </trkpt>
      <trkpt lat="40.799840" lon="-3.285135">
        <ele>911.689</ele>
        <time>2019-04-21T11:30:31Z</time>
      </trkpt>
      <trkpt lat="40.799848" lon="-3.285209">
        <ele>911.660</ele>
        <time>2019-04-21T11:30:32Z</time>
      </trkpt>
      <trkpt lat="40.799860" lon="-3.285304">
        <ele>911.554</ele>
        <time>2019-04-21T11:30:33Z</time>
      </trkpt>
      <trkpt lat="40.799867" lon="-3.285387">
        <ele>911.556</ele>
        <time>2019-04-21T11:30:34Z</time>
      </trkpt>
      <trkpt lat="40.799877" lon="-3.285479">
        <ele>911.511</ele>
        <time>2019-04-21T11:30:35Z</time>
      </trkpt>
      <trkpt lat="40.799890" lon="-3.285564">
        <ele>911.508</ele>
        <time>2019-04-21T11:30:36Z</time>
      </trkpt>
      <trkpt lat="40.799900" lon="-3.285643">
        <ele>911.498</ele>
        <time>2019-04-21T11:30:37Z</time>
      </trkpt>
      <trkpt lat="40.799916" lon="-3.285719">
        <ele>911.420</ele>
        <time>2019-04-21T11:30:38Z</time>
      </trkpt>
      <trkpt lat="40.799933" lon="-3.285813">
        <ele>911.340</ele>
        <time>2019-04-21T11:30:39Z</time>
      </trkpt>
      <trkpt lat="40.799950" lon="-3.285897">
        <ele>911.365</ele>
        <time>2019-04-21T11:30:40Z</time>
      </trkpt>
      <trkpt lat="40.799988" lon="-3.285983">
        <ele>911.337</ele>
        <time>2019-04-21T11:30:41Z</time>
      </trkpt>
      <trkpt lat="40.800019" lon="-3.286041">
        <ele>911.289</ele>
        <time>2019-04-21T11:30:42Z</time>
      </trkpt>
      <trkpt lat="40.800047" lon="-3.286097">
        <ele>911.193</ele>
        <time>2019-04-21T11:30:43Z</time>
      </trkpt>
      <trkpt lat="40.800072" lon="-3.286149">
        <ele>911.024</ele>
        <time>2019-04-21T11:30:44Z</time>
      </trkpt>
      <trkpt lat="40.800116" lon="-3.286258">
        <ele>910.794</ele>
        <time>2019-04-21T11:30:46Z</time>
      </trkpt>
      <trkpt lat="40.800143" lon="-3.286369">
        <ele>910.557</ele>
        <time>2019-04-21T11:30:48Z</time>
      </trkpt>
      <trkpt lat="40.800135" lon="-3.286499">
        <ele>910.422</ele>
        <time>2019-04-21T11:30:50Z</time>
      </trkpt>
      <trkpt lat="40.800120" lon="-3.286617">
        <ele>910.408</ele>
        <time>2019-04-21T11:30:51Z</time>
      </trkpt>
      <trkpt lat="40.800108" lon="-3.286704">
        <ele>910.442</ele>
        <time>2019-04-21T11:30:52Z</time>
      </trkpt>
      <trkpt lat="40.800100" lon="-3.286794">
        <ele>910.474</ele>
        <time>2019-04-21T11:30:53Z</time>
      </trkpt>
      <trkpt lat="40.800099" lon="-3.286889">
        <ele>910.444</ele>
        <time>2019-04-21T11:30:54Z</time>
      </trkpt>
      <trkpt lat="40.800080" lon="-3.286978">
        <ele>910.459</ele>
        <time>2019-04-21T11:30:55Z</time>
      </trkpt>
      <trkpt lat="40.800063" lon="-3.287063">
        <ele>910.481</ele>
        <time>2019-04-21T11:30:56Z</time>
      </trkpt>
      <trkpt lat="40.800052" lon="-3.287144">
        <ele>910.283</ele>
        <time>2019-04-21T11:30:57Z</time>
      </trkpt>
      <trkpt lat="40.800051" lon="-3.287221">
        <ele>910.297</ele>
        <time>2019-04-21T11:30:58Z</time>
      </trkpt>
      <trkpt lat="40.800056" lon="-3.287306">
        <ele>910.268</ele>
        <time>2019-04-21T11:30:59Z</time>
      </trkpt>
      <trkpt lat="40.800069" lon="-3.287386">
        <ele>910.241</ele>
        <time>2019-04-21T11:31:00Z</time>
      </trkpt>
      <trkpt lat="40.800089" lon="-3.287459">
        <ele>910.281</ele>
        <time>2019-04-21T11:31:01Z</time>
      </trkpt>
      <trkpt lat="40.800108" lon="-3.287543">
        <ele>910.109</ele>
        <time>2019-04-21T11:31:02Z</time>
      </trkpt>
      <trkpt lat="40.800124" lon="-3.287625">
        <ele>909.908</ele>
        <time>2019-04-21T11:31:03Z</time>
      </trkpt>
      <trkpt lat="40.800140" lon="-3.287709">
        <ele>909.747</ele>
        <time>2019-04-21T11:31:04Z</time>
      </trkpt>
      <trkpt lat="40.800138" lon="-3.287803">
        <ele>909.419</ele>
        <time>2019-04-21T11:31:05Z</time>
      </trkpt>
      <trkpt lat="40.800136" lon="-3.287882">
        <ele>909.359</ele>
        <time>2019-04-21T11:31:06Z</time>
      </trkpt>
      <trkpt lat="40.800143" lon="-3.287982">
        <ele>909.284</ele>
        <time>2019-04-21T11:31:07Z</time>
      </trkpt>
      <trkpt lat="40.800152" lon="-3.288057">
        <ele>909.246</ele>
        <time>2019-04-21T11:31:08Z</time>
      </trkpt>
      <trkpt lat="40.800157" lon="-3.288134">
        <ele>909.398</ele>
        <time>2019-04-21T11:31:09Z</time>
      </trkpt>
      <trkpt lat="40.800159" lon="-3.288204">
        <ele>909.242</ele>
        <time>2019-04-21T11:31:10Z</time>
      </trkpt>
      <trkpt lat="40.800160" lon="-3.288269">
        <ele>909.223</ele>
        <time>2019-04-21T11:31:11Z</time>
      </trkpt>
      <trkpt lat="40.800171" lon="-3.288342">
        <ele>909.268</ele>
        <time>2019-04-21T11:31:13Z</time>
      </trkpt>
      <trkpt lat="40.800166" lon="-3.288413">
        <ele>909.242</ele>
        <time>2019-04-21T11:31:14Z</time>
      </trkpt>
      <trkpt lat="40.800160" lon="-3.288488">
        <ele>909.326</ele>
        <time>2019-04-21T11:31:15Z</time>
      </trkpt>
      <trkpt lat="40.800154" lon="-3.288573">
        <ele>909.308</ele>
        <time>2019-04-21T11:31:16Z</time>
      </trkpt>
      <trkpt lat="40.800164" lon="-3.288697">
        <ele>909.419</ele>
        <time>2019-04-21T11:31:18Z</time>
      </trkpt>
      <trkpt lat="40.800159" lon="-3.288765">
        <ele>909.461</ele>
        <time>2019-04-21T11:31:19Z</time>
      </trkpt>
      <trkpt lat="40.800166" lon="-3.288847">
        <ele>909.541</ele>
        <time>2019-04-21T11:31:20Z</time>
      </trkpt>
      <trkpt lat="40.800175" lon="-3.288917">
        <ele>909.526</ele>
        <time>2019-04-21T11:31:21Z</time>
      </trkpt>
      <trkpt lat="40.800183" lon="-3.288987">
        <ele>909.498</ele>
        <time>2019-04-21T11:31:22Z</time>
      </trkpt>
      <trkpt lat="40.800196" lon="-3.289055">
        <ele>909.330</ele>
        <time>2019-04-21T11:31:23Z</time>
      </trkpt>
      <trkpt lat="40.800221" lon="-3.289178">
        <ele>909.034</ele>
        <time>2019-04-21T11:31:25Z</time>
      </trkpt>
      <trkpt lat="40.800235" lon="-3.289252">
        <ele>909.135</ele>
        <time>2019-04-21T11:31:26Z</time>
      </trkpt>
      <trkpt lat="40.800247" lon="-3.289315">
        <ele>909.374</ele>
        <time>2019-04-21T11:31:27Z</time>
      </trkpt>
      <trkpt lat="40.800263" lon="-3.289400">
        <ele>909.256</ele>
        <time>2019-04-21T11:31:28Z</time>
      </trkpt>
      <trkpt lat="40.800275" lon="-3.289492">
        <ele>909.421</ele>
        <time>2019-04-21T11:31:29Z</time>
      </trkpt>
      <trkpt lat="40.800288" lon="-3.289557">
        <ele>909.208</ele>
        <time>2019-04-21T11:31:30Z</time>
      </trkpt>
      <trkpt lat="40.800302" lon="-3.289622">
        <ele>909.140</ele>
        <time>2019-04-21T11:31:31Z</time>
      </trkpt>
      <trkpt lat="40.800316" lon="-3.289687">
        <ele>909.162</ele>
        <time>2019-04-21T11:31:32Z</time>
      </trkpt>
      <trkpt lat="40.800332" lon="-3.289760">
        <ele>909.142</ele>
        <time>2019-04-21T11:31:33Z</time>
      </trkpt>
      <trkpt lat="40.800365" lon="-3.289883">
        <ele>909.127</ele>
        <time>2019-04-21T11:31:35Z</time>
      </trkpt>
      <trkpt lat="40.800374" lon="-3.289978">
        <ele>909.189</ele>
        <time>2019-04-21T11:31:36Z</time>
      </trkpt>
      <trkpt lat="40.800382" lon="-3.290048">
        <ele>909.011</ele>
        <time>2019-04-21T11:31:37Z</time>
      </trkpt>
      <trkpt lat="40.800384" lon="-3.290123">
        <ele>909.085</ele>
        <time>2019-04-21T11:31:38Z</time>
      </trkpt>
      <trkpt lat="40.800378" lon="-3.290199">
        <ele>908.996</ele>
        <time>2019-04-21T11:31:39Z</time>
      </trkpt>
      <trkpt lat="40.800384" lon="-3.290265">
        <ele>908.949</ele>
        <time>2019-04-21T11:31:40Z</time>
      </trkpt>
      <trkpt lat="40.800395" lon="-3.290326">
        <ele>908.902</ele>
        <time>2019-04-21T11:31:41Z</time>
      </trkpt>
      <trkpt lat="40.800398" lon="-3.290417">
        <ele>908.922</ele>
        <time>2019-04-21T11:31:42Z</time>
      </trkpt>
      <trkpt lat="40.800398" lon="-3.290501">
        <ele>908.908</ele>
        <time>2019-04-21T11:31:43Z</time>
      </trkpt>
      <trkpt lat="40.800411" lon="-3.290592">
        <ele>908.897</ele>
        <time>2019-04-21T11:31:44Z</time>
      </trkpt>
      <trkpt lat="40.800407" lon="-3.290682">
        <ele>908.819</ele>
        <time>2019-04-21T11:31:45Z</time>
      </trkpt>
      <trkpt lat="40.800412" lon="-3.290750">
        <ele>908.829</ele>
        <time>2019-04-21T11:31:46Z</time>
      </trkpt>
      <trkpt lat="40.800415" lon="-3.290813">
        <ele>908.744</ele>
        <time>2019-04-21T11:31:47Z</time>
      </trkpt>
      <trkpt lat="40.800431" lon="-3.290936">
        <ele>908.746</ele>
        <time>2019-04-21T11:31:49Z</time>
      </trkpt>
      <trkpt lat="40.800444" lon="-3.291080">
        <ele>908.668</ele>
        <time>2019-04-21T11:31:51Z</time>
      </trkpt>
      <trkpt lat="40.800456" lon="-3.291164">
        <ele>908.682</ele>
        <time>2019-04-21T11:31:52Z</time>
      </trkpt>
      <trkpt lat="40.800468" lon="-3.291227">
        <ele>908.553</ele>
        <time>2019-04-21T11:31:53Z</time>
      </trkpt>
      <trkpt lat="40.800472" lon="-3.291300">
        <ele>908.597</ele>
        <time>2019-04-21T11:31:54Z</time>
      </trkpt>
      <trkpt lat="40.800477" lon="-3.291408">
        <ele>908.523</ele>
        <time>2019-04-21T11:31:55Z</time>
      </trkpt>
      <trkpt lat="40.800490" lon="-3.291503">
        <ele>908.525</ele>
        <time>2019-04-21T11:31:56Z</time>
      </trkpt>
      <trkpt lat="40.800501" lon="-3.291602">
        <ele>908.408</ele>
        <time>2019-04-21T11:31:57Z</time>
      </trkpt>
      <trkpt lat="40.800515" lon="-3.291669">
        <ele>908.452</ele>
        <time>2019-04-21T11:31:58Z</time>
      </trkpt>
      <trkpt lat="40.800523" lon="-3.291729">
        <ele>908.424</ele>
        <time>2019-04-21T11:31:59Z</time>
      </trkpt>
      <trkpt lat="40.800545" lon="-3.291822">
        <ele>908.544</ele>
        <time>2019-04-21T11:32:01Z</time>
      </trkpt>
      <trkpt lat="40.800652" lon="-3.291784">
        <ele>908.999</ele>
        <time>2019-04-21T11:32:03Z</time>
      </trkpt>
      <trkpt lat="40.800703" lon="-3.291716">
        <ele>909.121</ele>
        <time>2019-04-21T11:32:04Z</time>
      </trkpt>
      <trkpt lat="40.800777" lon="-3.291658">
        <ele>909.453</ele>
        <time>2019-04-21T11:32:05Z</time>
      </trkpt>
      <trkpt lat="40.800855" lon="-3.291592">
        <ele>909.687</ele>
        <time>2019-04-21T11:32:06Z</time>
      </trkpt>
      <trkpt lat="40.800935" lon="-3.291524">
        <ele>909.858</ele>
        <time>2019-04-21T11:32:07Z</time>
      </trkpt>
      <trkpt lat="40.801025" lon="-3.291446">
        <ele>909.836</ele>
        <time>2019-04-21T11:32:08Z</time>
      </trkpt>
      <trkpt lat="40.801114" lon="-3.291367">
        <ele>910.217</ele>
        <time>2019-04-21T11:32:09Z</time>
      </trkpt>
      <trkpt lat="40.801194" lon="-3.291305">
        <ele>910.418</ele>
        <time>2019-04-21T11:32:10Z</time>
      </trkpt>
      <trkpt lat="40.801286" lon="-3.291237">
        <ele>910.608</ele>
        <time>2019-04-21T11:32:11Z</time>
      </trkpt>
      <trkpt lat="40.801365" lon="-3.291179">
        <ele>911.026</ele>
        <time>2019-04-21T11:32:12Z</time>
      </trkpt>
      <trkpt lat="40.801454" lon="-3.291116">
        <ele>911.028</ele>
        <time>2019-04-21T11:32:13Z</time>
      </trkpt>
      <trkpt lat="40.801551" lon="-3.291043">
        <ele>911.258</ele>
        <time>2019-04-21T11:32:14Z</time>
      </trkpt>
      <trkpt lat="40.801652" lon="-3.290963">
        <ele>911.383</ele>
        <time>2019-04-21T11:32:15Z</time>
      </trkpt>
      <trkpt lat="40.801759" lon="-3.290889">
        <ele>911.525</ele>
        <time>2019-04-21T11:32:16Z</time>
      </trkpt>
      <trkpt lat="40.801865" lon="-3.290809">
        <ele>911.647</ele>
        <time>2019-04-21T11:32:17Z</time>
      </trkpt>
      <trkpt lat="40.801975" lon="-3.290722">
        <ele>911.651</ele>
        <time>2019-04-21T11:32:18Z</time>
      </trkpt>
      <trkpt lat="40.802084" lon="-3.290643">
        <ele>911.762</ele>
        <time>2019-04-21T11:32:19Z</time>
      </trkpt>
      <trkpt lat="40.802194" lon="-3.290558">
        <ele>911.796</ele>
        <time>2019-04-21T11:32:20Z</time>
      </trkpt>
      <trkpt lat="40.802312" lon="-3.290473">
        <ele>911.731</ele>
        <time>2019-04-21T11:32:21Z</time>
      </trkpt>
      <trkpt lat="40.802424" lon="-3.290385">
        <ele>911.724</ele>
        <time>2019-04-21T11:32:22Z</time>
      </trkpt>
      <trkpt lat="40.802536" lon="-3.290298">
        <ele>911.808</ele>
        <time>2019-04-21T11:32:23Z</time>
      </trkpt>
      <trkpt lat="40.802644" lon="-3.290213">
        <ele>911.842</ele>
        <time>2019-04-21T11:32:24Z</time>
      </trkpt>
      <trkpt lat="40.802751" lon="-3.290134">
        <ele>911.884</ele>
        <time>2019-04-21T11:32:25Z</time>
      </trkpt>
      <trkpt lat="40.802856" lon="-3.290049">
        <ele>911.944</ele>
        <time>2019-04-21T11:32:26Z</time>
      </trkpt>
      <trkpt lat="40.802960" lon="-3.289963">
        <ele>912.019</ele>
        <time>2019-04-21T11:32:27Z</time>
      </trkpt>
      <trkpt lat="40.803067" lon="-3.289882">
        <ele>912.091</ele>
        <time>2019-04-21T11:32:28Z</time>
      </trkpt>
      <trkpt lat="40.803176" lon="-3.289803">
        <ele>912.043</ele>
        <time>2019-04-21T11:32:29Z</time>
      </trkpt>
      <trkpt lat="40.803282" lon="-3.289724">
        <ele>912.167</ele>
        <time>2019-04-21T11:32:30Z</time>
      </trkpt>
      <trkpt lat="40.803387" lon="-3.289646">
        <ele>912.138</ele>
        <time>2019-04-21T11:32:31Z</time>
      </trkpt>
      <trkpt lat="40.803494" lon="-3.289568">
        <ele>912.197</ele>
        <time>2019-04-21T11:32:32Z</time>
      </trkpt>
      <trkpt lat="40.803600" lon="-3.289490">
        <ele>912.223</ele>
        <time>2019-04-21T11:32:33Z</time>
      </trkpt>
      <trkpt lat="40.803705" lon="-3.289416">
        <ele>912.325</ele>
        <time>2019-04-21T11:32:34Z</time>
      </trkpt>
      <trkpt lat="40.803807" lon="-3.289339">
        <ele>912.408</ele>
        <time>2019-04-21T11:32:35Z</time>
      </trkpt>
      <trkpt lat="40.803908" lon="-3.289264">
        <ele>912.542</ele>
        <time>2019-04-21T11:32:36Z</time>
      </trkpt>
      <trkpt lat="40.804009" lon="-3.289190">
        <ele>912.594</ele>
        <time>2019-04-21T11:32:37Z</time>
      </trkpt>
      <trkpt lat="40.804110" lon="-3.289115">
        <ele>912.594</ele>
        <time>2019-04-21T11:32:38Z</time>
      </trkpt>
      <trkpt lat="40.804213" lon="-3.289042">
        <ele>912.589</ele>
        <time>2019-04-21T11:32:39Z</time>
      </trkpt>
      <trkpt lat="40.804314" lon="-3.288967">
        <ele>912.571</ele>
        <time>2019-04-21T11:32:40Z</time>
      </trkpt>
      <trkpt lat="40.804415" lon="-3.288894">
        <ele>912.513</ele>
        <time>2019-04-21T11:32:41Z</time>
      </trkpt>
      <trkpt lat="40.804512" lon="-3.288820">
        <ele>912.517</ele>
        <time>2019-04-21T11:32:42Z</time>
      </trkpt>
      <trkpt lat="40.804610" lon="-3.288751">
        <ele>912.518</ele>
        <time>2019-04-21T11:32:43Z</time>
      </trkpt>
      <trkpt lat="40.804711" lon="-3.288681">
        <ele>912.431</ele>
        <time>2019-04-21T11:32:44Z</time>
      </trkpt>
      <trkpt lat="40.804812" lon="-3.288605">
        <ele>912.361</ele>
        <time>2019-04-21T11:32:45Z</time>
      </trkpt>
      <trkpt lat="40.804918" lon="-3.288542">
        <ele>912.307</ele>
        <time>2019-04-21T11:32:46Z</time>
      </trkpt>
      <trkpt lat="40.805023" lon="-3.288477">
        <ele>912.308</ele>
        <time>2019-04-21T11:32:47Z</time>
      </trkpt>
      <trkpt lat="40.805122" lon="-3.288398">
        <ele>912.496</ele>
        <time>2019-04-21T11:32:48Z</time>
      </trkpt>
      <trkpt lat="40.805222" lon="-3.288321">
        <ele>912.588</ele>
        <time>2019-04-21T11:32:49Z</time>
      </trkpt>
      <trkpt lat="40.805312" lon="-3.288224">
        <ele>912.738</ele>
        <time>2019-04-21T11:32:50Z</time>
      </trkpt>
      <trkpt lat="40.805399" lon="-3.288123">
        <ele>913.013</ele>
        <time>2019-04-21T11:32:51Z</time>
      </trkpt>
      <trkpt lat="40.805478" lon="-3.288009">
        <ele>913.415</ele>
        <time>2019-04-21T11:32:52Z</time>
      </trkpt>
      <trkpt lat="40.805556" lon="-3.287893">
        <ele>913.657</ele>
        <time>2019-04-21T11:32:53Z</time>
      </trkpt>
      <trkpt lat="40.805636" lon="-3.287776">
        <ele>913.851</ele>
        <time>2019-04-21T11:32:54Z</time>
      </trkpt>
      <trkpt lat="40.805722" lon="-3.287663">
        <ele>913.982</ele>
        <time>2019-04-21T11:32:55Z</time>
      </trkpt>
      <trkpt lat="40.805811" lon="-3.287552">
        <ele>913.987</ele>
        <time>2019-04-21T11:32:56Z</time>
      </trkpt>
      <trkpt lat="40.805898" lon="-3.287443">
        <ele>913.542</ele>
        <time>2019-04-21T11:32:57Z</time>
      </trkpt>
      <trkpt lat="40.805976" lon="-3.287347">
        <ele>912.626</ele>
        <time>2019-04-21T11:32:58Z</time>
      </trkpt>
      <trkpt lat="40.806046" lon="-3.287270">
        <ele>909.608</ele>
        <time>2019-04-21T11:32:59Z</time>
      </trkpt>
      <trkpt lat="40.806120" lon="-3.287215">
        <ele>907.791</ele>
        <time>2019-04-21T11:33:00Z</time>
      </trkpt>
      <trkpt lat="40.806210" lon="-3.287210">
        <ele>905.643</ele>
        <time>2019-04-21T11:33:01Z</time>
      </trkpt>
      <trkpt lat="40.806305" lon="-3.287223">
        <ele>903.733</ele>
        <time>2019-04-21T11:33:02Z</time>
      </trkpt>
      <trkpt lat="40.806403" lon="-3.287234">
        <ele>901.948</ele>
        <time>2019-04-21T11:33:03Z</time>
      </trkpt>
      <trkpt lat="40.806498" lon="-3.287250">
        <ele>900.110</ele>
        <time>2019-04-21T11:33:04Z</time>
      </trkpt>
      <trkpt lat="40.806587" lon="-3.287273">
        <ele>898.412</ele>
        <time>2019-04-21T11:33:05Z</time>
      </trkpt>
      <trkpt lat="40.806669" lon="-3.287299">
        <ele>896.826</ele>
        <time>2019-04-21T11:33:06Z</time>
      </trkpt>
      <trkpt lat="40.806751" lon="-3.287316">
        <ele>895.257</ele>
        <time>2019-04-21T11:33:07Z</time>
      </trkpt>
      <trkpt lat="40.806828" lon="-3.287287">
        <ele>893.739</ele>
        <time>2019-04-21T11:33:08Z</time>
      </trkpt>
      <trkpt lat="40.806903" lon="-3.287229">
        <ele>892.401</ele>
        <time>2019-04-21T11:33:09Z</time>
      </trkpt>
      <trkpt lat="40.806975" lon="-3.287159">
        <ele>891.221</ele>
        <time>2019-04-21T11:33:10Z</time>
      </trkpt>
      <trkpt lat="40.807034" lon="-3.287072">
        <ele>890.108</ele>
        <time>2019-04-21T11:33:11Z</time>
      </trkpt>
      <trkpt lat="40.807082" lon="-3.286983">
        <ele>889.296</ele>
        <time>2019-04-21T11:33:12Z</time>
      </trkpt>
      <trkpt lat="40.807128" lon="-3.286897">
        <ele>888.438</ele>
        <time>2019-04-21T11:33:13Z</time>
      </trkpt>
      <trkpt lat="40.807177" lon="-3.286801">
        <ele>887.138</ele>
        <time>2019-04-21T11:33:14Z</time>
      </trkpt>
      <trkpt lat="40.807224" lon="-3.286688">
        <ele>886.773</ele>
        <time>2019-04-21T11:33:15Z</time>
      </trkpt>
      <trkpt lat="40.807261" lon="-3.286561">
        <ele>886.575</ele>
        <time>2019-04-21T11:33:16Z</time>
      </trkpt>
      <trkpt lat="40.807287" lon="-3.286433">
        <ele>886.487</ele>
        <time>2019-04-21T11:33:17Z</time>
      </trkpt>
      <trkpt lat="40.807321" lon="-3.286312">
        <ele>886.481</ele>
        <time>2019-04-21T11:33:18Z</time>
      </trkpt>
      <trkpt lat="40.807358" lon="-3.286194">
        <ele>886.352</ele>
        <time>2019-04-21T11:33:19Z</time>
      </trkpt>
      <trkpt lat="40.807391" lon="-3.286074">
        <ele>886.298</ele>
        <time>2019-04-21T11:33:20Z</time>
      </trkpt>
      <trkpt lat="40.807424" lon="-3.285954">
        <ele>886.115</ele>
        <time>2019-04-21T11:33:21Z</time>
      </trkpt>
      <trkpt lat="40.807470" lon="-3.285839">
        <ele>885.926</ele>
        <time>2019-04-21T11:33:22Z</time>
      </trkpt>
      <trkpt lat="40.807508" lon="-3.285720">
        <ele>885.608</ele>
        <time>2019-04-21T11:33:23Z</time>
      </trkpt>
      <trkpt lat="40.807550" lon="-3.285596">
        <ele>885.282</ele>
        <time>2019-04-21T11:33:24Z</time>
      </trkpt>
      <trkpt lat="40.807598" lon="-3.285489">
        <ele>884.764</ele>
        <time>2019-04-21T11:33:25Z</time>
      </trkpt>
      <trkpt lat="40.807650" lon="-3.285383">
        <ele>884.044</ele>
        <time>2019-04-21T11:33:26Z</time>
      </trkpt>
      <trkpt lat="40.807716" lon="-3.285275">
        <ele>883.289</ele>
        <time>2019-04-21T11:33:27Z</time>
      </trkpt>
      <trkpt lat="40.807788" lon="-3.285178">
        <ele>882.421</ele>
        <time>2019-04-21T11:33:28Z</time>
      </trkpt>
      <trkpt lat="40.807870" lon="-3.285082">
        <ele>881.673</ele>
        <time>2019-04-21T11:33:29Z</time>
      </trkpt>
      <trkpt lat="40.807956" lon="-3.284990">
        <ele>879.987</ele>
        <time>2019-04-21T11:33:30Z</time>
      </trkpt>
      <trkpt lat="40.808048" lon="-3.284912">
        <ele>879.138</ele>
        <time>2019-04-21T11:33:31Z</time>
      </trkpt>
      <trkpt lat="40.808135" lon="-3.284826">
        <ele>878.595</ele>
        <time>2019-04-21T11:33:32Z</time>
      </trkpt>
      <trkpt lat="40.808221" lon="-3.284741">
        <ele>877.849</ele>
        <time>2019-04-21T11:33:33Z</time>
      </trkpt>
      <trkpt lat="40.808304" lon="-3.284659">
        <ele>877.623</ele>
        <time>2019-04-21T11:33:34Z</time>
      </trkpt>
      <trkpt lat="40.808387" lon="-3.284576">
        <ele>877.308</ele>
        <time>2019-04-21T11:33:35Z</time>
      </trkpt>
      <trkpt lat="40.808477" lon="-3.284487">
        <ele>877.182</ele>
        <time>2019-04-21T11:33:36Z</time>
      </trkpt>
      <trkpt lat="40.808569" lon="-3.284398">
        <ele>876.764</ele>
        <time>2019-04-21T11:33:37Z</time>
      </trkpt>
      <trkpt lat="40.808662" lon="-3.284310">
        <ele>876.624</ele>
        <time>2019-04-21T11:33:38Z</time>
      </trkpt>
      <trkpt lat="40.808760" lon="-3.284219">
        <ele>876.399</ele>
        <time>2019-04-21T11:33:39Z</time>
      </trkpt>
      <trkpt lat="40.808852" lon="-3.284125">
        <ele>876.241</ele>
        <time>2019-04-21T11:33:40Z</time>
      </trkpt>
      <trkpt lat="40.808941" lon="-3.284028">
        <ele>876.013</ele>
        <time>2019-04-21T11:33:41Z</time>
      </trkpt>
      <trkpt lat="40.809029" lon="-3.283924">
        <ele>875.927</ele>
        <time>2019-04-21T11:33:42Z</time>
      </trkpt>
      <trkpt lat="40.809122" lon="-3.283824">
        <ele>875.958</ele>
        <time>2019-04-21T11:33:43Z</time>
      </trkpt>
      <trkpt lat="40.809221" lon="-3.283710">
        <ele>876.189</ele>
        <time>2019-04-21T11:33:44Z</time>
      </trkpt>
      <trkpt lat="40.809324" lon="-3.283589">
        <ele>876.106</ele>
        <time>2019-04-21T11:33:45Z</time>
      </trkpt>
      <trkpt lat="40.809428" lon="-3.283467">
        <ele>876.226</ele>
        <time>2019-04-21T11:33:46Z</time>
      </trkpt>
      <trkpt lat="40.809535" lon="-3.283352">
        <ele>876.208</ele>
        <time>2019-04-21T11:33:47Z</time>
      </trkpt>
      <trkpt lat="40.809640" lon="-3.283242">
        <ele>875.911</ele>
        <time>2019-04-21T11:33:48Z</time>
      </trkpt>
      <trkpt lat="40.809740" lon="-3.283130">
        <ele>875.443</ele>
        <time>2019-04-21T11:33:49Z</time>
      </trkpt>
      <trkpt lat="40.809838" lon="-3.283021">
        <ele>875.263</ele>
        <time>2019-04-21T11:33:50Z</time>
      </trkpt>
      <trkpt lat="40.809928" lon="-3.282910">
        <ele>874.718</ele>
        <time>2019-04-21T11:33:51Z</time>
      </trkpt>
      <trkpt lat="40.810015" lon="-3.282800">
        <ele>874.310</ele>
        <time>2019-04-21T11:33:52Z</time>
      </trkpt>
      <trkpt lat="40.810103" lon="-3.282694">
        <ele>873.932</ele>
        <time>2019-04-21T11:33:53Z</time>
      </trkpt>
      <trkpt lat="40.810188" lon="-3.282585">
        <ele>873.646</ele>
        <time>2019-04-21T11:33:54Z</time>
      </trkpt>
      <trkpt lat="40.810275" lon="-3.282466">
        <ele>873.017</ele>
        <time>2019-04-21T11:33:55Z</time>
      </trkpt>
      <trkpt lat="40.810366" lon="-3.282354">
        <ele>872.476</ele>
        <time>2019-04-21T11:33:56Z</time>
      </trkpt>
      <trkpt lat="40.810446" lon="-3.282230">
        <ele>871.690</ele>
        <time>2019-04-21T11:33:57Z</time>
      </trkpt>
      <trkpt lat="40.810519" lon="-3.282102">
        <ele>870.619</ele>
        <time>2019-04-21T11:33:58Z</time>
      </trkpt>
      <trkpt lat="40.810593" lon="-3.281972">
        <ele>869.608</ele>
        <time>2019-04-21T11:33:59Z</time>
      </trkpt>
      <trkpt lat="40.810672" lon="-3.281848">
        <ele>868.530</ele>
        <time>2019-04-21T11:34:00Z</time>
      </trkpt>
      <trkpt lat="40.810746" lon="-3.281721">
        <ele>866.142</ele>
        <time>2019-04-21T11:34:01Z</time>
      </trkpt>
      <trkpt lat="40.810822" lon="-3.281599">
        <ele>864.942</ele>
        <time>2019-04-21T11:34:02Z</time>
      </trkpt>
      <trkpt lat="40.810896" lon="-3.281485">
        <ele>863.947</ele>
        <time>2019-04-21T11:34:03Z</time>
      </trkpt>
      <trkpt lat="40.810965" lon="-3.281373">
        <ele>863.089</ele>
        <time>2019-04-21T11:34:04Z</time>
      </trkpt>
      <trkpt lat="40.811034" lon="-3.281265">
        <ele>862.461</ele>
        <time>2019-04-21T11:34:05Z</time>
      </trkpt>
      <trkpt lat="40.811099" lon="-3.281155">
        <ele>862.035</ele>
        <time>2019-04-21T11:34:06Z</time>
      </trkpt>
      <trkpt lat="40.811172" lon="-3.281057">
        <ele>861.826</ele>
        <time>2019-04-21T11:34:07Z</time>
      </trkpt>
      <trkpt lat="40.811244" lon="-3.280952">
        <ele>861.719</ele>
        <time>2019-04-21T11:34:08Z</time>
      </trkpt>
      <trkpt lat="40.811313" lon="-3.280839">
        <ele>861.609</ele>
        <time>2019-04-21T11:34:09Z</time>
      </trkpt>
      <trkpt lat="40.811383" lon="-3.280726">
        <ele>861.619</ele>
        <time>2019-04-21T11:34:10Z</time>
      </trkpt>
      <trkpt lat="40.811454" lon="-3.280613">
        <ele>861.608</ele>
        <time>2019-04-21T11:34:11Z</time>
      </trkpt>
      <trkpt lat="40.811526" lon="-3.280504">
        <ele>861.664</ele>
        <time>2019-04-21T11:34:12Z</time>
      </trkpt>
      <trkpt lat="40.811595" lon="-3.280392">
        <ele>861.576</ele>
        <time>2019-04-21T11:34:13Z</time>
      </trkpt>
      <trkpt lat="40.811667" lon="-3.280281">
        <ele>861.376</ele>
        <time>2019-04-21T11:34:14Z</time>
      </trkpt>
      <trkpt lat="40.811742" lon="-3.280168">
        <ele>861.071</ele>
        <time>2019-04-21T11:34:15Z</time>
      </trkpt>
      <trkpt lat="40.811818" lon="-3.280052">
        <ele>860.623</ele>
        <time>2019-04-21T11:34:16Z</time>
      </trkpt>
      <trkpt lat="40.811895" lon="-3.279936">
        <ele>860.475</ele>
        <time>2019-04-21T11:34:17Z</time>
      </trkpt>
      <trkpt lat="40.811972" lon="-3.279817">
        <ele>860.159</ele>
        <time>2019-04-21T11:34:18Z</time>
      </trkpt>
      <trkpt lat="40.812054" lon="-3.279698">
        <ele>860.040</ele>
        <time>2019-04-21T11:34:19Z</time>
      </trkpt>
      <trkpt lat="40.812133" lon="-3.279573">
        <ele>859.745</ele>
        <time>2019-04-21T11:34:20Z</time>
      </trkpt>
      <trkpt lat="40.812209" lon="-3.279446">
        <ele>859.047</ele>
        <time>2019-04-21T11:34:21Z</time>
      </trkpt>
      <trkpt lat="40.812285" lon="-3.279318">
        <ele>858.411</ele>
        <time>2019-04-21T11:34:22Z</time>
      </trkpt>
      <trkpt lat="40.812363" lon="-3.279192">
        <ele>857.708</ele>
        <time>2019-04-21T11:34:23Z</time>
      </trkpt>
      <trkpt lat="40.812444" lon="-3.279069">
        <ele>856.757</ele>
        <time>2019-04-21T11:34:24Z</time>
      </trkpt>
      <trkpt lat="40.812521" lon="-3.278944">
        <ele>855.849</ele>
        <time>2019-04-21T11:34:25Z</time>
      </trkpt>
      <trkpt lat="40.812596" lon="-3.278821">
        <ele>854.839</ele>
        <time>2019-04-21T11:34:26Z</time>
      </trkpt>
      <trkpt lat="40.812672" lon="-3.278704">
        <ele>853.944</ele>
        <time>2019-04-21T11:34:27Z</time>
      </trkpt>
      <trkpt lat="40.812752" lon="-3.278595">
        <ele>853.266</ele>
        <time>2019-04-21T11:34:28Z</time>
      </trkpt>
      <trkpt lat="40.812832" lon="-3.278487">
        <ele>852.728</ele>
        <time>2019-04-21T11:34:29Z</time>
      </trkpt>
      <trkpt lat="40.812911" lon="-3.278374">
        <ele>852.492</ele>
        <time>2019-04-21T11:34:30Z</time>
      </trkpt>
      <trkpt lat="40.812987" lon="-3.278260">
        <ele>852.263</ele>
        <time>2019-04-21T11:34:31Z</time>
      </trkpt>
      <trkpt lat="40.813058" lon="-3.278146">
        <ele>852.082</ele>
        <time>2019-04-21T11:34:32Z</time>
      </trkpt>
      <trkpt lat="40.813130" lon="-3.278035">
        <ele>851.343</ele>
        <time>2019-04-21T11:34:33Z</time>
      </trkpt>
      <trkpt lat="40.813207" lon="-3.277932">
        <ele>851.017</ele>
        <time>2019-04-21T11:34:34Z</time>
      </trkpt>
      <trkpt lat="40.813290" lon="-3.277837">
        <ele>850.808</ele>
        <time>2019-04-21T11:34:35Z</time>
      </trkpt>
      <trkpt lat="40.813382" lon="-3.277753">
        <ele>850.741</ele>
        <time>2019-04-21T11:34:36Z</time>
      </trkpt>
      <trkpt lat="40.813481" lon="-3.277672">
        <ele>850.743</ele>
        <time>2019-04-21T11:34:37Z</time>
      </trkpt>
      <trkpt lat="40.813583" lon="-3.277590">
        <ele>850.623</ele>
        <time>2019-04-21T11:34:38Z</time>
      </trkpt>
      <trkpt lat="40.813687" lon="-3.277508">
        <ele>850.438</ele>
        <time>2019-04-21T11:34:39Z</time>
      </trkpt>
      <trkpt lat="40.813798" lon="-3.277433">
        <ele>850.060</ele>
        <time>2019-04-21T11:34:40Z</time>
      </trkpt>
      <trkpt lat="40.813904" lon="-3.277345">
        <ele>849.482</ele>
        <time>2019-04-21T11:34:41Z</time>
      </trkpt>
      <trkpt lat="40.814015" lon="-3.277268">
        <ele>848.666</ele>
        <time>2019-04-21T11:34:42Z</time>
      </trkpt>
      <trkpt lat="40.814125" lon="-3.277190">
        <ele>847.857</ele>
        <time>2019-04-21T11:34:43Z</time>
      </trkpt>
      <trkpt lat="40.814233" lon="-3.277108">
        <ele>847.132</ele>
        <time>2019-04-21T11:34:44Z</time>
      </trkpt>
      <trkpt lat="40.814343" lon="-3.277027">
        <ele>846.792</ele>
        <time>2019-04-21T11:34:45Z</time>
      </trkpt>
      <trkpt lat="40.814452" lon="-3.276942">
        <ele>846.611</ele>
        <time>2019-04-21T11:34:46Z</time>
      </trkpt>
      <trkpt lat="40.814562" lon="-3.276852">
        <ele>846.608</ele>
        <time>2019-04-21T11:34:47Z</time>
      </trkpt>
      <trkpt lat="40.814671" lon="-3.276757">
        <ele>848.476</ele>
        <time>2019-04-21T11:34:48Z</time>
      </trkpt>
      <trkpt lat="40.814776" lon="-3.276653">
        <ele>850.188</ele>
        <time>2019-04-21T11:34:49Z</time>
      </trkpt>
      <trkpt lat="40.814880" lon="-3.276547">
        <ele>851.718</ele>
        <time>2019-04-21T11:34:50Z</time>
      </trkpt>
      <trkpt lat="40.814981" lon="-3.276434">
        <ele>852.713</ele>
        <time>2019-04-21T11:34:51Z</time>
      </trkpt>
      <trkpt lat="40.815086" lon="-3.276325">
        <ele>852.725</ele>
        <time>2019-04-21T11:34:52Z</time>
      </trkpt>
      <trkpt lat="40.815185" lon="-3.276204">
        <ele>852.777</ele>
        <time>2019-04-21T11:34:53Z</time>
      </trkpt>
      <trkpt lat="40.815282" lon="-3.276084">
        <ele>851.561</ele>
        <time>2019-04-21T11:34:54Z</time>
      </trkpt>
      <trkpt lat="40.815381" lon="-3.275972">
        <ele>850.292</ele>
        <time>2019-04-21T11:34:55Z</time>
      </trkpt>
      <trkpt lat="40.815475" lon="-3.275858">
        <ele>849.044</ele>
        <time>2019-04-21T11:34:56Z</time>
      </trkpt>
      <trkpt lat="40.815570" lon="-3.275741">
        <ele>848.105</ele>
        <time>2019-04-21T11:34:57Z</time>
      </trkpt>
      <trkpt lat="40.815668" lon="-3.275625">
        <ele>847.415</ele>
        <time>2019-04-21T11:34:58Z</time>
      </trkpt>
      <trkpt lat="40.815768" lon="-3.275511">
        <ele>846.708</ele>
        <time>2019-04-21T11:34:59Z</time>
      </trkpt>
      <trkpt lat="40.815867" lon="-3.275396">
        <ele>845.937</ele>
        <time>2019-04-21T11:35:00Z</time>
      </trkpt>
      <trkpt lat="40.815966" lon="-3.275285">
        <ele>845.569</ele>
        <time>2019-04-21T11:35:01Z</time>
      </trkpt>
      <trkpt lat="40.816069" lon="-3.275181">
        <ele>845.029</ele>
        <time>2019-04-21T11:35:02Z</time>
      </trkpt>
      <trkpt lat="40.816173" lon="-3.275078">
        <ele>844.174</ele>
        <time>2019-04-21T11:35:03Z</time>
      </trkpt>
      <trkpt lat="40.816277" lon="-3.274975">
        <ele>842.246</ele>
        <time>2019-04-21T11:35:04Z</time>
      </trkpt>
      <trkpt lat="40.816383" lon="-3.274873">
        <ele>841.118</ele>
        <time>2019-04-21T11:35:05Z</time>
      </trkpt>
      <trkpt lat="40.816487" lon="-3.274768">
        <ele>839.972</ele>
        <time>2019-04-21T11:35:06Z</time>
      </trkpt>
      <trkpt lat="40.816583" lon="-3.274649">
        <ele>838.953</ele>
        <time>2019-04-21T11:35:07Z</time>
      </trkpt>
      <trkpt lat="40.816674" lon="-3.274522">
        <ele>838.357</ele>
        <time>2019-04-21T11:35:08Z</time>
      </trkpt>
      <trkpt lat="40.816757" lon="-3.274386">
        <ele>837.300</ele>
        <time>2019-04-21T11:35:09Z</time>
      </trkpt>
      <trkpt lat="40.816819" lon="-3.274236">
        <ele>836.220</ele>
        <time>2019-04-21T11:35:10Z</time>
      </trkpt>
      <trkpt lat="40.816873" lon="-3.274086">
        <ele>834.908</ele>
        <time>2019-04-21T11:35:11Z</time>
      </trkpt>
      <trkpt lat="40.816924" lon="-3.273938">
        <ele>833.868</ele>
        <time>2019-04-21T11:35:12Z</time>
      </trkpt>
      <trkpt lat="40.816978" lon="-3.273797">
        <ele>832.490</ele>
        <time>2019-04-21T11:35:13Z</time>
      </trkpt>
      <trkpt lat="40.817019" lon="-3.273648">
        <ele>831.870</ele>
        <time>2019-04-21T11:35:14Z</time>
      </trkpt>
      <trkpt lat="40.817067" lon="-3.273506">
        <ele>831.745</ele>
        <time>2019-04-21T11:35:15Z</time>
      </trkpt>
      <trkpt lat="40.817119" lon="-3.273367">
        <ele>831.797</ele>
        <time>2019-04-21T11:35:16Z</time>
      </trkpt>
      <trkpt lat="40.817170" lon="-3.273227">
        <ele>831.729</ele>
        <time>2019-04-21T11:35:17Z</time>
      </trkpt>
      <trkpt lat="40.817224" lon="-3.273082">
        <ele>832.123</ele>
        <time>2019-04-21T11:35:18Z</time>
      </trkpt>
      <trkpt lat="40.817279" lon="-3.272933">
        <ele>832.054</ele>
        <time>2019-04-21T11:35:19Z</time>
      </trkpt>
      <trkpt lat="40.817339" lon="-3.272788">
        <ele>832.056</ele>
        <time>2019-04-21T11:35:20Z</time>
      </trkpt>
      <trkpt lat="40.817395" lon="-3.272641">
        <ele>832.059</ele>
        <time>2019-04-21T11:35:21Z</time>
      </trkpt>
      <trkpt lat="40.817453" lon="-3.272503">
        <ele>831.714</ele>
        <time>2019-04-21T11:35:22Z</time>
      </trkpt>
      <trkpt lat="40.817509" lon="-3.272370">
        <ele>831.208</ele>
        <time>2019-04-21T11:35:23Z</time>
      </trkpt>
      <trkpt lat="40.817561" lon="-3.272237">
        <ele>830.748</ele>
        <time>2019-04-21T11:35:24Z</time>
      </trkpt>
      <trkpt lat="40.817614" lon="-3.272106">
        <ele>830.280</ele>
        <time>2019-04-21T11:35:25Z</time>
      </trkpt>
      <trkpt lat="40.817671" lon="-3.271976">
        <ele>830.240</ele>
        <time>2019-04-21T11:35:26Z</time>
      </trkpt>
      <trkpt lat="40.817734" lon="-3.271848">
        <ele>830.665</ele>
        <time>2019-04-21T11:35:27Z</time>
      </trkpt>
      <trkpt lat="40.817805" lon="-3.271726">
        <ele>831.277</ele>
        <time>2019-04-21T11:35:28Z</time>
      </trkpt>
      <trkpt lat="40.817871" lon="-3.271602">
        <ele>831.899</ele>
        <time>2019-04-21T11:35:29Z</time>
      </trkpt>
      <trkpt lat="40.817937" lon="-3.271481">
        <ele>831.863</ele>
        <time>2019-04-21T11:35:30Z</time>
      </trkpt>
      <trkpt lat="40.818003" lon="-3.271356">
        <ele>831.664</ele>
        <time>2019-04-21T11:35:31Z</time>
      </trkpt>
      <trkpt lat="40.818071" lon="-3.271231">
        <ele>830.884</ele>
        <time>2019-04-21T11:35:32Z</time>
      </trkpt>
      <trkpt lat="40.818134" lon="-3.271107">
        <ele>830.107</ele>
        <time>2019-04-21T11:35:33Z</time>
      </trkpt>
      <trkpt lat="40.818195" lon="-3.270986">
        <ele>830.117</ele>
        <time>2019-04-21T11:35:34Z</time>
      </trkpt>
      <trkpt lat="40.818258" lon="-3.270872">
        <ele>830.808</ele>
        <time>2019-04-21T11:35:35Z</time>
      </trkpt>
      <trkpt lat="40.818319" lon="-3.270760">
        <ele>831.891</ele>
        <time>2019-04-21T11:35:36Z</time>
      </trkpt>
      <trkpt lat="40.818378" lon="-3.270650">
        <ele>833.073</ele>
        <time>2019-04-21T11:35:37Z</time>
      </trkpt>
      <trkpt lat="40.818439" lon="-3.270543">
        <ele>834.173</ele>
        <time>2019-04-21T11:35:38Z</time>
      </trkpt>
      <trkpt lat="40.818494" lon="-3.270434">
        <ele>835.578</ele>
        <time>2019-04-21T11:35:39Z</time>
      </trkpt>
      <trkpt lat="40.818548" lon="-3.270322">
        <ele>837.270</ele>
        <time>2019-04-21T11:35:40Z</time>
      </trkpt>
      <trkpt lat="40.818603" lon="-3.270208">
        <ele>839.062</ele>
        <time>2019-04-21T11:35:41Z</time>
      </trkpt>
      <trkpt lat="40.818656" lon="-3.270091">
        <ele>840.736</ele>
        <time>2019-04-21T11:35:42Z</time>
      </trkpt>
      <trkpt lat="40.818717" lon="-3.269976">
        <ele>842.267</ele>
        <time>2019-04-21T11:35:43Z</time>
      </trkpt>
      <trkpt lat="40.818796" lon="-3.269875">
        <ele>843.376</ele>
        <time>2019-04-21T11:35:44Z</time>
      </trkpt>
      <trkpt lat="40.818885" lon="-3.269786">
        <ele>844.090</ele>
        <time>2019-04-21T11:35:45Z</time>
      </trkpt>
      <trkpt lat="40.818977" lon="-3.269695">
        <ele>844.519</ele>
        <time>2019-04-21T11:35:46Z</time>
      </trkpt>
      <trkpt lat="40.819072" lon="-3.269605">
        <ele>845.108</ele>
        <time>2019-04-21T11:35:47Z</time>
      </trkpt>
      <trkpt lat="40.819170" lon="-3.269516">
        <ele>845.660</ele>
        <time>2019-04-21T11:35:48Z</time>
      </trkpt>
      <trkpt lat="40.819269" lon="-3.269421">
        <ele>845.942</ele>
        <time>2019-04-21T11:35:49Z</time>
      </trkpt>
      <trkpt lat="40.819370" lon="-3.269325">
        <ele>846.382</ele>
        <time>2019-04-21T11:35:50Z</time>
      </trkpt>
      <trkpt lat="40.819473" lon="-3.269227">
        <ele>846.797</ele>
        <time>2019-04-21T11:35:51Z</time>
      </trkpt>
      <trkpt lat="40.819575" lon="-3.269124">
        <ele>846.819</ele>
        <time>2019-04-21T11:35:52Z</time>
      </trkpt>
      <trkpt lat="40.819675" lon="-3.269017">
        <ele>847.181</ele>
        <time>2019-04-21T11:35:53Z</time>
      </trkpt>
      <trkpt lat="40.819775" lon="-3.268915">
        <ele>847.485</ele>
        <time>2019-04-21T11:35:54Z</time>
      </trkpt>
      <trkpt lat="40.819873" lon="-3.268821">
        <ele>847.556</ele>
        <time>2019-04-21T11:35:55Z</time>
      </trkpt>
      <trkpt lat="40.819967" lon="-3.268732">
        <ele>847.534</ele>
        <time>2019-04-21T11:35:56Z</time>
      </trkpt>
      <trkpt lat="40.820057" lon="-3.268642">
        <ele>847.655</ele>
        <time>2019-04-21T11:35:57Z</time>
      </trkpt>
      <trkpt lat="40.820140" lon="-3.268546">
        <ele>847.810</ele>
        <time>2019-04-21T11:35:58Z</time>
      </trkpt>
      <trkpt lat="40.820206" lon="-3.268435">
        <ele>848.408</ele>
        <time>2019-04-21T11:35:59Z</time>
      </trkpt>
      <trkpt lat="40.820257" lon="-3.268304">
        <ele>849.366</ele>
        <time>2019-04-21T11:36:00Z</time>
      </trkpt>
      <trkpt lat="40.820287" lon="-3.268152">
        <ele>850.578</ele>
        <time>2019-04-21T11:36:01Z</time>
      </trkpt>
      <trkpt lat="40.820309" lon="-3.267994">
        <ele>852.028</ele>
        <time>2019-04-21T11:36:02Z</time>
      </trkpt>
      <trkpt lat="40.820330" lon="-3.267832">
        <ele>853.613</ele>
        <time>2019-04-21T11:36:03Z</time>
      </trkpt>
      <trkpt lat="40.820352" lon="-3.267670">
        <ele>854.895</ele>
        <time>2019-04-21T11:36:04Z</time>
      </trkpt>
      <trkpt lat="40.820375" lon="-3.267507">
        <ele>855.737</ele>
        <time>2019-04-21T11:36:05Z</time>
      </trkpt>
      <trkpt lat="40.820395" lon="-3.267338">
        <ele>855.821</ele>
        <time>2019-04-21T11:36:06Z</time>
      </trkpt>
      <trkpt lat="40.820418" lon="-3.267167">
        <ele>855.572</ele>
        <time>2019-04-21T11:36:07Z</time>
      </trkpt>
      <trkpt lat="40.820442" lon="-3.266995">
        <ele>855.142</ele>
        <time>2019-04-21T11:36:08Z</time>
      </trkpt>
      <trkpt lat="40.820466" lon="-3.266823">
        <ele>855.122</ele>
        <time>2019-04-21T11:36:09Z</time>
      </trkpt>
      <trkpt lat="40.820486" lon="-3.266653">
        <ele>855.314</ele>
        <time>2019-04-21T11:36:10Z</time>
      </trkpt>
      <trkpt lat="40.820509" lon="-3.266485">
        <ele>855.308</ele>
        <time>2019-04-21T11:36:11Z</time>
      </trkpt>
      <trkpt lat="40.820536" lon="-3.266317">
        <ele>855.127</ele>
        <time>2019-04-21T11:36:12Z</time>
      </trkpt>
      <trkpt lat="40.820563" lon="-3.266147">
        <ele>855.119</ele>
        <time>2019-04-21T11:36:13Z</time>
      </trkpt>
      <trkpt lat="40.820588" lon="-3.265976">
        <ele>855.179</ele>
        <time>2019-04-21T11:36:14Z</time>
      </trkpt>
      <trkpt lat="40.820614" lon="-3.265806">
        <ele>855.364</ele>
        <time>2019-04-21T11:36:15Z</time>
      </trkpt>
      <trkpt lat="40.820638" lon="-3.265637">
        <ele>855.746</ele>
        <time>2019-04-21T11:36:16Z</time>
      </trkpt>
      <trkpt lat="40.820661" lon="-3.265471">
        <ele>856.148</ele>
        <time>2019-04-21T11:36:17Z</time>
      </trkpt>
      <trkpt lat="40.820685" lon="-3.265308">
        <ele>856.472</ele>
        <time>2019-04-21T11:36:18Z</time>
      </trkpt>
      <trkpt lat="40.820707" lon="-3.265148">
        <ele>856.413</ele>
        <time>2019-04-21T11:36:19Z</time>
      </trkpt>
      <trkpt lat="40.820727" lon="-3.264993">
        <ele>856.448</ele>
        <time>2019-04-21T11:36:20Z</time>
      </trkpt>
      <trkpt lat="40.820745" lon="-3.264850">
        <ele>855.661</ele>
        <time>2019-04-21T11:36:21Z</time>
      </trkpt>
      <trkpt lat="40.820763" lon="-3.264721">
        <ele>854.617</ele>
        <time>2019-04-21T11:36:22Z</time>
      </trkpt>
      <trkpt lat="40.820780" lon="-3.264603">
        <ele>853.408</ele>
        <time>2019-04-21T11:36:23Z</time>
      </trkpt>
      <trkpt lat="40.820798" lon="-3.264496">
        <ele>851.927</ele>
        <time>2019-04-21T11:36:24Z</time>
      </trkpt>
      <trkpt lat="40.820812" lon="-3.264396">
        <ele>850.629</ele>
        <time>2019-04-21T11:36:25Z</time>
      </trkpt>
      <trkpt lat="40.820826" lon="-3.264299">
        <ele>849.369</ele>
        <time>2019-04-21T11:36:26Z</time>
      </trkpt>
      <trkpt lat="40.820840" lon="-3.264202">
        <ele>848.594</ele>
        <time>2019-04-21T11:36:27Z</time>
      </trkpt>
      <trkpt lat="40.820854" lon="-3.264105">
        <ele>847.846</ele>
        <time>2019-04-21T11:36:28Z</time>
      </trkpt>
      <trkpt lat="40.820865" lon="-3.264010">
        <ele>847.338</ele>
        <time>2019-04-21T11:36:29Z</time>
      </trkpt>
      <trkpt lat="40.820877" lon="-3.263927">
        <ele>846.692</ele>
        <time>2019-04-21T11:36:30Z</time>
      </trkpt>
      <trkpt lat="40.820884" lon="-3.263854">
        <ele>846.123</ele>
        <time>2019-04-21T11:36:31Z</time>
      </trkpt>
      <trkpt lat="40.820888" lon="-3.263786">
        <ele>845.317</ele>
        <time>2019-04-21T11:36:32Z</time>
      </trkpt>
      <trkpt lat="40.820896" lon="-3.263720">
        <ele>844.587</ele>
        <time>2019-04-21T11:36:33Z</time>
      </trkpt>
      <trkpt lat="40.820906" lon="-3.263659">
        <ele>843.715</ele>
        <time>2019-04-21T11:36:34Z</time>
      </trkpt>
      <trkpt lat="40.820911" lon="-3.263598">
        <ele>843.208</ele>
        <time>2019-04-21T11:36:35Z</time>
      </trkpt>
      <trkpt lat="40.820916" lon="-3.263539">
        <ele>843.014</ele>
        <time>2019-04-21T11:36:36Z</time>
      </trkpt>
      <trkpt lat="40.820938" lon="-3.263434">
        <ele>842.336</ele>
        <time>2019-04-21T11:36:38Z</time>
      </trkpt>
      <trkpt lat="40.820950" lon="-3.263341">
        <ele>841.066</ele>
        <time>2019-04-21T11:36:40Z</time>
      </trkpt>
      <trkpt lat="40.820945" lon="-3.263280">
        <ele>840.551</ele>
        <time>2019-04-21T11:36:41Z</time>
      </trkpt>
      <trkpt lat="40.820954" lon="-3.263193">
        <ele>840.443</ele>
        <time>2019-04-21T11:36:42Z</time>
      </trkpt>
      <trkpt lat="40.820995" lon="-3.263089">
        <ele>840.465</ele>
        <time>2019-04-21T11:36:43Z</time>
      </trkpt>
      <trkpt lat="40.821020" lon="-3.262974">
        <ele>840.569</ele>
        <time>2019-04-21T11:36:44Z</time>
      </trkpt>
      <trkpt lat="40.821042" lon="-3.262859">
        <ele>840.610</ele>
        <time>2019-04-21T11:36:45Z</time>
      </trkpt>
      <trkpt lat="40.821072" lon="-3.262741">
        <ele>840.616</ele>
        <time>2019-04-21T11:36:46Z</time>
      </trkpt>
      <trkpt lat="40.821081" lon="-3.262612">
        <ele>840.976</ele>
        <time>2019-04-21T11:36:47Z</time>
      </trkpt>
      <trkpt lat="40.821091" lon="-3.262484">
        <ele>841.013</ele>
        <time>2019-04-21T11:36:48Z</time>
      </trkpt>
      <trkpt lat="40.821098" lon="-3.262363">
        <ele>841.208</ele>
        <time>2019-04-21T11:36:49Z</time>
      </trkpt>
      <trkpt lat="40.821106" lon="-3.262247">
        <ele>841.494</ele>
        <time>2019-04-21T11:36:50Z</time>
      </trkpt>
      <trkpt lat="40.821116" lon="-3.262137">
        <ele>841.546</ele>
        <time>2019-04-21T11:36:51Z</time>
      </trkpt>
      <trkpt lat="40.821127" lon="-3.262034">
        <ele>841.146</ele>
        <time>2019-04-21T11:36:52Z</time>
      </trkpt>
      <trkpt lat="40.821139" lon="-3.261937">
        <ele>840.861</ele>
        <time>2019-04-21T11:36:53Z</time>
      </trkpt>
      <trkpt lat="40.821142" lon="-3.261844">
        <ele>840.333</ele>
        <time>2019-04-21T11:36:54Z</time>
      </trkpt>
      <trkpt lat="40.821155" lon="-3.261752">
        <ele>839.815</ele>
        <time>2019-04-21T11:36:55Z</time>
      </trkpt>
      <trkpt lat="40.821166" lon="-3.261662">
        <ele>839.169</ele>
        <time>2019-04-21T11:36:56Z</time>
      </trkpt>
      <trkpt lat="40.821177" lon="-3.261572">
        <ele>838.470</ele>
        <time>2019-04-21T11:36:57Z</time>
      </trkpt>
      <trkpt lat="40.821185" lon="-3.261478">
        <ele>837.968</ele>
        <time>2019-04-21T11:36:58Z</time>
      </trkpt>
      <trkpt lat="40.821195" lon="-3.261378">
        <ele>837.542</ele>
        <time>2019-04-21T11:36:59Z</time>
      </trkpt>
      <trkpt lat="40.821204" lon="-3.261276">
        <ele>837.326</ele>
        <time>2019-04-21T11:37:00Z</time>
      </trkpt>
      <trkpt lat="40.821214" lon="-3.261175">
        <ele>837.308</ele>
        <time>2019-04-21T11:37:01Z</time>
      </trkpt>
      <trkpt lat="40.821224" lon="-3.261077">
        <ele>837.589</ele>
        <time>2019-04-21T11:37:02Z</time>
      </trkpt>
      <trkpt lat="40.821245" lon="-3.260987">
        <ele>837.631</ele>
        <time>2019-04-21T11:37:03Z</time>
      </trkpt>
      <trkpt lat="40.821267" lon="-3.260900">
        <ele>837.611</ele>
        <time>2019-04-21T11:37:04Z</time>
      </trkpt>
      <trkpt lat="40.821289" lon="-3.260816">
        <ele>837.536</ele>
        <time>2019-04-21T11:37:05Z</time>
      </trkpt>
      <trkpt lat="40.821307" lon="-3.260737">
        <ele>837.018</ele>
        <time>2019-04-21T11:37:06Z</time>
      </trkpt>
      <trkpt lat="40.821322" lon="-3.260659">
        <ele>835.840</ele>
        <time>2019-04-21T11:37:07Z</time>
      </trkpt>
      <trkpt lat="40.821345" lon="-3.260585">
        <ele>835.434</ele>
        <time>2019-04-21T11:37:08Z</time>
      </trkpt>
      <trkpt lat="40.821368" lon="-3.260510">
        <ele>835.045</ele>
        <time>2019-04-21T11:37:09Z</time>
      </trkpt>
      <trkpt lat="40.821387" lon="-3.260433">
        <ele>834.793</ele>
        <time>2019-04-21T11:37:10Z</time>
      </trkpt>
      <trkpt lat="40.821419" lon="-3.260365">
        <ele>834.365</ele>
        <time>2019-04-21T11:37:11Z</time>
      </trkpt>
      <trkpt lat="40.821449" lon="-3.260300">
        <ele>833.921</ele>
        <time>2019-04-21T11:37:12Z</time>
      </trkpt>
      <trkpt lat="40.821475" lon="-3.260241">
        <ele>833.308</ele>
        <time>2019-04-21T11:37:13Z</time>
      </trkpt>
      <trkpt lat="40.821517" lon="-3.260167">
        <ele>832.032</ele>
        <time>2019-04-21T11:37:15Z</time>
      </trkpt>
      <trkpt lat="40.821581" lon="-3.260046">
        <ele>830.014</ele>
        <time>2019-04-21T11:43:26Z</time>
      </trkpt>
      <trkpt lat="40.821547" lon="-3.260096">
        <ele>829.994</ele>
        <time>2019-04-21T11:43:32Z</time>
      </trkpt>
      <trkpt lat="40.821551" lon="-3.260158">
        <ele>830.339</ele>
        <time>2019-04-21T11:43:58Z</time>
      </trkpt>
      <trkpt lat="40.821563" lon="-3.260064">
        <ele>829.831</ele>
        <time>2019-04-21T11:44:08Z</time>
      </trkpt>
      <trkpt lat="40.821565" lon="-3.259970">
        <ele>830.093</ele>
        <time>2019-04-21T11:44:10Z</time>
      </trkpt>
      <trkpt lat="40.821589" lon="-3.259866">
        <ele>830.697</ele>
        <time>2019-04-21T11:44:12Z</time>
      </trkpt>
      <trkpt lat="40.821631" lon="-3.259762">
        <ele>830.758</ele>
        <time>2019-04-21T11:44:14Z</time>
      </trkpt>
      <trkpt lat="40.821665" lon="-3.259662">
        <ele>830.977</ele>
        <time>2019-04-21T11:44:16Z</time>
      </trkpt>
      <trkpt lat="40.821713" lon="-3.259586">
        <ele>830.861</ele>
        <time>2019-04-21T11:44:18Z</time>
      </trkpt>
      <trkpt lat="40.821740" lon="-3.259505">
        <ele>830.727</ele>
        <time>2019-04-21T11:44:20Z</time>
      </trkpt>
      <trkpt lat="40.821757" lon="-3.259417">
        <ele>830.608</ele>
        <time>2019-04-21T11:44:22Z</time>
      </trkpt>
      <trkpt lat="40.821801" lon="-3.259342">
        <ele>830.670</ele>
        <time>2019-04-21T11:44:24Z</time>
      </trkpt>
      <trkpt lat="40.821832" lon="-3.259251">
        <ele>830.762</ele>
        <time>2019-04-21T11:44:26Z</time>
      </trkpt>
      <trkpt lat="40.821849" lon="-3.259150">
        <ele>831.442</ele>
        <time>2019-04-21T11:44:28Z</time>
      </trkpt>
      <trkpt lat="40.821878" lon="-3.259050">
        <ele>831.287</ele>
        <time>2019-04-21T11:44:30Z</time>
      </trkpt>
      <trkpt lat="40.821905" lon="-3.258956">
        <ele>830.149</ele>
        <time>2019-04-21T11:44:32Z</time>
      </trkpt>
      <trkpt lat="40.821922" lon="-3.258855">
        <ele>828.721</ele>
        <time>2019-04-21T11:44:34Z</time>
      </trkpt>
      <trkpt lat="40.696699" lon="-3.337041">
        <ele>731.055</ele>
        <time>2014-07-04T21:38:45Z</time>
      </trkpt>
      <trkpt lat="40.696781" lon="-3.336810">
        <ele>731.007</ele>
        <time>2014-07-04T21:39:05Z</time>
      </trkpt>
      <trkpt lat="40.697090" lon="-3.336381">
        <ele>728.017</ele>
        <time>2014-07-04T21:39:25Z</time>
      </trkpt>
      <trkpt lat="40.697456" lon="-3.336145">
        <ele>728.007</ele>
        <time>2014-07-04T21:39:45Z</time>
      </trkpt>
      <trkpt lat="40.699533" lon="-3.335128">
        <ele>734.072</ele>
        <time>2014-07-04T21:40:05Z</time>
      </trkpt>
      <trkpt lat="40.701639" lon="-3.334238">
        <ele>737.017</ele>
        <time>2014-07-04T21:40:25Z</time>
      </trkpt>
      <trkpt lat="40.703819" lon="-3.333766">
        <ele>742.097</ele>
        <time>2014-07-04T21:40:45Z</time>
      </trkpt>
      <trkpt lat="40.706015" lon="-3.333380">
        <ele>743.036</ele>
        <time>2014-07-04T21:41:05Z</time>
      </trkpt>
      <trkpt lat="40.708154" lon="-3.332639">
        <ele>743.043</ele>
        <time>2014-07-04T21:41:25Z</time>
      </trkpt>
      <trkpt lat="40.709138" lon="-3.332339">
        <ele>744.011</ele>
        <time>2014-07-04T21:41:45Z</time>
      </trkpt>
      <trkpt lat="40.710309" lon="-3.331802">
        <ele>742.021</ele>
        <time>2014-07-04T21:42:05Z</time>
      </trkpt>
      <trkpt lat="40.711155" lon="-3.330869">
        <ele>743.026</ele>
        <time>2014-07-04T21:42:25Z</time>
      </trkpt>
      <trkpt lat="40.712692" lon="-3.329968">
        <ele>746.047</ele>
        <time>2014-07-04T21:42:45Z</time>
      </trkpt>
      <trkpt lat="40.713611" lon="-3.330064">
        <ele>748.011</ele>
        <time>2014-07-04T21:43:05Z</time>
      </trkpt>
      <trkpt lat="40.714180" lon="-3.330290">
        <ele>747.007</ele>
        <time>2014-07-04T21:43:25Z</time>
      </trkpt>
      <trkpt lat="40.714920" lon="-3.330258">
        <ele>747.059</ele>
        <time>2014-07-04T21:43:45Z</time>
      </trkpt>
      <trkpt lat="40.716766" lon="-3.331127">
        <ele>750.064</ele>
        <time>2014-07-04T21:44:05Z</time>
      </trkpt>
      <trkpt lat="40.718970" lon="-3.331427">
        <ele>757.024</ele>
        <time>2014-07-04T21:44:25Z</time>
      </trkpt>
      <trkpt lat="40.719791" lon="-3.331513">
        <ele>756.053</ele>
        <time>2014-07-04T21:44:45Z</time>
      </trkpt>
      <trkpt lat="40.721393" lon="-3.332199">
        <ele>755.050</ele>
        <time>2014-07-04T21:45:05Z</time>
      </trkpt>
      <trkpt lat="40.722857" lon="-3.332554">
        <ele>758.048</ele>
        <time>2014-07-04T21:45:25Z</time>
      </trkpt>
      <trkpt lat="40.723214" lon="-3.332811">
        <ele>758.088</ele>
        <time>2014-07-04T21:45:45Z</time>
      </trkpt>
      <trkpt lat="40.725361" lon="-3.333519">
        <ele>760.011</ele>
        <time>2014-07-04T21:46:05Z</time>
      </trkpt>
      <trkpt lat="40.726979" lon="-3.334334">
        <ele>761.021</ele>
        <time>2014-07-04T21:46:25Z</time>
      </trkpt>
      <trkpt lat="40.727621" lon="-3.335064">
        <ele>763.003</ele>
        <time>2014-07-04T21:46:45Z</time>
      </trkpt>
      <trkpt lat="40.728199" lon="-3.335418">
        <ele>763.007</ele>
        <time>2014-07-04T21:47:05Z</time>
      </trkpt>
      <trkpt lat="40.729134" lon="-3.335590">
        <ele>760.028</ele>
        <time>2014-07-04T21:47:25Z</time>
      </trkpt>
      <trkpt lat="40.730312" lon="-3.335193">
        <ele>760.093</ele>
        <time>2014-07-04T21:47:45Z</time>
      </trkpt>
      <trkpt lat="40.731020" lon="-3.335268">
        <ele>760.083</ele>
        <time>2014-07-04T21:48:05Z</time>
      </trkpt>
      <trkpt lat="40.732719" lon="-3.336073">
        <ele>763.042</ele>
        <time>2014-07-04T21:48:25Z</time>
      </trkpt>
      <trkpt lat="40.734792" lon="-3.335053">
        <ele>764.099</ele>
        <time>2014-07-04T21:48:45Z</time>
      </trkpt>
      <trkpt lat="40.736467" lon="-3.334796">
        <ele>768.037</ele>
        <time>2014-07-04T21:49:05Z</time>
      </trkpt>
      <trkpt lat="40.736922" lon="-3.334892">
        <ele>768.027</ele>
        <time>2014-07-04T21:49:25Z</time>
      </trkpt>
      <trkpt lat="40.738280" lon="-3.333927">
        <ele>769.076</ele>
        <time>2014-07-04T21:49:45Z</time>
      </trkpt>
      <trkpt lat="40.740279" lon="-3.334324">
        <ele>770.090</ele>
        <time>2014-07-04T21:50:05Z</time>
      </trkpt>
      <trkpt lat="40.740686" lon="-3.334259">
        <ele>771.019</ele>
        <time>2014-07-04T21:50:25Z</time>
      </trkpt>
      <trkpt lat="40.741702" lon="-3.334699">
        <ele>773.007</ele>
        <time>2014-07-04T21:50:45Z</time>
      </trkpt>
      <trkpt lat="40.742100" lon="-3.334388">
        <ele>773.034</ele>
        <time>2014-07-04T21:51:05Z</time>
      </trkpt>
      <trkpt lat="40.742921" lon="-3.334420">
        <ele>774.059</ele>
        <time>2014-07-04T21:51:25Z</time>
      </trkpt>
      <trkpt lat="40.743596" lon="-3.333895">
        <ele>776.099</ele>
        <time>2014-07-04T21:51:45Z</time>
      </trkpt>
      <trkpt lat="40.745344" lon="-3.333176">
        <ele>784.028</ele>
        <time>2014-07-04T21:52:05Z</time>
      </trkpt>
      <trkpt lat="40.745945" lon="-3.333744">
        <ele>781.095</ele>
        <time>2014-07-04T21:52:25Z</time>
      </trkpt>
      <trkpt lat="40.746191" lon="-3.333679">
        <ele>782.013</ele>
        <time>2014-07-04T21:52:45Z</time>
      </trkpt>
      <trkpt lat="40.746953" lon="-3.334109">
        <ele>781.033</ele>
        <time>2014-07-04T21:53:05Z</time>
      </trkpt>
      <trkpt lat="40.747075" lon="-3.334581">
        <ele>780.052</ele>
        <time>2014-07-04T21:53:25Z</time>
      </trkpt>
      <trkpt lat="40.747441" lon="-3.334903">
        <ele>780.053</ele>
        <time>2014-07-04T21:53:45Z</time>
      </trkpt>
      <trkpt lat="40.748018" lon="-3.334967">
        <ele>781.008</ele>
        <time>2014-07-04T21:54:05Z</time>
      </trkpt>
      <trkpt lat="40.748692" lon="-3.334699">
        <ele>782.007</ele>
        <time>2014-07-04T21:54:25Z</time>
      </trkpt>
      <trkpt lat="40.749456" lon="-3.334635">
        <ele>781.082</ele>
        <time>2014-07-04T21:54:45Z</time>
      </trkpt>
      <trkpt lat="40.749985" lon="-3.334410">
        <ele>781.047</ele>
        <time>2014-07-04T21:55:05Z</time>
      </trkpt>
      <trkpt lat="40.751058" lon="-3.334581">
        <ele>782.037</ele>
        <time>2014-07-04T21:55:25Z</time>
      </trkpt>
      <trkpt lat="40.752577" lon="-3.335643">
        <ele>781.036</ele>
        <time>2014-07-04T21:55:45Z</time>
      </trkpt>
      <trkpt lat="40.754081" lon="-3.336094">
        <ele>783.093</ele>
        <time>2014-07-04T21:56:05Z</time>
      </trkpt>
      <trkpt lat="40.755593" lon="-3.335719">
        <ele>783.021</ele>
        <time>2014-07-04T21:56:25Z</time>
      </trkpt>
      <trkpt lat="40.756202" lon="-3.335761">
        <ele>783.011</ele>
        <time>2014-07-04T21:56:45Z</time>
      </trkpt>
      <trkpt lat="40.756844" lon="-3.335461">
        <ele>784.013</ele>
        <time>2014-07-04T21:57:05Z</time>
      </trkpt>
      <trkpt lat="40.758445" lon="-3.335482">
        <ele>788.043</ele>
        <time>2014-07-04T21:57:25Z</time>
      </trkpt>
      <trkpt lat="40.759298" lon="-3.335279">
        <ele>790.007</ele>
        <time>2014-07-04T21:57:45Z</time>
      </trkpt>
      <trkpt lat="40.760160" lon="-3.335482">
        <ele>789.007</ele>
        <time>2014-07-04T21:58:05Z</time>
      </trkpt>
      <trkpt lat="40.761021" lon="-3.335311">
        <ele>791.088</ele>
        <time>2014-07-04T21:58:25Z</time>
      </trkpt>
      <trkpt lat="40.762045" lon="-3.334892">
        <ele>790.073</ele>
        <time>2014-07-04T21:58:45Z</time>
      </trkpt>
      <trkpt lat="40.763045" lon="-3.334839">
        <ele>793.053</ele>
        <time>2014-07-04T21:59:05Z</time>
      </trkpt>
      <trkpt lat="40.763662" lon="-3.334699">
        <ele>794.092</ele>
        <time>2014-07-04T21:59:25Z</time>
      </trkpt>
      <trkpt lat="40.764093" lon="-3.334828">
        <ele>794.029</ele>
        <time>2014-07-04T21:59:45Z</time>
      </trkpt>
      <trkpt lat="40.764540" lon="-3.334667">
        <ele>794.067</ele>
        <time>2014-07-04T22:00:05Z</time>
      </trkpt>
      <trkpt lat="40.766441" lon="-3.335193">
        <ele>797.017</ele>
        <time>2014-07-04T22:00:25Z</time>
      </trkpt>
      <trkpt lat="40.767026" lon="-3.335643">
        <ele>797.086</ele>
        <time>2014-07-04T22:00:45Z</time>
      </trkpt>
      <trkpt lat="40.768505" lon="-3.336008">
        <ele>802.060</ele>
        <time>2014-07-04T22:01:05Z</time>
      </trkpt>
      <trkpt lat="40.769757" lon="-3.335225">
        <ele>797.026</ele>
        <time>2014-07-04T22:01:25Z</time>
      </trkpt>
      <trkpt lat="40.771008" lon="-3.335193">
        <ele>803.007</ele>
        <time>2014-07-04T22:01:45Z</time>
      </trkpt>
      <trkpt lat="40.771853" lon="-3.335676">
        <ele>804.065</ele>
        <time>2014-07-04T22:02:05Z</time>
      </trkpt>
      <trkpt lat="40.773730" lon="-3.335525">
        <ele>805.080</ele>
        <time>2014-07-04T22:02:25Z</time>
      </trkpt>
      <trkpt lat="40.774225" lon="-3.335665">
        <ele>806.030</ele>
        <time>2014-07-04T22:02:45Z</time>
      </trkpt>
      <trkpt lat="40.775940" lon="-3.336856">
        <ele>809.079</ele>
        <time>2014-07-04T22:03:05Z</time>
      </trkpt>
      <trkpt lat="40.776541" lon="-3.336824">
        <ele>810.046</ele>
        <time>2014-07-04T22:03:25Z</time>
      </trkpt>
      <trkpt lat="40.777232" lon="-3.336470">
        <ele>810.044</ele>
        <time>2014-07-04T22:03:45Z</time>
      </trkpt>
      <trkpt lat="40.777849" lon="-3.336309">
        <ele>811.044</ele>
        <time>2014-07-04T22:04:05Z</time>
      </trkpt>
      <trkpt lat="40.778962" lon="-3.335600">
        <ele>813.089</ele>
        <time>2014-07-04T22:04:25Z</time>
      </trkpt>
      <trkpt lat="40.779978" lon="-3.335472">
        <ele>813.006</ele>
        <time>2014-07-04T22:04:45Z</time>
      </trkpt>
      <trkpt lat="40.781164" lon="-3.334656">
        <ele>817.026</ele>
        <time>2014-07-04T22:05:05Z</time>
      </trkpt>
      <trkpt lat="40.783333" lon="-3.334292">
        <ele>820.007</ele>
        <time>2014-07-04T22:05:25Z</time>
      </trkpt>
      <trkpt lat="40.784259" lon="-3.333583">
        <ele>823.065</ele>
        <time>2014-07-04T22:05:45Z</time>
      </trkpt>
      <trkpt lat="40.785339" lon="-3.333111">
        <ele>822.040</ele>
        <time>2014-07-04T22:06:05Z</time>
      </trkpt>
      <trkpt lat="40.785950" lon="-3.332342">
        <ele>823.040</ele>
        <time>2014-07-04T22:06:25Z</time>
      </trkpt>
      <trkpt lat="40.786576" lon="-3.331923">
        <ele>822.039</ele>
        <time>2014-07-04T22:06:45Z</time>
      </trkpt>
      <trkpt lat="40.786990" lon="-3.331832">
        <ele>822.016</ele>
        <time>2014-07-04T22:07:05Z</time>
      </trkpt>
      <trkpt lat="40.787680" lon="-3.331473">
        <ele>823.024</ele>
        <time>2014-07-04T22:07:25Z</time>
      </trkpt>
      <trkpt lat="40.787892" lon="-3.331526">
        <ele>823.084</ele>
        <time>2014-07-04T22:07:45Z</time>
      </trkpt>
      <trkpt lat="40.788046" lon="-3.331918">
        <ele>824.073</ele>
        <time>2014-07-04T22:08:05Z</time>
      </trkpt>
      <trkpt lat="40.788184" lon="-3.332052">
        <ele>824.085</ele>
        <time>2014-07-04T22:08:25Z</time>
      </trkpt>
      <trkpt lat="40.788477" lon="-3.332508">
        <ele>827.013</ele>
        <time>2014-07-04T22:08:45Z</time>
      </trkpt>
      <trkpt lat="40.788956" lon="-3.332964">
        <ele>830.007</ele>
        <time>2014-07-04T22:09:05Z</time>
      </trkpt>
      <trkpt lat="40.789350" lon="-3.333377">
        <ele>832.044</ele>
        <time>2014-07-04T22:09:25Z</time>
      </trkpt>
      <trkpt lat="40.789817" lon="-3.333570">
        <ele>832.019</ele>
        <time>2014-07-04T22:09:45Z</time>
      </trkpt>
      <trkpt lat="40.790324" lon="-3.333720">
        <ele>832.019</ele>
        <time>2014-07-04T22:10:05Z</time>
      </trkpt>
      <trkpt lat="40.790808" lon="-3.334010">
        <ele>835.048</ele>
        <time>2014-07-04T22:10:25Z</time>
      </trkpt>
      <trkpt lat="40.791315" lon="-3.335110">
        <ele>839.025</ele>
        <time>2014-07-04T22:10:45Z</time>
      </trkpt>
      <trkpt lat="40.791734" lon="-3.335651">
        <ele>840.093</ele>
        <time>2014-07-04T22:11:05Z</time>
      </trkpt>
      <trkpt lat="40.791941" lon="-3.335984">
        <ele>842.013</ele>
        <time>2014-07-04T22:11:25Z</time>
      </trkpt>
      <trkpt lat="40.792367" lon="-3.336370">
        <ele>844.012</ele>
        <time>2014-07-04T22:11:45Z</time>
      </trkpt>
      <trkpt lat="40.792713" lon="-3.336778">
        <ele>846.032</ele>
        <time>2014-07-04T22:12:05Z</time>
      </trkpt>
      <trkpt lat="40.792790" lon="-3.337030">
        <ele>846.005</ele>
        <time>2014-07-04T22:12:25Z</time>
      </trkpt>
      <trkpt lat="40.792977" lon="-3.337459">
        <ele>848.007</ele>
        <time>2014-07-04T22:12:45Z</time>
      </trkpt>
      <trkpt lat="40.793310" lon="-3.337631">
        <ele>849.038</ele>
        <time>2014-07-04T22:13:05Z</time>
      </trkpt>
      <trkpt lat="40.794264" lon="-3.337121">
        <ele>850.073</ele>
        <time>2014-07-04T22:13:25Z</time>
      </trkpt>
      <trkpt lat="40.795231" lon="-3.338479">
        <ele>858.073</ele>
        <time>2014-07-04T22:13:45Z</time>
      </trkpt>
      <trkpt lat="40.795462" lon="-3.339181">
        <ele>860.042</ele>
        <time>2014-07-04T22:14:05Z</time>
      </trkpt>
      <trkpt lat="40.794792" lon="-3.341461">
        <ele>885.099</ele>
        <time>2014-07-04T22:14:25Z</time>
      </trkpt>
      <trkpt lat="40.794528" lon="-3.341708">
        <ele>887.077</ele>
        <time>2014-07-04T22:14:45Z</time>
      </trkpt>
      <trkpt lat="40.794451" lon="-3.341837">
        <ele>890.047</ele>
        <time>2014-07-04T22:15:05Z</time>
      </trkpt>
      <trkpt lat="40.795198" lon="-3.342185">
        <ele>892.054</ele>
        <time>2014-07-04T22:15:25Z</time>
      </trkpt>
      <trkpt lat="40.796623" lon="-3.343559">
        <ele>892.056</ele>
        <time>2014-07-04T22:15:45Z</time>
      </trkpt>
      <trkpt lat="40.797635" lon="-3.345039">
        <ele>896.011</ele>
        <time>2014-07-04T22:16:05Z</time>
      </trkpt>
      <trkpt lat="40.797712" lon="-3.345270">
        <ele>897.007</ele>
        <time>2014-07-04T22:16:25Z</time>
      </trkpt>
      <trkpt lat="40.797862" lon="-3.345281">
        <ele>897.032</ele>
        <time>2014-07-04T22:16:45Z</time>
      </trkpt>
      <trkpt lat="40.797903" lon="-3.345109">
        <ele>897.047</ele>
        <time>2014-07-04T22:17:05Z</time>
      </trkpt>
      <trkpt lat="40.797996" lon="-3.344766">
        <ele>897.047</ele>
        <time>2014-07-04T22:17:25Z</time>
      </trkpt>
      <trkpt lat="40.798118" lon="-3.344610">
        <ele>897.016</ele>
        <time>2014-07-04T22:17:45Z</time>
      </trkpt>
      <trkpt lat="40.798341" lon="-3.344664">
        <ele>897.063</ele>
        <time>2014-07-04T22:18:05Z</time>
      </trkpt>
      <trkpt lat="40.800055" lon="-3.344277">
        <ele>894.051</ele>
        <time>2014-07-04T22:18:25Z</time>
      </trkpt>
      <trkpt lat="40.800327" lon="-3.343677">
        <ele>893.021</ele>
        <time>2014-07-04T22:18:45Z</time>
      </trkpt>
      <trkpt lat="40.800603" lon="-3.343296">
        <ele>894.099</ele>
        <time>2014-07-04T22:19:05Z</time>
      </trkpt>
      <trkpt lat="40.801001" lon="-3.342502">
        <ele>894.007</ele>
        <time>2014-07-04T22:19:25Z</time>
      </trkpt>
      <trkpt lat="40.801245" lon="-3.342314">
        <ele>893.027</ele>
        <time>2014-07-04T22:19:45Z</time>
      </trkpt>
      <trkpt lat="40.801777" lon="-3.341697">
        <ele>892.007</ele>
        <time>2014-07-04T22:20:05Z</time>
      </trkpt>
      <trkpt lat="40.802175" lon="-3.341563">
        <ele>892.016</ele>
        <time>2014-07-04T22:20:25Z</time>
      </trkpt>
      <trkpt lat="40.802431" lon="-3.341306">
        <ele>892.061</ele>
        <time>2014-07-04T22:20:45Z</time>
      </trkpt>
      <trkpt lat="40.802552" lon="-3.340109">
        <ele>885.071</ele>
        <time>2014-07-04T22:21:05Z</time>
      </trkpt>
      <trkpt lat="40.802540" lon="-3.339809">
        <ele>883.070</ele>
        <time>2014-07-04T22:21:25Z</time>
      </trkpt>
      <trkpt lat="40.802674" lon="-3.339348">
        <ele>881.077</ele>
        <time>2014-07-04T22:21:45Z</time>
      </trkpt>
      <trkpt lat="40.802780" lon="-3.339208">
        <ele>880.035</ele>
        <time>2014-07-04T22:22:05Z</time>
      </trkpt>
      <trkpt lat="40.803117" lon="-3.338173">
        <ele>873.025</ele>
        <time>2014-07-04T22:22:25Z</time>
      </trkpt>
      <trkpt lat="40.803324" lon="-3.337121">
        <ele>868.042</ele>
        <time>2014-07-04T22:22:45Z</time>
      </trkpt>
      <trkpt lat="40.803426" lon="-3.336932">
        <ele>866.022</ele>
        <time>2014-07-04T22:23:05Z</time>
      </trkpt>
      <trkpt lat="40.803753" lon="-3.336691">
        <ele>862.014</ele>
        <time>2014-07-04T22:23:25Z</time>
      </trkpt>
      <trkpt lat="40.803798" lon="-3.336541">
        <ele>862.007</ele>
        <time>2014-07-04T22:23:45Z</time>
      </trkpt>
      <trkpt lat="40.803897" lon="-3.336436">
        <ele>862.011</ele>
        <time>2014-07-04T22:24:05Z</time>
      </trkpt>
      <trkpt lat="40.803901" lon="-3.336283">
        <ele>862.086</ele>
        <time>2014-07-04T22:24:25Z</time>
      </trkpt>
      <trkpt lat="40.804062" lon="-3.335854">
        <ele>859.026</ele>
        <time>2014-07-04T22:24:45Z</time>
      </trkpt>
      <trkpt lat="40.804076" lon="-3.335666">
        <ele>857.045</ele>
        <time>2014-07-04T22:25:05Z</time>
      </trkpt>
      <trkpt lat="40.804204" lon="-3.335572">
        <ele>857.012</ele>
        <time>2014-07-04T22:25:25Z</time>
      </trkpt>
      <trkpt lat="40.804265" lon="-3.335183">
        <ele>856.010</ele>
        <time>2014-07-04T22:25:45Z</time>
      </trkpt>
      <trkpt lat="40.804441" lon="-3.334942">
        <ele>854.010</ele>
        <time>2014-07-04T22:26:05Z</time>
      </trkpt>
      <trkpt lat="40.804604" lon="-3.335191">
        <ele>855.018</ele>
        <time>2014-07-04T22:26:25Z</time>
      </trkpt>
      <trkpt lat="40.804732" lon="-3.335562">
        <ele>855.098</ele>
        <time>2014-07-04T22:26:45Z</time>
      </trkpt>
      <trkpt lat="40.804760" lon="-3.335859">
        <ele>856.017</ele>
        <time>2014-07-04T22:27:05Z</time>
      </trkpt>
      <trkpt lat="40.804876" lon="-3.336136">
        <ele>856.007</ele>
        <time>2014-07-04T22:27:25Z</time>
      </trkpt>
      <trkpt lat="40.805040" lon="-3.336152">
        <ele>856.018</ele>
        <time>2014-07-04T22:27:45Z</time>
      </trkpt>
      <trkpt lat="40.805209" lon="-3.336286">
        <ele>857.013</ele>
        <time>2014-07-04T22:28:05Z</time>
      </trkpt>
      <trkpt lat="40.805375" lon="-3.336313">
        <ele>857.013</ele>
        <time>2014-07-04T22:28:25Z</time>
      </trkpt>
      <trkpt lat="40.805448" lon="-3.336449">
        <ele>858.012</ele>
        <time>2014-07-04T22:28:45Z</time>
      </trkpt>
      <trkpt lat="40.805473" lon="-3.336637">
        <ele>859.029</ele>
        <time>2014-07-04T22:29:05Z</time>
      </trkpt>
      <trkpt lat="40.805670" lon="-3.336750">
        <ele>859.057</ele>
        <time>2014-07-04T22:29:25Z</time>
      </trkpt>
      <trkpt lat="40.805789" lon="-3.336884">
        <ele>862.097</ele>
        <time>2014-07-04T22:29:45Z</time>
      </trkpt>
      <trkpt lat="40.805865" lon="-3.337179">
        <ele>862.056</ele>
        <time>2014-07-04T22:30:05Z</time>
      </trkpt>
      <trkpt lat="40.806064" lon="-3.337214">
        <ele>865.059</ele>
        <time>2014-07-04T22:30:25Z</time>
      </trkpt>
      <trkpt lat="40.806131" lon="-3.337300">
        <ele>865.014</ele>
        <time>2014-07-04T22:30:45Z</time>
      </trkpt>
      <trkpt lat="40.806104" lon="-3.337640">
        <ele>867.007</ele>
        <time>2014-07-04T22:31:05Z</time>
      </trkpt>
      <trkpt lat="40.806283" lon="-3.338043">
        <ele>870.092</ele>
        <time>2014-07-04T22:31:25Z</time>
      </trkpt>
      <trkpt lat="40.806470" lon="-3.338096">
        <ele>870.047</ele>
        <time>2014-07-04T22:31:45Z</time>
      </trkpt>
      <trkpt lat="40.806599" lon="-3.338233">
        <ele>873.017</ele>
        <time>2014-07-04T22:32:05Z</time>
      </trkpt>
      <trkpt lat="40.807035" lon="-3.338275">
        <ele>877.076</ele>
        <time>2014-07-04T22:32:25Z</time>
      </trkpt>
      <trkpt lat="40.807238" lon="-3.338344">
        <ele>881.013</ele>
        <time>2014-07-04T22:32:45Z</time>
      </trkpt>
      <trkpt lat="40.807352" lon="-3.338269">
        <ele>881.051</ele>
        <time>2014-07-04T22:33:05Z</time>
      </trkpt>
      <trkpt lat="40.807693" lon="-3.338248">
        <ele>887.041</ele>
        <time>2014-07-04T22:33:25Z</time>
      </trkpt>
      <trkpt lat="40.808026" lon="-3.338312">
        <ele>890.017</ele>
        <time>2014-07-04T22:33:45Z</time>
      </trkpt>
      <trkpt lat="40.808119" lon="-3.338468">
        <ele>890.087</ele>
        <time>2014-07-04T22:34:05Z</time>
      </trkpt>
      <trkpt lat="40.808639" lon="-3.338816">
        <ele>892.015</ele>
        <time>2014-07-04T22:34:25Z</time>
      </trkpt>
      <trkpt lat="40.808667" lon="-3.338892">
        <ele>892.007</ele>
        <time>2014-07-04T22:34:45Z</time>
      </trkpt>
      <trkpt lat="40.809021" lon="-3.338961">
        <ele>893.078</ele>
        <time>2014-07-04T22:35:05Z</time>
      </trkpt>
      <trkpt lat="40.809082" lon="-3.338897">
        <ele>893.073</ele>
        <time>2014-07-04T22:35:25Z</time>
      </trkpt>
      <trkpt lat="40.809195" lon="-3.338956">
        <ele>893.023</ele>
        <time>2014-07-04T22:35:45Z</time>
      </trkpt>
      <trkpt lat="40.809415" lon="-3.338977">
        <ele>894.072</ele>
        <time>2014-07-04T22:36:05Z</time>
      </trkpt>
      <trkpt lat="40.809695" lon="-3.339074">
        <ele>896.069</ele>
        <time>2014-07-04T22:36:25Z</time>
      </trkpt>
      <trkpt lat="40.809873" lon="-3.339047">
        <ele>898.077</ele>
        <time>2014-07-04T22:36:45Z</time>
      </trkpt>
      <trkpt lat="40.810105" lon="-3.339106">
        <ele>898.087</ele>
        <time>2014-07-04T22:37:05Z</time>
      </trkpt>
      <trkpt lat="40.810263" lon="-3.339090">
        <ele>898.011</ele>
        <time>2014-07-04T22:37:25Z</time>
      </trkpt>
      <trkpt lat="40.810657" lon="-3.339213">
        <ele>898.021</ele>
        <time>2014-07-04T22:37:45Z</time>
      </trkpt>
      <trkpt lat="40.810941" lon="-3.339230">
        <ele>899.003</ele>
        <time>2014-07-04T22:38:05Z</time>
      </trkpt>
      <trkpt lat="40.811120" lon="-3.339133">
        <ele>900.007</ele>
        <time>2014-07-04T22:38:25Z</time>
      </trkpt>
      <trkpt lat="40.811359" lon="-3.339203">
        <ele>902.068</ele>
        <time>2014-07-04T22:38:45Z</time>
      </trkpt>
      <trkpt lat="40.812086" lon="-3.339412">
        <ele>904.093</ele>
        <time>2014-07-04T22:39:05Z</time>
      </trkpt>
      <trkpt lat="40.812443" lon="-3.339567">
        <ele>904.043</ele>
        <time>2014-07-04T22:39:25Z</time>
      </trkpt>
      <trkpt lat="40.812959" lon="-3.339584">
        <ele>905.032</ele>
        <time>2014-07-04T22:39:45Z</time>
      </trkpt>
      <trkpt lat="40.813572" lon="-3.340324">
        <ele>904.059</ele>
        <time>2014-07-04T22:40:05Z</time>
      </trkpt>
      <trkpt lat="40.813759" lon="-3.340485">
        <ele>904.027</ele>
        <time>2014-07-04T22:40:25Z</time>
      </trkpt>
      <trkpt lat="40.814035" lon="-3.341043">
        <ele>904.087</ele>
        <time>2014-07-04T22:40:45Z</time>
      </trkpt>
      <trkpt lat="40.814201" lon="-3.341735">
        <ele>901.026</ele>
        <time>2014-07-04T22:41:05Z</time>
      </trkpt>
      <trkpt lat="40.814415" lon="-3.342177">
        <ele>900.047</ele>
        <time>2014-07-04T22:41:25Z</time>
      </trkpt>
      <trkpt lat="40.815000" lon="-3.342338">
        <ele>901.011</ele>
        <time>2014-07-04T22:41:45Z</time>
      </trkpt>
      <trkpt lat="40.815213" lon="-3.342326">
        <ele>901.007</ele>
        <time>2014-07-04T22:42:05Z</time>
      </trkpt>
      <trkpt lat="40.816003" lon="-3.342715">
        <ele>903.059</ele>
        <time>2014-07-04T22:42:25Z</time>
      </trkpt>
      <trkpt lat="40.816210" lon="-3.342753">
        <ele>903.034</ele>
        <time>2014-07-04T22:42:45Z</time>
      </trkpt>
      <trkpt lat="40.816863" lon="-3.342758">
        <ele>905.054</ele>
        <time>2014-07-04T22:43:05Z</time>
      </trkpt>
      <trkpt lat="40.817433" lon="-3.342609">
        <ele>906.033</ele>
        <time>2014-07-04T22:43:25Z</time>
      </trkpt>
      <trkpt lat="40.818062" lon="-3.342314">
        <ele>906.030</ele>
        <time>2014-07-04T22:43:45Z</time>
      </trkpt>
      <trkpt lat="40.818586" lon="-3.342378">
        <ele>908.098</ele>
        <time>2014-07-04T22:44:05Z</time>
      </trkpt>
      <trkpt lat="40.818735" lon="-3.341888">
        <ele>907.068</ele>
        <time>2014-07-04T22:44:25Z</time>
      </trkpt>
      <trkpt lat="40.818864" lon="-3.341748">
        <ele>908.061</ele>
        <time>2014-07-04T22:44:45Z</time>
      </trkpt>
      <trkpt lat="40.819181" lon="-3.340954">
        <ele>908.021</ele>
        <time>2014-07-04T22:45:05Z</time>
      </trkpt>
      <trkpt lat="40.819246" lon="-3.340343">
        <ele>908.013</ele>
        <time>2014-07-04T22:45:25Z</time>
      </trkpt>
      <trkpt lat="40.819563" lon="-3.340439">
        <ele>908.007</ele>
        <time>2014-07-04T22:45:45Z</time>
      </trkpt>
      <trkpt lat="40.819912" lon="-3.340461">
        <ele>909.023</ele>
        <time>2014-07-04T22:46:05Z</time>
      </trkpt>
      <trkpt lat="40.820212" lon="-3.340729">
        <ele>909.078</ele>
        <time>2014-07-04T22:46:25Z</time>
      </trkpt>
      <trkpt lat="40.821114" lon="-3.341083">
        <ele>907.098</ele>
        <time>2014-07-04T22:46:45Z</time>
      </trkpt>
      <trkpt lat="40.821657" lon="-3.341147">
        <ele>905.067</ele>
        <time>2014-07-04T22:47:05Z</time>
      </trkpt>
      <trkpt lat="40.821617" lon="-3.340428">
        <ele>906.034</ele>
        <time>2014-07-04T22:47:25Z</time>
      </trkpt>
      <trkpt lat="40.820829" lon="-3.338175">
        <ele>899.012</ele>
        <time>2014-07-04T22:47:45Z</time>
      </trkpt>
      <trkpt lat="40.820846" lon="-3.337521">
        <ele>896.072</ele>
        <time>2014-07-04T22:48:05Z</time>
      </trkpt>
      <trkpt lat="40.820805" lon="-3.336706">
        <ele>892.078</ele>
        <time>2014-07-04T22:48:25Z</time>
      </trkpt>
      <trkpt lat="40.820886" lon="-3.336137">
        <ele>890.033</ele>
        <time>2014-07-04T22:48:45Z</time>
      </trkpt>
      <trkpt lat="40.820764" lon="-3.335440">
        <ele>887.026</ele>
        <time>2014-07-04T22:49:05Z</time>
      </trkpt>
      <trkpt lat="40.820716" lon="-3.334935">
        <ele>885.007</ele>
        <time>2014-07-04T22:49:25Z</time>
      </trkpt>
      <trkpt lat="40.820496" lon="-3.334603">
        <ele>884.044</ele>
        <time>2014-07-04T22:49:45Z</time>
      </trkpt>
      <trkpt lat="40.820285" lon="-3.334184">
        <ele>887.019</ele>
        <time>2014-07-04T22:50:05Z</time>
      </trkpt>
      <trkpt lat="40.819668" lon="-3.333541">
        <ele>893.069</ele>
        <time>2014-07-04T22:50:25Z</time>
      </trkpt>
      <trkpt lat="40.819530" lon="-3.333187">
        <ele>899.058</ele>
        <time>2014-07-04T22:50:45Z</time>
      </trkpt>
      <trkpt lat="40.819311" lon="-3.332918">
        <ele>899.065</ele>
        <time>2014-07-04T22:51:05Z</time>
      </trkpt>
      <trkpt lat="40.819303" lon="-3.332629">
        <ele>902.053</ele>
        <time>2014-07-04T22:51:25Z</time>
      </trkpt>
      <trkpt lat="40.819376" lon="-3.331695">
        <ele>909.033</ele>
        <time>2014-07-04T22:51:45Z</time>
      </trkpt>
      <trkpt lat="40.819230" lon="-3.330193">
        <ele>907.064</ele>
        <time>2014-07-04T22:52:05Z</time>
      </trkpt>
      <trkpt lat="40.819319" lon="-3.329732">
        <ele>907.006</ele>
        <time>2014-07-04T22:52:25Z</time>
      </trkpt>
      <trkpt lat="40.819132" lon="-3.328809">
        <ele>904.016</ele>
        <time>2014-07-04T22:52:45Z</time>
      </trkpt>
      <trkpt lat="40.819555" lon="-3.328702">
        <ele>903.007</ele>
        <time>2014-07-04T22:53:05Z</time>
      </trkpt>
      <trkpt lat="40.820066" lon="-3.328970">
        <ele>905.023</ele>
        <time>2014-07-04T22:53:25Z</time>
      </trkpt>
      <trkpt lat="40.820505" lon="-3.328949">
        <ele>904.058</ele>
        <time>2014-07-04T22:53:45Z</time>
      </trkpt>
      <trkpt lat="40.820984" lon="-3.329324">
        <ele>908.068</ele>
        <time>2014-07-04T22:54:05Z</time>
      </trkpt>
      <trkpt lat="40.821252" lon="-3.329796">
        <ele>909.047</ele>
        <time>2014-07-04T22:54:25Z</time>
      </trkpt>
      <trkpt lat="40.821796" lon="-3.329603">
        <ele>909.074</ele>
        <time>2014-07-04T22:54:45Z</time>
      </trkpt>
      <trkpt lat="40.822339" lon="-3.329893">
        <ele>909.042</ele>
        <time>2014-07-04T22:55:05Z</time>
      </trkpt>
      <trkpt lat="40.822380" lon="-3.330215">
        <ele>909.012</ele>
        <time>2014-07-04T22:55:25Z</time>
      </trkpt>
      <trkpt lat="40.822551" lon="-3.330536">
        <ele>910.074</ele>
        <time>2014-07-04T22:55:45Z</time>
      </trkpt>
      <trkpt lat="40.823314" lon="-3.331019">
        <ele>908.056</ele>
        <time>2014-07-04T22:56:05Z</time>
      </trkpt>
      <trkpt lat="40.824036" lon="-3.330998">
        <ele>908.021</ele>
        <time>2014-07-04T22:56:25Z</time>
      </trkpt>
      <trkpt lat="40.824613" lon="-3.330794">
        <ele>909.007</ele>
        <time>2014-07-04T22:56:45Z</time>
      </trkpt>
      <trkpt lat="40.825952" lon="-3.330998">
        <ele>912.014</ele>
        <time>2014-07-04T22:57:05Z</time>
      </trkpt>
      <trkpt lat="40.826269" lon="-3.330837">
        <ele>912.069</ele>
        <time>2014-07-04T22:57:25Z</time>
      </trkpt>
      <trkpt lat="40.826780" lon="-3.330826">
        <ele>912.019</ele>
        <time>2014-07-04T22:57:45Z</time>
      </trkpt>
      <trkpt lat="40.827779" lon="-3.330461">
        <ele>915.098</ele>
        <time>2014-07-04T22:58:05Z</time>
      </trkpt>
      <trkpt lat="40.829094" lon="-3.330472">
        <ele>911.075</ele>
        <time>2014-07-04T22:58:25Z</time>
      </trkpt>
      <trkpt lat="40.829679" lon="-3.330107">
        <ele>914.083</ele>
        <time>2014-07-04T22:58:45Z</time>
      </trkpt>
      <trkpt lat="40.829784" lon="-3.329625">
        <ele>914.013</ele>
        <time>2014-07-04T22:59:05Z</time>
      </trkpt>
      <trkpt lat="40.830003" lon="-3.329110">
        <ele>914.015</ele>
        <time>2014-07-04T22:59:25Z</time>
      </trkpt>
      <trkpt lat="40.830466" lon="-3.328659">
        <ele>911.065</ele>
        <time>2014-07-04T22:59:45Z</time>
      </trkpt>
      <trkpt lat="40.830799" lon="-3.327886">
        <ele>913.011</ele>
        <time>2014-07-04T23:00:05Z</time>
      </trkpt>
      <trkpt lat="40.831676" lon="-3.326921">
        <ele>915.007</ele>
        <time>2014-07-04T23:00:25Z</time>
      </trkpt>
      <trkpt lat="40.832220" lon="-3.326599">
        <ele>920.068</ele>
        <time>2014-07-04T23:00:45Z</time>
      </trkpt>
      <trkpt lat="40.832747" lon="-3.326374">
        <ele>924.053</ele>
        <time>2014-07-04T23:01:05Z</time>
      </trkpt>
      <trkpt lat="40.833096" lon="-3.326449">
        <ele>924.023</ele>
        <time>2014-07-04T23:01:25Z</time>
      </trkpt>
      <trkpt lat="40.833348" lon="-3.326223">
        <ele>924.042</ele>
        <time>2014-07-04T23:01:45Z</time>
      </trkpt>
      <trkpt lat="40.833656" lon="-3.326406">
        <ele>923.099</ele>
        <time>2014-07-04T23:02:05Z</time>
      </trkpt>
      <trkpt lat="40.834038" lon="-3.326438">
        <ele>923.067</ele>
        <time>2014-07-04T23:02:25Z</time>
      </trkpt>
      <trkpt lat="40.835239" lon="-3.326921">
        <ele>918.077</ele>
        <time>2014-07-04T23:02:45Z</time>
      </trkpt>
      <trkpt lat="40.836579" lon="-3.326921">
        <ele>916.093</ele>
        <time>2014-07-04T23:03:05Z</time>
      </trkpt>
      <trkpt lat="40.837177" lon="-3.326301">
        <ele>916.065</ele>
        <time>2014-07-04T23:03:25Z</time>
      </trkpt>
      <trkpt lat="40.837282" lon="-3.326709">
        <ele>915.021</ele>
        <time>2014-07-04T23:03:45Z</time>
      </trkpt>
      <trkpt lat="40.837201" lon="-3.327133">
        <ele>914.007</ele>
        <time>2014-07-04T23:04:05Z</time>
      </trkpt>
      <trkpt lat="40.836885" lon="-3.327701">
        <ele>914.086</ele>
        <time>2014-07-04T23:04:25Z</time>
      </trkpt>
      <trkpt lat="40.836389" lon="-3.327819">
        <ele>914.051</ele>
        <time>2014-07-04T23:04:45Z</time>
      </trkpt>
      <trkpt lat="40.836243" lon="-3.328061">
        <ele>913.031</ele>
        <time>2014-07-04T23:05:05Z</time>
      </trkpt>
      <trkpt lat="40.835886" lon="-3.328404">
        <ele>912.030</ele>
        <time>2014-07-04T23:05:25Z</time>
      </trkpt>
      <trkpt lat="40.835813" lon="-3.328758">
        <ele>912.037</ele>
        <time>2014-07-04T23:05:45Z</time>
      </trkpt>
      <trkpt lat="40.835931" lon="-3.328930">
        <ele>912.015</ele>
        <time>2014-07-04T23:06:05Z</time>
      </trkpt>
      <trkpt lat="40.836199" lon="-3.329708">
        <ele>914.025</ele>
        <time>2014-07-04T23:06:25Z</time>
      </trkpt>
      <trkpt lat="40.836284" lon="-3.330421">
        <ele>916.053</ele>
        <time>2014-07-04T23:06:45Z</time>
      </trkpt>
      <trkpt lat="40.836223" lon="-3.330856">
        <ele>916.004</ele>
        <time>2014-07-04T23:07:05Z</time>
      </trkpt>
      <trkpt lat="40.835327" lon="-3.333471">
        <ele>915.014</ele>
        <time>2014-07-04T23:07:25Z</time>
      </trkpt>
      <trkpt lat="40.834937" lon="-3.334415">
        <ele>914.007</ele>
        <time>2014-07-04T23:07:45Z</time>
      </trkpt>
      <trkpt lat="40.833963" lon="-3.335531">
        <ele>912.042</ele>
        <time>2014-07-04T23:08:05Z</time>
      </trkpt>
      <trkpt lat="40.832697" lon="-3.337719">
        <ele>912.067</ele>
        <time>2014-07-04T23:08:25Z</time>
      </trkpt>
      <trkpt lat="40.832471" lon="-3.338165">
        <ele>911.057</ele>
        <time>2014-07-04T23:08:45Z</time>
      </trkpt>
      <trkpt lat="40.832455" lon="-3.338411">
        <ele>911.036</ele>
        <time>2014-07-04T23:09:05Z</time>
      </trkpt>
      <trkpt lat="40.834427" lon="-3.337103">
        <ele>914.023</ele>
        <time>2014-07-04T23:09:25Z</time>
      </trkpt>
      <trkpt lat="40.836384" lon="-3.335751">
        <ele>913.061</ele>
        <time>2014-07-04T23:09:45Z</time>
      </trkpt>
      <trkpt lat="40.838364" lon="-3.334442">
        <ele>919.081</ele>
        <time>2014-07-04T23:10:05Z</time>
      </trkpt>
      <trkpt lat="40.840337" lon="-3.333133">
        <ele>916.029</ele>
        <time>2014-07-04T23:10:25Z</time>
      </trkpt>
      <trkpt lat="40.841587" lon="-3.332317">
        <ele>917.000</ele>
        <time>2014-07-04T23:10:45Z</time>
      </trkpt>
      <trkpt lat="40.842601" lon="-3.331845">
        <ele>921.020</ele>
        <time>2014-07-04T23:11:05Z</time>
      </trkpt>
      <trkpt lat="40.844744" lon="-3.331094">
        <ele>925.007</ele>
        <time>2014-07-04T23:11:25Z</time>
      </trkpt>
      <trkpt lat="40.845807" lon="-3.330730">
        <ele>928.059</ele>
        <time>2014-07-04T23:11:45Z</time>
      </trkpt>
      <trkpt lat="40.846619" lon="-3.330215">
        <ele>925.084</ele>
        <time>2014-07-04T23:12:05Z</time>
      </trkpt>
      <trkpt lat="40.847211" lon="-3.330054">
        <ele>922.034</ele>
        <time>2014-07-04T23:12:25Z</time>
      </trkpt>
      <trkpt lat="40.849435" lon="-3.329925">
        <ele>924.053</ele>
        <time>2014-07-04T23:12:45Z</time>
      </trkpt>
      <trkpt lat="40.849898" lon="-3.330011">
        <ele>918.010</ele>
        <time>2014-07-04T23:13:05Z</time>
      </trkpt>
      <trkpt lat="40.851983" lon="-3.330955">
        <ele>927.028</ele>
        <time>2014-07-04T23:13:25Z</time>
      </trkpt>
      <trkpt lat="40.852559" lon="-3.331127">
        <ele>925.078</ele>
        <time>2014-07-04T23:13:45Z</time>
      </trkpt>
      <trkpt lat="40.852235" lon="-3.329260">
        <ele>905.032</ele>
        <time>2014-07-04T23:14:05Z</time>
      </trkpt>
      <trkpt lat="40.852592" lon="-3.329206">
        <ele>904.092</ele>
        <time>2014-07-04T23:14:25Z</time>
      </trkpt>
      <trkpt lat="40.852324" lon="-3.328734">
        <ele>897.011</ele>
        <time>2014-07-04T23:14:45Z</time>
      </trkpt>
      <trkpt lat="40.854426" lon="-3.327962">
        <ele>875.007</ele>
        <time>2014-07-04T23:15:05Z</time>
      </trkpt>
      <trkpt lat="40.855351" lon="-3.327972">
        <ele>870.020</ele>
        <time>2014-07-04T23:15:25Z</time>
      </trkpt>
      <trkpt lat="40.856357" lon="-3.327726">
        <ele>860.015</ele>
        <time>2014-07-04T23:15:45Z</time>
      </trkpt>
      <trkpt lat="40.857299" lon="-3.327983">
        <ele>855.035</ele>
        <time>2014-07-04T23:16:05Z</time>
      </trkpt>
      <trkpt lat="40.858686" lon="-3.329281">
        <ele>834.054</ele>
        <time>2014-07-04T23:16:25Z</time>
      </trkpt>
      <trkpt lat="40.859011" lon="-3.329174">
        <ele>829.031</ele>
        <time>2014-07-04T23:16:45Z</time>
      </trkpt>
      <trkpt lat="40.859035" lon="-3.328552">
        <ele>826.099</ele>
        <time>2014-07-04T23:17:05Z</time>
      </trkpt>
      <trkpt lat="40.859254" lon="-3.328283">
        <ele>826.089</ele>
        <time>2014-07-04T23:17:25Z</time>
      </trkpt>
      <trkpt lat="40.859489" lon="-3.328831">
        <ele>825.025</ele>
        <time>2014-07-04T23:17:45Z</time>
      </trkpt>
      <trkpt lat="40.859611" lon="-3.329421">
        <ele>825.026</ele>
        <time>2014-07-04T23:18:05Z</time>
      </trkpt>
      <trkpt lat="40.860374" lon="-3.330043">
        <ele>826.008</ele>
        <time>2014-07-04T23:18:25Z</time>
      </trkpt>
      <trkpt lat="40.860655" lon="-3.330756">
        <ele>823.007</ele>
        <time>2014-07-04T23:18:45Z</time>
      </trkpt>
      <trkpt lat="40.860822" lon="-3.330759">
        <ele>823.079</ele>
        <time>2014-07-04T23:19:05Z</time>
      </trkpt>
      <trkpt lat="40.861331" lon="-3.329818">
        <ele>831.014</ele>
        <time>2014-07-04T23:19:25Z</time>
      </trkpt>
      <trkpt lat="40.861380" lon="-3.328734">
        <ele>839.034</ele>
        <time>2014-07-04T23:19:45Z</time>
      </trkpt>
      <trkpt lat="40.861518" lon="-3.327951">
        <ele>843.093</ele>
        <time>2014-07-04T23:20:05Z</time>
      </trkpt>
      <trkpt lat="40.862167" lon="-3.327447">
        <ele>842.020</ele>
        <time>2014-07-04T23:20:25Z</time>
      </trkpt>
      <trkpt lat="40.862321" lon="-3.326996">
        <ele>842.058</ele>
        <time>2014-07-04T23:20:45Z</time>
      </trkpt>
      <trkpt lat="40.863254" lon="-3.326245">
        <ele>830.088</ele>
        <time>2014-07-04T23:21:05Z</time>
      </trkpt>
      <trkpt lat="40.864123" lon="-3.325151">
        <ele>824.085</ele>
        <time>2014-07-04T23:21:25Z</time>
      </trkpt>
      <trkpt lat="40.864902" lon="-3.324528">
        <ele>819.089</ele>
        <time>2014-07-04T23:21:45Z</time>
      </trkpt>
      <trkpt lat="40.865461" lon="-3.324754">
        <ele>817.017</ele>
        <time>2014-07-04T23:22:05Z</time>
      </trkpt>
      <trkpt lat="40.865859" lon="-3.325183">
        <ele>816.007</ele>
        <time>2014-07-04T23:22:25Z</time>
      </trkpt>
      <trkpt lat="40.866151" lon="-3.325258">
        <ele>816.045</ele>
        <time>2014-07-04T23:22:45Z</time>
      </trkpt>
      <trkpt lat="40.866354" lon="-3.325419">
        <ele>816.080</ele>
        <time>2014-07-04T23:23:05Z</time>
      </trkpt>
      <trkpt lat="40.867279" lon="-3.325891">
        <ele>814.050</ele>
        <time>2014-07-04T23:23:25Z</time>
      </trkpt>
      <trkpt lat="40.867441" lon="-3.326170">
        <ele>814.059</ele>
        <time>2014-07-04T23:23:45Z</time>
      </trkpt>
      <trkpt lat="40.867628" lon="-3.326309">
        <ele>814.066</ele>
        <time>2014-07-04T23:24:05Z</time>
      </trkpt>
      <trkpt lat="40.867928" lon="-3.326717">
        <ele>814.084</ele>
        <time>2014-07-04T23:24:25Z</time>
      </trkpt>
      <trkpt lat="40.868398" lon="-3.326760">
        <ele>814.084</ele>
        <time>2014-07-04T23:24:45Z</time>
      </trkpt>
      <trkpt lat="40.869210" lon="-3.327264">
        <ele>810.027</ele>
        <time>2014-07-04T23:25:05Z</time>
      </trkpt>
      <trkpt lat="40.869559" lon="-3.327790">
        <ele>808.068</ele>
        <time>2014-07-04T23:25:25Z</time>
      </trkpt>
      <trkpt lat="40.869640" lon="-3.328058">
        <ele>807.014</ele>
        <time>2014-07-04T23:25:45Z</time>
      </trkpt>
      <trkpt lat="40.869839" lon="-3.328325">
        <ele>807.007</ele>
        <time>2014-07-04T23:26:05Z</time>
      </trkpt>
      <trkpt lat="40.870121" lon="-3.328352">
        <ele>806.039</ele>
        <time>2014-07-04T23:26:25Z</time>
      </trkpt>
      <trkpt lat="40.870233" lon="-3.328295">
        <ele>805.014</ele>
        <time>2014-07-04T23:26:45Z</time>
      </trkpt>
      <trkpt lat="40.870216" lon="-3.328894">
        <ele>806.044</ele>
        <time>2014-07-04T23:27:05Z</time>
      </trkpt>
      <trkpt lat="40.870293" lon="-3.329143">
        <ele>806.023</ele>
        <time>2014-07-04T23:27:25Z</time>
      </trkpt>
      <trkpt lat="40.870484" lon="-3.329411">
        <ele>805.010</ele>
        <time>2014-07-04T23:27:45Z</time>
      </trkpt>
      <trkpt lat="40.870567" lon="-3.330304">
        <ele>805.098</ele>
        <time>2014-07-04T23:28:05Z</time>
      </trkpt>
      <trkpt lat="40.870778" lon="-3.330541">
        <ele>804.098</ele>
        <time>2014-07-04T23:28:25Z</time>
      </trkpt>
      <trkpt lat="40.870995" lon="-3.330258">
        <ele>803.055</ele>
        <time>2014-07-04T23:28:45Z</time>
      </trkpt>
      <trkpt lat="40.870978" lon="-3.329979">
        <ele>803.007</ele>
        <time>2014-07-04T23:29:05Z</time>
      </trkpt>
      <trkpt lat="40.871668" lon="-3.327264">
        <ele>805.017</ele>
        <time>2014-07-04T23:29:25Z</time>
      </trkpt>
      <trkpt lat="40.871822" lon="-3.326073">
        <ele>805.007</ele>
        <time>2014-07-04T23:29:45Z</time>
      </trkpt>
      <trkpt lat="40.872114" lon="-3.325376">
        <ele>806.032</ele>
        <time>2014-07-04T23:30:05Z</time>
      </trkpt>
      <trkpt lat="40.872358" lon="-3.325183">
        <ele>806.027</ele>
        <time>2014-07-04T23:30:25Z</time>
      </trkpt>
      <trkpt lat="40.872390" lon="-3.324410">
        <ele>807.097</ele>
        <time>2014-07-04T23:30:45Z</time>
      </trkpt>
      <trkpt lat="40.872301" lon="-3.324067">
        <ele>807.096</ele>
        <time>2014-07-04T23:31:05Z</time>
      </trkpt>
      <trkpt lat="40.872496" lon="-3.322619">
        <ele>810.073</ele>
        <time>2014-07-04T23:31:25Z</time>
      </trkpt>
      <trkpt lat="40.872974" lon="-3.321889">
        <ele>812.041</ele>
        <time>2014-07-04T23:31:45Z</time>
      </trkpt>
      <trkpt lat="40.873461" lon="-3.321438">
        <ele>812.031</ele>
        <time>2014-07-04T23:32:05Z</time>
      </trkpt>
      <trkpt lat="40.873534" lon="-3.320430">
        <ele>811.014</ele>
        <time>2014-07-04T23:32:25Z</time>
      </trkpt>
      <trkpt lat="40.873745" lon="-3.320237">
        <ele>811.054</ele>
        <time>2014-07-04T23:32:45Z</time>
      </trkpt>
      <trkpt lat="40.873721" lon="-3.319733">
        <ele>811.009</ele>
        <time>2014-07-04T23:33:05Z</time>
      </trkpt>
      <trkpt lat="40.874167" lon="-3.318413">
        <ele>813.007</ele>
        <time>2014-07-04T23:33:25Z</time>
      </trkpt>
      <trkpt lat="40.874621" lon="-3.317780">
        <ele>816.098</ele>
        <time>2014-07-04T23:33:45Z</time>
      </trkpt>
      <trkpt lat="40.874816" lon="-3.317243">
        <ele>816.063</ele>
        <time>2014-07-04T23:34:05Z</time>
      </trkpt>
      <trkpt lat="40.874824" lon="-3.315570">
        <ele>818.013</ele>
        <time>2014-07-04T23:34:25Z</time>
      </trkpt>
      <trkpt lat="40.874791" lon="-3.315098">
        <ele>819.092</ele>
        <time>2014-07-04T23:34:45Z</time>
      </trkpt>
      <trkpt lat="40.875481" lon="-3.315151">
        <ele>821.099</ele>
        <time>2014-07-04T23:35:05Z</time>
      </trkpt>
      <trkpt lat="40.875806" lon="-3.315409">
        <ele>823.097</ele>
        <time>2014-07-04T23:35:25Z</time>
      </trkpt>
      <trkpt lat="40.876130" lon="-3.315420">
        <ele>826.067</ele>
        <time>2014-07-04T23:35:45Z</time>
      </trkpt>
      <trkpt lat="40.876260" lon="-3.315302">
        <ele>828.034</ele>
        <time>2014-07-04T23:36:05Z</time>
      </trkpt>
      <trkpt lat="40.876722" lon="-3.315259">
        <ele>832.055</ele>
        <time>2014-07-04T23:36:25Z</time>
      </trkpt>
      <trkpt lat="40.877574" lon="-3.314862">
        <ele>842.010</ele>
        <time>2014-07-04T23:36:45Z</time>
      </trkpt>
      <trkpt lat="40.878434" lon="-3.314089">
        <ele>846.007</ele>
        <time>2014-07-04T23:37:05Z</time>
      </trkpt>
      <trkpt lat="40.878880" lon="-3.313596">
        <ele>847.080</ele>
        <time>2014-07-04T23:37:25Z</time>
      </trkpt>
      <trkpt lat="40.879205" lon="-3.312641">
        <ele>851.095</ele>
        <time>2014-07-04T23:37:45Z</time>
      </trkpt>
      <trkpt lat="40.879156" lon="-3.312201">
        <ele>854.075</ele>
        <time>2014-07-04T23:38:05Z</time>
      </trkpt>
      <trkpt lat="40.879497" lon="-3.311986">
        <ele>855.094</ele>
        <time>2014-07-04T23:38:25Z</time>
      </trkpt>
      <trkpt lat="40.880024" lon="-3.311225">
        <ele>857.021</ele>
        <time>2014-07-04T23:38:45Z</time>
      </trkpt>
      <trkpt lat="40.880056" lon="-3.310924">
        <ele>859.059</ele>
        <time>2014-07-04T23:39:05Z</time>
      </trkpt>
      <trkpt lat="40.880381" lon="-3.310645">
        <ele>858.069</ele>
        <time>2014-07-04T23:39:25Z</time>
      </trkpt>
      <trkpt lat="40.881078" lon="-3.309873">
        <ele>857.086</ele>
        <time>2014-07-04T23:39:45Z</time>
      </trkpt>
      <trkpt lat="40.881176" lon="-3.309476">
        <ele>858.060</ele>
        <time>2014-07-04T23:40:05Z</time>
      </trkpt>
      <trkpt lat="40.881370" lon="-3.309186">
        <ele>861.026</ele>
        <time>2014-07-04T23:40:25Z</time>
      </trkpt>
      <trkpt lat="40.881411" lon="-3.308864">
        <ele>862.007</ele>
        <time>2014-07-04T23:40:45Z</time>
      </trkpt>
      <trkpt lat="40.881638" lon="-3.308381">
        <ele>866.045</ele>
        <time>2014-07-04T23:41:05Z</time>
      </trkpt>
      <trkpt lat="40.881729" lon="-3.307928">
        <ele>867.010</ele>
        <time>2014-07-04T23:41:25Z</time>
      </trkpt>
      <trkpt lat="40.881976" lon="-3.307365">
        <ele>872.070</ele>
        <time>2014-07-04T23:41:45Z</time>
      </trkpt>
      <trkpt lat="40.882597" lon="-3.307027">
        <ele>880.079</ele>
        <time>2014-07-04T23:42:05Z</time>
      </trkpt>
      <trkpt lat="40.882873" lon="-3.306893">
        <ele>882.046</ele>
        <time>2014-07-04T23:42:25Z</time>
      </trkpt>
      <trkpt lat="40.883226" lon="-3.306812">
        <ele>884.054</ele>
        <time>2014-07-04T23:42:45Z</time>
      </trkpt>
      <trkpt lat="40.884118" lon="-3.305106">
        <ele>888.084</ele>
        <time>2014-07-04T23:43:05Z</time>
      </trkpt>
      <trkpt lat="40.882913" lon="-3.303942">
        <ele>891.065</ele>
        <time>2014-07-04T23:43:25Z</time>
      </trkpt>
      <trkpt lat="40.884682" lon="-3.302172">
        <ele>875.068</ele>
        <time>2014-07-04T23:43:45Z</time>
      </trkpt>
      <trkpt lat="40.885339" lon="-3.301539">
        <ele>872.014</ele>
        <time>2014-07-04T23:44:05Z</time>
      </trkpt>
      <trkpt lat="40.887537" lon="-3.301083">
        <ele>857.007</ele>
        <time>2014-07-04T23:44:25Z</time>
      </trkpt>
      <trkpt lat="40.888364" lon="-3.300949">
        <ele>849.033</ele>
        <time>2014-07-04T23:44:45Z</time>
      </trkpt>
      <trkpt lat="40.888741" lon="-3.301148">
        <ele>847.068</ele>
        <time>2014-07-04T23:45:05Z</time>
      </trkpt>
      <trkpt lat="40.889078" lon="-3.301185">
        <ele>844.038</ele>
        <time>2014-07-04T23:45:25Z</time>
      </trkpt>
      <trkpt lat="40.889220" lon="-3.301555">
        <ele>843.067</ele>
        <time>2014-07-04T23:45:45Z</time>
      </trkpt>
      <trkpt lat="40.889134" lon="-3.302580">
        <ele>843.014</ele>
        <time>2014-07-04T23:46:05Z</time>
      </trkpt>
      <trkpt lat="40.889431" lon="-3.303562">
        <ele>843.042</ele>
        <time>2014-07-04T23:46:25Z</time>
      </trkpt>
      <trkpt lat="40.890039" lon="-3.304130">
        <ele>840.072</ele>
        <time>2014-07-04T23:46:45Z</time>
      </trkpt>
      <trkpt lat="40.890185" lon="-3.304516">
        <ele>838.081</ele>
        <time>2014-07-04T23:47:05Z</time>
      </trkpt>
      <trkpt lat="40.890250" lon="-3.305053">
        <ele>836.061</ele>
        <time>2014-07-04T23:47:25Z</time>
      </trkpt>
      <trkpt lat="40.890436" lon="-3.305423">
        <ele>834.017</ele>
        <time>2014-07-04T23:47:45Z</time>
      </trkpt>
      <trkpt lat="40.890550" lon="-3.305900">
        <ele>834.007</ele>
        <time>2014-07-04T23:48:05Z</time>
      </trkpt>
      <trkpt lat="40.890785" lon="-3.306077">
        <ele>832.085</ele>
        <time>2014-07-04T23:48:25Z</time>
      </trkpt>
      <trkpt lat="40.891316" lon="-3.305927">
        <ele>834.030</ele>
        <time>2014-07-04T23:48:45Z</time>
      </trkpt>
      <trkpt lat="40.891738" lon="-3.305766">
        <ele>834.030</ele>
        <time>2014-07-04T23:49:05Z</time>
      </trkpt>
      <trkpt lat="40.892010" lon="-3.305836">
        <ele>834.049</ele>
        <time>2014-07-04T23:49:25Z</time>
      </trkpt>
      <trkpt lat="40.892950" lon="-3.304887">
        <ele>841.096</ele>
        <time>2014-07-04T23:49:45Z</time>
      </trkpt>
      <trkpt lat="40.893762" lon="-3.304532">
        <ele>848.014</ele>
        <time>2014-07-04T23:50:05Z</time>
      </trkpt>
      <trkpt lat="40.894070" lon="-3.304538">
        <ele>848.064</ele>
        <time>2014-07-04T23:50:25Z</time>
      </trkpt>
      <trkpt lat="40.894325" lon="-3.304388">
        <ele>848.059</ele>
        <time>2014-07-04T23:50:45Z</time>
      </trkpt>
      <trkpt lat="40.894856" lon="-3.303690">
        <ele>852.003</ele>
        <time>2014-07-04T23:51:05Z</time>
      </trkpt>
      <trkpt lat="40.895554" lon="-3.303492">
        <ele>847.023</ele>
        <time>2014-07-04T23:51:25Z</time>
      </trkpt>
      <trkpt lat="40.895890" lon="-3.303556">
        <ele>847.007</ele>
        <time>2014-07-04T23:51:45Z</time>
      </trkpt>
      <trkpt lat="40.896969" lon="-3.303165">
        <ele>852.032</ele>
        <time>2014-07-04T23:52:05Z</time>
      </trkpt>
      <trkpt lat="40.897306" lon="-3.303438">
        <ele>857.027</ele>
        <time>2014-07-04T23:52:25Z</time>
      </trkpt>
      <trkpt lat="40.897837" lon="-3.303604">
        <ele>864.087</ele>
        <time>2014-07-04T23:52:45Z</time>
      </trkpt>
      <trkpt lat="40.898153" lon="-3.303980">
        <ele>867.076</ele>
        <time>2014-07-04T23:53:05Z</time>
      </trkpt>
      <trkpt lat="40.898368" lon="-3.304109">
        <ele>870.053</ele>
        <time>2014-07-04T23:53:25Z</time>
      </trkpt>
      <trkpt lat="40.898494" lon="-3.304473">
        <ele>872.021</ele>
        <time>2014-07-04T23:53:45Z</time>
      </trkpt>
      <trkpt lat="40.898437" lon="-3.304774">
        <ele>874.031</ele>
        <time>2014-07-04T23:54:05Z</time>
      </trkpt>
      <trkpt lat="40.898615" lon="-3.305289">
        <ele>878.067</ele>
        <time>2014-07-04T23:54:25Z</time>
      </trkpt>
      <trkpt lat="40.898927" lon="-3.305552">
        <ele>880.081</ele>
        <time>2014-07-04T23:54:45Z</time>
      </trkpt>
      <trkpt lat="40.899021" lon="-3.305874">
        <ele>882.019</ele>
        <time>2014-07-04T23:55:05Z</time>
      </trkpt>
      <trkpt lat="40.899418" lon="-3.306582">
        <ele>886.007</ele>
        <time>2014-07-04T23:55:25Z</time>
      </trkpt>
      <trkpt lat="40.900452" lon="-3.306614">
        <ele>890.063</ele>
        <time>2014-07-04T23:55:45Z</time>
      </trkpt>
      <trkpt lat="40.900817" lon="-3.306769">
        <ele>890.098</ele>
        <time>2014-07-04T23:56:05Z</time>
      </trkpt>
      <trkpt lat="40.900887" lon="-3.305985">
        <ele>889.028</ele>
        <time>2014-07-04T23:56:25Z</time>
      </trkpt>
      <trkpt lat="40.900712" lon="-3.304646">
        <ele>886.097</ele>
        <time>2014-07-04T23:56:45Z</time>
      </trkpt>
      <trkpt lat="40.900830" lon="-3.304357">
        <ele>886.074</ele>
        <time>2014-07-04T23:57:05Z</time>
      </trkpt>
      <trkpt lat="40.900994" lon="-3.304217">
        <ele>886.012</ele>
        <time>2014-07-04T23:57:25Z</time>
      </trkpt>
      <trkpt lat="40.901629" lon="-3.303555">
        <ele>887.042</ele>
        <time>2014-07-04T23:57:45Z</time>
      </trkpt>
      <trkpt lat="40.901834" lon="-3.303254">
        <ele>888.068</ele>
        <time>2014-07-04T23:58:05Z</time>
      </trkpt>
      <trkpt lat="40.902091" lon="-3.303013">
        <ele>888.042</ele>
        <time>2014-07-04T23:58:25Z</time>
      </trkpt>
      <trkpt lat="40.902373" lon="-3.302970">
        <ele>888.026</ele>
        <time>2014-07-04T23:58:45Z</time>
      </trkpt>
      <trkpt lat="40.903244" lon="-3.300324">
        <ele>890.007</ele>
        <time>2014-07-04T23:59:05Z</time>
      </trkpt>
      <trkpt lat="40.904039" lon="-3.298017">
        <ele>899.063</ele>
        <time>2014-07-04T23:59:25Z</time>
      </trkpt>
      <trkpt lat="40.904112" lon="-3.297438">
        <ele>900.068</ele>
        <time>2014-07-04T23:59:45Z</time>
      </trkpt>
      <trkpt lat="40.904014" lon="-3.297288">
        <ele>901.088</ele>
        <time>2014-07-05T00:00:05Z</time>
      </trkpt>
      <trkpt lat="40.903852" lon="-3.297320">
        <ele>901.077</ele>
        <time>2014-07-05T00:00:25Z</time>
      </trkpt>
      <trkpt lat="40.903641" lon="-3.296912">
        <ele>901.024</ele>
        <time>2014-07-05T00:00:45Z</time>
      </trkpt>
      <trkpt lat="40.903658" lon="-3.296569">
        <ele>902.062</ele>
        <time>2014-07-05T00:01:05Z</time>
      </trkpt>
      <trkpt lat="40.903382" lon="-3.296086">
        <ele>904.092</ele>
        <time>2014-07-05T00:01:25Z</time>
      </trkpt>
      <trkpt lat="40.903406" lon="-3.295550">
        <ele>907.092</ele>
        <time>2014-07-05T00:01:45Z</time>
      </trkpt>
      <trkpt lat="40.903374" lon="-3.295324">
        <ele>908.073</ele>
        <time>2014-07-05T00:02:05Z</time>
      </trkpt>
      <trkpt lat="40.903520" lon="-3.294767">
        <ele>911.020</ele>
        <time>2014-07-05T00:02:25Z</time>
      </trkpt>
      <trkpt lat="40.903649" lon="-3.294477">
        <ele>914.007</ele>
        <time>2014-07-05T00:02:45Z</time>
      </trkpt>
      <trkpt lat="40.903698" lon="-3.293876">
        <ele>914.086</ele>
        <time>2014-07-05T00:03:05Z</time>
      </trkpt>
      <trkpt lat="40.904006" lon="-3.292996">
        <ele>925.051</ele>
        <time>2014-07-05T00:03:25Z</time>
      </trkpt>
      <trkpt lat="40.904509" lon="-3.293350">
        <ele>916.041</ele>
        <time>2014-07-05T00:03:45Z</time>
      </trkpt>
      <trkpt lat="40.904923" lon="-3.294005">
        <ele>903.010</ele>
        <time>2014-07-05T00:04:05Z</time>
      </trkpt>
      <trkpt lat="40.905369" lon="-3.294123">
        <ele>896.037</ele>
        <time>2014-07-05T00:04:25Z</time>
      </trkpt>
      <trkpt lat="40.905855" lon="-3.293833">
        <ele>895.035</ele>
        <time>2014-07-05T00:04:45Z</time>
      </trkpt>
      <trkpt lat="40.906139" lon="-3.294198">
        <ele>893.055</ele>
        <time>2014-07-05T00:05:05Z</time>
      </trkpt>
      <trkpt lat="40.906544" lon="-3.294134">
        <ele>893.025</ele>
        <time>2014-07-05T00:05:25Z</time>
      </trkpt>
      <trkpt lat="40.906909" lon="-3.293930">
        <ele>893.026</ele>
        <time>2014-07-05T00:05:45Z</time>
      </trkpt>
      <trkpt lat="40.907141" lon="-3.293869">
        <ele>891.008</ele>
        <time>2014-07-05T00:06:05Z</time>
      </trkpt>
      <trkpt lat="40.907443" lon="-3.294084">
        <ele>890.007</ele>
        <time>2014-07-05T00:06:25Z</time>
      </trkpt>
      <trkpt lat="40.907706" lon="-3.294202">
        <ele>887.029</ele>
        <time>2014-07-05T00:06:45Z</time>
      </trkpt>
      <trkpt lat="40.907783" lon="-3.294347">
        <ele>888.074</ele>
        <time>2014-07-05T00:07:05Z</time>
      </trkpt>
      <trkpt lat="40.907950" lon="-3.294438">
        <ele>884.014</ele>
        <time>2014-07-05T00:07:25Z</time>
      </trkpt>
      <trkpt lat="40.908268" lon="-3.294830">
        <ele>881.033</ele>
        <time>2014-07-05T00:07:45Z</time>
      </trkpt>
      <trkpt lat="40.908576" lon="-3.295090">
        <ele>878.070</ele>
        <time>2014-07-05T00:08:05Z</time>
      </trkpt>
      <trkpt lat="40.908649" lon="-3.295237">
        <ele>880.088</ele>
        <time>2014-07-05T00:08:25Z</time>
      </trkpt>
      <trkpt lat="40.908744" lon="-3.295532">
        <ele>882.078</ele>
        <time>2014-07-05T00:08:45Z</time>
      </trkpt>
      <trkpt lat="40.909204" lon="-3.295986">
        <ele>878.046</ele>
        <time>2014-07-05T00:09:05Z</time>
      </trkpt>
      <trkpt lat="40.909903" lon="-3.296674">
        <ele>867.088</ele>
        <time>2014-07-05T00:09:25Z</time>
      </trkpt>
      <trkpt lat="40.910064" lon="-3.297093">
        <ele>866.016</ele>
        <time>2014-07-05T00:09:45Z</time>
      </trkpt>
      <trkpt lat="40.910082" lon="-3.297351">
        <ele>866.007</ele>
        <time>2014-07-05T00:10:05Z</time>
      </trkpt>
      <trkpt lat="40.909800" lon="-3.297893">
        <ele>870.061</ele>
        <time>2014-07-05T00:10:25Z</time>
      </trkpt>
      <trkpt lat="40.909781" lon="-3.299388">
        <ele>860.086</ele>
        <time>2014-07-05T00:10:45Z</time>
      </trkpt>
      <trkpt lat="40.909603" lon="-3.299758">
        <ele>860.076</ele>
        <time>2014-07-05T00:11:05Z</time>
      </trkpt>
      <trkpt lat="40.909287" lon="-3.299967">
        <ele>858.065</ele>
        <time>2014-07-05T00:11:25Z</time>
      </trkpt>
      <trkpt lat="40.908942" lon="-3.300654">
        <ele>855.062</ele>
        <time>2014-07-05T00:11:45Z</time>
      </trkpt>
      <trkpt lat="40.908687" lon="-3.301507">
        <ele>852.030</ele>
        <time>2014-07-05T00:12:05Z</time>
      </trkpt>
      <trkpt lat="40.908261" lon="-3.302081">
        <ele>850.060</ele>
        <time>2014-07-05T00:12:25Z</time>
      </trkpt>
      <trkpt lat="40.908289" lon="-3.302923">
        <ele>848.012</ele>
        <time>2014-07-05T00:12:45Z</time>
      </trkpt>
      <trkpt lat="40.908285" lon="-3.303497">
        <ele>846.032</ele>
        <time>2014-07-05T00:13:05Z</time>
      </trkpt>
      <trkpt lat="40.907961" lon="-3.304366">
        <ele>845.005</ele>
        <time>2014-07-05T00:13:25Z</time>
      </trkpt>
      <trkpt lat="40.907649" lon="-3.305455">
        <ele>842.007</ele>
        <time>2014-07-05T00:13:45Z</time>
      </trkpt>
      <trkpt lat="40.907304" lon="-3.306968">
        <ele>834.018</ele>
        <time>2014-07-05T00:14:05Z</time>
      </trkpt>
      <trkpt lat="40.907418" lon="-3.307445">
        <ele>833.083</ele>
        <time>2014-07-05T00:14:25Z</time>
      </trkpt>
      <trkpt lat="40.907223" lon="-3.308137">
        <ele>830.093</ele>
        <time>2014-07-05T00:14:45Z</time>
      </trkpt>
      <trkpt lat="40.907373" lon="-3.308186">
        <ele>832.072</ele>
        <time>2014-07-05T00:15:05Z</time>
      </trkpt>
      <trkpt lat="40.907766" lon="-3.307778">
        <ele>834.099</ele>
        <time>2014-07-05T00:15:25Z</time>
      </trkpt>
      <trkpt lat="40.908241" lon="-3.308212">
        <ele>844.067</ele>
        <time>2014-07-05T00:15:45Z</time>
      </trkpt>
      <trkpt lat="40.909331" lon="-3.308137">
        <ele>861.097</ele>
        <time>2014-07-05T00:16:05Z</time>
      </trkpt>
      <trkpt lat="40.909502" lon="-3.308186">
        <ele>861.091</ele>
        <time>2014-07-05T00:16:25Z</time>
      </trkpt>
      <trkpt lat="40.909660" lon="-3.308143">
        <ele>864.081</ele>
        <time>2014-07-05T00:16:45Z</time>
      </trkpt>
      <trkpt lat="40.909891" lon="-3.308164">
        <ele>867.019</ele>
        <time>2014-07-05T00:17:05Z</time>
      </trkpt>
      <trkpt lat="40.910093" lon="-3.307976">
        <ele>867.007</ele>
        <time>2014-07-05T00:17:25Z</time>
      </trkpt>
      <trkpt lat="40.910349" lon="-3.307960">
        <ele>871.026</ele>
        <time>2014-07-05T00:17:45Z</time>
      </trkpt>
      <trkpt lat="40.910710" lon="-3.307848">
        <ele>879.031</ele>
        <time>2014-07-05T00:18:05Z</time>
      </trkpt>
      <trkpt lat="40.911046" lon="-3.307848">
        <ele>884.041</ele>
        <time>2014-07-05T00:18:25Z</time>
      </trkpt>
      <trkpt lat="40.911395" lon="-3.308422">
        <ele>887.090</ele>
        <time>2014-07-05T00:18:45Z</time>
      </trkpt>
      <trkpt lat="40.911792" lon="-3.308336">
        <ele>889.097</ele>
        <time>2014-07-05T00:19:05Z</time>
      </trkpt>
      <trkpt lat="40.912052" lon="-3.308164">
        <ele>892.035</ele>
        <time>2014-07-05T00:19:25Z</time>
      </trkpt>
      <trkpt lat="40.912208" lon="-3.308166">
        <ele>893.055</ele>
        <time>2014-07-05T00:19:45Z</time>
      </trkpt>
      <trkpt lat="40.912926" lon="-3.307943">
        <ele>894.061</ele>
        <time>2014-07-05T00:20:05Z</time>
      </trkpt>
      <trkpt lat="40.913652" lon="-3.307779">
        <ele>899.021</ele>
        <time>2014-07-05T00:20:25Z</time>
      </trkpt>
      <trkpt lat="40.913970" lon="-3.307782">
        <ele>903.013</ele>
        <time>2014-07-05T00:20:45Z</time>
      </trkpt>
      <trkpt lat="40.914756" lon="-3.307672">
        <ele>915.007</ele>
        <time>2014-07-05T00:21:05Z</time>
      </trkpt>
      <trkpt lat="40.915407" lon="-3.307589">
        <ele>925.083</ele>
        <time>2014-07-05T00:21:25Z</time>
      </trkpt>
      <trkpt lat="40.915790" lon="-3.307406">
        <ele>941.048</ele>
        <time>2014-07-05T00:21:45Z</time>
      </trkpt>
      <trkpt lat="40.916485" lon="-3.306977">
        <ele>953.028</ele>
        <time>2014-07-05T00:22:05Z</time>
      </trkpt>
      <trkpt lat="40.917093" lon="-3.306583">
        <ele>954.087</ele>
        <time>2014-07-05T00:22:25Z</time>
      </trkpt>
      <trkpt lat="40.917361" lon="-3.306468">
        <ele>955.024</ele>
        <time>2014-07-05T00:22:45Z</time>
      </trkpt>
      <trkpt lat="40.918901" lon="-3.305517">
        <ele>944.012</ele>
        <time>2014-07-05T00:23:05Z</time>
      </trkpt>
      <trkpt lat="40.919136" lon="-3.305635">
        <ele>940.062</ele>
        <time>2014-07-05T00:23:25Z</time>
      </trkpt>
      <trkpt lat="40.919533" lon="-3.305055">
        <ele>939.041</ele>
        <time>2014-07-05T00:23:45Z</time>
      </trkpt>
      <trkpt lat="40.920360" lon="-3.305034">
        <ele>930.081</ele>
        <time>2014-07-05T00:24:05Z</time>
      </trkpt>
      <trkpt lat="40.920798" lon="-3.304777">
        <ele>922.009</ele>
        <time>2014-07-05T00:24:25Z</time>
      </trkpt>
      <trkpt lat="40.921114" lon="-3.304283">
        <ele>925.007</ele>
        <time>2014-07-05T00:24:45Z</time>
      </trkpt>
      <trkpt lat="40.921779" lon="-3.304229">
        <ele>914.041</ele>
        <time>2014-07-05T00:25:05Z</time>
      </trkpt>
      <trkpt lat="40.922127" lon="-3.303811">
        <ele>906.026</ele>
        <time>2014-07-05T00:25:25Z</time>
      </trkpt>
      <trkpt lat="40.922225" lon="-3.305377">
        <ele>888.026</ele>
        <time>2014-07-05T00:25:45Z</time>
      </trkpt>
      <trkpt lat="40.923611" lon="-3.304047">
        <ele>863.055</ele>
        <time>2014-07-05T00:26:05Z</time>
      </trkpt>
      <trkpt lat="40.923595" lon="-3.305066">
        <ele>856.012</ele>
        <time>2014-07-05T00:26:25Z</time>
      </trkpt>
      <trkpt lat="40.923838" lon="-3.304916">
        <ele>857.050</ele>
        <time>2014-07-05T00:26:45Z</time>
      </trkpt>
      <trkpt lat="40.924097" lon="-3.304401">
        <ele>858.050</ele>
        <time>2014-07-05T00:27:05Z</time>
      </trkpt>
      <trkpt lat="40.924608" lon="-3.303779">
        <ele>858.013</ele>
        <time>2014-07-05T00:27:25Z</time>
      </trkpt>
      <trkpt lat="40.925110" lon="-3.303511">
        <ele>859.043</ele>
        <time>2014-07-05T00:27:45Z</time>
      </trkpt>
      <trkpt lat="40.925524" lon="-3.302856">
        <ele>860.007</ele>
        <time>2014-07-05T00:28:05Z</time>
      </trkpt>
      <trkpt lat="40.925573" lon="-3.302459">
        <ele>861.007</ele>
        <time>2014-07-05T00:28:25Z</time>
      </trkpt>
      <trkpt lat="40.925646" lon="-3.302330">
        <ele>862.048</ele>
        <time>2014-07-05T00:28:45Z</time>
      </trkpt>
      <trkpt lat="40.925856" lon="-3.302459">
        <ele>856.053</ele>
        <time>2014-07-05T00:29:05Z</time>
      </trkpt>
      <trkpt lat="40.926480" lon="-3.301483">
        <ele>857.083</ele>
        <time>2014-07-05T00:29:25Z</time>
      </trkpt>
      <trkpt lat="40.926480" lon="-3.301043">
        <ele>860.032</ele>
        <time>2014-07-05T00:29:45Z</time>
      </trkpt>
      <trkpt lat="40.926926" lon="-3.300560">
        <ele>857.049</ele>
        <time>2014-07-05T00:30:05Z</time>
      </trkpt>
      <trkpt lat="40.926788" lon="-3.301011">
        <ele>856.087</ele>
        <time>2014-07-05T00:30:25Z</time>
      </trkpt>
      <trkpt lat="40.926845" lon="-3.301837">
        <ele>845.047</ele>
        <time>2014-07-05T00:30:45Z</time>
      </trkpt>
      <trkpt lat="40.926780" lon="-3.302448">
        <ele>841.024</ele>
        <time>2014-07-05T00:31:05Z</time>
      </trkpt>
      <trkpt lat="40.927088" lon="-3.302888">
        <ele>841.004</ele>
        <time>2014-07-05T00:31:25Z</time>
      </trkpt>
      <trkpt lat="40.927210" lon="-3.302727">
        <ele>841.014</ele>
        <time>2014-07-05T00:31:45Z</time>
      </trkpt>
      <trkpt lat="40.927234" lon="-3.301848">
        <ele>846.007</ele>
        <time>2014-07-05T00:32:05Z</time>
      </trkpt>
      <trkpt lat="40.927388" lon="-3.301408">
        <ele>849.099</ele>
        <time>2014-07-05T00:32:25Z</time>
      </trkpt>
      <trkpt lat="40.927931" lon="-3.300657">
        <ele>851.044</ele>
        <time>2014-07-05T00:32:45Z</time>
      </trkpt>
      <trkpt lat="40.929164" lon="-3.299444">
        <ele>859.074</ele>
        <time>2014-07-05T00:33:05Z</time>
      </trkpt>
      <trkpt lat="40.929212" lon="-3.299240">
        <ele>857.043</ele>
        <time>2014-07-05T00:33:25Z</time>
      </trkpt>
      <trkpt lat="40.929520" lon="-3.298972">
        <ele>860.040</ele>
        <time>2014-07-05T00:33:45Z</time>
      </trkpt>
      <trkpt lat="40.930428" lon="-3.298725">
        <ele>871.058</ele>
        <time>2014-07-05T00:34:05Z</time>
      </trkpt>
      <trkpt lat="40.930647" lon="-3.298844">
        <ele>871.018</ele>
        <time>2014-07-05T00:34:25Z</time>
      </trkpt>
      <trkpt lat="40.931247" lon="-3.297395">
        <ele>887.024</ele>
        <time>2014-07-05T00:34:45Z</time>
      </trkpt>
      <trkpt lat="40.931765" lon="-3.297234">
        <ele>898.004</ele>
        <time>2014-07-05T00:35:05Z</time>
      </trkpt>
      <trkpt lat="40.932252" lon="-3.296751">
        <ele>911.014</ele>
        <time>2014-07-05T00:35:25Z</time>
      </trkpt>
      <trkpt lat="40.934335" lon="-3.295764">
        <ele>946.007</ele>
        <time>2014-07-05T00:35:45Z</time>
      </trkpt>
      <trkpt lat="40.934610" lon="-3.295625">
        <ele>952.019</ele>
        <time>2014-07-05T00:36:05Z</time>
      </trkpt>
      <trkpt lat="40.934891" lon="-3.295642">
        <ele>953.094</ele>
        <time>2014-07-05T00:36:25Z</time>
      </trkpt>
      <trkpt lat="40.935239" lon="-3.294945">
        <ele>961.044</ele>
        <time>2014-07-05T00:36:45Z</time>
      </trkpt>
      <trkpt lat="40.936442" lon="-3.294080">
        <ele>971.063</ele>
        <time>2014-07-05T00:37:05Z</time>
      </trkpt>
      <trkpt lat="40.936596" lon="-3.293801">
        <ele>970.060</ele>
        <time>2014-07-05T00:37:25Z</time>
      </trkpt>
      <trkpt lat="40.937877" lon="-3.293071">
        <ele>976.018</ele>
        <time>2014-07-05T00:37:45Z</time>
      </trkpt>
      <trkpt lat="40.937950" lon="-3.293124">
        <ele>979.018</ele>
        <time>2014-07-05T00:38:05Z</time>
      </trkpt>
      <trkpt lat="40.938404" lon="-3.291923">
        <ele>972.064</ele>
        <time>2014-07-05T00:38:25Z</time>
      </trkpt>
      <trkpt lat="40.938857" lon="-3.291183">
        <ele>977.006</ele>
        <time>2014-07-05T00:38:45Z</time>
      </trkpt>
      <trkpt lat="40.938898" lon="-3.290239">
        <ele>980.016</ele>
        <time>2014-07-05T00:39:05Z</time>
      </trkpt>
      <trkpt lat="40.939684" lon="-3.289306">
        <ele>986.007</ele>
        <time>2014-07-05T00:39:25Z</time>
      </trkpt>
      <trkpt lat="40.940138" lon="-3.287922">
        <ele>986.043</ele>
        <time>2014-07-05T00:39:45Z</time>
      </trkpt>
      <trkpt lat="40.940616" lon="-3.287621">
        <ele>993.098</ele>
        <time>2014-07-05T00:40:05Z</time>
      </trkpt>
      <trkpt lat="40.940875" lon="-3.287374">
        <ele>996.038</ele>
        <time>2014-07-05T00:40:25Z</time>
      </trkpt>
      <trkpt lat="40.942448" lon="-3.286859">
        <ele>1001.057</ele>
        <time>2014-07-05T00:40:45Z</time>
      </trkpt>
      <trkpt lat="40.943153" lon="-3.286398">
        <ele>1011.064</ele>
        <time>2014-07-05T00:41:05Z</time>
      </trkpt>
      <trkpt lat="40.943558" lon="-3.285668">
        <ele>1013.012</ele>
        <time>2014-07-05T00:41:25Z</time>
      </trkpt>
      <trkpt lat="40.944579" lon="-3.285368">
        <ele>1014.082</ele>
        <time>2014-07-05T00:41:45Z</time>
      </trkpt>
      <trkpt lat="40.945422" lon="-3.284960">
        <ele>1018.018</ele>
        <time>2014-07-05T00:42:05Z</time>
      </trkpt>
      <trkpt lat="40.946143" lon="-3.284360">
        <ele>1019.098</ele>
        <time>2014-07-05T00:42:25Z</time>
      </trkpt>
      <trkpt lat="40.946678" lon="-3.284166">
        <ele>1018.017</ele>
        <time>2014-07-05T00:42:45Z</time>
      </trkpt>
      <trkpt lat="40.948850" lon="-3.283780">
        <ele>1022.007</ele>
        <time>2014-07-05T00:43:05Z</time>
      </trkpt>
      <trkpt lat="40.949498" lon="-3.283544">
        <ele>1022.098</ele>
        <time>2014-07-05T00:43:25Z</time>
      </trkpt>
      <trkpt lat="40.951362" lon="-3.283619">
        <ele>1025.053</ele>
        <time>2014-07-05T00:43:45Z</time>
      </trkpt>
      <trkpt lat="40.951678" lon="-3.283448">
        <ele>1027.033</ele>
        <time>2014-07-05T00:44:05Z</time>
      </trkpt>
      <trkpt lat="40.951994" lon="-3.283426">
        <ele>1028.062</ele>
        <time>2014-07-05T00:44:25Z</time>
      </trkpt>
      <trkpt lat="40.952577" lon="-3.282890">
        <ele>1030.079</ele>
        <time>2014-07-05T00:44:45Z</time>
      </trkpt>
      <trkpt lat="40.952415" lon="-3.281237">
        <ele>1028.057</ele>
        <time>2014-07-05T00:45:05Z</time>
      </trkpt>
      <trkpt lat="40.952569" lon="-3.280100">
        <ele>1031.037</ele>
        <time>2014-07-05T00:45:25Z</time>
      </trkpt>
      <trkpt lat="40.952982" lon="-3.279060">
        <ele>1037.069</ele>
        <time>2014-07-05T00:45:45Z</time>
      </trkpt>
      <trkpt lat="40.953355" lon="-3.278641">
        <ele>1042.004</ele>
        <time>2014-07-05T00:46:05Z</time>
      </trkpt>
      <trkpt lat="40.953695" lon="-3.278158">
        <ele>1047.024</ele>
        <time>2014-07-05T00:46:25Z</time>
      </trkpt>
      <trkpt lat="40.954579" lon="-3.275841">
        <ele>1051.007</ele>
        <time>2014-07-05T00:46:45Z</time>
      </trkpt>
      <trkpt lat="40.955713" lon="-3.277064">
        <ele>1034.053</ele>
        <time>2014-07-05T00:47:05Z</time>
      </trkpt>
      <trkpt lat="40.956191" lon="-3.277879">
        <ele>1027.018</ele>
        <time>2014-07-05T00:47:25Z</time>
      </trkpt>
      <trkpt lat="40.956823" lon="-3.278309">
        <ele>1031.028</ele>
        <time>2014-07-05T00:47:45Z</time>
      </trkpt>
      <trkpt lat="40.958800" lon="-3.279693">
        <ele>1026.057</ele>
        <time>2014-07-05T00:48:05Z</time>
      </trkpt>
      <trkpt lat="40.960858" lon="-3.280830">
        <ele>1025.034</ele>
        <time>2014-07-05T00:48:25Z</time>
      </trkpt>
      <trkpt lat="40.961684" lon="-3.281388">
        <ele>1030.042</ele>
        <time>2014-07-05T00:48:45Z</time>
      </trkpt>
      <trkpt lat="40.963118" lon="-3.281484">
        <ele>1021.062</ele>
        <time>2014-07-05T00:49:05Z</time>
      </trkpt>
      <trkpt lat="40.964139" lon="-3.281913">
        <ele>998.073</ele>
        <time>2014-07-05T00:49:25Z</time>
      </trkpt>
      <trkpt lat="40.964982" lon="-3.281956">
        <ele>970.085</ele>
        <time>2014-07-05T00:49:45Z</time>
      </trkpt>
      <trkpt lat="40.965168" lon="-3.282139">
        <ele>959.013</ele>
        <time>2014-07-05T00:50:05Z</time>
      </trkpt>
      <trkpt lat="40.965589" lon="-3.282139">
        <ele>947.007</ele>
        <time>2014-07-05T00:50:25Z</time>
      </trkpt>
      <trkpt lat="40.965667" lon="-3.282033">
        <ele>947.084</ele>
        <time>2014-07-05T00:50:45Z</time>
      </trkpt>
      <trkpt lat="40.965877" lon="-3.281990">
        <ele>934.089</ele>
        <time>2014-07-05T00:51:05Z</time>
      </trkpt>
      <trkpt lat="40.966207" lon="-3.282102">
        <ele>922.059</ele>
        <time>2014-07-05T00:51:25Z</time>
      </trkpt>
      <trkpt lat="40.966884" lon="-3.282226">
        <ele>887.068</ele>
        <time>2014-07-05T00:51:45Z</time>
      </trkpt>
      <trkpt lat="40.967020" lon="-3.282156">
        <ele>887.045</ele>
        <time>2014-07-05T00:52:05Z</time>
      </trkpt>
      <trkpt lat="40.967400" lon="-3.282102">
        <ele>872.013</ele>
        <time>2014-07-05T00:52:25Z</time>
      </trkpt>
      <trkpt lat="40.967534" lon="-3.281979">
        <ele>870.043</ele>
        <time>2014-07-05T00:52:45Z</time>
      </trkpt>
      <trkpt lat="40.967607" lon="-3.281656">
        <ele>869.017</ele>
        <time>2014-07-05T00:53:05Z</time>
      </trkpt>
      <trkpt lat="40.967931" lon="-3.280969">
        <ele>862.087</ele>
        <time>2014-07-05T00:53:25Z</time>
      </trkpt>
      <trkpt lat="40.967971" lon="-3.280562">
        <ele>864.015</ele>
        <time>2014-07-05T00:53:45Z</time>
      </trkpt>
      <trkpt lat="40.967906" lon="-3.279918">
        <ele>870.007</ele>
        <time>2014-07-05T00:54:05Z</time>
      </trkpt>
      <trkpt lat="40.968425" lon="-3.280089">
        <ele>867.048</ele>
        <time>2014-07-05T00:54:25Z</time>
      </trkpt>
      <trkpt lat="40.968530" lon="-3.280862">
        <ele>868.093</ele>
        <time>2014-07-05T00:54:45Z</time>
      </trkpt>
      <trkpt lat="40.968328" lon="-3.281570">
        <ele>862.033</ele>
        <time>2014-07-05T00:55:05Z</time>
      </trkpt>
      <trkpt lat="40.968870" lon="-3.282385">
        <ele>871.032</ele>
        <time>2014-07-05T00:55:25Z</time>
      </trkpt>
      <trkpt lat="40.969081" lon="-3.283362">
        <ele>877.039</ele>
        <time>2014-07-05T00:55:45Z</time>
      </trkpt>
      <trkpt lat="40.969081" lon="-3.284467">
        <ele>876.077</ele>
        <time>2014-07-05T00:56:05Z</time>
      </trkpt>
      <trkpt lat="40.969016" lon="-3.285229">
        <ele>870.017</ele>
        <time>2014-07-05T00:56:25Z</time>
      </trkpt>
      <trkpt lat="40.969364" lon="-3.285744">
        <ele>882.023</ele>
        <time>2014-07-05T00:56:45Z</time>
      </trkpt>
      <trkpt lat="40.968789" lon="-3.287128">
        <ele>873.083</ele>
        <time>2014-07-05T00:57:05Z</time>
      </trkpt>
      <trkpt lat="40.968781" lon="-3.288007">
        <ele>873.011</ele>
        <time>2014-07-05T00:57:25Z</time>
      </trkpt>
      <trkpt lat="40.969065" lon="-3.289188">
        <ele>874.007</ele>
        <time>2014-07-05T00:57:45Z</time>
      </trkpt>
      <trkpt lat="40.969421" lon="-3.289434">
        <ele>876.039</ele>
        <time>2014-07-05T00:58:05Z</time>
      </trkpt>
      <trkpt lat="40.970012" lon="-3.290400">
        <ele>880.034</ele>
        <time>2014-07-05T00:58:25Z</time>
      </trkpt>
      <trkpt lat="40.970312" lon="-3.291076">
        <ele>877.044</ele>
        <time>2014-07-05T00:58:45Z</time>
      </trkpt>
      <trkpt lat="40.971576" lon="-3.291312">
        <ele>879.023</ele>
        <time>2014-07-05T00:59:05Z</time>
      </trkpt>
      <trkpt lat="40.971916" lon="-3.290797">
        <ele>889.080</ele>
        <time>2014-07-05T00:59:25Z</time>
      </trkpt>
      <trkpt lat="40.973593" lon="-3.290786">
        <ele>894.088</ele>
        <time>2014-07-05T00:59:45Z</time>
      </trkpt>
      <trkpt lat="40.974063" lon="-3.290228">
        <ele>897.018</ele>
        <time>2014-07-05T01:00:05Z</time>
      </trkpt>
      <trkpt lat="40.975140" lon="-3.289745">
        <ele>897.049</ele>
        <time>2014-07-05T01:00:25Z</time>
      </trkpt>
      <trkpt lat="40.975448" lon="-3.289145">
        <ele>902.002</ele>
        <time>2014-07-05T01:00:45Z</time>
      </trkpt>
      <trkpt lat="40.976315" lon="-3.289220">
        <ele>903.022</ele>
        <time>2014-07-05T01:01:05Z</time>
      </trkpt>
      <trkpt lat="40.978494" lon="-3.289617">
        <ele>904.007</ele>
        <time>2014-07-05T01:01:25Z</time>
      </trkpt>
      <trkpt lat="40.979052" lon="-3.289574">
        <ele>910.021</ele>
        <time>2014-07-05T01:01:45Z</time>
      </trkpt>
      <trkpt lat="40.981215" lon="-3.290218">
        <ele>900.056</ele>
        <time>2014-07-05T01:02:05Z</time>
      </trkpt>
      <trkpt lat="40.981377" lon="-3.290647">
        <ele>902.046</ele>
        <time>2014-07-05T01:02:25Z</time>
      </trkpt>
      <trkpt lat="40.981426" lon="-3.292106">
        <ele>910.085</ele>
        <time>2014-07-05T01:02:45Z</time>
      </trkpt>
      <trkpt lat="40.981126" lon="-3.293350">
        <ele>912.012</ele>
        <time>2014-07-05T01:03:05Z</time>
      </trkpt>
      <trkpt lat="40.980494" lon="-3.294445">
        <ele>915.070</ele>
        <time>2014-07-05T01:03:25Z</time>
      </trkpt>
      <trkpt lat="40.980486" lon="-3.294938">
        <ele>920.060</ele>
        <time>2014-07-05T01:03:45Z</time>
      </trkpt>
      <trkpt lat="40.980413" lon="-3.295668">
        <ele>919.075</ele>
        <time>2014-07-05T01:04:05Z</time>
      </trkpt>
      <trkpt lat="40.980680" lon="-3.295807">
        <ele>925.028</ele>
        <time>2014-07-05T01:04:25Z</time>
      </trkpt>
      <trkpt lat="40.981336" lon="-3.294488">
        <ele>919.020</ele>
        <time>2014-07-05T01:04:45Z</time>
      </trkpt>
      <trkpt lat="40.981758" lon="-3.294241">
        <ele>920.007</ele>
        <time>2014-07-05T01:05:05Z</time>
      </trkpt>
      <trkpt lat="40.982754" lon="-3.294809">
        <ele>907.034</ele>
        <time>2014-07-05T01:05:25Z</time>
      </trkpt>
      <trkpt lat="40.983863" lon="-3.294380">
        <ele>897.029</ele>
        <time>2014-07-05T01:05:45Z</time>
      </trkpt>
      <trkpt lat="40.984349" lon="-3.293007">
        <ele>909.069</ele>
        <time>2014-07-05T01:06:05Z</time>
      </trkpt>
      <trkpt lat="40.984843" lon="-3.292932">
        <ele>901.058</ele>
        <time>2014-07-05T01:06:25Z</time>
      </trkpt>
      <trkpt lat="40.985467" lon="-3.292481">
        <ele>896.075</ele>
        <time>2014-07-05T01:06:45Z</time>
      </trkpt>
      <trkpt lat="40.986066" lon="-3.291634">
        <ele>904.023</ele>
        <time>2014-07-05T01:07:05Z</time>
      </trkpt>
      <trkpt lat="40.986488" lon="-3.291634">
        <ele>902.093</ele>
        <time>2014-07-05T01:07:25Z</time>
      </trkpt>
      <trkpt lat="40.986795" lon="-3.292449">
        <ele>888.099</ele>
        <time>2014-07-05T01:07:45Z</time>
      </trkpt>
      <trkpt lat="40.987176" lon="-3.292632">
        <ele>888.007</ele>
        <time>2014-07-05T01:08:05Z</time>
      </trkpt>
      <trkpt lat="40.988585" lon="-3.292492">
        <ele>885.027</ele>
        <time>2014-07-05T01:08:25Z</time>
      </trkpt>
      <trkpt lat="40.990764" lon="-3.292760">
        <ele>885.007</ele>
        <time>2014-07-05T01:08:45Z</time>
      </trkpt>
      <trkpt lat="40.992950" lon="-3.293039">
        <ele>886.056</ele>
        <time>2014-07-05T01:09:05Z</time>
      </trkpt>
      <trkpt lat="40.993355" lon="-3.292986">
        <ele>884.091</ele>
        <time>2014-07-05T01:09:25Z</time>
      </trkpt>
      <trkpt lat="40.994068" lon="-3.291977">
        <ele>884.011</ele>
        <time>2014-07-05T01:09:45Z</time>
      </trkpt>
      <trkpt lat="40.994715" lon="-3.292149">
        <ele>877.030</ele>
        <time>2014-07-05T01:10:05Z</time>
      </trkpt>
      <trkpt lat="40.995379" lon="-3.291902">
        <ele>880.017</ele>
        <time>2014-07-05T01:10:25Z</time>
      </trkpt>
      <trkpt lat="40.995784" lon="-3.292353">
        <ele>878.035</ele>
        <time>2014-07-05T01:10:45Z</time>
      </trkpt>
      <trkpt lat="40.996497" lon="-3.292578">
        <ele>874.085</ele>
        <time>2014-07-05T01:11:05Z</time>
      </trkpt>
      <trkpt lat="40.997728" lon="-3.294455">
        <ele>868.023</ele>
        <time>2014-07-05T01:11:25Z</time>
      </trkpt>
      <trkpt lat="40.998562" lon="-3.293769">
        <ele>876.083</ele>
        <time>2014-07-05T01:11:45Z</time>
      </trkpt>
      <trkpt lat="40.998813" lon="-3.293028">
        <ele>878.011</ele>
        <time>2014-07-05T01:12:05Z</time>
      </trkpt>
      <trkpt lat="40.999145" lon="-3.292782">
        <ele>878.007</ele>
        <time>2014-07-05T01:12:25Z</time>
      </trkpt>
      <trkpt lat="40.999525" lon="-3.293297">
        <ele>879.069</ele>
        <time>2014-07-05T01:12:45Z</time>
      </trkpt>
      <trkpt lat="41.001218" lon="-3.291473">
        <ele>886.054</ele>
        <time>2014-07-05T01:13:05Z</time>
      </trkpt>
      <trkpt lat="41.001671" lon="-3.291151">
        <ele>891.094</ele>
        <time>2014-07-05T01:13:25Z</time>
      </trkpt>
      <trkpt lat="41.001015" lon="-3.292106">
        <ele>894.083</ele>
        <time>2014-07-05T01:13:45Z</time>
      </trkpt>
      <trkpt lat="41.000319" lon="-3.293361">
        <ele>890.020</ele>
        <time>2014-07-05T01:14:05Z</time>
      </trkpt>
      <trkpt lat="41.000562" lon="-3.293865">
        <ele>900.048</ele>
        <time>2014-07-05T01:14:25Z</time>
      </trkpt>
      <trkpt lat="41.000343" lon="-3.295099">
        <ele>893.048</ele>
        <time>2014-07-05T01:14:45Z</time>
      </trkpt>
      <trkpt lat="41.001809" lon="-3.295346">
        <ele>914.039</ele>
        <time>2014-07-05T01:15:05Z</time>
      </trkpt>
      <trkpt lat="41.002149" lon="-3.294627">
        <ele>918.001</ele>
        <time>2014-07-05T01:15:25Z</time>
      </trkpt>
      <trkpt lat="41.002456" lon="-3.295228">
        <ele>920.021</ele>
        <time>2014-07-05T01:15:45Z</time>
      </trkpt>
      <trkpt lat="41.002295" lon="-3.297588">
        <ele>925.007</ele>
        <time>2014-07-05T01:16:05Z</time>
      </trkpt>
      <trkpt lat="41.002505" lon="-3.297835">
        <ele>926.050</ele>
        <time>2014-07-05T01:16:25Z</time>
      </trkpt>
      <trkpt lat="41.002950" lon="-3.297867">
        <ele>916.045</ele>
        <time>2014-07-05T01:16:45Z</time>
      </trkpt>
      <trkpt lat="41.003193" lon="-3.298607">
        <ele>922.065</ele>
        <time>2014-07-05T01:17:05Z</time>
      </trkpt>
      <trkpt lat="41.002788" lon="-3.299906">
        <ele>930.044</ele>
        <time>2014-07-05T01:17:25Z</time>
      </trkpt>
      <trkpt lat="41.002707" lon="-3.300270">
        <ele>923.011</ele>
        <time>2014-07-05T01:17:45Z</time>
      </trkpt>
      <trkpt lat="41.002829" lon="-3.300528">
        <ele>915.049</ele>
        <time>2014-07-05T01:18:05Z</time>
      </trkpt>
      <trkpt lat="41.004278" lon="-3.301343">
        <ele>905.029</ele>
        <time>2014-07-05T01:18:25Z</time>
      </trkpt>
      <trkpt lat="41.004483" lon="-3.301390">
        <ele>912.063</ele>
        <time>2014-07-05T01:18:45Z</time>
      </trkpt>
      <trkpt lat="41.004649" lon="-3.301538">
        <ele>918.044</ele>
        <time>2014-07-05T01:19:05Z</time>
      </trkpt>
      <trkpt lat="41.005060" lon="-3.301642">
        <ele>919.018</ele>
        <time>2014-07-05T01:19:25Z</time>
      </trkpt>
      <trkpt lat="41.005277" lon="-3.301801">
        <ele>919.007</ele>
        <time>2014-07-05T01:19:45Z</time>
      </trkpt>
      <trkpt lat="41.005305" lon="-3.302002">
        <ele>922.093</ele>
        <time>2014-07-05T01:20:05Z</time>
      </trkpt>
      <trkpt lat="41.005230" lon="-3.302377">
        <ele>927.068</ele>
        <time>2014-07-05T01:20:25Z</time>
      </trkpt>
      <trkpt lat="41.005384" lon="-3.302348">
        <ele>924.068</ele>
        <time>2014-07-05T01:20:45Z</time>
      </trkpt>
      <trkpt lat="41.005647" lon="-3.302074">
        <ele>922.077</ele>
        <time>2014-07-05T01:21:05Z</time>
      </trkpt>
      <trkpt lat="41.005968" lon="-3.301775">
        <ele>921.074</ele>
        <time>2014-07-05T01:21:25Z</time>
      </trkpt>
      <trkpt lat="41.006191" lon="-3.301888">
        <ele>925.072</ele>
        <time>2014-07-05T01:21:45Z</time>
      </trkpt>
      <trkpt lat="41.006357" lon="-3.302381">
        <ele>930.052</ele>
        <time>2014-07-05T01:22:05Z</time>
      </trkpt>
      <trkpt lat="41.006183" lon="-3.302778">
        <ele>934.058</ele>
        <time>2014-07-05T01:22:25Z</time>
      </trkpt>
      <trkpt lat="41.006057" lon="-3.303486">
        <ele>945.052</ele>
        <time>2014-07-05T01:22:45Z</time>
      </trkpt>
      <trkpt lat="41.005579" lon="-3.303529">
        <ele>943.017</ele>
        <time>2014-07-05T01:23:05Z</time>
      </trkpt>
      <trkpt lat="41.003907" lon="-3.305160">
        <ele>956.007</ele>
        <time>2014-07-05T01:23:25Z</time>
      </trkpt>
      <trkpt lat="41.003434" lon="-3.306625">
        <ele>970.042</ele>
        <time>2014-07-05T01:23:45Z</time>
      </trkpt>
      <trkpt lat="41.003308" lon="-3.307445">
        <ele>981.067</ele>
        <time>2014-07-05T01:24:05Z</time>
      </trkpt>
      <trkpt lat="41.002924" lon="-3.307472">
        <ele>981.047</ele>
        <time>2014-07-05T01:24:25Z</time>
      </trkpt>
      <trkpt lat="41.002240" lon="-3.307783">
        <ele>986.066</ele>
        <time>2014-07-05T01:24:45Z</time>
      </trkpt>
      <trkpt lat="41.001895" lon="-3.307762">
        <ele>982.083</ele>
        <time>2014-07-05T01:25:05Z</time>
      </trkpt>
      <trkpt lat="41.001778" lon="-3.307901">
        <ele>977.071</ele>
        <time>2014-07-05T01:25:25Z</time>
      </trkpt>
      <trkpt lat="41.001871" lon="-3.308127">
        <ele>984.031</ele>
        <time>2014-07-05T01:25:45Z</time>
      </trkpt>
      <trkpt lat="41.002482" lon="-3.308347">
        <ele>995.058</ele>
        <time>2014-07-05T01:26:05Z</time>
      </trkpt>
      <trkpt lat="41.002891" lon="-3.309301">
        <ele>1007.052</ele>
        <time>2014-07-05T01:26:25Z</time>
      </trkpt>
      <trkpt lat="41.003891" lon="-3.310535">
        <ele>1018.017</ele>
        <time>2014-07-05T01:26:45Z</time>
      </trkpt>
      <trkpt lat="41.004137" lon="-3.311466">
        <ele>1028.007</ele>
        <time>2014-07-05T01:27:05Z</time>
      </trkpt>
      <trkpt lat="41.004300" lon="-3.311565">
        <ele>1033.052</ele>
        <time>2014-07-05T01:27:25Z</time>
      </trkpt>
      <trkpt lat="41.004766" lon="-3.311034">
        <ele>1022.017</ele>
        <time>2014-07-05T01:27:45Z</time>
      </trkpt>
      <trkpt lat="41.005843" lon="-3.311490">
        <ele>1032.037</ele>
        <time>2014-07-05T01:28:05Z</time>
      </trkpt>
      <trkpt lat="41.006037" lon="-3.311270">
        <ele>1034.026</ele>
        <time>2014-07-05T01:28:25Z</time>
      </trkpt>
      <trkpt lat="41.006033" lon="-3.310594">
        <ele>1027.023</ele>
        <time>2014-07-05T01:28:45Z</time>
      </trkpt>
      <trkpt lat="41.006454" lon="-3.309146">
        <ele>1027.031</ele>
        <time>2014-07-05T01:29:05Z</time>
      </trkpt>
      <trkpt lat="41.006656" lon="-3.309033">
        <ele>1025.091</ele>
        <time>2014-07-05T01:29:25Z</time>
      </trkpt>
      <trkpt lat="41.006875" lon="-3.309253">
        <ele>1022.067</ele>
        <time>2014-07-05T01:29:45Z</time>
      </trkpt>
      <trkpt lat="41.007211" lon="-3.309800">
        <ele>1023.081</ele>
        <time>2014-07-05T01:30:05Z</time>
      </trkpt>
      <trkpt lat="41.008142" lon="-3.310621">
        <ele>1023.019</ele>
        <time>2014-07-05T01:30:25Z</time>
      </trkpt>
      <trkpt lat="41.008332" lon="-3.310964">
        <ele>1023.007</ele>
        <time>2014-07-05T01:30:45Z</time>
      </trkpt>
      <trkpt lat="41.008522" lon="-3.311056">
        <ele>1026.053</ele>
        <time>2014-07-05T01:31:05Z</time>
      </trkpt>
      <trkpt lat="41.008607" lon="-3.310793">
        <ele>1024.088</ele>
        <time>2014-07-05T01:31:25Z</time>
      </trkpt>
      <trkpt lat="41.008595" lon="-3.310101">
        <ele>1026.058</ele>
        <time>2014-07-05T01:31:45Z</time>
      </trkpt>
      <trkpt lat="41.008320" lon="-3.309398">
        <ele>1026.047</ele>
        <time>2014-07-05T01:32:05Z</time>
      </trkpt>
      <trkpt lat="41.008199" lon="-3.308717">
        <ele>1025.054</ele>
        <time>2014-07-05T01:32:25Z</time>
      </trkpt>
      <trkpt lat="41.008340" lon="-3.307923">
        <ele>1019.012</ele>
        <time>2014-07-05T01:32:45Z</time>
      </trkpt>
      <trkpt lat="41.009275" lon="-3.307488">
        <ele>1034.052</ele>
        <time>2014-07-05T01:33:05Z</time>
      </trkpt>
      <trkpt lat="41.009887" lon="-3.307676">
        <ele>1050.063</ele>
        <time>2014-07-05T01:33:25Z</time>
      </trkpt>
      <trkpt lat="41.010623" lon="-3.307349">
        <ele>1043.044</ele>
        <time>2014-07-05T01:33:45Z</time>
      </trkpt>
      <trkpt lat="41.011453" lon="-3.308545">
        <ele>1060.018</ele>
        <time>2014-07-05T01:34:05Z</time>
      </trkpt>
      <trkpt lat="41.012145" lon="-3.308867">
        <ele>1058.007</ele>
        <time>2014-07-05T01:34:25Z</time>
      </trkpt>
      <trkpt lat="41.012319" lon="-3.309870">
        <ele>1077.083</ele>
        <time>2014-07-05T01:34:45Z</time>
      </trkpt>
      <trkpt lat="41.012481" lon="-3.310187">
        <ele>1083.028</ele>
        <time>2014-07-05T01:35:05Z</time>
      </trkpt>
      <trkpt lat="41.012866" lon="-3.310144">
        <ele>1083.068</ele>
        <time>2014-07-05T01:35:25Z</time>
      </trkpt>
      <trkpt lat="41.013169" lon="-3.309736">
        <ele>1073.077</ele>
        <time>2014-07-05T01:35:45Z</time>
      </trkpt>
      <trkpt lat="41.013853" lon="-3.309371">
        <ele>1072.074</ele>
        <time>2014-07-05T01:36:05Z</time>
      </trkpt>
      <trkpt lat="41.015084" lon="-3.309918">
        <ele>1081.012</ele>
        <time>2014-07-05T01:36:25Z</time>
      </trkpt>
      <trkpt lat="41.015473" lon="-3.310449">
        <ele>1079.062</ele>
        <time>2014-07-05T01:36:45Z</time>
      </trkpt>
      <trkpt lat="41.015375" lon="-3.311163">
        <ele>1089.096</ele>
        <time>2014-07-05T01:37:05Z</time>
      </trkpt>
      <trkpt lat="41.015157" lon="-3.311673">
        <ele>1093.031</ele>
        <time>2014-07-05T01:37:25Z</time>
      </trkpt>
      <trkpt lat="41.015088" lon="-3.312504">
        <ele>1108.024</ele>
        <time>2014-07-05T01:37:45Z</time>
      </trkpt>
      <trkpt lat="41.015699" lon="-3.312998">
        <ele>1098.007</ele>
        <time>2014-07-05T01:38:05Z</time>
      </trkpt>
      <trkpt lat="41.015930" lon="-3.313754">
        <ele>1104.026</ele>
        <time>2014-07-05T01:38:25Z</time>
      </trkpt>
      <trkpt lat="41.016072" lon="-3.314655">
        <ele>1102.041</ele>
        <time>2014-07-05T01:38:45Z</time>
      </trkpt>
      <trkpt lat="41.015885" lon="-3.315347">
        <ele>1109.031</ele>
        <time>2014-07-05T01:39:05Z</time>
      </trkpt>
      <trkpt lat="41.015962" lon="-3.316157">
        <ele>1118.080</ele>
        <time>2014-07-05T01:39:25Z</time>
      </trkpt>
      <trkpt lat="41.016347" lon="-3.316871">
        <ele>1137.087</ele>
        <time>2014-07-05T01:39:45Z</time>
      </trkpt>
      <trkpt lat="41.016614" lon="-3.316399">
        <ele>1127.065</ele>
        <time>2014-07-05T01:40:05Z</time>
      </trkpt>
      <trkpt lat="41.017175" lon="-3.315988">
        <ele>1130.035</ele>
        <time>2014-07-05T01:40:25Z</time>
      </trkpt>
      <trkpt lat="41.017677" lon="-3.316364">
        <ele>1132.081</ele>
        <time>2014-07-05T01:40:45Z</time>
      </trkpt>
      <trkpt lat="41.017847" lon="-3.317501">
        <ele>1154.061</ele>
        <time>2014-07-05T01:41:05Z</time>
      </trkpt>
      <trkpt lat="41.018146" lon="-3.317823">
        <ele>1152.017</ele>
        <time>2014-07-05T01:41:25Z</time>
      </trkpt>
      <trkpt lat="41.018292" lon="-3.318477">
        <ele>1145.007</ele>
        <time>2014-07-05T01:41:45Z</time>
      </trkpt>
      <trkpt lat="41.018551" lon="-3.318745">
        <ele>1133.045</ele>
        <time>2014-07-05T01:42:05Z</time>
      </trkpt>
      <trkpt lat="41.018454" lon="-3.319336">
        <ele>1139.060</ele>
        <time>2014-07-05T01:42:25Z</time>
      </trkpt>
      <trkpt lat="41.018502" lon="-3.319765">
        <ele>1127.080</ele>
        <time>2014-07-05T01:42:45Z</time>
      </trkpt>
      <trkpt lat="41.018098" lon="-3.320634">
        <ele>1143.019</ele>
        <time>2014-07-05T01:43:05Z</time>
      </trkpt>
      <trkpt lat="41.018130" lon="-3.321267">
        <ele>1145.016</ele>
        <time>2014-07-05T01:43:25Z</time>
      </trkpt>
      <trkpt lat="41.018818" lon="-3.322093">
        <ele>1128.044</ele>
        <time>2014-07-05T01:43:45Z</time>
      </trkpt>
      <trkpt lat="41.018802" lon="-3.323144">
        <ele>1128.034</ele>
        <time>2014-07-05T01:44:05Z</time>
      </trkpt>
      <trkpt lat="41.017580" lon="-3.325472">
        <ele>1123.083</ele>
        <time>2014-07-05T01:44:25Z</time>
      </trkpt>
      <trkpt lat="41.016301" lon="-3.326052">
        <ele>1132.025</ele>
        <time>2014-07-05T01:44:45Z</time>
      </trkpt>
      <trkpt lat="41.016066" lon="-3.326417">
        <ele>1134.017</ele>
        <time>2014-07-05T01:45:05Z</time>
      </trkpt>
      <trkpt lat="41.014852" lon="-3.327232">
        <ele>1167.007</ele>
        <time>2014-07-05T01:45:25Z</time>
      </trkpt>
      <trkpt lat="41.014698" lon="-3.327629">
        <ele>1164.025</ele>
        <time>2014-07-05T01:45:45Z</time>
      </trkpt>
      <trkpt lat="41.014949" lon="-3.328069">
        <ele>1155.040</ele>
        <time>2014-07-05T01:46:05Z</time>
      </trkpt>
      <trkpt lat="41.015734" lon="-3.328841">
        <ele>1147.040</ele>
        <time>2014-07-05T01:46:25Z</time>
      </trkpt>
      <trkpt lat="41.016519" lon="-3.329270">
        <ele>1136.079</ele>
        <time>2014-07-05T01:46:45Z</time>
      </trkpt>
      <trkpt lat="41.016017" lon="-3.331266">
        <ele>1114.096</ele>
        <time>2014-07-05T01:47:05Z</time>
      </trkpt>
      <trkpt lat="41.015507" lon="-3.331921">
        <ele>1110.054</ele>
        <time>2014-07-05T01:47:25Z</time>
      </trkpt>
      <trkpt lat="41.014625" lon="-3.331878">
        <ele>1105.094</ele>
        <time>2014-07-05T01:47:45Z</time>
      </trkpt>
      <trkpt lat="41.014018" lon="-3.331813">
        <ele>1116.012</ele>
        <time>2014-07-05T01:48:05Z</time>
      </trkpt>
      <trkpt lat="41.013961" lon="-3.332049">
        <ele>1116.032</ele>
        <time>2014-07-05T01:48:25Z</time>
      </trkpt>
      <trkpt lat="41.014131" lon="-3.333144">
        <ele>1089.005</ele>
        <time>2014-07-05T01:48:45Z</time>
      </trkpt>
      <trkpt lat="41.013961" lon="-3.333487">
        <ele>1069.007</ele>
        <time>2014-07-05T01:49:05Z</time>
      </trkpt>
      <trkpt lat="41.012852" lon="-3.333712">
        <ele>1080.098</ele>
        <time>2014-07-05T01:49:25Z</time>
      </trkpt>
      <trkpt lat="41.012633" lon="-3.333862">
        <ele>1072.033</ele>
        <time>2014-07-05T01:49:45Z</time>
      </trkpt>
      <trkpt lat="41.011970" lon="-3.333637">
        <ele>1087.093</ele>
        <time>2014-07-05T01:50:05Z</time>
      </trkpt>
      <trkpt lat="41.011881" lon="-3.333787">
        <ele>1078.072</ele>
        <time>2014-07-05T01:50:25Z</time>
      </trkpt>
      <trkpt lat="41.012682" lon="-3.334860">
        <ele>1056.099</ele>
        <time>2014-07-05T01:50:45Z</time>
      </trkpt>
      <trkpt lat="41.012884" lon="-3.335729">
        <ele>1062.077</ele>
        <time>2014-07-05T01:51:05Z</time>
      </trkpt>
      <trkpt lat="41.013564" lon="-3.336083">
        <ele>1055.097</ele>
        <time>2014-07-05T01:51:25Z</time>
      </trkpt>
      <trkpt lat="41.013961" lon="-3.336577">
        <ele>1054.069</ele>
        <time>2014-07-05T01:51:45Z</time>
      </trkpt>
      <trkpt lat="41.014860" lon="-3.336491">
        <ele>1044.004</ele>
        <time>2014-07-05T01:52:05Z</time>
      </trkpt>
      <trkpt lat="41.016058" lon="-3.336974">
        <ele>1043.024</ele>
        <time>2014-07-05T01:52:25Z</time>
      </trkpt>
      <trkpt lat="41.017029" lon="-3.337135">
        <ele>1027.007</ele>
        <time>2014-07-05T01:52:45Z</time>
      </trkpt>
      <trkpt lat="41.017191" lon="-3.337349">
        <ele>1014.053</ele>
        <time>2014-07-05T01:53:05Z</time>
      </trkpt>
      <trkpt lat="41.017078" lon="-3.337725">
        <ele>1021.058</ele>
        <time>2014-07-05T01:53:25Z</time>
      </trkpt>
      <trkpt lat="41.016600" lon="-3.338497">
        <ele>1004.098</ele>
        <time>2014-07-05T01:53:45Z</time>
      </trkpt>
      <trkpt lat="41.015807" lon="-3.339173">
        <ele>1009.097</ele>
        <time>2014-07-05T01:54:05Z</time>
      </trkpt>
      <trkpt lat="41.015434" lon="-3.339109">
        <ele>1014.084</ele>
        <time>2014-07-05T01:54:25Z</time>
      </trkpt>
      <trkpt lat="41.015175" lon="-3.339302">
        <ele>1016.012</ele>
        <time>2014-07-05T01:54:45Z</time>
      </trkpt>
      <trkpt lat="41.014738" lon="-3.339366">
        <ele>1006.062</ele>
        <time>2014-07-05T01:55:05Z</time>
      </trkpt>
      <trkpt lat="41.014487" lon="-3.339452">
        <ele>1005.072</ele>
        <time>2014-07-05T01:55:25Z</time>
      </trkpt>
      <trkpt lat="41.013726" lon="-3.339356">
        <ele>1001.013</ele>
        <time>2014-07-05T01:55:45Z</time>
      </trkpt>
      <trkpt lat="41.013014" lon="-3.338605">
        <ele>1009.014</ele>
        <time>2014-07-05T01:56:05Z</time>
      </trkpt>
      <trkpt lat="41.012860" lon="-3.338572">
        <ele>1014.007</ele>
        <time>2014-07-05T01:56:25Z</time>
      </trkpt>
      <trkpt lat="41.012812" lon="-3.338787">
        <ele>1012.034</ele>
        <time>2014-07-05T01:56:45Z</time>
      </trkpt>
      <trkpt lat="41.013022" lon="-3.339935">
        <ele>1007.029</ele>
        <time>2014-07-05T01:57:05Z</time>
      </trkpt>
      <trkpt lat="41.014115" lon="-3.340557">
        <ele>1002.089</ele>
        <time>2014-07-05T01:57:25Z</time>
      </trkpt>
      <trkpt lat="41.014795" lon="-3.340783">
        <ele>1003.088</ele>
        <time>2014-07-05T01:57:45Z</time>
      </trkpt>
      <trkpt lat="41.015248" lon="-3.340707">
        <ele>993.055</ele>
        <time>2014-07-05T01:58:05Z</time>
      </trkpt>
      <trkpt lat="41.016827" lon="-3.340997">
        <ele>966.053</ele>
        <time>2014-07-05T01:58:25Z</time>
      </trkpt>
      <trkpt lat="41.017313" lon="-3.341501">
        <ele>965.023</ele>
        <time>2014-07-05T01:58:45Z</time>
      </trkpt>
      <trkpt lat="41.017928" lon="-3.341812">
        <ele>975.049</ele>
        <time>2014-07-05T01:59:05Z</time>
      </trkpt>
      <trkpt lat="41.018891" lon="-3.341019">
        <ele>985.002</ele>
        <time>2014-07-05T01:59:25Z</time>
      </trkpt>
      <trkpt lat="41.018907" lon="-3.340589">
        <ele>978.022</ele>
        <time>2014-07-05T01:59:45Z</time>
      </trkpt>
      <trkpt lat="41.018713" lon="-3.340074">
        <ele>968.007</ele>
        <time>2014-07-05T02:00:05Z</time>
      </trkpt>
      <trkpt lat="41.018786" lon="-3.339871">
        <ele>973.041</ele>
        <time>2014-07-05T02:00:25Z</time>
      </trkpt>
      <trkpt lat="41.019352" lon="-3.340214">
        <ele>990.066</ele>
        <time>2014-07-05T02:00:45Z</time>
      </trkpt>
      <trkpt lat="41.019522" lon="-3.340364">
        <ele>990.056</ele>
        <time>2014-07-05T02:01:05Z</time>
      </trkpt>
      <trkpt lat="41.019838" lon="-3.340697">
        <ele>1009.055</ele>
        <time>2014-07-05T02:01:25Z</time>
      </trkpt>
      <trkpt lat="41.020138" lon="-3.340643">
        <ele>1012.092</ele>
        <time>2014-07-05T02:01:45Z</time>
      </trkpt>
      <trkpt lat="41.021295" lon="-3.339838">
        <ele>1036.070</ele>
        <time>2014-07-05T02:02:05Z</time>
      </trkpt>
      <trkpt lat="41.021360" lon="-3.339602">
        <ele>1036.080</ele>
        <time>2014-07-05T02:02:25Z</time>
      </trkpt>
      <trkpt lat="41.021060" lon="-3.338894">
        <ele>1033.024</ele>
        <time>2014-07-05T02:02:45Z</time>
      </trkpt>
      <trkpt lat="41.020729" lon="-3.338605">
        <ele>1031.004</ele>
        <time>2014-07-05T02:03:05Z</time>
      </trkpt>
      <trkpt lat="41.020745" lon="-3.338390">
        <ele>1035.014</ele>
        <time>2014-07-05T02:03:25Z</time>
      </trkpt>
      <trkpt lat="41.021506" lon="-3.338293">
        <ele>1045.007</ele>
        <time>2014-07-05T02:03:45Z</time>
      </trkpt>
      <trkpt lat="41.022145" lon="-3.338873">
        <ele>1054.089</ele>
        <time>2014-07-05T02:04:05Z</time>
      </trkpt>
      <trkpt lat="41.022768" lon="-3.339892">
        <ele>1063.044</ele>
        <time>2014-07-05T02:04:25Z</time>
      </trkpt>
      <trkpt lat="41.022736" lon="-3.340707">
        <ele>1069.084</ele>
        <time>2014-07-05T02:04:45Z</time>
      </trkpt>
      <trkpt lat="41.022477" lon="-3.340997">
        <ele>1067.043</ele>
        <time>2014-07-05T02:05:05Z</time>
      </trkpt>
      <trkpt lat="41.021870" lon="-3.342177">
        <ele>1073.040</ele>
        <time>2014-07-05T02:05:25Z</time>
      </trkpt>
      <trkpt lat="41.021918" lon="-3.343132">
        <ele>1083.018</ele>
        <time>2014-07-05T02:05:45Z</time>
      </trkpt>
      <trkpt lat="41.021400" lon="-3.344269">
        <ele>1085.048</ele>
        <time>2014-07-05T02:06:05Z</time>
      </trkpt>
      <trkpt lat="41.021611" lon="-3.345589">
        <ele>1087.069</ele>
        <time>2014-07-05T02:06:25Z</time>
      </trkpt>
      <trkpt lat="41.023262" lon="-3.346512">
        <ele>1087.004</ele>
        <time>2014-07-05T02:06:45Z</time>
      </trkpt>
      <trkpt lat="41.024015" lon="-3.347145">
        <ele>1080.024</ele>
        <time>2014-07-05T02:07:05Z</time>
      </trkpt>
      <trkpt lat="41.024517" lon="-3.347080">
        <ele>1087.007</ele>
        <time>2014-07-05T02:07:25Z</time>
      </trkpt>
      <trkpt lat="41.024913" lon="-3.346544">
        <ele>1089.093</ele>
        <time>2014-07-05T02:07:45Z</time>
      </trkpt>
      <trkpt lat="41.025674" lon="-3.346297">
        <ele>1089.038</ele>
        <time>2014-07-05T02:08:05Z</time>
      </trkpt>
      <trkpt lat="41.026055" lon="-3.345492">
        <ele>1102.058</ele>
        <time>2014-07-05T02:08:25Z</time>
      </trkpt>
      <trkpt lat="41.026791" lon="-3.345278">
        <ele>1104.097</ele>
        <time>2014-07-05T02:08:45Z</time>
      </trkpt>
      <trkpt lat="41.028297" lon="-3.344495">
        <ele>1104.014</ele>
        <time>2014-07-05T02:09:05Z</time>
      </trkpt>
      <trkpt lat="41.028839" lon="-3.343744">
        <ele>1108.042</ele>
        <time>2014-07-05T02:09:25Z</time>
      </trkpt>
      <trkpt lat="41.029203" lon="-3.343089">
        <ele>1110.092</ele>
        <time>2014-07-05T02:09:45Z</time>
      </trkpt>
      <trkpt lat="41.030603" lon="-3.342081">
        <ele>1107.082</ele>
        <time>2014-07-05T02:10:05Z</time>
      </trkpt>
      <trkpt lat="41.032732" lon="-3.341287">
        <ele>1097.043</ele>
        <time>2014-07-05T02:10:25Z</time>
      </trkpt>
      <trkpt lat="41.033161" lon="-3.341115">
        <ele>1098.017</ele>
        <time>2014-07-05T02:10:45Z</time>
      </trkpt>
      <trkpt lat="41.033509" lon="-3.340740">
        <ele>1097.007</ele>
        <time>2014-07-05T02:11:05Z</time>
      </trkpt>
      <trkpt lat="41.035597" lon="-3.339763">
        <ele>1090.085</ele>
        <time>2014-07-05T02:11:25Z</time>
      </trkpt>
      <trkpt lat="41.036802" lon="-3.339227">
        <ele>1086.030</ele>
        <time>2014-07-05T02:11:45Z</time>
      </trkpt>
      <trkpt lat="41.037846" lon="-3.339259">
        <ele>1083.090</ele>
        <time>2014-07-05T02:12:05Z</time>
      </trkpt>
      <trkpt lat="41.038745" lon="-3.339495">
        <ele>1081.079</ele>
        <time>2014-07-05T02:12:25Z</time>
      </trkpt>
      <trkpt lat="41.039821" lon="-3.339753">
        <ele>1081.076</ele>
        <time>2014-07-05T02:12:45Z</time>
      </trkpt>
      <trkpt lat="41.040719" lon="-3.339581">
        <ele>1080.054</ele>
        <time>2014-07-05T02:13:05Z</time>
      </trkpt>
      <trkpt lat="41.041698" lon="-3.339677">
        <ele>1082.044</ele>
        <time>2014-07-05T02:13:25Z</time>
      </trkpt>
      <trkpt lat="41.042362" lon="-3.339184">
        <ele>1072.073</ele>
        <time>2014-07-05T02:13:45Z</time>
      </trkpt>
      <trkpt lat="41.043244" lon="-3.339238">
        <ele>1064.085</ele>
        <time>2014-07-05T02:14:05Z</time>
      </trkpt>
      <trkpt lat="41.043487" lon="-3.339538">
        <ele>1063.013</ele>
        <time>2014-07-05T02:14:25Z</time>
      </trkpt>
      <trkpt lat="41.043511" lon="-3.339989">
        <ele>1065.007</ele>
        <time>2014-07-05T02:14:45Z</time>
      </trkpt>
      <trkpt lat="41.043883" lon="-3.340407">
        <ele>1061.014</ele>
        <time>2014-07-05T02:15:05Z</time>
      </trkpt>
      <trkpt lat="41.044013" lon="-3.340943">
        <ele>1061.029</ele>
        <time>2014-07-05T02:15:25Z</time>
      </trkpt>
      <trkpt lat="41.045008" lon="-3.341802">
        <ele>1035.099</ele>
        <time>2014-07-05T02:15:45Z</time>
      </trkpt>
      <trkpt lat="41.044814" lon="-3.342263">
        <ele>1043.078</ele>
        <time>2014-07-05T02:16:05Z</time>
      </trkpt>
      <trkpt lat="41.044854" lon="-3.342778">
        <ele>1048.075</ele>
        <time>2014-07-05T02:16:25Z</time>
      </trkpt>
      <trkpt lat="41.045323" lon="-3.344012">
        <ele>1048.053</ele>
        <time>2014-07-05T02:16:45Z</time>
      </trkpt>
      <trkpt lat="41.045487" lon="-3.343939">
        <ele>1045.033</ele>
        <time>2014-07-05T02:17:05Z</time>
      </trkpt>
      <trkpt lat="41.045766" lon="-3.342480">
        <ele>1033.069</ele>
        <time>2014-07-05T02:17:25Z</time>
      </trkpt>
      <trkpt lat="41.045993" lon="-3.342282">
        <ele>1034.004</ele>
        <time>2014-07-05T02:17:45Z</time>
      </trkpt>
      <trkpt lat="41.046300" lon="-3.342588">
        <ele>1038.024</ele>
        <time>2014-07-05T02:18:05Z</time>
      </trkpt>
      <trkpt lat="41.046458" lon="-3.342496">
        <ele>1038.007</ele>
        <time>2014-07-05T02:18:25Z</time>
      </trkpt>
      <trkpt lat="41.046612" lon="-3.341740">
        <ele>1038.073</ele>
        <time>2014-07-05T02:18:45Z</time>
      </trkpt>
      <trkpt lat="41.046814" lon="-3.341059">
        <ele>1038.068</ele>
        <time>2014-07-05T02:19:05Z</time>
      </trkpt>
      <trkpt lat="41.046818" lon="-3.340565">
        <ele>1033.078</ele>
        <time>2014-07-05T02:19:25Z</time>
      </trkpt>
      <trkpt lat="41.046956" lon="-3.340351">
        <ele>1031.017</ele>
        <time>2014-07-05T02:19:45Z</time>
      </trkpt>
      <trkpt lat="41.047655" lon="-3.340088">
        <ele>1029.024</ele>
        <time>2014-07-05T02:20:05Z</time>
      </trkpt>
      <trkpt lat="41.048408" lon="-3.339932">
        <ele>1021.092</ele>
        <time>2014-07-05T02:20:25Z</time>
      </trkpt>
      <trkpt lat="41.049023" lon="-3.339975">
        <ele>1006.082</ele>
        <time>2014-07-05T02:20:45Z</time>
      </trkpt>
      <trkpt lat="41.049221" lon="-3.340206">
        <ele>999.028</ele>
        <time>2014-07-05T02:21:05Z</time>
      </trkpt>
      <trkpt lat="41.049371" lon="-3.340780">
        <ele>993.089</ele>
        <time>2014-07-05T02:21:25Z</time>
      </trkpt>
      <trkpt lat="41.049460" lon="-3.341123">
        <ele>994.017</ele>
        <time>2014-07-05T02:21:45Z</time>
      </trkpt>
      <trkpt lat="41.049334" lon="-3.341804">
        <ele>996.007</ele>
        <time>2014-07-05T02:22:05Z</time>
      </trkpt>
      <trkpt lat="41.049480" lon="-3.342620">
        <ele>998.059</ele>
        <time>2014-07-05T02:22:25Z</time>
      </trkpt>
      <trkpt lat="41.049581" lon="-3.342690">
        <ele>1000.034</ele>
        <time>2014-07-05T02:22:45Z</time>
      </trkpt>
      <trkpt lat="41.049727" lon="-3.343424">
        <ele>1001.054</ele>
        <time>2014-07-05T02:23:05Z</time>
      </trkpt>
      <trkpt lat="41.049836" lon="-3.343500">
        <ele>1005.063</ele>
        <time>2014-07-05T02:23:25Z</time>
      </trkpt>
      <trkpt lat="41.049929" lon="-3.343424">
        <ele>1000.030</ele>
        <time>2014-07-05T02:23:45Z</time>
      </trkpt>
      <trkpt lat="41.049957" lon="-3.343237">
        <ele>1000.018</ele>
        <time>2014-07-05T02:24:05Z</time>
      </trkpt>
      <trkpt lat="41.049970" lon="-3.342749">
        <ele>993.048</ele>
        <time>2014-07-05T02:24:25Z</time>
      </trkpt>
      <trkpt lat="41.050034" lon="-3.342158">
        <ele>989.086</ele>
        <time>2014-07-05T02:24:45Z</time>
      </trkpt>
      <trkpt lat="41.050115" lon="-3.341735">
        <ele>987.060</ele>
        <time>2014-07-05T02:25:05Z</time>
      </trkpt>
      <trkpt lat="41.050115" lon="-3.341343">
        <ele>985.026</ele>
        <time>2014-07-05T02:25:25Z</time>
      </trkpt>
      <trkpt lat="41.050188" lon="-3.341000">
        <ele>984.007</ele>
        <time>2014-07-05T02:25:45Z</time>
      </trkpt>
      <trkpt lat="41.050686" lon="-3.340131">
        <ele>979.055</ele>
        <time>2014-07-05T02:26:05Z</time>
      </trkpt>
      <trkpt lat="41.050738" lon="-3.339900">
        <ele>983.070</ele>
        <time>2014-07-05T02:26:25Z</time>
      </trkpt>
      <trkpt lat="41.051009" lon="-3.339449">
        <ele>982.070</ele>
        <time>2014-07-05T02:26:45Z</time>
      </trkpt>
      <trkpt lat="41.051406" lon="-3.338838">
        <ele>979.079</ele>
        <time>2014-07-05T02:27:05Z</time>
      </trkpt>
      <trkpt lat="41.051713" lon="-3.338656">
        <ele>978.096</ele>
        <time>2014-07-05T02:27:25Z</time>
      </trkpt>
      <trkpt lat="41.052025" lon="-3.338731">
        <ele>978.074</ele>
        <time>2014-07-05T02:27:45Z</time>
      </trkpt>
      <trkpt lat="41.052789" lon="-3.339235">
        <ele>983.024</ele>
        <time>2014-07-05T02:28:05Z</time>
      </trkpt>
      <trkpt lat="41.053024" lon="-3.339728">
        <ele>987.043</ele>
        <time>2014-07-05T02:28:25Z</time>
      </trkpt>
      <trkpt lat="41.053250" lon="-3.339567">
        <ele>989.064</ele>
        <time>2014-07-05T02:28:45Z</time>
      </trkpt>
      <trkpt lat="41.053396" lon="-3.339187">
        <ele>989.010</ele>
        <time>2014-07-05T02:29:05Z</time>
      </trkpt>
      <trkpt lat="41.052773" lon="-3.336976">
        <ele>988.007</ele>
        <time>2014-07-05T02:29:25Z</time>
      </trkpt>
      <trkpt lat="41.052672" lon="-3.336059">
        <ele>993.021</ele>
        <time>2014-07-05T02:29:45Z</time>
      </trkpt>
      <trkpt lat="41.052882" lon="-3.335630">
        <ele>992.016</ele>
        <time>2014-07-05T02:30:05Z</time>
      </trkpt>
      <trkpt lat="41.053279" lon="-3.335539">
        <ele>995.016</ele>
        <time>2014-07-05T02:30:25Z</time>
      </trkpt>
      <trkpt lat="41.053625" lon="-3.335708">
        <ele>994.085</ele>
        <time>2014-07-05T02:30:45Z</time>
      </trkpt>
      <trkpt lat="41.054256" lon="-3.336180">
        <ele>992.032</ele>
        <time>2014-07-05T02:31:05Z</time>
      </trkpt>
      <trkpt lat="41.054628" lon="-3.336341">
        <ele>992.030</ele>
        <time>2014-07-05T02:31:25Z</time>
      </trkpt>
      <trkpt lat="41.054847" lon="-3.336480">
        <ele>992.090</ele>
        <time>2014-07-05T02:31:45Z</time>
      </trkpt>
      <trkpt lat="41.055308" lon="-3.336416">
        <ele>992.074</ele>
        <time>2014-07-05T02:32:05Z</time>
      </trkpt>
      <trkpt lat="41.055898" lon="-3.336577">
        <ele>995.056</ele>
        <time>2014-07-05T02:32:25Z</time>
      </trkpt>
      <trkpt lat="41.056214" lon="-3.336877">
        <ele>996.021</ele>
        <time>2014-07-05T02:32:45Z</time>
      </trkpt>
      <trkpt lat="41.056408" lon="-3.337339">
        <ele>996.007</ele>
        <time>2014-07-05T02:33:05Z</time>
      </trkpt>
      <trkpt lat="41.056311" lon="-3.338133">
        <ele>999.064</ele>
        <time>2014-07-05T02:33:25Z</time>
      </trkpt>
      <trkpt lat="41.056092" lon="-3.339077">
        <ele>1005.099</ele>
        <time>2014-07-05T02:33:45Z</time>
      </trkpt>
      <trkpt lat="41.056270" lon="-3.339624">
        <ele>1009.029</ele>
        <time>2014-07-05T02:34:05Z</time>
      </trkpt>
      <trkpt lat="41.056505" lon="-3.339860">
        <ele>1009.088</ele>
        <time>2014-07-05T02:34:25Z</time>
      </trkpt>
      <trkpt lat="41.058180" lon="-3.339710">
        <ele>986.045</ele>
        <time>2014-07-05T02:34:45Z</time>
      </trkpt>
      <trkpt lat="41.058495" lon="-3.339291">
        <ele>980.093</ele>
        <time>2014-07-05T02:35:05Z</time>
      </trkpt>
      <trkpt lat="41.058706" lon="-3.339173">
        <ele>980.013</ele>
        <time>2014-07-05T02:35:25Z</time>
      </trkpt>
      <trkpt lat="41.058795" lon="-3.339044">
        <ele>976.061</ele>
        <time>2014-07-05T02:35:45Z</time>
      </trkpt>
      <trkpt lat="41.059118" lon="-3.339109">
        <ele>971.021</ele>
        <time>2014-07-05T02:36:05Z</time>
      </trkpt>
      <trkpt lat="41.059474" lon="-3.338894">
        <ele>965.013</ele>
        <time>2014-07-05T02:36:25Z</time>
      </trkpt>
      <trkpt lat="41.059911" lon="-3.339012">
        <ele>953.007</ele>
        <time>2014-07-05T02:36:45Z</time>
      </trkpt>
      <trkpt lat="41.060043" lon="-3.339118">
        <ele>954.073</ele>
        <time>2014-07-05T02:37:05Z</time>
      </trkpt>
      <trkpt lat="41.060237" lon="-3.339121">
        <ele>949.018</ele>
        <time>2014-07-05T02:37:25Z</time>
      </trkpt>
      <trkpt lat="41.060472" lon="-3.339140">
        <ele>946.038</ele>
        <time>2014-07-05T02:37:45Z</time>
      </trkpt>
      <trkpt lat="41.060575" lon="-3.339231">
        <ele>946.017</ele>
        <time>2014-07-05T02:38:05Z</time>
      </trkpt>
      <trkpt lat="41.061125" lon="-3.339853">
        <ele>943.064</ele>
        <time>2014-07-05T02:38:25Z</time>
      </trkpt>
      <trkpt lat="41.061214" lon="-3.340054">
        <ele>943.092</ele>
        <time>2014-07-05T02:38:45Z</time>
      </trkpt>
      <trkpt lat="41.061364" lon="-3.340382">
        <ele>943.032</ele>
        <time>2014-07-05T02:39:05Z</time>
      </trkpt>
      <trkpt lat="41.061539" lon="-3.340596">
        <ele>942.038</ele>
        <time>2014-07-05T02:39:25Z</time>
      </trkpt>
      <trkpt lat="41.061628" lon="-3.340819">
        <ele>941.070</ele>
        <time>2014-07-05T02:39:45Z</time>
      </trkpt>
      <trkpt lat="41.062166" lon="-3.341562">
        <ele>947.017</ele>
        <time>2014-07-05T02:40:05Z</time>
      </trkpt>
      <trkpt lat="41.062496" lon="-3.341634">
        <ele>954.007</ele>
        <time>2014-07-05T02:40:25Z</time>
      </trkpt>
      <trkpt lat="41.062615" lon="-3.341709">
        <ele>954.060</ele>
        <time>2014-07-05T02:40:45Z</time>
      </trkpt>
      <trkpt lat="41.062789" lon="-3.341763">
        <ele>962.075</ele>
        <time>2014-07-05T02:41:05Z</time>
      </trkpt>
      <trkpt lat="41.063072" lon="-3.342117">
        <ele>973.025</ele>
        <time>2014-07-05T02:41:25Z</time>
      </trkpt>
      <trkpt lat="41.063297" lon="-3.342243">
        <ele>981.054</ele>
        <time>2014-07-05T02:41:45Z</time>
      </trkpt>
      <trkpt lat="41.063705" lon="-3.342195">
        <ele>987.021</ele>
        <time>2014-07-05T02:42:05Z</time>
      </trkpt>
      <trkpt lat="41.063883" lon="-3.342138">
        <ele>992.089</ele>
        <time>2014-07-05T02:42:25Z</time>
      </trkpt>
      <trkpt lat="41.064144" lon="-3.342187">
        <ele>996.029</ele>
        <time>2014-07-05T02:42:45Z</time>
      </trkpt>
      <trkpt lat="41.064367" lon="-3.342463">
        <ele>1008.023</ele>
        <time>2014-07-05T02:43:05Z</time>
      </trkpt>
      <trkpt lat="41.064668" lon="-3.342927">
        <ele>1025.083</ele>
        <time>2014-07-05T02:43:25Z</time>
      </trkpt>
      <trkpt lat="41.065072" lon="-3.343131">
        <ele>1030.011</ele>
        <time>2014-07-05T02:43:45Z</time>
      </trkpt>
      <trkpt lat="41.065222" lon="-3.343168">
        <ele>1030.007</ele>
        <time>2014-07-05T02:44:05Z</time>
      </trkpt>
      <trkpt lat="41.065360" lon="-3.343541">
        <ele>1039.079</ele>
        <time>2014-07-05T02:44:25Z</time>
      </trkpt>
      <trkpt lat="41.065679" lon="-3.343686">
        <ele>1041.044</ele>
        <time>2014-07-05T02:44:45Z</time>
      </trkpt>
      <trkpt lat="41.065746" lon="-3.343871">
        <ele>1045.054</ele>
        <time>2014-07-05T02:45:05Z</time>
      </trkpt>
      <trkpt lat="41.065938" lon="-3.344048">
        <ele>1045.063</ele>
        <time>2014-07-05T02:45:25Z</time>
      </trkpt>
      <trkpt lat="41.066670" lon="-3.344185">
        <ele>1063.060</ele>
        <time>2014-07-05T02:45:45Z</time>
      </trkpt>
      <trkpt lat="41.067007" lon="-3.344127">
        <ele>1069.028</ele>
        <time>2014-07-05T02:46:05Z</time>
      </trkpt>
      <trkpt lat="41.067387" lon="-3.344315">
        <ele>1083.048</ele>
        <time>2014-07-05T02:46:25Z</time>
      </trkpt>
      <trkpt lat="41.067521" lon="-3.344186">
        <ele>1081.021</ele>
        <time>2014-07-05T02:46:45Z</time>
      </trkpt>
      <trkpt lat="41.067824" lon="-3.343784">
        <ele>1081.041</ele>
        <time>2014-07-05T02:47:05Z</time>
      </trkpt>
      <trkpt lat="41.068334" lon="-3.343580">
        <ele>1084.005</ele>
        <time>2014-07-05T02:47:25Z</time>
      </trkpt>
      <trkpt lat="41.068722" lon="-3.343301">
        <ele>1082.007</ele>
        <time>2014-07-05T02:47:45Z</time>
      </trkpt>
      <trkpt lat="41.068993" lon="-3.342926">
        <ele>1080.039</ele>
        <time>2014-07-05T02:48:05Z</time>
      </trkpt>
      <trkpt lat="41.069510" lon="-3.342711">
        <ele>1080.034</ele>
        <time>2014-07-05T02:48:25Z</time>
      </trkpt>
      <trkpt lat="41.069846" lon="-3.342378">
        <ele>1077.044</ele>
        <time>2014-07-05T02:48:45Z</time>
      </trkpt>
      <trkpt lat="41.070194" lon="-3.341944">
        <ele>1071.043</ele>
        <time>2014-07-05T02:49:05Z</time>
      </trkpt>
      <trkpt lat="41.071112" lon="-3.341171">
        <ele>1066.060</ele>
        <time>2014-07-05T02:49:25Z</time>
      </trkpt>
      <trkpt lat="41.071731" lon="-3.340388">
        <ele>1062.068</ele>
        <time>2014-07-05T02:49:45Z</time>
      </trkpt>
      <trkpt lat="41.072673" lon="-3.339659">
        <ele>1062.078</ele>
        <time>2014-07-05T02:50:05Z</time>
      </trkpt>
      <trkpt lat="41.073838" lon="-3.338779">
        <ele>1061.016</ele>
        <time>2014-07-05T02:50:25Z</time>
      </trkpt>
      <trkpt lat="41.074602" lon="-3.338854">
        <ele>1066.076</ele>
        <time>2014-07-05T02:50:45Z</time>
      </trkpt>
      <trkpt lat="41.074994" lon="-3.338688">
        <ele>1071.013</ele>
        <time>2014-07-05T02:51:05Z</time>
      </trkpt>
      <trkpt lat="41.075787" lon="-3.337910">
        <ele>1090.007</ele>
        <time>2014-07-05T02:51:25Z</time>
      </trkpt>
      <trkpt lat="41.076341" lon="-3.336183">
        <ele>1105.028</ele>
        <time>2014-07-05T02:51:45Z</time>
      </trkpt>
      <trkpt lat="41.076668" lon="-3.335560">
        <ele>1108.013</ele>
        <time>2014-07-05T02:52:05Z</time>
      </trkpt>
      <trkpt lat="41.076984" lon="-3.334986">
        <ele>1110.053</ele>
        <time>2014-07-05T02:52:25Z</time>
      </trkpt>
      <trkpt lat="41.078318" lon="-3.332685">
        <ele>1107.032</ele>
        <time>2014-07-05T02:52:45Z</time>
      </trkpt>
      <trkpt lat="41.078363" lon="-3.331676">
        <ele>1106.029</ele>
        <time>2014-07-05T02:53:05Z</time>
      </trkpt>
      <trkpt lat="41.078452" lon="-3.331371">
        <ele>1106.037</ele>
        <time>2014-07-05T02:53:25Z</time>
      </trkpt>
      <trkpt lat="41.079430" lon="-3.329788">
        <ele>1090.087</ele>
        <time>2014-07-05T02:53:45Z</time>
      </trkpt>
      <trkpt lat="41.079588" lon="-3.329134">
        <ele>1083.037</ele>
        <time>2014-07-05T02:54:05Z</time>
      </trkpt>
      <trkpt lat="41.079487" lon="-3.327787">
        <ele>1081.049</ele>
        <time>2014-07-05T02:54:25Z</time>
      </trkpt>
      <trkpt lat="41.080170" lon="-3.324992">
        <ele>1061.013</ele>
        <time>2014-07-05T02:54:45Z</time>
      </trkpt>
      <trkpt lat="41.080199" lon="-3.324461">
        <ele>1059.007</ele>
        <time>2014-07-05T02:55:05Z</time>
      </trkpt>
      <trkpt lat="41.079996" lon="-3.323898">
        <ele>1057.040</ele>
        <time>2014-07-05T02:55:25Z</time>
      </trkpt>
      <trkpt lat="41.079380" lon="-3.322544">
        <ele>1045.055</ele>
        <time>2014-07-05T02:55:45Z</time>
      </trkpt>
      <trkpt lat="41.079307" lon="-3.322018">
        <ele>1046.035</ele>
        <time>2014-07-05T02:56:05Z</time>
      </trkpt>
      <trkpt lat="41.079631" lon="-3.321760">
        <ele>1050.074</ele>
        <time>2014-07-05T02:56:25Z</time>
      </trkpt>
      <trkpt lat="41.080626" lon="-3.321792">
        <ele>1049.061</ele>
        <time>2014-07-05T02:56:45Z</time>
      </trkpt>
      <trkpt lat="41.080893" lon="-3.321374">
        <ele>1051.079</ele>
        <time>2014-07-05T02:57:05Z</time>
      </trkpt>
      <trkpt lat="41.080804" lon="-3.320612">
        <ele>1062.079</ele>
        <time>2014-07-05T02:57:25Z</time>
      </trkpt>
      <trkpt lat="41.080027" lon="-3.317952">
        <ele>1078.043</ele>
        <time>2014-07-05T02:57:45Z</time>
      </trkpt>
      <trkpt lat="41.079259" lon="-3.315280">
        <ele>1081.064</ele>
        <time>2014-07-05T02:58:05Z</time>
      </trkpt>
      <trkpt lat="41.078879" lon="-3.313950">
        <ele>1076.010</ele>
        <time>2014-07-05T02:58:25Z</time>
      </trkpt>
      <trkpt lat="41.079316" lon="-3.311128">
        <ele>1063.007</ele>
        <time>2014-07-05T02:58:45Z</time>
      </trkpt>
      <trkpt lat="41.079374" lon="-3.310439">
        <ele>1063.051</ele>
        <time>2014-07-05T02:59:05Z</time>
      </trkpt>
      <trkpt lat="41.079248" lon="-3.310007">
        <ele>1063.096</ele>
        <time>2014-07-05T02:59:25Z</time>
      </trkpt>
      <trkpt lat="41.077614" lon="-3.308161">
        <ele>1066.016</ele>
        <time>2014-07-05T02:59:45Z</time>
      </trkpt>
      <trkpt lat="41.076061" lon="-3.306895">
        <ele>1067.035</ele>
        <time>2014-07-05T03:00:05Z</time>
      </trkpt>
      <trkpt lat="41.073958" lon="-3.306681">
        <ele>1066.062</ele>
        <time>2014-07-05T03:00:25Z</time>
      </trkpt>
      <trkpt lat="41.072486" lon="-3.305651">
        <ele>1061.080</ele>
        <time>2014-07-05T03:00:45Z</time>
      </trkpt>
      <trkpt lat="41.071677" lon="-3.305608">
        <ele>1061.040</ele>
        <time>2014-07-05T03:01:05Z</time>
      </trkpt>
      <trkpt lat="41.071079" lon="-3.305866">
        <ele>1058.049</ele>
        <time>2014-07-05T03:01:25Z</time>
      </trkpt>
      <trkpt lat="41.070270" lon="-3.305930">
        <ele>1055.002</ele>
        <time>2014-07-05T03:01:45Z</time>
      </trkpt>
      <trkpt lat="41.068685" lon="-3.304042">
        <ele>1056.022</ele>
        <time>2014-07-05T03:02:05Z</time>
      </trkpt>
      <trkpt lat="41.067795" lon="-3.301402">
        <ele>1051.007</ele>
        <time>2014-07-05T03:02:25Z</time>
      </trkpt>
      <trkpt lat="41.066970" lon="-3.298699">
        <ele>1031.071</ele>
        <time>2014-07-05T03:02:45Z</time>
      </trkpt>
      <trkpt lat="41.066695" lon="-3.297025">
        <ele>1025.026</ele>
        <time>2014-07-05T03:03:05Z</time>
      </trkpt>
      <trkpt lat="41.065093" lon="-3.295974">
        <ele>1029.096</ele>
        <time>2014-07-05T03:03:25Z</time>
      </trkpt>
      <trkpt lat="41.065174" lon="-3.294493">
        <ele>1035.045</ele>
        <time>2014-07-05T03:03:45Z</time>
      </trkpt>
      <trkpt lat="41.067229" lon="-3.294021">
        <ele>1037.012</ele>
        <time>2014-07-05T03:04:05Z</time>
      </trkpt>
      <trkpt lat="41.068102" lon="-3.293892">
        <ele>1039.030</ele>
        <time>2014-07-05T03:04:25Z</time>
      </trkpt>
      <trkpt lat="41.068151" lon="-3.293270">
        <ele>1037.030</ele>
        <time>2014-07-05T03:04:45Z</time>
      </trkpt>
      <trkpt lat="41.067504" lon="-3.293098">
        <ele>1038.034</ele>
        <time>2014-07-05T03:05:05Z</time>
      </trkpt>
      <trkpt lat="41.066501" lon="-3.291532">
        <ele>1049.055</ele>
        <time>2014-07-05T03:05:25Z</time>
      </trkpt>
      <trkpt lat="41.066355" lon="-3.290416">
        <ele>1053.010</ele>
        <time>2014-07-05T03:05:45Z</time>
      </trkpt>
      <trkpt lat="41.065433" lon="-3.290287">
        <ele>1048.007</ele>
        <time>2014-07-05T03:06:05Z</time>
      </trkpt>
      <trkpt lat="41.063815" lon="-3.289772">
        <ele>1049.020</ele>
        <time>2014-07-05T03:06:25Z</time>
      </trkpt>
      <trkpt lat="41.063330" lon="-3.289171">
        <ele>1048.075</ele>
        <time>2014-07-05T03:06:45Z</time>
      </trkpt>
      <trkpt lat="41.062747" lon="-3.288120">
        <ele>1045.015</ele>
        <time>2014-07-05T03:07:05Z</time>
      </trkpt>
      <trkpt lat="41.061340" lon="-3.286575">
        <ele>1045.044</ele>
        <time>2014-07-05T03:07:25Z</time>
      </trkpt>
      <trkpt lat="41.060126" lon="-3.286639">
        <ele>1039.051</ele>
        <time>2014-07-05T03:07:45Z</time>
      </trkpt>
      <trkpt lat="41.058929" lon="-3.285974">
        <ele>1058.099</ele>
        <time>2014-07-05T03:08:05Z</time>
      </trkpt>
      <trkpt lat="41.057974" lon="-3.286146">
        <ele>1070.069</ele>
        <time>2014-07-05T03:08:25Z</time>
      </trkpt>
      <trkpt lat="41.057003" lon="-3.285609">
        <ele>1075.013</ele>
        <time>2014-07-05T03:08:45Z</time>
      </trkpt>
      <trkpt lat="41.057392" lon="-3.284386">
        <ele>1083.043</ele>
        <time>2014-07-05T03:09:05Z</time>
      </trkpt>
      <trkpt lat="41.056502" lon="-3.283399">
        <ele>1084.007</ele>
        <time>2014-07-05T03:09:25Z</time>
      </trkpt>
      <trkpt lat="41.056437" lon="-3.282949">
        <ele>1085.007</ele>
        <time>2014-07-05T03:09:45Z</time>
      </trkpt>
      <trkpt lat="41.054414" lon="-3.283378">
        <ele>1067.018</ele>
        <time>2014-07-05T03:10:05Z</time>
      </trkpt>
      <trkpt lat="41.053832" lon="-3.283249">
        <ele>1062.093</ele>
        <time>2014-07-05T03:10:25Z</time>
      </trkpt>
      <trkpt lat="41.052117" lon="-3.283185">
        <ele>1067.033</ele>
        <time>2014-07-05T03:10:45Z</time>
      </trkpt>
      <trkpt lat="41.051259" lon="-3.282562">
        <ele>1067.092</ele>
        <time>2014-07-05T03:11:05Z</time>
      </trkpt>
      <trkpt lat="41.049560" lon="-3.282155">
        <ele>1045.019</ele>
        <time>2014-07-05T03:11:25Z</time>
      </trkpt>
      <trkpt lat="41.049172" lon="-3.282605">
        <ele>1041.027</ele>
        <time>2014-07-05T03:11:45Z</time>
      </trkpt>
      <trkpt lat="41.048201" lon="-3.282584">
        <ele>1024.017</ele>
        <time>2014-07-05T03:12:05Z</time>
      </trkpt>
      <trkpt lat="41.047327" lon="-3.282841">
        <ele>1010.019</ele>
        <time>2014-07-05T03:12:25Z</time>
      </trkpt>
      <trkpt lat="41.046874" lon="-3.282562">
        <ele>1002.009</ele>
        <time>2014-07-05T03:12:45Z</time>
      </trkpt>
      <trkpt lat="41.046777" lon="-3.282326">
        <ele>993.019</ele>
        <time>2014-07-05T03:13:05Z</time>
      </trkpt>
      <trkpt lat="41.045822" lon="-3.282305">
        <ele>984.007</ele>
        <time>2014-07-05T03:13:25Z</time>
      </trkpt>
      <trkpt lat="41.044414" lon="-3.280202">
        <ele>971.048</ele>
        <time>2014-07-05T03:13:45Z</time>
      </trkpt>
      <trkpt lat="41.044220" lon="-3.280417">
        <ele>968.083</ele>
        <time>2014-07-05T03:14:05Z</time>
      </trkpt>
      <trkpt lat="41.043605" lon="-3.280288">
        <ele>971.033</ele>
        <time>2014-07-05T03:14:25Z</time>
      </trkpt>
      <trkpt lat="41.043475" lon="-3.279537">
        <ele>987.042</ele>
        <time>2014-07-05T03:14:45Z</time>
      </trkpt>
      <trkpt lat="41.043702" lon="-3.278228">
        <ele>1011.039</ele>
        <time>2014-07-05T03:15:05Z</time>
      </trkpt>
      <trkpt lat="41.044835" lon="-3.275825">
        <ele>1034.027</ele>
        <time>2014-07-05T03:15:25Z</time>
      </trkpt>
      <trkpt lat="41.044948" lon="-3.275331">
        <ele>1041.087</ele>
        <time>2014-07-05T03:15:45Z</time>
      </trkpt>
      <trkpt lat="41.045207" lon="-3.274988">
        <ele>1049.055</ele>
        <time>2014-07-05T03:16:05Z</time>
      </trkpt>
      <trkpt lat="41.045272" lon="-3.274537">
        <ele>1045.007</ele>
        <time>2014-07-05T03:16:25Z</time>
      </trkpt>
      <trkpt lat="41.045611" lon="-3.274151">
        <ele>1056.017</ele>
        <time>2014-07-05T03:16:45Z</time>
      </trkpt>
      <trkpt lat="41.045676" lon="-3.273658">
        <ele>1050.007</ele>
        <time>2014-07-05T03:17:05Z</time>
      </trkpt>
      <trkpt lat="41.046582" lon="-3.272713">
        <ele>1087.032</ele>
        <time>2014-07-05T03:17:25Z</time>
      </trkpt>
      <trkpt lat="41.047328" lon="-3.269996">
        <ele>1106.047</ele>
        <time>2014-07-05T03:17:45Z</time>
      </trkpt>
      <trkpt lat="41.048218" lon="-3.267298">
        <ele>1138.027</ele>
        <time>2014-07-05T03:18:05Z</time>
      </trkpt>
      <trkpt lat="41.049128" lon="-3.264594">
        <ele>1167.026</ele>
        <time>2014-07-05T03:18:25Z</time>
      </trkpt>
      <trkpt lat="41.049164" lon="-3.264010">
        <ele>1177.093</ele>
        <time>2014-07-05T03:18:45Z</time>
      </trkpt>
      <trkpt lat="41.049682" lon="-3.263977">
        <ele>1178.011</ele>
        <time>2014-07-05T03:19:05Z</time>
      </trkpt>
      <trkpt lat="41.049998" lon="-3.263768">
        <ele>1176.051</ele>
        <time>2014-07-05T03:19:25Z</time>
      </trkpt>
      <trkpt lat="41.050164" lon="-3.263291">
        <ele>1177.052</ele>
        <time>2014-07-05T03:19:45Z</time>
      </trkpt>
      <trkpt lat="41.050002" lon="-3.262749">
        <ele>1183.053</ele>
        <time>2014-07-05T03:20:05Z</time>
      </trkpt>
      <trkpt lat="41.049682" lon="-3.261950">
        <ele>1185.008</ele>
        <time>2014-07-05T03:20:25Z</time>
      </trkpt>
      <trkpt lat="41.049063" lon="-3.260759">
        <ele>1187.007</ele>
        <time>2014-07-05T03:20:45Z</time>
      </trkpt>
      <trkpt lat="41.048363" lon="-3.260040">
        <ele>1192.022</ele>
        <time>2014-07-05T03:21:05Z</time>
      </trkpt>
      <trkpt lat="41.048287" lon="-3.259782">
        <ele>1192.057</ele>
        <time>2014-07-05T03:21:25Z</time>
      </trkpt>
      <trkpt lat="41.049472" lon="-3.258892">
        <ele>1187.027</ele>
        <time>2014-07-05T03:21:45Z</time>
      </trkpt>
      <trkpt lat="41.050054" lon="-3.258313">
        <ele>1186.066</ele>
        <time>2014-07-05T03:22:05Z</time>
      </trkpt>
      <trkpt lat="41.050342" lon="-3.257481">
        <ele>1187.083</ele>
        <time>2014-07-05T03:22:25Z</time>
      </trkpt>
      <trkpt lat="41.050172" lon="-3.257111">
        <ele>1189.021</ele>
        <time>2014-07-05T03:22:45Z</time>
      </trkpt>
      <trkpt lat="41.049889" lon="-3.256666">
        <ele>1204.021</ele>
        <time>2014-07-05T03:23:05Z</time>
      </trkpt>
      <trkpt lat="41.050406" lon="-3.255529">
        <ele>1216.064</ele>
        <time>2014-07-05T03:23:25Z</time>
      </trkpt>
      <trkpt lat="41.050847" lon="-3.255679">
        <ele>1208.006</ele>
        <time>2014-07-05T03:23:45Z</time>
      </trkpt>
      <trkpt lat="41.052217" lon="-3.255596">
        <ele>1198.016</ele>
        <time>2014-07-05T03:24:05Z</time>
      </trkpt>
      <trkpt lat="41.052735" lon="-3.254609">
        <ele>1208.007</ele>
        <time>2014-07-05T03:24:25Z</time>
      </trkpt>
      <trkpt lat="41.052800" lon="-3.254254">
        <ele>1219.063</ele>
        <time>2014-07-05T03:24:45Z</time>
      </trkpt>
      <trkpt lat="41.053423" lon="-3.254340">
        <ele>1206.088</ele>
        <time>2014-07-05T03:25:05Z</time>
      </trkpt>
      <trkpt lat="41.053949" lon="-3.253911">
        <ele>1210.048</ele>
        <time>2014-07-05T03:25:25Z</time>
      </trkpt>
      <trkpt lat="41.054029" lon="-3.253278">
        <ele>1210.087</ele>
        <time>2014-07-05T03:25:45Z</time>
      </trkpt>
      <trkpt lat="41.053609" lon="-3.252152">
        <ele>1223.034</ele>
        <time>2014-07-05T03:26:05Z</time>
      </trkpt>
      <trkpt lat="41.053625" lon="-3.251079">
        <ele>1225.022</ele>
        <time>2014-07-05T03:26:25Z</time>
      </trkpt>
      <trkpt lat="41.053807" lon="-3.250981">
        <ele>1224.062</ele>
        <time>2014-07-05T03:26:45Z</time>
      </trkpt>
      <trkpt lat="41.054302" lon="-3.251205">
        <ele>1225.024</ele>
        <time>2014-07-05T03:27:05Z</time>
      </trkpt>
      <trkpt lat="41.055188" lon="-3.250894">
        <ele>1240.004</ele>
        <time>2014-07-05T03:27:25Z</time>
      </trkpt>
      <trkpt lat="41.056822" lon="-3.249976">
        <ele>1246.014</ele>
        <time>2014-07-05T03:27:45Z</time>
      </trkpt>
      <trkpt lat="41.057061" lon="-3.249456">
        <ele>1250.007</ele>
        <time>2014-07-05T03:28:05Z</time>
      </trkpt>
      <trkpt lat="41.056899" lon="-3.249118">
        <ele>1252.059</ele>
        <time>2014-07-05T03:28:25Z</time>
      </trkpt>
      <trkpt lat="41.056749" lon="-3.248726">
        <ele>1268.014</ele>
        <time>2014-07-05T03:28:45Z</time>
      </trkpt>
      <trkpt lat="41.056895" lon="-3.248265">
        <ele>1267.014</ele>
        <time>2014-07-05T03:29:05Z</time>
      </trkpt>
      <trkpt lat="41.057630" lon="-3.247924">
        <ele>1261.023</ele>
        <time>2014-07-05T03:29:25Z</time>
      </trkpt>
      <trkpt lat="41.057840" lon="-3.247592">
        <ele>1265.060</ele>
        <time>2014-07-05T03:29:45Z</time>
      </trkpt>
      <trkpt lat="41.057913" lon="-3.247227">
        <ele>1269.068</ele>
        <time>2014-07-05T03:30:05Z</time>
      </trkpt>
      <trkpt lat="41.058584" lon="-3.246433">
        <ele>1275.088</ele>
        <time>2014-07-05T03:30:25Z</time>
      </trkpt>
      <trkpt lat="41.058617" lon="-3.245950">
        <ele>1282.026</ele>
        <time>2014-07-05T03:30:45Z</time>
      </trkpt>
      <trkpt lat="41.058180" lon="-3.244577">
        <ele>1317.047</ele>
        <time>2014-07-05T03:31:05Z</time>
      </trkpt>
      <trkpt lat="41.058762" lon="-3.243976">
        <ele>1300.011</ele>
        <time>2014-07-05T03:31:25Z</time>
      </trkpt>
      <trkpt lat="41.058884" lon="-3.243558">
        <ele>1302.007</ele>
        <time>2014-07-05T03:31:45Z</time>
      </trkpt>
      <trkpt lat="41.058754" lon="-3.243000">
        <ele>1304.099</ele>
        <time>2014-07-05T03:32:05Z</time>
      </trkpt>
      <trkpt lat="41.058479" lon="-3.241916">
        <ele>1312.064</ele>
        <time>2014-07-05T03:32:25Z</time>
      </trkpt>
      <trkpt lat="41.058536" lon="-3.241251">
        <ele>1313.054</ele>
        <time>2014-07-05T03:32:45Z</time>
      </trkpt>
      <trkpt lat="41.058511" lon="-3.240446">
        <ele>1320.053</ele>
        <time>2014-07-05T03:33:05Z</time>
      </trkpt>
      <trkpt lat="41.058786" lon="-3.240178">
        <ele>1321.090</ele>
        <time>2014-07-05T03:33:25Z</time>
      </trkpt>
      <trkpt lat="41.059498" lon="-3.240049">
        <ele>1325.018</ele>
        <time>2014-07-05T03:33:45Z</time>
      </trkpt>
      <trkpt lat="41.059466" lon="-3.239813">
        <ele>1330.028</ele>
        <time>2014-07-05T03:34:05Z</time>
      </trkpt>
      <trkpt lat="41.057969" lon="-3.239331">
        <ele>1347.059</ele>
        <time>2014-07-05T03:34:25Z</time>
      </trkpt>
      <trkpt lat="41.057735" lon="-3.239931">
        <ele>1347.003</ele>
        <time>2014-07-05T03:34:45Z</time>
      </trkpt>
      <trkpt lat="41.057597" lon="-3.239631">
        <ele>1359.023</ele>
        <time>2014-07-05T03:35:05Z</time>
      </trkpt>
      <trkpt lat="41.057727" lon="-3.238966">
        <ele>1366.007</ele>
        <time>2014-07-05T03:35:25Z</time>
      </trkpt>
      <trkpt lat="41.058249" lon="-3.238639">
        <ele>1368.012</ele>
        <time>2014-07-05T03:35:45Z</time>
      </trkpt>
      <trkpt lat="41.059803" lon="-3.238274">
        <ele>1372.087</ele>
        <time>2014-07-05T03:36:05Z</time>
      </trkpt>
      <trkpt lat="41.060547" lon="-3.238381">
        <ele>1384.027</ele>
        <time>2014-07-05T03:36:25Z</time>
      </trkpt>
      <trkpt lat="41.061404" lon="-3.238188">
        <ele>1401.066</ele>
        <time>2014-07-05T03:36:45Z</time>
      </trkpt>
      <trkpt lat="41.062278" lon="-3.238767">
        <ele>1398.073</ele>
        <time>2014-07-05T03:37:05Z</time>
      </trkpt>
      <trkpt lat="41.063378" lon="-3.238403">
        <ele>1415.021</ele>
        <time>2014-07-05T03:37:25Z</time>
      </trkpt>
      <trkpt lat="41.064268" lon="-3.237695">
        <ele>1422.011</ele>
        <time>2014-07-05T03:37:45Z</time>
      </trkpt>
      <trkpt lat="41.064964" lon="-3.236686">
        <ele>1436.077</ele>
        <time>2014-07-05T03:38:05Z</time>
      </trkpt>
      <trkpt lat="41.065530" lon="-3.236428">
        <ele>1439.061</ele>
        <time>2014-07-05T03:38:25Z</time>
      </trkpt>
      <trkpt lat="41.065756" lon="-3.235892">
        <ele>1441.027</ele>
        <time>2014-07-05T03:38:45Z</time>
      </trkpt>
      <trkpt lat="41.067164" lon="-3.234884">
        <ele>1429.007</ele>
        <time>2014-07-05T03:39:05Z</time>
      </trkpt>
      <trkpt lat="41.067746" lon="-3.234175">
        <ele>1415.094</ele>
        <time>2014-07-05T03:39:25Z</time>
      </trkpt>
      <trkpt lat="41.069024" lon="-3.233725">
        <ele>1404.019</ele>
        <time>2014-07-05T03:39:45Z</time>
      </trkpt>
      <trkpt lat="41.069704" lon="-3.233575">
        <ele>1400.069</ele>
        <time>2014-07-05T03:40:05Z</time>
      </trkpt>
      <trkpt lat="41.070642" lon="-3.233038">
        <ele>1388.028</ele>
        <time>2014-07-05T03:40:25Z</time>
      </trkpt>
      <trkpt lat="41.071710" lon="-3.233317">
        <ele>1403.095</ele>
        <time>2014-07-05T03:40:45Z</time>
      </trkpt>
      <trkpt lat="41.072146" lon="-3.232867">
        <ele>1403.013</ele>
        <time>2014-07-05T03:41:05Z</time>
      </trkpt>
      <trkpt lat="41.072745" lon="-3.232609">
        <ele>1395.073</ele>
        <time>2014-07-05T03:41:25Z</time>
      </trkpt>
      <trkpt lat="41.073214" lon="-3.229862">
        <ele>1340.026</ele>
        <time>2014-07-05T03:41:45Z</time>
      </trkpt>
      <trkpt lat="41.073133" lon="-3.229154">
        <ele>1326.047</ele>
        <time>2014-07-05T03:42:05Z</time>
      </trkpt>
      <trkpt lat="41.073473" lon="-3.227845">
        <ele>1292.011</ele>
        <time>2014-07-05T03:42:25Z</time>
      </trkpt>
      <trkpt lat="41.073392" lon="-3.227051">
        <ele>1280.007</ele>
        <time>2014-07-05T03:42:45Z</time>
      </trkpt>
      <trkpt lat="41.073829" lon="-3.225077">
        <ele>1254.069</ele>
        <time>2014-07-05T03:43:05Z</time>
      </trkpt>
      <trkpt lat="41.074039" lon="-3.224670">
        <ele>1251.094</ele>
        <time>2014-07-05T03:43:25Z</time>
      </trkpt>
      <trkpt lat="41.075107" lon="-3.225099">
        <ele>1255.064</ele>
        <time>2014-07-05T03:43:45Z</time>
      </trkpt>
      <trkpt lat="41.075624" lon="-3.225764">
        <ele>1263.043</ele>
        <time>2014-07-05T03:44:05Z</time>
      </trkpt>
      <trkpt lat="41.076902" lon="-3.226365">
        <ele>1261.090</ele>
        <time>2014-07-05T03:44:25Z</time>
      </trkpt>
      <trkpt lat="41.077387" lon="-3.227137">
        <ele>1269.048</ele>
        <time>2014-07-05T03:44:45Z</time>
      </trkpt>
      <trkpt lat="41.079328" lon="-3.228489">
        <ele>1279.028</ele>
        <time>2014-07-05T03:45:05Z</time>
      </trkpt>
      <trkpt lat="41.080477" lon="-3.229712">
        <ele>1286.022</ele>
        <time>2014-07-05T03:45:25Z</time>
      </trkpt>
      <trkpt lat="41.081771" lon="-3.228918">
        <ele>1281.062</ele>
        <time>2014-07-05T03:45:45Z</time>
      </trkpt>
      <trkpt lat="41.082757" lon="-3.228253">
        <ele>1282.008</ele>
        <time>2014-07-05T03:46:05Z</time>
      </trkpt>
      <trkpt lat="41.083501" lon="-3.228790">
        <ele>1277.007</ele>
        <time>2014-07-05T03:46:25Z</time>
      </trkpt>
      <trkpt lat="41.084051" lon="-3.229798">
        <ele>1272.059</ele>
        <time>2014-07-05T03:46:45Z</time>
      </trkpt>
      <trkpt lat="41.084569" lon="-3.231579">
        <ele>1288.064</ele>
        <time>2014-07-05T03:47:05Z</time>
      </trkpt>
      <trkpt lat="41.085345" lon="-3.231150">
        <ele>1276.014</ele>
        <time>2014-07-05T03:47:25Z</time>
      </trkpt>
      <trkpt lat="41.086364" lon="-3.231322">
        <ele>1281.043</ele>
        <time>2014-07-05T03:47:45Z</time>
      </trkpt>
      <trkpt lat="41.087043" lon="-3.231171">
        <ele>1277.080</ele>
        <time>2014-07-05T03:48:05Z</time>
      </trkpt>
      <trkpt lat="41.088887" lon="-3.231858">
        <ele>1277.078</ele>
        <time>2014-07-05T03:48:25Z</time>
      </trkpt>
      <trkpt lat="41.090245" lon="-3.231686">
        <ele>1272.098</ele>
        <time>2014-07-05T03:48:45Z</time>
      </trkpt>
      <trkpt lat="41.092283" lon="-3.232588">
        <ele>1271.085</ele>
        <time>2014-07-05T03:49:05Z</time>
      </trkpt>
      <trkpt lat="41.092752" lon="-3.233081">
        <ele>1265.089</ele>
        <time>2014-07-05T03:49:25Z</time>
      </trkpt>
      <trkpt lat="41.093512" lon="-3.234369">
        <ele>1260.017</ele>
        <time>2014-07-05T03:49:45Z</time>
      </trkpt>
      <trkpt lat="41.093415" lon="-3.235098">
        <ele>1270.007</ele>
        <time>2014-07-05T03:50:05Z</time>
      </trkpt>
      <trkpt lat="41.093528" lon="-3.236021">
        <ele>1275.035</ele>
        <time>2014-07-05T03:50:25Z</time>
      </trkpt>
      <trkpt lat="41.094062" lon="-3.235248">
        <ele>1268.090</ele>
        <time>2014-07-05T03:50:45Z</time>
      </trkpt>
      <trkpt lat="41.095048" lon="-3.234905">
        <ele>1271.040</ele>
        <time>2014-07-05T03:51:05Z</time>
      </trkpt>
      <trkpt lat="41.094887" lon="-3.234175">
        <ele>1265.049</ele>
        <time>2014-07-05T03:51:25Z</time>
      </trkpt>
      <trkpt lat="41.094984" lon="-3.233424">
        <ele>1268.076</ele>
        <time>2014-07-05T03:51:45Z</time>
      </trkpt>
      <trkpt lat="41.095614" lon="-3.232459">
        <ele>1283.044</ele>
        <time>2014-07-05T03:52:05Z</time>
      </trkpt>
      <trkpt lat="41.097102" lon="-3.231279">
        <ele>1304.094</ele>
        <time>2014-07-05T03:52:25Z</time>
      </trkpt>
      <trkpt lat="41.097943" lon="-3.231150">
        <ele>1310.023</ele>
        <time>2014-07-05T03:52:45Z</time>
      </trkpt>
      <trkpt lat="41.099414" lon="-3.231944">
        <ele>1327.083</ele>
        <time>2014-07-05T03:53:05Z</time>
      </trkpt>
      <trkpt lat="41.099819" lon="-3.232309">
        <ele>1332.011</ele>
        <time>2014-07-05T03:53:25Z</time>
      </trkpt>
      <trkpt lat="41.101840" lon="-3.233038">
        <ele>1359.007</ele>
        <time>2014-07-05T03:53:45Z</time>
      </trkpt>
      <trkpt lat="41.103117" lon="-3.234090">
        <ele>1380.089</ele>
        <time>2014-07-05T03:54:05Z</time>
      </trkpt>
      <trkpt lat="41.103861" lon="-3.234326">
        <ele>1392.054</ele>
        <time>2014-07-05T03:54:25Z</time>
      </trkpt>
      <trkpt lat="41.104508" lon="-3.233854">
        <ele>1394.084</ele>
        <time>2014-07-05T03:54:45Z</time>
      </trkpt>
      <trkpt lat="41.105106" lon="-3.232266">
        <ele>1402.033</ele>
        <time>2014-07-05T03:55:05Z</time>
      </trkpt>
      <trkpt lat="41.106157" lon="-3.231622">
        <ele>1425.020</ele>
        <time>2014-07-05T03:55:25Z</time>
      </trkpt>
      <trkpt lat="41.107822" lon="-3.231043">
        <ele>1454.038</ele>
        <time>2014-07-05T03:55:45Z</time>
      </trkpt>
      <trkpt lat="41.109245" lon="-3.229948">
        <ele>1463.018</ele>
        <time>2014-07-05T03:56:05Z</time>
      </trkpt>
      <trkpt lat="41.109749" lon="-3.229986">
        <ele>1462.058</ele>
        <time>2014-07-05T03:56:25Z</time>
      </trkpt>
      <trkpt lat="41.111027" lon="-3.229031">
        <ele>1460.052</ele>
        <time>2014-07-05T03:56:45Z</time>
      </trkpt>
      <trkpt lat="41.112514" lon="-3.228323">
        <ele>1441.017</ele>
        <time>2014-07-05T03:57:05Z</time>
      </trkpt>
      <trkpt lat="41.114705" lon="-3.227990">
        <ele>1406.007</ele>
        <time>2014-07-05T03:57:25Z</time>
      </trkpt>
      <trkpt lat="41.116871" lon="-3.227658">
        <ele>1380.022</ele>
        <time>2014-07-05T03:57:45Z</time>
      </trkpt>
      <trkpt lat="41.117816" lon="-3.227368">
        <ele>1367.067</ele>
        <time>2014-07-05T03:58:05Z</time>
      </trkpt>
      <trkpt lat="41.118964" lon="-3.226778">
        <ele>1353.067</ele>
        <time>2014-07-05T03:58:25Z</time>
      </trkpt>
      <trkpt lat="41.119164" lon="-3.226491">
        <ele>1349.046</ele>
        <time>2014-07-05T03:58:45Z</time>
      </trkpt>
      <trkpt lat="41.119277" lon="-3.226051">
        <ele>1349.083</ele>
        <time>2014-07-05T03:59:05Z</time>
      </trkpt>
      <trkpt lat="41.119366" lon="-3.224903">
        <ele>1334.041</ele>
        <time>2014-07-05T03:59:25Z</time>
      </trkpt>
      <trkpt lat="41.119273" lon="-3.223578">
        <ele>1324.071</ele>
        <time>2014-07-05T03:59:45Z</time>
      </trkpt>
      <trkpt lat="41.119443" lon="-3.222333">
        <ele>1303.092</ele>
        <time>2014-07-05T04:00:05Z</time>
      </trkpt>
      <trkpt lat="41.119681" lon="-3.222189">
        <ele>1299.073</ele>
        <time>2014-07-05T04:00:25Z</time>
      </trkpt>
      <trkpt lat="41.120308" lon="-3.222757">
        <ele>1292.020</ele>
        <time>2014-07-05T04:00:45Z</time>
      </trkpt>
      <trkpt lat="41.120554" lon="-3.223412">
        <ele>1289.007</ele>
        <time>2014-07-05T04:01:05Z</time>
      </trkpt>
      <trkpt lat="41.120857" lon="-3.224045">
        <ele>1286.046</ele>
        <time>2014-07-05T04:01:25Z</time>
      </trkpt>
      <trkpt lat="41.121972" lon="-3.225445">
        <ele>1264.061</ele>
        <time>2014-07-05T04:01:45Z</time>
      </trkpt>
      <trkpt lat="41.122401" lon="-3.225692">
        <ele>1248.011</ele>
        <time>2014-07-05T04:02:05Z</time>
      </trkpt>
      <trkpt lat="41.122979" lon="-3.225847">
        <ele>1237.030</ele>
        <time>2014-07-05T04:02:25Z</time>
      </trkpt>
      <trkpt lat="41.123532" lon="-3.226335">
        <ele>1226.037</ele>
        <time>2014-07-05T04:02:45Z</time>
      </trkpt>
      <trkpt lat="41.124130" lon="-3.227285">
        <ele>1212.035</ele>
        <time>2014-07-05T04:03:05Z</time>
      </trkpt>
      <trkpt lat="41.124724" lon="-3.228111">
        <ele>1199.095</ele>
        <time>2014-07-05T04:03:25Z</time>
      </trkpt>
      <trkpt lat="41.124829" lon="-3.228685">
        <ele>1201.078</ele>
        <time>2014-07-05T04:03:45Z</time>
      </trkpt>
      <trkpt lat="41.124813" lon="-3.229431">
        <ele>1197.033</ele>
        <time>2014-07-05T04:04:05Z</time>
      </trkpt>
      <trkpt lat="41.125124" lon="-3.229844">
        <ele>1189.026</ele>
        <time>2014-07-05T04:04:25Z</time>
      </trkpt>
      <trkpt lat="41.125294" lon="-3.230402">
        <ele>1186.007</ele>
        <time>2014-07-05T04:04:45Z</time>
      </trkpt>
      <trkpt lat="41.125504" lon="-3.230444">
        <ele>1187.064</ele>
        <time>2014-07-05T04:05:05Z</time>
      </trkpt>
      <trkpt lat="41.125557" lon="-3.230278">
        <ele>1185.079</ele>
        <time>2014-07-05T04:05:25Z</time>
      </trkpt>
      <trkpt lat="41.125812" lon="-3.230258">
        <ele>1186.019</ele>
        <time>2014-07-05T04:05:45Z</time>
      </trkpt>
      <trkpt lat="41.126065" lon="-3.229976">
        <ele>1187.028</ele>
        <time>2014-07-05T04:06:05Z</time>
      </trkpt>
      <trkpt lat="41.126366" lon="-3.229628">
        <ele>1188.085</ele>
        <time>2014-07-05T04:06:25Z</time>
      </trkpt>
      <trkpt lat="41.126210" lon="-3.228641">
        <ele>1182.093</ele>
        <time>2014-07-05T04:06:45Z</time>
      </trkpt>
      <trkpt lat="41.126198" lon="-3.227817">
        <ele>1184.083</ele>
        <time>2014-07-05T04:07:05Z</time>
      </trkpt>
      <trkpt lat="41.126295" lon="-3.227798">
        <ele>1191.087</ele>
        <time>2014-07-05T04:07:25Z</time>
      </trkpt>
      <trkpt lat="41.126521" lon="-3.228212">
        <ele>1188.042</ele>
        <time>2014-07-05T04:07:45Z</time>
      </trkpt>
      <trkpt lat="41.127259" lon="-3.229070">
        <ele>1188.026</ele>
        <time>2014-07-05T04:08:05Z</time>
      </trkpt>
      <trkpt lat="41.128109" lon="-3.229928">
        <ele>1209.007</ele>
        <time>2014-07-05T04:08:25Z</time>
      </trkpt>
      <trkpt lat="41.128539" lon="-3.230192">
        <ele>1217.035</ele>
        <time>2014-07-05T04:08:45Z</time>
      </trkpt>
      <trkpt lat="41.129109" lon="-3.230761">
        <ele>1220.070</ele>
        <time>2014-07-05T04:09:05Z</time>
      </trkpt>
      <trkpt lat="41.129638" lon="-3.231083">
        <ele>1226.030</ele>
        <time>2014-07-05T04:09:25Z</time>
      </trkpt>
      <trkpt lat="41.130034" lon="-3.232708">
        <ele>1241.079</ele>
        <time>2014-07-05T04:09:45Z</time>
      </trkpt>
      <trkpt lat="41.130105" lon="-3.232688">
        <ele>1241.076</ele>
        <time>2014-07-05T04:10:05Z</time>
      </trkpt>
      <trkpt lat="41.130116" lon="-3.232350">
        <ele>1236.014</ele>
        <time>2014-07-05T04:10:25Z</time>
      </trkpt>
      <trkpt lat="41.130164" lon="-3.232235">
        <ele>1240.024</ele>
        <time>2014-07-05T04:10:45Z</time>
      </trkpt>
      <trkpt lat="41.130225" lon="-3.232077">
        <ele>1239.041</ele>
        <time>2014-07-05T04:11:05Z</time>
      </trkpt>
      <trkpt lat="41.130307" lon="-3.231886">
        <ele>1239.081</ele>
        <time>2014-07-05T04:11:25Z</time>
      </trkpt>
      <trkpt lat="41.130469" lon="-3.231744">
        <ele>1245.009</ele>
        <time>2014-07-05T04:11:45Z</time>
      </trkpt>
      <trkpt lat="41.130669" lon="-3.231664">
        <ele>1245.007</ele>
        <time>2014-07-05T04:12:05Z</time>
      </trkpt>
      <trkpt lat="41.130930" lon="-3.231677">
        <ele>1252.011</ele>
        <time>2014-07-05T04:12:25Z</time>
      </trkpt>
      <trkpt lat="41.131144" lon="-3.231854">
        <ele>1259.096</ele>
        <time>2014-07-05T04:12:45Z</time>
      </trkpt>
      <trkpt lat="41.131326" lon="-3.231967">
        <ele>1263.096</ele>
        <time>2014-07-05T04:13:05Z</time>
      </trkpt>
      <trkpt lat="41.131548" lon="-3.232103">
        <ele>1269.055</ele>
        <time>2014-07-05T04:13:25Z</time>
      </trkpt>
      <trkpt lat="41.131667" lon="-3.232272">
        <ele>1269.012</ele>
        <time>2014-07-05T04:13:45Z</time>
      </trkpt>
      <trkpt lat="41.131718" lon="-3.232382">
        <ele>1270.020</ele>
        <time>2014-07-05T04:14:05Z</time>
      </trkpt>
    </trkseg>
  </trk>
</gpx>
